/BCO-DMO/SPOT/CTD ---- Level 0

      Directory  DocumentationDownload and Other Operations...

 - At level 0 -  - At last level -       Flat list

#  RBRconcerto Santa Monica Pier Daily April 2018
#  PI: David Caron
#  Data version 1: 2018-10-04
=========================
Date         Time       conductivity  temperature  pressure  dissolvedosaturation  chlorophylla  salinity  scan  lat         lon           ISO_DateTime_UTC        
-------------------------
4/16/2018    9:51:48    42.13         15.86        1.18      98.17                 5.04          33.54     1000  34.00765    -118.50015    2018-04-16T16:51:48Z    
4/16/2018    9:51:48    42.13         15.85        1.15      98.18                 5.08          33.54     1001  34.00765    -118.50015    2018-04-16T16:51:48Z    
4/16/2018    9:51:48    42.13         15.85        1.14      98.19                 5.11          33.55     1002  34.00765    -118.50015    2018-04-16T16:51:48Z    
4/16/2018    9:51:49    42.13         15.84        1.12      98.21                 5.13          33.55     1003  34.00765    -118.50015    2018-04-16T16:51:49Z    
4/16/2018    9:51:49    42.13         15.84        1.09      98.19                 5.09          33.55     1004  34.00765    -118.50015    2018-04-16T16:51:49Z    
4/16/2018    9:51:49    42.12         15.84        1.07      98.19                 5.13          33.55     1005  34.00765    -118.50015    2018-04-16T16:51:49Z    
4/16/2018    9:51:49    42.12         15.84        1.05      98.17                 5.15          33.55     1006  34.00765    -118.50015    2018-04-16T16:51:49Z    
4/16/2018    9:51:49    42.12         15.84        1.04      98.22                 5.16          33.55     1007  34.00765    -118.50015    2018-04-16T16:51:49Z    
4/16/2018    9:51:49    42.12         15.84        1.03      98.19                 5.14          33.55     1008  34.00765    -118.50015    2018-04-16T16:51:49Z    
4/16/2018    9:51:50    42.12         15.85        1.05      98.23                 5.19          33.55     1009  34.00765    -118.50015    2018-04-16T16:51:50Z    
4/16/2018    9:51:50    42.12         15.85        1.05      98.22                 5.16          33.55     1010  34.00765    -118.50015    2018-04-16T16:51:50Z    
4/16/2018    9:51:50    42.12         15.85        1.06      98.21                 5.14          33.55     1011  34.00765    -118.50015    2018-04-16T16:51:50Z    
4/16/2018    9:51:50    42.13         15.85        1.05      98.21                 5.07          33.55     1012  34.00765    -118.50015    2018-04-16T16:51:50Z    
4/16/2018    9:51:50    42.13         15.84        1.05      98.23                 5.05          33.55     1013  34.00765    -118.50015    2018-04-16T16:51:50Z    
4/16/2018    9:51:50    42.13         15.85        1.03      98.24                 5.02          33.55     1014  34.00765    -118.50015    2018-04-16T16:51:50Z    
4/16/2018    9:51:51    42.13         15.84        1.00      98.25                 4.99          33.55     1015  34.00765    -118.50015    2018-04-16T16:51:51Z    
4/16/2018    9:51:51    42.12         15.84        0.97      98.19                 4.97          33.55     1016  34.00765    -118.50015    2018-04-16T16:51:51Z    
4/16/2018    9:51:51    42.12         15.84        0.95      98.19                 4.94          33.55     1017  34.00765    -118.50015    2018-04-16T16:51:51Z    
4/16/2018    9:51:51    42.12         15.84        0.91      98.19                 4.86          33.55     1018  34.00765    -118.50015    2018-04-16T16:51:51Z    
4/16/2018    9:51:51    42.12         15.84        0.88      98.18                 4.86          33.55     1019  34.00765    -118.50015    2018-04-16T16:51:51Z    
4/16/2018    9:51:51    42.12         15.84        0.83      98.15                 4.88          33.55     1020  34.00765    -118.50015    2018-04-16T16:51:51Z    
4/16/2018    9:51:52    42.12         15.84        0.79      98.19                 4.97          33.55     1021  34.00765    -118.50015    2018-04-16T16:51:52Z    
4/16/2018    9:51:52    42.12         15.84        0.77      98.09                 5.14          33.55     1022  34.00765    -118.50015    2018-04-16T16:51:52Z    
4/16/2018    9:51:52    42.12         15.84        0.76      98.17                 5.26          33.55     1023  34.00765    -118.50015    2018-04-16T16:51:52Z    
4/16/2018    9:51:52    42.12         15.84        0.76      98.18                 5.28          33.55     1024  34.00765    -118.50015    2018-04-16T16:51:52Z    
4/16/2018    9:51:52    42.12         15.84        0.78      98.19                 5.23          33.55     1025  34.00765    -118.50015    2018-04-16T16:51:52Z    
4/16/2018    9:51:52    42.12         15.84        0.83      98.18                 5.18          33.55     1026  34.00765    -118.50015    2018-04-16T16:51:52Z    
4/16/2018    9:51:53    42.12         15.84        0.87      98.18                 5.21          33.55     1027  34.00765    -118.50015    2018-04-16T16:51:53Z    
4/16/2018    9:51:53    42.12         15.84        0.93      98.13                 5.27          33.55     1028  34.00765    -118.50015    2018-04-16T16:51:53Z    
4/16/2018    9:51:53    42.12         15.84        0.96      98.20                 5.23          33.55     1029  34.00765    -118.50015    2018-04-16T16:51:53Z    
4/16/2018    9:51:53    42.12         15.84        1.01      98.20                 5.15          33.55     1030  34.00765    -118.50015    2018-04-16T16:51:53Z    
4/16/2018    9:51:53    42.12         15.84        1.05      98.17                 5.12          33.55     1031  34.00765    -118.50015    2018-04-16T16:51:53Z    
4/16/2018    9:51:53    42.12         15.84        1.08      98.14                 5.06          33.55     1032  34.00765    -118.50015    2018-04-16T16:51:53Z    
4/16/2018    9:51:54    42.12         15.84        1.10      98.17                 5.02          33.55     1033  34.00765    -118.50015    2018-04-16T16:51:54Z    
4/16/2018    9:51:54    42.12         15.84        1.11      98.09                 4.95          33.55     1034  34.00765    -118.50015    2018-04-16T16:51:54Z    
4/16/2018    9:51:54    42.12         15.84        1.12      98.09                 4.90          33.55     1035  34.00765    -118.50015    2018-04-16T16:51:54Z    
4/16/2018    9:51:54    42.12         15.84        1.14      98.11                 4.87          33.55     1036  34.00765    -118.50015    2018-04-16T16:51:54Z    
4/16/2018    9:51:54    42.12         15.84        1.13      98.09                 4.90          33.55     1037  34.00765    -118.50015    2018-04-16T16:51:54Z    
4/16/2018    9:51:54    42.12         15.84        1.13      98.11                 4.90          33.55     1038  34.00765    -118.50015    2018-04-16T16:51:54Z    
4/16/2018    9:51:55    42.12         15.84        1.13      98.10                 4.88          33.55     1039  34.00765    -118.50015    2018-04-16T16:51:55Z    
4/16/2018    9:51:55    42.12         15.84        1.14      98.13                 4.91          33.55     1040  34.00765    -118.50015    2018-04-16T16:51:55Z    
4/16/2018    9:51:55    42.12         15.84        1.12      98.13                 4.86          33.55     1041  34.00765    -118.50015    2018-04-16T16:51:55Z    
4/16/2018    9:51:55    42.12         15.84        1.11      98.09                 4.94          33.55     1042  34.00765    -118.50015    2018-04-16T16:51:55Z    
4/16/2018    9:51:55    42.12         15.84        1.11      98.05                 4.98          33.55     1043  34.00765    -118.50015    2018-04-16T16:51:55Z    
4/16/2018    9:51:55    42.12         15.84        1.09      98.03                 4.98          33.55     1044  34.00765    -118.50015    2018-04-16T16:51:55Z    
4/16/2018    9:51:56    42.12         15.84        1.08      98.04                 5.04          33.55     1045  34.00765    -118.50015    2018-04-16T16:51:56Z    
4/16/2018    9:51:56    42.12         15.84        1.06      98.07                 5.10          33.55     1046  34.00765    -118.50015    2018-04-16T16:51:56Z    
4/16/2018    9:51:56    42.12         15.84        1.05      98.06                 5.10          33.55     1047  34.00765    -118.50015    2018-04-16T16:51:56Z    
4/16/2018    9:51:56    42.12         15.83        1.03      98.08                 5.03          33.55     1048  34.00765    -118.50015    2018-04-16T16:51:56Z    
4/16/2018    9:51:56    42.12         15.83        1.03      98.05                 4.92          33.55     1049  34.00765    -118.50015    2018-04-16T16:51:56Z    
4/16/2018    9:51:56    42.12         15.83        1.03      98.08                 4.81          33.55     1050  34.00765    -118.50015    2018-04-16T16:51:56Z    
4/16/2018    9:51:57    42.12         15.83        1.03      98.10                 4.83          33.55     1051  34.00765    -118.50015    2018-04-16T16:51:57Z    
4/16/2018    9:51:57    42.12         15.84        1.06      98.01                 4.90          33.55     1052  34.00765    -118.50015    2018-04-16T16:51:57Z    
4/16/2018    9:51:57    42.12         15.84        1.08      98.06                 4.88          33.55     1053  34.00765    -118.50015    2018-04-16T16:51:57Z    
4/16/2018    9:51:57    42.12         15.84        1.10      98.01                 4.80          33.55     1054  34.00765    -118.50015    2018-04-16T16:51:57Z    
4/16/2018    9:51:57    42.13         15.86        1.11      97.99                 4.73          33.54     1055  34.00765    -118.50015    2018-04-16T16:51:57Z    
4/16/2018    9:51:57    42.13         15.88        1.12      97.95                 4.69          33.52     1056  34.00765    -118.50015    2018-04-16T16:51:57Z    
4/16/2018    9:51:58    42.13         15.88        1.12      97.98                 4.72          33.52     1057  34.00765    -118.50015    2018-04-16T16:51:58Z    
4/16/2018    9:51:58    42.13         15.87        1.11      98.03                 4.77          33.53     1058  34.00765    -118.50015    2018-04-16T16:51:58Z    
4/16/2018    9:51:58    42.13         15.86        1.11      97.99                 4.83          33.54     1059  34.00765    -118.50015    2018-04-16T16:51:58Z    
4/16/2018    9:51:58    42.14         15.87        1.09      97.94                 4.86          33.54     1060  34.00765    -118.50015    2018-04-16T16:51:58Z    
4/16/2018    9:51:58    42.14         15.89        1.07      97.92                 4.81          33.52     1061  34.00765    -118.50015    2018-04-16T16:51:58Z    
4/16/2018    9:51:58    42.14         15.89        1.07      97.96                 4.87          33.52     1062  34.00765    -118.50015    2018-04-16T16:51:58Z    
4/16/2018    9:51:59    42.13         15.88        1.08      98.04                 4.90          33.53     1063  34.00765    -118.50015    2018-04-16T16:51:59Z    
4/16/2018    9:51:59    42.13         15.87        1.11      98.04                 4.98          33.53     1064  34.00765    -118.50015    2018-04-16T16:51:59Z    
4/16/2018    9:51:59    42.13         15.87        1.16      98.10                 5.04          33.54     1065  34.00765    -118.50015    2018-04-16T16:51:59Z    
4/16/2018    9:51:59    42.14         15.86        1.20      98.13                 5.07          33.54     1066  34.00765    -118.50015    2018-04-16T16:51:59Z    
4/16/2018    9:51:59    42.14         15.86        1.27      98.14                 5.07          33.54     1067  34.00765    -118.50015    2018-04-16T16:51:59Z    
4/16/2018    9:51:59    42.13         15.86        1.33      98.17                 5.11          33.55     1068  34.00765    -118.50015    2018-04-16T16:51:59Z    
4/16/2018    9:52:00    42.13         15.85        1.39      98.14                 5.17          33.55     1069  34.00765    -118.50015    2018-04-16T16:52:00Z    
4/16/2018    9:52:00    42.14         15.85        1.43      98.18                 5.16          33.55     1070  34.00765    -118.50015    2018-04-16T16:52:00Z    
4/16/2018    9:52:00    42.13         15.85        1.48      98.14                 5.14          33.54     1071  34.00765    -118.50015    2018-04-16T16:52:00Z    
4/16/2018    9:52:00    42.13         15.85        1.50      98.18                 5.15          33.54     1072  34.00765    -118.50015    2018-04-16T16:52:00Z    
4/16/2018    9:52:00    42.13         15.85        1.51      98.25                 5.22          33.55     1073  34.00765    -118.50015    2018-04-16T16:52:00Z    
4/16/2018    9:52:00    42.13         15.85        1.49      98.24                 5.22          33.55     1074  34.00765    -118.50015    2018-04-16T16:52:00Z    
4/16/2018    9:52:01    42.13         15.85        1.45      98.29                 5.22          33.55     1075  34.00765    -118.50015    2018-04-16T16:52:01Z    
4/16/2018    9:52:01    42.13         15.86        1.40      98.31                 5.16          33.55     1076  34.00765    -118.50015    2018-04-16T16:52:01Z    
4/16/2018    9:52:01    42.14         15.86        1.32      98.29                 5.25          33.55     1077  34.00765    -118.50015    2018-04-16T16:52:01Z    
4/16/2018    9:52:01    42.14         15.85        1.22      98.29                 5.25          33.55     1078  34.00765    -118.50015    2018-04-16T16:52:01Z    
4/16/2018    9:52:01    42.14         15.85        1.22      98.29                 5.25          33.55     1079  34.00765    -118.50015    2018-04-16T16:52:01Z    
4/16/2018    9:52:01    42.13         15.85        1.03      98.37                 5.21          33.55     1080  34.00765    -118.50015    2018-04-16T16:52:01Z    
4/16/2018    9:52:02    42.14         15.86        0.98      98.38                 5.21          33.55     1081  34.00765    -118.50015    2018-04-16T16:52:02Z    
4/16/2018    9:52:02    42.13         15.86        0.92      98.35                 5.21          33.55     1082  34.00765    -118.50015    2018-04-16T16:52:02Z    
4/16/2018    9:52:02    42.14         15.86        0.87      98.36                 5.11          33.55     1083  34.00765    -118.50015    2018-04-16T16:52:02Z    
4/16/2018    9:52:02    42.13         15.85        0.82      98.36                 5.08          33.55     1084  34.00765    -118.50015    2018-04-16T16:52:02Z    
4/16/2018    9:52:02    42.13         15.85        0.79      98.40                 5.06          33.55     1085  34.00765    -118.50015    2018-04-16T16:52:02Z    
4/16/2018    9:52:02    42.13         15.85        0.79      98.40                 5.06          33.55     1086  34.00765    -118.50015    2018-04-16T16:52:02Z    
4/16/2018    9:52:03    42.13         15.86        0.82      98.38                 5.12          33.54     1087  34.00765    -118.50015    2018-04-16T16:52:03Z    
4/16/2018    9:52:03    42.13         15.87        0.87      98.37                 5.12          33.53     1088  34.00765    -118.50015    2018-04-16T16:52:03Z    
4/16/2018    9:52:03    42.12         15.85        0.92      98.48                 5.15          33.54     1089  34.00765    -118.50015    2018-04-16T16:52:03Z    
4/16/2018    9:52:03    42.13         15.84        0.95      98.53                 5.16          33.55     1090  34.00765    -118.50015    2018-04-16T16:52:03Z    
4/16/2018    9:52:03    42.13         15.85        0.98      98.59                 5.11          33.55     1091  34.00765    -118.50015    2018-04-16T16:52:03Z    
4/16/2018    9:52:03    42.13         15.85        1.02      98.57                 5.05          33.55     1092  34.00765    -118.50015    2018-04-16T16:52:03Z    
4/16/2018    9:52:04    42.13         15.85        1.03      98.59                 5.02          33.55     1093  34.00765    -118.50015    2018-04-16T16:52:04Z    
4/16/2018    9:52:04    42.13         15.85        1.04      98.62                 4.99          33.55     1094  34.00765    -118.50015    2018-04-16T16:52:04Z    
4/16/2018    9:52:04    42.14         15.85        1.05      98.60                 4.91          33.55     1095  34.00765    -118.50015    2018-04-16T16:52:04Z    
4/16/2018    9:52:04    42.14         15.86        1.06      98.51                 4.86          33.55     1096  34.00765    -118.50015    2018-04-16T16:52:04Z    
4/16/2018    9:52:04    42.14         15.86        1.06      98.60                 4.96          33.55     1097  34.00765    -118.50015    2018-04-16T16:52:04Z    
4/16/2018    9:52:04    42.14         15.86        1.06      98.58                 5.08          33.55     1098  34.00765    -118.50015    2018-04-16T16:52:04Z    
4/16/2018    9:52:05    42.14         15.86        1.08      98.49                 5.06          33.55     1099  34.00765    -118.50015    2018-04-16T16:52:05Z    
4/16/2018    9:52:05    42.14         15.86        1.10      98.56                 5.06          33.55     1100  34.00765    -118.50015    2018-04-16T16:52:05Z    
4/16/2018    9:52:05    42.14         15.86        1.12      98.55                 5.09          33.55     1101  34.00765    -118.50015    2018-04-16T16:52:05Z    
4/16/2018    9:52:05    42.14         15.86        1.13      98.46                 5.05          33.55     1102  34.00765    -118.50015    2018-04-16T16:52:05Z    
4/16/2018    9:52:05    42.14         15.86        1.16      98.46                 5.09          33.55     1103  34.00765    -118.50015    2018-04-16T16:52:05Z    
4/16/2018    9:52:05    42.14         15.86        1.18      98.48                 5.14          33.55     1104  34.00765    -118.50015    2018-04-16T16:52:05Z    
4/16/2018    9:52:06    42.14         15.86        1.17      98.47                 5.17          33.55     1105  34.00765    -118.50015    2018-04-16T16:52:06Z    
4/16/2018    9:52:06    42.14         15.86        1.17      98.49                 5.16          33.55     1106  34.00765    -118.50015    2018-04-16T16:52:06Z    
4/16/2018    9:52:06    42.14         15.86        1.16      98.45                 5.10          33.55     1107  34.00765    -118.50015    2018-04-16T16:52:06Z    
4/16/2018    9:52:06    42.14         15.86        1.13      98.39                 5.04          33.55     1108  34.00765    -118.50015    2018-04-16T16:52:06Z    
4/16/2018    9:52:06    42.14         15.86        1.10      98.44                 5.15          33.55     1109  34.00765    -118.50015    2018-04-16T16:52:06Z    
4/16/2018    9:52:06    42.14         15.86        1.06      98.45                 5.19          33.55     1110  34.00765    -118.50015    2018-04-16T16:52:06Z    
4/16/2018    9:52:07    42.14         15.86        1.03      98.45                 5.17          33.55     1111  34.00765    -118.50015    2018-04-16T16:52:07Z    
4/16/2018    9:52:07    42.14         15.86        1.02      98.46                 5.19          33.55     1112  34.00765    -118.50015    2018-04-16T16:52:07Z    
4/16/2018    9:52:07    42.14         15.86        0.99      98.46                 5.18          33.55     1113  34.00765    -118.50015    2018-04-16T16:52:07Z    
4/16/2018    9:52:07    42.14         15.86        1.00      98.42                 5.13          33.55     1114  34.00765    -118.50015    2018-04-16T16:52:07Z    
4/16/2018    9:52:07    42.14         15.86        0.99      98.53                 5.07          33.55     1115  34.00765    -118.50015    2018-04-16T16:52:07Z    
4/16/2018    9:52:07    42.14         15.86        1.00      98.54                 5.13          33.55     1116  34.00765    -118.50015    2018-04-16T16:52:07Z    
4/16/2018    9:52:08    42.15         15.86        1.01      98.56                 5.19          33.55     1117  34.00765    -118.50015    2018-04-16T16:52:08Z    
4/16/2018    9:52:08    42.15         15.86        1.03      98.55                 5.18          33.55     1118  34.00765    -118.50015    2018-04-16T16:52:08Z    
4/16/2018    9:52:08    42.15         15.87        1.04      98.61                 5.14          33.55     1119  34.00765    -118.50015    2018-04-16T16:52:08Z    
4/16/2018    9:52:08    42.15         15.87        1.07      98.55                 5.15          33.55     1120  34.00765    -118.50015    2018-04-16T16:52:08Z    
4/16/2018    9:52:08    42.15         15.87        1.09      98.60                 5.11          33.55     1121  34.00765    -118.50015    2018-04-16T16:52:08Z    
4/16/2018    9:52:08    42.15         15.87        1.12      98.59                 5.11          33.55     1122  34.00765    -118.50015    2018-04-16T16:52:08Z    
4/16/2018    9:52:09    42.15         15.87        1.12      98.62                 5.14          33.56     1123  34.00765    -118.50015    2018-04-16T16:52:09Z    
4/16/2018    9:52:09    42.15         15.87        1.15      98.58                 5.14          33.55     1124  34.00765    -118.50015    2018-04-16T16:52:09Z    
4/16/2018    9:52:09    42.15         15.87        1.17      98.56                 5.16          33.55     1125  34.00765    -118.50015    2018-04-16T16:52:09Z    
4/16/2018    9:52:09    42.15         15.87        1.18      98.66                 5.18          33.55     1126  34.00765    -118.50015    2018-04-16T16:52:09Z    
4/16/2018    9:52:09    42.15         15.87        1.20      98.61                 5.19          33.55     1127  34.00765    -118.50015    2018-04-16T16:52:09Z    
4/16/2018    9:52:09    42.15         15.88        1.21      98.64                 5.22          33.54     1128  34.00765    -118.50015    2018-04-16T16:52:09Z    
4/16/2018    9:52:10    42.15         15.88        1.22      98.66                 5.22          33.54     1129  34.00765    -118.50015    2018-04-16T16:52:10Z    
4/16/2018    9:52:10    42.15         15.88        1.22      98.64                 5.18          33.54     1130  34.00765    -118.50015    2018-04-16T16:52:10Z    
4/16/2018    9:52:10    42.15         15.88        1.23      98.67                 5.13          33.54     1131  34.00765    -118.50015    2018-04-16T16:52:10Z    
4/16/2018    9:52:10    42.15         15.88        1.21      98.71                 5.07          33.54     1132  34.00765    -118.50015    2018-04-16T16:52:10Z    
4/16/2018    9:52:10    42.16         15.88        1.20      98.68                 5.12          33.55     1133  34.00765    -118.50015    2018-04-16T16:52:10Z    
4/16/2018    9:52:10    42.16         15.88        1.19      98.70                 5.20          33.55     1134  34.00765    -118.50015    2018-04-16T16:52:10Z    
4/16/2018    9:52:11    42.16         15.88        1.18      98.72                 5.30          33.55     1135  34.00765    -118.50015    2018-04-16T16:52:11Z    
4/16/2018    9:52:11    42.16         15.88        1.18      98.75                 5.21          33.55     1136  34.00765    -118.50015    2018-04-16T16:52:11Z    
4/16/2018    9:52:11    42.16         15.88        1.16      98.77                 5.13          33.55     1137  34.00765    -118.50015    2018-04-16T16:52:11Z    
4/16/2018    9:52:11    42.16         15.88        1.17      98.82                 5.14          33.55     1138  34.00765    -118.50015    2018-04-16T16:52:11Z    
4/16/2018    9:52:11    42.16         15.88        1.17      98.85                 5.11          33.55     1139  34.00765    -118.50015    2018-04-16T16:52:11Z    
4/16/2018    9:52:11    42.16         15.88        1.14      98.90                 5.09          33.55     1140  34.00765    -118.50015    2018-04-16T16:52:11Z    
4/16/2018    9:52:12    42.16         15.87        1.15      98.94                 5.07          33.55     1141  34.00765    -118.50015    2018-04-16T16:52:12Z    
4/16/2018    9:52:12    42.16         15.87        1.14      98.95                 5.10          33.56     1142  34.00765    -118.50015    2018-04-16T16:52:12Z    
4/16/2018    9:52:12    42.16         15.87        1.14      98.99                 5.08          33.55     1143  34.00765    -118.50015    2018-04-16T16:52:12Z    
4/16/2018    9:52:12    42.16         15.88        1.13      98.98                 5.01          33.55     1144  34.00765    -118.50015    2018-04-16T16:52:12Z    
4/16/2018    9:52:12    42.16         15.87        1.13      99.01                 4.96          33.56     1145  34.00765    -118.50015    2018-04-16T16:52:12Z    
4/16/2018    9:52:12    42.16         15.87        1.13      99.00                 4.95          33.55     1146  34.00765    -118.50015    2018-04-16T16:52:12Z    
4/16/2018    9:52:13    42.16         15.87        1.11      99.17                 4.97          33.55     1147  34.00765    -118.50015    2018-04-16T16:52:13Z    
4/16/2018    9:52:13    42.16         15.88        1.12      99.13                 5.00          33.55     1148  34.00765    -118.50015    2018-04-16T16:52:13Z    
4/16/2018    9:52:13    42.16         15.88        1.13      99.16                 4.99          33.55     1149  34.00765    -118.50015    2018-04-16T16:52:13Z    
4/16/2018    9:52:13    42.16         15.88        1.15      99.17                 4.98          33.55     1150  34.00765    -118.50015    2018-04-16T16:52:13Z    
4/16/2018    9:52:13    42.16         15.88        1.15      99.19                 5.00          33.55     1151  34.00765    -118.50015    2018-04-16T16:52:13Z    
4/16/2018    9:52:13    42.16         15.88        1.14      99.19                 5.04          33.56     1152  34.00765    -118.50015    2018-04-16T16:52:13Z    
4/16/2018    9:52:14    42.16         15.88        1.12      99.22                 5.05          33.55     1153  34.00765    -118.50015    2018-04-16T16:52:14Z    
4/16/2018    9:52:14    42.16         15.89        1.09      99.26                 5.04          33.55     1154  34.00765    -118.50015    2018-04-16T16:52:14Z    
4/16/2018    9:52:14    42.17         15.89        1.05      99.25                 5.04          33.55     1155  34.00765    -118.50015    2018-04-16T16:52:14Z    
4/16/2018    9:52:14    42.17         15.88        1.00      99.33                 5.02          33.55     1156  34.00765    -118.50015    2018-04-16T16:52:14Z    
4/16/2018    9:52:14    42.16         15.88        0.95      99.32                 5.11          33.55     1157  34.00765    -118.50015    2018-04-16T16:52:14Z    
4/16/2018    9:52:14    42.16         15.88        0.92      99.32                 5.27          33.55     1158  34.00765    -118.50015    2018-04-16T16:52:14Z    
4/16/2018    9:52:15    42.17         15.88        0.93      99.38                 5.51          33.55     1159  34.00765    -118.50015    2018-04-16T16:52:15Z    
4/16/2018    9:52:15    42.17         15.88        0.93      99.39                 5.47          33.55     1160  34.00765    -118.50015    2018-04-16T16:52:15Z    
4/16/2018    9:52:15    42.16         15.90        0.97      99.41                 5.41          33.54     1161  34.00765    -118.50015    2018-04-16T16:52:15Z    
4/16/2018    9:52:15    42.17         15.92        0.98      99.39                 5.41          33.53     1162  34.00765    -118.50015    2018-04-16T16:52:15Z    
4/16/2018    9:52:15    42.18         15.92        1.00      99.40                 5.35          33.53     1163  34.00765    -118.50015    2018-04-16T16:52:15Z    
4/16/2018    9:52:15    42.17         15.91        1.02      99.42                 5.31          33.54     1164  34.00765    -118.50015    2018-04-16T16:52:15Z    
4/16/2018    9:52:16    42.17         15.91        1.04      99.44                 5.35          33.54     1165  34.00765    -118.50015    2018-04-16T16:52:16Z    
4/16/2018    9:52:16    42.17         15.90        1.05      99.50                 5.36          33.54     1166  34.00765    -118.50015    2018-04-16T16:52:16Z    
4/16/2018    9:52:16    42.17         15.90        1.06      99.47                 5.33          33.54     1167  34.00765    -118.50015    2018-04-16T16:52:16Z    
4/16/2018    9:52:16    42.17         15.91        1.06      99.50                 5.25          33.53     1168  34.00765    -118.50015    2018-04-16T16:52:16Z    
4/16/2018    9:52:16    42.17         15.90        1.05      99.54                 5.16          33.54     1169  34.00765    -118.50015    2018-04-16T16:52:16Z    
4/16/2018    9:52:16    42.17         15.89        1.02      99.54                 5.14          33.55     1170  34.00765    -118.50015    2018-04-16T16:52:16Z    
4/16/2018    9:52:17    42.17         15.89        1.00      99.54                 5.09          33.55     1171  34.00765    -118.50015    2018-04-16T16:52:17Z    
4/16/2018    9:52:17    42.17         15.89        0.97      99.55                 5.14          33.55     1172  34.00765    -118.50015    2018-04-16T16:52:17Z    
4/16/2018    9:52:17    42.17         15.89        0.95      99.54                 5.14          33.55     1173  34.00765    -118.50015    2018-04-16T16:52:17Z    
4/16/2018    9:52:17    42.17         15.89        0.93      99.57                 5.11          33.55     1174  34.00765    -118.50015    2018-04-16T16:52:17Z    
4/16/2018    9:52:17    42.17         15.89        0.93      99.58                 5.16          33.55     1175  34.00765    -118.50015    2018-04-16T16:52:17Z    
4/16/2018    9:52:17    42.17         15.89        0.94      99.63                 5.20          33.55     1176  34.00765    -118.50015    2018-04-16T16:52:17Z    
4/16/2018    9:52:18    42.16         15.89        0.96      99.58                 5.22          33.55     1177  34.00765    -118.50015    2018-04-16T16:52:18Z    
4/16/2018    9:52:18    42.16         15.88        1.01      99.57                 5.21          33.54     1178  34.00765    -118.50015    2018-04-16T16:52:18Z    
4/16/2018    9:52:18    42.16         15.88        1.05      99.58                 5.28          33.55     1179  34.00765    -118.50015    2018-04-16T16:52:18Z    
4/16/2018    9:52:18    42.16         15.88        1.10      99.63                 5.25          33.55     1180  34.00765    -118.50015    2018-04-16T16:52:18Z    
4/16/2018    9:52:18    42.16         15.88        1.14      99.62                 5.18          33.55     1181  34.00765    -118.50015    2018-04-16T16:52:18Z    
4/16/2018    9:52:18    42.17         15.88        1.17      99.64                 5.12          33.56     1182  34.00765    -118.50015    2018-04-16T16:52:18Z    
4/16/2018    9:52:19    42.17         15.88        1.20      99.66                 5.08          33.56     1183  34.00765    -118.50015    2018-04-16T16:52:19Z    
4/16/2018    9:52:19    42.17         15.88        1.22      99.60                 5.09          33.56     1184  34.00765    -118.50015    2018-04-16T16:52:19Z    
4/16/2018    9:52:19    42.17         15.88        1.24      99.57                 5.12          33.56     1185  34.00765    -118.50015    2018-04-16T16:52:19Z    
4/16/2018    9:52:19    42.17         15.88        1.23      99.55                 5.15          33.56     1186  34.00765    -118.50015    2018-04-16T16:52:19Z    
4/16/2018    9:52:19    42.17         15.88        1.22      99.56                 5.11          33.56     1187  34.00765    -118.50015    2018-04-16T16:52:19Z    
4/16/2018    9:52:19    42.17         15.88        1.18      99.57                 5.04          33.56     1188  34.00765    -118.50015    2018-04-16T16:52:19Z    
4/16/2018    9:52:20    42.16         15.88        1.16      99.55                 5.12          33.56     1189  34.00765    -118.50015    2018-04-16T16:52:20Z    
4/16/2018    9:52:20    42.16         15.88        1.11      99.58                 5.16          33.55     1190  34.00765    -118.50015    2018-04-16T16:52:20Z    
4/16/2018    9:52:20    42.16         15.88        1.07      99.58                 5.32          33.55     1191  34.00765    -118.50015    2018-04-16T16:52:20Z    
4/16/2018    9:52:20    42.16         15.88        1.06      99.60                 5.43          33.55     1192  34.00765    -118.50015    2018-04-16T16:52:20Z    
4/16/2018    9:52:20    42.16         15.89        1.03      99.57                 5.44          33.55     1193  34.00765    -118.50015    2018-04-16T16:52:20Z    
4/16/2018    9:52:20    42.17         15.89        1.02      99.54                 5.43          33.55     1194  34.00765    -118.50015    2018-04-16T16:52:20Z    
4/16/2018    9:52:21    42.17         15.89        1.02      99.52                 5.40          33.55     1195  34.00765    -118.50015    2018-04-16T16:52:21Z    
4/16/2018    9:52:21    42.17         15.89        1.04      99.56                 5.35          33.55     1196  34.00765    -118.50015    2018-04-16T16:52:21Z    
4/16/2018    9:52:21    42.17         15.89        1.05      99.56                 5.31          33.55     1197  34.00765    -118.50015    2018-04-16T16:52:21Z    
4/16/2018    9:52:21    42.17         15.89        1.08      99.53                 5.27          33.55     1198  34.00765    -118.50015    2018-04-16T16:52:21Z    
4/16/2018    9:52:21    42.17         15.89        1.11      99.57                 5.39          33.55     1199  34.00765    -118.50015    2018-04-16T16:52:21Z    
4/16/2018    9:52:21    42.17         15.89        1.12      99.56                 5.42          33.55     1200  34.00765    -118.50015    2018-04-16T16:52:21Z    
4/16/2018    9:52:22    42.17         15.89        1.11      99.58                 5.31          33.55     1201  34.00765    -118.50015    2018-04-16T16:52:22Z    
4/16/2018    9:52:22    42.17         15.89        1.12      99.63                 5.24          33.55     1202  34.00765    -118.50015    2018-04-16T16:52:22Z    
4/16/2018    9:52:22    42.17         15.89        1.13      99.66                 5.36          33.55     1203  34.00765    -118.50015    2018-04-16T16:52:22Z    
4/16/2018    9:52:22    42.17         15.89        1.11      99.63                 5.37          33.55     1204  34.00765    -118.50015    2018-04-16T16:52:22Z    
4/16/2018    9:52:22    42.17         15.89        1.13      99.60                 5.27          33.55     1205  34.00765    -118.50015    2018-04-16T16:52:22Z    
4/16/2018    9:52:22    42.17         15.89        1.10      99.61                 5.22          33.55     1206  34.00765    -118.50015    2018-04-16T16:52:22Z    
4/16/2018    9:52:23    42.16         15.89        1.07      99.61                 5.25          33.54     1207  34.00765    -118.50015    2018-04-16T16:52:23Z    
4/16/2018    9:52:23    42.16         15.89        1.07      99.60                 5.33          33.54     1208  34.00765    -118.50015    2018-04-16T16:52:23Z    
4/16/2018    9:52:23    42.16         15.89        1.06      99.61                 5.85          33.54     1209  34.00765    -118.50015    2018-04-16T16:52:23Z    
4/16/2018    9:52:23    42.16         15.89        1.05      99.68                 6.15          33.54     1210  34.00765    -118.50015    2018-04-16T16:52:23Z    
4/16/2018    9:52:23    42.16         15.89        1.06      99.69                 6.17          33.54     1211  34.00765    -118.50015    2018-04-16T16:52:23Z    
4/16/2018    9:52:23    42.16         15.89        1.04      99.67                 6.05          33.54     1212  34.00765    -118.50015    2018-04-16T16:52:23Z    
4/16/2018    9:52:24    42.15         15.89        1.01      99.73                 5.96          33.53     1213  34.00765    -118.50015    2018-04-16T16:52:24Z    
4/16/2018    9:52:24    42.15         15.89        1.01      99.64                 5.81          33.53     1214  34.00765    -118.50015    2018-04-16T16:52:24Z    
4/16/2018    9:52:24    42.15         15.89        0.98      99.64                 5.72          33.54     1215  34.00765    -118.50015    2018-04-16T16:52:24Z    
4/16/2018    9:52:24    42.15         15.89        0.97      99.67                 5.57          33.54     1216  34.00765    -118.50015    2018-04-16T16:52:24Z    
4/16/2018    9:52:24    42.15         15.89        0.97      99.67                 5.41          33.54     1217  34.00765    -118.50015    2018-04-16T16:52:24Z    
4/16/2018    9:52:24    42.15         15.89        0.98      99.73                 5.30          33.53     1218  34.00765    -118.50015    2018-04-16T16:52:24Z    
4/16/2018    9:52:25    42.15         15.89        1.00      99.66                 5.23          33.53     1219  34.00765    -118.50015    2018-04-16T16:52:25Z    
4/16/2018    9:52:25    42.16         15.88        1.01      99.56                 5.28          33.55     1220  34.00765    -118.50015    2018-04-16T16:52:25Z    
4/16/2018    9:52:25    42.16         15.87        1.04      99.50                 5.27          33.55     1221  34.00765    -118.50015    2018-04-16T16:52:25Z    
4/16/2018    9:52:25    42.16         15.87        1.06      99.53                 5.31          33.56     1222  34.00765    -118.50015    2018-04-16T16:52:25Z    
4/16/2018    9:52:25    42.16         15.86        1.07      99.47                 5.31          33.57     1223  34.00765    -118.50015    2018-04-16T16:52:25Z    
4/16/2018    9:52:25    42.16         15.86        1.10      99.35                 5.35          33.57     1224  34.00765    -118.50015    2018-04-16T16:52:25Z    
4/16/2018    9:52:26    42.16         15.85        1.12      99.27                 5.42          33.57     1225  34.00765    -118.50015    2018-04-16T16:52:26Z    
4/16/2018    9:52:26    42.16         15.86        1.14      99.24                 5.47          33.56     1226  34.00765    -118.50015    2018-04-16T16:52:26Z    
4/16/2018    9:52:26    42.16         15.86        1.17      99.16                 5.50          33.56     1227  34.00765    -118.50015    2018-04-16T16:52:26Z    
4/16/2018    9:52:26    42.16         15.86        1.18      99.11                 5.49          33.56     1228  34.00765    -118.50015    2018-04-16T16:52:26Z    
4/16/2018    9:52:26    42.15         15.86        1.21      99.08                 5.48          33.56     1229  34.00765    -118.50015    2018-04-16T16:52:26Z    
4/16/2018    9:52:26    42.15         15.86        1.23      98.98                 5.47          33.56     1230  34.00765    -118.50015    2018-04-16T16:52:26Z    
4/16/2018    9:52:27    42.16         15.87        1.26      99.02                 5.49          33.56     1231  34.00765    -118.50015    2018-04-16T16:52:27Z    
4/16/2018    9:52:27    42.16         15.87        1.27      98.94                 5.46          33.56     1232  34.00765    -118.50015    2018-04-16T16:52:27Z    
4/16/2018    9:52:27    42.16         15.87        1.30      98.90                 5.44          33.56     1233  34.00765    -118.50015    2018-04-16T16:52:27Z    
4/16/2018    9:52:27    42.16         15.88        1.30      98.91                 5.45          33.55     1234  34.00765    -118.50015    2018-04-16T16:52:27Z    
4/16/2018    9:52:27    42.16         15.87        1.30      98.82                 5.44          33.55     1235  34.00765    -118.50015    2018-04-16T16:52:27Z    
4/16/2018    9:52:27    42.16         15.87        1.30      98.82                 5.42          33.55     1236  34.00765    -118.50015    2018-04-16T16:52:27Z    
4/16/2018    9:52:28    42.16         15.87        1.29      98.81                 5.66          33.55     1237  34.00765    -118.50015    2018-04-16T16:52:28Z    
4/16/2018    9:52:28    42.16         15.87        1.28      98.82                 5.63          33.55     1238  34.00765    -118.50015    2018-04-16T16:52:28Z    
4/16/2018    9:52:28    42.16         15.88        1.25      98.77                 5.60          33.55     1239  34.00765    -118.50015    2018-04-16T16:52:28Z    
4/16/2018    9:52:28    42.16         15.88        1.23      98.75                 5.50          33.55     1240  34.00765    -118.50015    2018-04-16T16:52:28Z    
4/16/2018    9:52:28    42.16         15.88        1.21      98.75                 5.37          33.55     1241  34.00765    -118.50015    2018-04-16T16:52:28Z    
4/16/2018    9:52:28    42.16         15.87        1.20      98.80                 5.26          33.55     1242  34.00765    -118.50015    2018-04-16T16:52:28Z    
4/16/2018    9:52:29    42.16         15.87        1.19      98.76                 5.15          33.55     1243  34.00765    -118.50015    2018-04-16T16:52:29Z    
4/16/2018    9:52:29    42.16         15.86        1.19      98.76                 5.11          33.56     1244  34.00765    -118.50015    2018-04-16T16:52:29Z    
4/16/2018    9:52:29    42.16         15.87        1.19      98.79                 5.01          33.56     1245  34.00765    -118.50015    2018-04-16T16:52:29Z    
4/16/2018    9:52:29    42.16         15.88        1.18      98.72                 5.12          33.55     1246  34.00765    -118.50015    2018-04-16T16:52:29Z    
4/16/2018    9:52:29    42.16         15.89        1.20      98.70                 5.28          33.54     1247  34.00765    -118.50015    2018-04-16T16:52:29Z    
4/16/2018    9:52:29    42.16         15.89        1.20      98.71                 5.31          33.54     1248  34.00765    -118.50015    2018-04-16T16:52:29Z    
4/16/2018    9:52:30    42.16         15.91        1.22      98.74                 5.30          33.52     1249  34.00765    -118.50015    2018-04-16T16:52:30Z    
4/16/2018    9:52:30    42.16         15.92        1.21      98.79                 5.26          33.52     1250  34.00765    -118.50015    2018-04-16T16:52:30Z    
4/16/2018    9:52:30    42.17         15.91        1.20      98.89                 5.22          33.53     1251  34.00765    -118.50015    2018-04-16T16:52:30Z    
4/16/2018    9:52:30    42.18         15.91        1.18      98.94                 5.27          33.54     1252  34.00765    -118.50015    2018-04-16T16:52:30Z    
4/16/2018    9:52:30    42.18         15.91        1.15      99.07                 5.30          33.55     1253  34.00765    -118.50015    2018-04-16T16:52:30Z    
4/16/2018    9:52:30    42.18         15.90        1.08      99.09                 5.35          33.55     1254  34.00765    -118.50015    2018-04-16T16:52:30Z    
4/16/2018    9:52:31    42.18         15.91        1.04      99.18                 5.43          33.55     1255  34.00765    -118.50015    2018-04-16T16:52:31Z    
4/16/2018    9:52:31    42.18         15.91        0.98      99.32                 5.43          33.54     1256  34.00765    -118.50015    2018-04-16T16:52:31Z    
4/16/2018    9:52:31    42.18         15.91        0.92      99.35                 5.35          33.54     1257  34.00765    -118.50015    2018-04-16T16:52:31Z    
4/16/2018    9:52:31    42.18         15.90        0.89      99.34                 5.25          33.55     1258  34.00765    -118.50015    2018-04-16T16:52:31Z    
4/16/2018    9:52:31    42.17         15.90        0.88      99.32                 5.21          33.55     1259  34.00765    -118.50015    2018-04-16T16:52:31Z    
4/16/2018    9:52:31    42.18         15.90        0.88      99.38                 5.18          33.55     1260  34.00765    -118.50015    2018-04-16T16:52:31Z    
4/16/2018    9:52:32    42.18         15.90        0.89      99.39                 5.16          33.55     1261  34.00765    -118.50015    2018-04-16T16:52:32Z    
4/16/2018    9:52:32    42.18         15.91        0.90      99.32                 5.21          33.54     1262  34.00765    -118.50015    2018-04-16T16:52:32Z    
4/16/2018    9:52:32    42.18         15.91        0.91      99.40                 5.24          33.54     1263  34.00765    -118.50015    2018-04-16T16:52:32Z    
4/16/2018    9:52:32    42.17         15.93        0.94      99.37                 5.30          33.52     1264  34.00765    -118.50015    2018-04-16T16:52:32Z    
4/16/2018    9:52:32    42.17         15.93        0.95      99.46                 5.30          33.52     1265  34.00765    -118.50015    2018-04-16T16:52:32Z    
4/16/2018    9:52:32    42.17         15.93        0.95      99.43                 5.26          33.52     1266  34.00765    -118.50015    2018-04-16T16:52:32Z    
4/16/2018    9:52:33    42.17         15.91        0.97      99.47                 5.24          33.53     1267  34.00765    -118.50015    2018-04-16T16:52:33Z    
4/16/2018    9:52:33    42.17         15.90        0.99      99.50                 5.19          33.54     1268  34.00765    -118.50015    2018-04-16T16:52:33Z    
4/16/2018    9:52:33    42.18         15.90        1.02      99.48                 5.20          33.55     1269  34.00765    -118.50015    2018-04-16T16:52:33Z    
4/16/2018    9:52:33    42.18         15.90        1.01      99.55                 5.23          33.55     1270  34.00765    -118.50015    2018-04-16T16:52:33Z    
4/16/2018    9:52:33    42.18         15.90        0.99      99.52                 5.25          33.55     1271  34.00765    -118.50015    2018-04-16T16:52:33Z    
4/16/2018    9:52:33    42.18         15.90        0.99      99.51                 5.26          33.55     1272  34.00765    -118.50015    2018-04-16T16:52:33Z    
4/16/2018    9:52:34    42.18         15.90        0.96      99.50                 5.28          33.55     1273  34.00765    -118.50015    2018-04-16T16:52:34Z    
4/16/2018    9:52:34    42.19         15.91        0.92      99.54                 5.33          33.55     1274  34.00765    -118.50015    2018-04-16T16:52:34Z    
4/16/2018    9:52:34    42.19         15.91        0.87      99.57                 5.36          33.55     1275  34.00765    -118.50015    2018-04-16T16:52:34Z    
4/16/2018    9:52:34    42.19         15.92        0.85      99.54                 5.34          33.55     1276  34.00765    -118.50015    2018-04-16T16:52:34Z    
4/16/2018    9:52:34    42.19         15.92        0.81      99.55                 5.36          33.55     1277  34.00765    -118.50015    2018-04-16T16:52:34Z    
4/16/2018    9:52:34    42.19         15.91        0.80      99.62                 5.33          33.55     1278  34.00765    -118.50015    2018-04-16T16:52:34Z    
4/16/2018    9:52:35    42.19         15.91        0.79      99.64                 5.30          33.55     1279  34.00765    -118.50015    2018-04-16T16:52:35Z    
4/16/2018    9:52:35    42.18         15.90        0.79      99.68                 5.22          33.55     1280  34.00765    -118.50015    2018-04-16T16:52:35Z    
4/16/2018    9:52:35    42.17         15.89        0.78      99.71                 5.16          33.55     1281  34.00765    -118.50015    2018-04-16T16:52:35Z    
4/16/2018    9:52:35    42.15         15.89        0.79      99.73                 5.12          33.53     1282  34.00765    -118.50015    2018-04-16T16:52:35Z    
4/16/2018    9:52:35    42.16         15.89        0.80      99.71                 5.16          33.54     1283  34.00765    -118.50015    2018-04-16T16:52:35Z    
4/16/2018    9:52:35    42.15         15.89        0.81      99.83                 5.20          33.54     1284  34.00765    -118.50015    2018-04-16T16:52:35Z    
4/16/2018    9:52:36    42.16         15.88        0.85      99.71                 5.21          33.54     1285  34.00765    -118.50015    2018-04-16T16:52:36Z    
4/16/2018    9:52:36    42.16         15.88        0.87      99.72                 5.18          33.55     1286  34.00765    -118.50015    2018-04-16T16:52:36Z    
4/16/2018    9:52:36    42.16         15.88        0.91      99.70                 5.15          33.55     1287  34.00765    -118.50015    2018-04-16T16:52:36Z    
4/16/2018    9:52:36    42.14         15.88        0.98      99.62                 5.13          33.53     1288  34.00765    -118.50015    2018-04-16T16:52:36Z    
4/16/2018    9:52:36    42.13         15.87        1.02      99.59                 5.14          33.53     1289  34.00765    -118.50015    2018-04-16T16:52:36Z    
4/16/2018    9:52:36    42.14         15.87        1.06      99.54                 5.19          33.53     1290  34.00765    -118.50015    2018-04-16T16:52:36Z    
4/16/2018    9:52:37    42.14         15.87        1.10      99.54                 5.17          33.54     1291  34.00765    -118.50015    2018-04-16T16:52:37Z    
4/16/2018    9:52:37    42.15         15.87        1.12      99.51                 5.16          33.55     1292  34.00765    -118.50015    2018-04-16T16:52:37Z    
4/16/2018    9:52:37    42.15         15.86        1.12      99.42                 5.12          33.56     1293  34.00765    -118.50015    2018-04-16T16:52:37Z    
4/16/2018    9:52:37    42.16         15.86        1.11      99.48                 5.10          33.56     1294  34.00765    -118.50015    2018-04-16T16:52:37Z    
4/16/2018    9:52:37    42.16         15.87        1.12      99.42                 5.09          33.56     1295  34.00765    -118.50015    2018-04-16T16:52:37Z    
4/16/2018    9:52:37    42.15         15.87        1.09      99.30                 5.09          33.55     1296  34.00765    -118.50015    2018-04-16T16:52:37Z    
4/16/2018    9:52:38    42.15         15.87        1.06      99.34                 5.12          33.56     1297  34.00765    -118.50015    2018-04-16T16:52:38Z    
4/16/2018    9:52:38    42.15         15.86        1.05      99.34                 5.12          33.56     1298  34.00765    -118.50015    2018-04-16T16:52:38Z    
4/16/2018    9:52:38    42.15         15.86        1.03      99.28                 5.13          33.56     1299  34.00765    -118.50015    2018-04-16T16:52:38Z    
4/16/2018    9:52:38    42.16         15.86        1.02      99.24                 5.11          33.56     1300  34.00765    -118.50015    2018-04-16T16:52:38Z    
4/16/2018    9:52:38    42.16         15.86        1.03      99.19                 5.06          33.57     1301  34.00765    -118.50015    2018-04-16T16:52:38Z    
4/16/2018    9:52:38    42.16         15.85        1.05      99.15                 5.07          33.57     1302  34.00765    -118.50015    2018-04-16T16:52:38Z    
4/16/2018    9:52:39    42.16         15.86        1.06      99.12                 5.10          33.56     1303  34.00765    -118.50015    2018-04-16T16:52:39Z    
4/16/2018    9:52:39    42.16         15.87        1.08      99.03                 5.08          33.56     1304  34.00765    -118.50015    2018-04-16T16:52:39Z    
4/16/2018    9:52:39    42.15         15.87        1.12      98.95                 5.22          33.55     1305  34.00765    -118.50015    2018-04-16T16:52:39Z    
4/16/2018    9:52:39    42.15         15.87        1.17      98.83                 5.24          33.55     1306  34.00765    -118.50015    2018-04-16T16:52:39Z    
4/16/2018    9:52:39    42.14         15.87        1.20      98.78                 5.25          33.54     1307  34.00765    -118.50015    2018-04-16T16:52:39Z    
4/16/2018    9:52:39    42.14         15.86        1.23      98.79                 5.24          33.56     1308  34.00765    -118.50015    2018-04-16T16:52:39Z    
4/16/2018    9:52:40    42.15         15.86        1.28      98.73                 5.25          33.56     1309  34.00765    -118.50015    2018-04-16T16:52:40Z    
4/16/2018    9:52:40    42.15         15.86        1.31      98.63                 5.26          33.56     1310  34.00765    -118.50015    2018-04-16T16:52:40Z    
4/16/2018    9:52:40    42.15         15.86        1.32      98.57                 5.22          33.55     1311  34.00765    -118.50015    2018-04-16T16:52:40Z    
4/16/2018    9:52:40    42.15         15.86        1.34      98.57                 5.13          33.55     1312  34.00765    -118.50015    2018-04-16T16:52:40Z    
4/16/2018    9:52:40    42.15         15.87        1.32      98.57                 5.11          33.55     1313  34.00765    -118.50015    2018-04-16T16:52:40Z    
4/16/2018    9:52:40    42.15         15.88        1.32      98.54                 5.15          33.54     1314  34.00765    -118.50015    2018-04-16T16:52:40Z    
4/16/2018    9:52:41    42.15         15.88        1.30      98.55                 5.18          33.54     1315  34.00765    -118.50015    2018-04-16T16:52:41Z    
4/16/2018    9:52:41    42.16         15.88        1.28      98.46                 5.21          33.55     1316  34.00765    -118.50015    2018-04-16T16:52:41Z    
4/16/2018    9:52:41    42.16         15.88        1.25      98.43                 5.20          33.55     1317  34.00765    -118.50015    2018-04-16T16:52:41Z    
4/16/2018    9:52:41    42.16         15.87        1.25      98.47                 5.19          33.56     1318  34.00765    -118.50015    2018-04-16T16:52:41Z    
4/16/2018    9:52:41    42.16         15.88        1.25      98.47                 5.14          33.55     1319  34.00765    -118.50015    2018-04-16T16:52:41Z    
4/16/2018    9:52:41    42.16         15.88        1.26      98.47                 5.04          33.55     1320  34.00765    -118.50015    2018-04-16T16:52:41Z    
4/16/2018    9:52:42    42.16         15.88        1.28      98.44                 4.97          33.55     1321  34.00765    -118.50015    2018-04-16T16:52:42Z    
4/16/2018    9:52:42    42.16         15.89        1.30      98.38                 4.95          33.54     1322  34.00765    -118.50015    2018-04-16T16:52:42Z    
4/16/2018    9:52:42    42.16         15.89        1.31      98.38                 4.94          33.54     1323  34.00765    -118.50015    2018-04-16T16:52:42Z    
4/16/2018    9:52:42    42.17         15.88        1.31      98.39                 4.91          33.55     1324  34.00765    -118.50015    2018-04-16T16:52:42Z    
4/16/2018    9:52:42    42.17         15.87        1.30      98.46                 4.86          33.56     1325  34.00765    -118.50015    2018-04-16T16:52:42Z    
4/16/2018    9:52:42    42.16         15.87        1.30      98.45                 4.87          33.56     1326  34.00765    -118.50015    2018-04-16T16:52:42Z    
4/16/2018    9:52:43    42.15         15.87        1.29      98.38                 4.94          33.55     1327  34.00765    -118.50015    2018-04-16T16:52:43Z    
4/16/2018    9:52:43    42.15         15.87        1.27      98.42                 5.09          33.55     1328  34.00765    -118.50015    2018-04-16T16:52:43Z    
4/16/2018    9:52:43    42.15         15.87        1.25      98.42                 5.18          33.55     1329  34.00765    -118.50015    2018-04-16T16:52:43Z    
4/16/2018    9:52:43    42.16         15.87        1.23      98.47                 5.20          33.55     1330  34.00765    -118.50015    2018-04-16T16:52:43Z    
4/16/2018    9:52:43    42.16         15.87        1.21      98.43                 5.21          33.56     1331  34.00765    -118.50015    2018-04-16T16:52:43Z    
4/16/2018    9:52:43    42.18         15.89        1.20      98.38                 5.26          33.55     1332  34.00765    -118.50015    2018-04-16T16:52:43Z    
4/16/2018    9:52:44    42.19         15.91        1.17      98.39                 5.22          33.54     1333  34.00765    -118.50015    2018-04-16T16:52:44Z    
4/16/2018    9:52:44    42.19         15.93        1.16      98.38                 5.16          33.54     1334  34.00765    -118.50015    2018-04-16T16:52:44Z    
4/16/2018    9:52:44    42.20         15.92        1.13      98.48                 5.12          33.54     1335  34.00765    -118.50015    2018-04-16T16:52:44Z    
4/16/2018    9:52:44    42.18         15.88        1.11      98.60                 5.11          33.57     1336  34.00765    -118.50015    2018-04-16T16:52:44Z    
4/16/2018    9:52:44    42.16         15.86        1.07      98.60                 5.14          33.57     1337  34.00765    -118.50015    2018-04-16T16:52:44Z    
4/16/2018    9:52:44    42.16         15.86        1.05      98.75                 5.23          33.57     1338  34.00765    -118.50015    2018-04-16T16:52:44Z    
4/16/2018    9:52:45    42.16         15.86        1.03      98.78                 5.29          33.56     1339  34.00765    -118.50015    2018-04-16T16:52:45Z    
4/16/2018    9:52:45    42.15         15.87        1.01      98.81                 5.31          33.55     1340  34.00765    -118.50015    2018-04-16T16:52:45Z    
4/16/2018    9:52:45    42.15         15.86        1.01      98.89                 5.48          33.56     1341  34.00765    -118.50015    2018-04-16T16:52:45Z    
4/16/2018    9:52:45    42.15         15.86        0.99      98.90                 5.44          33.56     1342  34.00765    -118.50015    2018-04-16T16:52:45Z    
4/16/2018    9:52:45    42.15         15.85        0.99      99.01                 5.34          33.57     1343  34.00765    -118.50015    2018-04-16T16:52:45Z    
4/16/2018    9:52:45    42.15         15.85        1.00      99.00                 5.29          33.57     1344  34.00765    -118.50015    2018-04-16T16:52:45Z    
4/16/2018    9:52:46    42.15         15.85        1.00      98.97                 5.25          33.57     1345  34.00765    -118.50015    2018-04-16T16:52:46Z    
4/16/2018    9:52:46    42.16         15.85        1.00      99.05                 5.26          33.57     1346  34.00765    -118.50015    2018-04-16T16:52:46Z    
4/16/2018    9:52:46    42.16         15.86        1.01      99.05                 5.26          33.57     1347  34.00765    -118.50015    2018-04-16T16:52:46Z    
4/16/2018    9:52:46    42.16         15.87        1.02      99.02                 5.24          33.56     1348  34.00765    -118.50015    2018-04-16T16:52:46Z    
4/16/2018    9:52:46    42.16         15.86        1.01      99.04                 5.26          33.57     1349  34.00765    -118.50015    2018-04-16T16:52:46Z    
4/16/2018    9:52:46    42.16         15.86        0.98      99.06                 5.25          33.56     1350  34.00765    -118.50015    2018-04-16T16:52:46Z    
4/16/2018    9:52:47    42.15         15.87        0.96      99.03                 5.24          33.55     1351  34.00765    -118.50015    2018-04-16T16:52:47Z    
4/16/2018    9:52:47    42.15         15.86        0.94      99.12                 5.25          33.56     1352  34.00765    -118.50015    2018-04-16T16:52:47Z    
4/16/2018    9:52:47    42.15         15.86        0.89      99.10                 5.29          33.56     1353  34.00765    -118.50015    2018-04-16T16:52:47Z    
4/16/2018    9:52:47    42.15         15.87        0.85      99.16                 5.30          33.56     1354  34.00765    -118.50015    2018-04-16T16:52:47Z    
4/16/2018    9:52:47    42.16         15.87        0.79      99.12                 5.34          33.55     1355  34.00765    -118.50015    2018-04-16T16:52:47Z    
4/16/2018    9:52:47    42.16         15.88        0.73      99.10                 5.36          33.55     1356  34.00765    -118.50015    2018-04-16T16:52:47Z    
4/16/2018    9:52:48    42.16         15.89        0.67      99.15                 5.31          33.54     1357  34.00765    -118.50015    2018-04-16T16:52:48Z    
4/16/2018    9:52:48    42.16         15.90        0.60      99.20                 5.22          33.53     1358  34.00765    -118.50015    2018-04-16T16:52:48Z    
4/16/2018    9:52:48    42.15         15.90        0.55      99.19                 5.19          33.53     1359  34.00765    -118.50015    2018-04-16T16:52:48Z    
4/16/2018    9:52:48    42.15         15.90        0.53      99.24                 5.29          33.53     1360  34.00765    -118.50015    2018-04-16T16:52:48Z    
4/16/2018    9:52:48    42.15         15.89        0.55      99.29                 5.33          33.53     1361  34.00765    -118.50015    2018-04-16T16:52:48Z    
4/16/2018    9:52:48    42.15         15.89        0.59      99.33                 5.30          33.53     1362  34.00765    -118.50015    2018-04-16T16:52:48Z    
4/16/2018    9:52:49    42.15         15.89        0.67      99.25                 5.31          33.53     1363  34.00765    -118.50015    2018-04-16T16:52:49Z    
4/16/2018    9:52:49    42.15         15.89        0.76      99.22                 5.29          33.54     1364  34.00765    -118.50015    2018-04-16T16:52:49Z    
4/16/2018    9:52:49    42.19         15.89        0.85      99.27                 5.22          33.57     1365  34.00765    -118.50015    2018-04-16T16:52:49Z    
4/16/2018    9:52:49    42.15         15.89        0.94      99.26                 5.15          33.54     1366  34.00765    -118.50015    2018-04-16T16:52:49Z    
4/16/2018    9:52:49    42.15         15.89        1.03      99.26                 5.09          33.54     1367  34.00765    -118.50015    2018-04-16T16:52:49Z    
4/16/2018    9:52:49    42.14         15.88        1.11      99.22                 5.08          33.53     1368  34.00765    -118.50015    2018-04-16T16:52:49Z    
4/16/2018    9:52:50    42.14         15.87        1.16      99.31                 5.05          33.54     1369  34.00765    -118.50015    2018-04-16T16:52:50Z    
4/16/2018    9:52:50    42.15         15.86        1.21      99.28                 5.01          33.55     1370  34.00765    -118.50015    2018-04-16T16:52:50Z    
4/16/2018    9:52:50    42.15         15.86        1.23      99.31                 4.95          33.55     1371  34.00765    -118.50015    2018-04-16T16:52:50Z    
4/16/2018    9:52:50    42.14         15.86        1.24      99.31                 4.91          33.56     1372  34.00765    -118.50015    2018-04-16T16:52:50Z    
4/16/2018    9:52:50    42.15         15.85        1.22      99.28                 4.91          33.56     1373  34.00765    -118.50015    2018-04-16T16:52:50Z    
4/16/2018    9:52:50    42.14         15.86        1.20      99.23                 4.88          33.56     1374  34.00765    -118.50015    2018-04-16T16:52:50Z    
4/16/2018    9:52:51    42.14         15.86        1.15      99.15                 4.91          33.55     1375  34.00765    -118.50015    2018-04-16T16:52:51Z    
4/16/2018    9:52:51    42.14         15.86        1.10      99.17                 4.97          33.55     1376  34.00765    -118.50015    2018-04-16T16:52:51Z    
4/16/2018    9:52:51    42.14         15.86        1.04      99.18                 5.09          33.55     1377  34.00765    -118.50015    2018-04-16T16:52:51Z    
4/16/2018    9:52:51    42.14         15.86        0.99      99.09                 5.50          33.55     1378  34.00765    -118.50015    2018-04-16T16:52:51Z    
4/16/2018    9:52:51    42.14         15.86        0.94      99.12                 5.52          33.55     1379  34.00765    -118.50015    2018-04-16T16:52:51Z    
4/16/2018    9:52:51    42.14         15.86        0.90      99.13                 5.46          33.55     1380  34.00765    -118.50015    2018-04-16T16:52:51Z    
4/16/2018    9:52:52    42.14         15.86        0.88      99.08                 5.38          33.55     1381  34.00765    -118.50015    2018-04-16T16:52:52Z    
4/16/2018    9:52:52    42.15         15.87        0.87      99.02                 5.24          33.55     1382  34.00765    -118.50015    2018-04-16T16:52:52Z    
4/16/2018    9:52:52    42.15         15.87        0.86      99.01                 5.12          33.54     1383  34.00765    -118.50015    2018-04-16T16:52:52Z    
4/16/2018    9:52:52    42.14         15.88        0.88      99.01                 5.11          33.54     1384  34.00765    -118.50015    2018-04-16T16:52:52Z    
4/16/2018    9:52:52    42.15         15.88        0.91      99.02                 5.09          33.54     1385  34.00765    -118.50015    2018-04-16T16:52:52Z    
4/16/2018    9:52:52    42.15         15.88        0.93      99.02                 5.10          33.54     1386  34.00765    -118.50015    2018-04-16T16:52:52Z    
4/16/2018    9:52:53    42.15         15.88        0.97      99.10                 5.04          33.54     1387  34.00765    -118.50015    2018-04-16T16:52:53Z    
4/16/2018    9:52:53    42.15         15.88        0.98      99.09                 5.01          33.54     1388  34.00765    -118.50015    2018-04-16T16:52:53Z    
4/16/2018    9:52:53    42.14         15.87        1.03      99.13                 5.06          33.54     1389  34.00765    -118.50015    2018-04-16T16:52:53Z    
4/16/2018    9:52:53    42.14         15.87        1.06      99.12                 5.05          33.54     1390  34.00765    -118.50015    2018-04-16T16:52:53Z    
4/16/2018    9:52:53    42.14         15.87        1.09      99.15                 5.04          33.54     1391  34.00765    -118.50015    2018-04-16T16:52:53Z    
4/16/2018    9:52:53    42.13         15.87        1.11      99.20                 5.02          33.54     1392  34.00765    -118.50015    2018-04-16T16:52:53Z    
4/16/2018    9:52:54    42.13         15.86        1.16      99.19                 4.96          33.54     1393  34.00765    -118.50015    2018-04-16T16:52:54Z    
4/16/2018    9:52:54    42.13         15.86        1.19      99.22                 4.97          33.54     1394  34.00765    -118.50015    2018-04-16T16:52:54Z    
4/16/2018    9:52:54    42.13         15.85        1.23      99.20                 4.98          33.55     1395  34.00765    -118.50015    2018-04-16T16:52:54Z    
4/16/2018    9:52:54    42.14         15.85        1.27      99.21                 5.00          33.56     1396  34.00765    -118.50015    2018-04-16T16:52:54Z    
4/16/2018    9:52:54    42.15         15.85        1.31      99.22                 5.12          33.57     1397  34.00765    -118.50015    2018-04-16T16:52:54Z    
4/16/2018    9:52:54    42.15         15.85        1.34      99.24                 5.12          33.57     1398  34.00765    -118.50015    2018-04-16T16:52:54Z    
4/16/2018    9:52:55    42.16         15.85        1.38      99.18                 5.09          33.57     1399  34.00765    -118.50015    2018-04-16T16:52:55Z    
4/16/2018    9:52:55    42.16         15.85        1.39      99.12                 5.18          33.57     1400  34.00765    -118.50015    2018-04-16T16:52:55Z    
4/16/2018    9:52:55    42.15         15.85        1.38      99.04                 5.25          33.56     1401  34.00765    -118.50015    2018-04-16T16:52:55Z    
4/16/2018    9:52:55    42.14         15.85        1.38      99.03                 5.26          33.56     1402  34.00765    -118.50015    2018-04-16T16:52:55Z    
4/16/2018    9:52:55    42.14         15.85        1.37      99.02                 5.30          33.55     1403  34.00765    -118.50015    2018-04-16T16:52:55Z    
4/16/2018    9:52:55    42.14         15.85        1.36      98.99                 5.35          33.56     1404  34.00765    -118.50015    2018-04-16T16:52:55Z    
4/16/2018    9:52:56    42.14         15.85        1.35      98.94                 5.32          33.56     1405  34.00765    -118.50015    2018-04-16T16:52:56Z    
4/16/2018    9:52:56    42.14         15.85        1.33      98.91                 5.36          33.56     1406  34.00765    -118.50015    2018-04-16T16:52:56Z    
4/16/2018    9:52:56    42.14         15.85        1.32      98.85                 5.30          33.56     1407  34.00765    -118.50015    2018-04-16T16:52:56Z    
4/16/2018    9:52:56    42.16         15.86        1.31      98.85                 5.20          33.56     1408  34.00765    -118.50015    2018-04-16T16:52:56Z    
4/16/2018    9:52:56    42.16         15.87        1.31      98.83                 5.09          33.56     1409  34.00765    -118.50015    2018-04-16T16:52:56Z    
4/16/2018    9:52:56    42.16         15.87        1.31      98.81                 5.03          33.56     1410  34.00765    -118.50015    2018-04-16T16:52:56Z    
4/16/2018    9:52:57    42.16         15.87        1.31      98.83                 4.97          33.56     1411  34.00765    -118.50015    2018-04-16T16:52:57Z    
4/16/2018    9:52:57    42.16         15.86        1.31      98.89                 4.94          33.56     1412  34.00765    -118.50015    2018-04-16T16:52:57Z    
4/16/2018    9:52:57    42.17         15.87        1.29      98.89                 4.93          33.56     1413  34.00765    -118.50015    2018-04-16T16:52:57Z    
4/16/2018    9:52:57    42.17         15.87        1.26      98.94                 4.92          33.56     1414  34.00765    -118.50015    2018-04-16T16:52:57Z    
4/16/2018    9:52:57    42.17         15.88        1.21      98.92                 4.97          33.56     1415  34.00765    -118.50015    2018-04-16T16:52:57Z    
4/16/2018    9:52:57    42.17         15.88        1.17      99.04                 5.06          33.56     1416  34.00765    -118.50015    2018-04-16T16:52:57Z    
4/16/2018    9:52:58    42.17         15.89        1.12      99.09                 5.12          33.55     1417  34.00765    -118.50015    2018-04-16T16:52:58Z    
4/16/2018    9:52:58    42.17         15.89        1.07      99.14                 5.20          33.55     1418  34.00765    -118.50015    2018-04-16T16:52:58Z    
4/16/2018    9:52:58    42.17         15.89        1.04      99.18                 5.20          33.55     1419  34.00765    -118.50015    2018-04-16T16:52:58Z    
4/16/2018    9:52:58    42.17         15.89        1.01      99.27                 5.21          33.55     1420  34.00765    -118.50015    2018-04-16T16:52:58Z    
4/16/2018    9:52:58    42.17         15.89        0.99      99.28                 5.37          33.54     1421  34.00765    -118.50015    2018-04-16T16:52:58Z    
4/16/2018    9:52:58    42.16         15.90        0.99      99.31                 5.40          33.54     1422  34.00765    -118.50015    2018-04-16T16:52:58Z    
4/16/2018    9:52:59    42.17         15.89        1.01      99.34                 5.40          33.55     1423  34.00765    -118.50015    2018-04-16T16:52:59Z    
4/16/2018    9:52:59    42.17         15.87        1.05      99.35                 5.42          33.56     1424  34.00765    -118.50015    2018-04-16T16:52:59Z    
4/16/2018    9:52:59    42.17         15.87        1.08      99.44                 5.48          33.56     1425  34.00765    -118.50015    2018-04-16T16:52:59Z    
4/16/2018    9:52:59    42.16         15.87        1.13      99.43                 5.48          33.56     1426  34.00765    -118.50015    2018-04-16T16:52:59Z    
4/16/2018    9:52:59    42.17         15.87        1.18      99.43                 5.35          33.57     1427  34.00765    -118.50015    2018-04-16T16:52:59Z    
4/16/2018    9:52:59    42.18         15.87        1.23      99.40                 5.30          33.57     1428  34.00765    -118.50015    2018-04-16T16:52:59Z    
4/16/2018    9:53:00    42.18         15.88        1.26      99.32                 5.32          33.57     1429  34.00765    -118.50015    2018-04-16T16:53:00Z    
4/16/2018    9:53:00    42.18         15.88        1.28      99.34                 5.37          33.57     1430  34.00765    -118.50015    2018-04-16T16:53:00Z    
4/16/2018    9:53:00    42.17         15.88        1.28      99.37                 5.43          33.56     1431  34.00765    -118.50015    2018-04-16T16:53:00Z    
4/16/2018    9:53:00    42.17         15.88        1.26      99.30                 5.48          33.56     1432  34.00765    -118.50015    2018-04-16T16:53:00Z    
4/16/2018    9:53:00    42.18         15.89        1.21      99.31                 5.51          33.56     1433  34.00765    -118.50015    2018-04-16T16:53:00Z    
4/16/2018    9:53:00    42.17         15.89        1.16      99.26                 5.49          33.55     1434  34.00765    -118.50015    2018-04-16T16:53:00Z    
4/16/2018    9:53:01    42.17         15.89        1.10      99.30                 5.39          33.55     1435  34.00765    -118.50015    2018-04-16T16:53:01Z    
4/16/2018    9:53:01    42.16         15.88        1.04      99.28                 5.29          33.55     1436  34.00765    -118.50015    2018-04-16T16:53:01Z    
4/16/2018    9:53:01    42.16         15.88        0.97      99.29                 5.19          33.55     1437  34.00765    -118.50015    2018-04-16T16:53:01Z    
4/16/2018    9:53:01    42.16         15.88        0.91      99.29                 5.19          33.55     1438  34.00765    -118.50015    2018-04-16T16:53:01Z    
4/16/2018    9:53:01    42.16         15.88        0.91      99.29                 5.19          33.55     1439  34.00765    -118.50015    2018-04-16T16:53:01Z    
4/16/2018    9:53:01    42.16         15.88        0.83      99.29                 5.32          33.55     1440  34.00765    -118.50015    2018-04-16T16:53:01Z    
4/16/2018    9:53:02    42.16         15.88        0.82      99.28                 5.31          33.55     1441  34.00765    -118.50015    2018-04-16T16:53:02Z    
4/16/2018    9:53:02    42.16         15.88        0.81      99.27                 5.26          33.55     1442  34.00765    -118.50015    2018-04-16T16:53:02Z    
4/16/2018    9:53:02    42.16         15.88        0.83      99.26                 5.19          33.55     1443  34.00765    -118.50015    2018-04-16T16:53:02Z    
4/16/2018    9:53:02    42.16         15.88        0.84      99.23                 5.20          33.55     1444  34.00765    -118.50015    2018-04-16T16:53:02Z    
4/16/2018    9:53:02    42.16         15.88        0.88      99.31                 5.28          33.55     1445  34.00765    -118.50015    2018-04-16T16:53:02Z    
4/16/2018    9:53:02    42.15         15.88        0.91      99.29                 5.43          33.55     1446  34.00765    -118.50015    2018-04-16T16:53:02Z    
4/16/2018    9:53:03    42.15         15.88        0.94      99.29                 5.44          33.55     1447  34.00765    -118.50015    2018-04-16T16:53:03Z    
4/16/2018    9:53:03    42.16         15.88        0.93      99.31                 5.41          33.55     1448  34.00765    -118.50015    2018-04-16T16:53:03Z    
4/16/2018    9:53:03    42.17         15.88        0.93      99.29                 5.39          33.55     1449  34.00765    -118.50015    2018-04-16T16:53:03Z    
4/16/2018    9:53:03    42.17         15.88        0.91      99.31                 5.32          33.55     1450  34.00765    -118.50015    2018-04-16T16:53:03Z    
4/16/2018    9:53:03    42.17         15.89        0.88      99.36                 5.30          33.56     1451  34.00765    -118.50015    2018-04-16T16:53:03Z    
4/16/2018    9:53:03    42.18         15.89        0.83      99.30                 5.27          33.56     1452  34.00765    -118.50015    2018-04-16T16:53:03Z    
4/16/2018    9:53:04    42.17         15.89        0.79      99.26                 5.22          33.55     1453  34.00765    -118.50015    2018-04-16T16:53:04Z    
4/16/2018    9:53:04    42.17         15.89        0.75      99.25                 5.14          33.55     1454  34.00765    -118.50015    2018-04-16T16:53:04Z    
4/16/2018    9:53:04    42.18         15.89        0.73      99.27                 5.10          33.55     1455  34.00765    -118.50015    2018-04-16T16:53:04Z    
4/16/2018    9:53:04    42.18         15.89        0.74      99.29                 5.14          33.56     1456  34.00765    -118.50015    2018-04-16T16:53:04Z    
4/16/2018    9:53:04    42.19         15.88        0.76      99.30                 5.10          33.58     1457  34.00765    -118.50015    2018-04-16T16:53:04Z    
4/16/2018    9:53:04    42.19         15.88        0.81      99.33                 5.10          33.57     1458  34.00765    -118.50015    2018-04-16T16:53:04Z    
4/16/2018    9:53:05    42.20         15.89        0.88      99.28                 5.09          33.58     1459  34.00765    -118.50015    2018-04-16T16:53:05Z    
4/16/2018    9:53:05    42.22         15.90        0.95      99.24                 5.07          33.59     1460  34.00765    -118.50015    2018-04-16T16:53:05Z    
4/16/2018    9:53:05    42.24         15.90        1.04      99.33                 5.07          33.60     1461  34.00765    -118.50015    2018-04-16T16:53:05Z    
4/16/2018    9:53:05    42.23         15.91        1.10      99.40                 5.12          33.58     1462  34.00765    -118.50015    2018-04-16T16:53:05Z    
4/16/2018    9:53:05    42.18         15.94        1.18      99.29                 5.15          33.51     1463  34.00765    -118.50015    2018-04-16T16:53:05Z    
4/16/2018    9:53:05    42.17         15.93        1.25      99.38                 5.14          33.52     1464  34.00765    -118.50015    2018-04-16T16:53:05Z    
4/16/2018    9:53:06    42.20         15.92        1.30      99.44                 5.09          33.56     1465  34.00765    -118.50015    2018-04-16T16:53:06Z    
4/16/2018    9:53:06    42.27         15.90        1.34      99.47                 5.07          33.63     1466  34.00765    -118.50015    2018-04-16T16:53:06Z    
4/16/2018    9:53:06    42.26         15.90        1.37      99.52                 5.08          33.62     1467  34.00765    -118.50015    2018-04-16T16:53:06Z    
4/16/2018    9:53:06    42.25         15.91        1.40      99.57                 5.08          33.61     1468  34.00765    -118.50015    2018-04-16T16:53:06Z    
4/16/2018    9:53:06    42.25         15.93        1.42      99.50                 5.08          33.59     1469  34.00765    -118.50015    2018-04-16T16:53:06Z    
4/16/2018    9:53:06    42.24         15.94        1.43      99.59                 5.07          33.57     1470  34.00765    -118.50015    2018-04-16T16:53:06Z    
4/16/2018    9:53:07    42.22         15.95        1.43      99.54                 5.36          33.55     1471  34.00765    -118.50015    2018-04-16T16:53:07Z    
4/16/2018    9:53:07    42.23         15.95        1.40      99.54                 5.54          33.55     1472  34.00765    -118.50015    2018-04-16T16:53:07Z    
4/16/2018    9:53:07    42.22         15.95        1.37      99.55                 5.51          33.55     1473  34.00765    -118.50015    2018-04-16T16:53:07Z    
4/16/2018    9:53:07    42.20         15.93        1.34      99.59                 5.45          33.54     1474  34.00765    -118.50015    2018-04-16T16:53:07Z    
4/16/2018    9:53:07    42.19         15.93        1.28      99.48                 5.44          33.53     1475  34.00765    -118.50015    2018-04-16T16:53:07Z    
4/16/2018    9:53:07    42.19         15.93        1.23      99.50                 5.45          33.54     1476  34.00765    -118.50015    2018-04-16T16:53:07Z    
4/16/2018    9:53:08    42.19         15.93        1.14      99.49                 5.52          33.54     1477  34.00765    -118.50015    2018-04-16T16:53:08Z    
4/16/2018    9:53:08    42.19         15.92        1.07      99.50                 5.48          33.54     1478  34.00765    -118.50015    2018-04-16T16:53:08Z    
4/16/2018    9:53:08    42.19         15.91        1.04      99.57                 5.48          33.55     1479  34.00765    -118.50015    2018-04-16T16:53:08Z    
4/16/2018    9:53:08    42.20         15.90        1.02      99.58                 5.42          33.57     1480  34.00765    -118.50015    2018-04-16T16:53:08Z    
4/16/2018    9:53:08    42.22         15.90        1.00      99.52                 5.33          33.58     1481  34.00765    -118.50015    2018-04-16T16:53:08Z    
4/16/2018    9:53:08    42.24         15.89        1.01      99.56                 5.26          33.60     1482  34.00765    -118.50015    2018-04-16T16:53:08Z    
4/16/2018    9:53:09    42.24         15.89        1.02      99.62                 5.22          33.61     1483  34.00765    -118.50015    2018-04-16T16:53:09Z    
4/16/2018    9:53:09    42.24         15.92        1.04      99.56                 5.17          33.58     1484  34.00765    -118.50015    2018-04-16T16:53:09Z    
4/16/2018    9:53:09    42.25         15.92        1.06      99.55                 5.17          33.60     1485  34.00765    -118.50015    2018-04-16T16:53:09Z    
4/16/2018    9:53:09    42.25         15.93        1.09      99.55                 5.24          33.59     1486  34.00765    -118.50015    2018-04-16T16:53:09Z    
4/16/2018    9:53:09    42.26         15.90        1.12      99.62                 5.22          33.62     1487  34.00765    -118.50015    2018-04-16T16:53:09Z    
4/16/2018    9:53:09    42.27         15.91        1.17      99.53                 5.19          33.62     1488  34.00765    -118.50015    2018-04-16T16:53:09Z    
4/16/2018    9:53:10    42.25         15.93        1.21      99.54                 5.28          33.59     1489  34.00765    -118.50015    2018-04-16T16:53:10Z    
4/16/2018    9:53:10    42.24         15.96        1.24      99.46                 5.32          33.55     1490  34.00765    -118.50015    2018-04-16T16:53:10Z    
4/16/2018    9:53:10    42.24         15.97        1.28      99.42                 5.55          33.54     1491  34.00765    -118.50015    2018-04-16T16:53:10Z    
4/16/2018    9:53:10    42.25         15.98        1.31      99.51                 5.66          33.55     1492  34.00765    -118.50015    2018-04-16T16:53:10Z    
4/16/2018    9:53:10    42.24         15.98        1.34      99.53                 5.63          33.54     1493  34.00765    -118.50015    2018-04-16T16:53:10Z    
4/16/2018    9:53:10    42.25         15.97        1.34      99.60                 5.59          33.56     1494  34.00765    -118.50015    2018-04-16T16:53:10Z    
4/16/2018    9:53:11    42.26         15.97        1.35      99.60                 5.56          33.56     1495  34.00765    -118.50015    2018-04-16T16:53:11Z    
4/16/2018    9:53:11    42.26         15.97        1.35      99.77                 5.58          33.56     1496  34.00765    -118.50015    2018-04-16T16:53:11Z    
4/16/2018    9:53:11    42.25         15.96        1.35      99.97                 5.68          33.56     1497  34.00765    -118.50015    2018-04-16T16:53:11Z    
4/16/2018    9:53:11    42.25         15.96        1.33      100.02                5.66          33.56     1498  34.00765    -118.50015    2018-04-16T16:53:11Z    
4/16/2018    9:53:11    42.24         15.97        1.32      100.09                5.66          33.54     1499  34.00765    -118.50015    2018-04-16T16:53:11Z    
4/16/2018    9:53:11    42.25         15.97        1.29      100.17                5.63          33.55     1500  34.00765    -118.50015    2018-04-16T16:53:11Z    
4/16/2018    9:53:12    42.25         15.97        1.26      100.31                5.63          33.55     1501  34.00765    -118.50015    2018-04-16T16:53:12Z    
4/16/2018    9:53:12    42.25         15.98        1.23      100.41                5.58          33.54     1502  34.00765    -118.50015    2018-04-16T16:53:12Z    
4/16/2018    9:53:12    42.25         15.99        1.19      100.45                5.63          33.54     1503  34.00765    -118.50015    2018-04-16T16:53:12Z    
4/16/2018    9:53:12    42.25         15.98        1.14      100.53                5.57          33.54     1504  34.00765    -118.50015    2018-04-16T16:53:12Z    
4/16/2018    9:53:12    42.25         15.98        1.10      100.65                5.50          33.54     1505  34.00765    -118.50015    2018-04-16T16:53:12Z    
4/16/2018    9:53:12    42.25         15.98        1.06      100.69                5.43          33.55     1506  34.00765    -118.50015    2018-04-16T16:53:12Z    
4/16/2018    9:53:13    42.25         15.98        1.04      100.67                5.37          33.55     1507  34.00765    -118.50015    2018-04-16T16:53:13Z    
4/16/2018    9:53:13    42.25         15.97        1.04      100.73                5.39          33.55     1508  34.00765    -118.50015    2018-04-16T16:53:13Z    
4/16/2018    9:53:13    42.24         15.96        1.04      100.78                5.37          33.56     1509  34.00765    -118.50015    2018-04-16T16:53:13Z    
4/16/2018    9:53:13    42.24         15.96        1.05      100.79                5.35          33.55     1510  34.00765    -118.50015    2018-04-16T16:53:13Z    
4/16/2018    9:53:13    42.23         15.95        1.05      100.83                5.32          33.56     1511  34.00765    -118.50015    2018-04-16T16:53:13Z    
4/16/2018    9:53:13    42.23         15.95        1.04      100.82                5.29          33.55     1512  34.00765    -118.50015    2018-04-16T16:53:13Z    
4/16/2018    9:53:14    42.22         15.94        1.03      100.90                5.29          33.56     1513  34.00765    -118.50015    2018-04-16T16:53:14Z    
4/16/2018    9:53:14    42.22         15.92        1.01      100.96                5.29          33.57     1514  34.00765    -118.50015    2018-04-16T16:53:14Z    
4/16/2018    9:53:14    42.23         15.93        0.98      100.93                5.28          33.57     1515  34.00765    -118.50015    2018-04-16T16:53:14Z    
4/16/2018    9:53:14    42.22         15.93        0.94      101.03                5.26          33.57     1516  34.00765    -118.50015    2018-04-16T16:53:14Z    
4/16/2018    9:53:14    42.22         15.94        0.91      101.02                5.33          33.56     1517  34.00765    -118.50015    2018-04-16T16:53:14Z    
4/16/2018    9:53:14    42.22         15.94        0.91      101.04                5.36          33.56     1518  34.00765    -118.50015    2018-04-16T16:53:14Z    
4/16/2018    9:53:15    42.22         15.95        0.91      101.07                5.41          33.55     1519  34.00765    -118.50015    2018-04-16T16:53:15Z    
4/16/2018    9:53:15    42.23         15.95        0.92      101.12                5.48          33.55     1520  34.00765    -118.50015    2018-04-16T16:53:15Z    
4/16/2018    9:53:15    42.23         15.95        0.94      101.06                5.51          33.55     1521  34.00765    -118.50015    2018-04-16T16:53:15Z    
4/16/2018    9:53:15    42.23         15.95        0.94      101.10                5.47          33.55     1522  34.00765    -118.50015    2018-04-16T16:53:15Z    
4/16/2018    9:53:15    42.23         15.95        0.97      101.11                5.46          33.55     1523  34.00765    -118.50015    2018-04-16T16:53:15Z    
4/16/2018    9:53:15    42.24         15.95        0.98      101.18                5.48          33.56     1524  34.00765    -118.50015    2018-04-16T16:53:15Z    
4/16/2018    9:53:16    42.24         15.95        0.99      101.22                5.48          33.56     1525  34.00765    -118.50015    2018-04-16T16:53:16Z    
4/16/2018    9:53:16    42.24         15.95        1.00      101.30                5.46          33.56     1526  34.00765    -118.50015    2018-04-16T16:53:16Z    
4/16/2018    9:53:16    42.24         15.95        1.01      101.26                5.39          33.56     1527  34.00765    -118.50015    2018-04-16T16:53:16Z    
4/16/2018    9:53:16    42.24         15.95        1.01      101.32                5.35          33.56     1528  34.00765    -118.50015    2018-04-16T16:53:16Z    
4/16/2018    9:53:16    42.24         15.95        1.02      101.34                5.29          33.56     1529  34.00765    -118.50015    2018-04-16T16:53:16Z    
4/16/2018    9:53:16    42.23         15.95        1.03      101.29                5.22          33.56     1530  34.00765    -118.50015    2018-04-16T16:53:16Z    
4/16/2018    9:53:17    42.23         15.95        1.05      101.18                5.20          33.56     1531  34.00765    -118.50015    2018-04-16T16:53:17Z    
4/16/2018    9:53:17    42.23         15.95        1.04      101.19                5.23          33.56     1532  34.00765    -118.50015    2018-04-16T16:53:17Z    
4/16/2018    9:53:17    42.24         15.94        1.03      101.16                5.24          33.57     1533  34.00765    -118.50015    2018-04-16T16:53:17Z    
4/16/2018    9:53:17    42.23         15.94        1.02      101.05                5.26          33.56     1534  34.00765    -118.50015    2018-04-16T16:53:17Z    
4/16/2018    9:53:17    42.22         15.93        1.02      100.95                5.32          33.56     1535  34.00765    -118.50015    2018-04-16T16:53:17Z    
4/16/2018    9:53:17    42.21         15.92        1.00      100.96                5.35          33.56     1536  34.00765    -118.50015    2018-04-16T16:53:17Z    
4/16/2018    9:53:18    42.21         15.92        0.99      100.80                5.41          33.56     1537  34.00765    -118.50015    2018-04-16T16:53:18Z    
4/16/2018    9:53:18    42.21         15.92        0.97      100.66                5.40          33.55     1538  34.00765    -118.50015    2018-04-16T16:53:18Z    
4/16/2018    9:53:18    42.21         15.93        0.97      100.67                5.33          33.55     1539  34.00765    -118.50015    2018-04-16T16:53:18Z    
4/16/2018    9:53:18    42.21         15.93        0.97      100.61                5.45          33.55     1540  34.00765    -118.50015    2018-04-16T16:53:18Z    
4/16/2018    9:53:18    42.21         15.93        0.97      100.53                5.55          33.55     1541  34.00765    -118.50015    2018-04-16T16:53:18Z    
4/16/2018    9:53:18    42.21         15.93        0.99      100.50                5.51          33.55     1542  34.00765    -118.50015    2018-04-16T16:53:18Z    
4/16/2018    9:53:19    42.21         15.93        1.00      100.50                5.46          33.55     1543  34.00765    -118.50015    2018-04-16T16:53:19Z    
4/16/2018    9:53:19    42.20         15.93        1.03      100.46                5.40          33.54     1544  34.00765    -118.50015    2018-04-16T16:53:19Z    
4/16/2018    9:53:19    42.20         15.93        1.05      100.45                5.37          33.54     1545  34.00765    -118.50015    2018-04-16T16:53:19Z    
4/16/2018    9:53:19    42.21         15.93        1.06      100.44                5.35          33.55     1546  34.00765    -118.50015    2018-04-16T16:53:19Z    
4/16/2018    9:53:19    42.22         15.92        1.11      100.44                5.31          33.56     1547  34.00765    -118.50015    2018-04-16T16:53:19Z    
4/16/2018    9:53:19    42.23         15.92        1.14      100.46                5.33          33.58     1548  34.00765    -118.50015    2018-04-16T16:53:19Z    
4/16/2018    9:53:20    42.23         15.92        1.17      100.33                5.45          33.58     1549  34.00765    -118.50015    2018-04-16T16:53:20Z    
4/16/2018    9:53:20    42.23         15.92        1.21      100.39                5.56          33.58     1550  34.00765    -118.50015    2018-04-16T16:53:20Z    
4/16/2018    9:53:20    42.24         15.93        1.23      100.37                5.70          33.58     1551  34.00765    -118.50015    2018-04-16T16:53:20Z    
4/16/2018    9:53:20    42.25         15.94        1.26      100.26                5.69          33.57     1552  34.00765    -118.50015    2018-04-16T16:53:20Z    
4/16/2018    9:53:20    42.24         15.95        1.26      100.29                5.67          33.57     1553  34.00765    -118.50015    2018-04-16T16:53:20Z    
4/16/2018    9:53:20    42.24         15.95        1.30      100.29                5.64          33.56     1554  34.00765    -118.50015    2018-04-16T16:53:20Z    
4/16/2018    9:53:21    42.24         15.95        1.30      100.31                5.65          33.56     1555  34.00765    -118.50015    2018-04-16T16:53:21Z    
4/16/2018    9:53:21    42.24         15.96        1.31      100.32                5.73          33.56     1556  34.00765    -118.50015    2018-04-16T16:53:21Z    
4/16/2018    9:53:21    42.24         15.96        1.30      100.31                5.76          33.56     1557  34.00765    -118.50015    2018-04-16T16:53:21Z    
4/16/2018    9:53:21    42.24         15.96        1.30      100.30                5.72          33.55     1558  34.00765    -118.50015    2018-04-16T16:53:21Z    
4/16/2018    9:53:21    42.24         15.96        1.30      100.29                5.75          33.55     1559  34.00765    -118.50015    2018-04-16T16:53:21Z    
4/16/2018    9:53:21    42.24         15.96        1.29      100.30                5.69          33.55     1560  34.00765    -118.50015    2018-04-16T16:53:21Z    
4/16/2018    9:53:22    42.24         15.95        1.28      100.30                5.65          33.56     1561  34.00765    -118.50015    2018-04-16T16:53:22Z    
4/16/2018    9:53:22    42.24         15.95        1.26      100.42                5.54          33.56     1562  34.00765    -118.50015    2018-04-16T16:53:22Z    
4/16/2018    9:53:22    42.23         15.95        1.25      100.41                5.44          33.56     1563  34.00765    -118.50015    2018-04-16T16:53:22Z    
4/16/2018    9:53:22    42.23         15.94        1.23      100.43                5.39          33.56     1564  34.00765    -118.50015    2018-04-16T16:53:22Z    
4/16/2018    9:53:22    42.23         15.95        1.20      100.45                5.40          33.56     1565  34.00765    -118.50015    2018-04-16T16:53:22Z    
4/16/2018    9:53:22    42.23         15.95        1.18      100.47                5.40          33.55     1566  34.00765    -118.50015    2018-04-16T16:53:22Z    
4/16/2018    9:53:23    42.23         15.95        1.17      100.48                5.37          33.55     1567  34.00765    -118.50015    2018-04-16T16:53:23Z    
4/16/2018    9:53:23    42.23         15.94        1.17      100.55                5.36          33.56     1568  34.00765    -118.50015    2018-04-16T16:53:23Z    
4/16/2018    9:53:23    42.23         15.94        1.14      100.50                5.36          33.56     1569  34.00765    -118.50015    2018-04-16T16:53:23Z    
4/16/2018    9:53:23    42.23         15.93        1.14      100.55                5.34          33.57     1570  34.00765    -118.50015    2018-04-16T16:53:23Z    
4/16/2018    9:53:23    42.23         15.93        1.13      100.56                5.31          33.57     1571  34.00765    -118.50015    2018-04-16T16:53:23Z    
4/16/2018    9:53:23    42.23         15.93        1.12      100.61                5.34          33.57     1572  34.00765    -118.50015    2018-04-16T16:53:23Z    
4/16/2018    9:53:24    42.23         15.92        1.12      100.61                5.42          33.58     1573  34.00765    -118.50015    2018-04-16T16:53:24Z    
4/16/2018    9:53:24    42.22         15.94        1.11      100.61                5.62          33.56     1574  34.00765    -118.50015    2018-04-16T16:53:24Z    
4/16/2018    9:53:24    42.22         15.94        1.11      100.60                5.63          33.55     1575  34.00765    -118.50015    2018-04-16T16:53:24Z    
4/16/2018    9:53:24    42.22         15.94        1.08      100.61                5.62          33.55     1576  34.00765    -118.50015    2018-04-16T16:53:24Z    
4/16/2018    9:53:24    42.22         15.93        1.08      100.68                5.53          33.56     1577  34.00765    -118.50015    2018-04-16T16:53:24Z    
4/16/2018    9:53:24    42.22         15.92        1.07      100.67                5.49          33.57     1578  34.00765    -118.50015    2018-04-16T16:53:24Z    
4/16/2018    9:53:25    42.22         15.92        1.08      100.72                5.49          33.56     1579  34.00765    -118.50015    2018-04-16T16:53:25Z    
4/16/2018    9:53:25    42.22         15.93        1.08      100.67                5.48          33.57     1580  34.00765    -118.50015    2018-04-16T16:53:25Z    
4/16/2018    9:53:25    42.23         15.93        1.09      100.74                5.58          33.57     1581  34.00765    -118.50015    2018-04-16T16:53:25Z    
4/16/2018    9:53:25    42.23         15.93        1.11      100.72                5.66          33.56     1582  34.00765    -118.50015    2018-04-16T16:53:25Z    
4/16/2018    9:53:25    42.23         15.94        1.13      100.70                5.66          33.56     1583  34.00765    -118.50015    2018-04-16T16:53:25Z    
4/16/2018    9:53:25    42.23         15.95        1.15      100.64                5.64          33.56     1584  34.00765    -118.50015    2018-04-16T16:53:25Z    
4/16/2018    9:53:26    42.24         15.96        1.19      100.60                5.72          33.55     1585  34.00765    -118.50015    2018-04-16T16:53:26Z    
4/16/2018    9:53:26    42.24         15.96        1.21      100.68                5.82          33.55     1586  34.00765    -118.50015    2018-04-16T16:53:26Z    
4/16/2018    9:53:26    42.24         15.96        1.23      100.68                5.95          33.55     1587  34.00765    -118.50015    2018-04-16T16:53:26Z    
4/16/2018    9:53:26    42.24         15.96        1.23      100.71                5.96          33.56     1588  34.00765    -118.50015    2018-04-16T16:53:26Z    
4/16/2018    9:53:26    42.24         15.97        1.23      100.71                5.96          33.55     1589  34.00765    -118.50015    2018-04-16T16:53:26Z    
4/16/2018    9:53:26    42.25         15.96        1.21      100.71                5.92          33.56     1590  34.00765    -118.50015    2018-04-16T16:53:26Z    
4/16/2018    9:53:27    42.24         15.96        1.19      100.69                5.86          33.56     1591  34.00765    -118.50015    2018-04-16T16:53:27Z    
4/16/2018    9:53:27    42.24         15.96        1.14      100.82                5.76          33.55     1592  34.00765    -118.50015    2018-04-16T16:53:27Z    
4/16/2018    9:53:27    42.24         15.96        1.12      100.74                5.66          33.55     1593  34.00765    -118.50015    2018-04-16T16:53:27Z    
4/16/2018    9:53:27    42.24         15.96        1.06      100.76                5.58          33.55     1594  34.00765    -118.50015    2018-04-16T16:53:27Z    
4/16/2018    9:53:27    42.24         15.96        1.04      100.81                5.61          33.55     1595  34.00765    -118.50015    2018-04-16T16:53:27Z    
4/16/2018    9:53:27    42.24         15.96        1.01      100.86                5.61          33.55     1596  34.00765    -118.50015    2018-04-16T16:53:27Z    
4/16/2018    9:53:28    42.24         15.96        1.01      100.90                5.70          33.56     1597  34.00765    -118.50015    2018-04-16T16:53:28Z    
4/16/2018    9:53:28    42.24         15.95        1.00      100.89                5.81          33.56     1598  34.00765    -118.50015    2018-04-16T16:53:28Z    
4/16/2018    9:53:28    42.24         15.95        1.01      100.92                5.77          33.57     1599  34.00765    -118.50015    2018-04-16T16:53:28Z    
4/16/2018    9:53:28    42.24         15.94        1.03      100.94                5.66          33.57     1600  34.00765    -118.50015    2018-04-16T16:53:28Z    
4/16/2018    9:53:28    42.25         15.96        1.05      100.89                5.53          33.56     1601  34.00765    -118.50015    2018-04-16T16:53:28Z    
4/16/2018    9:53:28    42.25         15.98        1.09      100.99                5.49          33.54     1602  34.00765    -118.50015    2018-04-16T16:53:28Z    
4/16/2018    9:53:29    42.24         15.98        1.12      100.96                5.44          33.54     1603  34.00765    -118.50015    2018-04-16T16:53:29Z    
4/16/2018    9:53:29    42.25         15.98        1.16      100.94                5.43          33.54     1604  34.00765    -118.50015    2018-04-16T16:53:29Z    
4/16/2018    9:53:29    42.25         15.98        1.18      101.03                5.41          33.54     1605  34.00765    -118.50015    2018-04-16T16:53:29Z    
4/16/2018    9:53:29    42.25         15.98        1.21      101.12                5.43          33.54     1606  34.00765    -118.50015    2018-04-16T16:53:29Z    
4/16/2018    9:53:29    42.25         15.98        1.24      101.11                5.46          33.55     1607  34.00765    -118.50015    2018-04-16T16:53:29Z    
4/16/2018    9:53:29    42.25         15.98        1.24      101.12                5.61          33.55     1608  34.00765    -118.50015    2018-04-16T16:53:29Z    
4/16/2018    9:53:30    42.25         15.98        1.22      101.10                5.77          33.55     1609  34.00765    -118.50015    2018-04-16T16:53:30Z    
4/16/2018    9:53:30    42.25         15.98        1.21      101.11                5.78          33.55     1610  34.00765    -118.50015    2018-04-16T16:53:30Z    
4/16/2018    9:53:30    42.26         15.97        1.17      101.12                5.76          33.56     1611  34.00765    -118.50015    2018-04-16T16:53:30Z    
4/16/2018    9:53:30    42.26         15.97        1.13      101.21                5.69          33.56     1612  34.00765    -118.50015    2018-04-16T16:53:30Z    
4/16/2018    9:53:30    42.25         15.97        1.09      101.22                5.63          33.55     1613  34.00765    -118.50015    2018-04-16T16:53:30Z    
4/16/2018    9:53:30    42.25         15.98        1.03      101.25                5.58          33.55     1614  34.00765    -118.50015    2018-04-16T16:53:30Z    
4/16/2018    9:53:31    42.25         15.98        0.98      101.31                5.63          33.55     1615  34.00765    -118.50015    2018-04-16T16:53:31Z    
4/16/2018    9:53:31    42.25         15.98        0.91      101.33                5.73          33.55     1616  34.00765    -118.50015    2018-04-16T16:53:31Z    
4/16/2018    9:53:31    42.25         15.98        0.87      101.34                5.73          33.55     1617  34.00765    -118.50015    2018-04-16T16:53:31Z    
4/16/2018    9:53:31    42.25         15.97        0.82      101.43                5.72          33.55     1618  34.00765    -118.50015    2018-04-16T16:53:31Z    
4/16/2018    9:53:31    42.24         15.97        0.79      101.43                5.65          33.55     1619  34.00765    -118.50015    2018-04-16T16:53:31Z    
4/16/2018    9:53:31    42.24         15.96        0.79      101.41                5.63          33.55     1620  34.00765    -118.50015    2018-04-16T16:53:31Z    
4/16/2018    9:53:32    42.24         15.96        0.79      101.40                5.54          33.56     1621  34.00765    -118.50015    2018-04-16T16:53:32Z    
4/16/2018    9:53:32    42.24         15.95        0.82      101.40                5.53          33.56     1622  34.00765    -118.50015    2018-04-16T16:53:32Z    
4/16/2018    9:53:32    42.24         15.95        0.87      101.39                5.51          33.56     1623  34.00765    -118.50015    2018-04-16T16:53:32Z    
4/16/2018    9:53:32    42.23         15.96        0.92      101.33                5.53          33.55     1624  34.00765    -118.50015    2018-04-16T16:53:32Z    
4/16/2018    9:53:32    42.22         15.96        0.97      101.29                5.54          33.54     1625  34.00765    -118.50015    2018-04-16T16:53:32Z    
4/16/2018    9:53:32    42.22         15.96        1.01      101.28                5.48          33.54     1626  34.00765    -118.50015    2018-04-16T16:53:32Z    
4/16/2018    9:53:33    42.23         15.95        1.03      101.23                5.47          33.55     1627  34.00765    -118.50015    2018-04-16T16:53:33Z    
4/16/2018    9:53:33    42.23         15.95        1.06      101.15                5.47          33.55     1628  34.00765    -118.50015    2018-04-16T16:53:33Z    
4/16/2018    9:53:33    42.23         15.95        1.06      101.12                5.46          33.55     1629  34.00765    -118.50015    2018-04-16T16:53:33Z    
4/16/2018    9:53:33    42.23         15.95        1.05      101.15                5.42          33.55     1630  34.00765    -118.50015    2018-04-16T16:53:33Z    
4/16/2018    9:53:33    42.23         15.95        1.03      101.13                5.47          33.55     1631  34.00765    -118.50015    2018-04-16T16:53:33Z    
4/16/2018    9:53:33    42.23         15.95        1.01      100.99                5.57          33.55     1632  34.00765    -118.50015    2018-04-16T16:53:33Z    
4/16/2018    9:53:34    42.22         15.95        0.96      101.01                5.62          33.55     1633  34.00765    -118.50015    2018-04-16T16:53:34Z    
4/16/2018    9:53:34    42.22         15.95        0.93      101.02                5.55          33.55     1634  34.00765    -118.50015    2018-04-16T16:53:34Z    
4/16/2018    9:53:34    42.22         15.94        0.92      100.99                5.49          33.55     1635  34.00765    -118.50015    2018-04-16T16:53:34Z    
4/16/2018    9:53:34    42.22         15.94        0.92      100.99                5.50          33.55     1636  34.00765    -118.50015    2018-04-16T16:53:34Z    
4/16/2018    9:53:34    42.22         15.94        0.91      100.93                5.47          33.56     1637  34.00765    -118.50015    2018-04-16T16:53:34Z    
4/16/2018    9:53:34    42.22         15.94        0.90      100.95                5.58          33.55     1638  34.00765    -118.50015    2018-04-16T16:53:34Z    
4/16/2018    9:53:35    42.21         15.93        0.90      100.92                5.65          33.55     1639  34.00765    -118.50015    2018-04-16T16:53:35Z    
4/16/2018    9:53:35    42.20         15.93        0.89      100.95                5.66          33.55     1640  34.00765    -118.50015    2018-04-16T16:53:35Z    
4/16/2018    9:53:35    42.20         15.93        0.90      100.93                5.60          33.55     1641  34.00765    -118.50015    2018-04-16T16:53:35Z    
4/16/2018    9:53:35    42.19         15.92        0.93      100.88                5.52          33.55     1642  34.00765    -118.50015    2018-04-16T16:53:35Z    
4/16/2018    9:53:35    42.19         15.92        0.95      100.91                5.46          33.55     1643  34.00765    -118.50015    2018-04-16T16:53:35Z    
4/16/2018    9:53:35    42.20         15.91        0.99      100.88                5.56          33.55     1644  34.00765    -118.50015    2018-04-16T16:53:35Z    
4/16/2018    9:53:36    42.20         15.91        1.02      100.87                5.60          33.56     1645  34.00765    -118.50015    2018-04-16T16:53:36Z    
4/16/2018    9:53:36    42.21         15.91        1.05      100.92                5.58          33.57     1646  34.00765    -118.50015    2018-04-16T16:53:36Z    
4/16/2018    9:53:36    42.21         15.91        1.07      100.86                5.53          33.57     1647  34.00765    -118.50015    2018-04-16T16:53:36Z    
4/16/2018    9:53:36    42.21         15.91        1.08      100.84                5.48          33.57     1648  34.00765    -118.50015    2018-04-16T16:53:36Z    
4/16/2018    9:53:36    42.21         15.91        1.09      100.82                5.43          33.57     1649  34.00765    -118.50015    2018-04-16T16:53:36Z    
4/16/2018    9:53:36    42.21         15.91        1.07      100.79                5.38          33.57     1650  34.00765    -118.50015    2018-04-16T16:53:36Z    
4/16/2018    9:53:37    42.21         15.91        1.05      100.78                5.33          33.57     1651  34.00765    -118.50015    2018-04-16T16:53:37Z    
4/16/2018    9:53:37    42.20         15.92        1.05      100.77                5.28          33.55     1652  34.00765    -118.50015    2018-04-16T16:53:37Z    
4/16/2018    9:53:37    42.20         15.92        1.04      100.75                5.27          33.56     1653  34.00765    -118.50015    2018-04-16T16:53:37Z    
4/16/2018    9:53:37    42.21         15.92        1.05      100.70                5.30          33.56     1654  34.00765    -118.50015    2018-04-16T16:53:37Z    
4/16/2018    9:53:37    42.22         15.91        1.07      100.76                5.30          33.57     1655  34.00765    -118.50015    2018-04-16T16:53:37Z    
4/16/2018    9:53:37    42.21         15.92        1.12      100.71                5.28          33.56     1656  34.00765    -118.50015    2018-04-16T16:53:37Z    
4/16/2018    9:53:38    42.22         15.93        1.15      100.72                5.31          33.56     1657  34.00765    -118.50015    2018-04-16T16:53:38Z    
4/16/2018    9:53:38    42.23         15.93        1.21      100.60                5.42          33.56     1658  34.00765    -118.50015    2018-04-16T16:53:38Z    
4/16/2018    9:53:38    42.23         15.94        1.25      100.60                5.45          33.56     1659  34.00765    -118.50015    2018-04-16T16:53:38Z    
4/16/2018    9:53:38    42.21         15.94        1.30      100.58                5.49          33.54     1660  34.00765    -118.50015    2018-04-16T16:53:38Z    
4/16/2018    9:53:38    42.18         15.94        1.33      100.58                5.53          33.52     1661  34.00765    -118.50015    2018-04-16T16:53:38Z    
4/16/2018    9:53:38    42.17         15.93        1.35      100.60                5.51          33.52     1662  34.00765    -118.50015    2018-04-16T16:53:38Z    
4/16/2018    9:53:39    42.17         15.93        1.37      100.59                5.55          33.51     1663  34.00765    -118.50015    2018-04-16T16:53:39Z    
4/16/2018    9:53:39    42.17         15.88        1.38      100.67                5.50          33.56     1664  34.00765    -118.50015    2018-04-16T16:53:39Z    
4/16/2018    9:53:39    42.17         15.89        1.38      100.71                5.45          33.55     1665  34.00765    -118.50015    2018-04-16T16:53:39Z    
4/16/2018    9:53:39    42.18         15.90        1.35      100.76                5.52          33.54     1666  34.00765    -118.50015    2018-04-16T16:53:39Z    
4/16/2018    9:53:39    42.18         15.90        1.33      100.71                5.55          33.55     1667  34.00765    -118.50015    2018-04-16T16:53:39Z    
4/16/2018    9:53:39    42.18         15.92        1.29      100.64                5.63          33.53     1668  34.00765    -118.50015    2018-04-16T16:53:39Z    
4/16/2018    9:53:40    42.19         15.92        1.25      100.68                5.71          33.54     1669  34.00765    -118.50015    2018-04-16T16:53:40Z    
4/16/2018    9:53:40    42.19         15.92        1.20      100.69                5.67          33.55     1670  34.00765    -118.50015    2018-04-16T16:53:40Z    
4/16/2018    9:53:40    42.19         15.91        1.16      100.76                5.64          33.55     1671  34.00765    -118.50015    2018-04-16T16:53:40Z    
4/16/2018    9:53:40    42.20         15.92        1.11      100.75                5.58          33.55     1672  34.00765    -118.50015    2018-04-16T16:53:40Z    
4/16/2018    9:53:40    42.20         15.93        1.09      100.72                5.52          33.54     1673  34.00765    -118.50015    2018-04-16T16:53:40Z    
4/16/2018    9:53:40    42.20         15.95        1.06      100.66                5.43          33.53     1674  34.00765    -118.50015    2018-04-16T16:53:40Z    
4/16/2018    9:53:41    42.20         15.95        1.05      100.71                5.42          33.53     1675  34.00765    -118.50015    2018-04-16T16:53:41Z    
4/16/2018    9:53:41    42.21         15.96        1.06      100.68                5.44          33.53     1676  34.00765    -118.50015    2018-04-16T16:53:41Z    
4/16/2018    9:53:41    42.22         15.95        1.07      100.74                5.44          33.54     1677  34.00765    -118.50015    2018-04-16T16:53:41Z    
4/16/2018    9:53:41    42.22         15.96        1.09      100.71                5.47          33.54     1678  34.00765    -118.50015    2018-04-16T16:53:41Z    
4/16/2018    9:53:41    42.24         15.96        1.12      100.75                5.54          33.55     1679  34.00765    -118.50015    2018-04-16T16:53:41Z    
4/16/2018    9:53:41    42.25         15.97        1.14      100.70                5.56          33.55     1680  34.00765    -118.50015    2018-04-16T16:53:41Z    
4/16/2018    9:53:42    42.27         15.98        1.17      100.63                5.51          33.56     1681  34.00765    -118.50015    2018-04-16T16:53:42Z    
4/16/2018    9:53:42    42.27         15.98        1.18      100.68                5.65          33.56     1682  34.00765    -118.50015    2018-04-16T16:53:42Z    
4/16/2018    9:53:42    42.27         15.98        1.19      100.67                5.70          33.56     1683  34.00765    -118.50015    2018-04-16T16:53:42Z    
4/16/2018    9:53:42    42.27         15.99        1.21      100.72                5.75          33.55     1684  34.00765    -118.50015    2018-04-16T16:53:42Z    
4/16/2018    9:53:42    42.27         15.99        1.22      100.77                5.75          33.55     1685  34.00765    -118.50015    2018-04-16T16:53:42Z    
4/16/2018    9:53:42    42.27         16.00        1.23      100.81                5.72          33.55     1686  34.00765    -118.50015    2018-04-16T16:53:42Z    
4/16/2018    9:53:43    42.28         16.00        1.27      100.81                5.70          33.55     1687  34.00765    -118.50015    2018-04-16T16:53:43Z    
4/16/2018    9:53:43    42.24         16.01        1.30      100.82                5.67          33.51     1688  34.00765    -118.50015    2018-04-16T16:53:43Z    
4/16/2018    9:53:43    42.18         16.01        1.32      100.94                5.67          33.46     1689  34.00765    -118.50015    2018-04-16T16:53:43Z    
4/16/2018    9:53:43    42.17         15.99        1.33      101.04                5.70          33.46     1690  34.00765    -118.50015    2018-04-16T16:53:43Z    
4/16/2018    9:53:43    42.18         15.95        1.33      101.16                5.74          33.51     1691  34.00765    -118.50015    2018-04-16T16:53:43Z    
4/16/2018    9:53:43    42.21         15.97        1.31      101.14                5.74          33.51     1692  34.00765    -118.50015    2018-04-16T16:53:43Z    
4/16/2018    9:53:44    42.25         16.00        1.26      101.16                5.72          33.53     1693  34.00765    -118.50015    2018-04-16T16:53:44Z    
4/16/2018    9:53:44    42.25         16.00        1.21      101.15                5.70          33.53     1694  34.00765    -118.50015    2018-04-16T16:53:44Z    
4/16/2018    9:53:44    42.26         15.99        1.15      101.24                5.70          33.54     1695  34.00765    -118.50015    2018-04-16T16:53:44Z    
4/16/2018    9:53:44    42.26         15.99        1.07      101.30                5.67          33.54     1696  34.00765    -118.50015    2018-04-16T16:53:44Z    
4/16/2018    9:53:44    42.26         15.99        0.98      101.37                5.71          33.54     1697  34.00765    -118.50015    2018-04-16T16:53:44Z    
4/16/2018    9:53:44    42.26         15.99        0.92      101.43                5.69          33.54     1698  34.00765    -118.50015    2018-04-16T16:53:44Z    
4/16/2018    9:53:45    42.26         15.98        0.87      101.47                5.95          33.55     1699  34.00765    -118.50015    2018-04-16T16:53:45Z    
4/16/2018    9:53:45    42.26         15.98        0.84      101.55                5.97          33.55     1700  34.00765    -118.50015    2018-04-16T16:53:45Z    
4/16/2018    9:53:45    42.26         15.97        0.84      101.59                5.86          33.56     1701  34.00765    -118.50015    2018-04-16T16:53:45Z    
4/16/2018    9:53:45    42.26         15.96        0.84      101.58                5.73          33.56     1702  34.00765    -118.50015    2018-04-16T16:53:45Z    
4/16/2018    9:53:45    42.25         15.95        0.85      101.59                5.64          33.57     1703  34.00765    -118.50015    2018-04-16T16:53:45Z    
4/16/2018    9:53:45    42.25         15.93        0.89      101.61                5.71          33.59     1704  34.00765    -118.50015    2018-04-16T16:53:45Z    
4/16/2018    9:53:46    42.25         15.92        0.92      101.58                5.76          33.60     1705  34.00765    -118.50015    2018-04-16T16:53:46Z    
4/16/2018    9:53:46    42.26         15.95        0.98      101.48                5.78          33.57     1706  34.00765    -118.50015    2018-04-16T16:53:46Z    
4/16/2018    9:53:46    42.27         15.96        1.04      101.41                6.07          33.58     1707  34.00765    -118.50015    2018-04-16T16:53:46Z    
4/16/2018    9:53:46    42.28         15.96        1.08      101.41                6.13          33.58     1708  34.00765    -118.50015    2018-04-16T16:53:46Z    
4/16/2018    9:53:46    42.28         15.98        1.11      101.38                6.02          33.57     1709  34.00765    -118.50015    2018-04-16T16:53:46Z    
4/16/2018    9:53:46    42.29         15.99        1.15      101.39                5.92          33.57     1710  34.00765    -118.50015    2018-04-16T16:53:46Z    
4/16/2018    9:53:47    42.28         15.99        1.17      101.39                5.85          33.56     1711  34.00765    -118.50015    2018-04-16T16:53:47Z    
4/16/2018    9:53:47    42.28         15.99        1.17      101.38                5.79          33.56     1712  34.00765    -118.50015    2018-04-16T16:53:47Z    
4/16/2018    9:53:47    42.28         16.00        1.17      101.39                5.69          33.55     1713  34.00765    -118.50015    2018-04-16T16:53:47Z    
4/16/2018    9:53:47    42.27         16.00        1.13      101.38                5.63          33.55     1714  34.00765    -118.50015    2018-04-16T16:53:47Z    
4/16/2018    9:53:47    42.27         15.99        1.11      101.44                5.67          33.55     1715  34.00765    -118.50015    2018-04-16T16:53:47Z    
4/16/2018    9:53:47    42.26         15.98        1.08      101.49                5.65          33.55     1716  34.00765    -118.50015    2018-04-16T16:53:47Z    
4/16/2018    9:53:48    42.26         15.98        1.04      101.48                5.65          33.55     1717  34.00765    -118.50015    2018-04-16T16:53:48Z    
4/16/2018    9:53:48    42.26         15.98        1.02      101.49                5.61          33.56     1718  34.00765    -118.50015    2018-04-16T16:53:48Z    
4/16/2018    9:53:48    42.26         15.97        1.01      101.51                5.67          33.56     1719  34.00765    -118.50015    2018-04-16T16:53:48Z    
4/16/2018    9:53:48    42.26         15.96        1.00      101.54                5.77          33.56     1720  34.00765    -118.50015    2018-04-16T16:53:48Z    
4/16/2018    9:53:48    42.26         15.96        1.01      101.53                5.94          33.57     1721  34.00765    -118.50015    2018-04-16T16:53:48Z    
4/16/2018    9:53:48    42.26         15.96        1.04      101.53                5.92          33.57     1722  34.00765    -118.50015    2018-04-16T16:53:48Z    
4/16/2018    9:53:49    42.26         15.96        1.07      101.55                5.87          33.57     1723  34.00765    -118.50015    2018-04-16T16:53:49Z    
4/16/2018    9:53:49    42.26         15.96        1.09      101.60                5.79          33.57     1724  34.00765    -118.50015    2018-04-16T16:53:49Z    
4/16/2018    9:53:49    42.26         15.97        1.11      101.60                5.72          33.57     1725  34.00765    -118.50015    2018-04-16T16:53:49Z    
4/16/2018    9:53:49    42.26         15.97        1.13      101.58                5.70          33.56     1726  34.00765    -118.50015    2018-04-16T16:53:49Z    
4/16/2018    9:53:49    42.26         15.97        1.14      101.61                5.72          33.56     1727  34.00765    -118.50015    2018-04-16T16:53:49Z    
4/16/2018    9:53:49    42.26         15.97        1.14      101.59                5.71          33.56     1728  34.00765    -118.50015    2018-04-16T16:53:49Z    
4/16/2018    9:53:50    42.26         15.97        1.15      101.66                5.70          33.56     1729  34.00765    -118.50015    2018-04-16T16:53:50Z    
4/16/2018    9:53:50    42.25         15.97        1.13      101.63                5.72          33.55     1730  34.00765    -118.50015    2018-04-16T16:53:50Z    
4/16/2018    9:53:50    42.25         15.98        1.10      101.61                5.64          33.55     1731  34.00765    -118.50015    2018-04-16T16:53:50Z    
4/16/2018    9:53:50    42.25         15.97        1.09      101.64                5.60          33.55     1732  34.00765    -118.50015    2018-04-16T16:53:50Z    
4/16/2018    9:53:50    42.25         15.97        1.06      101.63                5.63          33.55     1733  34.00765    -118.50015    2018-04-16T16:53:50Z    
4/16/2018    9:53:50    42.25         15.96        1.04      101.66                5.74          33.56     1734  34.00765    -118.50015    2018-04-16T16:53:50Z    
4/16/2018    9:53:51    42.25         15.96        1.03      101.69                5.78          33.56     1735  34.00765    -118.50015    2018-04-16T16:53:51Z    
4/16/2018    9:53:51    42.25         15.96        1.04      101.65                5.71          33.56     1736  34.00765    -118.50015    2018-04-16T16:53:51Z    
4/16/2018    9:53:51    42.25         15.96        1.05      101.69                5.66          33.56     1737  34.00765    -118.50015    2018-04-16T16:53:51Z    
4/16/2018    9:53:51    42.25         15.96        1.05      101.71                5.56          33.56     1738  34.00765    -118.50015    2018-04-16T16:53:51Z    
4/16/2018    9:53:51    42.25         15.96        1.06      101.66                5.56          33.56     1739  34.00765    -118.50015    2018-04-16T16:53:51Z    
4/16/2018    9:53:51    42.25         15.96        1.05      101.67                5.56          33.56     1740  34.00765    -118.50015    2018-04-16T16:53:51Z    
4/16/2018    9:53:52    42.25         15.96        1.04      101.70                5.55          33.56     1741  34.00765    -118.50015    2018-04-16T16:53:52Z    
4/16/2018    9:53:52    42.25         15.96        1.01      101.72                5.53          33.56     1742  34.00765    -118.50015    2018-04-16T16:53:52Z    
4/16/2018    9:53:52    42.25         15.96        1.00      101.71                5.47          33.56     1743  34.00765    -118.50015    2018-04-16T16:53:52Z    
4/16/2018    9:53:52    42.25         15.97        1.01      101.72                5.44          33.56     1744  34.00765    -118.50015    2018-04-16T16:53:52Z    
4/16/2018    9:53:52    42.26         15.97        1.04      101.72                5.39          33.56     1745  34.00765    -118.50015    2018-04-16T16:53:52Z    
4/16/2018    9:53:52    42.26         15.97        1.08      101.77                5.38          33.56     1746  34.00765    -118.50015    2018-04-16T16:53:52Z    
4/16/2018    9:53:53    42.28         15.98        1.14      101.72                5.33          33.57     1747  34.00765    -118.50015    2018-04-16T16:53:53Z    
4/16/2018    9:53:53    42.28         15.99        1.18      101.82                5.30          33.57     1748  34.00765    -118.50015    2018-04-16T16:53:53Z    
4/16/2018    9:53:53    42.28         15.99        1.23      101.85                5.26          33.56     1749  34.00765    -118.50015    2018-04-16T16:53:53Z    
4/16/2018    9:53:53    42.29         16.00        1.25      101.81                5.27          33.56     1750  34.00765    -118.50015    2018-04-16T16:53:53Z    
4/16/2018    9:53:53    42.29         16.00        1.29      101.83                5.35          33.56     1751  34.00765    -118.50015    2018-04-16T16:53:53Z    
4/16/2018    9:53:53    42.29         16.00        1.30      101.83                5.43          33.56     1752  34.00765    -118.50015    2018-04-16T16:53:53Z    
4/16/2018    9:53:54    42.29         16.00        1.31      101.89                5.54          33.56     1753  34.00765    -118.50015    2018-04-16T16:53:54Z    
4/16/2018    9:53:54    42.28         16.00        1.30      101.97                5.81          33.56     1754  34.00765    -118.50015    2018-04-16T16:53:54Z    
4/16/2018    9:53:54    42.28         16.00        1.29      101.90                5.94          33.55     1755  34.00765    -118.50015    2018-04-16T16:53:54Z    
4/16/2018    9:53:54    42.27         16.00        1.27      101.99                5.92          33.54     1756  34.00765    -118.50015    2018-04-16T16:53:54Z    
4/16/2018    9:53:54    42.27         16.00        1.24      102.03                5.88          33.55     1757  34.00765    -118.50015    2018-04-16T16:53:54Z    
4/16/2018    9:53:54    42.28         16.00        1.21      102.08                5.88          33.55     1758  34.00765    -118.50015    2018-04-16T16:53:54Z    
4/16/2018    9:53:55    42.28         16.00        1.18      102.12                5.91          33.55     1759  34.00765    -118.50015    2018-04-16T16:53:55Z    
4/16/2018    9:53:55    42.28         16.00        1.14      102.13                5.87          33.55     1760  34.00765    -118.50015    2018-04-16T16:53:55Z    
4/16/2018    9:53:55    42.28         16.00        1.13      102.19                5.84          33.55     1761  34.00765    -118.50015    2018-04-16T16:53:55Z    
4/16/2018    9:53:55    42.28         15.99        1.11      102.23                5.79          33.55     1762  34.00765    -118.50015    2018-04-16T16:53:55Z    
4/16/2018    9:53:55    42.27         15.99        1.10      102.27                5.88          33.56     1763  34.00765    -118.50015    2018-04-16T16:53:55Z    
4/16/2018    9:53:55    42.27         15.99        1.09      102.31                5.89          33.56     1764  34.00765    -118.50015    2018-04-16T16:53:55Z    
4/16/2018    9:53:56    42.27         15.99        1.09      102.34                5.79          33.56     1765  34.00765    -118.50015    2018-04-16T16:53:56Z    
4/16/2018    9:53:56    42.27         15.99        1.09      102.31                5.65          33.56     1766  34.00765    -118.50015    2018-04-16T16:53:56Z    
4/16/2018    9:53:56    42.27         15.99        1.08      102.37                5.58          33.55     1767  34.00765    -118.50015    2018-04-16T16:53:56Z    
4/16/2018    9:53:56    42.27         16.00        1.09      102.33                5.62          33.55     1768  34.00765    -118.50015    2018-04-16T16:53:56Z    
4/16/2018    9:53:56    42.27         15.99        1.08      102.30                5.61          33.56     1769  34.00765    -118.50015    2018-04-16T16:53:56Z    
4/16/2018    9:53:56    42.28         15.99        1.10      102.29                5.55          33.56     1770  34.00765    -118.50015    2018-04-16T16:53:56Z    
4/16/2018    9:53:57    42.28         16.00        1.11      102.32                5.45          33.55     1771  34.00765    -118.50015    2018-04-16T16:53:57Z    
4/16/2018    9:53:57    42.28         16.00        1.14      102.29                5.39          33.55     1772  34.00765    -118.50015    2018-04-16T16:53:57Z    
4/16/2018    9:53:57    42.28         16.00        1.18      102.26                5.42          33.55     1773  34.00765    -118.50015    2018-04-16T16:53:57Z    
4/16/2018    9:53:57    42.29         16.00        1.21      102.29                5.38          33.56     1774  34.00765    -118.50015    2018-04-16T16:53:57Z    
4/16/2018    9:53:57    42.29         16.00        1.25      102.26                5.39          33.56     1775  34.00765    -118.50015    2018-04-16T16:53:57Z    
4/16/2018    9:53:57    42.29         16.00        1.28      102.29                5.41          33.56     1776  34.00765    -118.50015    2018-04-16T16:53:57Z    
4/16/2018    9:53:58    42.29         16.01        1.31      102.24                5.45          33.56     1777  34.00765    -118.50015    2018-04-16T16:53:58Z    
4/16/2018    9:53:58    42.29         16.01        1.33      102.23                5.60          33.56     1778  34.00765    -118.50015    2018-04-16T16:53:58Z    
4/16/2018    9:53:58    42.25         16.01        1.37      102.25                5.66          33.52     1779  34.00765    -118.50015    2018-04-16T16:53:58Z    
4/16/2018    9:53:58    42.24         16.02        1.36      102.23                5.68          33.50     1780  34.00765    -118.50015    2018-04-16T16:53:58Z    
4/16/2018    9:53:58    42.25         16.01        1.36      102.24                5.74          33.52     1781  34.00765    -118.50015    2018-04-16T16:53:58Z    
4/16/2018    9:53:58    42.27         16.00        1.34      102.29                5.74          33.55     1782  34.00765    -118.50015    2018-04-16T16:53:58Z    
4/16/2018    9:53:59    42.28         16.00        1.31      102.27                5.75          33.56     1783  34.00765    -118.50015    2018-04-16T16:53:59Z    
4/16/2018    9:53:59    42.28         16.01        1.28      102.34                5.67          33.55     1784  34.00765    -118.50015    2018-04-16T16:53:59Z    
4/16/2018    9:53:59    42.27         16.00        1.24      102.22                5.56          33.55     1785  34.00765    -118.50015    2018-04-16T16:53:59Z    
4/16/2018    9:53:59    42.27         16.00        1.18      102.36                5.60          33.55     1786  34.00765    -118.50015    2018-04-16T16:53:59Z    
4/16/2018    9:53:59    42.28         16.00        1.12      102.33                5.59          33.55     1787  34.00765    -118.50015    2018-04-16T16:53:59Z    
4/16/2018    9:53:59    42.28         16.00        1.08      102.34                5.62          33.55     1788  34.00765    -118.50015    2018-04-16T16:53:59Z    
4/16/2018    9:54:00    42.28         16.00        1.04      102.37                5.69          33.55     1789  34.00765    -118.50015    2018-04-16T16:54:00Z    
4/16/2018    9:54:00    42.27         16.00        0.99      102.37                5.75          33.55     1790  34.00765    -118.50015    2018-04-16T16:54:00Z    
4/16/2018    9:54:00    42.27         16.00        0.96      102.34                5.67          33.55     1791  34.00765    -118.50015    2018-04-16T16:54:00Z    
4/16/2018    9:54:00    42.27         16.00        0.95      102.38                5.65          33.55     1792  34.00765    -118.50015    2018-04-16T16:54:00Z    
4/16/2018    9:54:00    42.27         15.99        0.95      102.47                5.62          33.56     1793  34.00765    -118.50015    2018-04-16T16:54:00Z    
4/16/2018    9:54:00    42.27         15.99        0.95      102.47                5.60          33.56     1794  34.00765    -118.50015    2018-04-16T16:54:00Z    
4/16/2018    9:54:01    42.27         15.98        0.94      102.42                5.53          33.57     1795  34.00765    -118.50015    2018-04-16T16:54:01Z    
4/16/2018    9:54:01    42.27         15.96        0.97      102.50                5.47          33.57     1796  34.00765    -118.50015    2018-04-16T16:54:01Z    
4/16/2018    9:54:01    42.26         15.96        0.99      102.48                5.44          33.57     1797  34.00765    -118.50015    2018-04-16T16:54:01Z    
4/16/2018    9:54:01    42.26         15.97        1.02      102.46                5.44          33.56     1798  34.00765    -118.50015    2018-04-16T16:54:01Z    
4/16/2018    9:54:01    42.26         15.97        1.02      102.46                5.44          33.56     1799  34.00765    -118.50015    2018-04-16T16:54:01Z    
4/16/2018    9:54:01    42.27         15.98        1.10      102.36                5.69          33.56     1800  34.00765    -118.50015    2018-04-16T16:54:01Z    
4/16/2018    9:54:02    42.27         15.98        1.13      102.40                5.76          33.56     1801  34.00765    -118.50015    2018-04-16T16:54:02Z    
4/16/2018    9:54:02    42.28         15.98        1.17      102.43                5.78          33.57     1802  34.00765    -118.50015    2018-04-16T16:54:02Z    
4/16/2018    9:54:02    42.28         15.98        1.22      102.41                5.79          33.57     1803  34.00765    -118.50015    2018-04-16T16:54:02Z    
4/16/2018    9:54:02    42.29         15.99        1.25      102.33                5.76          33.58     1804  34.00765    -118.50015    2018-04-16T16:54:02Z    
4/16/2018    9:54:02    42.29         15.99        1.29      102.37                5.74          33.57     1805  34.00765    -118.50015    2018-04-16T16:54:02Z    
4/16/2018    9:54:02    42.29         15.99        1.32      102.46                5.78          33.57     1806  34.00765    -118.50015    2018-04-16T16:54:02Z    
4/16/2018    9:54:03    42.29         16.00        1.34      102.44                5.95          33.57     1807  34.00765    -118.50015    2018-04-16T16:54:03Z    
4/16/2018    9:54:03    42.29         16.00        1.35      102.42                5.94          33.56     1808  34.00765    -118.50015    2018-04-16T16:54:03Z    
4/16/2018    9:54:03    42.28         16.00        1.35      102.41                6.06          33.56     1809  34.00765    -118.50015    2018-04-16T16:54:03Z    
4/16/2018    9:54:03    42.29         16.00        1.34      102.49                6.22          33.56     1810  34.00765    -118.50015    2018-04-16T16:54:03Z    
4/16/2018    9:54:03    42.29         16.00        1.31      102.50                6.22          33.56     1811  34.00765    -118.50015    2018-04-16T16:54:03Z    
4/16/2018    9:54:03    42.29         16.00        1.29      102.45                6.11          33.56     1812  34.00765    -118.50015    2018-04-16T16:54:03Z    
4/16/2018    9:54:04    42.29         16.00        1.25      102.45                5.94          33.56     1813  34.00765    -118.50015    2018-04-16T16:54:04Z    
4/16/2018    9:54:04    42.28         16.01        1.21      102.45                5.84          33.54     1814  34.00765    -118.50015    2018-04-16T16:54:04Z    
4/16/2018    9:54:04    42.27         16.00        1.15      102.50                5.82          33.54     1815  34.00765    -118.50015    2018-04-16T16:54:04Z    
4/16/2018    9:54:04    42.27         16.00        1.09      102.52                5.79          33.55     1816  34.00765    -118.50015    2018-04-16T16:54:04Z    
4/16/2018    9:54:04    42.27         16.00        1.01      102.52                5.89          33.55     1817  34.00765    -118.50015    2018-04-16T16:54:04Z    
4/16/2018    9:54:04    42.27         16.00        0.93      102.49                5.92          33.55     1818  34.00765    -118.50015    2018-04-16T16:54:04Z    
4/16/2018    9:54:05    42.27         16.00        0.87      102.55                5.85          33.55     1819  34.00765    -118.50015    2018-04-16T16:54:05Z    
4/16/2018    9:54:05    42.27         15.99        0.82      102.52                5.75          33.55     1820  34.00765    -118.50015    2018-04-16T16:54:05Z    
4/16/2018    9:54:05    42.27         15.99        0.80      102.48                5.57          33.55     1821  34.00765    -118.50015    2018-04-16T16:54:05Z    
4/16/2018    9:54:05    42.27         15.99        0.79      102.56                5.43          33.56     1822  34.00765    -118.50015    2018-04-16T16:54:05Z    
4/16/2018    9:54:05    42.27         15.98        0.80      102.49                5.46          33.56     1823  34.00765    -118.50015    2018-04-16T16:54:05Z    
4/16/2018    9:54:05    42.27         15.99        0.81      102.47                5.49          33.55     1824  34.00765    -118.50015    2018-04-16T16:54:05Z    
4/16/2018    9:54:06    42.26         15.98        0.81      102.40                5.42          33.56     1825  34.00765    -118.50015    2018-04-16T16:54:06Z    
4/16/2018    9:54:06    42.26         15.97        0.83      102.43                5.41          33.56     1826  34.00765    -118.50015    2018-04-16T16:54:06Z    
4/16/2018    9:54:06    42.26         15.96        0.81      102.36                5.39          33.57     1827  34.00765    -118.50015    2018-04-16T16:54:06Z    
4/16/2018    9:54:06    42.26         15.96        0.80      102.28                5.40          33.57     1828  34.00765    -118.50015    2018-04-16T16:54:06Z    
4/16/2018    9:54:06    42.25         15.96        0.79      102.21                5.39          33.57     1829  34.00765    -118.50015    2018-04-16T16:54:06Z    
4/16/2018    9:54:06    42.25         15.95        0.80      102.07                5.40          33.57     1830  34.00765    -118.50015    2018-04-16T16:54:06Z    
4/16/2018    9:54:07    42.25         15.95        0.83      102.00                5.37          33.57     1831  34.00765    -118.50015    2018-04-16T16:54:07Z    
4/16/2018    9:54:07    42.25         15.95        0.85      101.92                5.36          33.57     1832  34.00765    -118.50015    2018-04-16T16:54:07Z    
4/16/2018    9:54:07    42.25         15.96        0.87      101.85                5.32          33.56     1833  34.00765    -118.50015    2018-04-16T16:54:07Z    
4/16/2018    9:54:07    42.25         15.96        0.90      101.76                5.30          33.56     1834  34.00765    -118.50015    2018-04-16T16:54:07Z    
4/16/2018    9:54:07    42.26         15.96        0.95      101.63                5.34          33.57     1835  34.00765    -118.50015    2018-04-16T16:54:07Z    
4/16/2018    9:54:07    42.27         15.96        0.99      101.54                5.38          33.58     1836  34.00765    -118.50015    2018-04-16T16:54:07Z    
4/16/2018    9:54:08    42.28         15.96        1.03      101.53                5.35          33.59     1837  34.00765    -118.50015    2018-04-16T16:54:08Z    
4/16/2018    9:54:08    42.28         15.97        1.09      101.53                5.35          33.58     1838  34.00765    -118.50015    2018-04-16T16:54:08Z    
4/16/2018    9:54:08    42.27         15.98        1.14      101.42                5.43          33.56     1839  34.00765    -118.50015    2018-04-16T16:54:08Z    
4/16/2018    9:54:08    42.27         15.99        1.18      101.44                5.52          33.55     1840  34.00765    -118.50015    2018-04-16T16:54:08Z    
4/16/2018    9:54:08    42.27         15.99        1.20      101.47                5.60          33.55     1841  34.00765    -118.50015    2018-04-16T16:54:08Z    
4/16/2018    9:54:08    42.27         15.99        1.22      101.56                5.62          33.55     1842  34.00765    -118.50015    2018-04-16T16:54:08Z    
4/16/2018    9:54:09    42.27         15.99        1.20      101.61                5.65          33.55     1843  34.00765    -118.50015    2018-04-16T16:54:09Z    
4/16/2018    9:54:09    42.27         15.99        1.19      101.64                5.63          33.55     1844  34.00765    -118.50015    2018-04-16T16:54:09Z    
4/16/2018    9:54:09    42.27         15.99        1.15      101.71                5.65          33.55     1845  34.00765    -118.50015    2018-04-16T16:54:09Z    
4/16/2018    9:54:09    42.27         15.99        1.10      101.78                5.64          33.55     1846  34.00765    -118.50015    2018-04-16T16:54:09Z    
4/16/2018    9:54:09    42.27         15.98        1.06      101.81                5.64          33.55     1847  34.00765    -118.50015    2018-04-16T16:54:09Z    
4/16/2018    9:54:09    42.26         15.98        0.99      101.87                5.71          33.56     1848  34.00765    -118.50015    2018-04-16T16:54:09Z    
4/16/2018    9:54:10    42.26         15.98        0.95      101.91                5.99          33.56     1849  34.00765    -118.50015    2018-04-16T16:54:10Z    
4/16/2018    9:54:10    42.26         15.98        0.91      101.89                6.12          33.55     1850  34.00765    -118.50015    2018-04-16T16:54:10Z    
4/16/2018    9:54:10    42.26         15.97        0.88      101.96                6.19          33.56     1851  34.00765    -118.50015    2018-04-16T16:54:10Z    
4/16/2018    9:54:10    42.26         15.96        0.85      101.96                6.23          33.57     1852  34.00765    -118.50015    2018-04-16T16:54:10Z    
4/16/2018    9:54:10    42.25         15.96        0.84      101.96                6.10          33.56     1853  34.00765    -118.50015    2018-04-16T16:54:10Z    
4/16/2018    9:54:10    42.25         15.96        0.83      101.97                6.01          33.56     1854  34.00765    -118.50015    2018-04-16T16:54:10Z    
4/16/2018    9:54:11    42.25         15.96        0.84      101.93                5.96          33.56     1855  34.00765    -118.50015    2018-04-16T16:54:11Z    
4/16/2018    9:54:11    42.25         15.96        0.88      102.00                6.16          33.56     1856  34.00765    -118.50015    2018-04-16T16:54:11Z    
4/16/2018    9:54:11    42.23         15.96        0.92      101.87                6.11          33.55     1857  34.00765    -118.50015    2018-04-16T16:54:11Z    
4/16/2018    9:54:11    42.24         15.97        1.01      101.89                5.93          33.55     1858  34.00765    -118.50015    2018-04-16T16:54:11Z    
4/16/2018    9:54:11    42.24         15.96        1.10      101.82                5.84          33.55     1859  34.00765    -118.50015    2018-04-16T16:54:11Z    
4/16/2018    9:54:11    42.25         15.96        1.18      101.86                5.71          33.56     1860  34.00765    -118.50015    2018-04-16T16:54:11Z    
4/16/2018    9:54:12    42.25         15.96        1.25      101.76                5.66          33.56     1861  34.00765    -118.50015    2018-04-16T16:54:12Z    
4/16/2018    9:54:12    42.25         15.96        1.32      101.72                5.71          33.56     1862  34.00765    -118.50015    2018-04-16T16:54:12Z    
4/16/2018    9:54:12    42.25         15.96        1.36      101.62                5.75          33.56     1863  34.00765    -118.50015    2018-04-16T16:54:12Z    
4/16/2018    9:54:12    42.24         15.97        1.37      101.58                5.79          33.55     1864  34.00765    -118.50015    2018-04-16T16:54:12Z    
4/16/2018    9:54:12    42.24         15.97        1.38      101.48                5.78          33.55     1865  34.00765    -118.50015    2018-04-16T16:54:12Z    
4/16/2018    9:54:12    42.25         15.97        1.37      101.48                5.75          33.55     1866  34.00765    -118.50015    2018-04-16T16:54:12Z    
4/16/2018    9:54:13    42.25         15.97        1.35      101.52                5.62          33.55     1867  34.00765    -118.50015    2018-04-16T16:54:13Z    
4/16/2018    9:54:13    42.25         15.97        1.31      101.46                5.51          33.55     1868  34.00765    -118.50015    2018-04-16T16:54:13Z    
4/16/2018    9:54:13    42.25         15.97        1.27      101.46                5.45          33.55     1869  34.00765    -118.50015    2018-04-16T16:54:13Z    
4/16/2018    9:54:13    42.25         15.97        1.21      101.51                5.40          33.55     1870  34.00765    -118.50015    2018-04-16T16:54:13Z    
4/16/2018    9:54:13    42.25         15.97        1.17      101.48                5.36          33.55     1871  34.00765    -118.50015    2018-04-16T16:54:13Z    
4/16/2018    9:54:13    42.25         15.96        1.13      101.44                5.32          33.55     1872  34.00765    -118.50015    2018-04-16T16:54:13Z    
4/16/2018    9:54:14    42.25         15.95        1.11      101.46                5.33          33.57     1873  34.00765    -118.50015    2018-04-16T16:54:14Z    
4/16/2018    9:54:14    42.25         15.94        1.11      101.52                5.32          33.57     1874  34.00765    -118.50015    2018-04-16T16:54:14Z    
4/16/2018    9:54:14    42.25         15.95        1.11      101.43                5.29          33.57     1875  34.00765    -118.50015    2018-04-16T16:54:14Z    
4/16/2018    9:54:14    42.25         15.98        1.12      101.39                5.25          33.54     1876  34.00765    -118.50015    2018-04-16T16:54:14Z    
4/16/2018    9:54:14    42.26         16.00        1.13      101.28                5.23          33.54     1877  34.00765    -118.50015    2018-04-16T16:54:14Z    
4/16/2018    9:54:14    42.26         15.96        1.12      101.29                5.24          33.57     1878  34.00765    -118.50015    2018-04-16T16:54:14Z    
4/16/2018    9:54:15    42.26         15.97        1.11      101.14                5.18          33.56     1879  34.00765    -118.50015    2018-04-16T16:54:15Z    
4/16/2018    9:54:15    42.26         15.97        1.10      101.12                5.17          33.56     1880  34.00765    -118.50015    2018-04-16T16:54:15Z    
4/16/2018    9:54:15    42.26         15.97        1.09      101.05                5.16          33.56     1881  34.00765    -118.50015    2018-04-16T16:54:15Z    
4/16/2018    9:54:15    42.26         15.96        1.10      101.03                5.21          33.57     1882  34.00765    -118.50015    2018-04-16T16:54:15Z    
4/16/2018    9:54:15    42.26         15.95        1.09      100.96                5.20          33.58     1883  34.00765    -118.50015    2018-04-16T16:54:15Z    
4/16/2018    9:54:15    42.25         15.95        1.11      100.97                5.21          33.57     1884  34.00765    -118.50015    2018-04-16T16:54:15Z    
4/16/2018    9:54:16    42.25         15.96        1.10      100.98                5.25          33.56     1885  34.00765    -118.50015    2018-04-16T16:54:16Z    
4/16/2018    9:54:16    42.24         15.97        1.09      100.94                5.28          33.55     1886  34.00765    -118.50015    2018-04-16T16:54:16Z    
4/16/2018    9:54:16    42.24         15.96        1.08      100.97                5.35          33.56     1887  34.00765    -118.50015    2018-04-16T16:54:16Z    
4/16/2018    9:54:16    42.25         15.95        1.06      100.92                5.39          33.57     1888  34.00765    -118.50015    2018-04-16T16:54:16Z    
4/16/2018    9:54:16    42.25         15.95        1.03      100.97                5.38          33.57     1889  34.00765    -118.50015    2018-04-16T16:54:16Z    
4/16/2018    9:54:16    42.25         15.94        0.99      100.96                5.40          33.57     1890  34.00765    -118.50015    2018-04-16T16:54:16Z    
4/16/2018    9:54:17    42.24         15.94        0.97      100.93                5.48          33.57     1891  34.00765    -118.50015    2018-04-16T16:54:17Z    
4/16/2018    9:54:17    42.24         15.95        0.95      101.01                5.56          33.56     1892  34.00765    -118.50015    2018-04-16T16:54:17Z    
4/16/2018    9:54:17    42.24         15.95        0.92      100.97                5.57          33.56     1893  34.00765    -118.50015    2018-04-16T16:54:17Z    
4/16/2018    9:54:17    42.23         15.95        0.93      100.92                5.60          33.56     1894  34.00765    -118.50015    2018-04-16T16:54:17Z    
4/16/2018    9:54:17    42.23         15.95        0.94      100.90                5.56          33.56     1895  34.00765    -118.50015    2018-04-16T16:54:17Z    
4/16/2018    9:54:17    42.23         15.94        0.96      100.92                5.51          33.56     1896  34.00765    -118.50015    2018-04-16T16:54:17Z    
4/16/2018    9:54:18    42.22         15.95        1.00      100.90                5.52          33.55     1897  34.00765    -118.50015    2018-04-16T16:54:18Z    
4/16/2018    9:54:18    42.23         15.96        1.04      100.87                5.53          33.54     1898  34.00765    -118.50015    2018-04-16T16:54:18Z    
4/16/2018    9:54:18    42.23         15.95        1.09      100.85                5.55          33.55     1899  34.00765    -118.50015    2018-04-16T16:54:18Z    
4/16/2018    9:54:18    42.25         15.95        1.14      100.84                5.61          33.56     1900  34.00765    -118.50015    2018-04-16T16:54:18Z    
4/16/2018    9:54:18    42.25         15.95        1.18      100.86                5.60          33.57     1901  34.00765    -118.50015    2018-04-16T16:54:18Z    
4/16/2018    9:54:18    42.26         15.95        1.23      100.83                5.52          33.58     1902  34.00765    -118.50015    2018-04-16T16:54:18Z    
4/16/2018    9:54:19    42.27         15.96        1.28      100.88                5.45          33.58     1903  34.00765    -118.50015    2018-04-16T16:54:19Z    
4/16/2018    9:54:19    42.27         15.97        1.32      100.83                5.52          33.57     1904  34.00765    -118.50015    2018-04-16T16:54:19Z    
4/16/2018    9:54:19    42.27         15.97        1.35      100.85                5.56          33.57     1905  34.00765    -118.50015    2018-04-16T16:54:19Z    
4/16/2018    9:54:19    42.27         15.98        1.37      100.91                5.58          33.56     1906  34.00765    -118.50015    2018-04-16T16:54:19Z    
4/16/2018    9:54:19    42.27         15.99        1.37      100.94                5.71          33.56     1907  34.00765    -118.50015    2018-04-16T16:54:19Z    
4/16/2018    9:54:19    42.26         15.99        1.37      100.96                5.79          33.54     1908  34.00765    -118.50015    2018-04-16T16:54:19Z    
4/16/2018    9:54:20    42.26         15.99        1.34      100.96                5.81          33.54     1909  34.00765    -118.50015    2018-04-16T16:54:20Z    
4/16/2018    9:54:20    42.27         16.00        1.30      101.05                5.80          33.55     1910  34.00765    -118.50015    2018-04-16T16:54:20Z    
4/16/2018    9:54:20    42.27         15.98        1.28      101.03                5.73          33.56     1911  34.00765    -118.50015    2018-04-16T16:54:20Z    
4/16/2018    9:54:20    42.26         15.98        1.24      101.12                5.69          33.56     1912  34.00765    -118.50015    2018-04-16T16:54:20Z    
4/16/2018    9:54:20    42.26         15.98        1.19      101.24                5.70          33.55     1913  34.00765    -118.50015    2018-04-16T16:54:20Z    
4/16/2018    9:54:20    42.25         15.98        1.14      101.26                5.76          33.55     1914  34.00765    -118.50015    2018-04-16T16:54:20Z    
4/16/2018    9:54:21    42.25         15.97        1.09      101.35                5.99          33.55     1915  34.00765    -118.50015    2018-04-16T16:54:21Z    
4/16/2018    9:54:21    42.25         15.97        1.05      101.36                6.07          33.55     1916  34.00765    -118.50015    2018-04-16T16:54:21Z    
4/16/2018    9:54:21    42.25         15.97        1.01      101.35                5.99          33.55     1917  34.00765    -118.50015    2018-04-16T16:54:21Z    
4/16/2018    9:54:21    42.24         15.97        0.98      101.38                5.87          33.55     1918  34.00765    -118.50015    2018-04-16T16:54:21Z    
4/16/2018    9:54:21    42.25         15.97        0.96      101.40                5.91          33.55     1919  34.00765    -118.50015    2018-04-16T16:54:21Z    
4/16/2018    9:54:21    42.24         15.97        0.95      101.38                6.05          33.55     1920  34.00765    -118.50015    2018-04-16T16:54:21Z    
4/16/2018    9:54:22    42.24         15.96        0.95      101.42                6.01          33.55     1921  34.00765    -118.50015    2018-04-16T16:54:22Z    
4/16/2018    9:54:22    42.23         15.96        0.96      101.38                6.05          33.55     1922  34.00765    -118.50015    2018-04-16T16:54:22Z    
4/16/2018    9:54:22    42.23         15.95        0.97      101.32                6.09          33.55     1923  34.00765    -118.50015    2018-04-16T16:54:22Z    
4/16/2018    9:54:22    42.23         15.95        1.00      101.39                6.26          33.56     1924  34.00765    -118.50015    2018-04-16T16:54:22Z    
4/16/2018    9:54:22    42.24         15.95        1.05      101.35                6.17          33.56     1925  34.00765    -118.50015    2018-04-16T16:54:22Z    
4/16/2018    9:54:22    42.24         15.95        1.07      101.35                6.04          33.57     1926  34.00765    -118.50015    2018-04-16T16:54:22Z    
4/16/2018    9:54:23    42.25         15.94        1.11      101.27                5.91          33.58     1927  34.00765    -118.50015    2018-04-16T16:54:23Z    
4/16/2018    9:54:23    42.24         15.94        1.13      101.20                5.78          33.57     1928  34.00765    -118.50015    2018-04-16T16:54:23Z    
4/16/2018    9:54:23    42.24         15.95        1.14      101.17                5.65          33.56     1929  34.00765    -118.50015    2018-04-16T16:54:23Z    
4/16/2018    9:54:23    42.24         15.95        1.14      101.14                5.55          33.55     1930  34.00765    -118.50015    2018-04-16T16:54:23Z    
4/16/2018    9:54:23    42.24         15.95        1.13      101.08                5.53          33.56     1931  34.00765    -118.50015    2018-04-16T16:54:23Z    
4/16/2018    9:54:23    42.24         15.94        1.13      101.10                5.48          33.56     1932  34.00765    -118.50015    2018-04-16T16:54:23Z    
4/16/2018    9:54:24    42.24         15.94        1.10      101.10                5.48          33.56     1933  34.00765    -118.50015    2018-04-16T16:54:24Z    
4/16/2018    9:54:24    42.23         15.93        1.08      101.10                5.53          33.57     1934  34.00765    -118.50015    2018-04-16T16:54:24Z    
4/16/2018    9:54:24    42.23         15.92        1.07      101.07                5.53          33.58     1935  34.00765    -118.50015    2018-04-16T16:54:24Z    
4/16/2018    9:54:24    42.23         15.92        1.08      101.04                5.60          33.58     1936  34.00765    -118.50015    2018-04-16T16:54:24Z    
4/16/2018    9:54:24    42.23         15.92        1.07      100.98                5.86          33.57     1937  34.00765    -118.50015    2018-04-16T16:54:24Z    
4/16/2018    9:54:24    42.22         15.92        1.08      100.97                5.95          33.57     1938  34.00765    -118.50015    2018-04-16T16:54:24Z    
4/16/2018    9:54:25    42.22         15.92        1.07      100.98                5.88          33.57     1939  34.00765    -118.50015    2018-04-16T16:54:25Z    
4/16/2018    9:54:25    42.22         15.92        1.08      100.97                5.73          33.57     1940  34.00765    -118.50015    2018-04-16T16:54:25Z    
4/16/2018    9:54:25    42.22         15.93        1.07      100.89                5.60          33.57     1941  34.00765    -118.50015    2018-04-16T16:54:25Z    
4/16/2018    9:54:25    42.22         15.92        1.07      100.91                5.69          33.57     1942  34.00765    -118.50015    2018-04-16T16:54:25Z    
4/16/2018    9:54:25    42.22         15.92        1.06      100.88                5.79          33.57     1943  34.00765    -118.50015    2018-04-16T16:54:25Z    
4/16/2018    9:54:25    42.22         15.92        1.05      100.88                5.72          33.57     1944  34.00765    -118.50015    2018-04-16T16:54:25Z    
4/16/2018    9:54:26    42.21         15.92        1.06      100.82                5.62          33.56     1945  34.00765    -118.50015    2018-04-16T16:54:26Z    
4/16/2018    9:54:26    42.21         15.92        1.06      100.79                5.50          33.56     1946  34.00765    -118.50015    2018-04-16T16:54:26Z    
4/16/2018    9:54:26    42.21         15.92        1.06      100.77                5.42          33.56     1947  34.00765    -118.50015    2018-04-16T16:54:26Z    
4/16/2018    9:54:26    42.21         15.91        1.06      100.73                5.36          33.56     1948  34.00765    -118.50015    2018-04-16T16:54:26Z    
4/16/2018    9:54:26    42.20         15.90        1.05      100.74                5.25          33.57     1949  34.00765    -118.50015    2018-04-16T16:54:26Z    
4/16/2018    9:54:26    42.19         15.89        1.03      100.75                5.21          33.57     1950  34.00765    -118.50015    2018-04-16T16:54:26Z    
4/16/2018    9:54:27    42.18         15.90        1.00      100.65                5.15          33.55     1951  34.00765    -118.50015    2018-04-16T16:54:27Z    
4/16/2018    9:54:27    42.18         15.90        0.96      100.60                5.09          33.55     1952  34.00765    -118.50015    2018-04-16T16:54:27Z    
4/16/2018    9:54:27    42.18         15.90        0.91      100.58                5.12          33.55     1953  34.00765    -118.50015    2018-04-16T16:54:27Z    
4/16/2018    9:54:27    42.18         15.90        0.88      100.54                5.16          33.56     1954  34.00765    -118.50015    2018-04-16T16:54:27Z    
4/16/2018    9:54:27    42.18         15.89        0.86      100.44                5.15          33.56     1955  34.00765    -118.50015    2018-04-16T16:54:27Z    
4/16/2018    9:54:27    42.18         15.89        0.85      100.40                5.14          33.56     1956  34.00765    -118.50015    2018-04-16T16:54:27Z    
4/16/2018    9:54:28    42.17         15.88        0.85      100.36                5.15          33.55     1957  34.00765    -118.50015    2018-04-16T16:54:28Z    
4/16/2018    9:54:28    42.17         15.88        0.89      100.35                5.17          33.56     1958  34.00765    -118.50015    2018-04-16T16:54:28Z    
4/16/2018    9:54:28    42.17         15.88        0.93      100.29                5.20          33.56     1959  34.00765    -118.50015    2018-04-16T16:54:28Z    
4/16/2018    9:54:28    42.16         15.88        0.97      100.22                5.23          33.55     1960  34.00765    -118.50015    2018-04-16T16:54:28Z    
4/16/2018    9:54:28    42.16         15.88        1.01      100.16                5.27          33.55     1961  34.00765    -118.50015    2018-04-16T16:54:28Z    
4/16/2018    9:54:28    42.17         15.88        1.04      100.12                5.34          33.56     1962  34.00765    -118.50015    2018-04-16T16:54:28Z    
4/16/2018    9:54:29    42.17         15.87        1.08      100.03                5.29          33.56     1963  34.00765    -118.50015    2018-04-16T16:54:29Z    
4/16/2018    9:54:29    42.17         15.88        1.11      99.99                 5.36          33.56     1964  34.00765    -118.50015    2018-04-16T16:54:29Z    
4/16/2018    9:54:29    42.18         15.88        1.15      99.95                 5.55          33.57     1965  34.00765    -118.50015    2018-04-16T16:54:29Z    
4/16/2018    9:54:29    42.23         15.88        1.19      99.94                 5.50          33.61     1966  34.00765    -118.50015    2018-04-16T16:54:29Z    
4/16/2018    9:54:29    42.24         15.92        1.21      99.85                 5.54          33.59     1967  34.00765    -118.50015    2018-04-16T16:54:29Z    
4/16/2018    9:54:29    42.24         15.92        1.23      99.84                 5.63          33.59     1968  34.00765    -118.50015    2018-04-16T16:54:29Z    
4/16/2018    9:54:30    42.24         15.93        1.24      99.82                 5.69          33.58     1969  34.00765    -118.50015    2018-04-16T16:54:30Z    
4/16/2018    9:54:30    42.23         15.96        1.25      99.81                 5.92          33.55     1970  34.00765    -118.50015    2018-04-16T16:54:30Z    
4/16/2018    9:54:30    42.23         15.97        1.25      99.86                 6.23          33.53     1971  34.00765    -118.50015    2018-04-16T16:54:30Z    
4/16/2018    9:54:30    42.23         15.98        1.24      99.84                 6.34          33.53     1972  34.00765    -118.50015    2018-04-16T16:54:30Z    
4/16/2018    9:54:30    42.23         15.98        1.22      99.85                 6.28          33.53     1973  34.00765    -118.50015    2018-04-16T16:54:30Z    
4/16/2018    9:54:30    42.24         15.99        1.20      99.87                 6.20          33.53     1974  34.00765    -118.50015    2018-04-16T16:54:30Z    
4/16/2018    9:54:31    42.24         15.96        1.21      99.94                 6.17          33.55     1975  34.00765    -118.50015    2018-04-16T16:54:31Z    
4/16/2018    9:54:31    42.24         15.94        1.22      100.03                6.13          33.57     1976  34.00765    -118.50015    2018-04-16T16:54:31Z    
4/16/2018    9:54:31    42.24         15.94        1.22      100.10                6.02          33.58     1977  34.00765    -118.50015    2018-04-16T16:54:31Z    
4/16/2018    9:54:31    42.25         15.94        1.23      100.15                5.87          33.58     1978  34.00765    -118.50015    2018-04-16T16:54:31Z    
4/16/2018    9:54:31    42.25         15.97        1.23      100.19                5.68          33.55     1979  34.00765    -118.50015    2018-04-16T16:54:31Z    
4/16/2018    9:54:31    42.25         15.99        1.22      100.13                5.50          33.54     1980  34.00765    -118.50015    2018-04-16T16:54:31Z    
4/16/2018    9:54:32    42.25         15.99        1.22      100.18                5.41          33.54     1981  34.00765    -118.50015    2018-04-16T16:54:32Z    
4/16/2018    9:54:32    42.25         15.99        1.23      100.16                5.35          33.54     1982  34.00765    -118.50015    2018-04-16T16:54:32Z    
4/16/2018    9:54:32    42.25         15.97        1.22      100.25                5.36          33.56     1983  34.00765    -118.50015    2018-04-16T16:54:32Z    
4/16/2018    9:54:32    42.26         15.95        1.20      100.33                5.40          33.57     1984  34.00765    -118.50015    2018-04-16T16:54:32Z    
4/16/2018    9:54:32    42.26         15.95        1.20      100.40                5.59          33.58     1985  34.00765    -118.50015    2018-04-16T16:54:32Z    
4/16/2018    9:54:32    42.26         15.94        1.21      100.46                5.72          33.58     1986  34.00765    -118.50015    2018-04-16T16:54:32Z    
4/16/2018    9:54:33    42.25         15.95        1.19      100.50                6.28          33.58     1987  34.00765    -118.50015    2018-04-16T16:54:33Z    
4/16/2018    9:54:33    42.25         15.92        1.19      100.57                6.55          33.60     1988  34.00765    -118.50015    2018-04-16T16:54:33Z    
4/16/2018    9:54:33    42.23         15.88        1.18      100.66                6.43          33.61     1989  34.00765    -118.50015    2018-04-16T16:54:33Z    
4/16/2018    9:54:33    42.21         15.89        1.18      100.58                6.20          33.58     1990  34.00765    -118.50015    2018-04-16T16:54:33Z    
4/16/2018    9:54:33    42.20         15.91        1.15      100.54                5.96          33.56     1991  34.00765    -118.50015    2018-04-16T16:54:33Z    
4/16/2018    9:54:33    42.22         15.91        1.13      100.55                5.81          33.57     1992  34.00765    -118.50015    2018-04-16T16:54:33Z    
4/16/2018    9:54:34    42.23         15.91        1.10      100.46                5.72          33.59     1993  34.00765    -118.50015    2018-04-16T16:54:34Z    
4/16/2018    9:54:34    42.23         15.91        1.08      100.45                5.80          33.58     1994  34.00765    -118.50015    2018-04-16T16:54:34Z    
4/16/2018    9:54:34    42.22         15.92        1.06      100.44                5.85          33.57     1995  34.00765    -118.50015    2018-04-16T16:54:34Z    
4/16/2018    9:54:34    42.23         15.93        1.04      100.40                5.82          33.57     1996  34.00765    -118.50015    2018-04-16T16:54:34Z    
4/16/2018    9:54:34    42.23         15.92        1.05      100.41                5.79          33.58     1997  34.00765    -118.50015    2018-04-16T16:54:34Z    
4/16/2018    9:54:34    42.23         15.90        1.06      100.33                5.70          33.59     1998  34.00765    -118.50015    2018-04-16T16:54:34Z    
4/16/2018    9:54:35    42.23         15.91        1.09      100.26                5.57          33.58     1999  34.00765    -118.50015    2018-04-16T16:54:35Z    
4/16/2018    9:54:35    42.22         15.92        1.12      100.16                5.43          33.56     2000  34.00765    -118.50015    2018-04-16T16:54:35Z    
4/16/2018    9:54:35    42.21         15.93        1.13      99.98                 5.35          33.55     2001  34.00765    -118.50015    2018-04-16T16:54:35Z    
4/16/2018    9:54:35    42.21         15.93        1.16      99.93                 5.34          33.55     2002  34.00765    -118.50015    2018-04-16T16:54:35Z    
4/16/2018    9:54:35    42.22         15.93        1.15      99.86                 5.29          33.56     2003  34.00765    -118.50015    2018-04-16T16:54:35Z    
4/16/2018    9:54:35    42.22         15.92        1.16      99.82                 5.31          33.56     2004  34.00765    -118.50015    2018-04-16T16:54:35Z    
4/16/2018    9:54:36    42.22         15.93        1.14      99.74                 5.29          33.57     2005  34.00765    -118.50015    2018-04-16T16:54:36Z    
4/16/2018    9:54:36    42.23         15.93        1.11      99.65                 5.30          33.57     2006  34.00765    -118.50015    2018-04-16T16:54:36Z    
4/16/2018    9:54:36    42.21         15.93        1.08      99.68                 5.42          33.56     2007  34.00765    -118.50015    2018-04-16T16:54:36Z    
4/16/2018    9:54:36    42.21         15.92        1.07      99.61                 5.46          33.55     2008  34.00765    -118.50015    2018-04-16T16:54:36Z    
4/16/2018    9:54:36    42.20         15.91        1.04      99.54                 5.45          33.56     2009  34.00765    -118.50015    2018-04-16T16:54:36Z    
4/16/2018    9:54:36    42.20         15.91        1.03      99.49                 5.67          33.57     2010  34.00765    -118.50015    2018-04-16T16:54:36Z    
4/16/2018    9:54:37    42.20         15.90        1.02      99.48                 5.82          33.57     2011  34.00765    -118.50015    2018-04-16T16:54:37Z    
4/16/2018    9:54:37    42.20         15.90        1.01      99.51                 5.73          33.57     2012  34.00765    -118.50015    2018-04-16T16:54:37Z    
4/16/2018    9:54:37    42.20         15.90        1.00      99.39                 5.86          33.57     2013  34.00765    -118.50015    2018-04-16T16:54:37Z    
4/16/2018    9:54:37    42.20         15.90        0.99      99.42                 6.04          33.57     2014  34.00765    -118.50015    2018-04-16T16:54:37Z    
4/16/2018    9:54:37    42.20         15.90        0.97      99.35                 6.04          33.57     2015  34.00765    -118.50015    2018-04-16T16:54:37Z    
4/16/2018    9:54:37    42.20         15.89        0.96      99.32                 6.08          33.58     2016  34.00765    -118.50015    2018-04-16T16:54:37Z    
4/16/2018    9:54:38    42.20         15.89        0.95      99.35                 6.03          33.58     2017  34.00765    -118.50015    2018-04-16T16:54:38Z    
4/16/2018    9:54:38    42.20         15.88        0.96      99.31                 5.96          33.59     2018  34.00765    -118.50015    2018-04-16T16:54:38Z    
4/16/2018    9:54:38    42.19         15.88        0.98      99.31                 5.84          33.57     2019  34.00765    -118.50015    2018-04-16T16:54:38Z    
4/16/2018    9:54:38    42.18         15.88        0.99      99.28                 5.64          33.57     2020  34.00765    -118.50015    2018-04-16T16:54:38Z    
4/16/2018    9:54:38    42.18         15.89        1.02      99.25                 5.45          33.56     2021  34.00765    -118.50015    2018-04-16T16:54:38Z    
4/16/2018    9:54:38    42.18         15.88        1.04      99.17                 5.33          33.56     2022  34.00765    -118.50015    2018-04-16T16:54:38Z    
4/16/2018    9:54:39    42.21         15.88        1.07      99.21                 5.23          33.59     2023  34.00765    -118.50015    2018-04-16T16:54:39Z    
4/16/2018    9:54:39    42.23         15.88        1.09      99.16                 5.17          33.61     2024  34.00765    -118.50015    2018-04-16T16:54:39Z    
4/16/2018    9:54:39    42.23         15.88        1.10      99.08                 5.18          33.61     2025  34.00765    -118.50015    2018-04-16T16:54:39Z    
4/16/2018    9:54:39    42.23         15.89        1.12      99.00                 5.27          33.60     2026  34.00765    -118.50015    2018-04-16T16:54:39Z    
4/16/2018    9:54:39    42.22         15.91        1.10      98.97                 5.39          33.58     2027  34.00765    -118.50015    2018-04-16T16:54:39Z    
4/16/2018    9:54:39    42.22         15.93        1.08      98.94                 5.40          33.56     2028  34.00765    -118.50015    2018-04-16T16:54:39Z    
4/16/2018    9:54:40    42.22         15.94        1.06      98.85                 5.37          33.55     2029  34.00765    -118.50015    2018-04-16T16:54:40Z    
4/16/2018    9:54:40    42.22         15.94        1.04      98.83                 5.33          33.55     2030  34.00765    -118.50015    2018-04-16T16:54:40Z    
4/16/2018    9:54:40    42.23         15.93        1.03      98.84                 5.31          33.57     2031  34.00765    -118.50015    2018-04-16T16:54:40Z    
4/16/2018    9:54:40    42.24         15.92        1.04      98.80                 5.30          33.59     2032  34.00765    -118.50015    2018-04-16T16:54:40Z    
4/16/2018    9:54:40    42.23         15.92        1.07      98.76                 5.26          33.57     2033  34.00765    -118.50015    2018-04-16T16:54:40Z    
4/16/2018    9:54:40    42.23         15.93        1.10      98.75                 5.25          33.57     2034  34.00765    -118.50015    2018-04-16T16:54:40Z    
4/16/2018    9:54:41    42.26         15.94        1.14      98.73                 5.23          33.59     2035  34.00765    -118.50015    2018-04-16T16:54:41Z    
4/16/2018    9:54:41    42.27         15.95        1.18      98.74                 5.15          33.59     2036  34.00765    -118.50015    2018-04-16T16:54:41Z    
4/16/2018    9:54:41    42.27         15.96        1.21      98.74                 5.16          33.58     2037  34.00765    -118.50015    2018-04-16T16:54:41Z    
4/16/2018    9:54:41    42.27         15.98        1.25      98.75                 5.27          33.56     2038  34.00765    -118.50015    2018-04-16T16:54:41Z    
4/16/2018    9:54:41    42.26         15.99        1.28      98.80                 5.40          33.55     2039  34.00765    -118.50015    2018-04-16T16:54:41Z    
4/16/2018    9:54:41    42.26         15.99        1.31      98.89                 5.52          33.55     2040  34.00765    -118.50015    2018-04-16T16:54:41Z    
4/16/2018    9:54:42    42.26         15.98        1.34      98.97                 5.89          33.55     2041  34.00765    -118.50015    2018-04-16T16:54:42Z    
4/16/2018    9:54:42    42.26         15.99        1.37      99.06                 6.17          33.54     2042  34.00765    -118.50015    2018-04-16T16:54:42Z    
4/16/2018    9:54:42    42.25         15.97        1.41      99.22                 6.34          33.55     2043  34.00765    -118.50015    2018-04-16T16:54:42Z    
4/16/2018    9:54:42    42.24         15.97        1.43      99.30                 6.39          33.54     2044  34.00765    -118.50015    2018-04-16T16:54:42Z    
4/16/2018    9:54:42    42.23         15.95        1.47      99.38                 6.35          33.55     2045  34.00765    -118.50015    2018-04-16T16:54:42Z    
4/16/2018    9:54:42    42.23         15.95        1.49      99.57                 6.20          33.55     2046  34.00765    -118.50015    2018-04-16T16:54:42Z    
4/16/2018    9:54:43    42.24         15.97        1.49      99.75                 6.07          33.54     2047  34.00765    -118.50015    2018-04-16T16:54:43Z    
4/16/2018    9:54:43    42.24         15.98        1.52      99.83                 5.99          33.54     2048  34.00765    -118.50015    2018-04-16T16:54:43Z    
4/16/2018    9:54:43    42.25         15.99        1.51      100.08                5.93          33.54     2049  34.00765    -118.50015    2018-04-16T16:54:43Z    
4/16/2018    9:54:43    42.25         15.98        1.50      100.21                5.81          33.54     2050  34.00765    -118.50015    2018-04-16T16:54:43Z    
4/16/2018    9:54:43    42.25         15.98        1.48      100.41                5.79          33.55     2051  34.00765    -118.50015    2018-04-16T16:54:43Z    
4/16/2018    9:54:43    42.25         15.94        1.44      100.55                5.86          33.58     2052  34.00765    -118.50015    2018-04-16T16:54:43Z    
4/16/2018    9:54:44    42.25         15.94        1.41      100.61                5.95          33.57     2053  34.00765    -118.50015    2018-04-16T16:54:44Z    
4/16/2018    9:54:44    42.25         15.93        1.36      100.75                5.91          33.58     2054  34.00765    -118.50015    2018-04-16T16:54:44Z    
4/16/2018    9:54:44    42.24         15.94        1.30      100.76                5.90          33.57     2055  34.00765    -118.50015    2018-04-16T16:54:44Z    
4/16/2018    9:54:44    42.24         15.94        1.24      100.84                5.88          33.56     2056  34.00765    -118.50015    2018-04-16T16:54:44Z    
4/16/2018    9:54:44    42.25         15.96        1.18      100.88                5.89          33.56     2057  34.00765    -118.50015    2018-04-16T16:54:44Z    
4/16/2018    9:54:44    42.25         15.99        1.13      100.88                5.86          33.54     2058  34.00765    -118.50015    2018-04-16T16:54:44Z    
4/16/2018    9:54:45    42.25         16.00        1.10      100.88                5.83          33.53     2059  34.00765    -118.50015    2018-04-16T16:54:45Z    
4/16/2018    9:54:45    42.26         16.00        1.04      100.89                5.89          33.53     2060  34.00765    -118.50015    2018-04-16T16:54:45Z    
4/16/2018    9:54:45    42.26         16.00        1.00      100.98                5.95          33.54     2061  34.00765    -118.50015    2018-04-16T16:54:45Z    
4/16/2018    9:54:45    42.27         16.00        0.96      101.06                5.92          33.55     2062  34.00765    -118.50015    2018-04-16T16:54:45Z    
4/16/2018    9:54:45    42.27         16.00        0.88      101.06                5.93          33.55     2063  34.00765    -118.50015    2018-04-16T16:54:45Z    
4/16/2018    9:54:45    42.27         15.99        0.81      101.14                5.95          33.56     2064  34.00765    -118.50015    2018-04-16T16:54:45Z    
4/16/2018    9:54:46    42.27         15.99        0.74      101.22                5.89          33.55     2065  34.00765    -118.50015    2018-04-16T16:54:46Z    
4/16/2018    9:54:46    42.27         15.99        0.69      101.28                5.77          33.55     2066  34.00765    -118.50015    2018-04-16T16:54:46Z    
4/16/2018    9:54:46    42.27         15.99        0.67      101.37                5.70          33.56     2067  34.00765    -118.50015    2018-04-16T16:54:46Z    
4/16/2018    9:54:46    42.27         15.99        0.66      101.42                5.63          33.56     2068  34.00765    -118.50015    2018-04-16T16:54:46Z    
4/16/2018    9:54:46    42.28         15.99        0.67      101.52                5.64          33.56     2069  34.00765    -118.50015    2018-04-16T16:54:46Z    
4/16/2018    9:54:46    42.28         16.00        0.69      101.63                5.67          33.55     2070  34.00765    -118.50015    2018-04-16T16:54:46Z    
4/16/2018    9:54:47    42.28         16.00        0.73      101.75                5.67          33.56     2071  34.00765    -118.50015    2018-04-16T16:54:47Z    
4/16/2018    9:54:47    42.28         16.00        0.77      101.81                5.65          33.56     2072  34.00765    -118.50015    2018-04-16T16:54:47Z    
4/16/2018    9:54:47    42.27         16.00        0.80      101.96                5.73          33.55     2073  34.00765    -118.50015    2018-04-16T16:54:47Z    
4/16/2018    9:54:47    42.27         16.00        0.83      102.04                5.80          33.55     2074  34.00765    -118.50015    2018-04-16T16:54:47Z    
4/16/2018    9:54:47    42.28         16.00        0.86      102.12                5.80          33.55     2075  34.00765    -118.50015    2018-04-16T16:54:47Z    
4/16/2018    9:54:47    42.28         16.00        0.91      102.19                5.83          33.56     2076  34.00765    -118.50015    2018-04-16T16:54:47Z    
4/16/2018    9:54:48    42.28         16.00        0.95      102.23                5.89          33.56     2077  34.00765    -118.50015    2018-04-16T16:54:48Z    
4/16/2018    9:54:48    42.28         16.00        0.99      102.31                5.85          33.56     2078  34.00765    -118.50015    2018-04-16T16:54:48Z    
4/16/2018    9:54:48    42.28         16.00        1.04      102.37                5.78          33.55     2079  34.00765    -118.50015    2018-04-16T16:54:48Z    
4/16/2018    9:54:48    42.27         16.00        1.07      102.39                5.77          33.55     2080  34.00765    -118.50015    2018-04-16T16:54:48Z    
4/16/2018    9:54:48    42.27         16.00        1.09      102.48                5.77          33.55     2081  34.00765    -118.50015    2018-04-16T16:54:48Z    
4/16/2018    9:54:48    42.27         16.00        1.11      102.48                5.76          33.55     2082  34.00765    -118.50015    2018-04-16T16:54:48Z    
4/16/2018    9:54:49    42.27         16.00        1.12      102.52                5.83          33.55     2083  34.00765    -118.50015    2018-04-16T16:54:49Z    
4/16/2018    9:54:49    42.26         16.00        1.12      102.53                5.90          33.54     2084  34.00765    -118.50015    2018-04-16T16:54:49Z    
4/16/2018    9:54:49    42.27         16.00        1.11      102.53                5.88          33.54     2085  34.00765    -118.50015    2018-04-16T16:54:49Z    
4/16/2018    9:54:49    42.27         16.00        1.10      102.54                5.90          33.55     2086  34.00765    -118.50015    2018-04-16T16:54:49Z    
4/16/2018    9:54:49    42.27         16.00        1.09      102.57                5.93          33.55     2087  34.00765    -118.50015    2018-04-16T16:54:49Z    
4/16/2018    9:54:49    42.27         15.99        1.08      102.60                5.91          33.55     2088  34.00765    -118.50015    2018-04-16T16:54:49Z    
4/16/2018    9:54:50    42.27         15.99        1.06      102.65                5.88          33.55     2089  34.00765    -118.50015    2018-04-16T16:54:50Z    
4/16/2018    9:54:50    42.26         15.99        1.04      102.69                5.78          33.55     2090  34.00765    -118.50015    2018-04-16T16:54:50Z    
4/16/2018    9:54:50    42.26         15.99        1.02      102.61                5.74          33.54     2091  34.00765    -118.50015    2018-04-16T16:54:50Z    
4/16/2018    9:54:50    42.26         15.99        0.99      102.64                5.72          33.54     2092  34.00765    -118.50015    2018-04-16T16:54:50Z    
4/16/2018    9:54:50    42.25         15.99        0.97      102.67                5.66          33.54     2093  34.00765    -118.50015    2018-04-16T16:54:50Z    
4/16/2018    9:54:50    42.25         15.98        0.95      102.71                5.63          33.55     2094  34.00765    -118.50015    2018-04-16T16:54:50Z    
4/16/2018    9:54:51    42.25         15.98        0.91      102.66                5.67          33.55     2095  34.00765    -118.50015    2018-04-16T16:54:51Z    
4/16/2018    9:54:51    42.25         15.98        0.91      102.68                5.78          33.55     2096  34.00765    -118.50015    2018-04-16T16:54:51Z    
4/16/2018    9:54:51    42.25         15.98        0.89      102.66                5.85          33.55     2097  34.00765    -118.50015    2018-04-16T16:54:51Z    
4/16/2018    9:54:51    42.25         15.97        0.90      102.71                5.98          33.55     2098  34.00765    -118.50015    2018-04-16T16:54:51Z    
4/16/2018    9:54:51    42.25         15.97        0.90      102.61                5.97          33.55     2099  34.00765    -118.50015    2018-04-16T16:54:51Z    
4/16/2018    9:54:51    42.25         15.97        0.95      102.56                5.86          33.56     2100  34.00765    -118.50015    2018-04-16T16:54:51Z    
4/16/2018    9:54:52    42.25         15.96        1.00      102.55                5.77          33.56     2101  34.00765    -118.50015    2018-04-16T16:54:52Z    
4/16/2018    9:54:52    42.26         15.97        1.04      102.53                5.82          33.56     2102  34.00765    -118.50015    2018-04-16T16:54:52Z    
4/16/2018    9:54:52    42.26         15.97        1.08      102.47                5.97          33.56     2103  34.00765    -118.50015    2018-04-16T16:54:52Z    
4/16/2018    9:54:52    42.25         15.97        1.12      102.31                5.85          33.55     2104  34.00765    -118.50015    2018-04-16T16:54:52Z    
4/16/2018    9:54:52    42.23         15.97        1.15      102.17                5.72          33.53     2105  34.00765    -118.50015    2018-04-16T16:54:52Z    
4/16/2018    9:54:52    42.22         15.97        1.17      102.07                5.58          33.53     2106  34.00765    -118.50015    2018-04-16T16:54:52Z    
4/16/2018    9:54:53    42.22         15.97        1.18      102.01                5.46          33.52     2107  34.00765    -118.50015    2018-04-16T16:54:53Z    
4/16/2018    9:54:53    42.21         15.95        1.17      102.06                5.37          33.54     2108  34.00765    -118.50015    2018-04-16T16:54:53Z    
4/16/2018    9:54:53    42.19         15.94        1.17      102.02                5.35          33.53     2109  34.00765    -118.50015    2018-04-16T16:54:53Z    
4/16/2018    9:54:53    42.18         15.92        1.15      101.90                5.34          33.54     2110  34.00765    -118.50015    2018-04-16T16:54:53Z    
4/16/2018    9:54:53    42.17         15.89        1.14      101.88                5.37          33.55     2111  34.00765    -118.50015    2018-04-16T16:54:53Z    
4/16/2018    9:54:53    42.17         15.88        1.12      101.74                5.32          33.56     2112  34.00765    -118.50015    2018-04-16T16:54:53Z    
4/16/2018    9:54:54    42.17         15.90        1.10      101.69                5.30          33.54     2113  34.00765    -118.50015    2018-04-16T16:54:54Z    
4/16/2018    9:54:54    42.17         15.89        1.10      101.53                5.24          33.55     2114  34.00765    -118.50015    2018-04-16T16:54:54Z    
4/16/2018    9:54:54    42.17         15.90        1.10      101.46                5.18          33.54     2115  34.00765    -118.50015    2018-04-16T16:54:54Z    
4/16/2018    9:54:54    42.16         15.91        1.11      101.22                5.23          33.53     2116  34.00765    -118.50015    2018-04-16T16:54:54Z    
4/16/2018    9:54:54    42.16         15.89        1.13      100.99                5.35          33.54     2117  34.00765    -118.50015    2018-04-16T16:54:54Z    
4/16/2018    9:54:54    42.15         15.88        1.17      100.83                5.34          33.55     2118  34.00765    -118.50015    2018-04-16T16:54:54Z    
4/16/2018    9:54:55    42.15         15.87        1.21      100.62                5.24          33.54     2119  34.00765    -118.50015    2018-04-16T16:54:55Z    
4/16/2018    9:54:55    42.14         15.87        1.24      100.47                5.13          33.54     2120  34.00765    -118.50015    2018-04-16T16:54:55Z    
4/16/2018    9:54:55    42.12         15.86        1.27      100.41                5.06          33.54     2121  34.00765    -118.50015    2018-04-16T16:54:55Z    
4/16/2018    9:54:55    42.12         15.85        1.30      100.32                5.03          33.54     2122  34.00765    -118.50015    2018-04-16T16:54:55Z    
4/16/2018    9:54:55    42.12         15.85        1.34      100.08                5.03          33.54     2123  34.00765    -118.50015    2018-04-16T16:54:55Z    
4/16/2018    9:54:55    42.12         15.85        1.36      100.03                5.05          33.54     2124  34.00765    -118.50015    2018-04-16T16:54:55Z    
4/16/2018    9:54:56    42.12         15.85        1.38      99.91                 5.12          33.54     2125  34.00765    -118.50015    2018-04-16T16:54:56Z    
4/16/2018    9:54:56    42.12         15.84        1.38      99.80                 5.25          33.55     2126  34.00765    -118.50015    2018-04-16T16:54:56Z    
4/16/2018    9:54:56    42.12         15.84        1.38      99.70                 5.22          33.55     2127  34.00765    -118.50015    2018-04-16T16:54:56Z    
4/16/2018    9:54:56    42.12         15.84        1.41      99.74                 5.09          33.55     2128  34.00765    -118.50015    2018-04-16T16:54:56Z    
4/16/2018    9:54:56    42.13         15.86        1.39      99.64                 5.03          33.54     2129  34.00765    -118.50015    2018-04-16T16:54:56Z    
4/16/2018    9:54:56    42.13         15.92        1.39      99.60                 5.04          33.49     2130  34.00765    -118.50015    2018-04-16T16:54:56Z    
4/16/2018    9:54:57    42.14         15.93        1.39      99.58                 5.06          33.49     2131  34.00765    -118.50015    2018-04-16T16:54:57Z    
4/16/2018    9:54:57    42.15         15.95        1.38      99.68                 5.13          33.49     2132  34.00765    -118.50015    2018-04-16T16:54:57Z    
4/16/2018    9:54:57    42.17         15.96        1.37      99.72                 5.24          33.50     2133  34.00765    -118.50015    2018-04-16T16:54:57Z    
4/16/2018    9:54:57    42.19         15.95        1.35      99.88                 5.29          33.51     2134  34.00765    -118.50015    2018-04-16T16:54:57Z    
4/16/2018    9:54:57    42.21         15.95        1.33      100.02                5.37          33.53     2135  34.00765    -118.50015    2018-04-16T16:54:57Z    
4/16/2018    9:54:57    42.22         15.94        1.31      100.19                5.41          33.55     2136  34.00765    -118.50015    2018-04-16T16:54:57Z    
4/16/2018    9:54:58    42.23         15.96        1.28      100.28                5.46          33.54     2137  34.00765    -118.50015    2018-04-16T16:54:58Z    
4/16/2018    9:54:58    42.23         15.96        1.27      100.40                5.55          33.55     2138  34.00765    -118.50015    2018-04-16T16:54:58Z    
4/16/2018    9:54:58    42.23         15.96        1.24      100.48                5.57          33.55     2139  34.00765    -118.50015    2018-04-16T16:54:58Z    
4/16/2018    9:54:58    42.23         15.96        1.24      100.57                5.55          33.54     2140  34.00765    -118.50015    2018-04-16T16:54:58Z    
4/16/2018    9:54:58    42.24         15.98        1.23      100.61                5.52          33.54     2141  34.00765    -118.50015    2018-04-16T16:54:58Z    
4/16/2018    9:54:58    42.24         15.98        1.21      100.65                5.52          33.53     2142  34.00765    -118.50015    2018-04-16T16:54:58Z    
4/16/2018    9:54:59    42.24         15.98        1.18      100.71                5.48          33.53     2143  34.00765    -118.50015    2018-04-16T16:54:59Z    
4/16/2018    9:54:59    42.25         15.98        1.16      100.80                5.47          33.54     2144  34.00765    -118.50015    2018-04-16T16:54:59Z    
4/16/2018    9:54:59    42.25         15.97        1.12      100.86                5.42          33.55     2145  34.00765    -118.50015    2018-04-16T16:54:59Z    
4/16/2018    9:54:59    42.25         15.97        1.09      100.92                5.46          33.55     2146  34.00765    -118.50015    2018-04-16T16:54:59Z    
4/16/2018    9:54:59    42.25         15.97        1.05      100.93                5.59          33.55     2147  34.00765    -118.50015    2018-04-16T16:54:59Z    
4/16/2018    9:54:59    42.25         15.96        1.03      101.01                5.57          33.56     2148  34.00765    -118.50015    2018-04-16T16:54:59Z    
4/16/2018    9:55:00    42.25         15.96        1.00      101.10                5.63          33.56     2149  34.00765    -118.50015    2018-04-16T16:55:00Z    
4/16/2018    9:55:00    42.25         15.96        0.99      101.19                5.63          33.56     2150  34.00765    -118.50015    2018-04-16T16:55:00Z    
4/16/2018    9:55:00    42.25         15.96        0.95      101.14                5.61          33.56     2151  34.00765    -118.50015    2018-04-16T16:55:00Z    
4/16/2018    9:55:00    42.24         15.96        0.94      101.19                5.59          33.56     2152  34.00765    -118.50015    2018-04-16T16:55:00Z    
4/16/2018    9:55:00    42.24         15.96        0.92      101.13                5.51          33.56     2153  34.00765    -118.50015    2018-04-16T16:55:00Z    
4/16/2018    9:55:00    42.24         15.96        0.93      101.19                5.49          33.55     2154  34.00765    -118.50015    2018-04-16T16:55:00Z    
4/16/2018    9:55:01    42.24         15.96        0.95      101.15                5.55          33.55     2155  34.00765    -118.50015    2018-04-16T16:55:01Z    
4/16/2018    9:55:01    42.24         15.97        0.96      101.20                5.56          33.54     2156  34.00765    -118.50015    2018-04-16T16:55:01Z    
4/16/2018    9:55:01    42.24         15.97        0.99      101.17                5.65          33.54     2157  34.00765    -118.50015    2018-04-16T16:55:01Z    
4/16/2018    9:55:01    42.24         15.96        1.02      101.17                5.65          33.55     2158  34.00765    -118.50015    2018-04-16T16:55:01Z    
4/16/2018    9:55:01    42.24         15.96        1.02      101.17                5.65          33.55     2159  34.00765    -118.50015    2018-04-16T16:55:01Z    
4/16/2018    9:55:01    42.24         15.96        1.08      101.14                5.60          33.56     2160  34.00765    -118.50015    2018-04-16T16:55:01Z    
4/16/2018    9:55:02    42.23         15.95        1.11      101.19                5.57          33.55     2161  34.00765    -118.50015    2018-04-16T16:55:02Z    
4/16/2018    9:55:02    42.23         15.95        1.11      101.17                5.72          33.55     2162  34.00765    -118.50015    2018-04-16T16:55:02Z    
4/16/2018    9:55:02    42.22         15.95        1.13      101.20                5.69          33.55     2163  34.00765    -118.50015    2018-04-16T16:55:02Z    
4/16/2018    9:55:02    42.22         15.95        1.14      101.15                5.63          33.54     2164  34.00765    -118.50015    2018-04-16T16:55:02Z    
4/16/2018    9:55:02    42.22         15.95        1.13      101.15                5.54          33.54     2165  34.00765    -118.50015    2018-04-16T16:55:02Z    
4/16/2018    9:55:02    42.22         15.95        1.13      101.15                5.43          33.55     2166  34.00765    -118.50015    2018-04-16T16:55:02Z    
4/16/2018    9:55:03    42.22         15.95        1.11      101.18                5.39          33.55     2167  34.00765    -118.50015    2018-04-16T16:55:03Z    
4/16/2018    9:55:03    42.23         15.95        1.08      101.12                5.49          33.55     2168  34.00765    -118.50015    2018-04-16T16:55:03Z    
4/16/2018    9:55:03    42.23         15.95        1.05      101.16                5.52          33.56     2169  34.00765    -118.50015    2018-04-16T16:55:03Z    
4/16/2018    9:55:03    42.23         15.94        1.04      101.18                5.47          33.56     2170  34.00765    -118.50015    2018-04-16T16:55:03Z    
4/16/2018    9:55:03    42.23         15.94        1.00      101.18                5.49          33.56     2171  34.00765    -118.50015    2018-04-16T16:55:03Z    
4/16/2018    9:55:03    42.23         15.94        0.98      101.17                5.61          33.56     2172  34.00765    -118.50015    2018-04-16T16:55:03Z    
4/16/2018    9:55:04    42.23         15.94        0.97      101.15                5.61          33.56     2173  34.00765    -118.50015    2018-04-16T16:55:04Z    
4/16/2018    9:55:04    42.22         15.93        0.95      101.14                5.59          33.56     2174  34.00765    -118.50015    2018-04-16T16:55:04Z    
4/16/2018    9:55:04    42.22         15.93        0.93      101.14                5.57          33.57     2175  34.00765    -118.50015    2018-04-16T16:55:04Z    
4/16/2018    9:55:04    42.22         15.92        0.93      101.12                5.56          33.57     2176  34.00765    -118.50015    2018-04-16T16:55:04Z    
4/16/2018    9:55:04    42.22         15.92        0.93      101.05                5.57          33.57     2177  34.00765    -118.50015    2018-04-16T16:55:04Z    
4/16/2018    9:55:04    42.21         15.91        0.91      101.07                5.64          33.57     2178  34.00765    -118.50015    2018-04-16T16:55:04Z    
4/16/2018    9:55:05    42.21         15.90        0.92      101.05                5.66          33.57     2179  34.00765    -118.50015    2018-04-16T16:55:05Z    
4/16/2018    9:55:05    42.20         15.90        0.92      101.05                5.57          33.57     2180  34.00765    -118.50015    2018-04-16T16:55:05Z    
4/16/2018    9:55:05    42.20         15.89        0.92      101.06                5.48          33.57     2181  34.00765    -118.50015    2018-04-16T16:55:05Z    
4/16/2018    9:55:05    42.19         15.89        0.93      100.94                5.42          33.57     2182  34.00765    -118.50015    2018-04-16T16:55:05Z    
4/16/2018    9:55:05    42.19         15.89        0.94      100.83                5.36          33.57     2183  34.00765    -118.50015    2018-04-16T16:55:05Z    
4/16/2018    9:55:05    42.18         15.89        0.95      100.78                5.30          33.56     2184  34.00765    -118.50015    2018-04-16T16:55:05Z    
4/16/2018    9:55:06    42.17         15.89        0.97      100.64                5.25          33.55     2185  34.00765    -118.50015    2018-04-16T16:55:06Z    
4/16/2018    9:55:06    42.17         15.89        0.98      100.52                5.25          33.55     2186  34.00765    -118.50015    2018-04-16T16:55:06Z    
4/16/2018    9:55:06    42.17         15.89        1.02      100.38                5.21          33.55     2187  34.00765    -118.50015    2018-04-16T16:55:06Z    
4/16/2018    9:55:06    42.17         15.89        1.05      100.37                5.16          33.55     2188  34.00765    -118.50015    2018-04-16T16:55:06Z    
4/16/2018    9:55:06    42.17         15.88        1.10      100.27                5.10          33.55     2189  34.00765    -118.50015    2018-04-16T16:55:06Z    
4/16/2018    9:55:06    42.16         15.88        1.13      100.13                5.07          33.54     2190  34.00765    -118.50015    2018-04-16T16:55:06Z    
4/16/2018    9:55:07    42.15         15.88        1.19      100.06                5.02          33.54     2191  34.00765    -118.50015    2018-04-16T16:55:07Z    
4/16/2018    9:55:07    42.14         15.88        1.24      99.90                 5.02          33.53     2192  34.00765    -118.50015    2018-04-16T16:55:07Z    
4/16/2018    9:55:07    42.14         15.88        1.29      99.81                 5.13          33.54     2193  34.00765    -118.50015    2018-04-16T16:55:07Z    
4/16/2018    9:55:07    42.15         15.88        1.32      99.70                 5.11          33.54     2194  34.00765    -118.50015    2018-04-16T16:55:07Z    
4/16/2018    9:55:07    42.15         15.87        1.35      99.57                 5.13          33.55     2195  34.00765    -118.50015    2018-04-16T16:55:07Z    
4/16/2018    9:55:07    42.15         15.87        1.38      99.49                 5.21          33.54     2196  34.00765    -118.50015    2018-04-16T16:55:07Z    
4/16/2018    9:55:08    42.15         15.87        1.38      99.41                 5.44          33.55     2197  34.00765    -118.50015    2018-04-16T16:55:08Z    
4/16/2018    9:55:08    42.15         15.86        1.39      99.33                 5.51          33.56     2198  34.00765    -118.50015    2018-04-16T16:55:08Z    
4/16/2018    9:55:08    42.15         15.86        1.37      99.29                 5.40          33.56     2199  34.00765    -118.50015    2018-04-16T16:55:08Z    
4/16/2018    9:55:08    42.15         15.86        1.34      99.31                 5.30          33.55     2200  34.00765    -118.50015    2018-04-16T16:55:08Z    
4/16/2018    9:55:08    42.15         15.86        1.31      99.22                 5.31          33.55     2201  34.00765    -118.50015    2018-04-16T16:55:08Z    
4/16/2018    9:55:08    42.15         15.86        1.27      99.15                 5.26          33.56     2202  34.00765    -118.50015    2018-04-16T16:55:08Z    
4/16/2018    9:55:09    42.15         15.86        1.25      99.15                 5.20          33.56     2203  34.00765    -118.50015    2018-04-16T16:55:09Z    
4/16/2018    9:55:09    42.15         15.86        1.21      99.04                 5.17          33.56     2204  34.00765    -118.50015    2018-04-16T16:55:09Z    
4/16/2018    9:55:09    42.15         15.86        1.18      99.01                 5.40          33.55     2205  34.00765    -118.50015    2018-04-16T16:55:09Z    
4/16/2018    9:55:09    42.14         15.86        1.16      99.02                 5.43          33.55     2206  34.00765    -118.50015    2018-04-16T16:55:09Z    
4/16/2018    9:55:09    42.14         15.86        1.14      98.97                 5.38          33.55     2207  34.00765    -118.50015    2018-04-16T16:55:09Z    
4/16/2018    9:55:09    42.14         15.86        1.14      98.95                 5.30          33.55     2208  34.00765    -118.50015    2018-04-16T16:55:09Z    
4/16/2018    9:55:10    42.14         15.86        1.15      98.93                 5.23          33.55     2209  34.00765    -118.50015    2018-04-16T16:55:10Z    
4/16/2018    9:55:10    42.15         15.86        1.16      98.88                 5.13          33.56     2210  34.00765    -118.50015    2018-04-16T16:55:10Z    
4/16/2018    9:55:10    42.15         15.85        1.17      98.88                 5.08          33.56     2211  34.00765    -118.50015    2018-04-16T16:55:10Z    
4/16/2018    9:55:10    42.15         15.85        1.17      98.87                 5.08          33.56     2212  34.00765    -118.50015    2018-04-16T16:55:10Z    
4/16/2018    9:55:10    42.15         15.87        1.16      98.80                 5.05          33.54     2213  34.00765    -118.50015    2018-04-16T16:55:10Z    
4/16/2018    9:55:10    42.15         15.87        1.13      98.84                 4.99          33.55     2214  34.00765    -118.50015    2018-04-16T16:55:10Z    
4/16/2018    9:55:11    42.15         15.87        1.12      98.83                 4.99          33.55     2215  34.00765    -118.50015    2018-04-16T16:55:11Z    
4/16/2018    9:55:11    42.15         15.86        1.08      98.82                 5.03          33.55     2216  34.00765    -118.50015    2018-04-16T16:55:11Z    
4/16/2018    9:55:11    42.15         15.86        1.04      98.84                 5.06          33.55     2217  34.00765    -118.50015    2018-04-16T16:55:11Z    
4/16/2018    9:55:11    42.15         15.86        1.02      98.84                 5.06          33.55     2218  34.00765    -118.50015    2018-04-16T16:55:11Z    
4/16/2018    9:55:11    42.15         15.87        1.01      98.82                 5.06          33.55     2219  34.00765    -118.50015    2018-04-16T16:55:11Z    
4/16/2018    9:55:11    42.15         15.87        1.02      98.82                 5.10          33.55     2220  34.00765    -118.50015    2018-04-16T16:55:11Z    
4/16/2018    9:55:12    42.15         15.87        1.04      98.82                 5.18          33.55     2221  34.00765    -118.50015    2018-04-16T16:55:12Z    
4/16/2018    9:55:12    42.15         15.86        1.07      98.81                 5.27          33.55     2222  34.00765    -118.50015    2018-04-16T16:55:12Z    
4/16/2018    9:55:12    42.15         15.87        1.10      98.85                 5.42          33.55     2223  34.00765    -118.50015    2018-04-16T16:55:12Z    
4/16/2018    9:55:12    42.14         15.87        1.15      98.86                 5.54          33.54     2224  34.00765    -118.50015    2018-04-16T16:55:12Z    
4/16/2018    9:55:12    42.14         15.87        1.17      98.85                 5.52          33.54     2225  34.00765    -118.50015    2018-04-16T16:55:12Z    
4/16/2018    9:55:12    42.15         15.87        1.20      98.87                 5.46          33.55     2226  34.00765    -118.50015    2018-04-16T16:55:12Z    
4/16/2018    9:55:13    42.15         15.87        1.24      98.94                 5.36          33.55     2227  34.00765    -118.50015    2018-04-16T16:55:13Z    
4/16/2018    9:55:13    42.15         15.87        1.25      98.88                 5.28          33.55     2228  34.00765    -118.50015    2018-04-16T16:55:13Z    
4/16/2018    9:55:13    42.15         15.87        1.27      98.93                 5.21          33.55     2229  34.00765    -118.50015    2018-04-16T16:55:13Z    
4/16/2018    9:55:13    42.15         15.87        1.26      98.93                 5.19          33.55     2230  34.00765    -118.50015    2018-04-16T16:55:13Z    
4/16/2018    9:55:13    42.15         15.86        1.25      98.98                 5.30          33.56     2231  34.00765    -118.50015    2018-04-16T16:55:13Z    
4/16/2018    9:55:13    42.18         15.89        1.23      98.98                 5.32          33.56     2232  34.00765    -118.50015    2018-04-16T16:55:13Z    
4/16/2018    9:55:14    42.19         15.92        1.20      98.97                 5.34          33.55     2233  34.00765    -118.50015    2018-04-16T16:55:14Z    
4/16/2018    9:55:14    42.19         15.92        1.17      98.97                 5.30          33.54     2234  34.00765    -118.50015    2018-04-16T16:55:14Z    
4/16/2018    9:55:14    42.20         15.90        1.13      99.11                 5.29          33.56     2235  34.00765    -118.50015    2018-04-16T16:55:14Z    
4/16/2018    9:55:14    42.20         15.90        1.09      99.18                 5.30          33.57     2236  34.00765    -118.50015    2018-04-16T16:55:14Z    
4/16/2018    9:55:14    42.19         15.90        1.08      99.25                 5.33          33.57     2237  34.00765    -118.50015    2018-04-16T16:55:14Z    
4/16/2018    9:55:14    42.19         15.90        1.07      99.21                 5.46          33.56     2238  34.00765    -118.50015    2018-04-16T16:55:14Z    
4/16/2018    9:55:15    42.19         15.90        1.07      99.26                 5.40          33.56     2239  34.00765    -118.50015    2018-04-16T16:55:15Z    
4/16/2018    9:55:15    42.19         15.91        1.06      99.30                 5.35          33.56     2240  34.00765    -118.50015    2018-04-16T16:55:15Z    
4/16/2018    9:55:15    42.19         15.91        1.08      99.33                 5.29          33.55     2241  34.00765    -118.50015    2018-04-16T16:55:15Z    
4/16/2018    9:55:15    42.19         15.91        1.07      99.30                 5.25          33.55     2242  34.00765    -118.50015    2018-04-16T16:55:15Z    
4/16/2018    9:55:15    42.19         15.91        1.08      99.26                 5.25          33.55     2243  34.00765    -118.50015    2018-04-16T16:55:15Z    
4/16/2018    9:55:15    42.19         15.91        1.07      99.32                 5.22          33.55     2244  34.00765    -118.50015    2018-04-16T16:55:15Z    
4/16/2018    9:55:16    42.19         15.90        1.04      99.35                 5.27          33.56     2245  34.00765    -118.50015    2018-04-16T16:55:16Z    
4/16/2018    9:55:16    42.20         15.92        1.02      99.35                 5.25          33.55     2246  34.00765    -118.50015    2018-04-16T16:55:16Z    
4/16/2018    9:55:16    42.19         15.92        0.99      99.33                 5.23          33.54     2247  34.00765    -118.50015    2018-04-16T16:55:16Z    
4/16/2018    9:55:16    42.19         15.92        0.95      99.37                 5.23          33.54     2248  34.00765    -118.50015    2018-04-16T16:55:16Z    
4/16/2018    9:55:16    42.19         15.91        0.94      99.49                 5.26          33.55     2249  34.00765    -118.50015    2018-04-16T16:55:16Z    
4/16/2018    9:55:16    42.19         15.90        0.91      99.47                 5.30          33.56     2250  34.00765    -118.50015    2018-04-16T16:55:16Z    
4/16/2018    9:55:17    42.19         15.90        0.91      99.44                 5.36          33.56     2251  34.00765    -118.50015    2018-04-16T16:55:17Z    
4/16/2018    9:55:17    42.18         15.90        0.93      99.46                 5.46          33.56     2252  34.00765    -118.50015    2018-04-16T16:55:17Z    
4/16/2018    9:55:17    42.18         15.90        0.96      99.52                 5.58          33.55     2253  34.00765    -118.50015    2018-04-16T16:55:17Z    
4/16/2018    9:55:17    42.18         15.89        0.98      99.56                 5.57          33.55     2254  34.00765    -118.50015    2018-04-16T16:55:17Z    
4/16/2018    9:55:17    42.18         15.90        1.01      99.50                 5.56          33.55     2255  34.00765    -118.50015    2018-04-16T16:55:17Z    
4/16/2018    9:55:17    42.18         15.89        1.04      99.47                 5.62          33.56     2256  34.00765    -118.50015    2018-04-16T16:55:17Z    
4/16/2018    9:55:18    42.19         15.89        1.07      99.45                 5.67          33.56     2257  34.00765    -118.50015    2018-04-16T16:55:18Z    
4/16/2018    9:55:18    42.19         15.90        1.09      99.41                 5.63          33.56     2258  34.00765    -118.50015    2018-04-16T16:55:18Z    
4/16/2018    9:55:18    42.19         15.91        1.12      99.43                 5.56          33.56     2259  34.00765    -118.50015    2018-04-16T16:55:18Z    
4/16/2018    9:55:18    42.20         15.91        1.15      99.50                 5.47          33.56     2260  34.00765    -118.50015    2018-04-16T16:55:18Z    
4/16/2018    9:55:18    42.20         15.91        1.17      99.46                 5.46          33.56     2261  34.00765    -118.50015    2018-04-16T16:55:18Z    
4/16/2018    9:55:18    42.20         15.91        1.19      99.48                 5.41          33.56     2262  34.00765    -118.50015    2018-04-16T16:55:18Z    
4/16/2018    9:55:19    42.20         15.91        1.21      99.47                 5.60          33.56     2263  34.00765    -118.50015    2018-04-16T16:55:19Z    
4/16/2018    9:55:19    42.20         15.92        1.21      99.55                 5.83          33.56     2264  34.00765    -118.50015    2018-04-16T16:55:19Z    
4/16/2018    9:55:19    42.20         15.92        1.21      99.56                 5.86          33.55     2265  34.00765    -118.50015    2018-04-16T16:55:19Z    
4/16/2018    9:55:19    42.20         15.92        1.21      99.48                 5.84          33.55     2266  34.00765    -118.50015    2018-04-16T16:55:19Z    
4/16/2018    9:55:19    42.20         15.92        1.18      99.50                 5.79          33.55     2267  34.00765    -118.50015    2018-04-16T16:55:19Z    
4/16/2018    9:55:19    42.20         15.92        1.14      99.51                 6.03          33.55     2268  34.00765    -118.50015    2018-04-16T16:55:19Z    
4/16/2018    9:55:20    42.20         15.92        1.09      99.55                 6.08          33.55     2269  34.00765    -118.50015    2018-04-16T16:55:20Z    
4/16/2018    9:55:20    42.20         15.92        1.06      99.50                 5.90          33.55     2270  34.00765    -118.50015    2018-04-16T16:55:20Z    
4/16/2018    9:55:20    42.20         15.92        1.03      99.58                 5.72          33.54     2271  34.00765    -118.50015    2018-04-16T16:55:20Z    
4/16/2018    9:55:20    42.20         15.92        1.01      99.59                 5.62          33.55     2272  34.00765    -118.50015    2018-04-16T16:55:20Z    
4/16/2018    9:55:20    42.20         15.91        0.99      99.57                 5.48          33.55     2273  34.00765    -118.50015    2018-04-16T16:55:20Z    
4/16/2018    9:55:20    42.19         15.91        0.99      99.64                 5.36          33.55     2274  34.00765    -118.50015    2018-04-16T16:55:20Z    
4/16/2018    9:55:21    42.19         15.92        0.98      99.66                 5.40          33.55     2275  34.00765    -118.50015    2018-04-16T16:55:21Z    
4/16/2018    9:55:21    42.20         15.92        0.98      99.65                 5.47          33.55     2276  34.00765    -118.50015    2018-04-16T16:55:21Z    
4/16/2018    9:55:21    42.20         15.92        0.96      99.65                 5.45          33.55     2277  34.00765    -118.50015    2018-04-16T16:55:21Z    
4/16/2018    9:55:21    42.20         15.92        0.95      99.64                 5.53          33.56     2278  34.00765    -118.50015    2018-04-16T16:55:21Z    
4/16/2018    9:55:21    42.21         15.92        0.93      99.70                 5.65          33.56     2279  34.00765    -118.50015    2018-04-16T16:55:21Z    
4/16/2018    9:55:21    42.21         15.91        0.93      99.74                 5.65          33.56     2280  34.00765    -118.50015    2018-04-16T16:55:21Z    
4/16/2018    9:55:22    42.20         15.91        0.93      99.76                 5.55          33.55     2281  34.00765    -118.50015    2018-04-16T16:55:22Z    
4/16/2018    9:55:22    42.19         15.91        0.95      99.77                 5.48          33.55     2282  34.00765    -118.50015    2018-04-16T16:55:22Z    
4/16/2018    9:55:22    42.19         15.91        0.98      99.84                 5.41          33.55     2283  34.00765    -118.50015    2018-04-16T16:55:22Z    
4/16/2018    9:55:22    42.19         15.91        1.03      99.86                 5.66          33.55     2284  34.00765    -118.50015    2018-04-16T16:55:22Z    
4/16/2018    9:55:22    42.20         15.91        1.08      99.89                 5.74          33.56     2285  34.00765    -118.50015    2018-04-16T16:55:22Z    
4/16/2018    9:55:22    42.20         15.92        1.15      99.88                 5.77          33.55     2286  34.00765    -118.50015    2018-04-16T16:55:22Z    
4/16/2018    9:55:23    42.19         15.92        1.20      99.87                 5.77          33.54     2287  34.00765    -118.50015    2018-04-16T16:55:23Z    
4/16/2018    9:55:23    42.19         15.92        1.24      99.86                 5.82          33.54     2288  34.00765    -118.50015    2018-04-16T16:55:23Z    
4/16/2018    9:55:23    42.19         15.92        1.31      99.89                 5.76          33.54     2289  34.00765    -118.50015    2018-04-16T16:55:23Z    
4/16/2018    9:55:23    42.19         15.91        1.36      99.91                 5.86          33.55     2290  34.00765    -118.50015    2018-04-16T16:55:23Z    
4/16/2018    9:55:23    42.19         15.91        1.38      99.90                 5.81          33.55     2291  34.00765    -118.50015    2018-04-16T16:55:23Z    
4/16/2018    9:55:23    42.19         15.91        1.38      99.91                 5.73          33.55     2292  34.00765    -118.50015    2018-04-16T16:55:23Z    
4/16/2018    9:55:24    42.19         15.91        1.37      99.94                 5.66          33.55     2293  34.00765    -118.50015    2018-04-16T16:55:24Z    
4/16/2018    9:55:24    42.19         15.90        1.34      99.94                 5.54          33.56     2294  34.00765    -118.50015    2018-04-16T16:55:24Z    
4/16/2018    9:55:24    42.19         15.90        1.28      99.90                 5.45          33.56     2295  34.00765    -118.50015    2018-04-16T16:55:24Z    
4/16/2018    9:55:24    42.19         15.90        1.24      99.91                 5.45          33.56     2296  34.00765    -118.50015    2018-04-16T16:55:24Z    
4/16/2018    9:55:24    42.19         15.90        1.17      99.92                 5.59          33.56     2297  34.00765    -118.50015    2018-04-16T16:55:24Z    
4/16/2018    9:55:24    42.19         15.90        1.09      99.93                 5.64          33.56     2298  34.00765    -118.50015    2018-04-16T16:55:24Z    
4/16/2018    9:55:25    42.19         15.90        1.03      99.90                 5.60          33.56     2299  34.00765    -118.50015    2018-04-16T16:55:25Z    
4/16/2018    9:55:25    42.19         15.90        0.95      99.99                 5.52          33.55     2300  34.00765    -118.50015    2018-04-16T16:55:25Z    
4/16/2018    9:55:25    42.19         15.90        0.89      99.99                 5.44          33.55     2301  34.00765    -118.50015    2018-04-16T16:55:25Z    
4/16/2018    9:55:25    42.19         15.91        0.86      99.95                 5.36          33.55     2302  34.00765    -118.50015    2018-04-16T16:55:25Z    
4/16/2018    9:55:25    42.19         15.90        0.87      99.93                 5.28          33.55     2303  34.00765    -118.50015    2018-04-16T16:55:25Z    
4/16/2018    9:55:25    42.18         15.90        0.90      99.95                 5.24          33.55     2304  34.00765    -118.50015    2018-04-16T16:55:25Z    
4/16/2018    9:55:26    42.17         15.90        0.94      99.99                 5.24          33.55     2305  34.00765    -118.50015    2018-04-16T16:55:26Z    
4/16/2018    9:55:26    42.17         15.90        0.98      99.95                 5.24          33.54     2306  34.00765    -118.50015    2018-04-16T16:55:26Z    
4/16/2018    9:55:26    42.17         15.90        1.03      99.91                 5.21          33.54     2307  34.00765    -118.50015    2018-04-16T16:55:26Z    
4/16/2018    9:55:26    42.17         15.89        1.08      99.81                 5.26          33.54     2308  34.00765    -118.50015    2018-04-16T16:55:26Z    
4/16/2018    9:55:26    42.16         15.89        1.12      99.86                 5.25          33.54     2309  34.00765    -118.50015    2018-04-16T16:55:26Z    
4/16/2018    9:55:26    42.16         15.89        1.15      99.81                 5.16          33.55     2310  34.00765    -118.50015    2018-04-16T16:55:26Z    
4/16/2018    9:55:27    42.18         15.88        1.18      99.72                 5.13          33.56     2311  34.00765    -118.50015    2018-04-16T16:55:27Z    
4/16/2018    9:55:27    42.18         15.88        1.20      99.73                 5.12          33.57     2312  34.00765    -118.50015    2018-04-16T16:55:27Z    
4/16/2018    9:55:27    42.18         15.88        1.23      99.76                 5.11          33.57     2313  34.00765    -118.50015    2018-04-16T16:55:27Z    
4/16/2018    9:55:27    42.18         15.88        1.21      99.68                 5.08          33.57     2314  34.00765    -118.50015    2018-04-16T16:55:27Z    
4/16/2018    9:55:27    42.18         15.88        1.22      99.66                 5.10          33.56     2315  34.00765    -118.50015    2018-04-16T16:55:27Z    
4/16/2018    9:55:27    42.18         15.89        1.21      99.63                 5.21          33.56     2316  34.00765    -118.50015    2018-04-16T16:55:27Z    
4/16/2018    9:55:28    42.18         15.89        1.21      99.58                 5.20          33.56     2317  34.00765    -118.50015    2018-04-16T16:55:28Z    
4/16/2018    9:55:28    42.18         15.89        1.19      99.64                 5.21          33.55     2318  34.00765    -118.50015    2018-04-16T16:55:28Z    
4/16/2018    9:55:28    42.18         15.90        1.19      99.58                 5.36          33.55     2319  34.00765    -118.50015    2018-04-16T16:55:28Z    
4/16/2018    9:55:28    42.18         15.90        1.19      99.53                 5.35          33.55     2320  34.00765    -118.50015    2018-04-16T16:55:28Z    
4/16/2018    9:55:28    42.18         15.89        1.21      99.53                 5.26          33.56     2321  34.00765    -118.50015    2018-04-16T16:55:28Z    
4/16/2018    9:55:28    42.18         15.89        1.23      99.53                 5.17          33.56     2322  34.00765    -118.50015    2018-04-16T16:55:28Z    
4/16/2018    9:55:29    42.18         15.89        1.26      99.52                 5.14          33.56     2323  34.00765    -118.50015    2018-04-16T16:55:29Z    
4/16/2018    9:55:29    42.18         15.89        1.28      99.51                 5.09          33.56     2324  34.00765    -118.50015    2018-04-16T16:55:29Z    
4/16/2018    9:55:29    42.18         15.89        1.30      99.50                 5.05          33.56     2325  34.00765    -118.50015    2018-04-16T16:55:29Z    
4/16/2018    9:55:29    42.19         15.90        1.32      99.48                 5.08          33.56     2326  34.00765    -118.50015    2018-04-16T16:55:29Z    
4/16/2018    9:55:29    42.19         15.91        1.33      99.51                 5.10          33.55     2327  34.00765    -118.50015    2018-04-16T16:55:29Z    
4/16/2018    9:55:29    42.19         15.91        1.34      99.55                 5.09          33.55     2328  34.00765    -118.50015    2018-04-16T16:55:29Z    
4/16/2018    9:55:30    42.19         15.91        1.35      99.57                 5.19          33.55     2329  34.00765    -118.50015    2018-04-16T16:55:30Z    
4/16/2018    9:55:30    42.19         15.91        1.34      99.56                 5.22          33.55     2330  34.00765    -118.50015    2018-04-16T16:55:30Z    
4/16/2018    9:55:30    42.19         15.90        1.32      99.63                 5.21          33.56     2331  34.00765    -118.50015    2018-04-16T16:55:30Z    
4/16/2018    9:55:30    42.19         15.90        1.28      99.67                 5.26          33.56     2332  34.00765    -118.50015    2018-04-16T16:55:30Z    
4/16/2018    9:55:30    42.20         15.90        1.24      99.67                 5.30          33.56     2333  34.00765    -118.50015    2018-04-16T16:55:30Z    
4/16/2018    9:55:30    42.18         15.90        1.17      99.69                 5.42          33.55     2334  34.00765    -118.50015    2018-04-16T16:55:30Z    
4/16/2018    9:55:31    42.18         15.90        1.08      99.72                 5.42          33.55     2335  34.00765    -118.50015    2018-04-16T16:55:31Z    
4/16/2018    9:55:31    42.18         15.90        1.00      99.62                 5.55          33.55     2336  34.00765    -118.50015    2018-04-16T16:55:31Z    
4/16/2018    9:55:31    42.18         15.90        0.93      99.63                 5.66          33.55     2337  34.00765    -118.50015    2018-04-16T16:55:31Z    
4/16/2018    9:55:31    42.18         15.89        0.88      99.61                 5.68          33.55     2338  34.00765    -118.50015    2018-04-16T16:55:31Z    
4/16/2018    9:55:31    42.18         15.89        0.81      99.63                 5.75          33.55     2339  34.00765    -118.50015    2018-04-16T16:55:31Z    
4/16/2018    9:55:31    42.18         15.89        0.78      99.68                 5.79          33.56     2340  34.00765    -118.50015    2018-04-16T16:55:31Z    
4/16/2018    9:55:32    42.19         15.89        0.77      99.67                 5.71          33.56     2341  34.00765    -118.50015    2018-04-16T16:55:32Z    
4/16/2018    9:55:32    42.18         15.90        0.76      99.69                 5.65          33.56     2342  34.00765    -118.50015    2018-04-16T16:55:32Z    
4/16/2018    9:55:32    42.19         15.90        0.78      99.69                 5.57          33.56     2343  34.00765    -118.50015    2018-04-16T16:55:32Z    
4/16/2018    9:55:32    42.19         15.92        0.81      99.73                 5.48          33.55     2344  34.00765    -118.50015    2018-04-16T16:55:32Z    
4/16/2018    9:55:32    42.20         15.95        0.86      99.70                 5.45          33.53     2345  34.00765    -118.50015    2018-04-16T16:55:32Z    
4/16/2018    9:55:32    42.22         15.96        0.91      99.81                 5.51          33.53     2346  34.00765    -118.50015    2018-04-16T16:55:32Z    
4/16/2018    9:55:33    42.20         15.94        0.97      99.83                 5.71          33.53     2347  34.00765    -118.50015    2018-04-16T16:55:33Z    
4/16/2018    9:55:33    42.20         15.93        1.02      99.86                 5.85          33.54     2348  34.00765    -118.50015    2018-04-16T16:55:33Z    
4/16/2018    9:55:33    42.18         15.92        1.08      99.94                 5.83          33.53     2349  34.00765    -118.50015    2018-04-16T16:55:33Z    
4/16/2018    9:55:33    42.17         15.91        1.13      100.07                5.76          33.54     2350  34.00765    -118.50015    2018-04-16T16:55:33Z    
4/16/2018    9:55:33    42.18         15.90        1.19      100.10                5.63          33.54     2351  34.00765    -118.50015    2018-04-16T16:55:33Z    
4/16/2018    9:55:33    42.18         15.90        1.24      100.11                5.55          33.55     2352  34.00765    -118.50015    2018-04-16T16:55:33Z    
4/16/2018    9:55:34    42.19         15.90        1.26      100.16                5.59          33.56     2353  34.00765    -118.50015    2018-04-16T16:55:34Z    
4/16/2018    9:55:34    42.19         15.90        1.27      100.09                5.58          33.56     2354  34.00765    -118.50015    2018-04-16T16:55:34Z    
4/16/2018    9:55:34    42.19         15.90        1.28      100.15                5.57          33.56     2355  34.00765    -118.50015    2018-04-16T16:55:34Z    
4/16/2018    9:55:34    42.19         15.90        1.29      100.13                5.50          33.56     2356  34.00765    -118.50015    2018-04-16T16:55:34Z    
4/16/2018    9:55:34    42.19         15.90        1.26      100.14                5.47          33.56     2357  34.00765    -118.50015    2018-04-16T16:55:34Z    
4/16/2018    9:55:34    42.19         15.90        1.24      100.17                5.48          33.56     2358  34.00765    -118.50015    2018-04-16T16:55:34Z    
4/16/2018    9:55:35    42.19         15.90        1.21      100.14                5.45          33.55     2359  34.00765    -118.50015    2018-04-16T16:55:35Z    
4/16/2018    9:55:35    42.19         15.90        1.17      100.06                5.42          33.55     2360  34.00765    -118.50015    2018-04-16T16:55:35Z    
4/16/2018    9:55:35    42.19         15.90        1.12      100.11                5.42          33.56     2361  34.00765    -118.50015    2018-04-16T16:55:35Z    
4/16/2018    9:55:35    42.19         15.91        1.08      100.14                5.46          33.56     2362  34.00765    -118.50015    2018-04-16T16:55:35Z    
4/16/2018    9:55:35    42.20         15.91        1.02      100.08                5.48          33.56     2363  34.00765    -118.50015    2018-04-16T16:55:35Z    
4/16/2018    9:55:35    42.20         15.91        0.97      100.10                5.51          33.56     2364  34.00765    -118.50015    2018-04-16T16:55:35Z    
4/16/2018    9:55:36    42.19         15.91        0.91      100.11                5.52          33.55     2365  34.00765    -118.50015    2018-04-16T16:55:36Z    
4/16/2018    9:55:36    42.19         15.91        0.87      100.14                5.44          33.55     2366  34.00765    -118.50015    2018-04-16T16:55:36Z    
4/16/2018    9:55:36    42.19         15.91        0.84      100.12                5.35          33.55     2367  34.00765    -118.50015    2018-04-16T16:55:36Z    
4/16/2018    9:55:36    42.19         15.91        0.82      100.12                5.36          33.55     2368  34.00765    -118.50015    2018-04-16T16:55:36Z    
4/16/2018    9:55:36    42.19         15.91        0.82      100.12                5.40          33.55     2369  34.00765    -118.50015    2018-04-16T16:55:36Z    
4/16/2018    9:55:36    42.19         15.92        0.82      100.04                5.41          33.55     2370  34.00765    -118.50015    2018-04-16T16:55:36Z    
4/16/2018    9:55:37    42.19         15.92        0.84      100.04                5.49          33.54     2371  34.00765    -118.50015    2018-04-16T16:55:37Z    
4/16/2018    9:55:37    42.19         15.92        0.84      100.04                5.71          33.54     2372  34.00765    -118.50015    2018-04-16T16:55:37Z    
4/16/2018    9:55:37    42.19         15.91        0.86      100.13                5.88          33.55     2373  34.00765    -118.50015    2018-04-16T16:55:37Z    
4/16/2018    9:55:37    42.19         15.90        0.88      100.09                5.82          33.55     2374  34.00765    -118.50015    2018-04-16T16:55:37Z    
4/16/2018    9:55:37    42.18         15.91        0.89      100.03                5.71          33.55     2375  34.00765    -118.50015    2018-04-16T16:55:37Z    
4/16/2018    9:55:37    42.18         15.91        0.91      100.05                5.63          33.54     2376  34.00765    -118.50015    2018-04-16T16:55:37Z    
4/16/2018    9:55:38    42.19         15.92        0.94      100.04                5.55          33.54     2377  34.00765    -118.50015    2018-04-16T16:55:38Z    
4/16/2018    9:55:38    42.19         15.92        0.97      100.05                5.49          33.54     2378  34.00765    -118.50015    2018-04-16T16:55:38Z    
4/16/2018    9:55:38    42.18         15.91        1.00      100.07                5.40          33.54     2379  34.00765    -118.50015    2018-04-16T16:55:38Z    
4/16/2018    9:55:38    42.18         15.91        1.03      100.07                5.33          33.54     2380  34.00765    -118.50015    2018-04-16T16:55:38Z    
4/16/2018    9:55:38    42.18         15.91        1.07      100.10                5.32          33.54     2381  34.00765    -118.50015    2018-04-16T16:55:38Z    
4/16/2018    9:55:38    42.18         15.90        1.11      100.13                5.30          33.55     2382  34.00765    -118.50015    2018-04-16T16:55:38Z    
4/16/2018    9:55:39    42.18         15.89        1.16      100.15                5.26          33.56     2383  34.00765    -118.50015    2018-04-16T16:55:39Z    
4/16/2018    9:55:39    42.18         15.88        1.18      100.14                5.24          33.57     2384  34.00765    -118.50015    2018-04-16T16:55:39Z    
4/16/2018    9:55:39    42.18         15.89        1.21      100.17                5.21          33.56     2385  34.00765    -118.50015    2018-04-16T16:55:39Z    
4/16/2018    9:55:39    42.18         15.89        1.23      100.13                5.18          33.56     2386  34.00765    -118.50015    2018-04-16T16:55:39Z    
4/16/2018    9:55:39    42.18         15.89        1.25      100.15                5.12          33.56     2387  34.00765    -118.50015    2018-04-16T16:55:39Z    
4/16/2018    9:55:39    42.18         15.89        1.25      100.14                5.13          33.56     2388  34.00765    -118.50015    2018-04-16T16:55:39Z    
4/16/2018    9:55:40    42.18         15.89        1.25      100.16                5.49          33.56     2389  34.00765    -118.50015    2018-04-16T16:55:40Z    
4/16/2018    9:55:40    42.18         15.89        1.24      100.11                5.63          33.56     2390  34.00765    -118.50015    2018-04-16T16:55:40Z    
4/16/2018    9:55:40    42.18         15.89        1.24      100.12                5.57          33.56     2391  34.00765    -118.50015    2018-04-16T16:55:40Z    
4/16/2018    9:55:40    42.18         15.89        1.25      100.13                5.48          33.56     2392  34.00765    -118.50015    2018-04-16T16:55:40Z    
4/16/2018    9:55:40    42.18         15.89        1.23      100.06                5.43          33.56     2393  34.00765    -118.50015    2018-04-16T16:55:40Z    
4/16/2018    9:55:40    42.18         15.89        1.22      100.03                5.41          33.56     2394  34.00765    -118.50015    2018-04-16T16:55:40Z    
4/16/2018    9:55:41    42.18         15.89        1.22      100.04                5.37          33.56     2395  34.00765    -118.50015    2018-04-16T16:55:41Z    
4/16/2018    9:55:41    42.18         15.90        1.20      100.11                5.35          33.56     2396  34.00765    -118.50015    2018-04-16T16:55:41Z    
4/16/2018    9:55:41    42.18         15.90        1.18      100.06                5.33          33.55     2397  34.00765    -118.50015    2018-04-16T16:55:41Z    
4/16/2018    9:55:41    42.18         15.90        1.16      100.04                5.29          33.55     2398  34.00765    -118.50015    2018-04-16T16:55:41Z    
4/16/2018    9:55:41    42.19         15.90        1.15      100.06                5.25          33.55     2399  34.00765    -118.50015    2018-04-16T16:55:41Z    
4/16/2018    9:55:41    42.19         15.90        1.14      100.02                5.24          33.55     2400  34.00765    -118.50015    2018-04-16T16:55:41Z    
4/16/2018    9:55:42    42.19         15.90        1.12      100.06                5.22          33.55     2401  34.00765    -118.50015    2018-04-16T16:55:42Z    
4/16/2018    9:55:42    42.19         15.90        1.10      100.03                5.32          33.55     2402  34.00765    -118.50015    2018-04-16T16:55:42Z    
4/16/2018    9:55:42    42.19         15.90        1.08      100.01                5.36          33.56     2403  34.00765    -118.50015    2018-04-16T16:55:42Z    
4/16/2018    9:55:42    42.19         15.90        1.06      100.08                5.34          33.55     2404  34.00765    -118.50015    2018-04-16T16:55:42Z    
4/16/2018    9:55:42    42.19         15.90        1.03      100.11                5.37          33.55     2405  34.00765    -118.50015    2018-04-16T16:55:42Z    
4/16/2018    9:55:42    42.19         15.90        1.01      100.09                5.41          33.55     2406  34.00765    -118.50015    2018-04-16T16:55:42Z    
4/16/2018    9:55:43    42.19         15.91        1.02      100.11                5.41          33.55     2407  34.00765    -118.50015    2018-04-16T16:55:43Z    
4/16/2018    9:55:43    42.19         15.91        1.02      100.09                5.38          33.55     2408  34.00765    -118.50015    2018-04-16T16:55:43Z    
4/16/2018    9:55:43    42.19         15.91        1.03      100.08                5.47          33.55     2409  34.00765    -118.50015    2018-04-16T16:55:43Z    
4/16/2018    9:55:43    42.19         15.91        1.05      100.09                5.49          33.55     2410  34.00765    -118.50015    2018-04-16T16:55:43Z    
4/16/2018    9:55:43    42.19         15.91        1.06      100.03                5.48          33.55     2411  34.00765    -118.50015    2018-04-16T16:55:43Z    
4/16/2018    9:55:43    42.19         15.91        1.08      100.10                5.49          33.55     2412  34.00765    -118.50015    2018-04-16T16:55:43Z    
4/16/2018    9:55:44    42.19         15.91        1.09      100.13                5.47          33.55     2413  34.00765    -118.50015    2018-04-16T16:55:44Z    
4/16/2018    9:55:44    42.19         15.91        1.11      100.13                5.49          33.55     2414  34.00765    -118.50015    2018-04-16T16:55:44Z    
4/16/2018    9:55:44    42.19         15.91        1.12      100.12                5.48          33.55     2415  34.00765    -118.50015    2018-04-16T16:55:44Z    
4/16/2018    9:55:44    42.19         15.91        1.13      100.18                5.52          33.55     2416  34.00765    -118.50015    2018-04-16T16:55:44Z    
4/16/2018    9:55:44    42.19         15.90        1.15      100.21                5.52          33.56     2417  34.00765    -118.50015    2018-04-16T16:55:44Z    
4/16/2018    9:55:44    42.19         15.90        1.14      100.21                5.52          33.56     2418  34.00765    -118.50015    2018-04-16T16:55:44Z    
4/16/2018    9:55:45    42.19         15.89        1.13      100.29                5.53          33.56     2419  34.00765    -118.50015    2018-04-16T16:55:45Z    
4/16/2018    9:55:45    42.19         15.90        1.10      100.27                5.61          33.56     2420  34.00765    -118.50015    2018-04-16T16:55:45Z    
4/16/2018    9:55:45    42.19         15.90        1.05      100.27                5.63          33.56     2421  34.00765    -118.50015    2018-04-16T16:55:45Z    
4/16/2018    9:55:45    42.19         15.90        1.02      100.35                5.56          33.56     2422  34.00765    -118.50015    2018-04-16T16:55:45Z    
4/16/2018    9:55:45    42.19         15.90        0.98      100.36                5.54          33.56     2423  34.00765    -118.50015    2018-04-16T16:55:45Z    
4/16/2018    9:55:45    42.19         15.90        0.98      100.35                5.56          33.56     2424  34.00765    -118.50015    2018-04-16T16:55:45Z    
4/16/2018    9:55:46    42.19         15.90        0.98      100.39                5.54          33.56     2425  34.00765    -118.50015    2018-04-16T16:55:46Z    
4/16/2018    9:55:46    42.19         15.90        1.00      100.45                5.55          33.56     2426  34.00765    -118.50015    2018-04-16T16:55:46Z    
4/16/2018    9:55:46    42.18         15.90        1.05      100.43                5.52          33.55     2427  34.00765    -118.50015    2018-04-16T16:55:46Z    
4/16/2018    9:55:46    42.18         15.90        1.08      100.48                5.44          33.55     2428  34.00765    -118.50015    2018-04-16T16:55:46Z    
4/16/2018    9:55:46    42.18         15.90        1.12      100.50                5.46          33.55     2429  34.00765    -118.50015    2018-04-16T16:55:46Z    
4/16/2018    9:55:46    42.18         15.90        1.17      100.51                5.59          33.55     2430  34.00765    -118.50015    2018-04-16T16:55:46Z    
4/16/2018    9:55:47    42.17         15.90        1.20      100.52                5.67          33.55     2431  34.00765    -118.50015    2018-04-16T16:55:47Z    
4/16/2018    9:55:47    42.17         15.90        1.22      100.47                5.59          33.55     2432  34.00765    -118.50015    2018-04-16T16:55:47Z    
4/16/2018    9:55:47    42.17         15.90        1.21      100.41                5.60          33.55     2433  34.00765    -118.50015    2018-04-16T16:55:47Z    
4/16/2018    9:55:47    42.17         15.90        1.23      100.37                5.84          33.55     2434  34.00765    -118.50015    2018-04-16T16:55:47Z    
4/16/2018    9:55:47    42.17         15.89        1.22      100.37                6.01          33.55     2435  34.00765    -118.50015    2018-04-16T16:55:47Z    
4/16/2018    9:55:47    42.18         15.89        1.20      100.34                5.96          33.55     2436  34.00765    -118.50015    2018-04-16T16:55:47Z    
4/16/2018    9:55:48    42.17         15.88        1.18      100.33                5.81          33.56     2437  34.00765    -118.50015    2018-04-16T16:55:48Z    
4/16/2018    9:55:48    42.16         15.86        1.16      100.38                5.69          33.56     2438  34.00765    -118.50015    2018-04-16T16:55:48Z    
4/16/2018    9:55:48    42.15         15.87        1.13      100.34                5.57          33.55     2439  34.00765    -118.50015    2018-04-16T16:55:48Z    
4/16/2018    9:55:48    42.15         15.87        1.11      100.32                5.51          33.54     2440  34.00765    -118.50015    2018-04-16T16:55:48Z    
4/16/2018    9:55:48    42.15         15.87        1.10      100.26                5.49          33.54     2441  34.00765    -118.50015    2018-04-16T16:55:48Z    
4/16/2018    9:55:48    42.15         15.87        1.10      100.31                5.49          33.54     2442  34.00765    -118.50015    2018-04-16T16:55:48Z    
4/16/2018    9:55:49    42.15         15.87        1.12      100.30                5.47          33.54     2443  34.00765    -118.50015    2018-04-16T16:55:49Z    
4/16/2018    9:55:49    42.14         15.87        1.14      100.31                5.51          33.55     2444  34.00765    -118.50015    2018-04-16T16:55:49Z    
4/16/2018    9:55:49    42.14         15.86        1.17      100.34                5.56          33.56     2445  34.00765    -118.50015    2018-04-16T16:55:49Z    
4/16/2018    9:55:49    42.14         15.85        1.20      100.38                5.63          33.56     2446  34.00765    -118.50015    2018-04-16T16:55:49Z    
4/16/2018    9:55:49    42.14         15.85        1.22      100.35                5.73          33.56     2447  34.00765    -118.50015    2018-04-16T16:55:49Z    
4/16/2018    9:55:49    42.14         15.86        1.24      100.33                5.67          33.56     2448  34.00765    -118.50015    2018-04-16T16:55:49Z    
4/16/2018    9:55:50    42.14         15.86        1.25      100.26                5.90          33.56     2449  34.00765    -118.50015    2018-04-16T16:55:50Z    
4/16/2018    9:55:50    42.14         15.86        1.25      100.27                5.87          33.55     2450  34.00765    -118.50015    2018-04-16T16:55:50Z    
4/16/2018    9:55:50    42.14         15.86        1.26      100.22                5.73          33.56     2451  34.00765    -118.50015    2018-04-16T16:55:50Z    
4/16/2018    9:55:50    42.14         15.85        1.25      100.21                5.64          33.56     2452  34.00765    -118.50015    2018-04-16T16:55:50Z    
4/16/2018    9:55:50    42.14         15.86        1.23      100.16                5.55          33.55     2453  34.00765    -118.50015    2018-04-16T16:55:50Z    
4/16/2018    9:55:50    42.15         15.87        1.21      100.07                5.54          33.55     2454  34.00765    -118.50015    2018-04-16T16:55:50Z    
4/16/2018    9:55:51    42.16         15.88        1.20      100.05                5.53          33.55     2455  34.00765    -118.50015    2018-04-16T16:55:51Z    
4/16/2018    9:55:51    42.17         15.89        1.17      99.98                 5.55          33.55     2456  34.00765    -118.50015    2018-04-16T16:55:51Z    
4/16/2018    9:55:51    42.17         15.89        1.16      100.01                5.51          33.55     2457  34.00765    -118.50015    2018-04-16T16:55:51Z    
4/16/2018    9:55:51    42.18         15.89        1.12      99.95                 5.44          33.56     2458  34.00765    -118.50015    2018-04-16T16:55:51Z    
4/16/2018    9:55:51    42.18         15.89        1.09      99.89                 5.57          33.56     2459  34.00765    -118.50015    2018-04-16T16:55:51Z    
4/16/2018    9:55:51    42.18         15.89        1.06      100.00                5.65          33.56     2460  34.00765    -118.50015    2018-04-16T16:55:51Z    
4/16/2018    9:55:52    42.18         15.89        1.04      100.00                5.73          33.56     2461  34.00765    -118.50015    2018-04-16T16:55:52Z    
4/16/2018    9:55:52    42.18         15.89        1.04      99.95                 5.72          33.55     2462  34.00765    -118.50015    2018-04-16T16:55:52Z    
4/16/2018    9:55:52    42.17         15.89        1.05      99.97                 5.83          33.55     2463  34.00765    -118.50015    2018-04-16T16:55:52Z    
4/16/2018    9:55:52    42.17         15.89        1.07      99.90                 5.74          33.54     2464  34.00765    -118.50015    2018-04-16T16:55:52Z    
4/16/2018    9:55:52    42.17         15.90        1.11      99.93                 5.80          33.54     2465  34.00765    -118.50015    2018-04-16T16:55:52Z    
4/16/2018    9:55:52    42.16         15.90        1.13      99.98                 5.88          33.53     2466  34.00765    -118.50015    2018-04-16T16:55:52Z    
4/16/2018    9:55:53    42.16         15.90        1.16      100.00                5.97          33.54     2467  34.00765    -118.50015    2018-04-16T16:55:53Z    
4/16/2018    9:55:53    42.17         15.90        1.18      99.99                 5.99          33.54     2468  34.00765    -118.50015    2018-04-16T16:55:53Z    
4/16/2018    9:55:53    42.17         15.89        1.19      99.93                 5.93          33.54     2469  34.00765    -118.50015    2018-04-16T16:55:53Z    
4/16/2018    9:55:53    42.17         15.89        1.19      99.98                 5.94          33.55     2470  34.00765    -118.50015    2018-04-16T16:55:53Z    
4/16/2018    9:55:53    42.17         15.89        1.20      100.00                5.95          33.55     2471  34.00765    -118.50015    2018-04-16T16:55:53Z    
4/16/2018    9:55:53    42.17         15.89        1.15      100.03                5.96          33.55     2472  34.00765    -118.50015    2018-04-16T16:55:53Z    
4/16/2018    9:55:54    42.17         15.89        1.12      99.99                 5.81          33.55     2473  34.00765    -118.50015    2018-04-16T16:55:54Z    
4/16/2018    9:55:54    42.17         15.89        1.10      100.01                5.72          33.55     2474  34.00765    -118.50015    2018-04-16T16:55:54Z    
4/16/2018    9:55:54    42.17         15.89        1.06      100.03                5.69          33.55     2475  34.00765    -118.50015    2018-04-16T16:55:54Z    
4/16/2018    9:55:54    42.17         15.89        1.02      100.03                5.64          33.55     2476  34.00765    -118.50015    2018-04-16T16:55:54Z    
4/16/2018    9:55:54    42.17         15.90        1.01      100.00                5.63          33.55     2477  34.00765    -118.50015    2018-04-16T16:55:54Z    
4/16/2018    9:55:54    42.17         15.90        1.00      100.00                5.86          33.55     2478  34.00765    -118.50015    2018-04-16T16:55:54Z    
4/16/2018    9:55:55    42.17         15.90        1.00      99.99                 5.87          33.55     2479  34.00765    -118.50015    2018-04-16T16:55:55Z    
4/16/2018    9:55:55    42.17         15.90        1.01      100.02                5.77          33.54     2480  34.00765    -118.50015    2018-04-16T16:55:55Z    
4/16/2018    9:55:55    42.17         15.90        1.02      100.02                5.64          33.54     2481  34.00765    -118.50015    2018-04-16T16:55:55Z    
4/16/2018    9:55:55    42.17         15.90        1.03      100.02                5.54          33.54     2482  34.00765    -118.50015    2018-04-16T16:55:55Z    
4/16/2018    9:55:55    42.18         15.90        1.05      100.00                5.47          33.54     2483  34.00765    -118.50015    2018-04-16T16:55:55Z    
4/16/2018    9:55:55    42.17         15.91        1.07      100.02                5.44          33.54     2484  34.00765    -118.50015    2018-04-16T16:55:55Z    
4/16/2018    9:55:56    42.17         15.90        1.08      100.00                5.39          33.54     2485  34.00765    -118.50015    2018-04-16T16:55:56Z    
4/16/2018    9:55:56    42.17         15.90        1.10      100.02                5.37          33.54     2486  34.00765    -118.50015    2018-04-16T16:55:56Z    
4/16/2018    9:55:56    42.18         15.90        1.11      100.13                5.36          33.55     2487  34.00765    -118.50015    2018-04-16T16:55:56Z    
4/16/2018    9:55:56    42.18         15.90        1.13      100.07                5.41          33.56     2488  34.00765    -118.50015    2018-04-16T16:55:56Z    
4/16/2018    9:55:56    42.18         15.90        1.13      100.13                5.58          33.56     2489  34.00765    -118.50015    2018-04-16T16:55:56Z    
4/16/2018    9:55:56    42.18         15.90        1.13      100.05                5.58          33.55     2490  34.00765    -118.50015    2018-04-16T16:55:56Z    
4/16/2018    9:55:57    42.18         15.90        1.14      100.04                5.56          33.55     2491  34.00765    -118.50015    2018-04-16T16:55:57Z    
4/16/2018    9:55:57    42.18         15.90        1.14      100.12                5.48          33.55     2492  34.00765    -118.50015    2018-04-16T16:55:57Z    
4/16/2018    9:55:57    42.18         15.90        1.14      100.10                5.43          33.55     2493  34.00765    -118.50015    2018-04-16T16:55:57Z    
4/16/2018    9:55:57    42.18         15.90        1.13      100.14                5.70          33.55     2494  34.00765    -118.50015    2018-04-16T16:55:57Z    
4/16/2018    9:55:57    42.18         15.90        1.12      100.12                5.78          33.55     2495  34.00765    -118.50015    2018-04-16T16:55:57Z    
4/16/2018    9:55:57    42.18         15.90        1.09      100.16                5.75          33.55     2496  34.00765    -118.50015    2018-04-16T16:55:57Z    
4/16/2018    9:55:58    42.18         15.91        1.06      100.18                5.67          33.55     2497  34.00765    -118.50015    2018-04-16T16:55:58Z    
4/16/2018    9:55:58    42.19         15.91        1.03      100.20                5.57          33.55     2498  34.00765    -118.50015    2018-04-16T16:55:58Z    
4/16/2018    9:55:58    42.19         15.91        1.01      100.22                5.48          33.55     2499  34.00765    -118.50015    2018-04-16T16:55:58Z    
4/16/2018    9:55:58    42.19         15.91        1.01      100.22                5.43          33.54     2500  34.00765    -118.50015    2018-04-16T16:55:58Z    
4/16/2018    9:55:58    42.19         15.91        1.02      100.16                5.51          33.55     2501  34.00765    -118.50015    2018-04-16T16:55:58Z    
4/16/2018    9:55:58    42.18         15.91        1.03      100.24                5.54          33.54     2502  34.00765    -118.50015    2018-04-16T16:55:58Z    
4/16/2018    9:55:59    42.18         15.91        1.05      100.26                5.57          33.54     2503  34.00765    -118.50015    2018-04-16T16:55:59Z    
4/16/2018    9:55:59    42.18         15.90        1.06      100.30                5.75          33.55     2504  34.00765    -118.50015    2018-04-16T16:55:59Z    
4/16/2018    9:55:59    42.17         15.89        1.08      100.34                5.96          33.55     2505  34.00765    -118.50015    2018-04-16T16:55:59Z    
4/16/2018    9:55:59    42.17         15.88        1.10      100.36                6.01          33.56     2506  34.00765    -118.50015    2018-04-16T16:55:59Z    
4/16/2018    9:55:59    42.17         15.88        1.12      100.39                5.90          33.56     2507  34.00765    -118.50015    2018-04-16T16:55:59Z    
4/16/2018    9:55:59    42.17         15.88        1.10      100.44                5.82          33.56     2508  34.00765    -118.50015    2018-04-16T16:55:59Z    
4/16/2018    9:56:00    42.17         15.88        1.11      100.39                5.74          33.56     2509  34.00765    -118.50015    2018-04-16T16:56:00Z    
4/16/2018    9:56:00    42.17         15.88        1.10      100.41                5.64          33.56     2510  34.00765    -118.50015    2018-04-16T16:56:00Z    
4/16/2018    9:56:00    42.17         15.88        1.09      100.46                5.77          33.56     2511  34.00765    -118.50015    2018-04-16T16:56:00Z    
4/16/2018    9:56:00    42.16         15.87        1.09      100.53                5.77          33.56     2512  34.00765    -118.50015    2018-04-16T16:56:00Z    
4/16/2018    9:56:00    42.16         15.87        1.09      100.46                5.64          33.56     2513  34.00765    -118.50015    2018-04-16T16:56:00Z    
4/16/2018    9:56:00    42.16         15.87        1.11      100.38                5.57          33.56     2514  34.00765    -118.50015    2018-04-16T16:56:00Z    
4/16/2018    9:56:01    42.16         15.87        1.12      100.38                5.47          33.56     2515  34.00765    -118.50015    2018-04-16T16:56:01Z    
4/16/2018    9:56:01    42.15         15.87        1.12      100.38                5.43          33.55     2516  34.00765    -118.50015    2018-04-16T16:56:01Z    
4/16/2018    9:56:01    42.15         15.86        1.14      100.42                5.42          33.55     2517  34.00765    -118.50015    2018-04-16T16:56:01Z    
4/16/2018    9:56:01    42.15         15.86        1.15      100.42                5.42          33.55     2518  34.00765    -118.50015    2018-04-16T16:56:01Z    
4/16/2018    9:56:01    42.15         15.86        1.15      100.42                5.42          33.55     2519  34.00765    -118.50015    2018-04-16T16:56:01Z    
4/16/2018    9:56:01    42.15         15.86        1.17      100.43                5.31          33.56     2520  34.00765    -118.50015    2018-04-16T16:56:01Z    
4/16/2018    9:56:02    42.15         15.86        1.16      100.45                5.28          33.56     2521  34.00765    -118.50015    2018-04-16T16:56:02Z    
4/16/2018    9:56:02    42.15         15.86        1.17      100.40                5.27          33.56     2522  34.00765    -118.50015    2018-04-16T16:56:02Z    
4/16/2018    9:56:02    42.15         15.86        1.17      100.36                5.24          33.56     2523  34.00765    -118.50015    2018-04-16T16:56:02Z    
4/16/2018    9:56:02    42.15         15.86        1.18      100.37                5.30          33.56     2524  34.00765    -118.50015    2018-04-16T16:56:02Z    
4/16/2018    9:56:02    42.15         15.86        1.19      100.29                5.39          33.56     2525  34.00765    -118.50015    2018-04-16T16:56:02Z    
4/16/2018    9:56:02    42.15         15.86        1.21      100.24                5.68          33.56     2526  34.00765    -118.50015    2018-04-16T16:56:02Z    
4/16/2018    9:56:03    42.14         15.86        1.22      100.21                6.01          33.55     2527  34.00765    -118.50015    2018-04-16T16:56:03Z    
4/16/2018    9:56:03    42.14         15.86        1.25      100.17                6.09          33.55     2528  34.00765    -118.50015    2018-04-16T16:56:03Z    
4/16/2018    9:56:03    42.14         15.86        1.28      100.19                5.95          33.55     2529  34.00765    -118.50015    2018-04-16T16:56:03Z    
4/16/2018    9:56:03    42.14         15.86        1.28      100.23                5.77          33.55     2530  34.00765    -118.50015    2018-04-16T16:56:03Z    
4/16/2018    9:56:03    42.14         15.86        1.28      100.20                5.58          33.55     2531  34.00765    -118.50015    2018-04-16T16:56:03Z    
4/16/2018    9:56:03    42.14         15.86        1.27      100.17                5.39          33.55     2532  34.00765    -118.50015    2018-04-16T16:56:03Z    
4/16/2018    9:56:04    42.14         15.86        1.24      100.11                5.31          33.55     2533  34.00765    -118.50015    2018-04-16T16:56:04Z    
4/16/2018    9:56:04    42.14         15.86        1.23      100.08                5.34          33.55     2534  34.00765    -118.50015    2018-04-16T16:56:04Z    
4/16/2018    9:56:04    42.14         15.86        1.18      100.03                5.44          33.55     2535  34.00765    -118.50015    2018-04-16T16:56:04Z    
4/16/2018    9:56:04    42.14         15.86        1.15      100.00                5.56          33.56     2536  34.00765    -118.50015    2018-04-16T16:56:04Z    
4/16/2018    9:56:04    42.14         15.86        1.10      99.89                 5.46          33.56     2537  34.00765    -118.50015    2018-04-16T16:56:04Z    
4/16/2018    9:56:04    42.15         15.86        1.06      99.81                 5.38          33.56     2538  34.00765    -118.50015    2018-04-16T16:56:04Z    
4/16/2018    9:56:05    42.15         15.86        1.02      99.74                 5.34          33.56     2539  34.00765    -118.50015    2018-04-16T16:56:05Z    
4/16/2018    9:56:05    42.15         15.86        0.97      99.64                 5.28          33.56     2540  34.00765    -118.50015    2018-04-16T16:56:05Z    
4/16/2018    9:56:05    42.15         15.86        0.96      99.54                 5.30          33.56     2541  34.00765    -118.50015    2018-04-16T16:56:05Z    
4/16/2018    9:56:05    42.15         15.86        0.92      99.50                 5.35          33.55     2542  34.00765    -118.50015    2018-04-16T16:56:05Z    
4/16/2018    9:56:05    42.15         15.87        0.89      99.48                 5.39          33.55     2543  34.00765    -118.50015    2018-04-16T16:56:05Z    
4/16/2018    9:56:05    42.15         15.86        0.87      99.45                 5.37          33.55     2544  34.00765    -118.50015    2018-04-16T16:56:05Z    
4/16/2018    9:56:06    42.15         15.87        0.86      99.48                 5.32          33.55     2545  34.00765    -118.50015    2018-04-16T16:56:06Z    
4/16/2018    9:56:06    42.16         15.89        0.86      99.40                 5.36          33.54     2546  34.00765    -118.50015    2018-04-16T16:56:06Z    
4/16/2018    9:56:06    42.17         15.91        0.86      99.34                 5.45          33.53     2547  34.00765    -118.50015    2018-04-16T16:56:06Z    
4/16/2018    9:56:06    42.18         15.90        0.88      99.33                 5.48          33.55     2548  34.00765    -118.50015    2018-04-16T16:56:06Z    
4/16/2018    9:56:06    42.18         15.90        0.92      99.40                 5.49          33.56     2549  34.00765    -118.50015    2018-04-16T16:56:06Z    
4/16/2018    9:56:06    42.18         15.90        0.94      99.48                 5.55          33.55     2550  34.00765    -118.50015    2018-04-16T16:56:06Z    
4/16/2018    9:56:07    42.17         15.90        0.99      99.64                 5.64          33.54     2551  34.00765    -118.50015    2018-04-16T16:56:07Z    
4/16/2018    9:56:07    42.17         15.90        1.03      99.79                 5.63          33.54     2552  34.00765    -118.50015    2018-04-16T16:56:07Z    
4/16/2018    9:56:07    42.16         15.90        1.08      99.97                 5.60          33.54     2553  34.00765    -118.50015    2018-04-16T16:56:07Z    
4/16/2018    9:56:07    42.16         15.90        1.11      100.13                5.56          33.54     2554  34.00765    -118.50015    2018-04-16T16:56:07Z    
4/16/2018    9:56:07    42.15         15.89        1.13      100.29                5.54          33.53     2555  34.00765    -118.50015    2018-04-16T16:56:07Z    
4/16/2018    9:56:07    42.15         15.90        1.16      100.37                5.47          33.52     2556  34.00765    -118.50015    2018-04-16T16:56:07Z    
4/16/2018    9:56:08    42.14         15.89        1.16      100.46                5.39          33.52     2557  34.00765    -118.50015    2018-04-16T16:56:08Z    
4/16/2018    9:56:08    42.15         15.88        1.14      100.47                5.34          33.54     2558  34.00765    -118.50015    2018-04-16T16:56:08Z    
4/16/2018    9:56:08    42.15         15.87        1.12      100.53                5.36          33.55     2559  34.00765    -118.50015    2018-04-16T16:56:08Z    
4/16/2018    9:56:08    42.15         15.88        1.10      100.54                5.40          33.54     2560  34.00765    -118.50015    2018-04-16T16:56:08Z    
4/16/2018    9:56:08    42.17         15.89        1.04      100.51                5.41          33.54     2561  34.00765    -118.50015    2018-04-16T16:56:08Z    
4/16/2018    9:56:08    42.18         15.89        1.00      100.54                5.36          33.55     2562  34.00765    -118.50015    2018-04-16T16:56:08Z    
4/16/2018    9:56:09    42.18         15.89        0.95      100.55                5.26          33.55     2563  34.00765    -118.50015    2018-04-16T16:56:09Z    
4/16/2018    9:56:09    42.17         15.89        0.93      100.50                5.26          33.55     2564  34.00765    -118.50015    2018-04-16T16:56:09Z    
4/16/2018    9:56:09    42.17         15.89        0.93      100.47                5.37          33.54     2565  34.00765    -118.50015    2018-04-16T16:56:09Z    
4/16/2018    9:56:09    42.18         15.90        0.94      100.39                5.49          33.54     2566  34.00765    -118.50015    2018-04-16T16:56:09Z    
4/16/2018    9:56:09    42.18         15.91        0.97      100.45                5.52          33.54     2567  34.00765    -118.50015    2018-04-16T16:56:09Z    
4/16/2018    9:56:09    42.18         15.91        1.00      100.39                5.54          33.55     2568  34.00765    -118.50015    2018-04-16T16:56:09Z    
4/16/2018    9:56:10    42.19         15.90        1.02      100.41                5.58          33.55     2569  34.00765    -118.50015    2018-04-16T16:56:10Z    
4/16/2018    9:56:10    42.16         15.90        1.07      100.48                5.52          33.53     2570  34.00765    -118.50015    2018-04-16T16:56:10Z    
4/16/2018    9:56:10    42.15         15.90        1.10      100.46                5.43          33.53     2571  34.00765    -118.50015    2018-04-16T16:56:10Z    
4/16/2018    9:56:10    42.15         15.90        1.14      100.55                5.40          33.53     2572  34.00765    -118.50015    2018-04-16T16:56:10Z    
4/16/2018    9:56:10    42.15         15.90        1.17      100.50                5.45          33.52     2573  34.00765    -118.50015    2018-04-16T16:56:10Z    
4/16/2018    9:56:10    42.15         15.90        1.20      100.48                5.56          33.53     2574  34.00765    -118.50015    2018-04-16T16:56:10Z    
4/16/2018    9:56:11    42.15         15.90        1.21      100.53                5.65          33.53     2575  34.00765    -118.50015    2018-04-16T16:56:11Z    
4/16/2018    9:56:11    42.15         15.89        1.23      100.56                5.64          33.54     2576  34.00765    -118.50015    2018-04-16T16:56:11Z    
4/16/2018    9:56:11    42.16         15.88        1.23      100.52                5.57          33.55     2577  34.00765    -118.50015    2018-04-16T16:56:11Z    
4/16/2018    9:56:11    42.17         15.88        1.23      100.57                5.62          33.56     2578  34.00765    -118.50015    2018-04-16T16:56:11Z    
4/16/2018    9:56:11    42.17         15.87        1.23      100.59                5.58          33.57     2579  34.00765    -118.50015    2018-04-16T16:56:11Z    
4/16/2018    9:56:11    42.17         15.88        1.21      100.51                5.53          33.56     2580  34.00765    -118.50015    2018-04-16T16:56:11Z    
4/16/2018    9:56:12    42.17         15.88        1.20      100.57                5.47          33.56     2581  34.00765    -118.50015    2018-04-16T16:56:12Z    
4/16/2018    9:56:12    42.16         15.88        1.20      100.57                5.41          33.55     2582  34.00765    -118.50015    2018-04-16T16:56:12Z    
4/16/2018    9:56:12    42.16         15.88        1.19      100.49                5.36          33.55     2583  34.00765    -118.50015    2018-04-16T16:56:12Z    
4/16/2018    9:56:12    42.15         15.87        1.20      100.47                5.37          33.55     2584  34.00765    -118.50015    2018-04-16T16:56:12Z    
4/16/2018    9:56:12    42.15         15.87        1.21      100.45                5.45          33.55     2585  34.00765    -118.50015    2018-04-16T16:56:12Z    
4/16/2018    9:56:12    42.15         15.87        1.23      100.39                5.42          33.56     2586  34.00765    -118.50015    2018-04-16T16:56:12Z    
4/16/2018    9:56:13    42.15         15.87        1.23      100.27                5.35          33.56     2587  34.00765    -118.50015    2018-04-16T16:56:13Z    
4/16/2018    9:56:13    42.15         15.87        1.22      100.19                5.28          33.55     2588  34.00765    -118.50015    2018-04-16T16:56:13Z    
4/16/2018    9:56:13    42.15         15.86        1.21      100.27                5.26          33.55     2589  34.00765    -118.50015    2018-04-16T16:56:13Z    
4/16/2018    9:56:13    42.14         15.86        1.20      100.21                5.27          33.55     2590  34.00765    -118.50015    2018-04-16T16:56:13Z    
4/16/2018    9:56:13    42.14         15.86        1.18      100.12                5.30          33.55     2591  34.00765    -118.50015    2018-04-16T16:56:13Z    
4/16/2018    9:56:13    42.14         15.86        1.16      100.15                5.36          33.55     2592  34.00765    -118.50015    2018-04-16T16:56:13Z    
4/16/2018    9:56:14    42.14         15.86        1.13      100.12                5.33          33.55     2593  34.00765    -118.50015    2018-04-16T16:56:14Z    
4/16/2018    9:56:14    42.14         15.86        1.10      100.14                5.24          33.55     2594  34.00765    -118.50015    2018-04-16T16:56:14Z    
4/16/2018    9:56:14    42.15         15.87        1.10      100.02                5.16          33.55     2595  34.00765    -118.50015    2018-04-16T16:56:14Z    
4/16/2018    9:56:14    42.16         15.88        1.09      99.94                 5.18          33.55     2596  34.00765    -118.50015    2018-04-16T16:56:14Z    
4/16/2018    9:56:14    42.17         15.89        1.08      99.94                 5.27          33.56     2597  34.00765    -118.50015    2018-04-16T16:56:14Z    
4/16/2018    9:56:14    42.18         15.89        1.08      99.96                 5.36          33.56     2598  34.00765    -118.50015    2018-04-16T16:56:14Z    
4/16/2018    9:56:15    42.19         15.90        1.07      99.92                 5.36          33.55     2599  34.00765    -118.50015    2018-04-16T16:56:15Z    
4/16/2018    9:56:15    42.19         15.90        1.05      99.89                 5.43          33.56     2600  34.00765    -118.50015    2018-04-16T16:56:15Z    
4/16/2018    9:56:15    42.19         15.90        1.04      99.98                 5.55          33.56     2601  34.00765    -118.50015    2018-04-16T16:56:15Z    
4/16/2018    9:56:15    42.19         15.91        1.04      99.89                 5.61          33.55     2602  34.00765    -118.50015    2018-04-16T16:56:15Z    
4/16/2018    9:56:15    42.20         15.92        1.02      99.85                 5.61          33.56     2603  34.00765    -118.50015    2018-04-16T16:56:15Z    
4/16/2018    9:56:15    42.21         15.91        1.02      99.91                 5.71          33.56     2604  34.00765    -118.50015    2018-04-16T16:56:15Z    
4/16/2018    9:56:16    42.21         15.91        1.01      99.92                 5.79          33.57     2605  34.00765    -118.50015    2018-04-16T16:56:16Z    
4/16/2018    9:56:16    42.21         15.91        0.98      99.95                 5.83          33.57     2606  34.00765    -118.50015    2018-04-16T16:56:16Z    
4/16/2018    9:56:16    42.21         15.91        0.96      99.93                 5.82          33.57     2607  34.00765    -118.50015    2018-04-16T16:56:16Z    
4/16/2018    9:56:16    42.21         15.91        0.94      99.95                 5.83          33.57     2608  34.00765    -118.50015    2018-04-16T16:56:16Z    
4/16/2018    9:56:16    42.20         15.91        0.91      99.98                 5.83          33.56     2609  34.00765    -118.50015    2018-04-16T16:56:16Z    
4/16/2018    9:56:16    42.20         15.92        0.90      99.97                 5.84          33.55     2610  34.00765    -118.50015    2018-04-16T16:56:16Z    
4/16/2018    9:56:17    42.19         15.92        0.93      100.12                5.82          33.54     2611  34.00765    -118.50015    2018-04-16T16:56:17Z    
4/16/2018    9:56:17    42.18         15.92        0.95      100.14                6.02          33.54     2612  34.00765    -118.50015    2018-04-16T16:56:17Z    
4/16/2018    9:56:17    42.18         15.92        0.99      100.23                6.12          33.53     2613  34.00765    -118.50015    2018-04-16T16:56:17Z    
4/16/2018    9:56:17    42.17         15.91        1.03      100.27                6.06          33.54     2614  34.00765    -118.50015    2018-04-16T16:56:17Z    
4/16/2018    9:56:17    42.18         15.90        1.07      100.35                5.93          33.55     2615  34.00765    -118.50015    2018-04-16T16:56:17Z    
4/16/2018    9:56:17    42.16         15.89        1.10      100.45                5.83          33.54     2616  34.00765    -118.50015    2018-04-16T16:56:17Z    
4/16/2018    9:56:18    42.16         15.88        1.12      100.50                5.73          33.54     2617  34.00765    -118.50015    2018-04-16T16:56:18Z    
4/16/2018    9:56:18    42.15         15.88        1.12      100.52                5.61          33.55     2618  34.00765    -118.50015    2018-04-16T16:56:18Z    
4/16/2018    9:56:18    42.15         15.87        1.12      100.58                5.55          33.55     2619  34.00765    -118.50015    2018-04-16T16:56:18Z    
4/16/2018    9:56:18    42.15         15.87        1.13      100.58                5.55          33.55     2620  34.00765    -118.50015    2018-04-16T16:56:18Z    
4/16/2018    9:56:18    42.15         15.87        1.15      100.58                5.55          33.55     2621  34.00765    -118.50015    2018-04-16T16:56:18Z    
4/16/2018    9:56:18    42.15         15.87        1.16      100.60                5.55          33.55     2622  34.00765    -118.50015    2018-04-16T16:56:18Z    
4/16/2018    9:56:19    42.15         15.87        1.18      100.60                5.63          33.55     2623  34.00765    -118.50015    2018-04-16T16:56:19Z    
4/16/2018    9:56:19    42.15         15.87        1.22      100.60                5.71          33.55     2624  34.00765    -118.50015    2018-04-16T16:56:19Z    
4/16/2018    9:56:19    42.15         15.87        1.23      100.57                5.72          33.55     2625  34.00765    -118.50015    2018-04-16T16:56:19Z    
4/16/2018    9:56:19    42.15         15.87        1.26      100.54                5.94          33.55     2626  34.00765    -118.50015    2018-04-16T16:56:19Z    
4/16/2018    9:56:19    42.15         15.87        1.27      100.61                5.93          33.55     2627  34.00765    -118.50015    2018-04-16T16:56:19Z    
4/16/2018    9:56:19    42.15         15.87        1.27      100.59                5.92          33.55     2628  34.00765    -118.50015    2018-04-16T16:56:19Z    
4/16/2018    9:56:20    42.15         15.87        1.25      100.60                5.77          33.55     2629  34.00765    -118.50015    2018-04-16T16:56:20Z    
4/16/2018    9:56:20    42.15         15.87        1.24      100.56                5.57          33.55     2630  34.00765    -118.50015    2018-04-16T16:56:20Z    
4/16/2018    9:56:20    42.16         15.87        1.21      100.59                5.51          33.56     2631  34.00765    -118.50015    2018-04-16T16:56:20Z    
4/16/2018    9:56:20    42.17         15.88        1.18      100.52                5.63          33.56     2632  34.00765    -118.50015    2018-04-16T16:56:20Z    
4/16/2018    9:56:20    42.17         15.88        1.13      100.55                5.61          33.56     2633  34.00765    -118.50015    2018-04-16T16:56:20Z    
4/16/2018    9:56:20    42.18         15.88        1.11      100.54                5.59          33.56     2634  34.00765    -118.50015    2018-04-16T16:56:20Z    
4/16/2018    9:56:21    42.18         15.89        1.10      100.54                5.75          33.56     2635  34.00765    -118.50015    2018-04-16T16:56:21Z    
4/16/2018    9:56:21    42.18         15.89        1.09      100.54                5.79          33.55     2636  34.00765    -118.50015    2018-04-16T16:56:21Z    
4/16/2018    9:56:21    42.18         15.90        1.07      100.53                5.84          33.55     2637  34.00765    -118.50015    2018-04-16T16:56:21Z    
4/16/2018    9:56:21    42.17         15.90        1.08      100.51                5.79          33.55     2638  34.00765    -118.50015    2018-04-16T16:56:21Z    
4/16/2018    9:56:21    42.18         15.90        1.07      100.50                5.79          33.54     2639  34.00765    -118.50015    2018-04-16T16:56:21Z    
4/16/2018    9:56:21    42.18         15.91        1.08      100.48                5.80          33.54     2640  34.00765    -118.50015    2018-04-16T16:56:21Z    
4/16/2018    9:56:22    42.18         15.91        1.10      100.49                5.76          33.54     2641  34.00765    -118.50015    2018-04-16T16:56:22Z    
4/16/2018    9:56:22    42.18         15.91        1.10      100.46                5.72          33.54     2642  34.00765    -118.50015    2018-04-16T16:56:22Z    
4/16/2018    9:56:22    42.17         15.92        1.12      100.52                5.71          33.53     2643  34.00765    -118.50015    2018-04-16T16:56:22Z    
4/16/2018    9:56:22    42.17         15.92        1.15      100.53                5.70          33.52     2644  34.00765    -118.50015    2018-04-16T16:56:22Z    
4/16/2018    9:56:22    42.17         15.90        1.18      100.57                5.71          33.54     2645  34.00765    -118.50015    2018-04-16T16:56:22Z    
4/16/2018    9:56:22    42.17         15.90        1.21      100.55                5.68          33.54     2646  34.00765    -118.50015    2018-04-16T16:56:22Z    
4/16/2018    9:56:23    42.17         15.90        1.24      100.57                5.72          33.55     2647  34.00765    -118.50015    2018-04-16T16:56:23Z    
4/16/2018    9:56:23    42.17         15.90        1.25      100.58                5.76          33.54     2648  34.00765    -118.50015    2018-04-16T16:56:23Z    
4/16/2018    9:56:23    42.17         15.90        1.26      100.64                5.88          33.55     2649  34.00765    -118.50015    2018-04-16T16:56:23Z    
4/16/2018    9:56:23    42.18         15.90        1.25      100.68                6.01          33.55     2650  34.00765    -118.50015    2018-04-16T16:56:23Z    
4/16/2018    9:56:23    42.18         15.89        1.24      100.71                6.08          33.55     2651  34.00765    -118.50015    2018-04-16T16:56:23Z    
4/16/2018    9:56:23    42.17         15.89        1.23      100.71                6.33          33.56     2652  34.00765    -118.50015    2018-04-16T16:56:23Z    
4/16/2018    9:56:24    42.17         15.88        1.20      100.68                6.45          33.56     2653  34.00765    -118.50015    2018-04-16T16:56:24Z    
4/16/2018    9:56:24    42.17         15.88        1.17      100.61                6.36          33.56     2654  34.00765    -118.50015    2018-04-16T16:56:24Z    
4/16/2018    9:56:24    42.18         15.88        1.13      100.67                6.24          33.57     2655  34.00765    -118.50015    2018-04-16T16:56:24Z    
4/16/2018    9:56:24    42.19         15.89        1.10      100.66                6.10          33.57     2656  34.00765    -118.50015    2018-04-16T16:56:24Z    
4/16/2018    9:56:24    42.20         15.89        1.04      100.63                5.93          33.58     2657  34.00765    -118.50015    2018-04-16T16:56:24Z    
4/16/2018    9:56:24    42.20         15.89        1.00      100.67                5.80          33.57     2658  34.00765    -118.50015    2018-04-16T16:56:24Z    
4/16/2018    9:56:25    42.20         15.89        0.96      100.72                5.71          33.57     2659  34.00765    -118.50015    2018-04-16T16:56:25Z    
4/16/2018    9:56:25    42.19         15.89        0.92      100.67                5.67          33.57     2660  34.00765    -118.50015    2018-04-16T16:56:25Z    
4/16/2018    9:56:25    42.19         15.90        0.89      100.68                5.61          33.56     2661  34.00765    -118.50015    2018-04-16T16:56:25Z    
4/16/2018    9:56:25    42.19         15.89        0.87      100.76                5.54          33.57     2662  34.00765    -118.50015    2018-04-16T16:56:25Z    
4/16/2018    9:56:25    42.20         15.90        0.86      100.67                5.57          33.56     2663  34.00765    -118.50015    2018-04-16T16:56:25Z    
4/16/2018    9:56:25    42.20         15.91        0.84      100.71                5.61          33.56     2664  34.00765    -118.50015    2018-04-16T16:56:25Z    
4/16/2018    9:56:26    42.19         15.91        0.83      100.75                5.59          33.55     2665  34.00765    -118.50015    2018-04-16T16:56:26Z    
4/16/2018    9:56:26    42.20         15.92        0.83      100.85                5.58          33.55     2666  34.00765    -118.50015    2018-04-16T16:56:26Z    
4/16/2018    9:56:26    42.20         15.92        0.82      100.77                5.62          33.55     2667  34.00765    -118.50015    2018-04-16T16:56:26Z    
4/16/2018    9:56:26    42.20         15.92        0.83      100.80                5.57          33.55     2668  34.00765    -118.50015    2018-04-16T16:56:26Z    
4/16/2018    9:56:26    42.20         15.91        0.85      100.82                5.51          33.55     2669  34.00765    -118.50015    2018-04-16T16:56:26Z    
4/16/2018    9:56:26    42.20         15.91        0.87      100.81                5.51          33.56     2670  34.00765    -118.50015    2018-04-16T16:56:26Z    
4/16/2018    9:56:27    42.20         15.91        0.90      100.79                5.57          33.56     2671  34.00765    -118.50015    2018-04-16T16:56:27Z    
4/16/2018    9:56:27    42.20         15.91        0.95      100.87                5.62          33.55     2672  34.00765    -118.50015    2018-04-16T16:56:27Z    
4/16/2018    9:56:27    42.18         15.91        0.99      100.82                5.60          33.54     2673  34.00765    -118.50015    2018-04-16T16:56:27Z    
4/16/2018    9:56:27    42.16         15.91        1.05      100.80                5.52          33.53     2674  34.00765    -118.50015    2018-04-16T16:56:27Z    
4/16/2018    9:56:27    42.16         15.91        1.12      100.78                5.49          33.53     2675  34.00765    -118.50015    2018-04-16T16:56:27Z    
4/16/2018    9:56:27    42.15         15.89        1.19      100.87                5.42          33.53     2676  34.00765    -118.50015    2018-04-16T16:56:27Z    
4/16/2018    9:56:28    42.15         15.89        1.24      100.82                5.45          33.54     2677  34.00765    -118.50015    2018-04-16T16:56:28Z    
4/16/2018    9:56:28    42.15         15.88        1.30      100.78                5.43          33.54     2678  34.00765    -118.50015    2018-04-16T16:56:28Z    
4/16/2018    9:56:28    42.15         15.88        1.33      100.72                5.41          33.54     2679  34.00765    -118.50015    2018-04-16T16:56:28Z    
4/16/2018    9:56:28    42.15         15.87        1.36      100.76                5.36          33.55     2680  34.00765    -118.50015    2018-04-16T16:56:28Z    
4/16/2018    9:56:28    42.15         15.87        1.37      100.61                5.29          33.55     2681  34.00765    -118.50015    2018-04-16T16:56:28Z    
4/16/2018    9:56:28    42.15         15.87        1.36      100.60                5.19          33.55     2682  34.00765    -118.50015    2018-04-16T16:56:28Z    
4/16/2018    9:56:29    42.15         15.87        1.35      100.48                5.14          33.55     2683  34.00765    -118.50015    2018-04-16T16:56:29Z    
4/16/2018    9:56:29    42.16         15.87        1.31      100.46                5.14          33.56     2684  34.00765    -118.50015    2018-04-16T16:56:29Z    
4/16/2018    9:56:29    42.17         15.87        1.26      100.40                5.12          33.56     2685  34.00765    -118.50015    2018-04-16T16:56:29Z    
4/16/2018    9:56:29    42.17         15.87        1.19      100.32                5.14          33.56     2686  34.00765    -118.50015    2018-04-16T16:56:29Z    
4/16/2018    9:56:29    42.18         15.87        1.11      100.29                5.15          33.57     2687  34.00765    -118.50015    2018-04-16T16:56:29Z    
4/16/2018    9:56:29    42.18         15.88        1.04      100.22                5.19          33.57     2688  34.00765    -118.50015    2018-04-16T16:56:29Z    
4/16/2018    9:56:30    42.19         15.89        0.96      100.19                5.32          33.56     2689  34.00765    -118.50015    2018-04-16T16:56:30Z    
4/16/2018    9:56:30    42.19         15.90        0.93      100.13                5.38          33.56     2690  34.00765    -118.50015    2018-04-16T16:56:30Z    
4/16/2018    9:56:30    42.19         15.91        0.89      100.10                5.38          33.55     2691  34.00765    -118.50015    2018-04-16T16:56:30Z    
4/16/2018    9:56:30    42.19         15.92        0.89      100.14                5.40          33.55     2692  34.00765    -118.50015    2018-04-16T16:56:30Z    
4/16/2018    9:56:30    42.19         15.92        0.91      100.16                5.50          33.54     2693  34.00765    -118.50015    2018-04-16T16:56:30Z    
4/16/2018    9:56:30    42.20         15.93        0.94      100.21                5.62          33.55     2694  34.00765    -118.50015    2018-04-16T16:56:30Z    
4/16/2018    9:56:31    42.21         15.92        0.99      100.23                5.81          33.56     2695  34.00765    -118.50015    2018-04-16T16:56:31Z    
4/16/2018    9:56:31    42.21         15.92        1.03      100.25                5.90          33.57     2696  34.00765    -118.50015    2018-04-16T16:56:31Z    
4/16/2018    9:56:31    42.21         15.92        1.09      100.36                5.91          33.56     2697  34.00765    -118.50015    2018-04-16T16:56:31Z    
4/16/2018    9:56:31    42.20         15.92        1.15      100.45                5.90          33.55     2698  34.00765    -118.50015    2018-04-16T16:56:31Z    
4/16/2018    9:56:31    42.19         15.92        1.20      100.44                5.81          33.54     2699  34.00765    -118.50015    2018-04-16T16:56:31Z    
4/16/2018    9:56:31    42.17         15.92        1.25      100.44                5.72          33.53     2700  34.00765    -118.50015    2018-04-16T16:56:31Z    
4/16/2018    9:56:32    42.18         15.92        1.29      100.46                5.72          33.53     2701  34.00765    -118.50015    2018-04-16T16:56:32Z    
4/16/2018    9:56:32    42.17         15.91        1.34      100.54                5.73          33.53     2702  34.00765    -118.50015    2018-04-16T16:56:32Z    
4/16/2018    9:56:32    42.17         15.91        1.36      100.51                5.69          33.53     2703  34.00765    -118.50015    2018-04-16T16:56:32Z    
4/16/2018    9:56:32    42.16         15.90        1.40      100.50                5.61          33.53     2704  34.00765    -118.50015    2018-04-16T16:56:32Z    
4/16/2018    9:56:32    42.17         15.89        1.42      100.54                5.69          33.54     2705  34.00765    -118.50015    2018-04-16T16:56:32Z    
4/16/2018    9:56:32    42.17         15.89        1.45      100.46                5.75          33.55     2706  34.00765    -118.50015    2018-04-16T16:56:32Z    
4/16/2018    9:56:33    42.17         15.89        1.46      100.46                5.79          33.55     2707  34.00765    -118.50015    2018-04-16T16:56:33Z    
4/16/2018    9:56:33    42.17         15.89        1.46      100.45                5.74          33.55     2708  34.00765    -118.50015    2018-04-16T16:56:33Z    
4/16/2018    9:56:33    42.18         15.89        1.45      100.50                5.70          33.56     2709  34.00765    -118.50015    2018-04-16T16:56:33Z    
4/16/2018    9:56:33    42.18         15.89        1.43      100.44                5.75          33.56     2710  34.00765    -118.50015    2018-04-16T16:56:33Z    
4/16/2018    9:56:33    42.18         15.90        1.40      100.38                5.78          33.55     2711  34.00765    -118.50015    2018-04-16T16:56:33Z    
4/16/2018    9:56:33    42.18         15.90        1.36      100.33                5.73          33.55     2712  34.00765    -118.50015    2018-04-16T16:56:33Z    
4/16/2018    9:56:34    42.18         15.90        1.31      100.23                5.74          33.55     2713  34.00765    -118.50015    2018-04-16T16:56:34Z    
4/16/2018    9:56:34    42.18         15.90        1.26      100.18                5.71          33.55     2714  34.00765    -118.50015    2018-04-16T16:56:34Z    
4/16/2018    9:56:34    42.19         15.89        1.21      100.26                5.73          33.56     2715  34.00765    -118.50015    2018-04-16T16:56:34Z    
4/16/2018    9:56:34    42.19         15.90        1.18      100.20                5.74          33.56     2716  34.00765    -118.50015    2018-04-16T16:56:34Z    
4/16/2018    9:56:34    42.18         15.90        1.15      100.16                5.67          33.56     2717  34.00765    -118.50015    2018-04-16T16:56:34Z    
4/16/2018    9:56:34    42.18         15.90        1.13      100.13                5.68          33.55     2718  34.00765    -118.50015    2018-04-16T16:56:34Z    
4/16/2018    9:56:35    42.18         15.90        1.12      100.09                5.68          33.55     2719  34.00765    -118.50015    2018-04-16T16:56:35Z    
4/16/2018    9:56:35    42.18         15.90        1.10      100.12                5.60          33.55     2720  34.00765    -118.50015    2018-04-16T16:56:35Z    
4/16/2018    9:56:35    42.18         15.90        1.09      100.05                5.52          33.55     2721  34.00765    -118.50015    2018-04-16T16:56:35Z    
4/16/2018    9:56:35    42.17         15.90        1.08      100.09                5.46          33.55     2722  34.00765    -118.50015    2018-04-16T16:56:35Z    
4/16/2018    9:56:35    42.18         15.90        1.07      100.10                5.43          33.55     2723  34.00765    -118.50015    2018-04-16T16:56:35Z    
4/16/2018    9:56:35    42.18         15.90        1.07      100.04                5.59          33.55     2724  34.00765    -118.50015    2018-04-16T16:56:35Z    
4/16/2018    9:56:36    42.19         15.90        1.06      100.05                5.62          33.55     2725  34.00765    -118.50015    2018-04-16T16:56:36Z    
4/16/2018    9:56:36    42.19         15.92        1.05      100.06                5.71          33.55     2726  34.00765    -118.50015    2018-04-16T16:56:36Z    
4/16/2018    9:56:36    42.19         15.93        1.03      100.03                5.80          33.53     2727  34.00765    -118.50015    2018-04-16T16:56:36Z    
4/16/2018    9:56:36    42.19         15.94        1.05      100.08                5.78          33.52     2728  34.00765    -118.50015    2018-04-16T16:56:36Z    
4/16/2018    9:56:36    42.18         15.93        1.05      100.10                5.77          33.53     2729  34.00765    -118.50015    2018-04-16T16:56:36Z    
4/16/2018    9:56:36    42.18         15.93        1.07      100.09                5.78          33.52     2730  34.00765    -118.50015    2018-04-16T16:56:36Z    
4/16/2018    9:56:37    42.18         15.92        1.10      100.11                5.77          33.53     2731  34.00765    -118.50015    2018-04-16T16:56:37Z    
4/16/2018    9:56:37    42.18         15.92        1.14      100.11                5.70          33.53     2732  34.00765    -118.50015    2018-04-16T16:56:37Z    
4/16/2018    9:56:37    42.18         15.92        1.16      100.17                5.64          33.53     2733  34.00765    -118.50015    2018-04-16T16:56:37Z    
4/16/2018    9:56:37    42.18         15.92        1.17      100.22                5.62          33.54     2734  34.00765    -118.50015    2018-04-16T16:56:37Z    
4/16/2018    9:56:37    42.18         15.91        1.17      100.26                5.56          33.54     2735  34.00765    -118.50015    2018-04-16T16:56:37Z    
4/16/2018    9:56:37    42.18         15.90        1.16      100.27                5.57          33.55     2736  34.00765    -118.50015    2018-04-16T16:56:37Z    
4/16/2018    9:56:38    42.18         15.88        1.16      100.28                5.51          33.56     2737  34.00765    -118.50015    2018-04-16T16:56:38Z    
4/16/2018    9:56:38    42.18         15.88        1.15      100.35                5.46          33.56     2738  34.00765    -118.50015    2018-04-16T16:56:38Z    
4/16/2018    9:56:38    42.18         15.88        1.14      100.40                5.49          33.56     2739  34.00765    -118.50015    2018-04-16T16:56:38Z    
4/16/2018    9:56:38    42.18         15.88        1.15      100.38                5.47          33.56     2740  34.00765    -118.50015    2018-04-16T16:56:38Z    
4/16/2018    9:56:38    42.17         15.88        1.15      100.36                5.50          33.56     2741  34.00765    -118.50015    2018-04-16T16:56:38Z    
4/16/2018    9:56:38    42.17         15.89        1.15      100.35                5.65          33.55     2742  34.00765    -118.50015    2018-04-16T16:56:38Z    
4/16/2018    9:56:39    42.17         15.89        1.14      100.32                5.72          33.55     2743  34.00765    -118.50015    2018-04-16T16:56:39Z    
4/16/2018    9:56:39    42.17         15.89        1.12      100.40                5.77          33.55     2744  34.00765    -118.50015    2018-04-16T16:56:39Z    
4/16/2018    9:56:39    42.17         15.89        1.10      100.39                5.81          33.55     2745  34.00765    -118.50015    2018-04-16T16:56:39Z    
4/16/2018    9:56:39    42.18         15.90        1.06      100.37                5.73          33.55     2746  34.00765    -118.50015    2018-04-16T16:56:39Z    
4/16/2018    9:56:39    42.18         15.90        1.03      100.35                5.69          33.55     2747  34.00765    -118.50015    2018-04-16T16:56:39Z    
4/16/2018    9:56:39    42.18         15.90        1.00      100.35                5.78          33.56     2748  34.00765    -118.50015    2018-04-16T16:56:39Z    
4/16/2018    9:56:40    42.18         15.90        0.97      100.34                5.77          33.56     2749  34.00765    -118.50015    2018-04-16T16:56:40Z    
4/16/2018    9:56:40    42.18         15.90        0.96      100.25                5.87          33.55     2750  34.00765    -118.50015    2018-04-16T16:56:40Z    
4/16/2018    9:56:40    42.18         15.90        0.95      100.29                5.97          33.55     2751  34.00765    -118.50015    2018-04-16T16:56:40Z    
4/16/2018    9:56:40    42.19         15.90        0.96      100.28                6.05          33.55     2752  34.00765    -118.50015    2018-04-16T16:56:40Z    
4/16/2018    9:56:40    42.19         15.90        0.95      100.29                6.04          33.55     2753  34.00765    -118.50015    2018-04-16T16:56:40Z    
4/16/2018    9:56:40    42.19         15.90        0.94      100.30                5.99          33.55     2754  34.00765    -118.50015    2018-04-16T16:56:40Z    
4/16/2018    9:56:41    42.19         15.90        0.93      100.30                5.88          33.56     2755  34.00765    -118.50015    2018-04-16T16:56:41Z    
4/16/2018    9:56:41    42.19         15.90        0.92      100.32                5.78          33.56     2756  34.00765    -118.50015    2018-04-16T16:56:41Z    
4/16/2018    9:56:41    42.19         15.91        0.92      100.30                5.79          33.55     2757  34.00765    -118.50015    2018-04-16T16:56:41Z    
4/16/2018    9:56:41    42.19         15.91        0.90      100.31                5.88          33.55     2758  34.00765    -118.50015    2018-04-16T16:56:41Z    
4/16/2018    9:56:41    42.19         15.91        0.88      100.28                5.83          33.55     2759  34.00765    -118.50015    2018-04-16T16:56:41Z    
4/16/2018    9:56:41    42.19         15.91        0.86      100.34                5.82          33.55     2760  34.00765    -118.50015    2018-04-16T16:56:41Z    
4/16/2018    9:56:42    42.20         15.91        0.84      100.36                5.82          33.56     2761  34.00765    -118.50015    2018-04-16T16:56:42Z    
4/16/2018    9:56:42    42.20         15.91        0.82      100.34                5.79          33.55     2762  34.00765    -118.50015    2018-04-16T16:56:42Z    
4/16/2018    9:56:42    42.20         15.91        0.81      100.31                5.83          33.56     2763  34.00765    -118.50015    2018-04-16T16:56:42Z    
4/16/2018    9:56:42    42.20         15.92        0.82      100.29                5.79          33.56     2764  34.00765    -118.50015    2018-04-16T16:56:42Z    
4/16/2018    9:56:42    42.20         15.92        0.83      100.29                5.71          33.55     2765  34.00765    -118.50015    2018-04-16T16:56:42Z    
4/16/2018    9:56:42    42.20         15.92        0.87      100.33                5.67          33.55     2766  34.00765    -118.50015    2018-04-16T16:56:42Z    
4/16/2018    9:56:43    42.20         15.92        0.89      100.36                5.66          33.55     2767  34.00765    -118.50015    2018-04-16T16:56:43Z    
4/16/2018    9:56:43    42.20         15.92        0.92      100.39                5.61          33.55     2768  34.00765    -118.50015    2018-04-16T16:56:43Z    
4/16/2018    9:56:43    42.21         15.92        0.95      100.38                5.67          33.56     2769  34.00765    -118.50015    2018-04-16T16:56:43Z    
4/16/2018    9:56:43    42.21         15.92        0.97      100.44                5.70          33.56     2770  34.00765    -118.50015    2018-04-16T16:56:43Z    
4/16/2018    9:56:43    42.21         15.91        1.00      100.49                5.74          33.56     2771  34.00765    -118.50015    2018-04-16T16:56:43Z    
4/16/2018    9:56:43    42.21         15.92        1.01      100.46                5.74          33.56     2772  34.00765    -118.50015    2018-04-16T16:56:43Z    
4/16/2018    9:56:44    42.22         15.93        1.04      100.45                5.74          33.55     2773  34.00765    -118.50015    2018-04-16T16:56:44Z    
4/16/2018    9:56:44    42.23         15.94        1.07      100.43                5.75          33.56     2774  34.00765    -118.50015    2018-04-16T16:56:44Z    
4/16/2018    9:56:44    42.23         15.94        1.10      100.45                5.75          33.56     2775  34.00765    -118.50015    2018-04-16T16:56:44Z    
4/16/2018    9:56:44    42.23         15.94        1.12      100.42                5.73          33.56     2776  34.00765    -118.50015    2018-04-16T16:56:44Z    
4/16/2018    9:56:44    42.23         15.94        1.16      100.42                5.67          33.57     2777  34.00765    -118.50015    2018-04-16T16:56:44Z    
4/16/2018    9:56:44    42.24         15.94        1.19      100.45                5.61          33.57     2778  34.00765    -118.50015    2018-04-16T16:56:44Z    
4/16/2018    9:56:45    42.23         15.94        1.22      100.42                5.61          33.57     2779  34.00765    -118.50015    2018-04-16T16:56:45Z    
4/16/2018    9:56:45    42.22         15.94        1.25      100.44                5.75          33.55     2780  34.00765    -118.50015    2018-04-16T16:56:45Z    
4/16/2018    9:56:45    42.21         15.94        1.28      100.50                5.81          33.55     2781  34.00765    -118.50015    2018-04-16T16:56:45Z    
4/16/2018    9:56:45    42.21         15.94        1.29      100.53                5.79          33.54     2782  34.00765    -118.50015    2018-04-16T16:56:45Z    
4/16/2018    9:56:45    42.21         15.94        1.30      100.63                5.75          33.55     2783  34.00765    -118.50015    2018-04-16T16:56:45Z    
4/16/2018    9:56:45    42.21         15.92        1.30      100.61                5.67          33.56     2784  34.00765    -118.50015    2018-04-16T16:56:45Z    
4/16/2018    9:56:46    42.21         15.92        1.31      100.72                5.61          33.56     2785  34.00765    -118.50015    2018-04-16T16:56:46Z    
4/16/2018    9:56:46    42.20         15.90        1.29      100.76                5.56          33.56     2786  34.00765    -118.50015    2018-04-16T16:56:46Z    
4/16/2018    9:56:46    42.19         15.90        1.28      100.75                5.54          33.56     2787  34.00765    -118.50015    2018-04-16T16:56:46Z    
4/16/2018    9:56:46    42.20         15.90        1.27      100.78                5.53          33.57     2788  34.00765    -118.50015    2018-04-16T16:56:46Z    
4/16/2018    9:56:46    42.19         15.90        1.26      100.80                5.49          33.56     2789  34.00765    -118.50015    2018-04-16T16:56:46Z    
4/16/2018    9:56:46    42.19         15.90        1.26      100.81                5.43          33.55     2790  34.00765    -118.50015    2018-04-16T16:56:46Z    
4/16/2018    9:56:47    42.20         15.91        1.26      100.73                5.34          33.56     2791  34.00765    -118.50015    2018-04-16T16:56:47Z    
4/16/2018    9:56:47    42.20         15.91        1.22      100.76                5.28          33.56     2792  34.00765    -118.50015    2018-04-16T16:56:47Z    
4/16/2018    9:56:47    42.19         15.92        1.21      100.74                5.26          33.54     2793  34.00765    -118.50015    2018-04-16T16:56:47Z    
4/16/2018    9:56:47    42.18         15.91        1.19      100.68                5.28          33.54     2794  34.00765    -118.50015    2018-04-16T16:56:47Z    
4/16/2018    9:56:47    42.18         15.91        1.17      100.74                5.30          33.55     2795  34.00765    -118.50015    2018-04-16T16:56:47Z    
4/16/2018    9:56:47    42.18         15.91        1.16      100.63                5.31          33.55     2796  34.00765    -118.50015    2018-04-16T16:56:47Z    
4/16/2018    9:56:48    42.19         15.91        1.14      100.63                5.33          33.55     2797  34.00765    -118.50015    2018-04-16T16:56:48Z    
4/16/2018    9:56:48    42.19         15.91        1.12      100.62                5.39          33.55     2798  34.00765    -118.50015    2018-04-16T16:56:48Z    
4/16/2018    9:56:48    42.19         15.91        1.13      100.62                5.50          33.55     2799  34.00765    -118.50015    2018-04-16T16:56:48Z    
4/16/2018    9:56:48    42.19         15.90        1.13      100.55                5.65          33.56     2800  34.00765    -118.50015    2018-04-16T16:56:48Z    
4/16/2018    9:56:48    42.19         15.90        1.16      100.62                5.63          33.56     2801  34.00765    -118.50015    2018-04-16T16:56:48Z    
4/16/2018    9:56:48    42.19         15.90        1.16      100.59                5.63          33.56     2802  34.00765    -118.50015    2018-04-16T16:56:48Z    
4/16/2018    9:56:49    42.19         15.91        1.20      100.57                5.63          33.56     2803  34.00765    -118.50015    2018-04-16T16:56:49Z    
4/16/2018    9:56:49    42.19         15.91        1.22      100.55                5.56          33.56     2804  34.00765    -118.50015    2018-04-16T16:56:49Z    
4/16/2018    9:56:49    42.20         15.91        1.25      100.55                5.52          33.56     2805  34.00765    -118.50015    2018-04-16T16:56:49Z    
4/16/2018    9:56:49    42.20         15.91        1.28      100.56                5.54          33.56     2806  34.00765    -118.50015    2018-04-16T16:56:49Z    
4/16/2018    9:56:49    42.20         15.90        1.31      100.54                5.54          33.56     2807  34.00765    -118.50015    2018-04-16T16:56:49Z    
4/16/2018    9:56:49    42.20         15.90        1.32      100.53                5.54          33.56     2808  34.00765    -118.50015    2018-04-16T16:56:49Z    
4/16/2018    9:56:50    42.20         15.89        1.33      100.53                5.70          33.57     2809  34.00765    -118.50015    2018-04-16T16:56:50Z    
4/16/2018    9:56:50    42.19         15.89        1.34      100.54                5.72          33.57     2810  34.00765    -118.50015    2018-04-16T16:56:50Z    
4/16/2018    9:56:50    42.19         15.89        1.33      100.50                5.68          33.57     2811  34.00765    -118.50015    2018-04-16T16:56:50Z    
4/16/2018    9:56:50    42.19         15.88        1.32      100.42                5.63          33.57     2812  34.00765    -118.50015    2018-04-16T16:56:50Z    
4/16/2018    9:56:50    42.19         15.88        1.31      100.43                5.60          33.57     2813  34.00765    -118.50015    2018-04-16T16:56:50Z    
4/16/2018    9:56:50    42.19         15.89        1.29      100.42                5.54          33.57     2814  34.00765    -118.50015    2018-04-16T16:56:50Z    
4/16/2018    9:56:51    42.19         15.89        1.27      100.40                5.55          33.57     2815  34.00765    -118.50015    2018-04-16T16:56:51Z    
4/16/2018    9:56:51    42.18         15.88        1.24      100.40                5.63          33.57     2816  34.00765    -118.50015    2018-04-16T16:56:51Z    
4/16/2018    9:56:51    42.18         15.89        1.21      100.35                5.81          33.56     2817  34.00765    -118.50015    2018-04-16T16:56:51Z    
4/16/2018    9:56:51    42.18         15.89        1.19      100.33                5.90          33.56     2818  34.00765    -118.50015    2018-04-16T16:56:51Z    
4/16/2018    9:56:51    42.18         15.89        1.18      100.34                5.96          33.56     2819  34.00765    -118.50015    2018-04-16T16:56:51Z    
4/16/2018    9:56:51    42.18         15.89        1.18      100.33                6.12          33.56     2820  34.00765    -118.50015    2018-04-16T16:56:51Z    
4/16/2018    9:56:52    42.18         15.89        1.18      100.26                6.11          33.56     2821  34.00765    -118.50015    2018-04-16T16:56:52Z    
4/16/2018    9:56:52    42.18         15.90        1.19      100.21                6.09          33.56     2822  34.00765    -118.50015    2018-04-16T16:56:52Z    
4/16/2018    9:56:52    42.18         15.90        1.18      100.15                6.19          33.55     2823  34.00765    -118.50015    2018-04-16T16:56:52Z    
4/16/2018    9:56:52    42.18         15.90        1.20      100.13                6.26          33.55     2824  34.00765    -118.50015    2018-04-16T16:56:52Z    
4/16/2018    9:56:52    42.18         15.90        1.21      100.19                6.29          33.55     2825  34.00765    -118.50015    2018-04-16T16:56:52Z    
4/16/2018    9:56:52    42.18         15.91        1.21      100.14                6.16          33.54     2826  34.00765    -118.50015    2018-04-16T16:56:52Z    
4/16/2018    9:56:53    42.18         15.90        1.21      100.17                6.02          33.55     2827  34.00765    -118.50015    2018-04-16T16:56:53Z    
4/16/2018    9:56:53    42.18         15.90        1.21      100.16                5.88          33.55     2828  34.00765    -118.50015    2018-04-16T16:56:53Z    
4/16/2018    9:56:53    42.18         15.90        1.19      100.18                5.81          33.55     2829  34.00765    -118.50015    2018-04-16T16:56:53Z    
4/16/2018    9:56:53    42.18         15.90        1.18      100.19                5.96          33.55     2830  34.00765    -118.50015    2018-04-16T16:56:53Z    
4/16/2018    9:56:53    42.19         15.90        1.15      100.16                6.04          33.56     2831  34.00765    -118.50015    2018-04-16T16:56:53Z    
4/16/2018    9:56:53    42.19         15.90        1.13      100.20                6.07          33.56     2832  34.00765    -118.50015    2018-04-16T16:56:53Z    
4/16/2018    9:56:54    42.19         15.91        1.10      100.14                6.01          33.56     2833  34.00765    -118.50015    2018-04-16T16:56:54Z    
4/16/2018    9:56:54    42.20         15.91        1.07      100.18                5.89          33.56     2834  34.00765    -118.50015    2018-04-16T16:56:54Z    
4/16/2018    9:56:54    42.20         15.91        1.05      100.14                5.77          33.56     2835  34.00765    -118.50015    2018-04-16T16:56:54Z    
4/16/2018    9:56:54    42.20         15.91        1.03      100.16                5.78          33.56     2836  34.00765    -118.50015    2018-04-16T16:56:54Z    
4/16/2018    9:56:54    42.20         15.91        1.02      100.17                5.80          33.55     2837  34.00765    -118.50015    2018-04-16T16:56:54Z    
4/16/2018    9:56:54    42.20         15.91        0.99      100.21                5.80          33.55     2838  34.00765    -118.50015    2018-04-16T16:56:54Z    
4/16/2018    9:56:55    42.20         15.92        0.98      100.23                5.78          33.55     2839  34.00765    -118.50015    2018-04-16T16:56:55Z    
4/16/2018    9:56:55    42.20         15.92        0.96      100.23                5.77          33.55     2840  34.00765    -118.50015    2018-04-16T16:56:55Z    
4/16/2018    9:56:55    42.20         15.91        0.94      100.24                5.74          33.56     2841  34.00765    -118.50015    2018-04-16T16:56:55Z    
4/16/2018    9:56:55    42.20         15.91        0.91      100.22                5.69          33.56     2842  34.00765    -118.50015    2018-04-16T16:56:55Z    
4/16/2018    9:56:55    42.20         15.92        0.90      100.23                5.65          33.56     2843  34.00765    -118.50015    2018-04-16T16:56:55Z    
4/16/2018    9:56:55    42.20         15.92        0.88      100.28                5.72          33.56     2844  34.00765    -118.50015    2018-04-16T16:56:55Z    
4/16/2018    9:56:56    42.20         15.92        0.87      100.33                5.73          33.56     2845  34.00765    -118.50015    2018-04-16T16:56:56Z    
4/16/2018    9:56:56    42.21         15.92        0.87      100.28                5.93          33.55     2846  34.00765    -118.50015    2018-04-16T16:56:56Z    
4/16/2018    9:56:56    42.21         15.93        0.90      100.34                5.90          33.56     2847  34.00765    -118.50015    2018-04-16T16:56:56Z    
4/16/2018    9:56:56    42.21         15.93        0.92      100.36                5.82          33.55     2848  34.00765    -118.50015    2018-04-16T16:56:56Z    
4/16/2018    9:56:56    42.21         15.93        0.94      100.40                5.70          33.55     2849  34.00765    -118.50015    2018-04-16T16:56:56Z    
4/16/2018    9:56:56    42.21         15.93        0.97      100.42                5.58          33.55     2850  34.00765    -118.50015    2018-04-16T16:56:56Z    
4/16/2018    9:56:57    42.20         15.93        0.99      100.51                5.59          33.54     2851  34.00765    -118.50015    2018-04-16T16:56:57Z    
4/16/2018    9:56:57    42.20         15.93        1.03      100.52                5.56          33.55     2852  34.00765    -118.50015    2018-04-16T16:56:57Z    
4/16/2018    9:56:57    42.20         15.93        1.04      100.54                5.55          33.54     2853  34.00765    -118.50015    2018-04-16T16:56:57Z    
4/16/2018    9:56:57    42.20         15.93        1.05      100.61                5.56          33.54     2854  34.00765    -118.50015    2018-04-16T16:56:57Z    
4/16/2018    9:56:57    42.20         15.93        1.07      100.66                5.64          33.55     2855  34.00765    -118.50015    2018-04-16T16:56:57Z    
4/16/2018    9:56:57    42.20         15.93        1.07      100.67                5.62          33.55     2856  34.00765    -118.50015    2018-04-16T16:56:57Z    
4/16/2018    9:56:58    42.20         15.93        1.07      100.68                5.61          33.55     2857  34.00765    -118.50015    2018-04-16T16:56:58Z    
4/16/2018    9:56:58    42.20         15.93        1.08      100.74                5.60          33.55     2858  34.00765    -118.50015    2018-04-16T16:56:58Z    
4/16/2018    9:56:58    42.20         15.92        1.08      100.69                5.60          33.55     2859  34.00765    -118.50015    2018-04-16T16:56:58Z    
4/16/2018    9:56:58    42.20         15.92        1.08      100.74                5.64          33.55     2860  34.00765    -118.50015    2018-04-16T16:56:58Z    
4/16/2018    9:56:58    42.20         15.92        1.08      100.74                5.62          33.55     2861  34.00765    -118.50015    2018-04-16T16:56:58Z    
4/16/2018    9:56:58    42.20         15.92        1.08      100.71                5.58          33.55     2862  34.00765    -118.50015    2018-04-16T16:56:58Z    
4/16/2018    9:56:59    42.20         15.92        1.10      100.70                5.58          33.55     2863  34.00765    -118.50015    2018-04-16T16:56:59Z    
4/16/2018    9:56:59    42.20         15.92        1.10      100.63                5.62          33.55     2864  34.00765    -118.50015    2018-04-16T16:56:59Z    
4/16/2018    9:56:59    42.20         15.92        1.10      100.69                5.94          33.55     2865  34.00765    -118.50015    2018-04-16T16:56:59Z    
4/16/2018    9:56:59    42.20         15.92        1.09      100.65                5.96          33.55     2866  34.00765    -118.50015    2018-04-16T16:56:59Z    
4/16/2018    9:56:59    42.20         15.92        1.09      100.68                5.94          33.55     2867  34.00765    -118.50015    2018-04-16T16:56:59Z    
4/16/2018    9:56:59    42.20         15.92        1.08      100.69                5.83          33.55     2868  34.00765    -118.50015    2018-04-16T16:56:59Z    
4/16/2018    9:57:00    42.20         15.92        1.06      100.71                5.74          33.56     2869  34.00765    -118.50015    2018-04-16T16:57:00Z    
4/16/2018    9:57:00    42.20         15.92        1.05      100.73                5.64          33.56     2870  34.00765    -118.50015    2018-04-16T16:57:00Z    
4/16/2018    9:57:00    42.20         15.92        1.03      100.73                5.68          33.55     2871  34.00765    -118.50015    2018-04-16T16:57:00Z    
4/16/2018    9:57:00    42.21         15.92        1.02      100.68                5.72          33.56     2872  34.00765    -118.50015    2018-04-16T16:57:00Z    
4/16/2018    9:57:00    42.21         15.92        1.02      100.73                5.79          33.55     2873  34.00765    -118.50015    2018-04-16T16:57:00Z    
4/16/2018    9:57:00    42.20         15.92        1.02      100.70                5.78          33.55     2874  34.00765    -118.50015    2018-04-16T16:57:00Z    
4/16/2018    9:57:01    42.20         15.92        1.05      100.82                5.81          33.55     2875  34.00765    -118.50015    2018-04-16T16:57:01Z    
4/16/2018    9:57:01    42.20         15.92        1.09      100.75                5.83          33.56     2876  34.00765    -118.50015    2018-04-16T16:57:01Z    
4/16/2018    9:57:01    42.20         15.92        1.15      100.82                5.79          33.55     2877  34.00765    -118.50015    2018-04-16T16:57:01Z    
4/16/2018    9:57:01    42.20         15.92        1.19      100.82                5.79          33.56     2878  34.00765    -118.50015    2018-04-16T16:57:01Z    
4/16/2018    9:57:01    42.20         15.92        1.19      100.82                5.79          33.56     2879  34.00765    -118.50015    2018-04-16T16:57:01Z    
4/16/2018    9:57:01    42.20         15.92        1.28      100.89                5.78          33.55     2880  34.00765    -118.50015    2018-04-16T16:57:01Z    
4/16/2018    9:57:02    42.20         15.92        1.29      100.90                5.78          33.55     2881  34.00765    -118.50015    2018-04-16T16:57:02Z    
4/16/2018    9:57:02    42.20         15.92        1.30      100.92                5.73          33.55     2882  34.00765    -118.50015    2018-04-16T16:57:02Z    
4/16/2018    9:57:02    42.20         15.92        1.27      100.88                5.63          33.56     2883  34.00765    -118.50015    2018-04-16T16:57:02Z    
4/16/2018    9:57:02    42.20         15.92        1.26      100.98                5.62          33.56     2884  34.00765    -118.50015    2018-04-16T16:57:02Z    
4/16/2018    9:57:02    42.20         15.92        1.23      100.98                5.57          33.55     2885  34.00765    -118.50015    2018-04-16T16:57:02Z    
4/16/2018    9:57:02    42.20         15.92        1.19      100.93                5.60          33.55     2886  34.00765    -118.50015    2018-04-16T16:57:02Z    
4/16/2018    9:57:03    42.20         15.92        1.14      100.93                5.61          33.56     2887  34.00765    -118.50015    2018-04-16T16:57:03Z    
4/16/2018    9:57:03    42.21         15.92        1.11      100.92                5.66          33.56     2888  34.00765    -118.50015    2018-04-16T16:57:03Z    
4/16/2018    9:57:03    42.20         15.92        1.09      100.86                5.65          33.55     2889  34.00765    -118.50015    2018-04-16T16:57:03Z    
4/16/2018    9:57:03    42.20         15.92        1.09      100.84                5.68          33.55     2890  34.00765    -118.50015    2018-04-16T16:57:03Z    
4/16/2018    9:57:03    42.20         15.92        1.09      100.82                5.75          33.55     2891  34.00765    -118.50015    2018-04-16T16:57:03Z    
4/16/2018    9:57:03    42.20         15.93        1.10      100.80                5.79          33.55     2892  34.00765    -118.50015    2018-04-16T16:57:03Z    
4/16/2018    9:57:04    42.20         15.93        1.13      100.84                5.82          33.54     2893  34.00765    -118.50015    2018-04-16T16:57:04Z    
4/16/2018    9:57:04    42.20         15.93        1.16      100.84                5.84          33.54     2894  34.00765    -118.50015    2018-04-16T16:57:04Z    
4/16/2018    9:57:04    42.20         15.93        1.17      100.83                5.82          33.54     2895  34.00765    -118.50015    2018-04-16T16:57:04Z    
4/16/2018    9:57:04    42.19         15.91        1.22      100.88                5.80          33.55     2896  34.00765    -118.50015    2018-04-16T16:57:04Z    
4/16/2018    9:57:04    42.19         15.91        1.23      100.84                5.72          33.55     2897  34.00765    -118.50015    2018-04-16T16:57:04Z    
4/16/2018    9:57:04    42.19         15.91        1.26      100.81                5.65          33.56     2898  34.00765    -118.50015    2018-04-16T16:57:04Z    
4/16/2018    9:57:05    42.19         15.90        1.27      100.83                5.58          33.56     2899  34.00765    -118.50015    2018-04-16T16:57:05Z    
4/16/2018    9:57:05    42.19         15.90        1.29      100.78                5.53          33.56     2900  34.00765    -118.50015    2018-04-16T16:57:05Z    
4/16/2018    9:57:05    42.19         15.90        1.29      100.76                5.52          33.56     2901  34.00765    -118.50015    2018-04-16T16:57:05Z    
4/16/2018    9:57:05    42.19         15.89        1.29      100.78                5.48          33.57     2902  34.00765    -118.50015    2018-04-16T16:57:05Z    
4/16/2018    9:57:05    42.19         15.89        1.26      100.81                5.40          33.57     2903  34.00765    -118.50015    2018-04-16T16:57:05Z    
4/16/2018    9:57:05    42.18         15.89        1.24      100.73                5.38          33.56     2904  34.00765    -118.50015    2018-04-16T16:57:05Z    
4/16/2018    9:57:06    42.17         15.89        1.19      100.73                5.42          33.56     2905  34.00765    -118.50015    2018-04-16T16:57:06Z    
4/16/2018    9:57:06    42.18         15.89        1.14      100.73                5.45          33.56     2906  34.00765    -118.50015    2018-04-16T16:57:06Z    
4/16/2018    9:57:06    42.18         15.89        1.08      100.62                5.50          33.56     2907  34.00765    -118.50015    2018-04-16T16:57:06Z    
4/16/2018    9:57:06    42.19         15.89        1.05      100.57                5.74          33.56     2908  34.00765    -118.50015    2018-04-16T16:57:06Z    
4/16/2018    9:57:06    42.19         15.89        1.00      100.52                5.84          33.56     2909  34.00765    -118.50015    2018-04-16T16:57:06Z    
4/16/2018    9:57:06    42.19         15.90        0.96      100.55                5.82          33.56     2910  34.00765    -118.50015    2018-04-16T16:57:06Z    
4/16/2018    9:57:07    42.19         15.90        0.93      100.50                5.85          33.56     2911  34.00765    -118.50015    2018-04-16T16:57:07Z    
4/16/2018    9:57:07    42.19         15.91        0.92      100.46                5.87          33.56     2912  34.00765    -118.50015    2018-04-16T16:57:07Z    
4/16/2018    9:57:07    42.20         15.91        0.92      100.47                5.91          33.56     2913  34.00765    -118.50015    2018-04-16T16:57:07Z    
4/16/2018    9:57:07    42.20         15.91        0.91      100.44                5.87          33.56     2914  34.00765    -118.50015    2018-04-16T16:57:07Z    
4/16/2018    9:57:07    42.21         15.92        0.92      100.43                5.81          33.57     2915  34.00765    -118.50015    2018-04-16T16:57:07Z    
4/16/2018    9:57:07    42.22         15.92        0.93      100.42                5.75          33.57     2916  34.00765    -118.50015    2018-04-16T16:57:07Z    
4/16/2018    9:57:08    42.22         15.92        0.95      100.46                5.69          33.56     2917  34.00765    -118.50015    2018-04-16T16:57:08Z    
4/16/2018    9:57:08    42.21         15.93        0.96      100.46                5.65          33.56     2918  34.00765    -118.50015    2018-04-16T16:57:08Z    
4/16/2018    9:57:08    42.22         15.93        1.00      100.49                5.71          33.56     2919  34.00765    -118.50015    2018-04-16T16:57:08Z    
4/16/2018    9:57:08    42.21         15.93        1.05      100.47                5.75          33.56     2920  34.00765    -118.50015    2018-04-16T16:57:08Z    
4/16/2018    9:57:08    42.20         15.93        1.12      100.48                5.73          33.54     2921  34.00765    -118.50015    2018-04-16T16:57:08Z    
4/16/2018    9:57:08    42.19         15.93        1.17      100.52                5.65          33.53     2922  34.00765    -118.50015    2018-04-16T16:57:08Z    
4/16/2018    9:57:09    42.19         15.93        1.22      100.55                5.58          33.53     2923  34.00765    -118.50015    2018-04-16T16:57:09Z    
4/16/2018    9:57:09    42.19         15.92        1.25      100.54                5.58          33.54     2924  34.00765    -118.50015    2018-04-16T16:57:09Z    
4/16/2018    9:57:09    42.19         15.92        1.29      100.58                5.62          33.54     2925  34.00765    -118.50015    2018-04-16T16:57:09Z    
4/16/2018    9:57:09    42.19         15.91        1.29      100.61                5.64          33.55     2926  34.00765    -118.50015    2018-04-16T16:57:09Z    
4/16/2018    9:57:09    42.19         15.91        1.30      100.58                5.58          33.55     2927  34.00765    -118.50015    2018-04-16T16:57:09Z    
4/16/2018    9:57:09    42.20         15.91        1.28      100.58                5.52          33.56     2928  34.00765    -118.50015    2018-04-16T16:57:09Z    
4/16/2018    9:57:10    42.20         15.91        1.26      100.60                5.46          33.56     2929  34.00765    -118.50015    2018-04-16T16:57:10Z    
4/16/2018    9:57:10    42.20         15.92        1.23      100.61                5.47          33.56     2930  34.00765    -118.50015    2018-04-16T16:57:10Z    
4/16/2018    9:57:10    42.20         15.91        1.19      100.60                5.48          33.56     2931  34.00765    -118.50015    2018-04-16T16:57:10Z    
4/16/2018    9:57:10    42.20         15.91        1.14      100.61                5.51          33.56     2932  34.00765    -118.50015    2018-04-16T16:57:10Z    
4/16/2018    9:57:10    42.20         15.92        1.12      100.64                5.59          33.56     2933  34.00765    -118.50015    2018-04-16T16:57:10Z    
4/16/2018    9:57:10    42.21         15.92        1.11      100.64                5.70          33.56     2934  34.00765    -118.50015    2018-04-16T16:57:10Z    
4/16/2018    9:57:11    42.21         15.93        1.12      100.56                5.97          33.55     2935  34.00765    -118.50015    2018-04-16T16:57:11Z    
4/16/2018    9:57:11    42.21         15.92        1.11      100.62                5.96          33.56     2936  34.00765    -118.50015    2018-04-16T16:57:11Z    
4/16/2018    9:57:11    42.21         15.93        1.12      100.64                5.86          33.55     2937  34.00765    -118.50015    2018-04-16T16:57:11Z    
4/16/2018    9:57:11    42.21         15.93        1.13      100.62                5.72          33.56     2938  34.00765    -118.50015    2018-04-16T16:57:11Z    
4/16/2018    9:57:11    42.21         15.93        1.11      100.62                5.60          33.56     2939  34.00765    -118.50015    2018-04-16T16:57:11Z    
4/16/2018    9:57:11    42.21         15.93        1.09      100.61                5.62          33.55     2940  34.00765    -118.50015    2018-04-16T16:57:11Z    
4/16/2018    9:57:12    42.21         15.93        1.05      100.56                5.75          33.55     2941  34.00765    -118.50015    2018-04-16T16:57:12Z    
4/16/2018    9:57:12    42.21         15.92        1.01      100.63                5.76          33.55     2942  34.00765    -118.50015    2018-04-16T16:57:12Z    
4/16/2018    9:57:12    42.21         15.92        0.98      100.61                5.74          33.55     2943  34.00765    -118.50015    2018-04-16T16:57:12Z    
4/16/2018    9:57:12    42.20         15.92        0.97      100.58                5.72          33.55     2944  34.00765    -118.50015    2018-04-16T16:57:12Z    
4/16/2018    9:57:12    42.21         15.92        0.97      100.63                5.65          33.56     2945  34.00765    -118.50015    2018-04-16T16:57:12Z    
4/16/2018    9:57:12    42.21         15.92        0.98      100.59                5.66          33.56     2946  34.00765    -118.50015    2018-04-16T16:57:12Z    
4/16/2018    9:57:13    42.21         15.92        1.00      100.62                5.59          33.55     2947  34.00765    -118.50015    2018-04-16T16:57:13Z    
4/16/2018    9:57:13    42.21         15.92        1.03      100.64                5.61          33.56     2948  34.00765    -118.50015    2018-04-16T16:57:13Z    
4/16/2018    9:57:13    42.21         15.92        1.05      100.65                5.62          33.56     2949  34.00765    -118.50015    2018-04-16T16:57:13Z    
4/16/2018    9:57:13    42.21         15.92        1.08      100.69                5.62          33.56     2950  34.00765    -118.50015    2018-04-16T16:57:13Z    
4/16/2018    9:57:13    42.20         15.92        1.10      100.66                5.77          33.55     2951  34.00765    -118.50015    2018-04-16T16:57:13Z    
4/16/2018    9:57:13    42.20         15.92        1.11      100.73                5.89          33.55     2952  34.00765    -118.50015    2018-04-16T16:57:13Z    
4/16/2018    9:57:14    42.20         15.92        1.12      100.69                5.82          33.55     2953  34.00765    -118.50015    2018-04-16T16:57:14Z    
4/16/2018    9:57:14    42.20         15.92        1.12      100.69                5.70          33.55     2954  34.00765    -118.50015    2018-04-16T16:57:14Z    
4/16/2018    9:57:14    42.20         15.92        1.12      100.71                5.63          33.55     2955  34.00765    -118.50015    2018-04-16T16:57:14Z    
4/16/2018    9:57:14    42.20         15.92        1.13      100.66                5.61          33.55     2956  34.00765    -118.50015    2018-04-16T16:57:14Z    
4/16/2018    9:57:14    42.20         15.92        1.13      100.64                5.63          33.55     2957  34.00765    -118.50015    2018-04-16T16:57:14Z    
4/16/2018    9:57:14    42.20         15.92        1.13      100.67                5.70          33.55     2958  34.00765    -118.50015    2018-04-16T16:57:14Z    
4/16/2018    9:57:15    42.20         15.92        1.12      100.63                5.75          33.55     2959  34.00765    -118.50015    2018-04-16T16:57:15Z    
4/16/2018    9:57:15    42.20         15.92        1.12      100.68                5.83          33.55     2960  34.00765    -118.50015    2018-04-16T16:57:15Z    
4/16/2018    9:57:15    42.21         15.92        1.12      100.70                5.98          33.55     2961  34.00765    -118.50015    2018-04-16T16:57:15Z    
4/16/2018    9:57:15    42.21         15.92        1.11      100.67                5.93          33.55     2962  34.00765    -118.50015    2018-04-16T16:57:15Z    
4/16/2018    9:57:15    42.21         15.92        1.13      100.73                5.92          33.55     2963  34.00765    -118.50015    2018-04-16T16:57:15Z    
4/16/2018    9:57:15    42.21         15.92        1.14      100.68                5.87          33.56     2964  34.00765    -118.50015    2018-04-16T16:57:15Z    
4/16/2018    9:57:16    42.21         15.92        1.15      100.70                5.82          33.56     2965  34.00765    -118.50015    2018-04-16T16:57:16Z    
4/16/2018    9:57:16    42.21         15.92        1.15      100.73                5.75          33.56     2966  34.00765    -118.50015    2018-04-16T16:57:16Z    
4/16/2018    9:57:16    42.21         15.92        1.16      100.69                5.74          33.56     2967  34.00765    -118.50015    2018-04-16T16:57:16Z    
4/16/2018    9:57:16    42.21         15.92        1.15      100.72                5.70          33.56     2968  34.00765    -118.50015    2018-04-16T16:57:16Z    
4/16/2018    9:57:16    42.21         15.92        1.15      100.74                5.74          33.56     2969  34.00765    -118.50015    2018-04-16T16:57:16Z    
4/16/2018    9:57:16    42.21         15.92        1.13      100.70                5.76          33.56     2970  34.00765    -118.50015    2018-04-16T16:57:16Z    
4/16/2018    9:57:17    42.21         15.92        1.10      100.71                5.74          33.56     2971  34.00765    -118.50015    2018-04-16T16:57:17Z    
4/16/2018    9:57:17    42.21         15.92        1.08      100.70                5.66          33.56     2972  34.00765    -118.50015    2018-04-16T16:57:17Z    
4/16/2018    9:57:17    42.21         15.93        1.06      100.65                5.62          33.55     2973  34.00765    -118.50015    2018-04-16T16:57:17Z    
4/16/2018    9:57:17    42.21         15.93        1.06      100.69                5.59          33.55     2974  34.00765    -118.50015    2018-04-16T16:57:17Z    
4/16/2018    9:57:17    42.21         15.93        1.04      100.66                5.66          33.55     2975  34.00765    -118.50015    2018-04-16T16:57:17Z    
4/16/2018    9:57:17    42.21         15.93        1.06      100.69                5.87          33.55     2976  34.00765    -118.50015    2018-04-16T16:57:17Z    
4/16/2018    9:57:18    42.21         15.93        1.05      100.71                5.88          33.55     2977  34.00765    -118.50015    2018-04-16T16:57:18Z    
4/16/2018    9:57:18    42.21         15.93        1.03      100.69                5.84          33.55     2978  34.00765    -118.50015    2018-04-16T16:57:18Z    
4/16/2018    9:57:18    42.21         15.93        1.04      100.66                5.79          33.55     2979  34.00765    -118.50015    2018-04-16T16:57:18Z    
4/16/2018    9:57:18    42.21         15.93        1.01      100.68                5.72          33.56     2980  34.00765    -118.50015    2018-04-16T16:57:18Z    
4/16/2018    9:57:18    42.21         15.93        1.00      100.68                5.65          33.56     2981  34.00765    -118.50015    2018-04-16T16:57:18Z    
4/16/2018    9:57:18    42.21         15.93        0.96      100.64                5.73          33.56     2982  34.00765    -118.50015    2018-04-16T16:57:18Z    
4/16/2018    9:57:19    42.22         15.93        0.93      100.61                5.77          33.55     2983  34.00765    -118.50015    2018-04-16T16:57:19Z    
4/16/2018    9:57:19    42.22         15.93        0.90      100.63                5.69          33.55     2984  34.00765    -118.50015    2018-04-16T16:57:19Z    
4/16/2018    9:57:19    42.21         15.94        0.91      100.68                5.68          33.55     2985  34.00765    -118.50015    2018-04-16T16:57:19Z    
4/16/2018    9:57:19    42.21         15.94        0.93      100.69                5.69          33.55     2986  34.00765    -118.50015    2018-04-16T16:57:19Z    
4/16/2018    9:57:19    42.21         15.94        0.95      100.75                5.68          33.55     2987  34.00765    -118.50015    2018-04-16T16:57:19Z    
4/16/2018    9:57:19    42.21         15.94        0.99      100.72                5.70          33.55     2988  34.00765    -118.50015    2018-04-16T16:57:19Z    
4/16/2018    9:57:20    42.21         15.93        1.02      100.72                5.67          33.55     2989  34.00765    -118.50015    2018-04-16T16:57:20Z    
4/16/2018    9:57:20    42.20         15.93        1.05      100.79                5.80          33.55     2990  34.00765    -118.50015    2018-04-16T16:57:20Z    
4/16/2018    9:57:20    42.20         15.93        1.08      100.74                5.82          33.55     2991  34.00765    -118.50015    2018-04-16T16:57:20Z    
4/16/2018    9:57:20    42.21         15.93        1.11      100.73                5.78          33.55     2992  34.00765    -118.50015    2018-04-16T16:57:20Z    
4/16/2018    9:57:20    42.20         15.93        1.14      100.73                5.76          33.55     2993  34.00765    -118.50015    2018-04-16T16:57:20Z    
4/16/2018    9:57:20    42.20         15.93        1.17      100.78                5.73          33.55     2994  34.00765    -118.50015    2018-04-16T16:57:20Z    
4/16/2018    9:57:21    42.20         15.93        1.19      100.77                5.76          33.55     2995  34.00765    -118.50015    2018-04-16T16:57:21Z    
4/16/2018    9:57:21    42.20         15.92        1.20      100.79                5.76          33.55     2996  34.00765    -118.50015    2018-04-16T16:57:21Z    
4/16/2018    9:57:21    42.20         15.92        1.23      100.80                5.72          33.54     2997  34.00765    -118.50015    2018-04-16T16:57:21Z    
4/16/2018    9:57:21    42.20         15.92        1.24      100.81                5.71          33.55     2998  34.00765    -118.50015    2018-04-16T16:57:21Z    
4/16/2018    9:57:21    42.20         15.92        1.23      100.76                5.65          33.55     2999  34.00765    -118.50015    2018-04-16T16:57:21Z    
4/17/2018    9:03:48    39.41         12.91        1.10      91.29                 4.25          33.60     1000  34.00765    -118.50015    2018-04-17T16:03:48Z    
4/17/2018    9:03:48    39.41         12.91        1.13      91.27                 4.34          33.61     1001  34.00765    -118.50015    2018-04-17T16:03:48Z    
4/17/2018    9:03:48    39.41         12.90        1.12      91.30                 4.40          33.61     1002  34.00765    -118.50015    2018-04-17T16:03:48Z    
4/17/2018    9:03:49    39.42         12.90        1.13      91.25                 4.51          33.61     1003  34.00765    -118.50015    2018-04-17T16:03:49Z    
4/17/2018    9:03:49    39.42         12.90        1.13      91.21                 4.46          33.61     1004  34.00765    -118.50015    2018-04-17T16:03:49Z    
4/17/2018    9:03:49    39.42         12.90        1.12      91.21                 4.33          33.61     1005  34.00765    -118.50015    2018-04-17T16:03:49Z    
4/17/2018    9:03:49    39.42         12.90        1.10      91.21                 4.22          33.61     1006  34.00765    -118.50015    2018-04-17T16:03:49Z    
4/17/2018    9:03:49    39.42         12.90        1.08      91.18                 4.15          33.61     1007  34.00765    -118.50015    2018-04-17T16:03:49Z    
4/17/2018    9:03:49    39.42         12.91        1.06      91.20                 4.17          33.61     1008  34.00765    -118.50015    2018-04-17T16:03:49Z    
4/17/2018    9:03:50    39.42         12.91        1.03      91.20                 4.19          33.61     1009  34.00765    -118.50015    2018-04-17T16:03:50Z    
4/17/2018    9:03:50    39.42         12.91        1.00      91.18                 4.12          33.61     1010  34.00765    -118.50015    2018-04-17T16:03:50Z    
4/17/2018    9:03:50    39.42         12.91        0.95      91.20                 4.15          33.61     1011  34.00765    -118.50015    2018-04-17T16:03:50Z    
4/17/2018    9:03:50    39.42         12.91        0.90      91.21                 4.26          33.61     1012  34.00765    -118.50015    2018-04-17T16:03:50Z    
4/17/2018    9:03:50    39.42         12.91        0.84      91.15                 4.34          33.61     1013  34.00765    -118.50015    2018-04-17T16:03:50Z    
4/17/2018    9:03:50    39.42         12.91        0.80      91.10                 4.59          33.61     1014  34.00765    -118.50015    2018-04-17T16:03:50Z    
4/17/2018    9:03:51    39.42         12.91        0.76      91.17                 4.68          33.61     1015  34.00765    -118.50015    2018-04-17T16:03:51Z    
4/17/2018    9:03:51    39.42         12.91        0.73      91.15                 4.65          33.61     1016  34.00765    -118.50015    2018-04-17T16:03:51Z    
4/17/2018    9:03:51    39.42         12.91        0.73      91.10                 4.59          33.61     1017  34.00765    -118.50015    2018-04-17T16:03:51Z    
4/17/2018    9:03:51    39.42         12.91        0.73      91.11                 4.61          33.61     1018  34.00765    -118.50015    2018-04-17T16:03:51Z    
4/17/2018    9:03:51    39.42         12.91        0.72      91.08                 4.58          33.61     1019  34.00765    -118.50015    2018-04-17T16:03:51Z    
4/17/2018    9:03:51    39.42         12.91        0.74      91.09                 4.40          33.61     1020  34.00765    -118.50015    2018-04-17T16:03:51Z    
4/17/2018    9:03:52    39.42         12.91        0.75      91.14                 4.33          33.61     1021  34.00765    -118.50015    2018-04-17T16:03:52Z    
4/17/2018    9:03:52    39.42         12.91        0.78      91.10                 4.38          33.61     1022  34.00765    -118.50015    2018-04-17T16:03:52Z    
4/17/2018    9:03:52    39.42         12.91        0.78      91.11                 4.48          33.61     1023  34.00765    -118.50015    2018-04-17T16:03:52Z    
4/17/2018    9:03:52    39.41         12.91        0.81      91.10                 4.36          33.60     1024  34.00765    -118.50015    2018-04-17T16:03:52Z    
4/17/2018    9:03:52    39.40         12.91        0.83      91.13                 4.26          33.59     1025  34.00765    -118.50015    2018-04-17T16:03:52Z    
4/17/2018    9:03:52    39.40         12.91        0.85      91.09                 4.15          33.60     1026  34.00765    -118.50015    2018-04-17T16:03:52Z    
4/17/2018    9:03:53    39.40         12.91        0.86      91.11                 4.16          33.60     1027  34.00765    -118.50015    2018-04-17T16:03:53Z    
4/17/2018    9:03:53    39.41         12.91        0.86      91.07                 4.28          33.60     1028  34.00765    -118.50015    2018-04-17T16:03:53Z    
4/17/2018    9:03:53    39.41         12.91        0.86      91.15                 4.42          33.60     1029  34.00765    -118.50015    2018-04-17T16:03:53Z    
4/17/2018    9:03:53    39.41         12.90        0.86      91.10                 4.49          33.61     1030  34.00765    -118.50015    2018-04-17T16:03:53Z    
4/17/2018    9:03:53    39.41         12.89        0.85      91.09                 4.55          33.62     1031  34.00765    -118.50015    2018-04-17T16:03:53Z    
4/17/2018    9:03:53    39.40         12.89        0.84      91.13                 4.73          33.62     1032  34.00765    -118.50015    2018-04-17T16:03:53Z    
4/17/2018    9:03:54    39.40         12.88        0.82      91.14                 5.16          33.61     1033  34.00765    -118.50015    2018-04-17T16:03:54Z    
4/17/2018    9:03:54    39.40         12.88        0.78      91.12                 5.26          33.62     1034  34.00765    -118.50015    2018-04-17T16:03:54Z    
4/17/2018    9:03:54    39.40         12.89        0.77      91.08                 5.17          33.61     1035  34.00765    -118.50015    2018-04-17T16:03:54Z    
4/17/2018    9:03:54    39.40         12.89        0.75      91.07                 5.09          33.61     1036  34.00765    -118.50015    2018-04-17T16:03:54Z    
4/17/2018    9:03:54    39.40         12.88        0.73      91.05                 5.21          33.61     1037  34.00765    -118.50015    2018-04-17T16:03:54Z    
4/17/2018    9:03:54    39.40         12.88        0.73      91.06                 5.13          33.61     1038  34.00765    -118.50015    2018-04-17T16:03:54Z    
4/17/2018    9:03:55    39.39         12.88        0.74      90.99                 4.96          33.61     1039  34.00765    -118.50015    2018-04-17T16:03:55Z    
4/17/2018    9:03:55    39.39         12.89        0.75      90.98                 4.74          33.60     1040  34.00765    -118.50015    2018-04-17T16:03:55Z    
4/17/2018    9:03:55    39.39         12.88        0.77      91.01                 4.56          33.60     1041  34.00765    -118.50015    2018-04-17T16:03:55Z    
4/17/2018    9:03:55    39.39         12.89        0.78      90.96                 4.38          33.60     1042  34.00765    -118.50015    2018-04-17T16:03:55Z    
4/17/2018    9:03:55    39.39         12.89        0.80      91.02                 4.27          33.60     1043  34.00765    -118.50015    2018-04-17T16:03:55Z    
4/17/2018    9:03:55    39.40         12.89        0.81      91.00                 4.26          33.60     1044  34.00765    -118.50015    2018-04-17T16:03:55Z    
4/17/2018    9:03:56    39.40         12.89        0.84      90.96                 4.28          33.61     1045  34.00765    -118.50015    2018-04-17T16:03:56Z    
4/17/2018    9:03:56    39.40         12.89        0.85      90.98                 4.23          33.61     1046  34.00765    -118.50015    2018-04-17T16:03:56Z    
4/17/2018    9:03:56    39.40         12.87        0.88      91.07                 4.16          33.63     1047  34.00765    -118.50015    2018-04-17T16:03:56Z    
4/17/2018    9:03:56    39.41         12.88        0.89      91.09                 4.12          33.62     1048  34.00765    -118.50015    2018-04-17T16:03:56Z    
4/17/2018    9:03:56    39.41         12.89        0.90      91.08                 4.18          33.62     1049  34.00765    -118.50015    2018-04-17T16:03:56Z    
4/17/2018    9:03:56    39.41         12.88        0.92      91.11                 4.20          33.62     1050  34.00765    -118.50015    2018-04-17T16:03:56Z    
4/17/2018    9:03:57    39.41         12.89        0.94      91.05                 4.10          33.62     1051  34.00765    -118.50015    2018-04-17T16:03:57Z    
4/17/2018    9:03:57    39.41         12.89        0.94      91.08                 3.97          33.62     1052  34.00765    -118.50015    2018-04-17T16:03:57Z    
4/17/2018    9:03:57    39.41         12.89        0.95      91.03                 3.99          33.62     1053  34.00765    -118.50015    2018-04-17T16:03:57Z    
4/17/2018    9:03:57    39.41         12.90        0.94      91.02                 4.10          33.61     1054  34.00765    -118.50015    2018-04-17T16:03:57Z    
4/17/2018    9:03:57    39.41         12.91        0.94      91.01                 4.02          33.61     1055  34.00765    -118.50015    2018-04-17T16:03:57Z    
4/17/2018    9:03:57    39.41         12.90        0.93      91.00                 4.07          33.61     1056  34.00765    -118.50015    2018-04-17T16:03:57Z    
4/17/2018    9:03:58    39.42         12.90        0.90      91.03                 4.12          33.62     1057  34.00765    -118.50015    2018-04-17T16:03:58Z    
4/17/2018    9:03:58    39.42         12.90        0.90      91.07                 4.11          33.61     1058  34.00765    -118.50015    2018-04-17T16:03:58Z    
4/17/2018    9:03:58    39.42         12.90        0.88      91.03                 4.18          33.61     1059  34.00765    -118.50015    2018-04-17T16:03:58Z    
4/17/2018    9:03:58    39.42         12.90        0.86      91.08                 4.15          33.61     1060  34.00765    -118.50015    2018-04-17T16:03:58Z    
4/17/2018    9:03:58    39.42         12.90        0.86      91.09                 4.09          33.61     1061  34.00765    -118.50015    2018-04-17T16:03:58Z    
4/17/2018    9:03:58    39.41         12.90        0.90      91.10                 4.20          33.61     1062  34.00765    -118.50015    2018-04-17T16:03:58Z    
4/17/2018    9:03:59    39.42         12.90        0.91      91.10                 4.36          33.61     1063  34.00765    -118.50015    2018-04-17T16:03:59Z    
4/17/2018    9:03:59    39.42         12.90        0.93      91.06                 4.32          33.62     1064  34.00765    -118.50015    2018-04-17T16:03:59Z    
4/17/2018    9:03:59    39.42         12.90        0.95      91.10                 4.37          33.61     1065  34.00765    -118.50015    2018-04-17T16:03:59Z    
4/17/2018    9:03:59    39.42         12.90        0.94      91.13                 4.32          33.62     1066  34.00765    -118.50015    2018-04-17T16:03:59Z    
4/17/2018    9:03:59    39.42         12.90        0.92      91.11                 4.31          33.62     1067  34.00765    -118.50015    2018-04-17T16:03:59Z    
4/17/2018    9:03:59    39.41         12.90        0.90      91.12                 4.52          33.61     1068  34.00765    -118.50015    2018-04-17T16:03:59Z    
4/17/2018    9:04:00    39.41         12.90        0.84      91.14                 4.57          33.62     1069  34.00765    -118.50015    2018-04-17T16:04:00Z    
4/17/2018    9:04:00    39.42         12.90        0.80      91.13                 4.49          33.61     1070  34.00765    -118.50015    2018-04-17T16:04:00Z    
4/17/2018    9:04:00    39.42         12.90        0.75      91.15                 4.35          33.61     1071  34.00765    -118.50015    2018-04-17T16:04:00Z    
4/17/2018    9:04:00    39.42         12.90        0.72      91.16                 4.20          33.61     1072  34.00765    -118.50015    2018-04-17T16:04:00Z    
4/17/2018    9:04:00    39.42         12.90        0.70      91.19                 4.05          33.61     1073  34.00765    -118.50015    2018-04-17T16:04:00Z    
4/17/2018    9:04:00    39.42         12.90        0.69      91.20                 3.90          33.61     1074  34.00765    -118.50015    2018-04-17T16:04:00Z    
4/17/2018    9:04:01    39.41         12.90        0.71      91.19                 3.79          33.61     1075  34.00765    -118.50015    2018-04-17T16:04:01Z    
4/17/2018    9:04:01    39.41         12.90        0.75      91.16                 3.72          33.61     1076  34.00765    -118.50015    2018-04-17T16:04:01Z    
4/17/2018    9:04:01    39.41         12.90        0.82      91.19                 3.78          33.61     1077  34.00765    -118.50015    2018-04-17T16:04:01Z    
4/17/2018    9:04:01    39.41         12.90        0.89      91.19                 3.78          33.61     1078  34.00765    -118.50015    2018-04-17T16:04:01Z    
4/17/2018    9:04:01    39.41         12.90        0.89      91.19                 3.78          33.61     1079  34.00765    -118.50015    2018-04-17T16:04:01Z    
4/17/2018    9:04:01    39.42         12.90        1.08      91.19                 3.74          33.61     1080  34.00765    -118.50015    2018-04-17T16:04:01Z    
4/17/2018    9:04:02    39.42         12.90        1.13      91.17                 3.74          33.61     1081  34.00765    -118.50015    2018-04-17T16:04:02Z    
4/17/2018    9:04:02    39.42         12.90        1.19      91.14                 3.78          33.61     1082  34.00765    -118.50015    2018-04-17T16:04:02Z    
4/17/2018    9:04:02    39.42         12.90        1.23      91.14                 3.91          33.61     1083  34.00765    -118.50015    2018-04-17T16:04:02Z    
4/17/2018    9:04:02    39.42         12.90        1.25      91.18                 3.95          33.61     1084  34.00765    -118.50015    2018-04-17T16:04:02Z    
4/17/2018    9:04:02    39.42         12.90        1.27      91.14                 4.04          33.61     1085  34.00765    -118.50015    2018-04-17T16:04:02Z    
4/17/2018    9:04:02    39.42         12.90        1.25      91.19                 4.09          33.61     1086  34.00765    -118.50015    2018-04-17T16:04:02Z    
4/17/2018    9:04:03    39.42         12.91        1.22      91.18                 4.10          33.61     1087  34.00765    -118.50015    2018-04-17T16:04:03Z    
4/17/2018    9:04:03    39.42         12.90        1.19      91.11                 4.19          33.61     1088  34.00765    -118.50015    2018-04-17T16:04:03Z    
4/17/2018    9:04:03    39.42         12.91        1.13      91.11                 4.12          33.61     1089  34.00765    -118.50015    2018-04-17T16:04:03Z    
4/17/2018    9:04:03    39.42         12.90        1.08      91.18                 4.11          33.61     1090  34.00765    -118.50015    2018-04-17T16:04:03Z    
4/17/2018    9:04:03    39.42         12.90        1.01      91.13                 4.07          33.61     1091  34.00765    -118.50015    2018-04-17T16:04:03Z    
4/17/2018    9:04:03    39.42         12.90        0.92      91.13                 4.15          33.61     1092  34.00765    -118.50015    2018-04-17T16:04:03Z    
4/17/2018    9:04:04    39.42         12.90        0.87      91.14                 4.17          33.61     1093  34.00765    -118.50015    2018-04-17T16:04:04Z    
4/17/2018    9:04:04    39.42         12.90        0.78      91.14                 4.23          33.61     1094  34.00765    -118.50015    2018-04-17T16:04:04Z    
4/17/2018    9:04:04    39.41         12.90        0.74      91.14                 4.10          33.61     1095  34.00765    -118.50015    2018-04-17T16:04:04Z    
4/17/2018    9:04:04    39.41         12.90        0.70      91.12                 3.97          33.61     1096  34.00765    -118.50015    2018-04-17T16:04:04Z    
4/17/2018    9:04:04    39.41         12.90        0.71      91.13                 4.04          33.61     1097  34.00765    -118.50015    2018-04-17T16:04:04Z    
4/17/2018    9:04:04    39.41         12.90        0.72      91.12                 4.04          33.62     1098  34.00765    -118.50015    2018-04-17T16:04:04Z    
4/17/2018    9:04:05    39.41         12.89        0.75      91.12                 4.01          33.61     1099  34.00765    -118.50015    2018-04-17T16:04:05Z    
4/17/2018    9:04:05    39.41         12.90        0.77      91.15                 4.11          33.61     1100  34.00765    -118.50015    2018-04-17T16:04:05Z    
4/17/2018    9:04:05    39.41         12.90        0.79      91.12                 4.22          33.61     1101  34.00765    -118.50015    2018-04-17T16:04:05Z    
4/17/2018    9:04:05    39.41         12.90        0.79      91.12                 4.13          33.61     1102  34.00765    -118.50015    2018-04-17T16:04:05Z    
4/17/2018    9:04:05    39.41         12.90        0.79      91.08                 4.24          33.61     1103  34.00765    -118.50015    2018-04-17T16:04:05Z    
4/17/2018    9:04:05    39.41         12.90        0.77      91.12                 4.32          33.61     1104  34.00765    -118.50015    2018-04-17T16:04:05Z    
4/17/2018    9:04:06    39.41         12.90        0.77      91.11                 4.68          33.61     1105  34.00765    -118.50015    2018-04-17T16:04:06Z    
4/17/2018    9:04:06    39.41         12.90        0.76      91.08                 4.82          33.61     1106  34.00765    -118.50015    2018-04-17T16:04:06Z    
4/17/2018    9:04:06    39.41         12.90        0.77      91.03                 4.70          33.61     1107  34.00765    -118.50015    2018-04-17T16:04:06Z    
4/17/2018    9:04:06    39.41         12.90        0.78      91.05                 4.54          33.61     1108  34.00765    -118.50015    2018-04-17T16:04:06Z    
4/17/2018    9:04:06    39.41         12.90        0.78      91.05                 4.34          33.61     1109  34.00765    -118.50015    2018-04-17T16:04:06Z    
4/17/2018    9:04:06    39.41         12.90        0.79      91.06                 4.15          33.62     1110  34.00765    -118.50015    2018-04-17T16:04:06Z    
4/17/2018    9:04:07    39.41         12.90        0.80      90.97                 4.03          33.61     1111  34.00765    -118.50015    2018-04-17T16:04:07Z    
4/17/2018    9:04:07    39.41         12.90        0.81      90.98                 3.94          33.61     1112  34.00765    -118.50015    2018-04-17T16:04:07Z    
4/17/2018    9:04:07    39.41         12.90        0.85      90.99                 3.83          33.61     1113  34.00765    -118.50015    2018-04-17T16:04:07Z    
4/17/2018    9:04:07    39.41         12.90        0.88      90.99                 3.78          33.61     1114  34.00765    -118.50015    2018-04-17T16:04:07Z    
4/17/2018    9:04:07    39.41         12.90        0.93      90.97                 3.76          33.61     1115  34.00765    -118.50015    2018-04-17T16:04:07Z    
4/17/2018    9:04:07    39.42         12.90        0.98      90.97                 3.74          33.62     1116  34.00765    -118.50015    2018-04-17T16:04:07Z    
4/17/2018    9:04:08    39.42         12.90        1.04      91.00                 3.71          33.62     1117  34.00765    -118.50015    2018-04-17T16:04:08Z    
4/17/2018    9:04:08    39.43         12.91        1.09      91.00                 3.67          33.62     1118  34.00765    -118.50015    2018-04-17T16:04:08Z    
4/17/2018    9:04:08    39.43         12.91        1.13      91.02                 3.79          33.62     1119  34.00765    -118.50015    2018-04-17T16:04:08Z    
4/17/2018    9:04:08    39.43         12.91        1.15      91.03                 3.95          33.62     1120  34.00765    -118.50015    2018-04-17T16:04:08Z    
4/17/2018    9:04:08    39.43         12.92        1.15      91.07                 4.11          33.62     1121  34.00765    -118.50015    2018-04-17T16:04:08Z    
4/17/2018    9:04:08    39.43         12.92        1.14      91.10                 4.20          33.61     1122  34.00765    -118.50015    2018-04-17T16:04:08Z    
4/17/2018    9:04:09    39.43         12.92        1.09      91.08                 4.21          33.61     1123  34.00765    -118.50015    2018-04-17T16:04:09Z    
4/17/2018    9:04:09    39.42         12.91        1.03      91.08                 4.14          33.61     1124  34.00765    -118.50015    2018-04-17T16:04:09Z    
4/17/2018    9:04:09    39.42         12.91        0.96      91.12                 4.06          33.61     1125  34.00765    -118.50015    2018-04-17T16:04:09Z    
4/17/2018    9:04:09    39.42         12.91        0.89      91.11                 3.94          33.61     1126  34.00765    -118.50015    2018-04-17T16:04:09Z    
4/17/2018    9:04:09    39.42         12.91        0.81      91.12                 3.85          33.61     1127  34.00765    -118.50015    2018-04-17T16:04:09Z    
4/17/2018    9:04:09    39.42         12.91        0.74      91.16                 3.88          33.61     1128  34.00765    -118.50015    2018-04-17T16:04:09Z    
4/17/2018    9:04:10    39.42         12.90        0.68      91.12                 3.95          33.61     1129  34.00765    -118.50015    2018-04-17T16:04:10Z    
4/17/2018    9:04:10    39.42         12.90        0.65      91.13                 4.02          33.61     1130  34.00765    -118.50015    2018-04-17T16:04:10Z    
4/17/2018    9:04:10    39.42         12.90        0.63      91.15                 4.02          33.62     1131  34.00765    -118.50015    2018-04-17T16:04:10Z    
4/17/2018    9:04:10    39.42         12.90        0.63      91.16                 4.03          33.62     1132  34.00765    -118.50015    2018-04-17T16:04:10Z    
4/17/2018    9:04:10    39.41         12.90        0.66      91.18                 4.06          33.61     1133  34.00765    -118.50015    2018-04-17T16:04:10Z    
4/17/2018    9:04:10    39.41         12.90        0.67      91.15                 3.98          33.61     1134  34.00765    -118.50015    2018-04-17T16:04:10Z    
4/17/2018    9:04:11    39.41         12.90        0.71      91.20                 3.94          33.61     1135  34.00765    -118.50015    2018-04-17T16:04:11Z    
4/17/2018    9:04:11    39.41         12.90        0.73      91.21                 3.92          33.61     1136  34.00765    -118.50015    2018-04-17T16:04:11Z    
4/17/2018    9:04:11    39.41         12.90        0.78      91.19                 3.93          33.61     1137  34.00765    -118.50015    2018-04-17T16:04:11Z    
4/17/2018    9:04:11    39.41         12.90        0.83      91.16                 3.97          33.61     1138  34.00765    -118.50015    2018-04-17T16:04:11Z    
4/17/2018    9:04:11    39.42         12.90        0.89      91.17                 4.03          33.61     1139  34.00765    -118.50015    2018-04-17T16:04:11Z    
4/17/2018    9:04:11    39.42         12.90        0.92      91.20                 4.08          33.61     1140  34.00765    -118.50015    2018-04-17T16:04:11Z    
4/17/2018    9:04:12    39.42         12.90        0.99      91.19                 4.12          33.62     1141  34.00765    -118.50015    2018-04-17T16:04:12Z    
4/17/2018    9:04:12    39.43         12.90        1.03      91.20                 4.09          33.63     1142  34.00765    -118.50015    2018-04-17T16:04:12Z    
4/17/2018    9:04:12    39.43         12.91        1.06      91.19                 4.00          33.63     1143  34.00765    -118.50015    2018-04-17T16:04:12Z    
4/17/2018    9:04:12    39.43         12.91        1.10      91.20                 3.94          33.62     1144  34.00765    -118.50015    2018-04-17T16:04:12Z    
4/17/2018    9:04:12    39.43         12.91        1.13      91.22                 3.98          33.62     1145  34.00765    -118.50015    2018-04-17T16:04:12Z    
4/17/2018    9:04:12    39.43         12.92        1.14      91.23                 4.00          33.62     1146  34.00765    -118.50015    2018-04-17T16:04:12Z    
4/17/2018    9:04:13    39.43         12.90        1.15      91.26                 3.92          33.63     1147  34.00765    -118.50015    2018-04-17T16:04:13Z    
4/17/2018    9:04:13    39.42         12.89        1.19      91.30                 3.98          33.63     1148  34.00765    -118.50015    2018-04-17T16:04:13Z    
4/17/2018    9:04:13    39.41         12.89        1.22      91.30                 4.15          33.62     1149  34.00765    -118.50015    2018-04-17T16:04:13Z    
4/17/2018    9:04:13    39.40         12.90        1.26      91.32                 4.49          33.60     1150  34.00765    -118.50015    2018-04-17T16:04:13Z    
4/17/2018    9:04:13    39.40         12.91        1.28      91.26                 4.61          33.59     1151  34.00765    -118.50015    2018-04-17T16:04:13Z    
4/17/2018    9:04:13    39.39         12.89        1.31      91.31                 4.52          33.60     1152  34.00765    -118.50015    2018-04-17T16:04:13Z    
4/17/2018    9:04:14    39.39         12.90        1.31      91.26                 4.43          33.58     1153  34.00765    -118.50015    2018-04-17T16:04:14Z    
4/17/2018    9:04:14    39.39         12.91        1.30      91.26                 4.36          33.58     1154  34.00765    -118.50015    2018-04-17T16:04:14Z    
4/17/2018    9:04:14    39.41         12.90        1.27      91.28                 4.27          33.60     1155  34.00765    -118.50015    2018-04-17T16:04:14Z    
4/17/2018    9:04:14    39.41         12.91        1.24      91.27                 4.20          33.60     1156  34.00765    -118.50015    2018-04-17T16:04:14Z    
4/17/2018    9:04:14    39.42         12.91        1.16      91.26                 4.12          33.61     1157  34.00765    -118.50015    2018-04-17T16:04:14Z    
4/17/2018    9:04:14    39.42         12.91        1.07      91.26                 4.05          33.61     1158  34.00765    -118.50015    2018-04-17T16:04:14Z    
4/17/2018    9:04:15    39.42         12.91        0.95      91.21                 4.00          33.61     1159  34.00765    -118.50015    2018-04-17T16:04:15Z    
4/17/2018    9:04:15    39.42         12.91        0.83      91.20                 4.01          33.61     1160  34.00765    -118.50015    2018-04-17T16:04:15Z    
4/17/2018    9:04:15    39.42         12.91        0.73      91.16                 4.02          33.61     1161  34.00765    -118.50015    2018-04-17T16:04:15Z    
4/17/2018    9:04:15    39.41         12.90        0.65      91.21                 4.15          33.61     1162  34.00765    -118.50015    2018-04-17T16:04:15Z    
4/17/2018    9:04:15    39.40         12.90        0.62      91.16                 4.17          33.60     1163  34.00765    -118.50015    2018-04-17T16:04:15Z    
4/17/2018    9:04:15    39.40         12.89        0.61      91.14                 4.23          33.61     1164  34.00765    -118.50015    2018-04-17T16:04:15Z    
4/17/2018    9:04:16    39.40         12.90        0.62      91.11                 4.25          33.61     1165  34.00765    -118.50015    2018-04-17T16:04:16Z    
4/17/2018    9:04:16    39.40         12.89        0.65      91.09                 4.15          33.61     1166  34.00765    -118.50015    2018-04-17T16:04:16Z    
4/17/2018    9:04:16    39.40         12.89        0.69      91.05                 4.23          33.61     1167  34.00765    -118.50015    2018-04-17T16:04:16Z    
4/17/2018    9:04:16    39.41         12.89        0.72      91.04                 4.17          33.61     1168  34.00765    -118.50015    2018-04-17T16:04:16Z    
4/17/2018    9:04:16    39.41         12.90        0.78      91.07                 4.17          33.61     1169  34.00765    -118.50015    2018-04-17T16:04:16Z    
4/17/2018    9:04:16    39.41         12.90        0.83      90.94                 4.25          33.61     1170  34.00765    -118.50015    2018-04-17T16:04:16Z    
4/17/2018    9:04:17    39.41         12.90        0.84      90.89                 4.31          33.61     1171  34.00765    -118.50015    2018-04-17T16:04:17Z    
4/17/2018    9:04:17    39.41         12.90        0.84      90.83                 4.28          33.61     1172  34.00765    -118.50015    2018-04-17T16:04:17Z    
4/17/2018    9:04:17    39.41         12.90        0.84      90.85                 4.18          33.61     1173  34.00765    -118.50015    2018-04-17T16:04:17Z    
4/17/2018    9:04:17    39.41         12.90        0.83      90.79                 4.04          33.61     1174  34.00765    -118.50015    2018-04-17T16:04:17Z    
4/17/2018    9:04:17    39.41         12.90        0.80      90.85                 4.15          33.61     1175  34.00765    -118.50015    2018-04-17T16:04:17Z    
4/17/2018    9:04:17    39.41         12.90        0.76      90.80                 4.20          33.61     1176  34.00765    -118.50015    2018-04-17T16:04:17Z    
4/17/2018    9:04:18    39.40         12.89        0.73      90.75                 4.35          33.61     1177  34.00765    -118.50015    2018-04-17T16:04:18Z    
4/17/2018    9:04:18    39.40         12.89        0.68      90.74                 4.40          33.61     1178  34.00765    -118.50015    2018-04-17T16:04:18Z    
4/17/2018    9:04:18    39.41         12.89        0.66      90.72                 4.51          33.61     1179  34.00765    -118.50015    2018-04-17T16:04:18Z    
4/17/2018    9:04:18    39.40         12.89        0.64      90.76                 4.47          33.61     1180  34.00765    -118.50015    2018-04-17T16:04:18Z    
4/17/2018    9:04:18    39.40         12.89        0.61      90.69                 4.46          33.61     1181  34.00765    -118.50015    2018-04-17T16:04:18Z    
4/17/2018    9:04:18    39.40         12.89        0.61      90.68                 4.42          33.61     1182  34.00765    -118.50015    2018-04-17T16:04:18Z    
4/17/2018    9:04:19    39.40         12.89        0.62      90.67                 4.37          33.62     1183  34.00765    -118.50015    2018-04-17T16:04:19Z    
4/17/2018    9:04:19    39.40         12.89        0.65      90.68                 4.35          33.62     1184  34.00765    -118.50015    2018-04-17T16:04:19Z    
4/17/2018    9:04:19    39.40         12.89        0.67      90.66                 4.29          33.61     1185  34.00765    -118.50015    2018-04-17T16:04:19Z    
4/17/2018    9:04:19    39.40         12.89        0.73      90.68                 4.25          33.61     1186  34.00765    -118.50015    2018-04-17T16:04:19Z    
4/17/2018    9:04:19    39.40         12.88        0.78      90.69                 4.19          33.62     1187  34.00765    -118.50015    2018-04-17T16:04:19Z    
4/17/2018    9:04:19    39.40         12.88        0.81      90.67                 4.14          33.62     1188  34.00765    -118.50015    2018-04-17T16:04:19Z    
4/17/2018    9:04:20    39.41         12.88        0.86      90.67                 4.29          33.62     1189  34.00765    -118.50015    2018-04-17T16:04:20Z    
4/17/2018    9:04:20    39.40         12.89        0.92      90.67                 4.29          33.61     1190  34.00765    -118.50015    2018-04-17T16:04:20Z    
4/17/2018    9:04:20    39.41         12.89        0.95      90.66                 4.22          33.62     1191  34.00765    -118.50015    2018-04-17T16:04:20Z    
4/17/2018    9:04:20    39.41         12.89        0.98      90.66                 4.23          33.61     1192  34.00765    -118.50015    2018-04-17T16:04:20Z    
4/17/2018    9:04:20    39.41         12.91        1.00      90.66                 4.20          33.61     1193  34.00765    -118.50015    2018-04-17T16:04:20Z    
4/17/2018    9:04:20    39.41         12.91        1.00      90.71                 4.20          33.61     1194  34.00765    -118.50015    2018-04-17T16:04:20Z    
4/17/2018    9:04:21    39.41         12.90        1.01      90.70                 4.14          33.61     1195  34.00765    -118.50015    2018-04-17T16:04:21Z    
4/17/2018    9:04:21    39.41         12.90        1.00      90.71                 4.20          33.61     1196  34.00765    -118.50015    2018-04-17T16:04:21Z    
4/17/2018    9:04:21    39.40         12.91        0.99      90.70                 4.31          33.59     1197  34.00765    -118.50015    2018-04-17T16:04:21Z    
4/17/2018    9:04:21    39.41         12.90        0.97      90.75                 4.25          33.61     1198  34.00765    -118.50015    2018-04-17T16:04:21Z    
4/17/2018    9:04:21    39.41         12.90        0.95      90.70                 4.21          33.61     1199  34.00765    -118.50015    2018-04-17T16:04:21Z    
4/17/2018    9:04:21    39.41         12.90        0.95      90.73                 4.43          33.61     1200  34.00765    -118.50015    2018-04-17T16:04:21Z    
4/17/2018    9:04:22    39.41         12.90        0.95      90.72                 4.40          33.60     1201  34.00765    -118.50015    2018-04-17T16:04:22Z    
4/17/2018    9:04:22    39.41         12.90        0.97      90.70                 4.27          33.60     1202  34.00765    -118.50015    2018-04-17T16:04:22Z    
4/17/2018    9:04:22    39.41         12.90        0.97      90.76                 4.18          33.61     1203  34.00765    -118.50015    2018-04-17T16:04:22Z    
4/17/2018    9:04:22    39.41         12.90        0.99      90.81                 4.12          33.61     1204  34.00765    -118.50015    2018-04-17T16:04:22Z    
4/17/2018    9:04:22    39.41         12.90        0.97      90.83                 4.12          33.61     1205  34.00765    -118.50015    2018-04-17T16:04:22Z    
4/17/2018    9:04:22    39.41         12.90        0.99      90.81                 4.15          33.61     1206  34.00765    -118.50015    2018-04-17T16:04:22Z    
4/17/2018    9:04:23    39.41         12.90        0.97      90.84                 4.18          33.61     1207  34.00765    -118.50015    2018-04-17T16:04:23Z    
4/17/2018    9:04:23    39.41         12.90        0.95      90.82                 4.31          33.61     1208  34.00765    -118.50015    2018-04-17T16:04:23Z    
4/17/2018    9:04:23    39.41         12.90        0.90      90.85                 4.33          33.61     1209  34.00765    -118.50015    2018-04-17T16:04:23Z    
4/17/2018    9:04:23    39.41         12.90        0.87      90.83                 4.30          33.61     1210  34.00765    -118.50015    2018-04-17T16:04:23Z    
4/17/2018    9:04:23    39.41         12.90        0.84      90.87                 4.27          33.61     1211  34.00765    -118.50015    2018-04-17T16:04:23Z    
4/17/2018    9:04:23    39.41         12.90        0.82      90.82                 4.20          33.61     1212  34.00765    -118.50015    2018-04-17T16:04:23Z    
4/17/2018    9:04:24    39.41         12.90        0.81      90.86                 4.14          33.61     1213  34.00765    -118.50015    2018-04-17T16:04:24Z    
4/17/2018    9:04:24    39.41         12.90        0.83      90.86                 4.08          33.61     1214  34.00765    -118.50015    2018-04-17T16:04:24Z    
4/17/2018    9:04:24    39.41         12.90        0.84      90.84                 4.09          33.61     1215  34.00765    -118.50015    2018-04-17T16:04:24Z    
4/17/2018    9:04:24    39.41         12.90        0.87      90.84                 4.10          33.61     1216  34.00765    -118.50015    2018-04-17T16:04:24Z    
4/17/2018    9:04:24    39.41         12.89        0.90      90.87                 4.15          33.61     1217  34.00765    -118.50015    2018-04-17T16:04:24Z    
4/17/2018    9:04:24    39.40         12.89        0.91      90.84                 4.22          33.61     1218  34.00765    -118.50015    2018-04-17T16:04:24Z    
4/17/2018    9:04:25    39.40         12.90        0.94      90.84                 4.20          33.61     1219  34.00765    -118.50015    2018-04-17T16:04:25Z    
4/17/2018    9:04:25    39.40         12.89        0.96      90.89                 4.12          33.61     1220  34.00765    -118.50015    2018-04-17T16:04:25Z    
4/17/2018    9:04:25    39.40         12.89        0.97      90.87                 4.05          33.61     1221  34.00765    -118.50015    2018-04-17T16:04:25Z    
4/17/2018    9:04:25    39.40         12.90        1.00      90.87                 4.41          33.61     1222  34.00765    -118.50015    2018-04-17T16:04:25Z    
4/17/2018    9:04:25    39.40         12.90        1.01      90.84                 4.41          33.61     1223  34.00765    -118.50015    2018-04-17T16:04:25Z    
4/17/2018    9:04:25    39.40         12.90        1.04      90.87                 4.29          33.61     1224  34.00765    -118.50015    2018-04-17T16:04:25Z    
4/17/2018    9:04:26    39.41         12.90        1.04      90.89                 4.16          33.61     1225  34.00765    -118.50015    2018-04-17T16:04:26Z    
4/17/2018    9:04:26    39.41         12.89        1.04      90.83                 4.05          33.61     1226  34.00765    -118.50015    2018-04-17T16:04:26Z    
4/17/2018    9:04:26    39.41         12.90        1.04      90.84                 3.98          33.61     1227  34.00765    -118.50015    2018-04-17T16:04:26Z    
4/17/2018    9:04:26    39.41         12.90        1.03      90.80                 3.92          33.61     1228  34.00765    -118.50015    2018-04-17T16:04:26Z    
4/17/2018    9:04:26    39.41         12.89        1.02      90.86                 3.94          33.61     1229  34.00765    -118.50015    2018-04-17T16:04:26Z    
4/17/2018    9:04:26    39.41         12.89        1.00      90.83                 3.91          33.61     1230  34.00765    -118.50015    2018-04-17T16:04:26Z    
4/17/2018    9:04:27    39.41         12.89        0.99      90.85                 3.90          33.62     1231  34.00765    -118.50015    2018-04-17T16:04:27Z    
4/17/2018    9:04:27    39.41         12.89        0.95      90.83                 3.94          33.62     1232  34.00765    -118.50015    2018-04-17T16:04:27Z    
4/17/2018    9:04:27    39.40         12.88        0.93      90.78                 4.01          33.62     1233  34.00765    -118.50015    2018-04-17T16:04:27Z    
4/17/2018    9:04:27    39.40         12.89        0.90      90.83                 4.08          33.61     1234  34.00765    -118.50015    2018-04-17T16:04:27Z    
4/17/2018    9:04:27    39.40         12.89        0.89      90.79                 4.05          33.61     1235  34.00765    -118.50015    2018-04-17T16:04:27Z    
4/17/2018    9:04:27    39.40         12.89        0.88      90.78                 4.02          33.61     1236  34.00765    -118.50015    2018-04-17T16:04:27Z    
4/17/2018    9:04:28    39.40         12.89        0.87      90.81                 4.05          33.61     1237  34.00765    -118.50015    2018-04-17T16:04:28Z    
4/17/2018    9:04:28    39.40         12.89        0.86      90.76                 4.16          33.61     1238  34.00765    -118.50015    2018-04-17T16:04:28Z    
4/17/2018    9:04:28    39.40         12.89        0.86      90.75                 4.29          33.61     1239  34.00765    -118.50015    2018-04-17T16:04:28Z    
4/17/2018    9:04:28    39.40         12.89        0.86      90.75                 4.73          33.61     1240  34.00765    -118.50015    2018-04-17T16:04:28Z    
4/17/2018    9:04:28    39.40         12.89        0.88      90.80                 4.96          33.61     1241  34.00765    -118.50015    2018-04-17T16:04:28Z    
4/17/2018    9:04:28    39.40         12.89        0.92      90.73                 4.86          33.61     1242  34.00765    -118.50015    2018-04-17T16:04:28Z    
4/17/2018    9:04:29    39.40         12.88        0.93      90.76                 4.75          33.62     1243  34.00765    -118.50015    2018-04-17T16:04:29Z    
4/17/2018    9:04:29    39.40         12.88        0.95      90.74                 4.73          33.62     1244  34.00765    -118.50015    2018-04-17T16:04:29Z    
4/17/2018    9:04:29    39.40         12.88        0.94      90.78                 4.82          33.62     1245  34.00765    -118.50015    2018-04-17T16:04:29Z    
4/17/2018    9:04:29    39.40         12.88        0.94      90.80                 4.86          33.62     1246  34.00765    -118.50015    2018-04-17T16:04:29Z    
4/17/2018    9:04:29    39.40         12.88        0.92      90.78                 4.82          33.62     1247  34.00765    -118.50015    2018-04-17T16:04:29Z    
4/17/2018    9:04:29    39.40         12.88        0.88      90.77                 4.63          33.62     1248  34.00765    -118.50015    2018-04-17T16:04:29Z    
4/17/2018    9:04:30    39.40         12.89        0.85      90.71                 4.47          33.61     1249  34.00765    -118.50015    2018-04-17T16:04:30Z    
4/17/2018    9:04:30    39.40         12.88        0.79      90.74                 4.35          33.62     1250  34.00765    -118.50015    2018-04-17T16:04:30Z    
4/17/2018    9:04:30    39.40         12.88        0.75      90.74                 4.32          33.62     1251  34.00765    -118.50015    2018-04-17T16:04:30Z    
4/17/2018    9:04:30    39.40         12.88        0.72      90.71                 4.37          33.61     1252  34.00765    -118.50015    2018-04-17T16:04:30Z    
4/17/2018    9:04:30    39.40         12.88        0.68      90.69                 4.49          33.62     1253  34.00765    -118.50015    2018-04-17T16:04:30Z    
4/17/2018    9:04:30    39.40         12.88        0.67      90.64                 4.42          33.61     1254  34.00765    -118.50015    2018-04-17T16:04:30Z    
4/17/2018    9:04:31    39.40         12.88        0.67      90.63                 4.35          33.61     1255  34.00765    -118.50015    2018-04-17T16:04:31Z    
4/17/2018    9:04:31    39.40         12.89        0.70      90.63                 4.25          33.61     1256  34.00765    -118.50015    2018-04-17T16:04:31Z    
4/17/2018    9:04:31    39.40         12.89        0.73      90.61                 4.12          33.61     1257  34.00765    -118.50015    2018-04-17T16:04:31Z    
4/17/2018    9:04:31    39.40         12.89        0.78      90.63                 4.10          33.61     1258  34.00765    -118.50015    2018-04-17T16:04:31Z    
4/17/2018    9:04:31    39.40         12.89        0.81      90.58                 4.15          33.61     1259  34.00765    -118.50015    2018-04-17T16:04:31Z    
4/17/2018    9:04:31    39.38         12.88        0.84      90.63                 4.08          33.60     1260  34.00765    -118.50015    2018-04-17T16:04:31Z    
4/17/2018    9:04:32    39.39         12.88        0.87      90.64                 4.03          33.61     1261  34.00765    -118.50015    2018-04-17T16:04:32Z    
4/17/2018    9:04:32    39.39         12.87        0.88      90.63                 3.98          33.62     1262  34.00765    -118.50015    2018-04-17T16:04:32Z    
4/17/2018    9:04:32    39.39         12.86        0.88      90.65                 3.98          33.63     1263  34.00765    -118.50015    2018-04-17T16:04:32Z    
4/17/2018    9:04:32    39.39         12.87        0.87      90.62                 3.96          33.62     1264  34.00765    -118.50015    2018-04-17T16:04:32Z    
4/17/2018    9:04:32    39.40         12.88        0.87      90.61                 3.94          33.61     1265  34.00765    -118.50015    2018-04-17T16:04:32Z    
4/17/2018    9:04:32    39.40         12.88        0.88      90.63                 3.90          33.61     1266  34.00765    -118.50015    2018-04-17T16:04:32Z    
4/17/2018    9:04:33    39.40         12.89        0.88      90.62                 3.91          33.61     1267  34.00765    -118.50015    2018-04-17T16:04:33Z    
4/17/2018    9:04:33    39.41         12.89        0.87      90.61                 3.89          33.61     1268  34.00765    -118.50015    2018-04-17T16:04:33Z    
4/17/2018    9:04:33    39.41         12.89        0.88      90.62                 3.90          33.61     1269  34.00765    -118.50015    2018-04-17T16:04:33Z    
4/17/2018    9:04:33    39.41         12.89        0.88      90.61                 4.02          33.61     1270  34.00765    -118.50015    2018-04-17T16:04:33Z    
4/17/2018    9:04:33    39.40         12.89        0.90      90.63                 4.07          33.61     1271  34.00765    -118.50015    2018-04-17T16:04:33Z    
4/17/2018    9:04:33    39.41         12.89        0.92      90.67                 4.01          33.62     1272  34.00765    -118.50015    2018-04-17T16:04:33Z    
4/17/2018    9:04:34    39.40         12.88        0.93      90.66                 3.94          33.62     1273  34.00765    -118.50015    2018-04-17T16:04:34Z    
4/17/2018    9:04:34    39.40         12.89        0.94      90.66                 3.87          33.62     1274  34.00765    -118.50015    2018-04-17T16:04:34Z    
4/17/2018    9:04:34    39.40         12.88        0.94      90.67                 3.87          33.62     1275  34.00765    -118.50015    2018-04-17T16:04:34Z    
4/17/2018    9:04:34    39.40         12.88        0.93      90.71                 3.99          33.62     1276  34.00765    -118.50015    2018-04-17T16:04:34Z    
4/17/2018    9:04:34    39.39         12.86        0.92      90.75                 3.98          33.62     1277  34.00765    -118.50015    2018-04-17T16:04:34Z    
4/17/2018    9:04:34    39.39         12.87        0.91      90.72                 4.04          33.62     1278  34.00765    -118.50015    2018-04-17T16:04:34Z    
4/17/2018    9:04:35    39.39         12.87        0.89      90.69                 4.16          33.61     1279  34.00765    -118.50015    2018-04-17T16:04:35Z    
4/17/2018    9:04:35    39.39         12.88        0.89      90.68                 4.21          33.61     1280  34.00765    -118.50015    2018-04-17T16:04:35Z    
4/17/2018    9:04:35    39.39         12.89        0.90      90.68                 4.13          33.60     1281  34.00765    -118.50015    2018-04-17T16:04:35Z    
4/17/2018    9:04:35    39.38         12.87        0.90      90.67                 4.01          33.61     1282  34.00765    -118.50015    2018-04-17T16:04:35Z    
4/17/2018    9:04:35    39.37         12.87        0.92      90.65                 4.03          33.60     1283  34.00765    -118.50015    2018-04-17T16:04:35Z    
4/17/2018    9:04:35    39.36         12.85        0.94      90.60                 4.11          33.61     1284  34.00765    -118.50015    2018-04-17T16:04:35Z    
4/17/2018    9:04:36    39.35         12.83        0.95      90.57                 4.20          33.61     1285  34.00765    -118.50015    2018-04-17T16:04:36Z    
4/17/2018    9:04:36    39.35         12.84        0.99      90.57                 4.17          33.60     1286  34.00765    -118.50015    2018-04-17T16:04:36Z    
4/17/2018    9:04:36    39.36         12.84        1.00      90.53                 4.06          33.61     1287  34.00765    -118.50015    2018-04-17T16:04:36Z    
4/17/2018    9:04:36    39.36         12.84        1.03      90.52                 4.02          33.62     1288  34.00765    -118.50015    2018-04-17T16:04:36Z    
4/17/2018    9:04:36    39.36         12.83        1.05      90.56                 4.27          33.62     1289  34.00765    -118.50015    2018-04-17T16:04:36Z    
4/17/2018    9:04:36    39.36         12.83        1.08      90.50                 4.33          33.63     1290  34.00765    -118.50015    2018-04-17T16:04:36Z    
4/17/2018    9:04:37    39.35         12.82        1.09      90.46                 4.39          33.62     1291  34.00765    -118.50015    2018-04-17T16:04:37Z    
4/17/2018    9:04:37    39.32         12.81        1.10      90.49                 4.32          33.60     1292  34.00765    -118.50015    2018-04-17T16:04:37Z    
4/17/2018    9:04:37    39.31         12.82        1.12      90.49                 4.26          33.59     1293  34.00765    -118.50015    2018-04-17T16:04:37Z    
4/17/2018    9:04:37    39.30         12.79        1.12      90.52                 4.49          33.60     1294  34.00765    -118.50015    2018-04-17T16:04:37Z    
4/17/2018    9:04:37    39.30         12.78        1.11      90.51                 4.55          33.61     1295  34.00765    -118.50015    2018-04-17T16:04:37Z    
4/17/2018    9:04:37    39.29         12.78        1.11      90.45                 4.64          33.61     1296  34.00765    -118.50015    2018-04-17T16:04:37Z    
4/17/2018    9:04:38    39.30         12.78        1.08      90.41                 4.71          33.61     1297  34.00765    -118.50015    2018-04-17T16:04:38Z    
4/17/2018    9:04:38    39.29         12.78        1.04      90.37                 4.66          33.60     1298  34.00765    -118.50015    2018-04-17T16:04:38Z    
4/17/2018    9:04:38    39.30         12.79        1.00      90.33                 4.44          33.60     1299  34.00765    -118.50015    2018-04-17T16:04:38Z    
4/17/2018    9:04:38    39.31         12.78        0.98      90.29                 4.36          33.62     1300  34.00765    -118.50015    2018-04-17T16:04:38Z    
4/17/2018    9:04:38    39.31         12.79        0.93      90.25                 4.35          33.61     1301  34.00765    -118.50015    2018-04-17T16:04:38Z    
4/17/2018    9:04:38    39.31         12.79        0.90      90.18                 4.33          33.61     1302  34.00765    -118.50015    2018-04-17T16:04:38Z    
4/17/2018    9:04:39    39.30         12.79        0.89      90.12                 4.47          33.61     1303  34.00765    -118.50015    2018-04-17T16:04:39Z    
4/17/2018    9:04:39    39.30         12.78        0.89      90.14                 4.56          33.61     1304  34.00765    -118.50015    2018-04-17T16:04:39Z    
4/17/2018    9:04:39    39.29         12.78        0.90      90.04                 5.03          33.61     1305  34.00765    -118.50015    2018-04-17T16:04:39Z    
4/17/2018    9:04:39    39.28         12.79        0.92      89.91                 5.15          33.59     1306  34.00765    -118.50015    2018-04-17T16:04:39Z    
4/17/2018    9:04:39    39.17         12.80        0.97      89.83                 5.04          33.47     1307  34.00765    -118.50015    2018-04-17T16:04:39Z    
4/17/2018    9:04:39    39.17         12.75        0.98      89.88                 4.83          33.51     1308  34.00765    -118.50015    2018-04-17T16:04:39Z    
4/17/2018    9:04:40    39.19         12.72        1.02      89.80                 4.61          33.55     1309  34.00765    -118.50015    2018-04-17T16:04:40Z    
4/17/2018    9:04:40    39.19         12.73        1.02      89.67                 4.48          33.55     1310  34.00765    -118.50015    2018-04-17T16:04:40Z    
4/17/2018    9:04:40    39.22         12.70        1.01      89.67                 4.43          33.60     1311  34.00765    -118.50015    2018-04-17T16:04:40Z    
4/17/2018    9:04:40    39.24         12.69        1.00      89.60                 4.42          33.64     1312  34.00765    -118.50015    2018-04-17T16:04:40Z    
4/17/2018    9:04:40    39.24         12.66        0.96      89.61                 4.37          33.66     1313  34.00765    -118.50015    2018-04-17T16:04:40Z    
4/17/2018    9:04:40    39.24         12.67        0.91      89.51                 4.37          33.65     1314  34.00765    -118.50015    2018-04-17T16:04:40Z    
4/17/2018    9:04:41    39.26         12.69        0.85      89.31                 4.44          33.66     1315  34.00765    -118.50015    2018-04-17T16:04:41Z    
4/17/2018    9:04:41    39.29         12.71        0.81      89.18                 4.42          33.67     1316  34.00765    -118.50015    2018-04-17T16:04:41Z    
4/17/2018    9:04:41    39.29         12.74        0.77      89.03                 4.50          33.64     1317  34.00765    -118.50015    2018-04-17T16:04:41Z    
4/17/2018    9:04:41    39.29         12.75        0.74      88.94                 4.50          33.62     1318  34.00765    -118.50015    2018-04-17T16:04:41Z    
4/17/2018    9:04:41    39.27         12.78        0.71      88.83                 4.45          33.58     1319  34.00765    -118.50015    2018-04-17T16:04:41Z    
4/17/2018    9:04:41    39.27         12.76        0.69      88.79                 4.29          33.60     1320  34.00765    -118.50015    2018-04-17T16:04:41Z    
4/17/2018    9:04:42    39.29         12.78        0.68      88.74                 4.19          33.60     1321  34.00765    -118.50015    2018-04-17T16:04:42Z    
4/17/2018    9:04:42    39.32         12.83        0.65      88.65                 4.11          33.58     1322  34.00765    -118.50015    2018-04-17T16:04:42Z    
4/17/2018    9:04:42    39.35         12.83        0.62      88.66                 4.03          33.61     1323  34.00765    -118.50015    2018-04-17T16:04:42Z    
4/17/2018    9:04:42    39.35         12.85        0.61      88.69                 3.94          33.60     1324  34.00765    -118.50015    2018-04-17T16:04:42Z    
4/17/2018    9:04:42    39.35         12.85        0.62      88.73                 3.96          33.60     1325  34.00765    -118.50015    2018-04-17T16:04:42Z    
4/17/2018    9:04:42    39.35         12.87        0.62      88.77                 4.08          33.58     1326  34.00765    -118.50015    2018-04-17T16:04:42Z    
4/17/2018    9:04:43    39.34         12.87        0.66      88.81                 4.06          33.57     1327  34.00765    -118.50015    2018-04-17T16:04:43Z    
4/17/2018    9:04:43    39.34         12.86        0.72      88.91                 4.02          33.58     1328  34.00765    -118.50015    2018-04-17T16:04:43Z    
4/17/2018    9:04:43    39.29         12.85        0.77      88.98                 3.96          33.53     1329  34.00765    -118.50015    2018-04-17T16:04:43Z    
4/17/2018    9:04:43    39.24         12.85        0.84      89.03                 3.96          33.50     1330  34.00765    -118.50015    2018-04-17T16:04:43Z    
4/17/2018    9:04:43    39.19         12.83        0.89      89.10                 3.98          33.47     1331  34.00765    -118.50015    2018-04-17T16:04:43Z    
4/17/2018    9:04:43    39.22         12.82        0.94      89.14                 4.11          33.50     1332  34.00765    -118.50015    2018-04-17T16:04:43Z    
4/17/2018    9:04:44    39.11         12.78        0.98      89.25                 4.15          33.43     1333  34.00765    -118.50015    2018-04-17T16:04:44Z    
4/17/2018    9:04:44    39.08         12.73        1.02      89.31                 4.11          33.45     1334  34.00765    -118.50015    2018-04-17T16:04:44Z    
4/17/2018    9:04:44    39.09         12.67        1.03      89.31                 4.07          33.51     1335  34.00765    -118.50015    2018-04-17T16:04:44Z    
4/17/2018    9:04:44    39.12         12.60        1.03      89.35                 4.05          33.60     1336  34.00765    -118.50015    2018-04-17T16:04:44Z    
4/17/2018    9:04:44    39.14         12.57        1.02      89.44                 4.05          33.65     1337  34.00765    -118.50015    2018-04-17T16:04:44Z    
4/17/2018    9:04:44    39.14         12.69        0.99      89.21                 4.09          33.54     1338  34.00765    -118.50015    2018-04-17T16:04:44Z    
4/17/2018    9:04:45    39.17         12.74        0.98      89.05                 4.24          33.52     1339  34.00765    -118.50015    2018-04-17T16:04:45Z    
4/17/2018    9:04:45    39.19         12.76        0.95      88.83                 4.33          33.52     1340  34.00765    -118.50015    2018-04-17T16:04:45Z    
4/17/2018    9:04:45    39.20         12.76        0.91      88.75                 4.31          33.54     1341  34.00765    -118.50015    2018-04-17T16:04:45Z    
4/17/2018    9:04:45    39.20         12.74        0.90      88.62                 4.24          33.55     1342  34.00765    -118.50015    2018-04-17T16:04:45Z    
4/17/2018    9:04:45    39.19         12.74        0.87      88.52                 4.16          33.54     1343  34.00765    -118.50015    2018-04-17T16:04:45Z    
4/17/2018    9:04:45    39.17         12.76        0.87      88.44                 4.16          33.50     1344  34.00765    -118.50015    2018-04-17T16:04:45Z    
4/17/2018    9:04:46    39.18         12.79        0.87      88.41                 4.12          33.49     1345  34.00765    -118.50015    2018-04-17T16:04:46Z    
4/17/2018    9:04:46    39.18         12.81        0.88      88.34                 4.07          33.48     1346  34.00765    -118.50015    2018-04-17T16:04:46Z    
4/17/2018    9:04:46    39.20         12.75        0.90      88.40                 4.07          33.54     1347  34.00765    -118.50015    2018-04-17T16:04:46Z    
4/17/2018    9:04:46    39.22         12.71        0.91      88.44                 4.54          33.60     1348  34.00765    -118.50015    2018-04-17T16:04:46Z    
4/17/2018    9:04:46    39.23         12.72        0.92      88.45                 4.66          33.60     1349  34.00765    -118.50015    2018-04-17T16:04:46Z    
4/17/2018    9:04:46    39.22         12.71        0.94      88.48                 4.72          33.60     1350  34.00765    -118.50015    2018-04-17T16:04:46Z    
4/17/2018    9:04:47    39.19         12.71        0.95      88.49                 4.70          33.58     1351  34.00765    -118.50015    2018-04-17T16:04:47Z    
4/17/2018    9:04:47    39.19         12.70        0.96      88.47                 4.62          33.57     1352  34.00765    -118.50015    2018-04-17T16:04:47Z    
4/17/2018    9:04:47    39.21         12.69        0.95      88.54                 4.56          33.60     1353  34.00765    -118.50015    2018-04-17T16:04:47Z    
4/17/2018    9:04:47    39.22         12.69        0.94      88.59                 4.60          33.62     1354  34.00765    -118.50015    2018-04-17T16:04:47Z    
4/17/2018    9:04:47    39.22         12.71        0.90      88.56                 4.59          33.60     1355  34.00765    -118.50015    2018-04-17T16:04:47Z    
4/17/2018    9:04:47    39.23         12.74        0.87      88.52                 4.59          33.58     1356  34.00765    -118.50015    2018-04-17T16:04:47Z    
4/17/2018    9:04:48    39.24         12.79        0.83      88.44                 4.52          33.55     1357  34.00765    -118.50015    2018-04-17T16:04:48Z    
4/17/2018    9:04:48    39.24         12.79        0.82      88.47                 4.49          33.55     1358  34.00765    -118.50015    2018-04-17T16:04:48Z    
4/17/2018    9:04:48    39.23         12.78        0.81      88.51                 4.42          33.55     1359  34.00765    -118.50015    2018-04-17T16:04:48Z    
4/17/2018    9:04:48    39.22         12.76        0.82      88.52                 4.37          33.55     1360  34.00765    -118.50015    2018-04-17T16:04:48Z    
4/17/2018    9:04:48    39.21         12.77        0.83      88.57                 4.30          33.54     1361  34.00765    -118.50015    2018-04-17T16:04:48Z    
4/17/2018    9:04:48    39.21         12.76        0.85      88.53                 4.44          33.54     1362  34.00765    -118.50015    2018-04-17T16:04:48Z    
4/17/2018    9:04:49    39.23         12.80        0.88      88.46                 4.51          33.53     1363  34.00765    -118.50015    2018-04-17T16:04:49Z    
4/17/2018    9:04:49    39.13         12.84        0.90      88.46                 4.54          33.40     1364  34.00765    -118.50015    2018-04-17T16:04:49Z    
4/17/2018    9:04:49    39.09         12.85        0.93      88.43                 4.50          33.34     1365  34.00765    -118.50015    2018-04-17T16:04:49Z    
4/17/2018    9:04:49    39.03         12.81        0.96      88.46                 4.46          33.33     1366  34.00765    -118.50015    2018-04-17T16:04:49Z    
4/17/2018    9:04:49    39.03         12.67        0.99      88.63                 4.53          33.44     1367  34.00765    -118.50015    2018-04-17T16:04:49Z    
4/17/2018    9:04:49    39.02         12.56        0.99      88.75                 4.65          33.55     1368  34.00765    -118.50015    2018-04-17T16:04:49Z    
4/17/2018    9:04:50    39.03         12.46        0.98      88.87                 4.69          33.64     1369  34.00765    -118.50015    2018-04-17T16:04:50Z    
4/17/2018    9:04:50    39.04         12.43        0.99      88.89                 4.61          33.67     1370  34.00765    -118.50015    2018-04-17T16:04:50Z    
4/17/2018    9:04:50    39.04         12.43        0.97      88.97                 4.45          33.68     1371  34.00765    -118.50015    2018-04-17T16:04:50Z    
4/17/2018    9:04:50    39.04         12.42        0.94      88.99                 4.36          33.69     1372  34.00765    -118.50015    2018-04-17T16:04:50Z    
4/17/2018    9:04:50    39.06         12.43        0.94      88.92                 4.34          33.69     1373  34.00765    -118.50015    2018-04-17T16:04:50Z    
4/17/2018    9:04:50    39.07         12.42        0.91      88.91                 4.44          33.71     1374  34.00765    -118.50015    2018-04-17T16:04:50Z    
4/17/2018    9:04:51    39.08         12.55        0.90      88.71                 4.44          33.61     1375  34.00765    -118.50015    2018-04-17T16:04:51Z    
4/17/2018    9:04:51    39.08         12.63        0.89      88.57                 4.39          33.53     1376  34.00765    -118.50015    2018-04-17T16:04:51Z    
4/17/2018    9:04:51    39.08         12.58        0.87      88.62                 4.38          33.58     1377  34.00765    -118.50015    2018-04-17T16:04:51Z    
4/17/2018    9:04:51    39.08         12.58        0.88      88.58                 4.36          33.58     1378  34.00765    -118.50015    2018-04-17T16:04:51Z    
4/17/2018    9:04:51    39.08         12.57        0.88      88.54                 4.32          33.59     1379  34.00765    -118.50015    2018-04-17T16:04:51Z    
4/17/2018    9:04:51    39.08         12.53        0.89      88.52                 4.61          33.62     1380  34.00765    -118.50015    2018-04-17T16:04:51Z    
4/17/2018    9:04:52    39.08         12.52        0.90      88.52                 4.72          33.63     1381  34.00765    -118.50015    2018-04-17T16:04:52Z    
4/17/2018    9:04:52    39.08         12.54        0.91      88.50                 4.63          33.61     1382  34.00765    -118.50015    2018-04-17T16:04:52Z    
4/17/2018    9:04:52    39.08         12.59        0.91      88.40                 4.68          33.57     1383  34.00765    -118.50015    2018-04-17T16:04:52Z    
4/17/2018    9:04:52    39.09         12.70        0.90      88.26                 4.68          33.48     1384  34.00765    -118.50015    2018-04-17T16:04:52Z    
4/17/2018    9:04:52    39.11         12.75        0.89      88.12                 4.77          33.45     1385  34.00765    -118.50015    2018-04-17T16:04:52Z    
4/17/2018    9:04:52    39.16         12.77        0.87      88.03                 4.85          33.49     1386  34.00765    -118.50015    2018-04-17T16:04:52Z    
4/17/2018    9:04:53    39.22         12.80        0.85      87.86                 4.85          33.52     1387  34.00765    -118.50015    2018-04-17T16:04:53Z    
4/17/2018    9:04:53    39.25         12.83        0.83      87.71                 4.94          33.52     1388  34.00765    -118.50015    2018-04-17T16:04:53Z    
4/17/2018    9:04:53    39.29         12.85        0.79      87.66                 5.15          33.54     1389  34.00765    -118.50015    2018-04-17T16:04:53Z    
4/17/2018    9:04:53    39.29         12.82        0.75      87.73                 5.07          33.56     1390  34.00765    -118.50015    2018-04-17T16:04:53Z    
4/17/2018    9:04:53    39.26         12.74        0.73      87.77                 4.89          33.61     1391  34.00765    -118.50015    2018-04-17T16:04:53Z    
4/17/2018    9:04:53    39.26         12.74        0.72      87.72                 4.66          33.61     1392  34.00765    -118.50015    2018-04-17T16:04:53Z    
4/17/2018    9:04:54    39.26         12.71        0.71      87.67                 4.46          33.63     1393  34.00765    -118.50015    2018-04-17T16:04:54Z    
4/17/2018    9:04:54    39.26         12.72        0.71      87.54                 4.32          33.63     1394  34.00765    -118.50015    2018-04-17T16:04:54Z    
4/17/2018    9:04:54    39.27         12.72        0.72      87.43                 4.25          33.63     1395  34.00765    -118.50015    2018-04-17T16:04:54Z    
4/17/2018    9:04:54    39.28         12.69        0.76      87.39                 4.27          33.67     1396  34.00765    -118.50015    2018-04-17T16:04:54Z    
4/17/2018    9:04:54    39.30         12.71        0.80      87.30                 4.27          33.68     1397  34.00765    -118.50015    2018-04-17T16:04:54Z    
4/17/2018    9:04:54    39.34         12.72        0.84      87.17                 4.30          33.70     1398  34.00765    -118.50015    2018-04-17T16:04:54Z    
4/17/2018    9:04:55    39.33         12.74        0.92      86.99                 4.30          33.68     1399  34.00765    -118.50015    2018-04-17T16:04:55Z    
4/17/2018    9:04:55    39.33         12.76        0.98      86.93                 4.25          33.65     1400  34.00765    -118.50015    2018-04-17T16:04:55Z    
4/17/2018    9:04:55    39.33         12.76        1.05      86.97                 4.30          33.66     1401  34.00765    -118.50015    2018-04-17T16:04:55Z    
4/17/2018    9:04:55    39.33         12.74        1.11      86.92                 4.37          33.68     1402  34.00765    -118.50015    2018-04-17T16:04:55Z    
4/17/2018    9:04:55    39.32         12.77        1.15      86.90                 4.53          33.64     1403  34.00765    -118.50015    2018-04-17T16:04:55Z    
4/17/2018    9:04:55    39.30         12.77        1.20      86.88                 4.62          33.62     1404  34.00765    -118.50015    2018-04-17T16:04:55Z    
4/17/2018    9:04:56    39.27         12.76        1.21      86.85                 4.81          33.59     1405  34.00765    -118.50015    2018-04-17T16:04:56Z    
4/17/2018    9:04:56    39.26         12.74        1.23      86.89                 5.39          33.61     1406  34.00765    -118.50015    2018-04-17T16:04:56Z    
4/17/2018    9:04:56    39.27         12.74        1.26      86.89                 5.70          33.61     1407  34.00765    -118.50015    2018-04-17T16:04:56Z    
4/17/2018    9:04:56    39.27         12.78        1.25      86.78                 5.51          33.58     1408  34.00765    -118.50015    2018-04-17T16:04:56Z    
4/17/2018    9:04:56    39.27         12.82        1.25      86.72                 5.24          33.55     1409  34.00765    -118.50015    2018-04-17T16:04:56Z    
4/17/2018    9:04:56    39.28         12.84        1.24      86.73                 4.92          33.54     1410  34.00765    -118.50015    2018-04-17T16:04:56Z    
4/17/2018    9:04:57    39.29         12.84        1.26      86.69                 4.78          33.55     1411  34.00765    -118.50015    2018-04-17T16:04:57Z    
4/17/2018    9:04:57    39.30         12.82        1.25      86.78                 4.71          33.58     1412  34.00765    -118.50015    2018-04-17T16:04:57Z    
4/17/2018    9:04:57    39.31         12.80        1.25      86.85                 4.55          33.60     1413  34.00765    -118.50015    2018-04-17T16:04:57Z    
4/17/2018    9:04:57    39.32         12.80        1.24      86.87                 4.41          33.61     1414  34.00765    -118.50015    2018-04-17T16:04:57Z    
4/17/2018    9:04:57    39.31         12.79        1.23      86.87                 4.39          33.62     1415  34.00765    -118.50015    2018-04-17T16:04:57Z    
4/17/2018    9:04:57    39.31         12.79        1.20      86.88                 4.38          33.62     1416  34.00765    -118.50015    2018-04-17T16:04:57Z    
4/17/2018    9:04:58    39.31         12.80        1.18      86.90                 4.39          33.61     1417  34.00765    -118.50015    2018-04-17T16:04:58Z    
4/17/2018    9:04:58    39.31         12.79        1.16      86.95                 4.35          33.61     1418  34.00765    -118.50015    2018-04-17T16:04:58Z    
4/17/2018    9:04:58    39.31         12.78        1.13      86.99                 4.35          33.61     1419  34.00765    -118.50015    2018-04-17T16:04:58Z    
4/17/2018    9:04:58    39.30         12.79        1.10      86.92                 4.34          33.60     1420  34.00765    -118.50015    2018-04-17T16:04:58Z    
4/17/2018    9:04:58    39.27         12.77        1.08      86.90                 4.39          33.59     1421  34.00765    -118.50015    2018-04-17T16:04:58Z    
4/17/2018    9:04:58    39.25         12.71        1.04      86.88                 4.56          33.62     1422  34.00765    -118.50015    2018-04-17T16:04:58Z    
4/17/2018    9:04:59    39.24         12.71        1.00      86.87                 4.59          33.62     1423  34.00765    -118.50015    2018-04-17T16:04:59Z    
4/17/2018    9:04:59    39.23         12.70        0.95      86.86                 4.62          33.61     1424  34.00765    -118.50015    2018-04-17T16:04:59Z    
4/17/2018    9:04:59    39.23         12.71        0.91      86.78                 4.72          33.61     1425  34.00765    -118.50015    2018-04-17T16:04:59Z    
4/17/2018    9:04:59    39.24         12.73        0.86      86.68                 4.79          33.60     1426  34.00765    -118.50015    2018-04-17T16:04:59Z    
4/17/2018    9:04:59    39.24         12.75        0.82      86.63                 4.90          33.59     1427  34.00765    -118.50015    2018-04-17T16:04:59Z    
4/17/2018    9:04:59    39.25         12.74        0.79      86.65                 5.10          33.59     1428  34.00765    -118.50015    2018-04-17T16:04:59Z    
4/17/2018    9:05:00    39.24         12.73        0.77      86.61                 5.06          33.60     1429  34.00765    -118.50015    2018-04-17T16:05:00Z    
4/17/2018    9:05:00    39.25         12.75        0.76      86.57                 5.06          33.59     1430  34.00765    -118.50015    2018-04-17T16:05:00Z    
4/17/2018    9:05:00    39.25         12.75        0.76      86.60                 5.12          33.58     1431  34.00765    -118.50015    2018-04-17T16:05:00Z    
4/17/2018    9:05:00    39.25         12.75        0.74      86.56                 5.30          33.59     1432  34.00765    -118.50015    2018-04-17T16:05:00Z    
4/17/2018    9:05:00    39.25         12.75        0.74      86.62                 5.80          33.59     1433  34.00765    -118.50015    2018-04-17T16:05:00Z    
4/17/2018    9:05:00    39.25         12.75        0.73      86.66                 6.03          33.59     1434  34.00765    -118.50015    2018-04-17T16:05:00Z    
4/17/2018    9:05:01    39.25         12.75        0.73      86.67                 5.81          33.59     1435  34.00765    -118.50015    2018-04-17T16:05:01Z    
4/17/2018    9:05:01    39.25         12.75        0.74      86.67                 5.53          33.59     1436  34.00765    -118.50015    2018-04-17T16:05:01Z    
4/17/2018    9:05:01    39.25         12.74        0.75      86.69                 5.27          33.60     1437  34.00765    -118.50015    2018-04-17T16:05:01Z    
4/17/2018    9:05:01    39.25         12.74        0.76      86.69                 5.27          33.60     1438  34.00765    -118.50015    2018-04-17T16:05:01Z    
4/17/2018    9:05:01    39.25         12.74        0.76      86.69                 5.27          33.60     1439  34.00765    -118.50015    2018-04-17T16:05:01Z    
4/17/2018    9:05:01    39.25         12.74        0.73      86.66                 4.70          33.60     1440  34.00765    -118.50015    2018-04-17T16:05:01Z    
4/17/2018    9:05:02    39.25         12.72        0.70      86.72                 4.65          33.61     1441  34.00765    -118.50015    2018-04-17T16:05:02Z    
4/17/2018    9:05:02    39.25         12.73        0.68      86.64                 4.61          33.61     1442  34.00765    -118.50015    2018-04-17T16:05:02Z    
4/17/2018    9:05:02    39.26         12.75        0.66      86.65                 4.55          33.59     1443  34.00765    -118.50015    2018-04-17T16:05:02Z    
4/17/2018    9:05:02    39.27         12.73        0.61      86.80                 4.55          33.63     1444  34.00765    -118.50015    2018-04-17T16:05:02Z    
4/17/2018    9:05:02    39.26         12.79        0.59      86.76                 4.52          33.57     1445  34.00765    -118.50015    2018-04-17T16:05:02Z    
4/17/2018    9:05:02    39.27         12.81        0.55      86.86                 4.41          33.55     1446  34.00765    -118.50015    2018-04-17T16:05:02Z    
4/17/2018    9:05:03    39.26         12.81        0.52      86.99                 4.28          33.55     1447  34.00765    -118.50015    2018-04-17T16:05:03Z    
4/17/2018    9:05:03    39.27         12.80        0.53      87.14                 4.13          33.56     1448  34.00765    -118.50015    2018-04-17T16:05:03Z    
4/17/2018    9:05:03    39.27         12.86        0.54      87.23                 4.04          33.52     1449  34.00765    -118.50015    2018-04-17T16:05:03Z    
4/17/2018    9:05:03    39.29         12.87        0.58      87.36                 4.02          33.53     1450  34.00765    -118.50015    2018-04-17T16:05:03Z    
4/17/2018    9:05:03    39.34         12.87        0.63      87.55                 3.99          33.56     1451  34.00765    -118.50015    2018-04-17T16:05:03Z    
4/17/2018    9:05:03    39.36         12.87        0.68      87.82                 3.99          33.59     1452  34.00765    -118.50015    2018-04-17T16:05:03Z    
4/17/2018    9:05:04    39.37         12.87        0.72      88.09                 3.98          33.60     1453  34.00765    -118.50015    2018-04-17T16:05:04Z    
4/17/2018    9:05:04    39.37         12.86        0.77      88.30                 3.99          33.60     1454  34.00765    -118.50015    2018-04-17T16:05:04Z    
4/17/2018    9:05:04    39.38         12.87        0.81      88.49                 3.96          33.61     1455  34.00765    -118.50015    2018-04-17T16:05:04Z    
4/17/2018    9:05:04    39.41         12.90        0.85      88.63                 3.96          33.61     1456  34.00765    -118.50015    2018-04-17T16:05:04Z    
4/17/2018    9:05:04    39.41         12.91        0.88      88.82                 3.90          33.61     1457  34.00765    -118.50015    2018-04-17T16:05:04Z    
4/17/2018    9:05:04    39.42         12.91        0.92      88.96                 3.86          33.61     1458  34.00765    -118.50015    2018-04-17T16:05:04Z    
4/17/2018    9:05:05    39.42         12.91        0.95      89.14                 3.86          33.60     1459  34.00765    -118.50015    2018-04-17T16:05:05Z    
4/17/2018    9:05:05    39.42         12.91        0.97      89.39                 3.87          33.61     1460  34.00765    -118.50015    2018-04-17T16:05:05Z    
4/17/2018    9:05:05    39.42         12.91        0.99      89.58                 3.89          33.61     1461  34.00765    -118.50015    2018-04-17T16:05:05Z    
4/17/2018    9:05:05    39.42         12.91        1.01      89.71                 3.85          33.61     1462  34.00765    -118.50015    2018-04-17T16:05:05Z    
4/17/2018    9:05:05    39.41         12.91        1.01      89.88                 3.81          33.60     1463  34.00765    -118.50015    2018-04-17T16:05:05Z    
4/17/2018    9:05:05    39.41         12.91        1.02      89.97                 3.84          33.60     1464  34.00765    -118.50015    2018-04-17T16:05:05Z    
4/17/2018    9:05:06    39.41         12.91        1.03      90.07                 3.87          33.60     1465  34.00765    -118.50015    2018-04-17T16:05:06Z    
4/17/2018    9:05:06    39.41         12.91        1.04      90.18                 3.86          33.60     1466  34.00765    -118.50015    2018-04-17T16:05:06Z    
4/17/2018    9:05:06    39.41         12.91        1.03      90.26                 3.86          33.60     1467  34.00765    -118.50015    2018-04-17T16:05:06Z    
4/17/2018    9:05:06    39.41         12.91        1.06      90.31                 3.89          33.60     1468  34.00765    -118.50015    2018-04-17T16:05:06Z    
4/17/2018    9:05:06    39.42         12.91        1.09      90.35                 3.87          33.61     1469  34.00765    -118.50015    2018-04-17T16:05:06Z    
4/17/2018    9:05:06    39.42         12.91        1.13      90.39                 3.84          33.61     1470  34.00765    -118.50015    2018-04-17T16:05:06Z    
4/17/2018    9:05:07    39.42         12.91        1.14      90.45                 3.87          33.61     1471  34.00765    -118.50015    2018-04-17T16:05:07Z    
4/17/2018    9:05:07    39.42         12.91        1.17      90.46                 3.88          33.61     1472  34.00765    -118.50015    2018-04-17T16:05:07Z    
4/17/2018    9:05:07    39.42         12.91        1.18      90.49                 3.91          33.61     1473  34.00765    -118.50015    2018-04-17T16:05:07Z    
4/17/2018    9:05:07    39.42         12.91        1.20      90.53                 4.08          33.61     1474  34.00765    -118.50015    2018-04-17T16:05:07Z    
4/17/2018    9:05:07    39.42         12.91        1.18      90.59                 4.22          33.61     1475  34.00765    -118.50015    2018-04-17T16:05:07Z    
4/17/2018    9:05:07    39.42         12.91        1.17      90.62                 4.21          33.61     1476  34.00765    -118.50015    2018-04-17T16:05:07Z    
4/17/2018    9:05:08    39.42         12.91        1.14      90.61                 4.07          33.61     1477  34.00765    -118.50015    2018-04-17T16:05:08Z    
4/17/2018    9:05:08    39.42         12.91        1.11      90.64                 4.04          33.61     1478  34.00765    -118.50015    2018-04-17T16:05:08Z    
4/17/2018    9:05:08    39.42         12.91        1.08      90.65                 3.96          33.61     1479  34.00765    -118.50015    2018-04-17T16:05:08Z    
4/17/2018    9:05:08    39.42         12.91        1.04      90.66                 3.99          33.61     1480  34.00765    -118.50015    2018-04-17T16:05:08Z    
4/17/2018    9:05:08    39.42         12.91        1.02      90.66                 4.06          33.61     1481  34.00765    -118.50015    2018-04-17T16:05:08Z    
4/17/2018    9:05:08    39.42         12.91        0.99      90.71                 4.14          33.61     1482  34.00765    -118.50015    2018-04-17T16:05:08Z    
4/17/2018    9:05:09    39.42         12.91        0.96      90.69                 4.02          33.61     1483  34.00765    -118.50015    2018-04-17T16:05:09Z    
4/17/2018    9:05:09    39.42         12.91        0.95      90.71                 3.92          33.61     1484  34.00765    -118.50015    2018-04-17T16:05:09Z    
4/17/2018    9:05:09    39.42         12.91        0.91      90.75                 3.85          33.61     1485  34.00765    -118.50015    2018-04-17T16:05:09Z    
4/17/2018    9:05:09    39.42         12.91        0.90      90.74                 3.86          33.61     1486  34.00765    -118.50015    2018-04-17T16:05:09Z    
4/17/2018    9:05:09    39.42         12.91        0.90      90.74                 3.94          33.61     1487  34.00765    -118.50015    2018-04-17T16:05:09Z    
4/17/2018    9:05:09    39.42         12.91        0.91      90.72                 3.90          33.61     1488  34.00765    -118.50015    2018-04-17T16:05:09Z    
4/17/2018    9:05:10    39.42         12.91        0.92      90.77                 3.95          33.61     1489  34.00765    -118.50015    2018-04-17T16:05:10Z    
4/17/2018    9:05:10    39.42         12.91        0.94      90.73                 4.04          33.61     1490  34.00765    -118.50015    2018-04-17T16:05:10Z    
4/17/2018    9:05:10    39.42         12.91        0.95      90.80                 4.09          33.61     1491  34.00765    -118.50015    2018-04-17T16:05:10Z    
4/17/2018    9:05:10    39.42         12.91        0.98      90.81                 4.19          33.61     1492  34.00765    -118.50015    2018-04-17T16:05:10Z    
4/17/2018    9:05:10    39.42         12.91        1.00      90.81                 4.13          33.61     1493  34.00765    -118.50015    2018-04-17T16:05:10Z    
4/17/2018    9:05:10    39.42         12.91        1.02      90.74                 4.05          33.61     1494  34.00765    -118.50015    2018-04-17T16:05:10Z    
4/17/2018    9:05:11    39.42         12.90        1.03      90.81                 4.01          33.62     1495  34.00765    -118.50015    2018-04-17T16:05:11Z    
4/17/2018    9:05:11    39.42         12.90        1.03      90.82                 3.98          33.62     1496  34.00765    -118.50015    2018-04-17T16:05:11Z    
4/17/2018    9:05:11    39.42         12.90        1.01      90.83                 3.89          33.61     1497  34.00765    -118.50015    2018-04-17T16:05:11Z    
4/17/2018    9:05:11    39.42         12.91        0.99      90.81                 3.87          33.61     1498  34.00765    -118.50015    2018-04-17T16:05:11Z    
4/17/2018    9:05:11    39.42         12.90        0.97      90.79                 3.89          33.61     1499  34.00765    -118.50015    2018-04-17T16:05:11Z    
4/17/2018    9:05:11    39.42         12.90        0.93      90.77                 3.92          33.61     1500  34.00765    -118.50015    2018-04-17T16:05:11Z    
4/17/2018    9:05:12    39.42         12.90        0.90      90.83                 3.89          33.61     1501  34.00765    -118.50015    2018-04-17T16:05:12Z    
4/17/2018    9:05:12    39.42         12.90        0.89      90.82                 3.88          33.61     1502  34.00765    -118.50015    2018-04-17T16:05:12Z    
4/17/2018    9:05:12    39.42         12.90        0.87      90.81                 3.93          33.62     1503  34.00765    -118.50015    2018-04-17T16:05:12Z    
4/17/2018    9:05:12    39.42         12.90        0.88      90.83                 3.89          33.62     1504  34.00765    -118.50015    2018-04-17T16:05:12Z    
4/17/2018    9:05:12    39.42         12.90        0.89      90.86                 3.86          33.62     1505  34.00765    -118.50015    2018-04-17T16:05:12Z    
4/17/2018    9:05:12    39.42         12.90        0.89      90.83                 3.87          33.62     1506  34.00765    -118.50015    2018-04-17T16:05:12Z    
4/17/2018    9:05:13    39.42         12.89        0.91      90.82                 3.87          33.62     1507  34.00765    -118.50015    2018-04-17T16:05:13Z    
4/17/2018    9:05:13    39.41         12.90        0.91      90.85                 3.84          33.62     1508  34.00765    -118.50015    2018-04-17T16:05:13Z    
4/17/2018    9:05:13    39.42         12.90        0.92      90.82                 3.80          33.62     1509  34.00765    -118.50015    2018-04-17T16:05:13Z    
4/17/2018    9:05:13    39.42         12.90        0.93      90.84                 3.72          33.62     1510  34.00765    -118.50015    2018-04-17T16:05:13Z    
4/17/2018    9:05:13    39.42         12.90        0.92      90.83                 3.61          33.62     1511  34.00765    -118.50015    2018-04-17T16:05:13Z    
4/17/2018    9:05:13    39.42         12.90        0.93      90.84                 3.57          33.62     1512  34.00765    -118.50015    2018-04-17T16:05:13Z    
4/17/2018    9:05:14    39.41         12.90        0.92      90.83                 3.61          33.62     1513  34.00765    -118.50015    2018-04-17T16:05:14Z    
4/17/2018    9:05:14    39.41         12.89        0.92      90.76                 3.64          33.62     1514  34.00765    -118.50015    2018-04-17T16:05:14Z    
4/17/2018    9:05:14    39.41         12.89        0.91      90.85                 3.77          33.62     1515  34.00765    -118.50015    2018-04-17T16:05:14Z    
4/17/2018    9:05:14    39.41         12.89        0.91      90.86                 3.83          33.62     1516  34.00765    -118.50015    2018-04-17T16:05:14Z    
4/17/2018    9:05:14    39.41         12.89        0.91      90.79                 3.93          33.62     1517  34.00765    -118.50015    2018-04-17T16:05:14Z    
4/17/2018    9:05:14    39.41         12.89        0.92      90.85                 4.03          33.62     1518  34.00765    -118.50015    2018-04-17T16:05:14Z    
4/17/2018    9:05:15    39.41         12.89        0.94      90.82                 3.96          33.62     1519  34.00765    -118.50015    2018-04-17T16:05:15Z    
4/17/2018    9:05:15    39.41         12.89        0.96      90.82                 3.92          33.62     1520  34.00765    -118.50015    2018-04-17T16:05:15Z    
4/17/2018    9:05:15    39.41         12.89        0.99      90.85                 3.88          33.61     1521  34.00765    -118.50015    2018-04-17T16:05:15Z    
4/17/2018    9:05:15    39.41         12.89        1.04      90.86                 3.86          33.61     1522  34.00765    -118.50015    2018-04-17T16:05:15Z    
4/17/2018    9:05:15    39.41         12.89        1.09      90.81                 3.89          33.61     1523  34.00765    -118.50015    2018-04-17T16:05:15Z    
4/17/2018    9:05:15    39.41         12.89        1.13      90.83                 3.93          33.61     1524  34.00765    -118.50015    2018-04-17T16:05:15Z    
4/17/2018    9:05:16    39.41         12.89        1.17      90.82                 3.85          33.61     1525  34.00765    -118.50015    2018-04-17T16:05:16Z    
4/17/2018    9:05:16    39.41         12.89        1.20      90.85                 3.86          33.61     1526  34.00765    -118.50015    2018-04-17T16:05:16Z    
4/17/2018    9:05:16    39.41         12.89        1.20      90.84                 3.88          33.61     1527  34.00765    -118.50015    2018-04-17T16:05:16Z    
4/17/2018    9:05:16    39.41         12.89        1.18      90.82                 3.83          33.61     1528  34.00765    -118.50015    2018-04-17T16:05:16Z    
4/17/2018    9:05:16    39.41         12.89        1.14      90.87                 3.77          33.61     1529  34.00765    -118.50015    2018-04-17T16:05:16Z    
4/17/2018    9:05:16    39.41         12.89        1.11      90.87                 3.86          33.61     1530  34.00765    -118.50015    2018-04-17T16:05:16Z    
4/17/2018    9:05:17    39.41         12.89        1.04      90.83                 3.98          33.61     1531  34.00765    -118.50015    2018-04-17T16:05:17Z    
4/17/2018    9:05:17    39.41         12.89        0.97      90.80                 3.98          33.61     1532  34.00765    -118.50015    2018-04-17T16:05:17Z    
4/17/2018    9:05:17    39.41         12.89        0.89      90.86                 3.96          33.61     1533  34.00765    -118.50015    2018-04-17T16:05:17Z    
4/17/2018    9:05:17    39.41         12.89        0.84      90.82                 4.04          33.61     1534  34.00765    -118.50015    2018-04-17T16:05:17Z    
4/17/2018    9:05:17    39.41         12.89        0.80      90.85                 3.92          33.61     1535  34.00765    -118.50015    2018-04-17T16:05:17Z    
4/17/2018    9:05:17    39.41         12.89        0.78      90.86                 3.90          33.61     1536  34.00765    -118.50015    2018-04-17T16:05:17Z    
4/17/2018    9:05:18    39.41         12.89        0.79      90.91                 3.84          33.61     1537  34.00765    -118.50015    2018-04-17T16:05:18Z    
4/17/2018    9:05:18    39.41         12.89        0.79      90.83                 3.87          33.61     1538  34.00765    -118.50015    2018-04-17T16:05:18Z    
4/17/2018    9:05:18    39.41         12.89        0.79      90.85                 3.91          33.61     1539  34.00765    -118.50015    2018-04-17T16:05:18Z    
4/17/2018    9:05:18    39.41         12.89        0.80      90.85                 3.84          33.61     1540  34.00765    -118.50015    2018-04-17T16:05:18Z    
4/17/2018    9:05:18    39.41         12.89        0.80      90.86                 3.78          33.61     1541  34.00765    -118.50015    2018-04-17T16:05:18Z    
4/17/2018    9:05:18    39.41         12.89        0.81      90.87                 3.68          33.61     1542  34.00765    -118.50015    2018-04-17T16:05:18Z    
4/17/2018    9:05:19    39.41         12.89        0.82      90.88                 3.64          33.61     1543  34.00765    -118.50015    2018-04-17T16:05:19Z    
4/17/2018    9:05:19    39.41         12.89        0.83      90.86                 3.65          33.62     1544  34.00765    -118.50015    2018-04-17T16:05:19Z    
4/17/2018    9:05:19    39.41         12.89        0.83      90.84                 3.68          33.61     1545  34.00765    -118.50015    2018-04-17T16:05:19Z    
4/17/2018    9:05:19    39.41         12.89        0.83      90.83                 3.77          33.61     1546  34.00765    -118.50015    2018-04-17T16:05:19Z    
4/17/2018    9:05:19    39.41         12.90        0.84      90.80                 3.91          33.61     1547  34.00765    -118.50015    2018-04-17T16:05:19Z    
4/17/2018    9:05:19    39.41         12.90        0.86      90.82                 3.98          33.61     1548  34.00765    -118.50015    2018-04-17T16:05:19Z    
4/17/2018    9:05:20    39.41         12.90        0.88      90.82                 4.03          33.61     1549  34.00765    -118.50015    2018-04-17T16:05:20Z    
4/17/2018    9:05:20    39.41         12.90        0.90      90.85                 4.03          33.61     1550  34.00765    -118.50015    2018-04-17T16:05:20Z    
4/17/2018    9:05:20    39.41         12.90        0.94      90.88                 3.96          33.61     1551  34.00765    -118.50015    2018-04-17T16:05:20Z    
4/17/2018    9:05:20    39.41         12.90        0.97      90.85                 4.44          33.61     1552  34.00765    -118.50015    2018-04-17T16:05:20Z    
4/17/2018    9:05:20    39.41         12.89        1.00      90.82                 4.57          33.61     1553  34.00765    -118.50015    2018-04-17T16:05:20Z    
4/17/2018    9:05:20    39.41         12.89        1.00      90.77                 4.49          33.61     1554  34.00765    -118.50015    2018-04-17T16:05:20Z    
4/17/2018    9:05:21    39.41         12.89        1.01      90.83                 4.34          33.62     1555  34.00765    -118.50015    2018-04-17T16:05:21Z    
4/17/2018    9:05:21    39.41         12.89        0.99      90.83                 4.23          33.62     1556  34.00765    -118.50015    2018-04-17T16:05:21Z    
4/17/2018    9:05:21    39.41         12.89        0.95      90.83                 4.16          33.61     1557  34.00765    -118.50015    2018-04-17T16:05:21Z    
4/17/2018    9:05:21    39.41         12.89        0.89      90.74                 4.11          33.61     1558  34.00765    -118.50015    2018-04-17T16:05:21Z    
4/17/2018    9:05:21    39.41         12.89        0.84      90.77                 4.05          33.61     1559  34.00765    -118.50015    2018-04-17T16:05:21Z    
4/17/2018    9:05:21    39.41         12.89        0.79      90.84                 4.05          33.61     1560  34.00765    -118.50015    2018-04-17T16:05:21Z    
4/17/2018    9:05:22    39.41         12.89        0.68      90.84                 4.00          33.61     1561  34.00765    -118.50015    2018-04-17T16:05:22Z    
4/17/2018    9:05:22    39.41         12.89        0.61      90.80                 3.93          33.61     1562  34.00765    -118.50015    2018-04-17T16:05:22Z    
4/17/2018    9:05:22    39.41         12.89        0.58      90.80                 3.86          33.61     1563  34.00765    -118.50015    2018-04-17T16:05:22Z    
4/17/2018    9:05:22    39.40         12.89        0.56      90.81                 3.83          33.61     1564  34.00765    -118.50015    2018-04-17T16:05:22Z    
4/17/2018    9:05:22    39.41         12.89        0.59      90.76                 3.78          33.61     1565  34.00765    -118.50015    2018-04-17T16:05:22Z    
4/17/2018    9:05:22    39.41         12.89        0.60      90.82                 3.74          33.61     1566  34.00765    -118.50015    2018-04-17T16:05:22Z    
4/17/2018    9:05:23    39.41         12.89        0.62      90.82                 3.73          33.61     1567  34.00765    -118.50015    2018-04-17T16:05:23Z    
4/17/2018    9:05:23    39.41         12.89        0.62      90.79                 3.83          33.61     1568  34.00765    -118.50015    2018-04-17T16:05:23Z    
4/17/2018    9:05:23    39.41         12.89        0.62      90.76                 3.88          33.61     1569  34.00765    -118.50015    2018-04-17T16:05:23Z    
4/17/2018    9:05:23    39.41         12.89        0.63      90.79                 3.96          33.62     1570  34.00765    -118.50015    2018-04-17T16:05:23Z    
4/17/2018    9:05:23    39.41         12.89        0.63      90.77                 3.97          33.61     1571  34.00765    -118.50015    2018-04-17T16:05:23Z    
4/17/2018    9:05:23    39.41         12.89        0.66      90.77                 3.91          33.61     1572  34.00765    -118.50015    2018-04-17T16:05:23Z    
4/17/2018    9:05:24    39.41         12.89        0.69      90.73                 3.95          33.61     1573  34.00765    -118.50015    2018-04-17T16:05:24Z    
4/17/2018    9:05:24    39.41         12.89        0.72      90.76                 3.93          33.61     1574  34.00765    -118.50015    2018-04-17T16:05:24Z    
4/17/2018    9:05:24    39.41         12.89        0.76      90.77                 3.86          33.61     1575  34.00765    -118.50015    2018-04-17T16:05:24Z    
4/17/2018    9:05:24    39.41         12.89        0.80      90.76                 3.79          33.61     1576  34.00765    -118.50015    2018-04-17T16:05:24Z    
4/17/2018    9:05:24    39.41         12.89        0.87      90.73                 3.85          33.61     1577  34.00765    -118.50015    2018-04-17T16:05:24Z    
4/17/2018    9:05:24    39.41         12.89        0.93      90.71                 3.95          33.61     1578  34.00765    -118.50015    2018-04-17T16:05:24Z    
4/17/2018    9:05:25    39.41         12.89        1.01      90.73                 4.01          33.61     1579  34.00765    -118.50015    2018-04-17T16:05:25Z    
4/17/2018    9:05:25    39.41         12.89        1.08      90.69                 4.01          33.62     1580  34.00765    -118.50015    2018-04-17T16:05:25Z    
4/17/2018    9:05:25    39.41         12.90        1.14      90.80                 4.04          33.61     1581  34.00765    -118.50015    2018-04-17T16:05:25Z    
4/17/2018    9:05:25    39.41         12.90        1.18      90.78                 4.05          33.62     1582  34.00765    -118.50015    2018-04-17T16:05:25Z    
4/17/2018    9:05:25    39.42         12.90        1.21      90.81                 4.02          33.62     1583  34.00765    -118.50015    2018-04-17T16:05:25Z    
4/17/2018    9:05:25    39.42         12.90        1.25      90.83                 3.89          33.61     1584  34.00765    -118.50015    2018-04-17T16:05:25Z    
4/17/2018    9:05:26    39.42         12.90        1.25      90.82                 3.76          33.61     1585  34.00765    -118.50015    2018-04-17T16:05:26Z    
4/17/2018    9:05:26    39.42         12.90        1.24      90.85                 3.72          33.61     1586  34.00765    -118.50015    2018-04-17T16:05:26Z    
4/17/2018    9:05:26    39.42         12.90        1.20      90.84                 3.72          33.61     1587  34.00765    -118.50015    2018-04-17T16:05:26Z    
4/17/2018    9:05:26    39.41         12.90        1.16      90.80                 3.78          33.61     1588  34.00765    -118.50015    2018-04-17T16:05:26Z    
4/17/2018    9:05:26    39.41         12.90        1.13      90.88                 3.92          33.61     1589  34.00765    -118.50015    2018-04-17T16:05:26Z    
4/17/2018    9:05:26    39.41         12.90        1.08      90.88                 4.07          33.61     1590  34.00765    -118.50015    2018-04-17T16:05:26Z    
4/17/2018    9:05:27    39.41         12.90        1.03      90.88                 4.03          33.61     1591  34.00765    -118.50015    2018-04-17T16:05:27Z    
4/17/2018    9:05:27    39.41         12.90        0.99      90.87                 3.92          33.61     1592  34.00765    -118.50015    2018-04-17T16:05:27Z    
4/17/2018    9:05:27    39.41         12.90        0.94      90.88                 3.77          33.61     1593  34.00765    -118.50015    2018-04-17T16:05:27Z    
4/17/2018    9:05:27    39.41         12.90        0.92      90.92                 3.70          33.61     1594  34.00765    -118.50015    2018-04-17T16:05:27Z    
4/17/2018    9:05:27    39.41         12.90        0.92      90.88                 3.60          33.61     1595  34.00765    -118.50015    2018-04-17T16:05:27Z    
4/17/2018    9:05:27    39.41         12.90        0.91      90.89                 3.55          33.61     1596  34.00765    -118.50015    2018-04-17T16:05:27Z    
4/17/2018    9:05:28    39.41         12.90        0.92      90.89                 3.59          33.61     1597  34.00765    -118.50015    2018-04-17T16:05:28Z    
4/17/2018    9:05:28    39.41         12.90        0.93      90.92                 3.67          33.61     1598  34.00765    -118.50015    2018-04-17T16:05:28Z    
4/17/2018    9:05:28    39.41         12.90        0.94      90.91                 3.69          33.61     1599  34.00765    -118.50015    2018-04-17T16:05:28Z    
4/17/2018    9:05:28    39.41         12.90        0.94      90.97                 3.74          33.61     1600  34.00765    -118.50015    2018-04-17T16:05:28Z    
4/17/2018    9:05:28    39.41         12.90        0.94      90.96                 3.85          33.61     1601  34.00765    -118.50015    2018-04-17T16:05:28Z    
4/17/2018    9:05:28    39.41         12.90        0.93      90.93                 3.88          33.61     1602  34.00765    -118.50015    2018-04-17T16:05:28Z    
4/17/2018    9:05:29    39.41         12.90        0.91      90.92                 4.08          33.61     1603  34.00765    -118.50015    2018-04-17T16:05:29Z    
4/17/2018    9:05:29    39.41         12.89        0.89      90.91                 4.29          33.61     1604  34.00765    -118.50015    2018-04-17T16:05:29Z    
4/17/2018    9:05:29    39.41         12.89        0.87      90.91                 4.20          33.61     1605  34.00765    -118.50015    2018-04-17T16:05:29Z    
4/17/2018    9:05:29    39.41         12.89        0.82      90.90                 4.06          33.61     1606  34.00765    -118.50015    2018-04-17T16:05:29Z    
4/17/2018    9:05:29    39.41         12.89        0.79      90.91                 3.95          33.61     1607  34.00765    -118.50015    2018-04-17T16:05:29Z    
4/17/2018    9:05:29    39.41         12.89        0.78      90.90                 3.91          33.61     1608  34.00765    -118.50015    2018-04-17T16:05:29Z    
4/17/2018    9:05:30    39.41         12.89        0.76      90.87                 3.88          33.61     1609  34.00765    -118.50015    2018-04-17T16:05:30Z    
4/17/2018    9:05:30    39.41         12.89        0.75      90.90                 3.92          33.61     1610  34.00765    -118.50015    2018-04-17T16:05:30Z    
4/17/2018    9:05:30    39.41         12.89        0.75      90.87                 3.91          33.61     1611  34.00765    -118.50015    2018-04-17T16:05:30Z    
4/17/2018    9:05:30    39.41         12.89        0.77      90.90                 4.03          33.61     1612  34.00765    -118.50015    2018-04-17T16:05:30Z    
4/17/2018    9:05:30    39.41         12.89        0.80      90.87                 4.13          33.61     1613  34.00765    -118.50015    2018-04-17T16:05:30Z    
4/17/2018    9:05:30    39.41         12.89        0.86      90.90                 4.11          33.62     1614  34.00765    -118.50015    2018-04-17T16:05:30Z    
4/17/2018    9:05:31    39.41         12.89        0.91      90.89                 4.14          33.62     1615  34.00765    -118.50015    2018-04-17T16:05:31Z    
4/17/2018    9:05:31    39.41         12.89        0.97      90.88                 4.18          33.62     1616  34.00765    -118.50015    2018-04-17T16:05:31Z    
4/17/2018    9:05:31    39.41         12.89        1.02      90.86                 4.28          33.62     1617  34.00765    -118.50015    2018-04-17T16:05:31Z    
4/17/2018    9:05:31    39.41         12.89        1.07      90.87                 4.29          33.61     1618  34.00765    -118.50015    2018-04-17T16:05:31Z    
4/17/2018    9:05:31    39.41         12.89        1.12      90.85                 4.31          33.61     1619  34.00765    -118.50015    2018-04-17T16:05:31Z    
4/17/2018    9:05:31    39.41         12.89        1.17      90.89                 4.33          33.61     1620  34.00765    -118.50015    2018-04-17T16:05:31Z    
4/17/2018    9:05:32    39.41         12.89        1.22      90.87                 4.27          33.61     1621  34.00765    -118.50015    2018-04-17T16:05:32Z    
4/17/2018    9:05:32    39.41         12.89        1.24      90.80                 4.24          33.62     1622  34.00765    -118.50015    2018-04-17T16:05:32Z    
4/17/2018    9:05:32    39.41         12.89        1.26      90.85                 4.31          33.62     1623  34.00765    -118.50015    2018-04-17T16:05:32Z    
4/17/2018    9:05:32    39.41         12.89        1.26      90.83                 4.44          33.61     1624  34.00765    -118.50015    2018-04-17T16:05:32Z    
4/17/2018    9:05:32    39.41         12.90        1.26      90.86                 4.37          33.61     1625  34.00765    -118.50015    2018-04-17T16:05:32Z    
4/17/2018    9:05:32    39.41         12.90        1.25      90.86                 4.36          33.61     1626  34.00765    -118.50015    2018-04-17T16:05:32Z    
4/17/2018    9:05:33    39.41         12.90        1.20      90.88                 4.39          33.61     1627  34.00765    -118.50015    2018-04-17T16:05:33Z    
4/17/2018    9:05:33    39.41         12.90        1.15      90.82                 4.33          33.61     1628  34.00765    -118.50015    2018-04-17T16:05:33Z    
4/17/2018    9:05:33    39.41         12.90        1.11      90.84                 4.29          33.61     1629  34.00765    -118.50015    2018-04-17T16:05:33Z    
4/17/2018    9:05:33    39.41         12.90        1.08      90.82                 4.19          33.61     1630  34.00765    -118.50015    2018-04-17T16:05:33Z    
4/17/2018    9:05:33    39.41         12.90        1.05      90.89                 4.14          33.61     1631  34.00765    -118.50015    2018-04-17T16:05:33Z    
4/17/2018    9:05:33    39.41         12.90        1.00      90.88                 4.18          33.61     1632  34.00765    -118.50015    2018-04-17T16:05:33Z    
4/17/2018    9:05:34    39.41         12.89        0.97      90.87                 4.20          33.61     1633  34.00765    -118.50015    2018-04-17T16:05:34Z    
4/17/2018    9:05:34    39.41         12.89        0.94      90.89                 4.15          33.61     1634  34.00765    -118.50015    2018-04-17T16:05:34Z    
4/17/2018    9:05:34    39.41         12.89        0.92      90.89                 4.11          33.61     1635  34.00765    -118.50015    2018-04-17T16:05:34Z    
4/17/2018    9:05:34    39.41         12.89        0.88      90.88                 3.94          33.61     1636  34.00765    -118.50015    2018-04-17T16:05:34Z    
4/17/2018    9:05:34    39.41         12.89        0.84      90.89                 3.91          33.61     1637  34.00765    -118.50015    2018-04-17T16:05:34Z    
4/17/2018    9:05:34    39.41         12.89        0.81      90.93                 3.92          33.62     1638  34.00765    -118.50015    2018-04-17T16:05:34Z    
4/17/2018    9:05:35    39.41         12.89        0.78      90.91                 4.05          33.62     1639  34.00765    -118.50015    2018-04-17T16:05:35Z    
4/17/2018    9:05:35    39.41         12.89        0.78      90.89                 4.09          33.61     1640  34.00765    -118.50015    2018-04-17T16:05:35Z    
4/17/2018    9:05:35    39.41         12.89        0.77      90.89                 4.03          33.61     1641  34.00765    -118.50015    2018-04-17T16:05:35Z    
4/17/2018    9:05:35    39.41         12.89        0.77      90.84                 3.94          33.61     1642  34.00765    -118.50015    2018-04-17T16:05:35Z    
4/17/2018    9:05:35    39.41         12.89        0.78      90.84                 3.93          33.61     1643  34.00765    -118.50015    2018-04-17T16:05:35Z    
4/17/2018    9:05:35    39.41         12.89        0.77      90.86                 3.92          33.61     1644  34.00765    -118.50015    2018-04-17T16:05:35Z    
4/17/2018    9:05:36    39.41         12.89        0.78      90.92                 3.95          33.61     1645  34.00765    -118.50015    2018-04-17T16:05:36Z    
4/17/2018    9:05:36    39.41         12.89        0.78      90.90                 4.31          33.61     1646  34.00765    -118.50015    2018-04-17T16:05:36Z    
4/17/2018    9:05:36    39.41         12.89        0.78      90.87                 4.32          33.61     1647  34.00765    -118.50015    2018-04-17T16:05:36Z    
4/17/2018    9:05:36    39.41         12.89        0.80      90.87                 4.22          33.61     1648  34.00765    -118.50015    2018-04-17T16:05:36Z    
4/17/2018    9:05:36    39.41         12.89        0.80      90.82                 4.12          33.62     1649  34.00765    -118.50015    2018-04-17T16:05:36Z    
4/17/2018    9:05:36    39.41         12.89        0.81      90.81                 4.02          33.61     1650  34.00765    -118.50015    2018-04-17T16:05:36Z    
4/17/2018    9:05:37    39.41         12.89        0.83      90.78                 3.93          33.62     1651  34.00765    -118.50015    2018-04-17T16:05:37Z    
4/17/2018    9:05:37    39.41         12.89        0.83      90.78                 3.86          33.62     1652  34.00765    -118.50015    2018-04-17T16:05:37Z    
4/17/2018    9:05:37    39.41         12.89        0.83      90.76                 3.82          33.62     1653  34.00765    -118.50015    2018-04-17T16:05:37Z    
4/17/2018    9:05:37    39.41         12.89        0.84      90.72                 3.77          33.62     1654  34.00765    -118.50015    2018-04-17T16:05:37Z    
4/17/2018    9:05:37    39.41         12.89        0.84      90.71                 3.76          33.62     1655  34.00765    -118.50015    2018-04-17T16:05:37Z    
4/17/2018    9:05:37    39.41         12.89        0.84      90.70                 3.90          33.62     1656  34.00765    -118.50015    2018-04-17T16:05:37Z    
4/17/2018    9:05:38    39.41         12.89        0.84      90.73                 4.43          33.62     1657  34.00765    -118.50015    2018-04-17T16:05:38Z    
4/17/2018    9:05:38    39.41         12.89        0.85      90.64                 4.57          33.62     1658  34.00765    -118.50015    2018-04-17T16:05:38Z    
4/17/2018    9:05:38    39.41         12.89        0.87      90.70                 4.45          33.62     1659  34.00765    -118.50015    2018-04-17T16:05:38Z    
4/17/2018    9:05:38    39.40         12.89        0.90      90.67                 4.39          33.61     1660  34.00765    -118.50015    2018-04-17T16:05:38Z    
4/17/2018    9:05:38    39.40         12.89        0.93      90.68                 4.26          33.61     1661  34.00765    -118.50015    2018-04-17T16:05:38Z    
4/17/2018    9:05:38    39.41         12.89        0.95      90.72                 4.13          33.62     1662  34.00765    -118.50015    2018-04-17T16:05:38Z    
4/17/2018    9:05:39    39.41         12.89        0.98      90.71                 4.06          33.62     1663  34.00765    -118.50015    2018-04-17T16:05:39Z    
4/17/2018    9:05:39    39.41         12.89        0.97      90.71                 4.00          33.62     1664  34.00765    -118.50015    2018-04-17T16:05:39Z    
4/17/2018    9:05:39    39.41         12.89        0.96      90.66                 3.91          33.61     1665  34.00765    -118.50015    2018-04-17T16:05:39Z    
4/17/2018    9:05:39    39.41         12.89        0.93      90.68                 3.89          33.62     1666  34.00765    -118.50015    2018-04-17T16:05:39Z    
4/17/2018    9:05:39    39.41         12.89        0.90      90.70                 3.83          33.61     1667  34.00765    -118.50015    2018-04-17T16:05:39Z    
4/17/2018    9:05:39    39.41         12.89        0.85      90.69                 3.86          33.62     1668  34.00765    -118.50015    2018-04-17T16:05:39Z    
4/17/2018    9:05:40    39.41         12.89        0.81      90.69                 3.87          33.62     1669  34.00765    -118.50015    2018-04-17T16:05:40Z    
4/17/2018    9:05:40    39.41         12.89        0.74      90.75                 3.87          33.62     1670  34.00765    -118.50015    2018-04-17T16:05:40Z    
4/17/2018    9:05:40    39.41         12.89        0.70      90.72                 3.81          33.62     1671  34.00765    -118.50015    2018-04-17T16:05:40Z    
4/17/2018    9:05:40    39.41         12.89        0.66      90.73                 3.84          33.61     1672  34.00765    -118.50015    2018-04-17T16:05:40Z    
4/17/2018    9:05:40    39.41         12.89        0.64      90.74                 3.82          33.61     1673  34.00765    -118.50015    2018-04-17T16:05:40Z    
4/17/2018    9:05:40    39.41         12.89        0.61      90.73                 3.78          33.62     1674  34.00765    -118.50015    2018-04-17T16:05:40Z    
4/17/2018    9:05:41    39.40         12.89        0.60      90.74                 3.80          33.61     1675  34.00765    -118.50015    2018-04-17T16:05:41Z    
4/17/2018    9:05:41    39.41         12.89        0.58      90.73                 3.87          33.61     1676  34.00765    -118.50015    2018-04-17T16:05:41Z    
4/17/2018    9:05:41    39.41         12.89        0.57      90.73                 4.06          33.61     1677  34.00765    -118.50015    2018-04-17T16:05:41Z    
4/17/2018    9:05:41    39.41         12.89        0.55      90.68                 4.18          33.61     1678  34.00765    -118.50015    2018-04-17T16:05:41Z    
4/17/2018    9:05:41    39.41         12.89        0.55      90.68                 4.16          33.61     1679  34.00765    -118.50015    2018-04-17T16:05:41Z    
4/17/2018    9:05:41    39.40         12.90        0.56      90.74                 4.14          33.61     1680  34.00765    -118.50015    2018-04-17T16:05:41Z    
4/17/2018    9:05:42    39.41         12.90        0.58      90.77                 4.07          33.61     1681  34.00765    -118.50015    2018-04-17T16:05:42Z    
4/17/2018    9:05:42    39.41         12.90        0.63      90.71                 4.07          33.60     1682  34.00765    -118.50015    2018-04-17T16:05:42Z    
4/17/2018    9:05:42    39.41         12.90        0.68      90.65                 4.10          33.61     1683  34.00765    -118.50015    2018-04-17T16:05:42Z    
4/17/2018    9:05:42    39.41         12.90        0.76      90.74                 4.08          33.61     1684  34.00765    -118.50015    2018-04-17T16:05:42Z    
4/17/2018    9:05:42    39.41         12.90        0.82      90.78                 4.13          33.61     1685  34.00765    -118.50015    2018-04-17T16:05:42Z    
4/17/2018    9:05:42    39.41         12.90        0.87      90.75                 4.18          33.61     1686  34.00765    -118.50015    2018-04-17T16:05:42Z    
4/17/2018    9:05:43    39.41         12.90        0.94      90.81                 4.29          33.61     1687  34.00765    -118.50015    2018-04-17T16:05:43Z    
4/17/2018    9:05:43    39.42         12.90        1.00      90.75                 4.30          33.62     1688  34.00765    -118.50015    2018-04-17T16:05:43Z    
4/17/2018    9:05:43    39.41         12.90        1.06      90.78                 4.29          33.61     1689  34.00765    -118.50015    2018-04-17T16:05:43Z    
4/17/2018    9:05:43    39.41         12.90        1.10      90.76                 4.35          33.61     1690  34.00765    -118.50015    2018-04-17T16:05:43Z    
4/17/2018    9:05:43    39.41         12.90        1.14      90.80                 4.33          33.61     1691  34.00765    -118.50015    2018-04-17T16:05:43Z    
4/17/2018    9:05:43    39.41         12.90        1.17      90.77                 4.27          33.61     1692  34.00765    -118.50015    2018-04-17T16:05:43Z    
4/17/2018    9:05:44    39.42         12.90        1.22      90.79                 4.29          33.61     1693  34.00765    -118.50015    2018-04-17T16:05:44Z    
4/17/2018    9:05:44    39.41         12.90        1.27      90.83                 4.32          33.62     1694  34.00765    -118.50015    2018-04-17T16:05:44Z    
4/17/2018    9:05:44    39.41         12.90        1.31      90.82                 4.43          33.61     1695  34.00765    -118.50015    2018-04-17T16:05:44Z    
4/17/2018    9:05:44    39.41         12.89        1.36      90.86                 4.57          33.61     1696  34.00765    -118.50015    2018-04-17T16:05:44Z    
4/17/2018    9:05:44    39.41         12.90        1.41      90.90                 4.79          33.61     1697  34.00765    -118.50015    2018-04-17T16:05:44Z    
4/17/2018    9:05:44    39.41         12.90        1.45      90.90                 4.87          33.61     1698  34.00765    -118.50015    2018-04-17T16:05:44Z    
4/17/2018    9:05:45    39.41         12.90        1.48      90.97                 4.80          33.61     1699  34.00765    -118.50015    2018-04-17T16:05:45Z    
4/17/2018    9:05:45    39.41         12.89        1.49      90.96                 4.70          33.61     1700  34.00765    -118.50015    2018-04-17T16:05:45Z    
4/17/2018    9:05:45    39.41         12.89        1.49      90.92                 4.61          33.62     1701  34.00765    -118.50015    2018-04-17T16:05:45Z    
4/17/2018    9:05:45    39.41         12.90        1.47      90.95                 4.48          33.61     1702  34.00765    -118.50015    2018-04-17T16:05:45Z    
4/17/2018    9:05:45    39.41         12.89        1.42      90.96                 4.41          33.61     1703  34.00765    -118.50015    2018-04-17T16:05:45Z    
4/17/2018    9:05:45    39.41         12.90        1.38      90.96                 4.39          33.61     1704  34.00765    -118.50015    2018-04-17T16:05:45Z    
4/17/2018    9:05:46    39.41         12.90        1.31      90.92                 4.35          33.61     1705  34.00765    -118.50015    2018-04-17T16:05:46Z    
4/17/2018    9:05:46    39.41         12.90        1.22      90.95                 4.56          33.61     1706  34.00765    -118.50015    2018-04-17T16:05:46Z    
4/17/2018    9:05:46    39.41         12.90        1.14      90.93                 4.66          33.61     1707  34.00765    -118.50015    2018-04-17T16:05:46Z    
4/17/2018    9:05:46    39.41         12.90        1.05      90.89                 4.66          33.61     1708  34.00765    -118.50015    2018-04-17T16:05:46Z    
4/17/2018    9:05:46    39.41         12.90        0.95      90.90                 4.52          33.61     1709  34.00765    -118.50015    2018-04-17T16:05:46Z    
4/17/2018    9:05:46    39.41         12.90        0.88      90.88                 4.30          33.61     1710  34.00765    -118.50015    2018-04-17T16:05:46Z    
4/17/2018    9:05:47    39.41         12.90        0.81      90.89                 4.14          33.61     1711  34.00765    -118.50015    2018-04-17T16:05:47Z    
4/17/2018    9:05:47    39.41         12.90        0.75      90.80                 4.14          33.61     1712  34.00765    -118.50015    2018-04-17T16:05:47Z    
4/17/2018    9:05:47    39.41         12.90        0.72      90.85                 4.09          33.61     1713  34.00765    -118.50015    2018-04-17T16:05:47Z    
4/17/2018    9:05:47    39.41         12.90        0.70      90.83                 4.14          33.61     1714  34.00765    -118.50015    2018-04-17T16:05:47Z    
4/17/2018    9:05:47    39.41         12.89        0.69      90.77                 4.57          33.61     1715  34.00765    -118.50015    2018-04-17T16:05:47Z    
4/17/2018    9:05:47    39.40         12.89        0.71      90.80                 5.25          33.61     1716  34.00765    -118.50015    2018-04-17T16:05:47Z    
4/17/2018    9:05:48    39.41         12.89        0.70      90.85                 5.17          33.62     1717  34.00765    -118.50015    2018-04-17T16:05:48Z    
4/17/2018    9:05:48    39.41         12.89        0.70      90.84                 4.88          33.62     1718  34.00765    -118.50015    2018-04-17T16:05:48Z    
4/17/2018    9:05:48    39.41         12.89        0.72      90.78                 4.61          33.62     1719  34.00765    -118.50015    2018-04-17T16:05:48Z    
4/17/2018    9:05:48    39.41         12.89        0.73      90.79                 4.41          33.62     1720  34.00765    -118.50015    2018-04-17T16:05:48Z    
4/17/2018    9:05:48    39.41         12.89        0.76      90.78                 4.32          33.62     1721  34.00765    -118.50015    2018-04-17T16:05:48Z    
4/17/2018    9:05:48    39.41         12.89        0.76      90.73                 4.24          33.62     1722  34.00765    -118.50015    2018-04-17T16:05:48Z    
4/17/2018    9:05:49    39.40         12.89        0.80      90.72                 4.16          33.62     1723  34.00765    -118.50015    2018-04-17T16:05:49Z    
4/17/2018    9:05:49    39.41         12.89        0.83      90.73                 4.08          33.62     1724  34.00765    -118.50015    2018-04-17T16:05:49Z    
4/17/2018    9:05:49    39.41         12.89        0.87      90.73                 3.99          33.62     1725  34.00765    -118.50015    2018-04-17T16:05:49Z    
4/17/2018    9:05:49    39.41         12.89        0.89      90.75                 3.94          33.61     1726  34.00765    -118.50015    2018-04-17T16:05:49Z    
4/17/2018    9:05:49    39.41         12.89        0.91      90.73                 3.93          33.61     1727  34.00765    -118.50015    2018-04-17T16:05:49Z    
4/17/2018    9:05:49    39.41         12.89        0.91      90.76                 3.88          33.61     1728  34.00765    -118.50015    2018-04-17T16:05:49Z    
4/17/2018    9:05:50    39.41         12.89        0.90      90.78                 3.80          33.61     1729  34.00765    -118.50015    2018-04-17T16:05:50Z    
4/17/2018    9:05:50    39.41         12.89        0.87      90.72                 3.76          33.61     1730  34.00765    -118.50015    2018-04-17T16:05:50Z    
4/17/2018    9:05:50    39.41         12.89        0.87      90.68                 3.80          33.61     1731  34.00765    -118.50015    2018-04-17T16:05:50Z    
4/17/2018    9:05:50    39.41         12.89        0.82      90.70                 3.83          33.61     1732  34.00765    -118.50015    2018-04-17T16:05:50Z    
4/17/2018    9:05:50    39.41         12.89        0.79      90.70                 3.85          33.61     1733  34.00765    -118.50015    2018-04-17T16:05:50Z    
4/17/2018    9:05:50    39.41         12.89        0.76      90.72                 3.81          33.61     1734  34.00765    -118.50015    2018-04-17T16:05:50Z    
4/17/2018    9:05:51    39.41         12.89        0.74      90.72                 3.76          33.61     1735  34.00765    -118.50015    2018-04-17T16:05:51Z    
4/17/2018    9:05:51    39.41         12.89        0.71      90.71                 3.77          33.61     1736  34.00765    -118.50015    2018-04-17T16:05:51Z    
4/17/2018    9:05:51    39.41         12.89        0.69      90.70                 3.83          33.61     1737  34.00765    -118.50015    2018-04-17T16:05:51Z    
4/17/2018    9:05:51    39.41         12.89        0.68      90.69                 3.96          33.61     1738  34.00765    -118.50015    2018-04-17T16:05:51Z    
4/17/2018    9:05:51    39.41         12.89        0.70      90.71                 3.97          33.61     1739  34.00765    -118.50015    2018-04-17T16:05:51Z    
4/17/2018    9:05:51    39.41         12.90        0.72      90.70                 3.98          33.61     1740  34.00765    -118.50015    2018-04-17T16:05:51Z    
4/17/2018    9:05:52    39.41         12.89        0.76      90.72                 4.02          33.61     1741  34.00765    -118.50015    2018-04-17T16:05:52Z    
4/17/2018    9:05:52    39.41         12.89        0.78      90.69                 4.09          33.61     1742  34.00765    -118.50015    2018-04-17T16:05:52Z    
4/17/2018    9:05:52    39.41         12.89        0.83      90.72                 4.20          33.61     1743  34.00765    -118.50015    2018-04-17T16:05:52Z    
4/17/2018    9:05:52    39.41         12.89        0.88      90.70                 4.40          33.61     1744  34.00765    -118.50015    2018-04-17T16:05:52Z    
4/17/2018    9:05:52    39.41         12.89        0.93      90.70                 4.39          33.61     1745  34.00765    -118.50015    2018-04-17T16:05:52Z    
4/17/2018    9:05:52    39.41         12.89        0.97      90.75                 4.28          33.62     1746  34.00765    -118.50015    2018-04-17T16:05:52Z    
4/17/2018    9:05:53    39.41         12.89        1.00      90.69                 4.25          33.62     1747  34.00765    -118.50015    2018-04-17T16:05:53Z    
4/17/2018    9:05:53    39.41         12.89        1.00      90.69                 4.20          33.62     1748  34.00765    -118.50015    2018-04-17T16:05:53Z    
4/17/2018    9:05:53    39.41         12.89        0.99      90.69                 4.12          33.62     1749  34.00765    -118.50015    2018-04-17T16:05:53Z    
4/17/2018    9:05:53    39.41         12.89        0.97      90.74                 4.16          33.62     1750  34.00765    -118.50015    2018-04-17T16:05:53Z    
4/17/2018    9:05:53    39.41         12.90        0.94      90.70                 4.27          33.61     1751  34.00765    -118.50015    2018-04-17T16:05:53Z    
4/17/2018    9:05:53    39.42         12.90        0.90      90.72                 4.29          33.61     1752  34.00765    -118.50015    2018-04-17T16:05:53Z    
4/17/2018    9:05:54    39.41         12.90        0.86      90.71                 4.23          33.61     1753  34.00765    -118.50015    2018-04-17T16:05:54Z    
4/17/2018    9:05:54    39.42         12.90        0.84      90.68                 4.19          33.61     1754  34.00765    -118.50015    2018-04-17T16:05:54Z    
4/17/2018    9:05:54    39.42         12.91        0.80      90.73                 4.09          33.61     1755  34.00765    -118.50015    2018-04-17T16:05:54Z    
4/17/2018    9:05:54    39.42         12.91        0.78      90.76                 3.99          33.61     1756  34.00765    -118.50015    2018-04-17T16:05:54Z    
4/17/2018    9:05:54    39.42         12.90        0.78      90.78                 3.90          33.61     1757  34.00765    -118.50015    2018-04-17T16:05:54Z    
4/17/2018    9:05:54    39.42         12.90        0.77      90.76                 3.91          33.61     1758  34.00765    -118.50015    2018-04-17T16:05:54Z    
4/17/2018    9:05:55    39.42         12.90        0.77      90.79                 3.89          33.61     1759  34.00765    -118.50015    2018-04-17T16:05:55Z    
4/17/2018    9:05:55    39.42         12.90        0.78      90.75                 3.88          33.62     1760  34.00765    -118.50015    2018-04-17T16:05:55Z    
4/17/2018    9:05:55    39.42         12.90        0.80      90.79                 3.97          33.62     1761  34.00765    -118.50015    2018-04-17T16:05:55Z    
4/17/2018    9:05:55    39.42         12.90        0.79      90.84                 3.95          33.61     1762  34.00765    -118.50015    2018-04-17T16:05:55Z    
4/17/2018    9:05:55    39.42         12.90        0.81      90.83                 3.88          33.62     1763  34.00765    -118.50015    2018-04-17T16:05:55Z    
4/17/2018    9:05:55    39.42         12.90        0.82      90.80                 3.94          33.62     1764  34.00765    -118.50015    2018-04-17T16:05:55Z    
4/17/2018    9:05:56    39.42         12.90        0.83      90.81                 4.00          33.62     1765  34.00765    -118.50015    2018-04-17T16:05:56Z    
4/17/2018    9:05:56    39.42         12.90        0.86      90.79                 4.04          33.62     1766  34.00765    -118.50015    2018-04-17T16:05:56Z    
4/17/2018    9:05:56    39.42         12.91        0.88      90.80                 4.10          33.61     1767  34.00765    -118.50015    2018-04-17T16:05:56Z    
4/17/2018    9:05:56    39.42         12.91        0.90      90.80                 4.20          33.61     1768  34.00765    -118.50015    2018-04-17T16:05:56Z    
4/17/2018    9:05:56    39.42         12.91        0.91      90.80                 4.33          33.61     1769  34.00765    -118.50015    2018-04-17T16:05:56Z    
4/17/2018    9:05:56    39.42         12.91        0.92      90.84                 4.61          33.61     1770  34.00765    -118.50015    2018-04-17T16:05:56Z    
4/17/2018    9:05:57    39.42         12.91        0.92      90.83                 4.58          33.61     1771  34.00765    -118.50015    2018-04-17T16:05:57Z    
4/17/2018    9:05:57    39.42         12.90        0.92      90.80                 4.45          33.61     1772  34.00765    -118.50015    2018-04-17T16:05:57Z    
4/17/2018    9:05:57    39.42         12.90        0.93      90.84                 4.43          33.62     1773  34.00765    -118.50015    2018-04-17T16:05:57Z    
4/17/2018    9:05:57    39.42         12.90        0.92      90.85                 4.32          33.61     1774  34.00765    -118.50015    2018-04-17T16:05:57Z    
4/17/2018    9:05:57    39.42         12.91        0.92      90.88                 4.24          33.61     1775  34.00765    -118.50015    2018-04-17T16:05:57Z    
4/17/2018    9:05:57    39.42         12.91        0.94      90.88                 4.40          33.61     1776  34.00765    -118.50015    2018-04-17T16:05:57Z    
4/17/2018    9:05:58    39.42         12.91        0.97      90.89                 4.40          33.60     1777  34.00765    -118.50015    2018-04-17T16:05:58Z    
4/17/2018    9:05:58    39.42         12.91        1.01      90.86                 4.43          33.60     1778  34.00765    -118.50015    2018-04-17T16:05:58Z    
4/17/2018    9:05:58    39.42         12.91        1.04      90.87                 4.48          33.61     1779  34.00765    -118.50015    2018-04-17T16:05:58Z    
4/17/2018    9:05:58    39.42         12.91        1.06      90.87                 4.63          33.62     1780  34.00765    -118.50015    2018-04-17T16:05:58Z    
4/17/2018    9:05:58    39.42         12.91        1.09      90.89                 4.63          33.61     1781  34.00765    -118.50015    2018-04-17T16:05:58Z    
4/17/2018    9:05:58    39.42         12.92        1.10      90.85                 4.56          33.60     1782  34.00765    -118.50015    2018-04-17T16:05:58Z    
4/17/2018    9:05:59    39.42         12.92        1.11      90.91                 4.36          33.60     1783  34.00765    -118.50015    2018-04-17T16:05:59Z    
4/17/2018    9:05:59    39.42         12.92        1.09      90.88                 4.31          33.60     1784  34.00765    -118.50015    2018-04-17T16:05:59Z    
4/17/2018    9:05:59    39.42         12.92        1.09      90.85                 4.25          33.60     1785  34.00765    -118.50015    2018-04-17T16:05:59Z    
4/17/2018    9:05:59    39.42         12.92        1.07      90.90                 4.19          33.60     1786  34.00765    -118.50015    2018-04-17T16:05:59Z    
4/17/2018    9:05:59    39.42         12.92        1.03      90.96                 4.08          33.60     1787  34.00765    -118.50015    2018-04-17T16:05:59Z    
4/17/2018    9:05:59    39.42         12.91        1.00      90.95                 4.01          33.61     1788  34.00765    -118.50015    2018-04-17T16:05:59Z    
4/17/2018    9:06:00    39.42         12.91        0.99      90.89                 3.93          33.61     1789  34.00765    -118.50015    2018-04-17T16:06:00Z    
4/17/2018    9:06:00    39.42         12.91        0.95      90.87                 3.94          33.61     1790  34.00765    -118.50015    2018-04-17T16:06:00Z    
4/17/2018    9:06:00    39.42         12.91        0.94      90.91                 4.09          33.61     1791  34.00765    -118.50015    2018-04-17T16:06:00Z    
4/17/2018    9:06:00    39.42         12.91        0.94      90.91                 4.10          33.61     1792  34.00765    -118.50015    2018-04-17T16:06:00Z    
4/17/2018    9:06:00    39.42         12.91        0.95      90.95                 4.05          33.61     1793  34.00765    -118.50015    2018-04-17T16:06:00Z    
4/17/2018    9:06:00    39.42         12.91        0.93      90.88                 3.96          33.61     1794  34.00765    -118.50015    2018-04-17T16:06:00Z    
4/17/2018    9:06:01    39.42         12.91        0.93      90.86                 3.89          33.61     1795  34.00765    -118.50015    2018-04-17T16:06:01Z    
4/17/2018    9:06:01    39.42         12.91        0.93      90.88                 3.88          33.61     1796  34.00765    -118.50015    2018-04-17T16:06:01Z    
4/17/2018    9:06:01    39.42         12.91        0.91      90.92                 3.83          33.61     1797  34.00765    -118.50015    2018-04-17T16:06:01Z    
4/17/2018    9:06:01    39.42         12.91        0.90      90.92                 3.83          33.61     1798  34.00765    -118.50015    2018-04-17T16:06:01Z    
4/17/2018    9:06:01    39.42         12.91        0.90      90.92                 3.83          33.61     1799  34.00765    -118.50015    2018-04-17T16:06:01Z    
4/17/2018    9:06:01    39.42         12.91        0.86      90.86                 3.72          33.61     1800  34.00765    -118.50015    2018-04-17T16:06:01Z    
4/17/2018    9:06:02    39.42         12.91        0.84      90.86                 3.76          33.61     1801  34.00765    -118.50015    2018-04-17T16:06:02Z    
4/17/2018    9:06:02    39.42         12.91        0.82      90.83                 3.86          33.61     1802  34.00765    -118.50015    2018-04-17T16:06:02Z    
4/17/2018    9:06:02    39.42         12.91        0.80      90.89                 3.95          33.61     1803  34.00765    -118.50015    2018-04-17T16:06:02Z    
4/17/2018    9:06:02    39.42         12.91        0.80      90.91                 3.98          33.61     1804  34.00765    -118.50015    2018-04-17T16:06:02Z    
4/17/2018    9:06:02    39.42         12.91        0.80      90.88                 3.94          33.61     1805  34.00765    -118.50015    2018-04-17T16:06:02Z    
4/17/2018    9:06:02    39.42         12.91        0.83      90.92                 4.07          33.61     1806  34.00765    -118.50015    2018-04-17T16:06:02Z    
4/17/2018    9:06:03    39.42         12.91        0.86      90.88                 4.46          33.61     1807  34.00765    -118.50015    2018-04-17T16:06:03Z    
4/17/2018    9:06:03    39.42         12.91        0.87      90.91                 4.48          33.61     1808  34.00765    -118.50015    2018-04-17T16:06:03Z    
4/17/2018    9:06:03    39.42         12.92        0.87      90.91                 4.33          33.61     1809  34.00765    -118.50015    2018-04-17T16:06:03Z    
4/17/2018    9:06:03    39.42         12.92        0.89      90.89                 4.24          33.61     1810  34.00765    -118.50015    2018-04-17T16:06:03Z    
4/17/2018    9:06:03    39.43         12.92        0.90      90.93                 4.18          33.61     1811  34.00765    -118.50015    2018-04-17T16:06:03Z    
4/17/2018    9:06:03    39.43         12.92        0.90      91.00                 4.07          33.61     1812  34.00765    -118.50015    2018-04-17T16:06:03Z    
4/17/2018    9:06:04    39.43         12.92        0.92      90.93                 4.08          33.61     1813  34.00765    -118.50015    2018-04-17T16:06:04Z    
4/17/2018    9:06:04    39.43         12.91        0.92      90.94                 4.00          33.61     1814  34.00765    -118.50015    2018-04-17T16:06:04Z    
4/17/2018    9:06:04    39.43         12.91        0.93      90.92                 3.91          33.61     1815  34.00765    -118.50015    2018-04-17T16:06:04Z    
4/17/2018    9:06:04    39.43         12.91        0.93      90.95                 3.87          33.61     1816  34.00765    -118.50015    2018-04-17T16:06:04Z    
4/17/2018    9:06:04    39.43         12.91        0.94      90.99                 3.89          33.61     1817  34.00765    -118.50015    2018-04-17T16:06:04Z    
4/17/2018    9:06:04    39.43         12.91        0.93      90.99                 3.79          33.61     1818  34.00765    -118.50015    2018-04-17T16:06:04Z    
4/17/2018    9:06:05    39.43         12.92        0.92      90.93                 3.74          33.61     1819  34.00765    -118.50015    2018-04-17T16:06:05Z    
4/17/2018    9:06:05    39.43         12.92        0.90      90.97                 3.78          33.61     1820  34.00765    -118.50015    2018-04-17T16:06:05Z    
4/17/2018    9:06:05    39.43         12.92        0.89      91.01                 3.87          33.61     1821  34.00765    -118.50015    2018-04-17T16:06:05Z    
4/17/2018    9:06:05    39.43         12.92        0.87      91.00                 3.87          33.61     1822  34.00765    -118.50015    2018-04-17T16:06:05Z    
4/17/2018    9:06:05    39.43         12.92        0.84      91.00                 3.88          33.61     1823  34.00765    -118.50015    2018-04-17T16:06:05Z    
4/17/2018    9:06:05    39.43         12.92        0.85      91.01                 3.88          33.61     1824  34.00765    -118.50015    2018-04-17T16:06:05Z    
4/17/2018    9:06:06    39.43         12.92        0.82      91.01                 3.87          33.61     1825  34.00765    -118.50015    2018-04-17T16:06:06Z    
4/17/2018    9:06:06    39.43         12.92        0.85      91.01                 3.86          33.61     1826  34.00765    -118.50015    2018-04-17T16:06:06Z    
4/17/2018    9:06:06    39.43         12.92        0.89      91.02                 3.92          33.61     1827  34.00765    -118.50015    2018-04-17T16:06:06Z    
4/17/2018    9:06:06    39.43         12.92        0.94      91.01                 3.93          33.61     1828  34.00765    -118.50015    2018-04-17T16:06:06Z    
4/17/2018    9:06:06    39.43         12.92        1.01      91.03                 3.94          33.61     1829  34.00765    -118.50015    2018-04-17T16:06:06Z    
4/17/2018    9:06:06    39.43         12.92        1.10      90.97                 3.89          33.61     1830  34.00765    -118.50015    2018-04-17T16:06:06Z    
4/17/2018    9:06:07    39.43         12.92        1.18      91.03                 3.94          33.61     1831  34.00765    -118.50015    2018-04-17T16:06:07Z    
4/17/2018    9:06:07    39.43         12.92        1.26      91.03                 3.99          33.61     1832  34.00765    -118.50015    2018-04-17T16:06:07Z    
4/17/2018    9:06:07    39.43         12.92        1.33      91.04                 4.07          33.61     1833  34.00765    -118.50015    2018-04-17T16:06:07Z    
4/17/2018    9:06:07    39.43         12.92        1.36      91.00                 4.04          33.61     1834  34.00765    -118.50015    2018-04-17T16:06:07Z    
4/17/2018    9:06:07    39.43         12.92        1.38      91.06                 4.49          33.61     1835  34.00765    -118.50015    2018-04-17T16:06:07Z    
4/17/2018    9:06:07    39.43         12.91        1.37      91.11                 5.00          33.62     1836  34.00765    -118.50015    2018-04-17T16:06:07Z    
4/17/2018    9:06:08    39.42         12.91        1.33      91.10                 5.36          33.61     1837  34.00765    -118.50015    2018-04-17T16:06:08Z    
4/17/2018    9:06:08    39.42         12.91        1.28      91.06                 5.22          33.61     1838  34.00765    -118.50015    2018-04-17T16:06:08Z    
4/17/2018    9:06:08    39.42         12.91        1.20      91.07                 4.92          33.61     1839  34.00765    -118.50015    2018-04-17T16:06:08Z    
4/17/2018    9:06:08    39.43         12.91        1.12      91.06                 4.72          33.62     1840  34.00765    -118.50015    2018-04-17T16:06:08Z    
4/17/2018    9:06:08    39.43         12.91        1.02      91.08                 4.45          33.61     1841  34.00765    -118.50015    2018-04-17T16:06:08Z    
4/17/2018    9:06:08    39.43         12.91        0.93      91.08                 4.29          33.62     1842  34.00765    -118.50015    2018-04-17T16:06:08Z    
4/17/2018    9:06:09    39.43         12.91        0.86      91.06                 4.12          33.61     1843  34.00765    -118.50015    2018-04-17T16:06:09Z    
4/17/2018    9:06:09    39.43         12.91        0.77      91.05                 3.98          33.61     1844  34.00765    -118.50015    2018-04-17T16:06:09Z    
4/17/2018    9:06:09    39.43         12.91        0.69      91.04                 3.89          33.61     1845  34.00765    -118.50015    2018-04-17T16:06:09Z    
4/17/2018    9:06:09    39.43         12.92        0.64      91.06                 3.82          33.61     1846  34.00765    -118.50015    2018-04-17T16:06:09Z    
4/17/2018    9:06:09    39.43         12.92        0.58      91.05                 3.78          33.61     1847  34.00765    -118.50015    2018-04-17T16:06:09Z    
4/17/2018    9:06:09    39.43         12.92        0.56      91.05                 3.78          33.61     1848  34.00765    -118.50015    2018-04-17T16:06:09Z    
4/17/2018    9:06:10    39.43         12.91        0.55      91.06                 3.83          33.61     1849  34.00765    -118.50015    2018-04-17T16:06:10Z    
4/17/2018    9:06:10    39.43         12.91        0.58      91.03                 3.76          33.61     1850  34.00765    -118.50015    2018-04-17T16:06:10Z    
4/17/2018    9:06:10    39.42         12.91        0.62      91.05                 3.80          33.61     1851  34.00765    -118.50015    2018-04-17T16:06:10Z    
4/17/2018    9:06:10    39.42         12.91        0.66      91.01                 3.97          33.61     1852  34.00765    -118.50015    2018-04-17T16:06:10Z    
4/17/2018    9:06:10    39.42         12.91        0.70      91.00                 3.99          33.61     1853  34.00765    -118.50015    2018-04-17T16:06:10Z    
4/17/2018    9:06:10    39.42         12.91        0.76      91.02                 3.99          33.61     1854  34.00765    -118.50015    2018-04-17T16:06:10Z    
4/17/2018    9:06:11    39.42         12.91        0.81      91.02                 4.02          33.61     1855  34.00765    -118.50015    2018-04-17T16:06:11Z    
4/17/2018    9:06:11    39.43         12.91        0.85      91.01                 4.02          33.61     1856  34.00765    -118.50015    2018-04-17T16:06:11Z    
4/17/2018    9:06:11    39.43         12.91        0.89      91.03                 3.95          33.61     1857  34.00765    -118.50015    2018-04-17T16:06:11Z    
4/17/2018    9:06:11    39.43         12.91        0.91      91.01                 3.88          33.61     1858  34.00765    -118.50015    2018-04-17T16:06:11Z    
4/17/2018    9:06:11    39.43         12.91        0.91      91.01                 4.00          33.61     1859  34.00765    -118.50015    2018-04-17T16:06:11Z    
4/17/2018    9:06:11    39.43         12.91        0.89      91.01                 4.01          33.61     1860  34.00765    -118.50015    2018-04-17T16:06:11Z    
4/17/2018    9:06:12    39.43         12.92        0.86      91.00                 3.97          33.61     1861  34.00765    -118.50015    2018-04-17T16:06:12Z    
4/17/2018    9:06:12    39.43         12.91        0.83      91.01                 4.00          33.61     1862  34.00765    -118.50015    2018-04-17T16:06:12Z    
4/17/2018    9:06:12    39.43         12.91        0.79      90.99                 3.96          33.62     1863  34.00765    -118.50015    2018-04-17T16:06:12Z    
4/17/2018    9:06:12    39.43         12.92        0.77      91.00                 3.96          33.61     1864  34.00765    -118.50015    2018-04-17T16:06:12Z    
4/17/2018    9:06:12    39.43         12.92        0.75      91.01                 3.96          33.61     1865  34.00765    -118.50015    2018-04-17T16:06:12Z    
4/17/2018    9:06:12    39.43         12.91        0.75      90.99                 3.89          33.62     1866  34.00765    -118.50015    2018-04-17T16:06:12Z    
4/17/2018    9:06:13    39.43         12.91        0.74      90.98                 3.97          33.61     1867  34.00765    -118.50015    2018-04-17T16:06:13Z    
4/17/2018    9:06:13    39.43         12.91        0.74      90.99                 4.01          33.62     1868  34.00765    -118.50015    2018-04-17T16:06:13Z    
4/17/2018    9:06:13    39.43         12.91        0.76      91.00                 3.95          33.62     1869  34.00765    -118.50015    2018-04-17T16:06:13Z    
4/17/2018    9:06:13    39.43         12.91        0.79      91.02                 3.87          33.62     1870  34.00765    -118.50015    2018-04-17T16:06:13Z    
4/17/2018    9:06:13    39.43         12.91        0.82      91.03                 3.81          33.62     1871  34.00765    -118.50015    2018-04-17T16:06:13Z    
4/17/2018    9:06:13    39.43         12.91        0.85      91.04                 3.73          33.62     1872  34.00765    -118.50015    2018-04-17T16:06:13Z    
4/17/2018    9:06:14    39.42         12.91        0.88      91.03                 3.65          33.62     1873  34.00765    -118.50015    2018-04-17T16:06:14Z    
4/17/2018    9:06:14    39.43         12.91        0.90      91.04                 3.63          33.62     1874  34.00765    -118.50015    2018-04-17T16:06:14Z    
4/17/2018    9:06:14    39.43         12.91        0.91      91.01                 3.63          33.62     1875  34.00765    -118.50015    2018-04-17T16:06:14Z    
4/17/2018    9:06:14    39.43         12.91        0.91      90.95                 3.61          33.62     1876  34.00765    -118.50015    2018-04-17T16:06:14Z    
4/17/2018    9:06:14    39.43         12.91        0.91      90.95                 3.54          33.62     1877  34.00765    -118.50015    2018-04-17T16:06:14Z    
4/17/2018    9:06:14    39.43         12.91        0.92      90.98                 3.52          33.62     1878  34.00765    -118.50015    2018-04-17T16:06:14Z    
4/17/2018    9:06:15    39.43         12.91        0.93      90.95                 3.54          33.62     1879  34.00765    -118.50015    2018-04-17T16:06:15Z    
4/17/2018    9:06:15    39.43         12.91        0.93      91.03                 3.59          33.62     1880  34.00765    -118.50015    2018-04-17T16:06:15Z    
4/17/2018    9:06:15    39.43         12.90        0.94      90.95                 3.65          33.62     1881  34.00765    -118.50015    2018-04-17T16:06:15Z    
4/17/2018    9:06:15    39.42         12.91        0.95      90.92                 3.62          33.62     1882  34.00765    -118.50015    2018-04-17T16:06:15Z    
4/17/2018    9:06:15    39.42         12.91        0.98      90.97                 3.55          33.62     1883  34.00765    -118.50015    2018-04-17T16:06:15Z    
4/17/2018    9:06:15    39.42         12.91        1.03      90.94                 3.48          33.61     1884  34.00765    -118.50015    2018-04-17T16:06:15Z    
4/17/2018    9:06:16    39.42         12.91        1.06      90.93                 3.48          33.61     1885  34.00765    -118.50015    2018-04-17T16:06:16Z    
4/17/2018    9:06:16    39.42         12.91        1.09      90.94                 3.50          33.61     1886  34.00765    -118.50015    2018-04-17T16:06:16Z    
4/17/2018    9:06:16    39.42         12.91        1.12      90.94                 3.54          33.61     1887  34.00765    -118.50015    2018-04-17T16:06:16Z    
4/17/2018    9:06:16    39.42         12.91        1.14      90.90                 3.57          33.61     1888  34.00765    -118.50015    2018-04-17T16:06:16Z    
4/17/2018    9:06:16    39.42         12.91        1.15      90.88                 3.59          33.61     1889  34.00765    -118.50015    2018-04-17T16:06:16Z    
4/17/2018    9:06:16    39.42         12.91        1.14      90.89                 3.62          33.61     1890  34.00765    -118.50015    2018-04-17T16:06:16Z    
4/17/2018    9:06:17    39.42         12.91        1.13      90.87                 3.59          33.61     1891  34.00765    -118.50015    2018-04-17T16:06:17Z    
4/17/2018    9:06:17    39.42         12.91        1.12      90.88                 3.55          33.61     1892  34.00765    -118.50015    2018-04-17T16:06:17Z    
4/17/2018    9:06:17    39.42         12.91        1.07      90.89                 3.49          33.61     1893  34.00765    -118.50015    2018-04-17T16:06:17Z    
4/17/2018    9:06:17    39.42         12.91        1.05      90.87                 3.44          33.61     1894  34.00765    -118.50015    2018-04-17T16:06:17Z    
4/17/2018    9:06:17    39.42         12.91        1.00      90.88                 3.46          33.61     1895  34.00765    -118.50015    2018-04-17T16:06:17Z    
4/17/2018    9:06:17    39.42         12.91        0.95      90.91                 3.60          33.61     1896  34.00765    -118.50015    2018-04-17T16:06:17Z    
4/17/2018    9:06:18    39.42         12.91        0.91      90.83                 3.67          33.61     1897  34.00765    -118.50015    2018-04-17T16:06:18Z    
4/17/2018    9:06:18    39.42         12.91        0.83      90.86                 3.71          33.61     1898  34.00765    -118.50015    2018-04-17T16:06:18Z    
4/17/2018    9:06:18    39.42         12.91        0.77      90.81                 3.78          33.61     1899  34.00765    -118.50015    2018-04-17T16:06:18Z    
4/17/2018    9:06:18    39.42         12.91        0.69      90.85                 3.79          33.61     1900  34.00765    -118.50015    2018-04-17T16:06:18Z    
4/17/2018    9:06:18    39.42         12.91        0.65      90.85                 3.78          33.61     1901  34.00765    -118.50015    2018-04-17T16:06:18Z    
4/17/2018    9:06:18    39.42         12.91        0.59      90.83                 3.81          33.61     1902  34.00765    -118.50015    2018-04-17T16:06:18Z    
4/17/2018    9:06:19    39.43         12.91        0.59      90.86                 3.76          33.62     1903  34.00765    -118.50015    2018-04-17T16:06:19Z    
4/17/2018    9:06:19    39.42         12.91        0.62      90.78                 3.75          33.61     1904  34.00765    -118.50015    2018-04-17T16:06:19Z    
4/17/2018    9:06:19    39.42         12.91        0.69      90.83                 3.73          33.61     1905  34.00765    -118.50015    2018-04-17T16:06:19Z    
4/17/2018    9:06:19    39.42         12.91        0.77      90.80                 3.83          33.61     1906  34.00765    -118.50015    2018-04-17T16:06:19Z    
4/17/2018    9:06:19    39.42         12.91        0.85      90.81                 3.87          33.61     1907  34.00765    -118.50015    2018-04-17T16:06:19Z    
4/17/2018    9:06:19    39.42         12.91        0.97      90.85                 3.90          33.61     1908  34.00765    -118.50015    2018-04-17T16:06:19Z    
4/17/2018    9:06:20    39.42         12.91        1.06      90.79                 4.06          33.61     1909  34.00765    -118.50015    2018-04-17T16:06:20Z    
4/17/2018    9:06:20    39.42         12.91        1.12      90.83                 4.17          33.61     1910  34.00765    -118.50015    2018-04-17T16:06:20Z    
4/17/2018    9:06:20    39.41         12.91        1.20      90.79                 4.27          33.60     1911  34.00765    -118.50015    2018-04-17T16:06:20Z    
4/17/2018    9:06:20    39.40         12.91        1.23      90.84                 4.29          33.59     1912  34.00765    -118.50015    2018-04-17T16:06:20Z    
4/17/2018    9:06:20    39.40         12.91        1.24      90.81                 4.37          33.60     1913  34.00765    -118.50015    2018-04-17T16:06:20Z    
4/17/2018    9:06:20    39.41         12.91        1.23      90.82                 4.41          33.61     1914  34.00765    -118.50015    2018-04-17T16:06:20Z    
4/17/2018    9:06:21    39.42         12.91        1.18      90.81                 4.37          33.61     1915  34.00765    -118.50015    2018-04-17T16:06:21Z    
4/17/2018    9:06:21    39.42         12.91        1.11      90.77                 4.29          33.61     1916  34.00765    -118.50015    2018-04-17T16:06:21Z    
4/17/2018    9:06:21    39.42         12.91        1.04      90.78                 4.20          33.61     1917  34.00765    -118.50015    2018-04-17T16:06:21Z    
4/17/2018    9:06:21    39.42         12.91        0.96      90.79                 4.15          33.61     1918  34.00765    -118.50015    2018-04-17T16:06:21Z    
4/17/2018    9:06:21    39.42         12.91        0.89      90.76                 4.11          33.61     1919  34.00765    -118.50015    2018-04-17T16:06:21Z    
4/17/2018    9:06:21    39.42         12.91        0.83      90.77                 4.02          33.61     1920  34.00765    -118.50015    2018-04-17T16:06:21Z    
4/17/2018    9:06:22    39.42         12.91        0.80      90.74                 3.93          33.61     1921  34.00765    -118.50015    2018-04-17T16:06:22Z    
4/17/2018    9:06:22    39.42         12.91        0.78      90.73                 3.87          33.61     1922  34.00765    -118.50015    2018-04-17T16:06:22Z    
4/17/2018    9:06:22    39.42         12.91        0.77      90.77                 4.02          33.61     1923  34.00765    -118.50015    2018-04-17T16:06:22Z    
4/17/2018    9:06:22    39.42         12.91        0.77      90.76                 4.18          33.61     1924  34.00765    -118.50015    2018-04-17T16:06:22Z    
4/17/2018    9:06:22    39.42         12.91        0.77      90.75                 4.19          33.61     1925  34.00765    -118.50015    2018-04-17T16:06:22Z    
4/17/2018    9:06:22    39.42         12.91        0.81      90.77                 4.16          33.61     1926  34.00765    -118.50015    2018-04-17T16:06:22Z    
4/17/2018    9:06:23    39.42         12.91        0.86      90.78                 4.16          33.61     1927  34.00765    -118.50015    2018-04-17T16:06:23Z    
4/17/2018    9:06:23    39.42         12.91        0.91      90.74                 4.19          33.61     1928  34.00765    -118.50015    2018-04-17T16:06:23Z    
4/17/2018    9:06:23    39.42         12.91        0.96      90.73                 4.19          33.61     1929  34.00765    -118.50015    2018-04-17T16:06:23Z    
4/17/2018    9:06:23    39.42         12.91        1.02      90.73                 4.18          33.61     1930  34.00765    -118.50015    2018-04-17T16:06:23Z    
4/17/2018    9:06:23    39.42         12.91        1.05      90.75                 4.21          33.61     1931  34.00765    -118.50015    2018-04-17T16:06:23Z    
4/17/2018    9:06:23    39.42         12.91        1.07      90.73                 4.21          33.61     1932  34.00765    -118.50015    2018-04-17T16:06:23Z    
4/17/2018    9:06:24    39.42         12.91        1.07      90.72                 4.28          33.61     1933  34.00765    -118.50015    2018-04-17T16:06:24Z    
4/17/2018    9:06:24    39.42         12.91        1.06      90.73                 4.29          33.61     1934  34.00765    -118.50015    2018-04-17T16:06:24Z    
4/17/2018    9:06:24    39.42         12.90        1.04      90.71                 4.30          33.62     1935  34.00765    -118.50015    2018-04-17T16:06:24Z    
4/17/2018    9:06:24    39.42         12.90        1.00      90.71                 4.20          33.61     1936  34.00765    -118.50015    2018-04-17T16:06:24Z    
4/17/2018    9:06:24    39.42         12.91        0.98      90.73                 4.09          33.61     1937  34.00765    -118.50015    2018-04-17T16:06:24Z    
4/17/2018    9:06:24    39.42         12.91        0.97      90.75                 4.03          33.61     1938  34.00765    -118.50015    2018-04-17T16:06:24Z    
4/17/2018    9:06:25    39.42         12.91        0.94      90.68                 4.04          33.61     1939  34.00765    -118.50015    2018-04-17T16:06:25Z    
4/17/2018    9:06:25    39.42         12.91        0.93      90.73                 4.05          33.61     1940  34.00765    -118.50015    2018-04-17T16:06:25Z    
4/17/2018    9:06:25    39.41         12.91        0.95      90.71                 4.06          33.61     1941  34.00765    -118.50015    2018-04-17T16:06:25Z    
4/17/2018    9:06:25    39.41         12.91        0.99      90.73                 4.06          33.60     1942  34.00765    -118.50015    2018-04-17T16:06:25Z    
4/17/2018    9:06:25    39.41         12.90        1.02      90.71                 3.99          33.60     1943  34.00765    -118.50015    2018-04-17T16:06:25Z    
4/17/2018    9:06:25    39.40         12.90        1.07      90.73                 4.04          33.60     1944  34.00765    -118.50015    2018-04-17T16:06:25Z    
4/17/2018    9:06:26    39.40         12.90        1.11      90.64                 4.05          33.60     1945  34.00765    -118.50015    2018-04-17T16:06:26Z    
4/17/2018    9:06:26    39.40         12.89        1.13      90.66                 4.10          33.60     1946  34.00765    -118.50015    2018-04-17T16:06:26Z    
4/17/2018    9:06:26    39.40         12.89        1.13      90.66                 4.34          33.60     1947  34.00765    -118.50015    2018-04-17T16:06:26Z    
4/17/2018    9:06:26    39.40         12.89        1.15      90.62                 4.52          33.60     1948  34.00765    -118.50015    2018-04-17T16:06:26Z    
4/17/2018    9:06:26    39.40         12.89        1.12      90.66                 4.58          33.61     1949  34.00765    -118.50015    2018-04-17T16:06:26Z    
4/17/2018    9:06:26    39.40         12.89        1.08      90.69                 4.54          33.61     1950  34.00765    -118.50015    2018-04-17T16:06:26Z    
4/17/2018    9:06:27    39.40         12.89        1.04      90.67                 4.52          33.61     1951  34.00765    -118.50015    2018-04-17T16:06:27Z    
4/17/2018    9:06:27    39.41         12.88        0.98      90.66                 4.67          33.62     1952  34.00765    -118.50015    2018-04-17T16:06:27Z    
4/17/2018    9:06:27    39.41         12.88        0.94      90.64                 4.63          33.62     1953  34.00765    -118.50015    2018-04-17T16:06:27Z    
4/17/2018    9:06:27    39.41         12.88        0.87      90.63                 4.57          33.62     1954  34.00765    -118.50015    2018-04-17T16:06:27Z    
4/17/2018    9:06:27    39.41         12.89        0.83      90.64                 4.58          33.62     1955  34.00765    -118.50015    2018-04-17T16:06:27Z    
4/17/2018    9:06:27    39.41         12.89        0.80      90.55                 4.60          33.62     1956  34.00765    -118.50015    2018-04-17T16:06:27Z    
4/17/2018    9:06:28    39.41         12.89        0.77      90.59                 4.58          33.62     1957  34.00765    -118.50015    2018-04-17T16:06:28Z    
4/17/2018    9:06:28    39.41         12.89        0.74      90.58                 4.52          33.62     1958  34.00765    -118.50015    2018-04-17T16:06:28Z    
4/17/2018    9:06:28    39.41         12.89        0.71      90.56                 4.35          33.62     1959  34.00765    -118.50015    2018-04-17T16:06:28Z    
4/17/2018    9:06:28    39.41         12.90        0.70      90.55                 4.16          33.62     1960  34.00765    -118.50015    2018-04-17T16:06:28Z    
4/17/2018    9:06:28    39.41         12.90        0.68      90.55                 4.08          33.61     1961  34.00765    -118.50015    2018-04-17T16:06:28Z    
4/17/2018    9:06:28    39.42         12.90        0.67      90.54                 4.02          33.61     1962  34.00765    -118.50015    2018-04-17T16:06:28Z    
4/17/2018    9:06:29    39.42         12.90        0.66      90.56                 3.98          33.61     1963  34.00765    -118.50015    2018-04-17T16:06:29Z    
4/17/2018    9:06:29    39.42         12.90        0.65      90.54                 3.95          33.61     1964  34.00765    -118.50015    2018-04-17T16:06:29Z    
4/17/2018    9:06:29    39.42         12.91        0.64      90.59                 3.86          33.61     1965  34.00765    -118.50015    2018-04-17T16:06:29Z    
4/17/2018    9:06:29    39.42         12.91        0.64      90.54                 3.81          33.61     1966  34.00765    -118.50015    2018-04-17T16:06:29Z    
4/17/2018    9:06:29    39.42         12.91        0.63      90.56                 3.77          33.61     1967  34.00765    -118.50015    2018-04-17T16:06:29Z    
4/17/2018    9:06:29    39.42         12.91        0.64      90.58                 3.83          33.62     1968  34.00765    -118.50015    2018-04-17T16:06:29Z    
4/17/2018    9:06:30    39.42         12.91        0.66      90.54                 3.87          33.62     1969  34.00765    -118.50015    2018-04-17T16:06:30Z    
4/17/2018    9:06:30    39.42         12.91        0.70      90.54                 3.84          33.61     1970  34.00765    -118.50015    2018-04-17T16:06:30Z    
4/17/2018    9:06:30    39.42         12.91        0.73      90.58                 3.85          33.61     1971  34.00765    -118.50015    2018-04-17T16:06:30Z    
4/17/2018    9:06:30    39.42         12.90        0.74      90.55                 3.85          33.61     1972  34.00765    -118.50015    2018-04-17T16:06:30Z    
4/17/2018    9:06:30    39.42         12.90        0.75      90.62                 3.96          33.61     1973  34.00765    -118.50015    2018-04-17T16:06:30Z    
4/17/2018    9:06:30    39.42         12.90        0.75      90.62                 3.97          33.61     1974  34.00765    -118.50015    2018-04-17T16:06:30Z    
4/17/2018    9:06:31    39.42         12.90        0.74      90.59                 3.91          33.61     1975  34.00765    -118.50015    2018-04-17T16:06:31Z    
4/17/2018    9:06:31    39.42         12.90        0.73      90.64                 4.12          33.61     1976  34.00765    -118.50015    2018-04-17T16:06:31Z    
4/17/2018    9:06:31    39.42         12.90        0.71      90.65                 4.28          33.62     1977  34.00765    -118.50015    2018-04-17T16:06:31Z    
4/17/2018    9:06:31    39.42         12.90        0.71      90.60                 4.35          33.61     1978  34.00765    -118.50015    2018-04-17T16:06:31Z    
4/17/2018    9:06:31    39.42         12.90        0.69      90.64                 4.33          33.61     1979  34.00765    -118.50015    2018-04-17T16:06:31Z    
4/17/2018    9:06:31    39.42         12.90        0.67      90.62                 4.27          33.61     1980  34.00765    -118.50015    2018-04-17T16:06:31Z    
4/17/2018    9:06:32    39.42         12.90        0.69      90.63                 4.15          33.62     1981  34.00765    -118.50015    2018-04-17T16:06:32Z    
4/17/2018    9:06:32    39.42         12.90        0.71      90.65                 4.01          33.61     1982  34.00765    -118.50015    2018-04-17T16:06:32Z    
4/17/2018    9:06:32    39.42         12.90        0.73      90.63                 3.91          33.61     1983  34.00765    -118.50015    2018-04-17T16:06:32Z    
4/17/2018    9:06:32    39.42         12.90        0.75      90.64                 3.88          33.61     1984  34.00765    -118.50015    2018-04-17T16:06:32Z    
4/17/2018    9:06:32    39.42         12.90        0.77      90.63                 3.91          33.61     1985  34.00765    -118.50015    2018-04-17T16:06:32Z    
4/17/2018    9:06:32    39.42         12.90        0.80      90.58                 3.89          33.61     1986  34.00765    -118.50015    2018-04-17T16:06:32Z    
4/17/2018    9:06:33    39.42         12.90        0.85      90.62                 3.81          33.62     1987  34.00765    -118.50015    2018-04-17T16:06:33Z    
4/17/2018    9:06:33    39.42         12.90        0.89      90.61                 3.80          33.62     1988  34.00765    -118.50015    2018-04-17T16:06:33Z    
4/17/2018    9:06:33    39.42         12.90        0.93      90.63                 3.89          33.62     1989  34.00765    -118.50015    2018-04-17T16:06:33Z    
4/17/2018    9:06:33    39.42         12.90        0.97      90.64                 3.95          33.61     1990  34.00765    -118.50015    2018-04-17T16:06:33Z    
4/17/2018    9:06:33    39.41         12.90        1.04      90.67                 3.98          33.61     1991  34.00765    -118.50015    2018-04-17T16:06:33Z    
4/17/2018    9:06:33    39.42         12.90        1.08      90.64                 3.96          33.61     1992  34.00765    -118.50015    2018-04-17T16:06:33Z    
4/17/2018    9:06:34    39.42         12.90        1.09      90.60                 3.92          33.62     1993  34.00765    -118.50015    2018-04-17T16:06:34Z    
4/17/2018    9:06:34    39.42         12.90        1.12      90.60                 3.95          33.62     1994  34.00765    -118.50015    2018-04-17T16:06:34Z    
4/17/2018    9:06:34    39.42         12.90        1.14      90.66                 3.94          33.62     1995  34.00765    -118.50015    2018-04-17T16:06:34Z    
4/17/2018    9:06:34    39.42         12.90        1.14      90.67                 3.93          33.62     1996  34.00765    -118.50015    2018-04-17T16:06:34Z    
4/17/2018    9:06:34    39.42         12.90        1.13      90.72                 3.89          33.62     1997  34.00765    -118.50015    2018-04-17T16:06:34Z    
4/17/2018    9:06:34    39.42         12.90        1.14      90.68                 3.90          33.62     1998  34.00765    -118.50015    2018-04-17T16:06:34Z    
4/17/2018    9:06:35    39.42         12.90        1.13      90.67                 3.94          33.62     1999  34.00765    -118.50015    2018-04-17T16:06:35Z    
4/17/2018    9:06:35    39.42         12.90        1.15      90.65                 4.08          33.62     2000  34.00765    -118.50015    2018-04-17T16:06:35Z    
4/17/2018    9:06:35    39.42         12.90        1.15      90.65                 4.14          33.62     2001  34.00765    -118.50015    2018-04-17T16:06:35Z    
4/17/2018    9:06:35    39.42         12.90        1.16      90.68                 4.14          33.62     2002  34.00765    -118.50015    2018-04-17T16:06:35Z    
4/17/2018    9:06:35    39.42         12.90        1.20      90.69                 4.09          33.62     2003  34.00765    -118.50015    2018-04-17T16:06:35Z    
4/17/2018    9:06:35    39.42         12.90        1.21      90.72                 4.08          33.62     2004  34.00765    -118.50015    2018-04-17T16:06:35Z    
4/17/2018    9:06:36    39.42         12.90        1.23      90.68                 4.14          33.61     2005  34.00765    -118.50015    2018-04-17T16:06:36Z    
4/17/2018    9:06:36    39.42         12.90        1.24      90.71                 4.12          33.62     2006  34.00765    -118.50015    2018-04-17T16:06:36Z    
4/17/2018    9:06:36    39.41         12.90        1.23      90.68                 4.08          33.62     2007  34.00765    -118.50015    2018-04-17T16:06:36Z    
4/17/2018    9:06:36    39.41         12.89        1.22      90.66                 4.01          33.62     2008  34.00765    -118.50015    2018-04-17T16:06:36Z    
4/17/2018    9:06:36    39.41         12.89        1.18      90.70                 4.04          33.62     2009  34.00765    -118.50015    2018-04-17T16:06:36Z    
4/17/2018    9:06:36    39.41         12.89        1.13      90.66                 4.02          33.62     2010  34.00765    -118.50015    2018-04-17T16:06:36Z    
4/17/2018    9:06:37    39.41         12.90        1.09      90.65                 3.99          33.62     2011  34.00765    -118.50015    2018-04-17T16:06:37Z    
4/17/2018    9:06:37    39.42         12.90        1.06      90.66                 3.99          33.62     2012  34.00765    -118.50015    2018-04-17T16:06:37Z    
4/17/2018    9:06:37    39.42         12.90        1.02      90.65                 3.98          33.62     2013  34.00765    -118.50015    2018-04-17T16:06:37Z    
4/17/2018    9:06:37    39.42         12.90        0.99      90.66                 3.93          33.62     2014  34.00765    -118.50015    2018-04-17T16:06:37Z    
4/17/2018    9:06:37    39.42         12.90        0.99      90.60                 3.86          33.62     2015  34.00765    -118.50015    2018-04-17T16:06:37Z    
4/17/2018    9:06:37    39.42         12.90        1.00      90.65                 3.81          33.62     2016  34.00765    -118.50015    2018-04-17T16:06:37Z    
4/17/2018    9:06:38    39.42         12.90        1.00      90.64                 3.81          33.61     2017  34.00765    -118.50015    2018-04-17T16:06:38Z    
4/17/2018    9:06:38    39.41         12.90        1.02      90.62                 3.86          33.61     2018  34.00765    -118.50015    2018-04-17T16:06:38Z    
4/17/2018    9:06:38    39.41         12.88        1.04      90.63                 3.98          33.62     2019  34.00765    -118.50015    2018-04-17T16:06:38Z    
4/17/2018    9:06:38    39.40         12.88        1.04      90.62                 4.03          33.62     2020  34.00765    -118.50015    2018-04-17T16:06:38Z    
4/17/2018    9:06:38    39.40         12.89        1.03      90.65                 4.10          33.61     2021  34.00765    -118.50015    2018-04-17T16:06:38Z    
4/17/2018    9:06:38    39.40         12.89        1.03      90.68                 4.12          33.61     2022  34.00765    -118.50015    2018-04-17T16:06:38Z    
4/17/2018    9:06:39    39.40         12.89        1.01      90.65                 4.10          33.61     2023  34.00765    -118.50015    2018-04-17T16:06:39Z    
4/17/2018    9:06:39    39.41         12.88        0.98      90.63                 4.01          33.62     2024  34.00765    -118.50015    2018-04-17T16:06:39Z    
4/17/2018    9:06:39    39.41         12.88        0.97      90.64                 4.02          33.62     2025  34.00765    -118.50015    2018-04-17T16:06:39Z    
4/17/2018    9:06:39    39.41         12.89        0.95      90.62                 4.08          33.62     2026  34.00765    -118.50015    2018-04-17T16:06:39Z    
4/17/2018    9:06:39    39.41         12.89        0.92      90.59                 4.30          33.62     2027  34.00765    -118.50015    2018-04-17T16:06:39Z    
4/17/2018    9:06:39    39.41         12.89        0.88      90.57                 4.33          33.62     2028  34.00765    -118.50015    2018-04-17T16:06:39Z    
4/17/2018    9:06:40    39.41         12.89        0.86      90.57                 4.33          33.62     2029  34.00765    -118.50015    2018-04-17T16:06:40Z    
4/17/2018    9:06:40    39.41         12.89        0.81      90.55                 4.46          33.62     2030  34.00765    -118.50015    2018-04-17T16:06:40Z    
4/17/2018    9:06:40    39.41         12.89        0.76      90.56                 4.36          33.62     2031  34.00765    -118.50015    2018-04-17T16:06:40Z    
4/17/2018    9:06:40    39.41         12.90        0.72      90.57                 4.24          33.62     2032  34.00765    -118.50015    2018-04-17T16:06:40Z    
4/17/2018    9:06:40    39.41         12.90        0.68      90.58                 4.20          33.61     2033  34.00765    -118.50015    2018-04-17T16:06:40Z    
4/17/2018    9:06:40    39.41         12.90        0.65      90.57                 4.08          33.61     2034  34.00765    -118.50015    2018-04-17T16:06:40Z    
4/17/2018    9:06:41    39.42         12.90        0.67      90.59                 3.99          33.61     2035  34.00765    -118.50015    2018-04-17T16:06:41Z    
4/17/2018    9:06:41    39.42         12.90        0.70      90.53                 4.01          33.61     2036  34.00765    -118.50015    2018-04-17T16:06:41Z    
4/17/2018    9:06:41    39.42         12.90        0.77      90.60                 4.01          33.61     2037  34.00765    -118.50015    2018-04-17T16:06:41Z    
4/17/2018    9:06:41    39.41         12.90        0.85      90.57                 3.99          33.61     2038  34.00765    -118.50015    2018-04-17T16:06:41Z    
4/17/2018    9:06:41    39.41         12.90        0.91      90.56                 3.97          33.61     2039  34.00765    -118.50015    2018-04-17T16:06:41Z    
4/17/2018    9:06:41    39.41         12.90        0.98      90.58                 3.92          33.61     2040  34.00765    -118.50015    2018-04-17T16:06:41Z    
4/17/2018    9:06:42    39.41         12.90        1.02      90.57                 3.90          33.61     2041  34.00765    -118.50015    2018-04-17T16:06:42Z    
4/17/2018    9:06:42    39.41         12.90        1.03      90.58                 3.88          33.61     2042  34.00765    -118.50015    2018-04-17T16:06:42Z    
4/17/2018    9:06:42    39.41         12.90        1.01      90.57                 3.91          33.61     2043  34.00765    -118.50015    2018-04-17T16:06:42Z    
4/17/2018    9:06:42    39.41         12.90        0.97      90.55                 3.95          33.61     2044  34.00765    -118.50015    2018-04-17T16:06:42Z    
4/17/2018    9:06:42    39.41         12.90        0.92      90.52                 4.01          33.61     2045  34.00765    -118.50015    2018-04-17T16:06:42Z    
4/17/2018    9:06:42    39.41         12.90        0.85      90.58                 4.07          33.61     2046  34.00765    -118.50015    2018-04-17T16:06:42Z    
4/17/2018    9:06:43    39.42         12.90        0.79      90.58                 4.07          33.62     2047  34.00765    -118.50015    2018-04-17T16:06:43Z    
4/17/2018    9:06:43    39.42         12.90        0.73      90.62                 3.95          33.61     2048  34.00765    -118.50015    2018-04-17T16:06:43Z    
4/17/2018    9:06:43    39.42         12.90        0.71      90.58                 3.87          33.61     2049  34.00765    -118.50015    2018-04-17T16:06:43Z    
4/17/2018    9:06:43    39.42         12.90        0.69      90.52                 3.88          33.61     2050  34.00765    -118.50015    2018-04-17T16:06:43Z    
4/17/2018    9:06:43    39.42         12.90        0.71      90.54                 3.87          33.61     2051  34.00765    -118.50015    2018-04-17T16:06:43Z    
4/17/2018    9:06:43    39.42         12.90        0.78      90.57                 3.90          33.61     2052  34.00765    -118.50015    2018-04-17T16:06:43Z    
4/17/2018    9:06:44    39.42         12.90        0.84      90.58                 3.93          33.62     2053  34.00765    -118.50015    2018-04-17T16:06:44Z    
4/17/2018    9:06:44    39.42         12.90        0.92      90.55                 4.20          33.62     2054  34.00765    -118.50015    2018-04-17T16:06:44Z    
4/17/2018    9:06:44    39.42         12.90        0.99      90.59                 4.48          33.62     2055  34.00765    -118.50015    2018-04-17T16:06:44Z    
4/17/2018    9:06:44    39.42         12.90        1.05      90.54                 4.55          33.62     2056  34.00765    -118.50015    2018-04-17T16:06:44Z    
4/17/2018    9:06:44    39.42         12.90        1.10      90.62                 4.47          33.62     2057  34.00765    -118.50015    2018-04-17T16:06:44Z    
4/17/2018    9:06:44    39.42         12.90        1.10      90.56                 4.41          33.62     2058  34.00765    -118.50015    2018-04-17T16:06:44Z    
4/17/2018    9:06:45    39.42         12.91        1.10      90.58                 4.32          33.61     2059  34.00765    -118.50015    2018-04-17T16:06:45Z    
4/17/2018    9:06:45    39.42         12.91        1.07      90.59                 4.24          33.62     2060  34.00765    -118.50015    2018-04-17T16:06:45Z    
4/17/2018    9:06:45    39.42         12.91        1.04      90.56                 4.24          33.61     2061  34.00765    -118.50015    2018-04-17T16:06:45Z    
4/17/2018    9:06:45    39.42         12.91        1.00      90.53                 4.16          33.61     2062  34.00765    -118.50015    2018-04-17T16:06:45Z    
4/17/2018    9:06:45    39.42         12.91        0.97      90.57                 4.06          33.62     2063  34.00765    -118.50015    2018-04-17T16:06:45Z    
4/17/2018    9:06:45    39.42         12.91        0.94      90.58                 3.92          33.61     2064  34.00765    -118.50015    2018-04-17T16:06:45Z    
4/17/2018    9:06:46    39.42         12.91        0.92      90.58                 3.83          33.62     2065  34.00765    -118.50015    2018-04-17T16:06:46Z    
4/17/2018    9:06:46    39.42         12.91        0.93      90.59                 3.87          33.62     2066  34.00765    -118.50015    2018-04-17T16:06:46Z    
4/17/2018    9:06:46    39.42         12.91        0.95      90.58                 3.92          33.62     2067  34.00765    -118.50015    2018-04-17T16:06:46Z    
4/17/2018    9:06:46    39.42         12.91        0.97      90.60                 3.97          33.61     2068  34.00765    -118.50015    2018-04-17T16:06:46Z    
4/17/2018    9:06:46    39.42         12.91        0.98      90.61                 3.96          33.62     2069  34.00765    -118.50015    2018-04-17T16:06:46Z    
4/17/2018    9:06:46    39.42         12.91        1.02      90.60                 3.91          33.62     2070  34.00765    -118.50015    2018-04-17T16:06:46Z    
4/17/2018    9:06:47    39.42         12.91        1.04      90.65                 3.89          33.62     2071  34.00765    -118.50015    2018-04-17T16:06:47Z    
4/17/2018    9:06:47    39.42         12.91        1.05      90.60                 3.94          33.62     2072  34.00765    -118.50015    2018-04-17T16:06:47Z    
4/17/2018    9:06:47    39.42         12.91        1.04      90.60                 4.11          33.62     2073  34.00765    -118.50015    2018-04-17T16:06:47Z    
4/17/2018    9:06:47    39.42         12.91        0.99      90.62                 4.20          33.61     2074  34.00765    -118.50015    2018-04-17T16:06:47Z    
4/17/2018    9:06:47    39.42         12.91        0.96      90.65                 4.15          33.61     2075  34.00765    -118.50015    2018-04-17T16:06:47Z    
4/17/2018    9:06:47    39.42         12.91        0.91      90.63                 4.09          33.61     2076  34.00765    -118.50015    2018-04-17T16:06:47Z    
4/17/2018    9:06:48    39.42         12.91        0.83      90.65                 4.00          33.61     2077  34.00765    -118.50015    2018-04-17T16:06:48Z    
4/17/2018    9:06:48    39.42         12.91        0.76      90.62                 3.97          33.62     2078  34.00765    -118.50015    2018-04-17T16:06:48Z    
4/17/2018    9:06:48    39.42         12.90        0.66      90.65                 3.91          33.62     2079  34.00765    -118.50015    2018-04-17T16:06:48Z    
4/17/2018    9:06:48    39.42         12.90        0.59      90.67                 3.97          33.61     2080  34.00765    -118.50015    2018-04-17T16:06:48Z    
4/17/2018    9:06:48    39.42         12.90        0.55      90.68                 4.02          33.61     2081  34.00765    -118.50015    2018-04-17T16:06:48Z    
4/17/2018    9:06:48    39.41         12.90        0.54      90.64                 4.00          33.61     2082  34.00765    -118.50015    2018-04-17T16:06:48Z    
4/17/2018    9:06:49    39.42         12.90        0.54      90.65                 3.98          33.61     2083  34.00765    -118.50015    2018-04-17T16:06:49Z    
4/17/2018    9:06:49    39.42         12.90        0.56      90.65                 3.96          33.61     2084  34.00765    -118.50015    2018-04-17T16:06:49Z    
4/17/2018    9:06:49    39.42         12.90        0.59      90.64                 4.04          33.61     2085  34.00765    -118.50015    2018-04-17T16:06:49Z    
4/17/2018    9:06:49    39.41         12.90        0.66      90.65                 4.00          33.61     2086  34.00765    -118.50015    2018-04-17T16:06:49Z    
4/17/2018    9:06:49    39.41         12.90        0.72      90.68                 4.05          33.61     2087  34.00765    -118.50015    2018-04-17T16:06:49Z    
4/17/2018    9:06:49    39.41         12.90        0.79      90.67                 4.11          33.61     2088  34.00765    -118.50015    2018-04-17T16:06:49Z    
4/17/2018    9:06:50    39.41         12.90        0.83      90.64                 4.11          33.61     2089  34.00765    -118.50015    2018-04-17T16:06:50Z    
4/17/2018    9:06:50    39.41         12.90        0.83      90.67                 4.05          33.61     2090  34.00765    -118.50015    2018-04-17T16:06:50Z    
4/17/2018    9:06:50    39.42         12.90        0.86      90.67                 3.98          33.61     2091  34.00765    -118.50015    2018-04-17T16:06:50Z    
4/17/2018    9:06:50    39.42         12.90        0.84      90.70                 3.99          33.61     2092  34.00765    -118.50015    2018-04-17T16:06:50Z    
4/17/2018    9:06:50    39.42         12.90        0.81      90.72                 3.99          33.61     2093  34.00765    -118.50015    2018-04-17T16:06:50Z    
4/17/2018    9:06:50    39.42         12.90        0.77      90.66                 4.06          33.61     2094  34.00765    -118.50015    2018-04-17T16:06:50Z    
4/17/2018    9:06:51    39.42         12.90        0.74      90.68                 4.07          33.61     2095  34.00765    -118.50015    2018-04-17T16:06:51Z    
4/17/2018    9:06:51    39.42         12.90        0.71      90.66                 4.09          33.61     2096  34.00765    -118.50015    2018-04-17T16:06:51Z    
4/17/2018    9:06:51    39.42         12.90        0.70      90.69                 4.24          33.61     2097  34.00765    -118.50015    2018-04-17T16:06:51Z    
4/17/2018    9:06:51    39.42         12.90        0.70      90.68                 4.24          33.61     2098  34.00765    -118.50015    2018-04-17T16:06:51Z    
4/17/2018    9:06:51    39.42         12.90        0.76      90.69                 4.17          33.61     2099  34.00765    -118.50015    2018-04-17T16:06:51Z    
4/17/2018    9:06:51    39.42         12.90        0.82      90.68                 4.07          33.61     2100  34.00765    -118.50015    2018-04-17T16:06:51Z    
4/17/2018    9:06:52    39.41         12.90        0.91      90.70                 4.03          33.61     2101  34.00765    -118.50015    2018-04-17T16:06:52Z    
4/17/2018    9:06:52    39.42         12.90        1.01      90.74                 4.09          33.61     2102  34.00765    -118.50015    2018-04-17T16:06:52Z    
4/17/2018    9:06:52    39.41         12.90        1.10      90.70                 4.14          33.61     2103  34.00765    -118.50015    2018-04-17T16:06:52Z    
4/17/2018    9:06:52    39.41         12.90        1.17      90.70                 4.26          33.60     2104  34.00765    -118.50015    2018-04-17T16:06:52Z    
4/17/2018    9:06:52    39.41         12.90        1.25      90.68                 4.22          33.61     2105  34.00765    -118.50015    2018-04-17T16:06:52Z    
4/17/2018    9:06:52    39.41         12.90        1.30      90.77                 4.18          33.61     2106  34.00765    -118.50015    2018-04-17T16:06:52Z    
4/17/2018    9:06:53    39.41         12.89        1.34      90.74                 4.34          33.61     2107  34.00765    -118.50015    2018-04-17T16:06:53Z    
4/17/2018    9:06:53    39.41         12.89        1.35      90.73                 4.46          33.62     2108  34.00765    -118.50015    2018-04-17T16:06:53Z    
4/17/2018    9:06:53    39.41         12.89        1.37      90.70                 4.42          33.62     2109  34.00765    -118.50015    2018-04-17T16:06:53Z    
4/17/2018    9:06:53    39.41         12.89        1.36      90.70                 4.47          33.62     2110  34.00765    -118.50015    2018-04-17T16:06:53Z    
4/17/2018    9:06:53    39.41         12.89        1.34      90.69                 4.63          33.61     2111  34.00765    -118.50015    2018-04-17T16:06:53Z    
4/17/2018    9:06:53    39.41         12.89        1.32      90.69                 4.71          33.61     2112  34.00765    -118.50015    2018-04-17T16:06:53Z    
4/17/2018    9:06:54    39.41         12.90        1.28      90.72                 4.63          33.61     2113  34.00765    -118.50015    2018-04-17T16:06:54Z    
4/17/2018    9:06:54    39.41         12.90        1.25      90.77                 4.46          33.62     2114  34.00765    -118.50015    2018-04-17T16:06:54Z    
4/17/2018    9:06:54    39.41         12.90        1.23      90.68                 4.33          33.61     2115  34.00765    -118.50015    2018-04-17T16:06:54Z    
4/17/2018    9:06:54    39.42         12.90        1.21      90.66                 4.19          33.62     2116  34.00765    -118.50015    2018-04-17T16:06:54Z    
4/17/2018    9:06:54    39.42         12.90        1.18      90.68                 4.14          33.62     2117  34.00765    -118.50015    2018-04-17T16:06:54Z    
4/17/2018    9:06:54    39.41         12.90        1.15      90.66                 4.11          33.62     2118  34.00765    -118.50015    2018-04-17T16:06:54Z    
4/17/2018    9:06:55    39.42         12.90        1.11      90.65                 4.12          33.62     2119  34.00765    -118.50015    2018-04-17T16:06:55Z    
4/17/2018    9:06:55    39.42         12.90        1.09      90.68                 4.10          33.62     2120  34.00765    -118.50015    2018-04-17T16:06:55Z    
4/17/2018    9:06:55    39.42         12.90        1.07      90.64                 4.03          33.62     2121  34.00765    -118.50015    2018-04-17T16:06:55Z    
4/17/2018    9:06:55    39.42         12.90        1.03      90.65                 4.05          33.62     2122  34.00765    -118.50015    2018-04-17T16:06:55Z    
4/17/2018    9:06:55    39.42         12.90        0.99      90.61                 4.06          33.62     2123  34.00765    -118.50015    2018-04-17T16:06:55Z    
4/17/2018    9:06:55    39.42         12.90        0.95      90.62                 4.02          33.62     2124  34.00765    -118.50015    2018-04-17T16:06:55Z    
4/17/2018    9:06:56    39.42         12.90        0.92      90.60                 3.91          33.62     2125  34.00765    -118.50015    2018-04-17T16:06:56Z    
4/17/2018    9:06:56    39.42         12.90        0.90      90.63                 3.82          33.62     2126  34.00765    -118.50015    2018-04-17T16:06:56Z    
4/17/2018    9:06:56    39.42         12.90        0.86      90.62                 3.86          33.62     2127  34.00765    -118.50015    2018-04-17T16:06:56Z    
4/17/2018    9:06:56    39.42         12.90        0.83      90.60                 3.97          33.62     2128  34.00765    -118.50015    2018-04-17T16:06:56Z    
4/17/2018    9:06:56    39.42         12.90        0.82      90.64                 3.97          33.62     2129  34.00765    -118.50015    2018-04-17T16:06:56Z    
4/17/2018    9:06:56    39.42         12.90        0.79      90.62                 3.97          33.62     2130  34.00765    -118.50015    2018-04-17T16:06:56Z    
4/17/2018    9:06:57    39.42         12.90        0.77      90.62                 3.95          33.61     2131  34.00765    -118.50015    2018-04-17T16:06:57Z    
4/17/2018    9:06:57    39.42         12.90        0.76      90.59                 3.99          33.62     2132  34.00765    -118.50015    2018-04-17T16:06:57Z    
4/17/2018    9:06:57    39.42         12.90        0.74      90.63                 4.05          33.62     2133  34.00765    -118.50015    2018-04-17T16:06:57Z    
4/17/2018    9:06:57    39.42         12.90        0.73      90.65                 4.07          33.62     2134  34.00765    -118.50015    2018-04-17T16:06:57Z    
4/17/2018    9:06:57    39.42         12.90        0.70      90.62                 4.05          33.62     2135  34.00765    -118.50015    2018-04-17T16:06:57Z    
4/17/2018    9:06:57    39.42         12.90        0.70      90.61                 4.02          33.61     2136  34.00765    -118.50015    2018-04-17T16:06:57Z    
4/17/2018    9:06:58    39.42         12.90        0.70      90.62                 4.01          33.62     2137  34.00765    -118.50015    2018-04-17T16:06:58Z    
4/17/2018    9:06:58    39.42         12.90        0.72      90.63                 3.97          33.62     2138  34.00765    -118.50015    2018-04-17T16:06:58Z    
4/17/2018    9:06:58    39.42         12.90        0.73      90.65                 3.90          33.62     2139  34.00765    -118.50015    2018-04-17T16:06:58Z    
4/17/2018    9:06:58    39.42         12.90        0.74      90.66                 3.89          33.61     2140  34.00765    -118.50015    2018-04-17T16:06:58Z    
4/17/2018    9:06:58    39.42         12.90        0.75      90.62                 3.92          33.62     2141  34.00765    -118.50015    2018-04-17T16:06:58Z    
4/17/2018    9:06:58    39.42         12.90        0.76      90.62                 3.91          33.62     2142  34.00765    -118.50015    2018-04-17T16:06:58Z    
4/17/2018    9:06:59    39.42         12.90        0.76      90.61                 3.93          33.62     2143  34.00765    -118.50015    2018-04-17T16:06:59Z    
4/17/2018    9:06:59    39.42         12.90        0.77      90.61                 3.94          33.62     2144  34.00765    -118.50015    2018-04-17T16:06:59Z    
4/17/2018    9:06:59    39.42         12.90        0.77      90.66                 3.91          33.62     2145  34.00765    -118.50015    2018-04-17T16:06:59Z    
4/17/2018    9:06:59    39.42         12.90        0.80      90.66                 3.84          33.61     2146  34.00765    -118.50015    2018-04-17T16:06:59Z    
4/17/2018    9:06:59    39.41         12.90        0.82      90.62                 3.79          33.61     2147  34.00765    -118.50015    2018-04-17T16:06:59Z    
4/17/2018    9:06:59    39.42         12.90        0.84      90.63                 3.84          33.62     2148  34.00765    -118.50015    2018-04-17T16:06:59Z    
4/17/2018    9:07:00    39.42         12.90        0.85      90.63                 3.85          33.62     2149  34.00765    -118.50015    2018-04-17T16:07:00Z    
4/17/2018    9:07:00    39.42         12.90        0.85      90.68                 3.95          33.62     2150  34.00765    -118.50015    2018-04-17T16:07:00Z    
4/17/2018    9:07:00    39.42         12.90        0.86      90.67                 3.98          33.62     2151  34.00765    -118.50015    2018-04-17T16:07:00Z    
4/17/2018    9:07:00    39.42         12.90        0.87      90.68                 3.97          33.62     2152  34.00765    -118.50015    2018-04-17T16:07:00Z    
4/17/2018    9:07:00    39.42         12.90        0.86      90.66                 3.90          33.62     2153  34.00765    -118.50015    2018-04-17T16:07:00Z    
4/17/2018    9:07:00    39.42         12.90        0.86      90.66                 3.91          33.62     2154  34.00765    -118.50015    2018-04-17T16:07:00Z    
4/17/2018    9:07:01    39.42         12.90        0.88      90.64                 3.95          33.62     2155  34.00765    -118.50015    2018-04-17T16:07:01Z    
4/17/2018    9:07:01    39.42         12.90        0.91      90.68                 3.94          33.62     2156  34.00765    -118.50015    2018-04-17T16:07:01Z    
4/17/2018    9:07:01    39.42         12.90        0.98      90.66                 3.92          33.62     2157  34.00765    -118.50015    2018-04-17T16:07:01Z    
4/17/2018    9:07:01    39.42         12.90        1.02      90.66                 3.92          33.62     2158  34.00765    -118.50015    2018-04-17T16:07:01Z    
4/17/2018    9:07:01    39.42         12.90        1.02      90.66                 3.92          33.62     2159  34.00765    -118.50015    2018-04-17T16:07:01Z    
4/17/2018    9:07:01    39.41         12.90        1.07      90.68                 3.95          33.60     2160  34.00765    -118.50015    2018-04-17T16:07:01Z    
4/17/2018    9:07:02    39.41         12.90        1.09      90.73                 3.93          33.60     2161  34.00765    -118.50015    2018-04-17T16:07:02Z    
4/17/2018    9:07:02    39.40         12.90        1.10      90.72                 3.90          33.60     2162  34.00765    -118.50015    2018-04-17T16:07:02Z    
4/17/2018    9:07:02    39.40         12.90        1.06      90.69                 3.88          33.60     2163  34.00765    -118.50015    2018-04-17T16:07:02Z    
4/17/2018    9:07:02    39.40         12.89        1.04      90.71                 3.87          33.61     2164  34.00765    -118.50015    2018-04-17T16:07:02Z    
4/17/2018    9:07:02    39.40         12.88        1.00      90.73                 3.78          33.61     2165  34.00765    -118.50015    2018-04-17T16:07:02Z    
4/17/2018    9:07:02    39.41         12.89        0.97      90.70                 3.76          33.62     2166  34.00765    -118.50015    2018-04-17T16:07:02Z    
4/17/2018    9:07:03    39.41         12.89        0.92      90.69                 3.76          33.62     2167  34.00765    -118.50015    2018-04-17T16:07:03Z    
4/17/2018    9:07:03    39.42         12.89        0.87      90.69                 3.75          33.62     2168  34.00765    -118.50015    2018-04-17T16:07:03Z    
4/17/2018    9:07:03    39.42         12.89        0.80      90.67                 3.73          33.62     2169  34.00765    -118.50015    2018-04-17T16:07:03Z    
4/17/2018    9:07:03    39.42         12.89        0.75      90.64                 3.78          33.62     2170  34.00765    -118.50015    2018-04-17T16:07:03Z    
4/17/2018    9:07:03    39.42         12.90        0.67      90.69                 3.96          33.62     2171  34.00765    -118.50015    2018-04-17T16:07:03Z    
4/17/2018    9:07:03    39.42         12.90        0.60      90.64                 3.98          33.62     2172  34.00765    -118.50015    2018-04-17T16:07:03Z    
4/17/2018    9:07:04    39.41         12.90        0.54      90.68                 4.22          33.62     2173  34.00765    -118.50015    2018-04-17T16:07:04Z    
4/17/2018    9:07:04    39.42         12.90        0.55      90.65                 4.35          33.62     2174  34.00765    -118.50015    2018-04-17T16:07:04Z    
4/17/2018    9:07:04    39.42         12.90        0.55      90.68                 4.28          33.62     2175  34.00765    -118.50015    2018-04-17T16:07:04Z    
4/17/2018    9:07:04    39.42         12.90        0.56      90.68                 4.16          33.62     2176  34.00765    -118.50015    2018-04-17T16:07:04Z    
4/17/2018    9:07:04    39.42         12.90        0.57      90.68                 4.13          33.62     2177  34.00765    -118.50015    2018-04-17T16:07:04Z    
4/17/2018    9:07:04    39.42         12.90        0.59      90.64                 4.13          33.61     2178  34.00765    -118.50015    2018-04-17T16:07:04Z    
4/17/2018    9:07:05    39.42         12.90        0.61      90.65                 4.11          33.62     2179  34.00765    -118.50015    2018-04-17T16:07:05Z    
4/17/2018    9:07:05    39.42         12.90        0.62      90.64                 4.14          33.61     2180  34.00765    -118.50015    2018-04-17T16:07:05Z    
4/17/2018    9:07:05    39.42         12.90        0.65      90.62                 4.06          33.62     2181  34.00765    -118.50015    2018-04-17T16:07:05Z    
4/17/2018    9:07:05    39.42         12.90        0.70      90.62                 4.00          33.62     2182  34.00765    -118.50015    2018-04-17T16:07:05Z    
4/17/2018    9:07:05    39.42         12.90        0.74      90.65                 3.93          33.62     2183  34.00765    -118.50015    2018-04-17T16:07:05Z    
4/17/2018    9:07:05    39.42         12.90        0.80      90.64                 3.90          33.62     2184  34.00765    -118.50015    2018-04-17T16:07:05Z    
4/17/2018    9:07:06    39.42         12.90        0.86      90.62                 3.87          33.62     2185  34.00765    -118.50015    2018-04-17T16:07:06Z    
4/17/2018    9:07:06    39.42         12.90        0.95      90.67                 3.86          33.61     2186  34.00765    -118.50015    2018-04-17T16:07:06Z    
4/17/2018    9:07:06    39.42         12.90        1.03      90.66                 3.89          33.62     2187  34.00765    -118.50015    2018-04-17T16:07:06Z    
4/17/2018    9:07:06    39.42         12.90        1.09      90.67                 3.92          33.61     2188  34.00765    -118.50015    2018-04-17T16:07:06Z    
4/17/2018    9:07:06    39.42         12.90        1.14      90.64                 4.02          33.61     2189  34.00765    -118.50015    2018-04-17T16:07:06Z    
4/17/2018    9:07:06    39.42         12.90        1.18      90.62                 4.04          33.61     2190  34.00765    -118.50015    2018-04-17T16:07:06Z    
4/17/2018    9:07:07    39.42         12.90        1.20      90.66                 4.16          33.62     2191  34.00765    -118.50015    2018-04-17T16:07:07Z    
4/17/2018    9:07:07    39.42         12.90        1.21      90.64                 4.24          33.61     2192  34.00765    -118.50015    2018-04-17T16:07:07Z    
4/17/2018    9:07:07    39.42         12.90        1.21      90.65                 4.21          33.62     2193  34.00765    -118.50015    2018-04-17T16:07:07Z    
4/17/2018    9:07:07    39.42         12.90        1.20      90.57                 4.19          33.62     2194  34.00765    -118.50015    2018-04-17T16:07:07Z    
4/17/2018    9:07:07    39.42         12.90        1.18      90.59                 4.08          33.61     2195  34.00765    -118.50015    2018-04-17T16:07:07Z    
4/17/2018    9:07:07    39.42         12.90        1.16      90.55                 3.94          33.61     2196  34.00765    -118.50015    2018-04-17T16:07:07Z    
4/17/2018    9:07:08    39.42         12.90        1.13      90.59                 3.90          33.61     2197  34.00765    -118.50015    2018-04-17T16:07:08Z    
4/17/2018    9:07:08    39.42         12.90        1.11      90.59                 4.00          33.62     2198  34.00765    -118.50015    2018-04-17T16:07:08Z    
4/17/2018    9:07:08    39.42         12.90        1.11      90.56                 4.00          33.62     2199  34.00765    -118.50015    2018-04-17T16:07:08Z    
4/17/2018    9:07:08    39.42         12.90        1.11      90.57                 3.97          33.62     2200  34.00765    -118.50015    2018-04-17T16:07:08Z    
4/17/2018    9:07:08    39.42         12.90        1.13      90.54                 4.00          33.62     2201  34.00765    -118.50015    2018-04-17T16:07:08Z    
4/17/2018    9:07:08    39.42         12.90        1.14      90.50                 4.02          33.62     2202  34.00765    -118.50015    2018-04-17T16:07:08Z    
4/17/2018    9:07:09    39.42         12.90        1.16      90.53                 4.06          33.62     2203  34.00765    -118.50015    2018-04-17T16:07:09Z    
4/17/2018    9:07:09    39.42         12.90        1.14      90.52                 4.02          33.62     2204  34.00765    -118.50015    2018-04-17T16:07:09Z    
4/17/2018    9:07:09    39.42         12.90        1.14      90.55                 3.92          33.62     2205  34.00765    -118.50015    2018-04-17T16:07:09Z    
4/17/2018    9:07:09    39.42         12.90        1.11      90.51                 3.84          33.61     2206  34.00765    -118.50015    2018-04-17T16:07:09Z    
4/17/2018    9:07:09    39.42         12.90        1.09      90.55                 3.79          33.62     2207  34.00765    -118.50015    2018-04-17T16:07:09Z    
4/17/2018    9:07:09    39.42         12.90        1.05      90.51                 3.76          33.61     2208  34.00765    -118.50015    2018-04-17T16:07:09Z    
4/17/2018    9:07:10    39.42         12.90        1.03      90.46                 3.74          33.61     2209  34.00765    -118.50015    2018-04-17T16:07:10Z    
4/17/2018    9:07:10    39.42         12.90        0.97      90.47                 3.78          33.61     2210  34.00765    -118.50015    2018-04-17T16:07:10Z    
4/17/2018    9:07:10    39.42         12.90        0.94      90.41                 4.06          33.62     2211  34.00765    -118.50015    2018-04-17T16:07:10Z    
4/17/2018    9:07:10    39.42         12.90        0.89      90.45                 4.13          33.62     2212  34.00765    -118.50015    2018-04-17T16:07:10Z    
4/17/2018    9:07:10    39.42         12.90        0.84      90.44                 4.09          33.62     2213  34.00765    -118.50015    2018-04-17T16:07:10Z    
4/17/2018    9:07:10    39.42         12.90        0.81      90.49                 4.07          33.62     2214  34.00765    -118.50015    2018-04-17T16:07:10Z    
4/17/2018    9:07:11    39.42         12.90        0.78      90.45                 4.19          33.62     2215  34.00765    -118.50015    2018-04-17T16:07:11Z    
4/17/2018    9:07:11    39.42         12.90        0.77      90.45                 4.18          33.62     2216  34.00765    -118.50015    2018-04-17T16:07:11Z    
4/17/2018    9:07:11    39.42         12.90        0.77      90.47                 4.37          33.61     2217  34.00765    -118.50015    2018-04-17T16:07:11Z    
4/17/2018    9:07:11    39.42         12.90        0.78      90.40                 4.33          33.62     2218  34.00765    -118.50015    2018-04-17T16:07:11Z    
4/17/2018    9:07:11    39.42         12.90        0.78      90.43                 4.28          33.61     2219  34.00765    -118.50015    2018-04-17T16:07:11Z    
4/17/2018    9:07:11    39.42         12.90        0.82      90.47                 4.25          33.62     2220  34.00765    -118.50015    2018-04-17T16:07:11Z    
4/17/2018    9:07:12    39.42         12.90        0.85      90.48                 4.20          33.62     2221  34.00765    -118.50015    2018-04-17T16:07:12Z    
4/17/2018    9:07:12    39.42         12.90        0.90      90.47                 4.17          33.62     2222  34.00765    -118.50015    2018-04-17T16:07:12Z    
4/17/2018    9:07:12    39.41         12.90        0.96      90.47                 4.17          33.61     2223  34.00765    -118.50015    2018-04-17T16:07:12Z    
4/17/2018    9:07:12    39.41         12.90        1.01      90.46                 4.17          33.61     2224  34.00765    -118.50015    2018-04-17T16:07:12Z    
4/17/2018    9:07:12    39.41         12.90        1.06      90.49                 4.06          33.61     2225  34.00765    -118.50015    2018-04-17T16:07:12Z    
4/17/2018    9:07:12    39.41         12.90        1.08      90.49                 3.98          33.61     2226  34.00765    -118.50015    2018-04-17T16:07:12Z    
4/17/2018    9:07:13    39.41         12.90        1.11      90.48                 4.08          33.62     2227  34.00765    -118.50015    2018-04-17T16:07:13Z    
4/17/2018    9:07:13    39.41         12.90        1.13      90.51                 4.12          33.62     2228  34.00765    -118.50015    2018-04-17T16:07:13Z    
4/17/2018    9:07:13    39.41         12.90        1.15      90.48                 4.10          33.62     2229  34.00765    -118.50015    2018-04-17T16:07:13Z    
4/17/2018    9:07:13    39.41         12.90        1.14      90.56                 4.09          33.62     2230  34.00765    -118.50015    2018-04-17T16:07:13Z    
4/17/2018    9:07:13    39.42         12.90        1.13      90.56                 4.09          33.62     2231  34.00765    -118.50015    2018-04-17T16:07:13Z    
4/17/2018    9:07:13    39.42         12.90        1.12      90.52                 4.24          33.62     2232  34.00765    -118.50015    2018-04-17T16:07:13Z    
4/17/2018    9:07:14    39.42         12.90        1.06      90.52                 4.22          33.62     2233  34.00765    -118.50015    2018-04-17T16:07:14Z    
4/17/2018    9:07:14    39.42         12.90        1.04      90.51                 4.28          33.62     2234  34.00765    -118.50015    2018-04-17T16:07:14Z    
4/17/2018    9:07:14    39.41         12.90        1.00      90.51                 4.29          33.61     2235  34.00765    -118.50015    2018-04-17T16:07:14Z    
4/17/2018    9:07:14    39.42         12.90        0.97      90.58                 4.16          33.62     2236  34.00765    -118.50015    2018-04-17T16:07:14Z    
4/17/2018    9:07:14    39.42         12.90        0.94      90.54                 4.09          33.62     2237  34.00765    -118.50015    2018-04-17T16:07:14Z    
4/17/2018    9:07:14    39.42         12.90        0.92      90.55                 3.99          33.61     2238  34.00765    -118.50015    2018-04-17T16:07:14Z    
4/17/2018    9:07:15    39.42         12.90        0.92      90.57                 3.91          33.62     2239  34.00765    -118.50015    2018-04-17T16:07:15Z    
4/17/2018    9:07:15    39.42         12.90        0.93      90.60                 3.94          33.61     2240  34.00765    -118.50015    2018-04-17T16:07:15Z    
4/17/2018    9:07:15    39.42         12.90        0.95      90.59                 4.01          33.62     2241  34.00765    -118.50015    2018-04-17T16:07:15Z    
4/17/2018    9:07:15    39.42         12.90        0.97      90.55                 4.04          33.62     2242  34.00765    -118.50015    2018-04-17T16:07:15Z    
4/17/2018    9:07:15    39.42         12.90        0.97      90.57                 4.17          33.62     2243  34.00765    -118.50015    2018-04-17T16:07:15Z    
4/17/2018    9:07:15    39.42         12.90        0.97      90.54                 4.18          33.62     2244  34.00765    -118.50015    2018-04-17T16:07:15Z    
4/17/2018    9:07:16    39.42         12.90        0.97      90.55                 4.11          33.62     2245  34.00765    -118.50015    2018-04-17T16:07:16Z    
4/17/2018    9:07:16    39.42         12.90        0.96      90.55                 4.04          33.62     2246  34.00765    -118.50015    2018-04-17T16:07:16Z    
4/17/2018    9:07:16    39.42         12.90        0.94      90.57                 3.93          33.62     2247  34.00765    -118.50015    2018-04-17T16:07:16Z    
4/17/2018    9:07:16    39.42         12.90        0.91      90.59                 3.90          33.62     2248  34.00765    -118.50015    2018-04-17T16:07:16Z    
4/17/2018    9:07:16    39.42         12.90        0.90      90.59                 4.12          33.61     2249  34.00765    -118.50015    2018-04-17T16:07:16Z    
4/17/2018    9:07:16    39.42         12.90        0.88      90.59                 4.16          33.62     2250  34.00765    -118.50015    2018-04-17T16:07:16Z    
4/17/2018    9:07:17    39.42         12.90        0.85      90.58                 5.10          33.62     2251  34.00765    -118.50015    2018-04-17T16:07:17Z    
4/17/2018    9:07:17    39.42         12.90        0.83      90.62                 5.32          33.61     2252  34.00765    -118.50015    2018-04-17T16:07:17Z    
4/17/2018    9:07:17    39.42         12.90        0.82      90.59                 5.64          33.62     2253  34.00765    -118.50015    2018-04-17T16:07:17Z    
4/17/2018    9:07:17    39.42         12.90        0.79      90.58                 5.98          33.61     2254  34.00765    -118.50015    2018-04-17T16:07:17Z    
4/17/2018    9:07:17    39.42         12.90        0.76      90.60                 5.69          33.62     2255  34.00765    -118.50015    2018-04-17T16:07:17Z    
4/17/2018    9:07:17    39.42         12.90        0.72      90.59                 5.37          33.62     2256  34.00765    -118.50015    2018-04-17T16:07:17Z    
4/17/2018    9:07:18    39.42         12.90        0.67      90.63                 5.06          33.62     2257  34.00765    -118.50015    2018-04-17T16:07:18Z    
4/17/2018    9:07:18    39.42         12.90        0.60      90.59                 4.78          33.62     2258  34.00765    -118.50015    2018-04-17T16:07:18Z    
4/17/2018    9:07:18    39.42         12.90        0.53      90.54                 4.58          33.61     2259  34.00765    -118.50015    2018-04-17T16:07:18Z    
4/17/2018    9:07:18    39.42         12.90        0.48      90.63                 4.40          33.62     2260  34.00765    -118.50015    2018-04-17T16:07:18Z    
4/17/2018    9:07:18    39.41         12.90        0.43      90.63                 4.24          33.61     2261  34.00765    -118.50015    2018-04-17T16:07:18Z    
4/17/2018    9:07:18    39.42         12.90        0.41      90.60                 4.10          33.61     2262  34.00765    -118.50015    2018-04-17T16:07:18Z    
4/17/2018    9:07:19    39.42         12.90        0.40      90.65                 4.02          33.61     2263  34.00765    -118.50015    2018-04-17T16:07:19Z    
4/17/2018    9:07:19    39.42         12.90        0.43      90.65                 3.97          33.61     2264  34.00765    -118.50015    2018-04-17T16:07:19Z    
4/17/2018    9:07:19    39.42         12.90        0.47      90.61                 3.94          33.61     2265  34.00765    -118.50015    2018-04-17T16:07:19Z    
4/17/2018    9:07:19    39.42         12.90        0.53      90.62                 3.94          33.62     2266  34.00765    -118.50015    2018-04-17T16:07:19Z    
4/17/2018    9:07:19    39.42         12.90        0.59      90.65                 3.89          33.61     2267  34.00765    -118.50015    2018-04-17T16:07:19Z    
4/17/2018    9:07:19    39.42         12.90        0.66      90.64                 3.84          33.61     2268  34.00765    -118.50015    2018-04-17T16:07:19Z    
4/17/2018    9:07:20    39.41         12.90        0.73      90.63                 3.82          33.61     2269  34.00765    -118.50015    2018-04-17T16:07:20Z    
4/17/2018    9:07:20    39.42         12.90        0.80      90.63                 3.79          33.61     2270  34.00765    -118.50015    2018-04-17T16:07:20Z    
4/17/2018    9:07:20    39.42         12.90        0.86      90.63                 3.85          33.61     2271  34.00765    -118.50015    2018-04-17T16:07:20Z    
4/17/2018    9:07:20    39.42         12.90        0.93      90.66                 3.97          33.62     2272  34.00765    -118.50015    2018-04-17T16:07:20Z    
4/17/2018    9:07:20    39.42         12.90        0.96      90.59                 3.95          33.62     2273  34.00765    -118.50015    2018-04-17T16:07:20Z    
4/17/2018    9:07:20    39.42         12.90        1.00      90.61                 3.93          33.62     2274  34.00765    -118.50015    2018-04-17T16:07:20Z    
4/17/2018    9:07:21    39.42         12.90        1.01      90.64                 3.93          33.62     2275  34.00765    -118.50015    2018-04-17T16:07:21Z    
4/17/2018    9:07:21    39.42         12.90        1.01      90.62                 3.98          33.62     2276  34.00765    -118.50015    2018-04-17T16:07:21Z    
4/17/2018    9:07:21    39.42         12.90        1.02      90.64                 3.99          33.62     2277  34.00765    -118.50015    2018-04-17T16:07:21Z    
4/17/2018    9:07:21    39.42         12.90        1.01      90.66                 3.96          33.62     2278  34.00765    -118.50015    2018-04-17T16:07:21Z    
4/17/2018    9:07:21    39.42         12.90        1.00      90.63                 3.93          33.61     2279  34.00765    -118.50015    2018-04-17T16:07:21Z    
4/17/2018    9:07:21    39.42         12.90        0.97      90.61                 3.93          33.62     2280  34.00765    -118.50015    2018-04-17T16:07:21Z    
4/17/2018    9:07:22    39.42         12.90        0.98      90.64                 3.83          33.61     2281  34.00765    -118.50015    2018-04-17T16:07:22Z    
4/17/2018    9:07:22    39.42         12.90        0.96      90.64                 4.06          33.62     2282  34.00765    -118.50015    2018-04-17T16:07:22Z    
4/17/2018    9:07:22    39.42         12.90        0.96      90.63                 4.38          33.62     2283  34.00765    -118.50015    2018-04-17T16:07:22Z    
4/17/2018    9:07:22    39.42         12.90        0.94      90.63                 4.38          33.62     2284  34.00765    -118.50015    2018-04-17T16:07:22Z    
4/17/2018    9:07:22    39.42         12.90        0.93      90.62                 4.42          33.62     2285  34.00765    -118.50015    2018-04-17T16:07:22Z    
4/17/2018    9:07:22    39.42         12.90        0.93      90.64                 4.42          33.62     2286  34.00765    -118.50015    2018-04-17T16:07:22Z    
4/17/2018    9:07:23    39.42         12.90        0.90      90.64                 4.37          33.62     2287  34.00765    -118.50015    2018-04-17T16:07:23Z    
4/17/2018    9:07:23    39.42         12.90        0.87      90.64                 4.22          33.62     2288  34.00765    -118.50015    2018-04-17T16:07:23Z    
4/17/2018    9:07:23    39.42         12.90        0.85      90.67                 4.24          33.62     2289  34.00765    -118.50015    2018-04-17T16:07:23Z    
4/17/2018    9:07:23    39.42         12.90        0.84      90.69                 4.26          33.62     2290  34.00765    -118.50015    2018-04-17T16:07:23Z    
4/17/2018    9:07:23    39.42         12.90        0.82      90.66                 4.45          33.62     2291  34.00765    -118.50015    2018-04-17T16:07:23Z    
4/17/2018    9:07:23    39.42         12.90        0.80      90.68                 4.58          33.62     2292  34.00765    -118.50015    2018-04-17T16:07:23Z    
4/17/2018    9:07:24    39.42         12.90        0.81      90.66                 4.69          33.62     2293  34.00765    -118.50015    2018-04-17T16:07:24Z    
4/17/2018    9:07:24    39.42         12.90        0.81      90.67                 4.83          33.62     2294  34.00765    -118.50015    2018-04-17T16:07:24Z    
4/17/2018    9:07:24    39.42         12.90        0.83      90.66                 4.97          33.62     2295  34.00765    -118.50015    2018-04-17T16:07:24Z    
4/17/2018    9:07:24    39.42         12.90        0.85      90.67                 5.02          33.62     2296  34.00765    -118.50015    2018-04-17T16:07:24Z    
4/17/2018    9:07:24    39.42         12.90        0.86      90.67                 4.77          33.62     2297  34.00765    -118.50015    2018-04-17T16:07:24Z    
4/17/2018    9:07:24    39.42         12.91        0.88      90.65                 4.50          33.61     2298  34.00765    -118.50015    2018-04-17T16:07:24Z    
4/17/2018    9:07:25    39.42         12.91        0.89      90.65                 4.36          33.61     2299  34.00765    -118.50015    2018-04-17T16:07:25Z    
4/17/2018    9:07:25    39.42         12.91        0.91      90.74                 4.18          33.61     2300  34.00765    -118.50015    2018-04-17T16:07:25Z    
4/17/2018    9:07:25    39.42         12.90        0.94      90.71                 4.15          33.61     2301  34.00765    -118.50015    2018-04-17T16:07:25Z    
4/17/2018    9:07:25    39.42         12.90        0.97      90.68                 4.31          33.62     2302  34.00765    -118.50015    2018-04-17T16:07:25Z    
4/17/2018    9:07:25    39.42         12.90        1.00      90.68                 4.32          33.62     2303  34.00765    -118.50015    2018-04-17T16:07:25Z    
4/17/2018    9:07:25    39.42         12.90        1.03      90.72                 4.36          33.62     2304  34.00765    -118.50015    2018-04-17T16:07:25Z    
4/17/2018    9:07:26    39.42         12.90        1.04      90.71                 4.27          33.61     2305  34.00765    -118.50015    2018-04-17T16:07:26Z    
4/17/2018    9:07:26    39.42         12.90        1.07      90.69                 4.20          33.61     2306  34.00765    -118.50015    2018-04-17T16:07:26Z    
4/17/2018    9:07:26    39.42         12.90        1.07      90.71                 4.15          33.61     2307  34.00765    -118.50015    2018-04-17T16:07:26Z    
4/17/2018    9:07:26    39.42         12.90        1.08      90.69                 4.10          33.61     2308  34.00765    -118.50015    2018-04-17T16:07:26Z    
4/17/2018    9:07:26    39.42         12.90        1.08      90.71                 4.11          33.61     2309  34.00765    -118.50015    2018-04-17T16:07:26Z    
4/17/2018    9:07:26    39.42         12.90        1.08      90.69                 4.05          33.62     2310  34.00765    -118.50015    2018-04-17T16:07:26Z    
4/17/2018    9:07:27    39.42         12.90        1.08      90.70                 4.00          33.61     2311  34.00765    -118.50015    2018-04-17T16:07:27Z    
4/17/2018    9:07:27    39.42         12.90        1.06      90.74                 3.96          33.62     2312  34.00765    -118.50015    2018-04-17T16:07:27Z    
4/17/2018    9:07:27    39.42         12.90        1.06      90.72                 3.92          33.62     2313  34.00765    -118.50015    2018-04-17T16:07:27Z    
4/17/2018    9:07:27    39.42         12.90        1.08      90.69                 3.92          33.61     2314  34.00765    -118.50015    2018-04-17T16:07:27Z    
4/17/2018    9:07:27    39.42         12.90        1.08      90.69                 3.86          33.61     2315  34.00765    -118.50015    2018-04-17T16:07:27Z    
4/17/2018    9:07:27    39.42         12.90        1.09      90.70                 3.88          33.61     2316  34.00765    -118.50015    2018-04-17T16:07:27Z    
4/17/2018    9:07:28    39.42         12.90        1.13      90.71                 3.95          33.61     2317  34.00765    -118.50015    2018-04-17T16:07:28Z    
4/17/2018    9:07:28    39.42         12.90        1.13      90.72                 3.96          33.61     2318  34.00765    -118.50015    2018-04-17T16:07:28Z    
4/17/2018    9:07:28    39.42         12.90        1.13      90.68                 3.95          33.61     2319  34.00765    -118.50015    2018-04-17T16:07:28Z    
4/17/2018    9:07:28    39.42         12.90        1.13      90.68                 4.00          33.61     2320  34.00765    -118.50015    2018-04-17T16:07:28Z    
4/17/2018    9:07:28    39.42         12.90        1.11      90.66                 4.03          33.61     2321  34.00765    -118.50015    2018-04-17T16:07:28Z    
4/17/2018    9:07:28    39.41         12.90        1.10      90.66                 4.07          33.60     2322  34.00765    -118.50015    2018-04-17T16:07:28Z    
4/17/2018    9:07:29    39.41         12.90        1.05      90.63                 4.28          33.60     2323  34.00765    -118.50015    2018-04-17T16:07:29Z    
4/17/2018    9:07:29    39.41         12.90        1.03      90.61                 4.25          33.60     2324  34.00765    -118.50015    2018-04-17T16:07:29Z    
4/17/2018    9:07:29    39.41         12.90        1.02      90.57                 4.19          33.61     2325  34.00765    -118.50015    2018-04-17T16:07:29Z    
4/17/2018    9:07:29    39.41         12.90        1.02      90.51                 4.10          33.61     2326  34.00765    -118.50015    2018-04-17T16:07:29Z    
4/17/2018    9:07:29    39.41         12.90        1.02      90.50                 4.10          33.61     2327  34.00765    -118.50015    2018-04-17T16:07:29Z    
4/17/2018    9:07:29    39.41         12.90        1.02      90.45                 4.13          33.61     2328  34.00765    -118.50015    2018-04-17T16:07:29Z    
4/17/2018    9:07:30    39.41         12.89        1.03      90.47                 4.20          33.61     2329  34.00765    -118.50015    2018-04-17T16:07:30Z    
4/17/2018    9:07:30    39.41         12.89        1.05      90.43                 4.30          33.62     2330  34.00765    -118.50015    2018-04-17T16:07:30Z    
4/17/2018    9:07:30    39.41         12.89        1.07      90.46                 4.39          33.62     2331  34.00765    -118.50015    2018-04-17T16:07:30Z    
4/17/2018    9:07:30    39.41         12.88        1.06      90.45                 4.44          33.62     2332  34.00765    -118.50015    2018-04-17T16:07:30Z    
4/17/2018    9:07:30    39.41         12.89        1.07      90.41                 4.42          33.62     2333  34.00765    -118.50015    2018-04-17T16:07:30Z    
4/17/2018    9:07:30    39.41         12.89        1.06      90.38                 4.39          33.61     2334  34.00765    -118.50015    2018-04-17T16:07:30Z    
4/17/2018    9:07:31    39.41         12.89        1.05      90.38                 4.47          33.62     2335  34.00765    -118.50015    2018-04-17T16:07:31Z    
4/17/2018    9:07:31    39.41         12.89        1.03      90.38                 4.59          33.62     2336  34.00765    -118.50015    2018-04-17T16:07:31Z    
4/17/2018    9:07:31    39.41         12.89        1.00      90.36                 4.58          33.61     2337  34.00765    -118.50015    2018-04-17T16:07:31Z    
4/17/2018    9:07:31    39.41         12.89        0.97      90.35                 4.50          33.61     2338  34.00765    -118.50015    2018-04-17T16:07:31Z    
4/17/2018    9:07:31    39.40         12.89        0.94      90.30                 4.40          33.61     2339  34.00765    -118.50015    2018-04-17T16:07:31Z    
4/17/2018    9:07:31    39.40         12.89        0.89      90.32                 4.23          33.61     2340  34.00765    -118.50015    2018-04-17T16:07:31Z    
4/17/2018    9:07:32    39.39         12.89        0.85      90.35                 4.11          33.60     2341  34.00765    -118.50015    2018-04-17T16:07:32Z    
4/17/2018    9:07:32    39.38         12.89        0.80      90.32                 4.05          33.59     2342  34.00765    -118.50015    2018-04-17T16:07:32Z    
4/17/2018    9:07:32    39.39         12.89        0.75      90.33                 3.96          33.60     2343  34.00765    -118.50015    2018-04-17T16:07:32Z    
4/17/2018    9:07:32    39.39         12.88        0.73      90.33                 3.99          33.61     2344  34.00765    -118.50015    2018-04-17T16:07:32Z    
4/17/2018    9:07:32    39.39         12.88        0.70      90.31                 4.22          33.61     2345  34.00765    -118.50015    2018-04-17T16:07:32Z    
4/17/2018    9:07:32    39.40         12.88        0.68      90.31                 4.38          33.61     2346  34.00765    -118.50015    2018-04-17T16:07:32Z    
4/17/2018    9:07:33    39.40         12.89        0.69      90.31                 4.41          33.61     2347  34.00765    -118.50015    2018-04-17T16:07:33Z    
4/17/2018    9:07:33    39.40         12.89        0.69      90.31                 4.33          33.61     2348  34.00765    -118.50015    2018-04-17T16:07:33Z    
4/17/2018    9:07:33    39.41         12.89        0.69      90.34                 4.21          33.61     2349  34.00765    -118.50015    2018-04-17T16:07:33Z    
4/17/2018    9:07:33    39.41         12.89        0.70      90.31                 4.32          33.61     2350  34.00765    -118.50015    2018-04-17T16:07:33Z    
4/17/2018    9:07:33    39.41         12.89        0.71      90.33                 4.40          33.61     2351  34.00765    -118.50015    2018-04-17T16:07:33Z    
4/17/2018    9:07:33    39.40         12.90        0.74      90.30                 4.30          33.61     2352  34.00765    -118.50015    2018-04-17T16:07:33Z    
4/17/2018    9:07:34    39.41         12.90        0.75      90.35                 4.15          33.61     2353  34.00765    -118.50015    2018-04-17T16:07:34Z    
4/17/2018    9:07:34    39.41         12.90        0.76      90.37                 4.07          33.61     2354  34.00765    -118.50015    2018-04-17T16:07:34Z    
4/17/2018    9:07:34    39.41         12.90        0.75      90.35                 3.98          33.61     2355  34.00765    -118.50015    2018-04-17T16:07:34Z    
4/17/2018    9:07:34    39.41         12.90        0.78      90.40                 3.88          33.61     2356  34.00765    -118.50015    2018-04-17T16:07:34Z    
4/17/2018    9:07:34    39.41         12.90        0.77      90.40                 3.88          33.61     2357  34.00765    -118.50015    2018-04-17T16:07:34Z    
4/17/2018    9:07:34    39.42         12.90        0.79      90.44                 3.82          33.62     2358  34.00765    -118.50015    2018-04-17T16:07:34Z    
4/17/2018    9:07:35    39.42         12.90        0.80      90.41                 3.80          33.62     2359  34.00765    -118.50015    2018-04-17T16:07:35Z    
4/17/2018    9:07:35    39.41         12.90        0.83      90.43                 3.79          33.62     2360  34.00765    -118.50015    2018-04-17T16:07:35Z    
4/17/2018    9:07:35    39.41         12.90        0.85      90.42                 3.81          33.61     2361  34.00765    -118.50015    2018-04-17T16:07:35Z    
4/17/2018    9:07:35    39.41         12.90        0.86      90.45                 3.82          33.61     2362  34.00765    -118.50015    2018-04-17T16:07:35Z    
4/17/2018    9:07:35    39.41         12.90        0.87      90.46                 3.79          33.61     2363  34.00765    -118.50015    2018-04-17T16:07:35Z    
4/17/2018    9:07:35    39.41         12.90        0.89      90.47                 3.73          33.61     2364  34.00765    -118.50015    2018-04-17T16:07:35Z    
4/17/2018    9:07:36    39.41         12.90        0.88      90.46                 3.69          33.61     2365  34.00765    -118.50015    2018-04-17T16:07:36Z    
4/17/2018    9:07:36    39.41         12.90        0.87      90.48                 3.74          33.61     2366  34.00765    -118.50015    2018-04-17T16:07:36Z    
4/17/2018    9:07:36    39.41         12.90        0.86      90.47                 3.80          33.61     2367  34.00765    -118.50015    2018-04-17T16:07:36Z    
4/17/2018    9:07:36    39.41         12.90        0.84      90.49                 4.17          33.61     2368  34.00765    -118.50015    2018-04-17T16:07:36Z    
4/17/2018    9:07:36    39.41         12.90        0.82      90.54                 4.48          33.61     2369  34.00765    -118.50015    2018-04-17T16:07:36Z    
4/17/2018    9:07:36    39.41         12.90        0.79      90.55                 4.62          33.61     2370  34.00765    -118.50015    2018-04-17T16:07:36Z    
4/17/2018    9:07:37    39.41         12.90        0.78      90.53                 4.57          33.61     2371  34.00765    -118.50015    2018-04-17T16:07:37Z    
4/17/2018    9:07:37    39.41         12.90        0.77      90.50                 4.43          33.62     2372  34.00765    -118.50015    2018-04-17T16:07:37Z    
4/17/2018    9:07:37    39.41         12.90        0.77      90.50                 4.33          33.62     2373  34.00765    -118.50015    2018-04-17T16:07:37Z    
4/17/2018    9:07:37    39.41         12.90        0.77      90.53                 4.45          33.62     2374  34.00765    -118.50015    2018-04-17T16:07:37Z    
4/17/2018    9:07:37    39.41         12.90        0.77      90.50                 4.51          33.61     2375  34.00765    -118.50015    2018-04-17T16:07:37Z    
4/17/2018    9:07:37    39.41         12.90        0.76      90.51                 4.51          33.61     2376  34.00765    -118.50015    2018-04-17T16:07:37Z    
4/17/2018    9:07:38    39.41         12.90        0.75      90.50                 4.49          33.61     2377  34.00765    -118.50015    2018-04-17T16:07:38Z    
4/17/2018    9:07:38    39.41         12.89        0.74      90.48                 4.39          33.61     2378  34.00765    -118.50015    2018-04-17T16:07:38Z    
4/17/2018    9:07:38    39.40         12.89        0.72      90.47                 4.28          33.61     2379  34.00765    -118.50015    2018-04-17T16:07:38Z    
4/17/2018    9:07:38    39.40         12.89        0.72      90.46                 4.31          33.61     2380  34.00765    -118.50015    2018-04-17T16:07:38Z    
4/17/2018    9:07:38    39.40         12.89        0.71      90.47                 4.31          33.61     2381  34.00765    -118.50015    2018-04-17T16:07:38Z    
4/17/2018    9:07:38    39.40         12.89        0.70      90.44                 4.30          33.61     2382  34.00765    -118.50015    2018-04-17T16:07:38Z    
4/17/2018    9:07:39    39.40         12.89        0.73      90.37                 4.28          33.61     2383  34.00765    -118.50015    2018-04-17T16:07:39Z    
4/17/2018    9:07:39    39.39         12.89        0.75      90.39                 4.41          33.60     2384  34.00765    -118.50015    2018-04-17T16:07:39Z    
4/17/2018    9:07:39    39.39         12.88        0.77      90.30                 4.49          33.61     2385  34.00765    -118.50015    2018-04-17T16:07:39Z    
4/17/2018    9:07:39    39.39         12.88        0.82      90.33                 4.43          33.61     2386  34.00765    -118.50015    2018-04-17T16:07:39Z    
4/17/2018    9:07:39    39.38         12.87        0.85      90.33                 4.60          33.60     2387  34.00765    -118.50015    2018-04-17T16:07:39Z    
4/17/2018    9:07:39    39.35         12.88        0.88      90.28                 4.72          33.58     2388  34.00765    -118.50015    2018-04-17T16:07:39Z    
4/17/2018    9:07:40    39.35         12.88        0.89      90.26                 4.64          33.57     2389  34.00765    -118.50015    2018-04-17T16:07:40Z    
4/17/2018    9:07:40    39.35         12.87        0.89      90.22                 4.56          33.58     2390  34.00765    -118.50015    2018-04-17T16:07:40Z    
4/17/2018    9:07:40    39.36         12.87        0.90      90.18                 4.56          33.59     2391  34.00765    -118.50015    2018-04-17T16:07:40Z    
4/17/2018    9:07:40    39.37         12.85        0.89      90.16                 4.67          33.62     2392  34.00765    -118.50015    2018-04-17T16:07:40Z    
4/17/2018    9:07:40    39.37         12.83        0.87      90.12                 4.65          33.63     2393  34.00765    -118.50015    2018-04-17T16:07:40Z    
4/17/2018    9:07:40    39.37         12.83        0.86      90.09                 4.68          33.64     2394  34.00765    -118.50015    2018-04-17T16:07:40Z    
4/17/2018    9:07:41    39.37         12.82        0.86      90.00                 4.67          33.63     2395  34.00765    -118.50015    2018-04-17T16:07:41Z    
4/17/2018    9:07:41    39.36         12.83        0.88      89.81                 4.62          33.62     2396  34.00765    -118.50015    2018-04-17T16:07:41Z    
4/17/2018    9:07:41    39.35         12.84        0.93      89.73                 4.54          33.61     2397  34.00765    -118.50015    2018-04-17T16:07:41Z    
4/17/2018    9:07:41    39.35         12.84        1.00      89.62                 4.56          33.60     2398  34.00765    -118.50015    2018-04-17T16:07:41Z    
4/17/2018    9:07:41    39.36         12.83        1.06      89.61                 4.48          33.63     2399  34.00765    -118.50015    2018-04-17T16:07:41Z    
4/17/2018    9:07:41    39.37         12.84        1.12      89.47                 4.32          33.63     2400  34.00765    -118.50015    2018-04-17T16:07:41Z    
4/17/2018    9:07:42    39.35         12.84        1.22      89.44                 4.21          33.61     2401  34.00765    -118.50015    2018-04-17T16:07:42Z    
4/17/2018    9:07:42    39.37         12.85        1.27      89.34                 4.08          33.62     2402  34.00765    -118.50015    2018-04-17T16:07:42Z    
4/17/2018    9:07:42    39.39         12.85        1.33      89.23                 4.08          33.63     2403  34.00765    -118.50015    2018-04-17T16:07:42Z    
4/17/2018    9:07:42    39.39         12.85        1.36      89.12                 4.17          33.63     2404  34.00765    -118.50015    2018-04-17T16:07:42Z    
4/17/2018    9:07:42    39.39         12.85        1.39      89.14                 4.36          33.63     2405  34.00765    -118.50015    2018-04-17T16:07:42Z    
4/17/2018    9:07:42    39.38         12.86        1.40      89.07                 4.56          33.62     2406  34.00765    -118.50015    2018-04-17T16:07:42Z    
4/17/2018    9:07:43    39.37         12.85        1.37      89.00                 4.72          33.62     2407  34.00765    -118.50015    2018-04-17T16:07:43Z    
4/17/2018    9:07:43    39.37         12.85        1.34      88.98                 4.95          33.62     2408  34.00765    -118.50015    2018-04-17T16:07:43Z    
4/17/2018    9:07:43    39.37         12.85        1.30      88.91                 4.95          33.61     2409  34.00765    -118.50015    2018-04-17T16:07:43Z    
4/17/2018    9:07:43    39.37         12.85        1.24      88.90                 4.86          33.62     2410  34.00765    -118.50015    2018-04-17T16:07:43Z    
4/17/2018    9:07:43    39.37         12.85        1.20      88.92                 4.81          33.62     2411  34.00765    -118.50015    2018-04-17T16:07:43Z    
4/17/2018    9:07:43    39.37         12.85        1.17      88.90                 4.60          33.62     2412  34.00765    -118.50015    2018-04-17T16:07:43Z    
4/17/2018    9:07:44    39.37         12.85        1.15      88.91                 4.44          33.62     2413  34.00765    -118.50015    2018-04-17T16:07:44Z    
4/17/2018    9:07:44    39.37         12.83        1.13      88.97                 4.40          33.63     2414  34.00765    -118.50015    2018-04-17T16:07:44Z    
4/17/2018    9:07:44    39.37         12.82        1.12      88.95                 4.40          33.64     2415  34.00765    -118.50015    2018-04-17T16:07:44Z    
4/17/2018    9:07:44    39.36         12.82        1.09      88.95                 4.28          33.63     2416  34.00765    -118.50015    2018-04-17T16:07:44Z    
4/17/2018    9:07:44    39.37         12.87        1.08      88.83                 4.14          33.60     2417  34.00765    -118.50015    2018-04-17T16:07:44Z    
4/17/2018    9:07:44    39.39         12.88        1.06      88.84                 4.09          33.60     2418  34.00765    -118.50015    2018-04-17T16:07:44Z    
4/17/2018    9:07:45    39.40         12.88        1.03      88.93                 4.09          33.61     2419  34.00765    -118.50015    2018-04-17T16:07:45Z    
4/17/2018    9:07:45    39.40         12.87        0.98      88.96                 4.11          33.62     2420  34.00765    -118.50015    2018-04-17T16:07:45Z    
4/17/2018    9:07:45    39.40         12.87        0.96      88.98                 4.06          33.63     2421  34.00765    -118.50015    2018-04-17T16:07:45Z    
4/17/2018    9:07:45    39.40         12.87        0.92      89.02                 3.96          33.63     2422  34.00765    -118.50015    2018-04-17T16:07:45Z    
4/17/2018    9:07:45    39.40         12.88        0.89      89.01                 3.94          33.62     2423  34.00765    -118.50015    2018-04-17T16:07:45Z    
4/17/2018    9:07:45    39.40         12.88        0.89      89.05                 3.91          33.62     2424  34.00765    -118.50015    2018-04-17T16:07:45Z    
4/17/2018    9:07:46    39.40         12.89        0.88      89.04                 3.92          33.61     2425  34.00765    -118.50015    2018-04-17T16:07:46Z    
4/17/2018    9:07:46    39.40         12.89        0.86      89.09                 3.98          33.61     2426  34.00765    -118.50015    2018-04-17T16:07:46Z    
4/17/2018    9:07:46    39.40         12.89        0.87      89.14                 4.02          33.61     2427  34.00765    -118.50015    2018-04-17T16:07:46Z    
4/17/2018    9:07:46    39.40         12.89        0.86      89.12                 4.09          33.61     2428  34.00765    -118.50015    2018-04-17T16:07:46Z    
4/17/2018    9:07:46    39.40         12.89        0.86      89.13                 4.09          33.61     2429  34.00765    -118.50015    2018-04-17T16:07:46Z    
4/17/2018    9:07:46    39.40         12.88        0.84      89.19                 4.20          33.62     2430  34.00765    -118.50015    2018-04-17T16:07:46Z    
4/17/2018    9:07:47    39.39         12.88        0.81      89.18                 4.20          33.61     2431  34.00765    -118.50015    2018-04-17T16:07:47Z    
4/17/2018    9:07:47    39.39         12.89        0.78      89.25                 4.18          33.60     2432  34.00765    -118.50015    2018-04-17T16:07:47Z    
4/17/2018    9:07:47    39.39         12.88        0.76      89.28                 4.18          33.60     2433  34.00765    -118.50015    2018-04-17T16:07:47Z    
4/17/2018    9:07:47    39.39         12.88        0.75      89.30                 4.03          33.61     2434  34.00765    -118.50015    2018-04-17T16:07:47Z    
4/17/2018    9:07:47    39.40         12.88        0.74      89.36                 3.97          33.61     2435  34.00765    -118.50015    2018-04-17T16:07:47Z    
4/17/2018    9:07:47    39.40         12.88        0.75      89.40                 3.92          33.62     2436  34.00765    -118.50015    2018-04-17T16:07:47Z    
4/17/2018    9:07:48    39.40         12.88        0.77      89.45                 3.87          33.61     2437  34.00765    -118.50015    2018-04-17T16:07:48Z    
4/17/2018    9:07:48    39.40         12.88        0.80      89.49                 3.88          33.61     2438  34.00765    -118.50015    2018-04-17T16:07:48Z    
4/17/2018    9:07:48    39.40         12.88        0.83      89.54                 3.89          33.61     2439  34.00765    -118.50015    2018-04-17T16:07:48Z    
4/17/2018    9:07:48    39.40         12.88        0.88      89.58                 3.89          33.62     2440  34.00765    -118.50015    2018-04-17T16:07:48Z    
4/17/2018    9:07:48    39.40         12.88        0.93      89.62                 3.88          33.62     2441  34.00765    -118.50015    2018-04-17T16:07:48Z    
4/17/2018    9:07:48    39.40         12.88        0.95      89.70                 3.85          33.62     2442  34.00765    -118.50015    2018-04-17T16:07:48Z    
4/17/2018    9:07:49    39.39         12.87        0.98      89.71                 3.82          33.62     2443  34.00765    -118.50015    2018-04-17T16:07:49Z    
4/17/2018    9:07:49    39.39         12.87        0.98      89.68                 3.83          33.62     2444  34.00765    -118.50015    2018-04-17T16:07:49Z    
4/17/2018    9:07:49    39.39         12.87        0.97      89.71                 3.86          33.62     2445  34.00765    -118.50015    2018-04-17T16:07:49Z    
4/17/2018    9:07:49    39.40         12.87        0.94      89.74                 3.93          33.62     2446  34.00765    -118.50015    2018-04-17T16:07:49Z    
4/17/2018    9:07:49    39.39         12.87        0.91      89.77                 3.92          33.62     2447  34.00765    -118.50015    2018-04-17T16:07:49Z    
4/17/2018    9:07:49    39.38         12.87        0.87      89.76                 3.89          33.61     2448  34.00765    -118.50015    2018-04-17T16:07:49Z    
4/17/2018    9:07:50    39.39         12.86        0.80      89.73                 3.85          33.62     2449  34.00765    -118.50015    2018-04-17T16:07:50Z    
4/17/2018    9:07:50    39.38         12.86        0.76      89.73                 3.80          33.62     2450  34.00765    -118.50015    2018-04-17T16:07:50Z    
4/17/2018    9:07:50    39.39         12.86        0.70      89.74                 3.80          33.62     2451  34.00765    -118.50015    2018-04-17T16:07:50Z    
4/17/2018    9:07:50    39.38         12.86        0.63      89.73                 4.06          33.62     2452  34.00765    -118.50015    2018-04-17T16:07:50Z    
4/17/2018    9:07:50    39.37         12.86        0.59      89.67                 4.22          33.61     2453  34.00765    -118.50015    2018-04-17T16:07:50Z    
4/17/2018    9:07:50    39.36         12.85        0.60      89.64                 4.64          33.60     2454  34.00765    -118.50015    2018-04-17T16:07:50Z    
4/17/2018    9:07:51    39.35         12.83        0.61      89.62                 4.80          33.61     2455  34.00765    -118.50015    2018-04-17T16:07:51Z    
4/17/2018    9:07:51    39.35         12.80        0.64      89.61                 4.82          33.64     2456  34.00765    -118.50015    2018-04-17T16:07:51Z    
4/17/2018    9:07:51    39.34         12.79        0.66      89.59                 4.79          33.64     2457  34.00765    -118.50015    2018-04-17T16:07:51Z    
4/17/2018    9:07:51    39.34         12.80        0.69      89.50                 4.67          33.63     2458  34.00765    -118.50015    2018-04-17T16:07:51Z    
4/17/2018    9:07:51    39.33         12.79        0.71      89.46                 4.58          33.63     2459  34.00765    -118.50015    2018-04-17T16:07:51Z    
4/17/2018    9:07:51    39.33         12.79        0.73      89.46                 4.58          33.63     2460  34.00765    -118.50015    2018-04-17T16:07:51Z    
4/17/2018    9:07:52    39.33         12.79        0.75      89.35                 4.59          33.63     2461  34.00765    -118.50015    2018-04-17T16:07:52Z    
4/17/2018    9:07:52    39.33         12.79        0.76      89.25                 4.49          33.63     2462  34.00765    -118.50015    2018-04-17T16:07:52Z    
4/17/2018    9:07:52    39.33         12.79        0.78      89.20                 4.40          33.63     2463  34.00765    -118.50015    2018-04-17T16:07:52Z    
4/17/2018    9:07:52    39.33         12.79        0.79      89.10                 4.48          33.63     2464  34.00765    -118.50015    2018-04-17T16:07:52Z    
4/17/2018    9:07:52    39.33         12.80        0.81      89.05                 4.43          33.63     2465  34.00765    -118.50015    2018-04-17T16:07:52Z    
4/17/2018    9:07:52    39.34         12.80        0.83      89.03                 4.37          33.64     2466  34.00765    -118.50015    2018-04-17T16:07:52Z    
4/17/2018    9:07:53    39.36         12.80        0.88      88.99                 4.29          33.65     2467  34.00765    -118.50015    2018-04-17T16:07:53Z    
4/17/2018    9:07:53    39.38         12.80        0.90      88.91                 4.23          33.66     2468  34.00765    -118.50015    2018-04-17T16:07:53Z    
4/17/2018    9:07:53    39.39         12.83        0.94      88.84                 4.24          33.66     2469  34.00765    -118.50015    2018-04-17T16:07:53Z    
4/17/2018    9:07:53    39.39         12.84        0.97      88.86                 4.19          33.65     2470  34.00765    -118.50015    2018-04-17T16:07:53Z    
4/17/2018    9:07:53    39.40         12.84        0.99      88.83                 4.10          33.65     2471  34.00765    -118.50015    2018-04-17T16:07:53Z    
4/17/2018    9:07:53    39.39         12.85        1.00      88.89                 4.06          33.64     2472  34.00765    -118.50015    2018-04-17T16:07:53Z    
4/17/2018    9:07:54    39.40         12.86        0.99      88.94                 4.22          33.63     2473  34.00765    -118.50015    2018-04-17T16:07:54Z    
4/17/2018    9:07:54    39.40         12.90        0.99      88.96                 4.29          33.60     2474  34.00765    -118.50015    2018-04-17T16:07:54Z    
4/17/2018    9:07:54    39.41         12.90        0.98      89.05                 4.49          33.61     2475  34.00765    -118.50015    2018-04-17T16:07:54Z    
4/17/2018    9:07:54    39.40         12.90        0.96      89.12                 4.71          33.60     2476  34.00765    -118.50015    2018-04-17T16:07:54Z    
4/17/2018    9:07:54    39.41         12.90        0.93      89.13                 4.82          33.61     2477  34.00765    -118.50015    2018-04-17T16:07:54Z    
4/17/2018    9:07:54    39.41         12.89        0.90      89.28                 4.77          33.62     2478  34.00765    -118.50015    2018-04-17T16:07:54Z    
4/17/2018    9:07:55    39.41         12.89        0.86      89.37                 4.59          33.62     2479  34.00765    -118.50015    2018-04-17T16:07:55Z    
4/17/2018    9:07:55    39.41         12.89        0.83      89.40                 4.43          33.62     2480  34.00765    -118.50015    2018-04-17T16:07:55Z    
4/17/2018    9:07:55    39.41         12.88        0.80      89.50                 4.47          33.63     2481  34.00765    -118.50015    2018-04-17T16:07:55Z    
4/17/2018    9:07:55    39.41         12.87        0.80      89.53                 4.36          33.64     2482  34.00765    -118.50015    2018-04-17T16:07:55Z    
4/17/2018    9:07:55    39.41         12.87        0.82      89.58                 4.24          33.64     2483  34.00765    -118.50015    2018-04-17T16:07:55Z    
4/17/2018    9:07:55    39.41         12.87        0.83      89.59                 4.17          33.64     2484  34.00765    -118.50015    2018-04-17T16:07:55Z    
4/17/2018    9:07:56    39.42         12.89        0.87      89.63                 4.12          33.62     2485  34.00765    -118.50015    2018-04-17T16:07:56Z    
4/17/2018    9:07:56    39.42         12.89        0.91      89.68                 4.20          33.62     2486  34.00765    -118.50015    2018-04-17T16:07:56Z    
4/17/2018    9:07:56    39.42         12.89        0.96      89.72                 4.23          33.63     2487  34.00765    -118.50015    2018-04-17T16:07:56Z    
4/17/2018    9:07:56    39.42         12.89        0.99      89.77                 4.27          33.62     2488  34.00765    -118.50015    2018-04-17T16:07:56Z    
4/17/2018    9:07:56    39.42         12.89        1.01      89.84                 4.22          33.62     2489  34.00765    -118.50015    2018-04-17T16:07:56Z    
4/17/2018    9:07:56    39.42         12.89        1.00      89.85                 4.24          33.62     2490  34.00765    -118.50015    2018-04-17T16:07:56Z    
4/17/2018    9:07:57    39.41         12.90        1.00      89.89                 4.19          33.62     2491  34.00765    -118.50015    2018-04-17T16:07:57Z    
4/17/2018    9:07:57    39.41         12.90        0.98      89.93                 4.13          33.62     2492  34.00765    -118.50015    2018-04-17T16:07:57Z    
4/17/2018    9:07:57    39.42         12.90        0.95      89.97                 4.08          33.62     2493  34.00765    -118.50015    2018-04-17T16:07:57Z    
4/17/2018    9:07:57    39.42         12.90        0.91      90.00                 3.98          33.62     2494  34.00765    -118.50015    2018-04-17T16:07:57Z    
4/17/2018    9:07:57    39.42         12.90        0.89      90.05                 3.89          33.62     2495  34.00765    -118.50015    2018-04-17T16:07:57Z    
4/17/2018    9:07:57    39.42         12.90        0.86      90.08                 3.83          33.62     2496  34.00765    -118.50015    2018-04-17T16:07:57Z    
4/17/2018    9:07:58    39.41         12.90        0.87      90.09                 3.76          33.61     2497  34.00765    -118.50015    2018-04-17T16:07:58Z    
4/17/2018    9:07:58    39.41         12.90        0.89      90.13                 3.75          33.61     2498  34.00765    -118.50015    2018-04-17T16:07:58Z    
4/17/2018    9:07:58    39.41         12.90        0.94      90.13                 3.91          33.61     2499  34.00765    -118.50015    2018-04-17T16:07:58Z    
4/17/2018    9:07:58    39.41         12.90        1.02      90.22                 4.04          33.61     2500  34.00765    -118.50015    2018-04-17T16:07:58Z    
4/17/2018    9:07:58    39.41         12.90        1.11      90.20                 4.12          33.61     2501  34.00765    -118.50015    2018-04-17T16:07:58Z    
4/17/2018    9:07:58    39.41         12.89        1.21      90.20                 4.15          33.62     2502  34.00765    -118.50015    2018-04-17T16:07:58Z    
4/17/2018    9:07:59    39.42         12.89        1.28      90.29                 4.21          33.63     2503  34.00765    -118.50015    2018-04-17T16:07:59Z    
4/17/2018    9:07:59    39.42         12.89        1.36      90.30                 4.24          33.62     2504  34.00765    -118.50015    2018-04-17T16:07:59Z    
4/17/2018    9:07:59    39.41         12.90        1.40      90.27                 4.32          33.61     2505  34.00765    -118.50015    2018-04-17T16:07:59Z    
4/17/2018    9:07:59    39.41         12.90        1.43      90.29                 4.82          33.61     2506  34.00765    -118.50015    2018-04-17T16:07:59Z    
4/17/2018    9:07:59    39.41         12.90        1.45      90.26                 4.90          33.61     2507  34.00765    -118.50015    2018-04-17T16:07:59Z    
4/17/2018    9:07:59    39.41         12.90        1.44      90.28                 4.80          33.62     2508  34.00765    -118.50015    2018-04-17T16:07:59Z    
4/17/2018    9:08:00    39.41         12.89        1.40      90.26                 4.64          33.62     2509  34.00765    -118.50015    2018-04-17T16:08:00Z    
4/17/2018    9:08:00    39.41         12.90        1.36      90.29                 4.49          33.61     2510  34.00765    -118.50015    2018-04-17T16:08:00Z    
4/17/2018    9:08:00    39.41         12.90        1.30      90.26                 4.35          33.61     2511  34.00765    -118.50015    2018-04-17T16:08:00Z    
4/17/2018    9:08:00    39.42         12.90        1.26      90.26                 4.33          33.62     2512  34.00765    -118.50015    2018-04-17T16:08:00Z    
4/17/2018    9:08:00    39.41         12.90        1.20      90.34                 4.31          33.62     2513  34.00765    -118.50015    2018-04-17T16:08:00Z    
4/17/2018    9:08:00    39.41         12.90        1.13      90.34                 4.24          33.61     2514  34.00765    -118.50015    2018-04-17T16:08:00Z    
4/17/2018    9:08:01    39.42         12.90        1.10      90.37                 4.12          33.62     2515  34.00765    -118.50015    2018-04-17T16:08:01Z    
4/17/2018    9:08:01    39.41         12.90        1.04      90.34                 3.99          33.61     2516  34.00765    -118.50015    2018-04-17T16:08:01Z    
4/17/2018    9:08:01    39.42         12.90        1.00      90.31                 3.95          33.62     2517  34.00765    -118.50015    2018-04-17T16:08:01Z    
4/17/2018    9:08:01    39.42         12.89        0.96      90.31                 3.95          33.62     2518  34.00765    -118.50015    2018-04-17T16:08:01Z    
4/17/2018    9:08:01    39.42         12.89        0.96      90.31                 3.95          33.62     2519  34.00765    -118.50015    2018-04-17T16:08:01Z    
4/17/2018    9:08:01    39.41         12.90        0.87      90.31                 4.19          33.62     2520  34.00765    -118.50015    2018-04-17T16:08:01Z    
4/17/2018    9:08:02    39.41         12.89        0.84      90.31                 4.18          33.62     2521  34.00765    -118.50015    2018-04-17T16:08:02Z    
4/17/2018    9:08:02    39.41         12.89        0.82      90.34                 4.12          33.62     2522  34.00765    -118.50015    2018-04-17T16:08:02Z    
4/17/2018    9:08:02    39.41         12.89        0.79      90.35                 4.03          33.62     2523  34.00765    -118.50015    2018-04-17T16:08:02Z    
4/17/2018    9:08:02    39.41         12.90        0.78      90.28                 4.05          33.62     2524  34.00765    -118.50015    2018-04-17T16:08:02Z    
4/17/2018    9:08:02    39.41         12.90        0.80      90.29                 4.07          33.61     2525  34.00765    -118.50015    2018-04-17T16:08:02Z    
4/17/2018    9:08:02    39.41         12.90        0.83      90.30                 4.13          33.61     2526  34.00765    -118.50015    2018-04-17T16:08:02Z    
4/17/2018    9:08:03    39.41         12.90        0.87      90.29                 4.11          33.61     2527  34.00765    -118.50015    2018-04-17T16:08:03Z    
4/17/2018    9:08:03    39.42         12.90        0.91      90.27                 4.12          33.62     2528  34.00765    -118.50015    2018-04-17T16:08:03Z    
4/17/2018    9:08:03    39.41         12.90        0.94      90.28                 4.05          33.61     2529  34.00765    -118.50015    2018-04-17T16:08:03Z    
4/17/2018    9:08:03    39.42         12.90        0.97      90.26                 3.95          33.62     2530  34.00765    -118.50015    2018-04-17T16:08:03Z    
4/17/2018    9:08:03    39.41         12.89        0.97      90.23                 3.84          33.62     2531  34.00765    -118.50015    2018-04-17T16:08:03Z    
4/17/2018    9:08:03    39.42         12.88        0.99      90.27                 3.81          33.63     2532  34.00765    -118.50015    2018-04-17T16:08:03Z    
4/17/2018    9:08:04    39.42         12.89        0.98      90.26                 3.82          33.63     2533  34.00765    -118.50015    2018-04-17T16:08:04Z    
4/17/2018    9:08:04    39.41         12.89        1.00      90.28                 3.87          33.62     2534  34.00765    -118.50015    2018-04-17T16:08:04Z    
4/17/2018    9:08:04    39.41         12.89        0.98      90.29                 3.96          33.62     2535  34.00765    -118.50015    2018-04-17T16:08:04Z    
4/17/2018    9:08:04    39.41         12.89        1.00      90.23                 3.99          33.62     2536  34.00765    -118.50015    2018-04-17T16:08:04Z    
4/17/2018    9:08:04    39.41         12.90        1.00      90.28                 3.92          33.62     2537  34.00765    -118.50015    2018-04-17T16:08:04Z    
4/17/2018    9:08:04    39.41         12.90        1.01      90.24                 3.89          33.62     2538  34.00765    -118.50015    2018-04-17T16:08:04Z    
4/17/2018    9:08:05    39.41         12.90        1.00      90.23                 4.04          33.62     2539  34.00765    -118.50015    2018-04-17T16:08:05Z    
4/17/2018    9:08:05    39.41         12.90        0.98      90.24                 4.12          33.62     2540  34.00765    -118.50015    2018-04-17T16:08:05Z    
4/17/2018    9:08:05    39.41         12.89        0.97      90.27                 4.19          33.61     2541  34.00765    -118.50015    2018-04-17T16:08:05Z    
4/17/2018    9:08:05    39.41         12.89        0.93      90.24                 4.18          33.62     2542  34.00765    -118.50015    2018-04-17T16:08:05Z    
4/17/2018    9:08:05    39.41         12.89        0.90      90.25                 4.15          33.62     2543  34.00765    -118.50015    2018-04-17T16:08:05Z    
4/17/2018    9:08:05    39.41         12.89        0.84      90.31                 4.13          33.61     2544  34.00765    -118.50015    2018-04-17T16:08:05Z    
4/17/2018    9:08:06    39.41         12.89        0.79      90.29                 4.27          33.61     2545  34.00765    -118.50015    2018-04-17T16:08:06Z    
4/17/2018    9:08:06    39.41         12.89        0.74      90.26                 4.36          33.62     2546  34.00765    -118.50015    2018-04-17T16:08:06Z    
4/17/2018    9:08:06    39.41         12.89        0.68      90.26                 4.33          33.62     2547  34.00765    -118.50015    2018-04-17T16:08:06Z    
4/17/2018    9:08:06    39.41         12.89        0.67      90.24                 4.36          33.62     2548  34.00765    -118.50015    2018-04-17T16:08:06Z    
4/17/2018    9:08:06    39.41         12.89        0.66      90.26                 4.37          33.62     2549  34.00765    -118.50015    2018-04-17T16:08:06Z    
4/17/2018    9:08:06    39.41         12.89        0.67      90.27                 4.39          33.62     2550  34.00765    -118.50015    2018-04-17T16:08:06Z    
4/17/2018    9:08:07    39.41         12.89        0.69      90.24                 4.39          33.62     2551  34.00765    -118.50015    2018-04-17T16:08:07Z    
4/17/2018    9:08:07    39.41         12.89        0.73      90.24                 4.30          33.62     2552  34.00765    -118.50015    2018-04-17T16:08:07Z    
4/17/2018    9:08:07    39.41         12.89        0.77      90.29                 4.20          33.62     2553  34.00765    -118.50015    2018-04-17T16:08:07Z    
4/17/2018    9:08:07    39.41         12.89        0.82      90.24                 4.13          33.62     2554  34.00765    -118.50015    2018-04-17T16:08:07Z    
4/17/2018    9:08:07    39.42         12.89        0.86      90.26                 4.37          33.62     2555  34.00765    -118.50015    2018-04-17T16:08:07Z    
4/17/2018    9:08:07    39.42         12.89        0.90      90.24                 4.50          33.62     2556  34.00765    -118.50015    2018-04-17T16:08:07Z    
4/17/2018    9:08:08    39.41         12.89        0.94      90.27                 4.48          33.62     2557  34.00765    -118.50015    2018-04-17T16:08:08Z    
4/17/2018    9:08:08    39.41         12.89        0.94      90.24                 4.42          33.62     2558  34.00765    -118.50015    2018-04-17T16:08:08Z    
4/17/2018    9:08:08    39.41         12.89        0.97      90.26                 4.32          33.62     2559  34.00765    -118.50015    2018-04-17T16:08:08Z    
4/17/2018    9:08:08    39.41         12.89        0.96      90.30                 4.30          33.62     2560  34.00765    -118.50015    2018-04-17T16:08:08Z    
4/17/2018    9:08:08    39.41         12.89        0.95      90.31                 4.23          33.62     2561  34.00765    -118.50015    2018-04-17T16:08:08Z    
4/17/2018    9:08:08    39.41         12.89        0.94      90.29                 4.24          33.62     2562  34.00765    -118.50015    2018-04-17T16:08:08Z    
4/17/2018    9:08:09    39.41         12.89        0.92      90.21                 4.24          33.62     2563  34.00765    -118.50015    2018-04-17T16:08:09Z    
4/17/2018    9:08:09    39.41         12.89        0.89      90.24                 4.25          33.62     2564  34.00765    -118.50015    2018-04-17T16:08:09Z    
4/17/2018    9:08:09    39.41         12.89        0.88      90.31                 4.31          33.62     2565  34.00765    -118.50015    2018-04-17T16:08:09Z    
4/17/2018    9:08:09    39.41         12.89        0.87      90.26                 4.30          33.62     2566  34.00765    -118.50015    2018-04-17T16:08:09Z    
4/17/2018    9:08:09    39.41         12.89        0.86      90.17                 4.19          33.62     2567  34.00765    -118.50015    2018-04-17T16:08:09Z    
4/17/2018    9:08:09    39.41         12.89        0.86      90.25                 4.17          33.62     2568  34.00765    -118.50015    2018-04-17T16:08:09Z    
4/17/2018    9:08:10    39.41         12.89        0.86      90.21                 4.19          33.62     2569  34.00765    -118.50015    2018-04-17T16:08:10Z    
4/17/2018    9:08:10    39.41         12.89        0.86      90.18                 4.29          33.62     2570  34.00765    -118.50015    2018-04-17T16:08:10Z    
4/17/2018    9:08:10    39.41         12.89        0.85      90.22                 4.95          33.62     2571  34.00765    -118.50015    2018-04-17T16:08:10Z    
4/17/2018    9:08:10    39.41         12.89        0.82      90.17                 5.07          33.62     2572  34.00765    -118.50015    2018-04-17T16:08:10Z    
4/17/2018    9:08:10    39.41         12.89        0.80      90.18                 4.89          33.62     2573  34.00765    -118.50015    2018-04-17T16:08:10Z    
4/17/2018    9:08:10    39.41         12.89        0.77      90.15                 4.81          33.62     2574  34.00765    -118.50015    2018-04-17T16:08:10Z    
4/17/2018    9:08:11    39.41         12.89        0.75      90.21                 4.65          33.62     2575  34.00765    -118.50015    2018-04-17T16:08:11Z    
4/17/2018    9:08:11    39.41         12.89        0.71      90.18                 4.44          33.62     2576  34.00765    -118.50015    2018-04-17T16:08:11Z    
4/17/2018    9:08:11    39.41         12.89        0.70      90.16                 4.23          33.62     2577  34.00765    -118.50015    2018-04-17T16:08:11Z    
4/17/2018    9:08:11    39.41         12.89        0.69      90.22                 4.09          33.62     2578  34.00765    -118.50015    2018-04-17T16:08:11Z    
4/17/2018    9:08:11    39.41         12.89        0.69      90.24                 4.06          33.62     2579  34.00765    -118.50015    2018-04-17T16:08:11Z    
4/17/2018    9:08:11    39.41         12.89        0.70      90.18                 4.02          33.62     2580  34.00765    -118.50015    2018-04-17T16:08:11Z    
4/17/2018    9:08:12    39.41         12.89        0.73      90.18                 3.95          33.62     2581  34.00765    -118.50015    2018-04-17T16:08:12Z    
4/17/2018    9:08:12    39.41         12.89        0.76      90.14                 3.95          33.62     2582  34.00765    -118.50015    2018-04-17T16:08:12Z    
4/17/2018    9:08:12    39.42         12.89        0.80      90.18                 4.01          33.62     2583  34.00765    -118.50015    2018-04-17T16:08:12Z    
4/17/2018    9:08:12    39.42         12.90        0.85      90.23                 3.95          33.62     2584  34.00765    -118.50015    2018-04-17T16:08:12Z    
4/17/2018    9:08:12    39.42         12.90        0.91      90.19                 4.08          33.62     2585  34.00765    -118.50015    2018-04-17T16:08:12Z    
4/17/2018    9:08:12    39.41         12.90        0.97      90.22                 4.18          33.62     2586  34.00765    -118.50015    2018-04-17T16:08:12Z    
4/17/2018    9:08:13    39.42         12.90        1.02      90.26                 4.16          33.62     2587  34.00765    -118.50015    2018-04-17T16:08:13Z    
4/17/2018    9:08:13    39.41         12.90        1.06      90.34                 4.19          33.61     2588  34.00765    -118.50015    2018-04-17T16:08:13Z    
4/17/2018    9:08:13    39.42         12.90        1.10      90.31                 4.28          33.62     2589  34.00765    -118.50015    2018-04-17T16:08:13Z    
4/17/2018    9:08:13    39.42         12.90        1.12      90.35                 4.25          33.61     2590  34.00765    -118.50015    2018-04-17T16:08:13Z    
4/17/2018    9:08:13    39.41         12.90        1.12      90.34                 4.21          33.61     2591  34.00765    -118.50015    2018-04-17T16:08:13Z    
4/17/2018    9:08:13    39.42         12.90        1.11      90.32                 4.20          33.62     2592  34.00765    -118.50015    2018-04-17T16:08:13Z    
4/17/2018    9:08:14    39.42         12.90        1.10      90.32                 4.20          33.61     2593  34.00765    -118.50015    2018-04-17T16:08:14Z    
4/17/2018    9:08:14    39.42         12.90        1.08      90.35                 4.18          33.62     2594  34.00765    -118.50015    2018-04-17T16:08:14Z    
4/17/2018    9:08:14    39.42         12.90        1.06      90.34                 4.19          33.62     2595  34.00765    -118.50015    2018-04-17T16:08:14Z    
4/17/2018    9:08:14    39.42         12.90        1.04      90.38                 4.09          33.62     2596  34.00765    -118.50015    2018-04-17T16:08:14Z    
4/17/2018    9:08:14    39.42         12.90        1.03      90.42                 4.01          33.62     2597  34.00765    -118.50015    2018-04-17T16:08:14Z    
4/17/2018    9:08:14    39.42         12.90        1.02      90.38                 3.92          33.62     2598  34.00765    -118.50015    2018-04-17T16:08:14Z    
4/17/2018    9:08:15    39.42         12.90        1.03      90.41                 3.93          33.62     2599  34.00765    -118.50015    2018-04-17T16:08:15Z    
4/17/2018    9:08:15    39.42         12.90        1.00      90.41                 4.01          33.62     2600  34.00765    -118.50015    2018-04-17T16:08:15Z    
4/17/2018    9:08:15    39.41         12.90        0.97      90.41                 4.26          33.61     2601  34.00765    -118.50015    2018-04-17T16:08:15Z    
4/17/2018    9:08:15    39.41         12.90        0.93      90.40                 4.36          33.62     2602  34.00765    -118.50015    2018-04-17T16:08:15Z    
4/17/2018    9:08:15    39.41         12.90        0.90      90.42                 4.38          33.61     2603  34.00765    -118.50015    2018-04-17T16:08:15Z    
4/17/2018    9:08:15    39.41         12.90        0.85      90.45                 4.35          33.61     2604  34.00765    -118.50015    2018-04-17T16:08:15Z    
4/17/2018    9:08:16    39.41         12.90        0.82      90.44                 4.21          33.61     2605  34.00765    -118.50015    2018-04-17T16:08:16Z    
4/17/2018    9:08:16    39.41         12.90        0.79      90.41                 4.15          33.61     2606  34.00765    -118.50015    2018-04-17T16:08:16Z    
4/17/2018    9:08:16    39.41         12.90        0.78      90.38                 4.52          33.61     2607  34.00765    -118.50015    2018-04-17T16:08:16Z    
4/17/2018    9:08:16    39.41         12.90        0.78      90.37                 4.71          33.62     2608  34.00765    -118.50015    2018-04-17T16:08:16Z    
4/17/2018    9:08:16    39.41         12.90        0.79      90.38                 4.58          33.62     2609  34.00765    -118.50015    2018-04-17T16:08:16Z    
4/17/2018    9:08:16    39.41         12.90        0.82      90.37                 4.41          33.62     2610  34.00765    -118.50015    2018-04-17T16:08:16Z    
4/17/2018    9:08:17    39.41         12.90        0.86      90.40                 4.32          33.61     2611  34.00765    -118.50015    2018-04-17T16:08:17Z    
4/17/2018    9:08:17    39.41         12.90        0.92      90.41                 4.18          33.61     2612  34.00765    -118.50015    2018-04-17T16:08:17Z    
4/17/2018    9:08:17    39.41         12.90        1.00      90.39                 4.18          33.62     2613  34.00765    -118.50015    2018-04-17T16:08:17Z    
4/17/2018    9:08:17    39.41         12.90        1.07      90.37                 4.25          33.62     2614  34.00765    -118.50015    2018-04-17T16:08:17Z    
4/17/2018    9:08:17    39.41         12.90        1.15      90.36                 4.38          33.62     2615  34.00765    -118.50015    2018-04-17T16:08:17Z    
4/17/2018    9:08:17    39.41         12.90        1.21      90.39                 4.33          33.62     2616  34.00765    -118.50015    2018-04-17T16:08:17Z    
4/17/2018    9:08:18    39.41         12.90        1.27      90.34                 4.24          33.62     2617  34.00765    -118.50015    2018-04-17T16:08:18Z    
4/17/2018    9:08:18    39.41         12.90        1.31      90.32                 4.18          33.62     2618  34.00765    -118.50015    2018-04-17T16:08:18Z    
4/17/2018    9:08:18    39.41         12.90        1.34      90.35                 4.13          33.62     2619  34.00765    -118.50015    2018-04-17T16:08:18Z    
4/17/2018    9:08:18    39.42         12.90        1.34      90.34                 4.23          33.62     2620  34.00765    -118.50015    2018-04-17T16:08:18Z    
4/17/2018    9:08:18    39.41         12.90        1.34      90.33                 4.23          33.61     2621  34.00765    -118.50015    2018-04-17T16:08:18Z    
4/17/2018    9:08:18    39.41         12.90        1.32      90.33                 4.20          33.61     2622  34.00765    -118.50015    2018-04-17T16:08:18Z    
4/17/2018    9:08:19    39.42         12.90        1.29      90.31                 4.20          33.62     2623  34.00765    -118.50015    2018-04-17T16:08:19Z    
4/17/2018    9:08:19    39.41         12.90        1.27      90.33                 4.23          33.61     2624  34.00765    -118.50015    2018-04-17T16:08:19Z    
4/17/2018    9:08:19    39.41         12.90        1.25      90.30                 4.23          33.62     2625  34.00765    -118.50015    2018-04-17T16:08:19Z    
4/17/2018    9:08:19    39.42         12.90        1.22      90.32                 4.28          33.62     2626  34.00765    -118.50015    2018-04-17T16:08:19Z    
4/17/2018    9:08:19    39.42         12.90        1.21      90.30                 4.30          33.62     2627  34.00765    -118.50015    2018-04-17T16:08:19Z    
4/17/2018    9:08:19    39.41         12.90        1.20      90.36                 4.22          33.61     2628  34.00765    -118.50015    2018-04-17T16:08:19Z    
4/17/2018    9:08:20    39.41         12.90        1.20      90.30                 4.11          33.61     2629  34.00765    -118.50015    2018-04-17T16:08:20Z    
4/17/2018    9:08:20    39.41         12.90        1.20      90.30                 4.08          33.61     2630  34.00765    -118.50015    2018-04-17T16:08:20Z    
4/17/2018    9:08:20    39.41         12.89        1.17      90.31                 4.17          33.61     2631  34.00765    -118.50015    2018-04-17T16:08:20Z    
4/17/2018    9:08:20    39.41         12.89        1.15      90.34                 4.27          33.62     2632  34.00765    -118.50015    2018-04-17T16:08:20Z    
4/17/2018    9:08:20    39.41         12.89        1.12      90.28                 4.33          33.61     2633  34.00765    -118.50015    2018-04-17T16:08:20Z    
4/17/2018    9:08:20    39.41         12.89        1.08      90.26                 4.28          33.61     2634  34.00765    -118.50015    2018-04-17T16:08:20Z    
4/17/2018    9:08:21    39.41         12.89        1.05      90.24                 4.22          33.61     2635  34.00765    -118.50015    2018-04-17T16:08:21Z    
4/17/2018    9:08:21    39.41         12.89        1.00      90.27                 4.16          33.61     2636  34.00765    -118.50015    2018-04-17T16:08:21Z    
4/17/2018    9:08:21    39.41         12.89        0.96      90.27                 4.34          33.62     2637  34.00765    -118.50015    2018-04-17T16:08:21Z    
4/17/2018    9:08:21    39.41         12.89        0.91      90.23                 4.50          33.62     2638  34.00765    -118.50015    2018-04-17T16:08:21Z    
4/17/2018    9:08:21    39.41         12.89        0.90      90.27                 4.49          33.62     2639  34.00765    -118.50015    2018-04-17T16:08:21Z    
4/17/2018    9:08:21    39.41         12.89        0.88      90.22                 4.44          33.62     2640  34.00765    -118.50015    2018-04-17T16:08:21Z    
4/17/2018    9:08:22    39.41         12.89        0.88      90.21                 4.33          33.62     2641  34.00765    -118.50015    2018-04-17T16:08:22Z    
4/17/2018    9:08:22    39.41         12.89        0.89      90.24                 4.28          33.62     2642  34.00765    -118.50015    2018-04-17T16:08:22Z    
4/17/2018    9:08:22    39.41         12.89        0.91      90.23                 4.23          33.62     2643  34.00765    -118.50015    2018-04-17T16:08:22Z    
4/17/2018    9:08:22    39.41         12.89        0.92      90.20                 4.28          33.62     2644  34.00765    -118.50015    2018-04-17T16:08:22Z    
4/17/2018    9:08:22    39.41         12.89        0.93      90.18                 4.28          33.62     2645  34.00765    -118.50015    2018-04-17T16:08:22Z    
4/17/2018    9:08:22    39.41         12.89        0.95      90.24                 4.28          33.62     2646  34.00765    -118.50015    2018-04-17T16:08:22Z    
4/17/2018    9:08:23    39.41         12.89        0.96      90.23                 4.25          33.62     2647  34.00765    -118.50015    2018-04-17T16:08:23Z    
4/17/2018    9:08:23    39.41         12.89        0.97      90.25                 4.50          33.62     2648  34.00765    -118.50015    2018-04-17T16:08:23Z    
4/17/2018    9:08:23    39.41         12.89        0.96      90.24                 4.68          33.62     2649  34.00765    -118.50015    2018-04-17T16:08:23Z    
4/17/2018    9:08:23    39.41         12.89        0.95      90.26                 4.62          33.62     2650  34.00765    -118.50015    2018-04-17T16:08:23Z    
4/17/2018    9:08:23    39.41         12.89        0.93      90.24                 4.59          33.62     2651  34.00765    -118.50015    2018-04-17T16:08:23Z    
4/17/2018    9:08:23    39.41         12.89        0.90      90.24                 4.48          33.61     2652  34.00765    -118.50015    2018-04-17T16:08:23Z    
4/17/2018    9:08:24    39.41         12.89        0.86      90.17                 4.35          33.62     2653  34.00765    -118.50015    2018-04-17T16:08:24Z    
4/17/2018    9:08:24    39.41         12.89        0.81      90.19                 4.48          33.62     2654  34.00765    -118.50015    2018-04-17T16:08:24Z    
4/17/2018    9:08:24    39.41         12.89        0.77      90.23                 4.59          33.62     2655  34.00765    -118.50015    2018-04-17T16:08:24Z    
4/17/2018    9:08:24    39.41         12.89        0.70      90.22                 4.58          33.62     2656  34.00765    -118.50015    2018-04-17T16:08:24Z    
4/17/2018    9:08:24    39.41         12.89        0.63      90.16                 4.53          33.62     2657  34.00765    -118.50015    2018-04-17T16:08:24Z    
4/17/2018    9:08:24    39.41         12.89        0.57      90.16                 4.46          33.62     2658  34.00765    -118.50015    2018-04-17T16:08:24Z    
4/17/2018    9:08:25    39.41         12.89        0.48      90.22                 4.40          33.61     2659  34.00765    -118.50015    2018-04-17T16:08:25Z    
4/17/2018    9:08:25    39.41         12.89        0.41      90.14                 4.60          33.62     2660  34.00765    -118.50015    2018-04-17T16:08:25Z    
4/17/2018    9:08:25    39.40         12.89        0.35      90.14                 4.53          33.61     2661  34.00765    -118.50015    2018-04-17T16:08:25Z    
4/17/2018    9:08:25    39.40         12.89        0.29      90.16                 4.63          33.61     2662  34.00765    -118.50015    2018-04-17T16:08:25Z    
4/17/2018    9:08:25    39.40         12.89        0.27      90.15                 4.75          33.62     2663  34.00765    -118.50015    2018-04-17T16:08:25Z    
4/17/2018    9:08:25    39.41         12.89        0.26      90.12                 4.56          33.62     2664  34.00765    -118.50015    2018-04-17T16:08:25Z    
4/17/2018    9:08:26    39.40         12.89        0.27      90.16                 4.33          33.61     2665  34.00765    -118.50015    2018-04-17T16:08:26Z    
4/17/2018    9:08:26    39.40         12.89        0.33      90.13                 4.16          33.61     2666  34.00765    -118.50015    2018-04-17T16:08:26Z    
4/17/2018    9:08:26    39.41         12.89        0.39      90.11                 4.03          33.62     2667  34.00765    -118.50015    2018-04-17T16:08:26Z    
4/17/2018    9:08:26    39.41         12.89        0.47      90.15                 3.93          33.62     2668  34.00765    -118.50015    2018-04-17T16:08:26Z    
4/17/2018    9:08:26    39.41         12.89        0.55      90.19                 3.87          33.62     2669  34.00765    -118.50015    2018-04-17T16:08:26Z    
4/17/2018    9:08:26    39.41         12.89        0.61      90.20                 3.83          33.62     2670  34.00765    -118.50015    2018-04-17T16:08:26Z    
4/17/2018    9:08:27    39.41         12.89        0.66      90.24                 3.89          33.62     2671  34.00765    -118.50015    2018-04-17T16:08:27Z    
4/17/2018    9:08:27    39.41         12.89        0.69      90.32                 3.90          33.62     2672  34.00765    -118.50015    2018-04-17T16:08:27Z    
4/17/2018    9:08:27    39.41         12.90        0.71      90.31                 3.84          33.62     2673  34.00765    -118.50015    2018-04-17T16:08:27Z    
4/17/2018    9:08:27    39.41         12.90        0.72      90.32                 3.87          33.62     2674  34.00765    -118.50015    2018-04-17T16:08:27Z    
4/17/2018    9:08:27    39.41         12.90        0.73      90.32                 3.89          33.62     2675  34.00765    -118.50015    2018-04-17T16:08:27Z    
4/17/2018    9:08:27    39.41         12.90        0.74      90.28                 3.88          33.62     2676  34.00765    -118.50015    2018-04-17T16:08:27Z    
4/17/2018    9:08:28    39.41         12.90        0.75      90.33                 3.98          33.62     2677  34.00765    -118.50015    2018-04-17T16:08:28Z    
4/17/2018    9:08:28    39.41         12.90        0.75      90.38                 4.03          33.62     2678  34.00765    -118.50015    2018-04-17T16:08:28Z    
4/17/2018    9:08:28    39.41         12.90        0.76      90.40                 4.06          33.62     2679  34.00765    -118.50015    2018-04-17T16:08:28Z    
4/17/2018    9:08:28    39.41         12.90        0.77      90.40                 4.11          33.62     2680  34.00765    -118.50015    2018-04-17T16:08:28Z    
4/17/2018    9:08:28    39.41         12.90        0.77      90.39                 4.22          33.62     2681  34.00765    -118.50015    2018-04-17T16:08:28Z    
4/17/2018    9:08:28    39.41         12.90        0.79      90.41                 4.38          33.62     2682  34.00765    -118.50015    2018-04-17T16:08:28Z    
4/17/2018    9:08:29    39.41         12.90        0.81      90.32                 4.40          33.62     2683  34.00765    -118.50015    2018-04-17T16:08:29Z    
4/17/2018    9:08:29    39.41         12.90        0.82      90.33                 4.41          33.61     2684  34.00765    -118.50015    2018-04-17T16:08:29Z    
4/17/2018    9:08:29    39.40         12.90        0.84      90.29                 4.40          33.60     2685  34.00765    -118.50015    2018-04-17T16:08:29Z    
4/17/2018    9:08:29    39.40         12.89        0.85      90.31                 4.37          33.60     2686  34.00765    -118.50015    2018-04-17T16:08:29Z    
4/17/2018    9:08:29    39.40         12.89        0.87      90.27                 4.36          33.61     2687  34.00765    -118.50015    2018-04-17T16:08:29Z    
4/17/2018    9:08:29    39.41         12.89        0.88      90.31                 4.36          33.62     2688  34.00765    -118.50015    2018-04-17T16:08:29Z    
4/17/2018    9:08:30    39.40         12.88        0.90      90.30                 4.38          33.62     2689  34.00765    -118.50015    2018-04-17T16:08:30Z    
4/17/2018    9:08:30    39.40         12.88        0.90      90.29                 4.43          33.62     2690  34.00765    -118.50015    2018-04-17T16:08:30Z    
4/17/2018    9:08:30    39.40         12.88        0.93      90.33                 4.45          33.62     2691  34.00765    -118.50015    2018-04-17T16:08:30Z    
4/17/2018    9:08:30    39.40         12.89        0.97      90.32                 4.44          33.62     2692  34.00765    -118.50015    2018-04-17T16:08:30Z    
4/17/2018    9:08:30    39.40         12.89        1.00      90.33                 4.52          33.61     2693  34.00765    -118.50015    2018-04-17T16:08:30Z    
4/17/2018    9:08:30    39.41         12.89        1.04      90.29                 4.55          33.62     2694  34.00765    -118.50015    2018-04-17T16:08:30Z    
4/17/2018    9:08:31    39.41         12.89        1.07      90.32                 4.49          33.62     2695  34.00765    -118.50015    2018-04-17T16:08:31Z    
4/17/2018    9:08:31    39.41         12.89        1.10      90.32                 4.45          33.62     2696  34.00765    -118.50015    2018-04-17T16:08:31Z    
4/17/2018    9:08:31    39.41         12.89        1.12      90.33                 4.46          33.62     2697  34.00765    -118.50015    2018-04-17T16:08:31Z    
4/17/2018    9:08:31    39.41         12.89        1.14      90.35                 4.35          33.62     2698  34.00765    -118.50015    2018-04-17T16:08:31Z    
4/17/2018    9:08:31    39.41         12.89        1.16      90.29                 4.54          33.62     2699  34.00765    -118.50015    2018-04-17T16:08:31Z    
4/17/2018    9:08:31    39.41         12.89        1.17      90.36                 4.73          33.62     2700  34.00765    -118.50015    2018-04-17T16:08:31Z    
4/17/2018    9:08:32    39.41         12.89        1.19      90.32                 4.71          33.61     2701  34.00765    -118.50015    2018-04-17T16:08:32Z    
4/17/2018    9:08:32    39.41         12.90        1.18      90.28                 4.67          33.61     2702  34.00765    -118.50015    2018-04-17T16:08:32Z    
4/17/2018    9:08:32    39.41         12.89        1.19      90.32                 4.71          33.61     2703  34.00765    -118.50015    2018-04-17T16:08:32Z    
4/17/2018    9:08:32    39.41         12.89        1.19      90.32                 4.75          33.61     2704  34.00765    -118.50015    2018-04-17T16:08:32Z    
4/17/2018    9:08:32    39.40         12.89        1.19      90.33                 4.89          33.61     2705  34.00765    -118.50015    2018-04-17T16:08:32Z    
4/17/2018    9:08:32    39.40         12.88        1.19      90.34                 5.00          33.61     2706  34.00765    -118.50015    2018-04-17T16:08:32Z    
4/17/2018    9:08:33    39.40         12.88        1.19      90.33                 4.99          33.61     2707  34.00765    -118.50015    2018-04-17T16:08:33Z    
4/17/2018    9:08:33    39.38         12.89        1.18      90.36                 5.06          33.59     2708  34.00765    -118.50015    2018-04-17T16:08:33Z    
4/17/2018    9:08:33    39.39         12.89        1.16      90.35                 4.95          33.59     2709  34.00765    -118.50015    2018-04-17T16:08:33Z    
4/17/2018    9:08:33    39.38         12.89        1.16      90.33                 4.75          33.59     2710  34.00765    -118.50015    2018-04-17T16:08:33Z    
4/17/2018    9:08:33    39.38         12.89        1.12      90.35                 4.57          33.59     2711  34.00765    -118.50015    2018-04-17T16:08:33Z    
4/17/2018    9:08:33    39.39         12.88        1.08      90.33                 4.46          33.60     2712  34.00765    -118.50015    2018-04-17T16:08:33Z    
4/17/2018    9:08:34    39.39         12.88        1.06      90.30                 4.40          33.61     2713  34.00765    -118.50015    2018-04-17T16:08:34Z    
4/17/2018    9:08:34    39.39         12.89        1.04      90.32                 4.35          33.61     2714  34.00765    -118.50015    2018-04-17T16:08:34Z    
4/17/2018    9:08:34    39.39         12.89        1.04      90.32                 4.28          33.60     2715  34.00765    -118.50015    2018-04-17T16:08:34Z    
4/17/2018    9:08:34    39.39         12.89        1.04      90.31                 4.24          33.60     2716  34.00765    -118.50015    2018-04-17T16:08:34Z    
4/17/2018    9:08:34    39.39         12.89        1.06      90.32                 4.17          33.60     2717  34.00765    -118.50015    2018-04-17T16:08:34Z    
4/17/2018    9:08:34    39.40         12.89        1.07      90.29                 4.17          33.61     2718  34.00765    -118.50015    2018-04-17T16:08:34Z    
4/17/2018    9:08:35    39.40         12.89        1.09      90.31                 4.20          33.61     2719  34.00765    -118.50015    2018-04-17T16:08:35Z    
4/17/2018    9:08:35    39.40         12.89        1.10      90.27                 4.27          33.61     2720  34.00765    -118.50015    2018-04-17T16:08:35Z    
4/17/2018    9:08:35    39.40         12.89        1.10      90.32                 4.30          33.61     2721  34.00765    -118.50015    2018-04-17T16:08:35Z    
4/17/2018    9:08:35    39.41         12.89        1.08      90.23                 4.32          33.61     2722  34.00765    -118.50015    2018-04-17T16:08:35Z    
4/17/2018    9:08:35    39.41         12.89        1.05      90.30                 4.44          33.61     2723  34.00765    -118.50015    2018-04-17T16:08:35Z    
4/17/2018    9:08:35    39.40         12.89        0.99      90.24                 4.63          33.61     2724  34.00765    -118.50015    2018-04-17T16:08:35Z    
4/17/2018    9:08:36    39.40         12.89        0.94      90.21                 4.71          33.61     2725  34.00765    -118.50015    2018-04-17T16:08:36Z    
4/17/2018    9:08:36    39.40         12.89        0.89      90.26                 4.77          33.61     2726  34.00765    -118.50015    2018-04-17T16:08:36Z    
4/17/2018    9:08:36    39.40         12.89        0.84      90.25                 4.64          33.61     2727  34.00765    -118.50015    2018-04-17T16:08:36Z    
4/17/2018    9:08:36    39.40         12.89        0.80      90.19                 4.56          33.61     2728  34.00765    -118.50015    2018-04-17T16:08:36Z    
4/17/2018    9:08:36    39.40         12.89        0.78      90.13                 4.69          33.62     2729  34.00765    -118.50015    2018-04-17T16:08:36Z    
4/17/2018    9:08:36    39.40         12.89        0.78      90.16                 4.74          33.62     2730  34.00765    -118.50015    2018-04-17T16:08:36Z    
4/17/2018    9:08:37    39.40         12.89        0.77      90.11                 4.81          33.62     2731  34.00765    -118.50015    2018-04-17T16:08:37Z    
4/17/2018    9:08:37    39.41         12.89        0.79      90.15                 4.66          33.62     2732  34.00765    -118.50015    2018-04-17T16:08:37Z    
4/17/2018    9:08:37    39.41         12.89        0.79      90.15                 4.54          33.62     2733  34.00765    -118.50015    2018-04-17T16:08:37Z    
4/17/2018    9:08:37    39.41         12.89        0.81      90.16                 4.58          33.62     2734  34.00765    -118.50015    2018-04-17T16:08:37Z    
4/17/2018    9:08:37    39.41         12.89        0.81      90.15                 4.83          33.62     2735  34.00765    -118.50015    2018-04-17T16:08:37Z    
4/17/2018    9:08:37    39.41         12.89        0.83      90.11                 4.77          33.62     2736  34.00765    -118.50015    2018-04-17T16:08:37Z    
4/17/2018    9:08:38    39.41         12.89        0.84      90.09                 4.59          33.62     2737  34.00765    -118.50015    2018-04-17T16:08:38Z    
4/17/2018    9:08:38    39.41         12.89        0.86      90.09                 4.45          33.62     2738  34.00765    -118.50015    2018-04-17T16:08:38Z    
4/17/2018    9:08:38    39.40         12.89        0.88      90.13                 4.45          33.61     2739  34.00765    -118.50015    2018-04-17T16:08:38Z    
4/17/2018    9:08:38    39.40         12.89        0.92      90.11                 4.42          33.60     2740  34.00765    -118.50015    2018-04-17T16:08:38Z    
4/17/2018    9:08:38    39.37         12.89        0.95      90.11                 4.37          33.59     2741  34.00765    -118.50015    2018-04-17T16:08:38Z    
4/17/2018    9:08:38    39.36         12.88        1.00      90.14                 4.37          33.58     2742  34.00765    -118.50015    2018-04-17T16:08:38Z    
4/17/2018    9:08:39    39.36         12.88        1.04      90.11                 4.52          33.58     2743  34.00765    -118.50015    2018-04-17T16:08:39Z    
4/17/2018    9:08:39    39.37         12.88        1.07      90.16                 4.66          33.59     2744  34.00765    -118.50015    2018-04-17T16:08:39Z    
4/17/2018    9:08:39    39.35         12.87        1.10      90.15                 4.69          33.58     2745  34.00765    -118.50015    2018-04-17T16:08:39Z    
4/17/2018    9:08:39    39.35         12.85        1.11      90.13                 4.77          33.59     2746  34.00765    -118.50015    2018-04-17T16:08:39Z    
4/17/2018    9:08:39    39.35         12.85        1.12      90.11                 4.66          33.60     2747  34.00765    -118.50015    2018-04-17T16:08:39Z    
4/17/2018    9:08:39    39.36         12.84        1.08      90.15                 4.58          33.61     2748  34.00765    -118.50015    2018-04-17T16:08:39Z    
4/17/2018    9:08:40    39.36         12.85        1.05      90.12                 4.55          33.61     2749  34.00765    -118.50015    2018-04-17T16:08:40Z    
4/17/2018    9:08:40    39.37         12.85        0.99      90.10                 4.49          33.61     2750  34.00765    -118.50015    2018-04-17T16:08:40Z    
4/17/2018    9:08:40    39.37         12.85        0.95      90.12                 4.39          33.62     2751  34.00765    -118.50015    2018-04-17T16:08:40Z    
4/17/2018    9:08:40    39.38         12.85        0.89      90.03                 4.28          33.62     2752  34.00765    -118.50015    2018-04-17T16:08:40Z    
4/17/2018    9:08:40    39.38         12.86        0.85      90.06                 4.23          33.61     2753  34.00765    -118.50015    2018-04-17T16:08:40Z    
4/17/2018    9:08:40    39.38         12.86        0.81      90.04                 4.29          33.61     2754  34.00765    -118.50015    2018-04-17T16:08:40Z    
4/17/2018    9:08:41    39.38         12.86        0.78      89.97                 4.52          33.61     2755  34.00765    -118.50015    2018-04-17T16:08:41Z    
4/17/2018    9:08:41    39.38         12.86        0.76      89.96                 4.69          33.61     2756  34.00765    -118.50015    2018-04-17T16:08:41Z    
4/17/2018    9:08:41    39.38         12.86        0.74      89.96                 4.74          33.61     2757  34.00765    -118.50015    2018-04-17T16:08:41Z    
4/17/2018    9:08:41    39.38         12.86        0.72      89.95                 4.77          33.61     2758  34.00765    -118.50015    2018-04-17T16:08:41Z    
4/17/2018    9:08:41    39.38         12.86        0.70      89.92                 4.67          33.62     2759  34.00765    -118.50015    2018-04-17T16:08:41Z    
4/17/2018    9:08:41    39.38         12.86        0.70      89.91                 4.50          33.62     2760  34.00765    -118.50015    2018-04-17T16:08:41Z    
4/17/2018    9:08:42    39.39         12.87        0.68      89.89                 4.54          33.62     2761  34.00765    -118.50015    2018-04-17T16:08:42Z    
4/17/2018    9:08:42    39.39         12.87        0.68      89.95                 4.54          33.62     2762  34.00765    -118.50015    2018-04-17T16:08:42Z    
4/17/2018    9:08:42    39.40         12.87        0.68      89.95                 4.47          33.62     2763  34.00765    -118.50015    2018-04-17T16:08:42Z    
4/17/2018    9:08:42    39.40         12.87        0.70      89.94                 4.45          33.62     2764  34.00765    -118.50015    2018-04-17T16:08:42Z    
4/17/2018    9:08:42    39.40         12.88        0.73      89.95                 4.49          33.62     2765  34.00765    -118.50015    2018-04-17T16:08:42Z    
4/17/2018    9:08:42    39.40         12.88        0.78      89.93                 4.49          33.61     2766  34.00765    -118.50015    2018-04-17T16:08:42Z    
4/17/2018    9:08:43    39.39         12.88        0.83      89.89                 4.50          33.61     2767  34.00765    -118.50015    2018-04-17T16:08:43Z    
4/17/2018    9:08:43    39.38         12.88        0.89      89.91                 4.46          33.60     2768  34.00765    -118.50015    2018-04-17T16:08:43Z    
4/17/2018    9:08:43    39.37         12.88        0.93      89.93                 4.43          33.59     2769  34.00765    -118.50015    2018-04-17T16:08:43Z    
4/17/2018    9:08:43    39.38         12.88        0.96      89.92                 4.41          33.60     2770  34.00765    -118.50015    2018-04-17T16:08:43Z    
4/17/2018    9:08:43    39.39         12.88        1.00      89.95                 4.36          33.61     2771  34.00765    -118.50015    2018-04-17T16:08:43Z    
4/17/2018    9:08:43    39.39         12.88        1.01      89.97                 4.36          33.61     2772  34.00765    -118.50015    2018-04-17T16:08:43Z    
4/17/2018    9:08:44    39.39         12.88        1.02      89.95                 4.33          33.61     2773  34.00765    -118.50015    2018-04-17T16:08:44Z    
4/17/2018    9:08:44    39.39         12.88        1.02      89.97                 4.26          33.61     2774  34.00765    -118.50015    2018-04-17T16:08:44Z    
4/17/2018    9:08:44    39.39         12.88        0.99      89.95                 4.24          33.61     2775  34.00765    -118.50015    2018-04-17T16:08:44Z    
4/17/2018    9:08:44    39.40         12.88        0.95      89.98                 4.28          33.61     2776  34.00765    -118.50015    2018-04-17T16:08:44Z    
4/17/2018    9:08:44    39.40         12.88        0.92      89.98                 4.43          33.61     2777  34.00765    -118.50015    2018-04-17T16:08:44Z    
4/17/2018    9:08:44    39.40         12.88        0.86      90.00                 4.56          33.62     2778  34.00765    -118.50015    2018-04-17T16:08:44Z    
4/17/2018    9:08:45    39.40         12.88        0.84      90.02                 4.66          33.62     2779  34.00765    -118.50015    2018-04-17T16:08:45Z    
4/17/2018    9:08:45    39.40         12.88        0.81      89.95                 4.71          33.62     2780  34.00765    -118.50015    2018-04-17T16:08:45Z    
4/17/2018    9:08:45    39.40         12.88        0.79      89.98                 4.77          33.61     2781  34.00765    -118.50015    2018-04-17T16:08:45Z    
4/17/2018    9:08:45    39.40         12.88        0.80      89.97                 4.94          33.62     2782  34.00765    -118.50015    2018-04-17T16:08:45Z    
4/17/2018    9:08:45    39.40         12.88        0.83      90.03                 5.08          33.62     2783  34.00765    -118.50015    2018-04-17T16:08:45Z    
4/17/2018    9:08:45    39.40         12.88        0.85      89.98                 4.97          33.62     2784  34.00765    -118.50015    2018-04-17T16:08:45Z    
4/17/2018    9:08:46    39.40         12.88        0.88      90.02                 4.79          33.62     2785  34.00765    -118.50015    2018-04-17T16:08:46Z    
4/17/2018    9:08:46    39.40         12.88        0.92      90.02                 4.74          33.62     2786  34.00765    -118.50015    2018-04-17T16:08:46Z    
4/17/2018    9:08:46    39.40         12.88        0.96      90.03                 4.67          33.62     2787  34.00765    -118.50015    2018-04-17T16:08:46Z    
4/17/2018    9:08:46    39.40         12.88        0.99      89.99                 4.69          33.61     2788  34.00765    -118.50015    2018-04-17T16:08:46Z    
4/17/2018    9:08:46    39.39         12.88        1.00      89.95                 4.95          33.61     2789  34.00765    -118.50015    2018-04-17T16:08:46Z    
4/17/2018    9:08:46    39.39         12.88        1.02      89.97                 4.98          33.61     2790  34.00765    -118.50015    2018-04-17T16:08:46Z    
4/17/2018    9:08:47    39.39         12.88        1.02      89.96                 5.00          33.61     2791  34.00765    -118.50015    2018-04-17T16:08:47Z    
4/17/2018    9:08:47    39.39         12.88        1.01      90.00                 5.04          33.61     2792  34.00765    -118.50015    2018-04-17T16:08:47Z    
4/17/2018    9:08:47    39.40         12.88        1.00      89.99                 5.01          33.62     2793  34.00765    -118.50015    2018-04-17T16:08:47Z    
4/17/2018    9:08:47    39.41         12.88        0.97      90.00                 4.82          33.63     2794  34.00765    -118.50015    2018-04-17T16:08:47Z    
4/17/2018    9:08:47    39.41         12.88        0.95      89.99                 4.67          33.63     2795  34.00765    -118.50015    2018-04-17T16:08:47Z    
4/17/2018    9:08:47    39.41         12.88        0.91      89.96                 4.52          33.62     2796  34.00765    -118.50015    2018-04-17T16:08:47Z    
4/17/2018    9:08:48    39.41         12.89        0.90      89.99                 4.50          33.62     2797  34.00765    -118.50015    2018-04-17T16:08:48Z    
4/17/2018    9:08:48    39.40         12.89        0.90      90.02                 4.53          33.61     2798  34.00765    -118.50015    2018-04-17T16:08:48Z    
4/17/2018    9:08:48    39.39         12.89        0.92      89.99                 4.63          33.61     2799  34.00765    -118.50015    2018-04-17T16:08:48Z    
4/17/2018    9:08:48    39.39         12.89        0.94      89.94                 4.92          33.60     2800  34.00765    -118.50015    2018-04-17T16:08:48Z    
4/17/2018    9:08:48    39.39         12.89        0.97      89.95                 4.98          33.60     2801  34.00765    -118.50015    2018-04-17T16:08:48Z    
4/17/2018    9:08:48    39.39         12.88        0.99      89.99                 4.90          33.60     2802  34.00765    -118.50015    2018-04-17T16:08:48Z    
4/17/2018    9:08:49    39.39         12.88        1.01      90.01                 5.06          33.60     2803  34.00765    -118.50015    2018-04-17T16:08:49Z    
4/17/2018    9:08:49    39.39         12.88        1.01      90.03                 5.41          33.61     2804  34.00765    -118.50015    2018-04-17T16:08:49Z    
4/17/2018    9:08:49    39.39         12.88        1.02      90.03                 5.63          33.61     2805  34.00765    -118.50015    2018-04-17T16:08:49Z    
4/17/2018    9:08:49    39.39         12.88        0.99      90.09                 5.68          33.61     2806  34.00765    -118.50015    2018-04-17T16:08:49Z    
4/17/2018    9:08:49    39.39         12.88        0.96      90.04                 5.52          33.61     2807  34.00765    -118.50015    2018-04-17T16:08:49Z    
4/17/2018    9:08:49    39.40         12.88        0.92      90.05                 5.35          33.61     2808  34.00765    -118.50015    2018-04-17T16:08:49Z    
4/17/2018    9:08:50    39.40         12.88        0.88      90.10                 5.13          33.61     2809  34.00765    -118.50015    2018-04-17T16:08:50Z    
4/17/2018    9:08:50    39.40         12.88        0.82      90.13                 4.94          33.61     2810  34.00765    -118.50015    2018-04-17T16:08:50Z    
4/17/2018    9:08:50    39.40         12.88        0.78      90.10                 4.82          33.61     2811  34.00765    -118.50015    2018-04-17T16:08:50Z    
4/17/2018    9:08:50    39.40         12.88        0.75      90.12                 4.72          33.62     2812  34.00765    -118.50015    2018-04-17T16:08:50Z    
4/17/2018    9:08:50    39.40         12.88        0.74      90.13                 4.63          33.62     2813  34.00765    -118.50015    2018-04-17T16:08:50Z    
4/17/2018    9:08:50    39.40         12.88        0.73      90.13                 4.53          33.62     2814  34.00765    -118.50015    2018-04-17T16:08:50Z    
4/17/2018    9:08:51    39.40         12.89        0.75      90.12                 4.47          33.62     2815  34.00765    -118.50015    2018-04-17T16:08:51Z    
4/17/2018    9:08:51    39.41         12.89        0.78      90.08                 4.37          33.61     2816  34.00765    -118.50015    2018-04-17T16:08:51Z    
4/17/2018    9:08:51    39.41         12.89        0.82      90.10                 4.33          33.61     2817  34.00765    -118.50015    2018-04-17T16:08:51Z    
4/17/2018    9:08:51    39.40         12.89        0.86      90.17                 4.35          33.61     2818  34.00765    -118.50015    2018-04-17T16:08:51Z    
4/17/2018    9:08:51    39.40         12.89        0.91      90.19                 4.40          33.61     2819  34.00765    -118.50015    2018-04-17T16:08:51Z    
4/17/2018    9:08:51    39.40         12.89        0.95      90.17                 4.38          33.60     2820  34.00765    -118.50015    2018-04-17T16:08:51Z    
4/17/2018    9:08:52    39.40         12.89        0.98      90.18                 4.32          33.61     2821  34.00765    -118.50015    2018-04-17T16:08:52Z    
4/17/2018    9:08:52    39.41         12.88        1.01      90.21                 4.31          33.63     2822  34.00765    -118.50015    2018-04-17T16:08:52Z    
4/17/2018    9:08:52    39.42         12.88        1.05      90.19                 4.30          33.63     2823  34.00765    -118.50015    2018-04-17T16:08:52Z    
4/17/2018    9:08:52    39.42         12.88        1.08      90.20                 4.34          33.63     2824  34.00765    -118.50015    2018-04-17T16:08:52Z    
4/17/2018    9:08:52    39.42         12.89        1.10      90.22                 4.37          33.63     2825  34.00765    -118.50015    2018-04-17T16:08:52Z    
4/17/2018    9:08:52    39.42         12.89        1.12      90.23                 4.34          33.62     2826  34.00765    -118.50015    2018-04-17T16:08:52Z    
4/17/2018    9:08:53    39.42         12.90        1.13      90.23                 4.34          33.62     2827  34.00765    -118.50015    2018-04-17T16:08:53Z    
4/17/2018    9:08:53    39.42         12.90        1.13      90.21                 4.37          33.62     2828  34.00765    -118.50015    2018-04-17T16:08:53Z    
4/17/2018    9:08:53    39.42         12.90        1.13      90.25                 4.33          33.62     2829  34.00765    -118.50015    2018-04-17T16:08:53Z    
4/17/2018    9:08:53    39.42         12.91        1.12      90.24                 4.24          33.61     2830  34.00765    -118.50015    2018-04-17T16:08:53Z    
4/17/2018    9:08:53    39.42         12.91        1.11      90.26                 4.20          33.61     2831  34.00765    -118.50015    2018-04-17T16:08:53Z    
4/17/2018    9:08:53    39.42         12.91        1.10      90.21                 4.49          33.61     2832  34.00765    -118.50015    2018-04-17T16:08:53Z    
4/17/2018    9:08:54    39.42         12.91        1.11      90.24                 4.58          33.61     2833  34.00765    -118.50015    2018-04-17T16:08:54Z    
4/17/2018    9:08:54    39.42         12.91        1.13      90.21                 4.54          33.61     2834  34.00765    -118.50015    2018-04-17T16:08:54Z    
4/17/2018    9:08:54    39.42         12.91        1.16      90.21                 4.42          33.61     2835  34.00765    -118.50015    2018-04-17T16:08:54Z    
4/17/2018    9:08:54    39.42         12.91        1.19      90.20                 4.40          33.61     2836  34.00765    -118.50015    2018-04-17T16:08:54Z    
4/17/2018    9:08:54    39.42         12.91        1.21      90.28                 4.35          33.61     2837  34.00765    -118.50015    2018-04-17T16:08:54Z    
4/17/2018    9:08:54    39.42         12.91        1.25      90.23                 4.35          33.61     2838  34.00765    -118.50015    2018-04-17T16:08:54Z    
4/17/2018    9:08:55    39.41         12.91        1.26      90.23                 4.32          33.61     2839  34.00765    -118.50015    2018-04-17T16:08:55Z    
4/17/2018    9:08:55    39.41         12.89        1.27      90.26                 4.24          33.62     2840  34.00765    -118.50015    2018-04-17T16:08:55Z    
4/17/2018    9:08:55    39.41         12.88        1.28      90.33                 4.19          33.62     2841  34.00765    -118.50015    2018-04-17T16:08:55Z    
4/17/2018    9:08:55    39.40         12.87        1.25      90.31                 4.12          33.62     2842  34.00765    -118.50015    2018-04-17T16:08:55Z    
4/17/2018    9:08:55    39.39         12.87        1.24      90.31                 4.12          33.61     2843  34.00765    -118.50015    2018-04-17T16:08:55Z    
4/17/2018    9:08:55    39.38         12.87        1.20      90.29                 4.23          33.61     2844  34.00765    -118.50015    2018-04-17T16:08:55Z    
4/17/2018    9:08:56    39.38         12.87        1.16      90.32                 4.28          33.60     2845  34.00765    -118.50015    2018-04-17T16:08:56Z    
4/17/2018    9:08:56    39.39         12.88        1.10      90.29                 4.32          33.61     2846  34.00765    -118.50015    2018-04-17T16:08:56Z    
4/17/2018    9:08:56    39.39         12.88        1.03      90.30                 4.29          33.60     2847  34.00765    -118.50015    2018-04-17T16:08:56Z    
4/17/2018    9:08:56    39.39         12.89        0.96      90.29                 4.18          33.60     2848  34.00765    -118.50015    2018-04-17T16:08:56Z    
4/17/2018    9:08:56    39.39         12.89        0.88      90.26                 4.37          33.60     2849  34.00765    -118.50015    2018-04-17T16:08:56Z    
4/17/2018    9:08:56    39.40         12.89        0.81      90.22                 4.50          33.61     2850  34.00765    -118.50015    2018-04-17T16:08:56Z    
4/17/2018    9:08:57    39.40         12.88        0.76      90.22                 4.46          33.61     2851  34.00765    -118.50015    2018-04-17T16:08:57Z    
4/17/2018    9:08:57    39.40         12.88        0.70      90.28                 4.29          33.61     2852  34.00765    -118.50015    2018-04-17T16:08:57Z    
4/17/2018    9:08:57    39.40         12.88        0.69      90.25                 4.29          33.62     2853  34.00765    -118.50015    2018-04-17T16:08:57Z    
4/17/2018    9:08:57    39.40         12.88        0.64      90.23                 4.28          33.62     2854  34.00765    -118.50015    2018-04-17T16:08:57Z    
4/17/2018    9:08:57    39.40         12.88        0.64      90.24                 4.25          33.62     2855  34.00765    -118.50015    2018-04-17T16:08:57Z    
4/17/2018    9:08:57    39.40         12.88        0.63      90.24                 4.25          33.61     2856  34.00765    -118.50015    2018-04-17T16:08:57Z    
4/17/2018    9:08:58    39.40         12.89        0.63      90.22                 4.23          33.61     2857  34.00765    -118.50015    2018-04-17T16:08:58Z    
4/17/2018    9:08:58    39.40         12.89        0.62      90.22                 4.30          33.61     2858  34.00765    -118.50015    2018-04-17T16:08:58Z    
4/17/2018    9:08:58    39.41         12.89        0.63      90.21                 4.37          33.61     2859  34.00765    -118.50015    2018-04-17T16:08:58Z    
4/17/2018    9:08:58    39.41         12.89        0.63      90.21                 4.37          33.61     2860  34.00765    -118.50015    2018-04-17T16:08:58Z    
4/17/2018    9:08:58    39.41         12.89        0.62      90.19                 4.27          33.62     2861  34.00765    -118.50015    2018-04-17T16:08:58Z    
4/17/2018    9:08:58    39.41         12.90        0.62      90.24                 4.17          33.62     2862  34.00765    -118.50015    2018-04-17T16:08:58Z    
4/17/2018    9:08:59    39.42         12.90        0.63      90.20                 4.13          33.62     2863  34.00765    -118.50015    2018-04-17T16:08:59Z    
4/17/2018    9:08:59    39.41         12.90        0.64      90.21                 4.06          33.62     2864  34.00765    -118.50015    2018-04-17T16:08:59Z    
4/17/2018    9:08:59    39.42         12.90        0.66      90.21                 4.09          33.62     2865  34.00765    -118.50015    2018-04-17T16:08:59Z    
4/17/2018    9:08:59    39.42         12.90        0.69      90.22                 4.06          33.62     2866  34.00765    -118.50015    2018-04-17T16:08:59Z    
4/17/2018    9:08:59    39.41         12.90        0.71      90.24                 4.08          33.62     2867  34.00765    -118.50015    2018-04-17T16:08:59Z    
4/17/2018    9:08:59    39.42         12.90        0.76      90.25                 4.05          33.62     2868  34.00765    -118.50015    2018-04-17T16:08:59Z    
4/17/2018    9:09:00    39.41         12.90        0.82      90.25                 4.04          33.61     2869  34.00765    -118.50015    2018-04-17T16:09:00Z    
4/17/2018    9:09:00    39.41         12.90        0.89      90.27                 4.11          33.61     2870  34.00765    -118.50015    2018-04-17T16:09:00Z    
4/17/2018    9:09:00    39.40         12.90        0.94      90.29                 4.26          33.60     2871  34.00765    -118.50015    2018-04-17T16:09:00Z    
4/17/2018    9:09:00    39.41         12.90        1.00      90.30                 4.24          33.61     2872  34.00765    -118.50015    2018-04-17T16:09:00Z    
4/17/2018    9:09:00    39.40         12.89        1.03      90.35                 4.24          33.61     2873  34.00765    -118.50015    2018-04-17T16:09:00Z    
4/17/2018    9:09:00    39.40         12.89        1.07      90.31                 4.24          33.61     2874  34.00765    -118.50015    2018-04-17T16:09:00Z    
4/17/2018    9:09:01    39.40         12.89        1.09      90.36                 4.22          33.61     2875  34.00765    -118.50015    2018-04-17T16:09:01Z    
4/17/2018    9:09:01    39.40         12.89        1.09      90.32                 4.31          33.61     2876  34.00765    -118.50015    2018-04-17T16:09:01Z    
4/17/2018    9:09:01    39.41         12.89        1.07      90.31                 4.27          33.62     2877  34.00765    -118.50015    2018-04-17T16:09:01Z    
4/17/2018    9:09:01    39.41         12.89        1.06      90.31                 4.27          33.61     2878  34.00765    -118.50015    2018-04-17T16:09:01Z    
4/17/2018    9:09:01    39.41         12.89        1.06      90.31                 4.27          33.61     2879  34.00765    -118.50015    2018-04-17T16:09:01Z    
4/17/2018    9:09:01    39.41         12.89        0.99      90.31                 4.46          33.61     2880  34.00765    -118.50015    2018-04-17T16:09:01Z    
4/17/2018    9:09:02    39.41         12.89        0.98      90.33                 4.55          33.61     2881  34.00765    -118.50015    2018-04-17T16:09:02Z    
4/17/2018    9:09:02    39.41         12.89        0.95      90.31                 4.52          33.61     2882  34.00765    -118.50015    2018-04-17T16:09:02Z    
4/17/2018    9:09:02    39.41         12.89        0.93      90.32                 4.38          33.61     2883  34.00765    -118.50015    2018-04-17T16:09:02Z    
4/17/2018    9:09:02    39.41         12.90        0.91      90.31                 4.35          33.61     2884  34.00765    -118.50015    2018-04-17T16:09:02Z    
4/17/2018    9:09:02    39.41         12.90        0.90      90.30                 4.33          33.61     2885  34.00765    -118.50015    2018-04-17T16:09:02Z    
4/17/2018    9:09:02    39.41         12.90        0.89      90.32                 4.31          33.61     2886  34.00765    -118.50015    2018-04-17T16:09:02Z    
4/17/2018    9:09:03    39.41         12.90        0.86      90.29                 4.43          33.61     2887  34.00765    -118.50015    2018-04-17T16:09:03Z    
4/17/2018    9:09:03    39.41         12.90        0.84      90.32                 4.40          33.61     2888  34.00765    -118.50015    2018-04-17T16:09:03Z    
4/17/2018    9:09:03    39.41         12.90        0.81      90.33                 4.34          33.62     2889  34.00765    -118.50015    2018-04-17T16:09:03Z    
4/17/2018    9:09:03    39.41         12.90        0.77      90.30                 4.24          33.61     2890  34.00765    -118.50015    2018-04-17T16:09:03Z    
4/17/2018    9:09:03    39.42         12.90        0.74      90.34                 4.14          33.61     2891  34.00765    -118.50015    2018-04-17T16:09:03Z    
4/17/2018    9:09:03    39.42         12.90        0.70      90.36                 4.01          33.62     2892  34.00765    -118.50015    2018-04-17T16:09:03Z    
4/17/2018    9:09:04    39.42         12.90        0.66      90.37                 3.90          33.61     2893  34.00765    -118.50015    2018-04-17T16:09:04Z    
4/17/2018    9:09:04    39.42         12.90        0.62      90.38                 4.05          33.61     2894  34.00765    -118.50015    2018-04-17T16:09:04Z    
4/17/2018    9:09:04    39.42         12.90        0.59      90.43                 4.09          33.62     2895  34.00765    -118.50015    2018-04-17T16:09:04Z    
4/17/2018    9:09:04    39.42         12.90        0.58      90.37                 4.16          33.62     2896  34.00765    -118.50015    2018-04-17T16:09:04Z    
4/17/2018    9:09:04    39.42         12.90        0.57      90.36                 4.18          33.61     2897  34.00765    -118.50015    2018-04-17T16:09:04Z    
4/17/2018    9:09:04    39.42         12.90        0.57      90.37                 4.08          33.62     2898  34.00765    -118.50015    2018-04-17T16:09:04Z    
4/17/2018    9:09:05    39.42         12.90        0.61      90.37                 3.98          33.62     2899  34.00765    -118.50015    2018-04-17T16:09:05Z    
4/17/2018    9:09:05    39.42         12.90        0.66      90.33                 3.87          33.62     2900  34.00765    -118.50015    2018-04-17T16:09:05Z    
4/17/2018    9:09:05    39.42         12.90        0.71      90.36                 3.81          33.62     2901  34.00765    -118.50015    2018-04-17T16:09:05Z    
4/17/2018    9:09:05    39.42         12.90        0.75      90.38                 3.79          33.62     2902  34.00765    -118.50015    2018-04-17T16:09:05Z    
4/17/2018    9:09:05    39.42         12.90        0.80      90.45                 3.79          33.62     2903  34.00765    -118.50015    2018-04-17T16:09:05Z    
4/17/2018    9:09:05    39.42         12.90        0.84      90.42                 3.81          33.62     2904  34.00765    -118.50015    2018-04-17T16:09:05Z    
4/17/2018    9:09:06    39.42         12.90        0.88      90.37                 3.87          33.62     2905  34.00765    -118.50015    2018-04-17T16:09:06Z    
4/17/2018    9:09:06    39.42         12.90        0.92      90.42                 3.92          33.62     2906  34.00765    -118.50015    2018-04-17T16:09:06Z    
4/17/2018    9:09:06    39.42         12.90        0.95      90.39                 3.87          33.61     2907  34.00765    -118.50015    2018-04-17T16:09:06Z    
4/17/2018    9:09:06    39.41         12.90        0.99      90.44                 3.81          33.61     2908  34.00765    -118.50015    2018-04-17T16:09:06Z    
4/17/2018    9:09:06    39.41         12.90        1.02      90.44                 3.79          33.61     2909  34.00765    -118.50015    2018-04-17T16:09:06Z    
4/17/2018    9:09:06    39.41         12.90        1.04      90.41                 3.83          33.61     2910  34.00765    -118.50015    2018-04-17T16:09:06Z    
4/17/2018    9:09:07    39.41         12.90        1.04      90.42                 3.84          33.60     2911  34.00765    -118.50015    2018-04-17T16:09:07Z    
4/17/2018    9:09:07    39.41         12.90        1.05      90.40                 3.85          33.60     2912  34.00765    -118.50015    2018-04-17T16:09:07Z    
4/17/2018    9:09:07    39.41         12.90        1.06      90.41                 3.76          33.61     2913  34.00765    -118.50015    2018-04-17T16:09:07Z    
4/17/2018    9:09:07    39.41         12.90        1.06      90.40                 3.74          33.61     2914  34.00765    -118.50015    2018-04-17T16:09:07Z    
4/17/2018    9:09:07    39.41         12.90        1.07      90.38                 3.84          33.61     2915  34.00765    -118.50015    2018-04-17T16:09:07Z    
4/17/2018    9:09:07    39.41         12.90        1.07      90.45                 3.97          33.61     2916  34.00765    -118.50015    2018-04-17T16:09:07Z    
4/17/2018    9:09:08    39.41         12.90        1.06      90.38                 3.96          33.61     2917  34.00765    -118.50015    2018-04-17T16:09:08Z    
4/17/2018    9:09:08    39.41         12.90        1.05      90.40                 4.05          33.61     2918  34.00765    -118.50015    2018-04-17T16:09:08Z    
4/17/2018    9:09:08    39.40         12.90        1.03      90.43                 4.03          33.60     2919  34.00765    -118.50015    2018-04-17T16:09:08Z    
4/17/2018    9:09:08    39.40         12.90        1.01      90.38                 3.86          33.60     2920  34.00765    -118.50015    2018-04-17T16:09:08Z    
4/17/2018    9:09:08    39.40         12.90        1.00      90.40                 3.73          33.60     2921  34.00765    -118.50015    2018-04-17T16:09:08Z    
4/17/2018    9:09:08    39.41         12.90        0.97      90.37                 3.69          33.61     2922  34.00765    -118.50015    2018-04-17T16:09:08Z    
4/17/2018    9:09:09    39.42         12.90        0.97      90.38                 3.63          33.61     2923  34.00765    -118.50015    2018-04-17T16:09:09Z    
4/17/2018    9:09:09    39.42         12.90        0.94      90.39                 3.57          33.61     2924  34.00765    -118.50015    2018-04-17T16:09:09Z    
4/17/2018    9:09:09    39.42         12.90        0.93      90.37                 3.60          33.62     2925  34.00765    -118.50015    2018-04-17T16:09:09Z    
4/17/2018    9:09:09    39.42         12.90        0.92      90.36                 3.62          33.62     2926  34.00765    -118.50015    2018-04-17T16:09:09Z    
4/17/2018    9:09:09    39.42         12.90        0.90      90.38                 3.54          33.61     2927  34.00765    -118.50015    2018-04-17T16:09:09Z    
4/17/2018    9:09:09    39.42         12.90        0.88      90.36                 3.54          33.62     2928  34.00765    -118.50015    2018-04-17T16:09:09Z    
4/17/2018    9:09:10    39.42         12.90        0.88      90.40                 3.56          33.62     2929  34.00765    -118.50015    2018-04-17T16:09:10Z    
4/17/2018    9:09:10    39.42         12.90        0.88      90.37                 3.54          33.61     2930  34.00765    -118.50015    2018-04-17T16:09:10Z    
4/17/2018    9:09:10    39.42         12.90        0.87      90.36                 3.66          33.62     2931  34.00765    -118.50015    2018-04-17T16:09:10Z    
4/17/2018    9:09:10    39.42         12.90        0.91      90.38                 3.78          33.61     2932  34.00765    -118.50015    2018-04-17T16:09:10Z    
4/17/2018    9:09:10    39.42         12.90        0.93      90.38                 3.82          33.62     2933  34.00765    -118.50015    2018-04-17T16:09:10Z    
4/17/2018    9:09:10    39.42         12.91        0.97      90.40                 3.82          33.62     2934  34.00765    -118.50015    2018-04-17T16:09:10Z    
4/17/2018    9:09:11    39.42         12.90        1.02      90.41                 3.93          33.62     2935  34.00765    -118.50015    2018-04-17T16:09:11Z    
4/17/2018    9:09:11    39.42         12.90        1.09      90.43                 3.95          33.61     2936  34.00765    -118.50015    2018-04-17T16:09:11Z    
4/17/2018    9:09:11    39.42         12.90        1.15      90.40                 4.05          33.62     2937  34.00765    -118.50015    2018-04-17T16:09:11Z    
4/17/2018    9:09:11    39.42         12.90        1.21      90.41                 4.12          33.61     2938  34.00765    -118.50015    2018-04-17T16:09:11Z    
4/17/2018    9:09:11    39.42         12.90        1.25      90.47                 4.21          33.61     2939  34.00765    -118.50015    2018-04-17T16:09:11Z    
4/17/2018    9:09:11    39.42         12.90        1.27      90.44                 4.20          33.62     2940  34.00765    -118.50015    2018-04-17T16:09:11Z    
4/17/2018    9:09:12    39.42         12.90        1.29      90.41                 4.28          33.62     2941  34.00765    -118.50015    2018-04-17T16:09:12Z    
4/17/2018    9:09:12    39.42         12.90        1.29      90.41                 4.33          33.62     2942  34.00765    -118.50015    2018-04-17T16:09:12Z    
4/17/2018    9:09:12    39.42         12.90        1.28      90.41                 4.19          33.62     2943  34.00765    -118.50015    2018-04-17T16:09:12Z    
4/17/2018    9:09:12    39.42         12.90        1.26      90.46                 4.03          33.62     2944  34.00765    -118.50015    2018-04-17T16:09:12Z    
4/17/2018    9:09:12    39.42         12.90        1.23      90.43                 3.95          33.62     2945  34.00765    -118.50015    2018-04-17T16:09:12Z    
4/17/2018    9:09:12    39.42         12.90        1.20      90.38                 4.02          33.62     2946  34.00765    -118.50015    2018-04-17T16:09:12Z    
4/17/2018    9:09:13    39.42         12.90        1.16      90.37                 3.97          33.62     2947  34.00765    -118.50015    2018-04-17T16:09:13Z    
4/17/2018    9:09:13    39.42         12.90        1.12      90.33                 3.98          33.61     2948  34.00765    -118.50015    2018-04-17T16:09:13Z    
4/17/2018    9:09:13    39.42         12.90        1.06      90.37                 3.90          33.62     2949  34.00765    -118.50015    2018-04-17T16:09:13Z    
4/17/2018    9:09:13    39.42         12.90        1.02      90.36                 3.96          33.62     2950  34.00765    -118.50015    2018-04-17T16:09:13Z    
4/17/2018    9:09:13    39.42         12.90        0.98      90.38                 3.99          33.62     2951  34.00765    -118.50015    2018-04-17T16:09:13Z    
4/17/2018    9:09:13    39.42         12.90        0.92      90.35                 4.06          33.62     2952  34.00765    -118.50015    2018-04-17T16:09:13Z    
4/17/2018    9:09:14    39.42         12.90        0.85      90.38                 4.05          33.62     2953  34.00765    -118.50015    2018-04-17T16:09:14Z    
4/17/2018    9:09:14    39.42         12.90        0.79      90.35                 4.04          33.62     2954  34.00765    -118.50015    2018-04-17T16:09:14Z    
4/17/2018    9:09:14    39.42         12.90        0.71      90.36                 4.06          33.62     2955  34.00765    -118.50015    2018-04-17T16:09:14Z    
4/17/2018    9:09:14    39.42         12.90        0.65      90.36                 4.11          33.62     2956  34.00765    -118.50015    2018-04-17T16:09:14Z    
4/17/2018    9:09:14    39.42         12.90        0.61      90.33                 4.06          33.62     2957  34.00765    -118.50015    2018-04-17T16:09:14Z    
4/17/2018    9:09:14    39.42         12.90        0.56      90.34                 3.96          33.61     2958  34.00765    -118.50015    2018-04-17T16:09:14Z    
4/17/2018    9:09:15    39.42         12.90        0.55      90.37                 3.92          33.61     2959  34.00765    -118.50015    2018-04-17T16:09:15Z    
4/17/2018    9:09:15    39.42         12.90        0.53      90.35                 3.82          33.61     2960  34.00765    -118.50015    2018-04-17T16:09:15Z    
4/17/2018    9:09:15    39.42         12.90        0.53      90.32                 3.76          33.62     2961  34.00765    -118.50015    2018-04-17T16:09:15Z    
4/17/2018    9:09:15    39.42         12.90        0.56      90.34                 3.75          33.62     2962  34.00765    -118.50015    2018-04-17T16:09:15Z    
4/17/2018    9:09:15    39.42         12.90        0.59      90.34                 3.85          33.62     2963  34.00765    -118.50015    2018-04-17T16:09:15Z    
4/17/2018    9:09:15    39.42         12.90        0.65      90.36                 3.94          33.61     2964  34.00765    -118.50015    2018-04-17T16:09:15Z    
4/17/2018    9:09:16    39.42         12.90        0.69      90.34                 3.95          33.62     2965  34.00765    -118.50015    2018-04-17T16:09:16Z    
4/17/2018    9:09:16    39.42         12.90        0.74      90.39                 3.94          33.62     2966  34.00765    -118.50015    2018-04-17T16:09:16Z    
4/17/2018    9:09:16    39.42         12.90        0.77      90.37                 3.88          33.62     2967  34.00765    -118.50015    2018-04-17T16:09:16Z    
4/17/2018    9:09:16    39.42         12.90        0.80      90.38                 3.84          33.62     2968  34.00765    -118.50015    2018-04-17T16:09:16Z    
4/17/2018    9:09:16    39.42         12.90        0.83      90.34                 3.91          33.62     2969  34.00765    -118.50015    2018-04-17T16:09:16Z    
4/17/2018    9:09:16    39.42         12.90        0.86      90.37                 3.94          33.61     2970  34.00765    -118.50015    2018-04-17T16:09:16Z    
4/17/2018    9:09:17    39.42         12.90        0.91      90.36                 4.01          33.61     2971  34.00765    -118.50015    2018-04-17T16:09:17Z    
4/17/2018    9:09:17    39.42         12.90        0.94      90.37                 4.00          33.61     2972  34.00765    -118.50015    2018-04-17T16:09:17Z    
4/17/2018    9:09:17    39.41         12.90        0.95      90.38                 3.95          33.61     2973  34.00765    -118.50015    2018-04-17T16:09:17Z    
4/17/2018    9:09:17    39.42         12.90        0.98      90.37                 4.04          33.61     2974  34.00765    -118.50015    2018-04-17T16:09:17Z    
4/17/2018    9:09:17    39.41         12.90        1.00      90.36                 4.09          33.61     2975  34.00765    -118.50015    2018-04-17T16:09:17Z    
4/17/2018    9:09:17    39.42         12.90        1.01      90.36                 4.02          33.61     2976  34.00765    -118.50015    2018-04-17T16:09:17Z    
4/17/2018    9:09:18    39.42         12.90        1.02      90.35                 4.00          33.61     2977  34.00765    -118.50015    2018-04-17T16:09:18Z    
4/17/2018    9:09:18    39.42         12.90        1.02      90.32                 3.96          33.61     2978  34.00765    -118.50015    2018-04-17T16:09:18Z    
4/17/2018    9:09:18    39.42         12.90        1.02      90.33                 3.93          33.61     2979  34.00765    -118.50015    2018-04-17T16:09:18Z    
4/17/2018    9:09:18    39.41         12.90        0.98      90.35                 3.97          33.60     2980  34.00765    -118.50015    2018-04-17T16:09:18Z    
4/17/2018    9:09:18    39.41         12.90        0.95      90.33                 3.96          33.61     2981  34.00765    -118.50015    2018-04-17T16:09:18Z    
4/17/2018    9:09:18    39.41         12.89        0.90      90.34                 3.87          33.61     2982  34.00765    -118.50015    2018-04-17T16:09:18Z    
4/17/2018    9:09:19    39.40         12.89        0.87      90.37                 3.84          33.61     2983  34.00765    -118.50015    2018-04-17T16:09:19Z    
4/17/2018    9:09:19    39.40         12.88        0.84      90.39                 3.91          33.61     2984  34.00765    -118.50015    2018-04-17T16:09:19Z    
4/17/2018    9:09:19    39.40         12.89        0.82      90.34                 3.99          33.61     2985  34.00765    -118.50015    2018-04-17T16:09:19Z    
4/17/2018    9:09:19    39.40         12.89        0.78      90.35                 4.20          33.61     2986  34.00765    -118.50015    2018-04-17T16:09:19Z    
4/17/2018    9:09:19    39.40         12.88        0.77      90.34                 4.23          33.62     2987  34.00765    -118.50015    2018-04-17T16:09:19Z    
4/17/2018    9:09:19    39.40         12.88        0.74      90.34                 4.14          33.62     2988  34.00765    -118.50015    2018-04-17T16:09:19Z    
4/17/2018    9:09:20    39.40         12.88        0.74      90.35                 4.04          33.62     2989  34.00765    -118.50015    2018-04-17T16:09:20Z    
4/17/2018    9:09:20    39.40         12.88        0.72      90.36                 4.00          33.62     2990  34.00765    -118.50015    2018-04-17T16:09:20Z    
4/17/2018    9:09:20    39.40         12.89        0.69      90.31                 4.01          33.62     2991  34.00765    -118.50015    2018-04-17T16:09:20Z    
4/17/2018    9:09:20    39.40         12.89        0.67      90.29                 4.10          33.61     2992  34.00765    -118.50015    2018-04-17T16:09:20Z    
4/17/2018    9:09:20    39.41         12.89        0.68      90.30                 4.10          33.61     2993  34.00765    -118.50015    2018-04-17T16:09:20Z    
4/17/2018    9:09:20    39.41         12.90        0.70      90.31                 4.00          33.61     2994  34.00765    -118.50015    2018-04-17T16:09:20Z    
4/17/2018    9:09:21    39.41         12.90        0.70      90.31                 3.93          33.60     2995  34.00765    -118.50015    2018-04-17T16:09:21Z    
4/17/2018    9:09:21    39.41         12.90        0.72      90.26                 3.85          33.61     2996  34.00765    -118.50015    2018-04-17T16:09:21Z    
4/17/2018    9:09:21    39.41         12.90        0.76      90.31                 3.97          33.61     2997  34.00765    -118.50015    2018-04-17T16:09:21Z    
4/17/2018    9:09:21    39.41         12.91        0.77      90.29                 3.93          33.61     2998  34.00765    -118.50015    2018-04-17T16:09:21Z    
4/17/2018    9:09:21    39.41         12.91        0.81      90.27                 3.85          33.60     2999  34.00765    -118.50015    2018-04-17T16:09:21Z    
4/18/2018    9:06:48    39.20         12.64        1.03      84.89                 5.48          33.64     1000  34.00765    -118.50015    2018-04-18T16:06:48Z    
4/18/2018    9:06:48    39.20         12.64        1.05      84.92                 5.87          33.64     1001  34.00765    -118.50015    2018-04-18T16:06:48Z    
4/18/2018    9:06:48    39.20         12.64        1.08      84.89                 5.82          33.64     1002  34.00765    -118.50015    2018-04-18T16:06:48Z    
4/18/2018    9:06:49    39.20         12.64        1.09      84.89                 5.65          33.64     1003  34.00765    -118.50015    2018-04-18T16:06:49Z    
4/18/2018    9:06:49    39.20         12.64        1.08      84.85                 5.44          33.64     1004  34.00765    -118.50015    2018-04-18T16:06:49Z    
4/18/2018    9:06:49    39.20         12.64        1.07      84.86                 5.23          33.64     1005  34.00765    -118.50015    2018-04-18T16:06:49Z    
4/18/2018    9:06:49    39.20         12.64        1.05      84.86                 5.09          33.64     1006  34.00765    -118.50015    2018-04-18T16:06:49Z    
4/18/2018    9:06:49    39.20         12.64        1.00      84.85                 5.04          33.64     1007  34.00765    -118.50015    2018-04-18T16:06:49Z    
4/18/2018    9:06:49    39.20         12.64        0.96      84.85                 5.27          33.64     1008  34.00765    -118.50015    2018-04-18T16:06:49Z    
4/18/2018    9:06:50    39.20         12.64        0.92      84.82                 5.24          33.64     1009  34.00765    -118.50015    2018-04-18T16:06:50Z    
4/18/2018    9:06:50    39.20         12.64        0.88      84.81                 5.15          33.64     1010  34.00765    -118.50015    2018-04-18T16:06:50Z    
4/18/2018    9:06:50    39.20         12.64        0.84      84.82                 5.04          33.65     1011  34.00765    -118.50015    2018-04-18T16:06:50Z    
4/18/2018    9:06:50    39.20         12.64        0.78      84.83                 5.07          33.65     1012  34.00765    -118.50015    2018-04-18T16:06:50Z    
4/18/2018    9:06:50    39.20         12.64        0.74      84.80                 5.10          33.64     1013  34.00765    -118.50015    2018-04-18T16:06:50Z    
4/18/2018    9:06:50    39.20         12.64        0.73      84.84                 4.95          33.64     1014  34.00765    -118.50015    2018-04-18T16:06:50Z    
4/18/2018    9:06:51    39.20         12.64        0.71      84.77                 5.10          33.64     1015  34.00765    -118.50015    2018-04-18T16:06:51Z    
4/18/2018    9:06:51    39.20         12.64        0.71      84.79                 5.07          33.64     1016  34.00765    -118.50015    2018-04-18T16:06:51Z    
4/18/2018    9:06:51    39.20         12.64        0.70      84.77                 5.03          33.64     1017  34.00765    -118.50015    2018-04-18T16:06:51Z    
4/18/2018    9:06:51    39.20         12.64        0.71      84.81                 4.89          33.64     1018  34.00765    -118.50015    2018-04-18T16:06:51Z    
4/18/2018    9:06:51    39.20         12.64        0.73      84.81                 4.76          33.64     1019  34.00765    -118.50015    2018-04-18T16:06:51Z    
4/18/2018    9:06:51    39.20         12.64        0.74      84.80                 4.63          33.64     1020  34.00765    -118.50015    2018-04-18T16:06:51Z    
4/18/2018    9:06:52    39.20         12.64        0.74      84.79                 4.53          33.64     1021  34.00765    -118.50015    2018-04-18T16:06:52Z    
4/18/2018    9:06:52    39.20         12.64        0.73      84.79                 4.57          33.65     1022  34.00765    -118.50015    2018-04-18T16:06:52Z    
4/18/2018    9:06:52    39.20         12.64        0.73      84.84                 4.62          33.64     1023  34.00765    -118.50015    2018-04-18T16:06:52Z    
4/18/2018    9:06:52    39.20         12.64        0.70      84.77                 4.64          33.64     1024  34.00765    -118.50015    2018-04-18T16:06:52Z    
4/18/2018    9:06:52    39.20         12.64        0.69      84.84                 4.73          33.64     1025  34.00765    -118.50015    2018-04-18T16:06:52Z    
4/18/2018    9:06:52    39.20         12.64        0.66      84.79                 4.76          33.64     1026  34.00765    -118.50015    2018-04-18T16:06:52Z    
4/18/2018    9:06:53    39.20         12.64        0.67      84.78                 4.81          33.65     1027  34.00765    -118.50015    2018-04-18T16:06:53Z    
4/18/2018    9:06:53    39.20         12.64        0.67      84.80                 4.80          33.65     1028  34.00765    -118.50015    2018-04-18T16:06:53Z    
4/18/2018    9:06:53    39.20         12.64        0.68      84.81                 4.75          33.65     1029  34.00765    -118.50015    2018-04-18T16:06:53Z    
4/18/2018    9:06:53    39.20         12.64        0.67      84.82                 4.70          33.65     1030  34.00765    -118.50015    2018-04-18T16:06:53Z    
4/18/2018    9:06:53    39.20         12.64        0.67      84.86                 4.66          33.64     1031  34.00765    -118.50015    2018-04-18T16:06:53Z    
4/18/2018    9:06:53    39.20         12.64        0.68      84.84                 4.66          33.64     1032  34.00765    -118.50015    2018-04-18T16:06:53Z    
4/18/2018    9:06:54    39.20         12.64        0.67      84.82                 4.72          33.64     1033  34.00765    -118.50015    2018-04-18T16:06:54Z    
4/18/2018    9:06:54    39.20         12.64        0.68      84.84                 4.65          33.64     1034  34.00765    -118.50015    2018-04-18T16:06:54Z    
4/18/2018    9:06:54    39.20         12.64        0.68      84.82                 4.55          33.64     1035  34.00765    -118.50015    2018-04-18T16:06:54Z    
4/18/2018    9:06:54    39.20         12.64        0.67      84.83                 4.43          33.64     1036  34.00765    -118.50015    2018-04-18T16:06:54Z    
4/18/2018    9:06:54    39.20         12.64        0.68      84.85                 4.37          33.64     1037  34.00765    -118.50015    2018-04-18T16:06:54Z    
4/18/2018    9:06:54    39.20         12.64        0.69      84.86                 4.36          33.65     1038  34.00765    -118.50015    2018-04-18T16:06:54Z    
4/18/2018    9:06:55    39.20         12.64        0.69      84.91                 4.43          33.65     1039  34.00765    -118.50015    2018-04-18T16:06:55Z    
4/18/2018    9:06:55    39.20         12.64        0.71      84.86                 4.47          33.65     1040  34.00765    -118.50015    2018-04-18T16:06:55Z    
4/18/2018    9:06:55    39.20         12.64        0.71      84.82                 4.47          33.65     1041  34.00765    -118.50015    2018-04-18T16:06:55Z    
4/18/2018    9:06:55    39.20         12.64        0.72      84.86                 4.44          33.65     1042  34.00765    -118.50015    2018-04-18T16:06:55Z    
4/18/2018    9:06:55    39.20         12.64        0.73      84.83                 4.46          33.65     1043  34.00765    -118.50015    2018-04-18T16:06:55Z    
4/18/2018    9:06:55    39.20         12.64        0.73      84.87                 4.46          33.65     1044  34.00765    -118.50015    2018-04-18T16:06:55Z    
4/18/2018    9:06:56    39.20         12.64        0.73      84.88                 4.48          33.64     1045  34.00765    -118.50015    2018-04-18T16:06:56Z    
4/18/2018    9:06:56    39.20         12.64        0.72      84.88                 4.45          33.65     1046  34.00765    -118.50015    2018-04-18T16:06:56Z    
4/18/2018    9:06:56    39.20         12.64        0.73      84.86                 4.46          33.65     1047  34.00765    -118.50015    2018-04-18T16:06:56Z    
4/18/2018    9:06:56    39.20         12.64        0.72      84.88                 4.45          33.65     1048  34.00765    -118.50015    2018-04-18T16:06:56Z    
4/18/2018    9:06:56    39.20         12.64        0.71      84.90                 4.36          33.65     1049  34.00765    -118.50015    2018-04-18T16:06:56Z    
4/18/2018    9:06:56    39.20         12.64        0.71      84.88                 4.37          33.65     1050  34.00765    -118.50015    2018-04-18T16:06:56Z    
4/18/2018    9:06:57    39.20         12.64        0.71      84.86                 4.38          33.65     1051  34.00765    -118.50015    2018-04-18T16:06:57Z    
4/18/2018    9:06:57    39.21         12.64        0.71      84.86                 4.36          33.65     1052  34.00765    -118.50015    2018-04-18T16:06:57Z    
4/18/2018    9:06:57    39.20         12.64        0.74      84.85                 4.69          33.65     1053  34.00765    -118.50015    2018-04-18T16:06:57Z    
4/18/2018    9:06:57    39.20         12.64        0.74      84.86                 4.81          33.65     1054  34.00765    -118.50015    2018-04-18T16:06:57Z    
4/18/2018    9:06:57    39.20         12.63        0.77      84.86                 4.81          33.65     1055  34.00765    -118.50015    2018-04-18T16:06:57Z    
4/18/2018    9:06:57    39.20         12.63        0.79      84.88                 4.77          33.65     1056  34.00765    -118.50015    2018-04-18T16:06:57Z    
4/18/2018    9:06:58    39.20         12.63        0.81      84.87                 4.77          33.65     1057  34.00765    -118.50015    2018-04-18T16:06:58Z    
4/18/2018    9:06:58    39.20         12.63        0.84      84.86                 4.82          33.65     1058  34.00765    -118.50015    2018-04-18T16:06:58Z    
4/18/2018    9:06:58    39.20         12.64        0.86      84.88                 4.89          33.65     1059  34.00765    -118.50015    2018-04-18T16:06:58Z    
4/18/2018    9:06:58    39.20         12.64        0.87      84.86                 4.79          33.64     1060  34.00765    -118.50015    2018-04-18T16:06:58Z    
4/18/2018    9:06:58    39.20         12.64        0.88      84.86                 4.78          33.65     1061  34.00765    -118.50015    2018-04-18T16:06:58Z    
4/18/2018    9:06:58    39.20         12.64        0.89      84.85                 4.75          33.65     1062  34.00765    -118.50015    2018-04-18T16:06:58Z    
4/18/2018    9:06:59    39.20         12.64        0.89      84.87                 4.68          33.65     1063  34.00765    -118.50015    2018-04-18T16:06:59Z    
4/18/2018    9:06:59    39.20         12.64        0.89      84.87                 4.56          33.65     1064  34.00765    -118.50015    2018-04-18T16:06:59Z    
4/18/2018    9:06:59    39.20         12.64        0.87      84.86                 4.52          33.65     1065  34.00765    -118.50015    2018-04-18T16:06:59Z    
4/18/2018    9:06:59    39.20         12.64        0.86      84.89                 4.79          33.65     1066  34.00765    -118.50015    2018-04-18T16:06:59Z    
4/18/2018    9:06:59    39.21         12.64        0.86      84.86                 5.31          33.65     1067  34.00765    -118.50015    2018-04-18T16:06:59Z    
4/18/2018    9:06:59    39.21         12.64        0.84      84.86                 5.95          33.65     1068  34.00765    -118.50015    2018-04-18T16:06:59Z    
4/18/2018    9:07:00    39.21         12.64        0.84      84.86                 5.90          33.65     1069  34.00765    -118.50015    2018-04-18T16:07:00Z    
4/18/2018    9:07:00    39.21         12.64        0.84      84.85                 5.55          33.65     1070  34.00765    -118.50015    2018-04-18T16:07:00Z    
4/18/2018    9:07:00    39.21         12.64        0.84      84.85                 5.33          33.65     1071  34.00765    -118.50015    2018-04-18T16:07:00Z    
4/18/2018    9:07:00    39.21         12.64        0.83      84.87                 5.18          33.65     1072  34.00765    -118.50015    2018-04-18T16:07:00Z    
4/18/2018    9:07:00    39.21         12.64        0.84      84.89                 4.97          33.65     1073  34.00765    -118.50015    2018-04-18T16:07:00Z    
4/18/2018    9:07:00    39.21         12.64        0.82      84.87                 4.81          33.65     1074  34.00765    -118.50015    2018-04-18T16:07:00Z    
4/18/2018    9:07:01    39.21         12.64        0.82      84.84                 4.74          33.65     1075  34.00765    -118.50015    2018-04-18T16:07:01Z    
4/18/2018    9:07:01    39.21         12.64        0.81      84.82                 4.75          33.65     1076  34.00765    -118.50015    2018-04-18T16:07:01Z    
4/18/2018    9:07:01    39.21         12.64        0.80      84.88                 4.83          33.65     1077  34.00765    -118.50015    2018-04-18T16:07:01Z    
4/18/2018    9:07:01    39.21         12.64        0.77      84.88                 4.83          33.65     1078  34.00765    -118.50015    2018-04-18T16:07:01Z    
4/18/2018    9:07:01    39.21         12.64        0.77      84.88                 4.83          33.65     1079  34.00765    -118.50015    2018-04-18T16:07:01Z    
4/18/2018    9:07:01    39.21         12.64        0.72      84.86                 4.80          33.65     1080  34.00765    -118.50015    2018-04-18T16:07:01Z    
4/18/2018    9:07:02    39.21         12.64        0.70      84.83                 4.97          33.65     1081  34.00765    -118.50015    2018-04-18T16:07:02Z    
4/18/2018    9:07:02    39.21         12.64        0.69      84.87                 5.17          33.65     1082  34.00765    -118.50015    2018-04-18T16:07:02Z    
4/18/2018    9:07:02    39.21         12.64        0.68      84.85                 5.17          33.65     1083  34.00765    -118.50015    2018-04-18T16:07:02Z    
4/18/2018    9:07:02    39.20         12.64        0.67      84.83                 5.01          33.65     1084  34.00765    -118.50015    2018-04-18T16:07:02Z    
4/18/2018    9:07:02    39.20         12.64        0.67      84.86                 4.91          33.64     1085  34.00765    -118.50015    2018-04-18T16:07:02Z    
4/18/2018    9:07:02    39.20         12.64        0.70      84.85                 4.92          33.64     1086  34.00765    -118.50015    2018-04-18T16:07:02Z    
4/18/2018    9:07:03    39.20         12.64        0.71      84.85                 4.98          33.64     1087  34.00765    -118.50015    2018-04-18T16:07:03Z    
4/18/2018    9:07:03    39.20         12.64        0.74      84.86                 4.88          33.64     1088  34.00765    -118.50015    2018-04-18T16:07:03Z    
4/18/2018    9:07:03    39.20         12.64        0.76      84.82                 4.91          33.64     1089  34.00765    -118.50015    2018-04-18T16:07:03Z    
4/18/2018    9:07:03    39.20         12.64        0.78      84.84                 5.01          33.64     1090  34.00765    -118.50015    2018-04-18T16:07:03Z    
4/18/2018    9:07:03    39.20         12.64        0.80      84.86                 4.95          33.64     1091  34.00765    -118.50015    2018-04-18T16:07:03Z    
4/18/2018    9:07:03    39.20         12.64        0.81      84.85                 4.86          33.64     1092  34.00765    -118.50015    2018-04-18T16:07:03Z    
4/18/2018    9:07:04    39.20         12.64        0.81      84.86                 5.02          33.65     1093  34.00765    -118.50015    2018-04-18T16:07:04Z    
4/18/2018    9:07:04    39.20         12.64        0.81      84.85                 5.15          33.65     1094  34.00765    -118.50015    2018-04-18T16:07:04Z    
4/18/2018    9:07:04    39.20         12.64        0.80      84.85                 5.07          33.64     1095  34.00765    -118.50015    2018-04-18T16:07:04Z    
4/18/2018    9:07:04    39.20         12.64        0.80      84.85                 4.91          33.65     1096  34.00765    -118.50015    2018-04-18T16:07:04Z    
4/18/2018    9:07:04    39.20         12.64        0.79      84.84                 5.08          33.65     1097  34.00765    -118.50015    2018-04-18T16:07:04Z    
4/18/2018    9:07:04    39.20         12.64        0.78      84.85                 5.09          33.65     1098  34.00765    -118.50015    2018-04-18T16:07:04Z    
4/18/2018    9:07:05    39.20         12.64        0.77      84.86                 4.93          33.65     1099  34.00765    -118.50015    2018-04-18T16:07:05Z    
4/18/2018    9:07:05    39.20         12.64        0.76      84.84                 4.76          33.65     1100  34.00765    -118.50015    2018-04-18T16:07:05Z    
4/18/2018    9:07:05    39.20         12.64        0.76      84.86                 4.68          33.65     1101  34.00765    -118.50015    2018-04-18T16:07:05Z    
4/18/2018    9:07:05    39.20         12.64        0.75      84.87                 4.59          33.65     1102  34.00765    -118.50015    2018-04-18T16:07:05Z    
4/18/2018    9:07:05    39.21         12.64        0.75      84.87                 4.54          33.65     1103  34.00765    -118.50015    2018-04-18T16:07:05Z    
4/18/2018    9:07:05    39.20         12.64        0.76      84.86                 4.50          33.65     1104  34.00765    -118.50015    2018-04-18T16:07:05Z    
4/18/2018    9:07:06    39.20         12.64        0.75      84.83                 4.47          33.65     1105  34.00765    -118.50015    2018-04-18T16:07:06Z    
4/18/2018    9:07:06    39.20         12.64        0.77      84.86                 4.47          33.65     1106  34.00765    -118.50015    2018-04-18T16:07:06Z    
4/18/2018    9:07:06    39.20         12.64        0.76      84.87                 4.51          33.65     1107  34.00765    -118.50015    2018-04-18T16:07:06Z    
4/18/2018    9:07:06    39.20         12.64        0.76      84.89                 4.56          33.65     1108  34.00765    -118.50015    2018-04-18T16:07:06Z    
4/18/2018    9:07:06    39.20         12.64        0.76      84.85                 4.56          33.65     1109  34.00765    -118.50015    2018-04-18T16:07:06Z    
4/18/2018    9:07:06    39.21         12.64        0.75      84.84                 4.54          33.65     1110  34.00765    -118.50015    2018-04-18T16:07:06Z    
4/18/2018    9:07:07    39.21         12.64        0.74      84.80                 4.82          33.65     1111  34.00765    -118.50015    2018-04-18T16:07:07Z    
4/18/2018    9:07:07    39.20         12.64        0.75      84.84                 4.81          33.65     1112  34.00765    -118.50015    2018-04-18T16:07:07Z    
4/18/2018    9:07:07    39.20         12.64        0.76      84.86                 4.75          33.64     1113  34.00765    -118.50015    2018-04-18T16:07:07Z    
4/18/2018    9:07:07    39.20         12.64        0.79      84.83                 4.81          33.64     1114  34.00765    -118.50015    2018-04-18T16:07:07Z    
4/18/2018    9:07:07    39.20         12.64        0.82      84.84                 4.73          33.64     1115  34.00765    -118.50015    2018-04-18T16:07:07Z    
4/18/2018    9:07:07    39.20         12.64        0.84      84.84                 5.22          33.64     1116  34.00765    -118.50015    2018-04-18T16:07:07Z    
4/18/2018    9:07:08    39.20         12.64        0.87      84.88                 5.50          33.64     1117  34.00765    -118.50015    2018-04-18T16:07:08Z    
4/18/2018    9:07:08    39.20         12.64        0.89      84.87                 6.01          33.64     1118  34.00765    -118.50015    2018-04-18T16:07:08Z    
4/18/2018    9:07:08    39.20         12.64        0.91      84.85                 5.97          33.64     1119  34.00765    -118.50015    2018-04-18T16:07:08Z    
4/18/2018    9:07:08    39.20         12.64        0.90      84.83                 5.82          33.65     1120  34.00765    -118.50015    2018-04-18T16:07:08Z    
4/18/2018    9:07:08    39.20         12.64        0.91      84.87                 5.57          33.65     1121  34.00765    -118.50015    2018-04-18T16:07:08Z    
4/18/2018    9:07:08    39.20         12.64        0.92      84.88                 5.54          33.65     1122  34.00765    -118.50015    2018-04-18T16:07:08Z    
4/18/2018    9:07:09    39.20         12.64        0.90      84.86                 5.48          33.65     1123  34.00765    -118.50015    2018-04-18T16:07:09Z    
4/18/2018    9:07:09    39.20         12.64        0.88      84.86                 5.34          33.65     1124  34.00765    -118.50015    2018-04-18T16:07:09Z    
4/18/2018    9:07:09    39.20         12.64        0.86      84.85                 5.18          33.64     1125  34.00765    -118.50015    2018-04-18T16:07:09Z    
4/18/2018    9:07:09    39.20         12.64        0.82      84.90                 5.22          33.64     1126  34.00765    -118.50015    2018-04-18T16:07:09Z    
4/18/2018    9:07:09    39.20         12.64        0.80      84.88                 5.15          33.64     1127  34.00765    -118.50015    2018-04-18T16:07:09Z    
4/18/2018    9:07:09    39.20         12.64        0.77      84.83                 5.35          33.64     1128  34.00765    -118.50015    2018-04-18T16:07:09Z    
4/18/2018    9:07:10    39.20         12.64        0.74      84.86                 5.60          33.64     1129  34.00765    -118.50015    2018-04-18T16:07:10Z    
4/18/2018    9:07:10    39.20         12.64        0.72      84.85                 5.44          33.65     1130  34.00765    -118.50015    2018-04-18T16:07:10Z    
4/18/2018    9:07:10    39.20         12.64        0.70      84.85                 5.42          33.65     1131  34.00765    -118.50015    2018-04-18T16:07:10Z    
4/18/2018    9:07:10    39.20         12.64        0.69      84.85                 5.30          33.65     1132  34.00765    -118.50015    2018-04-18T16:07:10Z    
4/18/2018    9:07:10    39.20         12.64        0.69      84.82                 5.18          33.65     1133  34.00765    -118.50015    2018-04-18T16:07:10Z    
4/18/2018    9:07:10    39.20         12.64        0.69      84.86                 5.17          33.64     1134  34.00765    -118.50015    2018-04-18T16:07:10Z    
4/18/2018    9:07:11    39.20         12.64        0.71      84.84                 5.32          33.64     1135  34.00765    -118.50015    2018-04-18T16:07:11Z    
4/18/2018    9:07:11    39.20         12.64        0.73      84.85                 5.60          33.64     1136  34.00765    -118.50015    2018-04-18T16:07:11Z    
4/18/2018    9:07:11    39.20         12.64        0.74      84.85                 5.54          33.64     1137  34.00765    -118.50015    2018-04-18T16:07:11Z    
4/18/2018    9:07:11    39.20         12.64        0.77      84.84                 5.37          33.64     1138  34.00765    -118.50015    2018-04-18T16:07:11Z    
4/18/2018    9:07:11    39.20         12.64        0.78      84.84                 5.21          33.64     1139  34.00765    -118.50015    2018-04-18T16:07:11Z    
4/18/2018    9:07:11    39.20         12.64        0.81      84.86                 5.10          33.64     1140  34.00765    -118.50015    2018-04-18T16:07:11Z    
4/18/2018    9:07:12    39.20         12.64        0.83      84.83                 5.03          33.64     1141  34.00765    -118.50015    2018-04-18T16:07:12Z    
4/18/2018    9:07:12    39.20         12.64        0.84      84.84                 4.95          33.64     1142  34.00765    -118.50015    2018-04-18T16:07:12Z    
4/18/2018    9:07:12    39.20         12.64        0.85      84.86                 5.09          33.65     1143  34.00765    -118.50015    2018-04-18T16:07:12Z    
4/18/2018    9:07:12    39.20         12.64        0.84      84.86                 5.06          33.65     1144  34.00765    -118.50015    2018-04-18T16:07:12Z    
4/18/2018    9:07:12    39.20         12.64        0.85      84.88                 5.04          33.65     1145  34.00765    -118.50015    2018-04-18T16:07:12Z    
4/18/2018    9:07:12    39.20         12.64        0.83      84.85                 4.92          33.65     1146  34.00765    -118.50015    2018-04-18T16:07:12Z    
4/18/2018    9:07:13    39.20         12.64        0.84      84.85                 4.89          33.65     1147  34.00765    -118.50015    2018-04-18T16:07:13Z    
4/18/2018    9:07:13    39.21         12.64        0.81      84.85                 5.01          33.65     1148  34.00765    -118.50015    2018-04-18T16:07:13Z    
4/18/2018    9:07:13    39.21         12.64        0.81      84.84                 5.00          33.65     1149  34.00765    -118.50015    2018-04-18T16:07:13Z    
4/18/2018    9:07:13    39.21         12.64        0.79      84.84                 5.02          33.65     1150  34.00765    -118.50015    2018-04-18T16:07:13Z    
4/18/2018    9:07:13    39.21         12.64        0.79      84.86                 4.95          33.65     1151  34.00765    -118.50015    2018-04-18T16:07:13Z    
4/18/2018    9:07:13    39.20         12.64        0.78      84.88                 4.89          33.65     1152  34.00765    -118.50015    2018-04-18T16:07:13Z    
4/18/2018    9:07:14    39.20         12.64        0.75      84.87                 4.69          33.65     1153  34.00765    -118.50015    2018-04-18T16:07:14Z    
4/18/2018    9:07:14    39.20         12.64        0.72      84.86                 4.48          33.65     1154  34.00765    -118.50015    2018-04-18T16:07:14Z    
4/18/2018    9:07:14    39.20         12.64        0.71      84.86                 4.41          33.64     1155  34.00765    -118.50015    2018-04-18T16:07:14Z    
4/18/2018    9:07:14    39.20         12.64        0.68      84.88                 4.69          33.64     1156  34.00765    -118.50015    2018-04-18T16:07:14Z    
4/18/2018    9:07:14    39.20         12.64        0.66      84.86                 4.84          33.64     1157  34.00765    -118.50015    2018-04-18T16:07:14Z    
4/18/2018    9:07:14    39.20         12.64        0.66      84.87                 4.82          33.64     1158  34.00765    -118.50015    2018-04-18T16:07:14Z    
4/18/2018    9:07:15    39.20         12.64        0.66      84.86                 4.70          33.64     1159  34.00765    -118.50015    2018-04-18T16:07:15Z    
4/18/2018    9:07:15    39.20         12.64        0.67      84.88                 4.61          33.64     1160  34.00765    -118.50015    2018-04-18T16:07:15Z    
4/18/2018    9:07:15    39.20         12.64        0.67      84.84                 4.61          33.64     1161  34.00765    -118.50015    2018-04-18T16:07:15Z    
4/18/2018    9:07:15    39.20         12.64        0.68      84.84                 4.68          33.64     1162  34.00765    -118.50015    2018-04-18T16:07:15Z    
4/18/2018    9:07:15    39.20         12.64        0.70      84.85                 4.75          33.64     1163  34.00765    -118.50015    2018-04-18T16:07:15Z    
4/18/2018    9:07:15    39.20         12.64        0.71      84.83                 4.93          33.64     1164  34.00765    -118.50015    2018-04-18T16:07:15Z    
4/18/2018    9:07:16    39.20         12.64        0.73      84.83                 4.91          33.64     1165  34.00765    -118.50015    2018-04-18T16:07:16Z    
4/18/2018    9:07:16    39.20         12.64        0.75      84.87                 5.00          33.64     1166  34.00765    -118.50015    2018-04-18T16:07:16Z    
4/18/2018    9:07:16    39.20         12.64        0.77      84.84                 4.97          33.64     1167  34.00765    -118.50015    2018-04-18T16:07:16Z    
4/18/2018    9:07:16    39.20         12.64        0.77      84.83                 4.93          33.64     1168  34.00765    -118.50015    2018-04-18T16:07:16Z    
4/18/2018    9:07:16    39.20         12.64        0.79      84.85                 4.87          33.65     1169  34.00765    -118.50015    2018-04-18T16:07:16Z    
4/18/2018    9:07:16    39.20         12.64        0.79      84.87                 4.85          33.65     1170  34.00765    -118.50015    2018-04-18T16:07:16Z    
4/18/2018    9:07:17    39.20         12.64        0.78      84.92                 4.82          33.65     1171  34.00765    -118.50015    2018-04-18T16:07:17Z    
4/18/2018    9:07:17    39.20         12.64        0.79      84.87                 4.96          33.65     1172  34.00765    -118.50015    2018-04-18T16:07:17Z    
4/18/2018    9:07:17    39.20         12.64        0.78      84.87                 5.04          33.65     1173  34.00765    -118.50015    2018-04-18T16:07:17Z    
4/18/2018    9:07:17    39.20         12.64        0.76      84.87                 4.97          33.65     1174  34.00765    -118.50015    2018-04-18T16:07:17Z    
4/18/2018    9:07:17    39.20         12.64        0.78      84.83                 4.88          33.65     1175  34.00765    -118.50015    2018-04-18T16:07:17Z    
4/18/2018    9:07:17    39.20         12.64        0.76      84.83                 4.83          33.65     1176  34.00765    -118.50015    2018-04-18T16:07:17Z    
4/18/2018    9:07:18    39.20         12.64        0.77      84.88                 4.67          33.65     1177  34.00765    -118.50015    2018-04-18T16:07:18Z    
4/18/2018    9:07:18    39.20         12.64        0.75      84.86                 4.58          33.65     1178  34.00765    -118.50015    2018-04-18T16:07:18Z    
4/18/2018    9:07:18    39.20         12.64        0.74      84.87                 4.94          33.65     1179  34.00765    -118.50015    2018-04-18T16:07:18Z    
4/18/2018    9:07:18    39.20         12.64        0.72      84.85                 5.05          33.65     1180  34.00765    -118.50015    2018-04-18T16:07:18Z    
4/18/2018    9:07:18    39.20         12.64        0.71      84.88                 4.97          33.65     1181  34.00765    -118.50015    2018-04-18T16:07:18Z    
4/18/2018    9:07:18    39.20         12.64        0.69      84.86                 4.71          33.65     1182  34.00765    -118.50015    2018-04-18T16:07:18Z    
4/18/2018    9:07:19    39.20         12.64        0.68      84.86                 4.55          33.65     1183  34.00765    -118.50015    2018-04-18T16:07:19Z    
4/18/2018    9:07:19    39.20         12.64        0.66      84.85                 4.52          33.65     1184  34.00765    -118.50015    2018-04-18T16:07:19Z    
4/18/2018    9:07:19    39.20         12.64        0.65      84.88                 4.55          33.65     1185  34.00765    -118.50015    2018-04-18T16:07:19Z    
4/18/2018    9:07:19    39.20         12.64        0.66      84.86                 4.60          33.65     1186  34.00765    -118.50015    2018-04-18T16:07:19Z    
4/18/2018    9:07:19    39.20         12.64        0.68      84.84                 4.58          33.64     1187  34.00765    -118.50015    2018-04-18T16:07:19Z    
4/18/2018    9:07:19    39.20         12.64        0.70      84.85                 4.62          33.64     1188  34.00765    -118.50015    2018-04-18T16:07:19Z    
4/18/2018    9:07:20    39.20         12.64        0.71      84.84                 4.77          33.64     1189  34.00765    -118.50015    2018-04-18T16:07:20Z    
4/18/2018    9:07:20    39.20         12.64        0.74      84.85                 5.01          33.65     1190  34.00765    -118.50015    2018-04-18T16:07:20Z    
4/18/2018    9:07:20    39.20         12.64        0.76      84.84                 5.08          33.64     1191  34.00765    -118.50015    2018-04-18T16:07:20Z    
4/18/2018    9:07:20    39.20         12.64        0.78      84.86                 4.96          33.65     1192  34.00765    -118.50015    2018-04-18T16:07:20Z    
4/18/2018    9:07:20    39.20         12.64        0.80      84.86                 4.94          33.65     1193  34.00765    -118.50015    2018-04-18T16:07:20Z    
4/18/2018    9:07:20    39.20         12.64        0.81      84.86                 5.15          33.65     1194  34.00765    -118.50015    2018-04-18T16:07:20Z    
4/18/2018    9:07:21    39.20         12.64        0.83      84.89                 5.17          33.65     1195  34.00765    -118.50015    2018-04-18T16:07:21Z    
4/18/2018    9:07:21    39.21         12.64        0.82      84.89                 5.02          33.65     1196  34.00765    -118.50015    2018-04-18T16:07:21Z    
4/18/2018    9:07:21    39.21         12.64        0.83      84.89                 4.86          33.65     1197  34.00765    -118.50015    2018-04-18T16:07:21Z    
4/18/2018    9:07:21    39.21         12.64        0.82      84.88                 5.06          33.65     1198  34.00765    -118.50015    2018-04-18T16:07:21Z    
4/18/2018    9:07:21    39.20         12.64        0.84      84.86                 5.03          33.65     1199  34.00765    -118.50015    2018-04-18T16:07:21Z    
4/18/2018    9:07:21    39.21         12.64        0.83      84.89                 5.15          33.65     1200  34.00765    -118.50015    2018-04-18T16:07:21Z    
4/18/2018    9:07:22    39.21         12.64        0.83      84.84                 5.04          33.65     1201  34.00765    -118.50015    2018-04-18T16:07:22Z    
4/18/2018    9:07:22    39.21         12.64        0.84      84.86                 5.29          33.65     1202  34.00765    -118.50015    2018-04-18T16:07:22Z    
4/18/2018    9:07:22    39.20         12.64        0.82      84.85                 5.58          33.65     1203  34.00765    -118.50015    2018-04-18T16:07:22Z    
4/18/2018    9:07:22    39.20         12.64        0.82      84.87                 5.48          33.65     1204  34.00765    -118.50015    2018-04-18T16:07:22Z    
4/18/2018    9:07:22    39.20         12.64        0.81      84.86                 5.29          33.65     1205  34.00765    -118.50015    2018-04-18T16:07:22Z    
4/18/2018    9:07:22    39.20         12.64        0.79      84.87                 5.10          33.64     1206  34.00765    -118.50015    2018-04-18T16:07:22Z    
4/18/2018    9:07:23    39.20         12.64        0.77      84.85                 4.99          33.65     1207  34.00765    -118.50015    2018-04-18T16:07:23Z    
4/18/2018    9:07:23    39.20         12.64        0.75      84.85                 5.05          33.64     1208  34.00765    -118.50015    2018-04-18T16:07:23Z    
4/18/2018    9:07:23    39.20         12.64        0.72      84.83                 5.11          33.65     1209  34.00765    -118.50015    2018-04-18T16:07:23Z    
4/18/2018    9:07:23    39.21         12.64        0.70      84.84                 5.22          33.65     1210  34.00765    -118.50015    2018-04-18T16:07:23Z    
4/18/2018    9:07:23    39.21         12.64        0.67      84.80                 5.38          33.65     1211  34.00765    -118.50015    2018-04-18T16:07:23Z    
4/18/2018    9:07:23    39.21         12.64        0.67      84.84                 5.30          33.65     1212  34.00765    -118.50015    2018-04-18T16:07:23Z    
4/18/2018    9:07:24    39.21         12.64        0.64      84.81                 5.34          33.65     1213  34.00765    -118.50015    2018-04-18T16:07:24Z    
4/18/2018    9:07:24    39.21         12.64        0.61      84.83                 5.26          33.65     1214  34.00765    -118.50015    2018-04-18T16:07:24Z    
4/18/2018    9:07:24    39.21         12.64        0.60      84.81                 5.30          33.65     1215  34.00765    -118.50015    2018-04-18T16:07:24Z    
4/18/2018    9:07:24    39.20         12.64        0.60      84.82                 5.11          33.64     1216  34.00765    -118.50015    2018-04-18T16:07:24Z    
4/18/2018    9:07:24    39.20         12.64        0.62      84.80                 4.88          33.64     1217  34.00765    -118.50015    2018-04-18T16:07:24Z    
4/18/2018    9:07:24    39.20         12.64        0.64      84.82                 4.76          33.64     1218  34.00765    -118.50015    2018-04-18T16:07:24Z    
4/18/2018    9:07:25    39.20         12.64        0.66      84.76                 4.78          33.64     1219  34.00765    -118.50015    2018-04-18T16:07:25Z    
4/18/2018    9:07:25    39.20         12.64        0.68      84.80                 4.71          33.64     1220  34.00765    -118.50015    2018-04-18T16:07:25Z    
4/18/2018    9:07:25    39.20         12.64        0.71      84.79                 4.64          33.64     1221  34.00765    -118.50015    2018-04-18T16:07:25Z    
4/18/2018    9:07:25    39.20         12.64        0.74      84.79                 4.64          33.64     1222  34.00765    -118.50015    2018-04-18T16:07:25Z    
4/18/2018    9:07:25    39.20         12.64        0.77      84.80                 4.70          33.64     1223  34.00765    -118.50015    2018-04-18T16:07:25Z    
4/18/2018    9:07:25    39.20         12.64        0.80      84.81                 4.71          33.64     1224  34.00765    -118.50015    2018-04-18T16:07:25Z    
4/18/2018    9:07:26    39.20         12.64        0.83      84.81                 4.84          33.64     1225  34.00765    -118.50015    2018-04-18T16:07:26Z    
4/18/2018    9:07:26    39.20         12.64        0.86      84.77                 4.81          33.64     1226  34.00765    -118.50015    2018-04-18T16:07:26Z    
4/18/2018    9:07:26    39.20         12.64        0.88      84.83                 4.79          33.64     1227  34.00765    -118.50015    2018-04-18T16:07:26Z    
4/18/2018    9:07:26    39.20         12.64        0.90      84.79                 4.73          33.64     1228  34.00765    -118.50015    2018-04-18T16:07:26Z    
4/18/2018    9:07:26    39.20         12.64        0.91      84.80                 4.75          33.64     1229  34.00765    -118.50015    2018-04-18T16:07:26Z    
4/18/2018    9:07:26    39.20         12.64        0.89      84.79                 4.68          33.64     1230  34.00765    -118.50015    2018-04-18T16:07:26Z    
4/18/2018    9:07:27    39.20         12.64        0.88      84.81                 4.82          33.64     1231  34.00765    -118.50015    2018-04-18T16:07:27Z    
4/18/2018    9:07:27    39.20         12.64        0.87      84.82                 4.99          33.64     1232  34.00765    -118.50015    2018-04-18T16:07:27Z    
4/18/2018    9:07:27    39.20         12.64        0.84      84.80                 4.97          33.64     1233  34.00765    -118.50015    2018-04-18T16:07:27Z    
4/18/2018    9:07:27    39.20         12.64        0.82      84.82                 4.89          33.64     1234  34.00765    -118.50015    2018-04-18T16:07:27Z    
4/18/2018    9:07:27    39.20         12.64        0.80      84.80                 4.83          33.64     1235  34.00765    -118.50015    2018-04-18T16:07:27Z    
4/18/2018    9:07:27    39.20         12.64        0.78      84.80                 4.71          33.64     1236  34.00765    -118.50015    2018-04-18T16:07:27Z    
4/18/2018    9:07:28    39.20         12.64        0.76      84.80                 4.62          33.64     1237  34.00765    -118.50015    2018-04-18T16:07:28Z    
4/18/2018    9:07:28    39.20         12.64        0.73      84.83                 4.71          33.64     1238  34.00765    -118.50015    2018-04-18T16:07:28Z    
4/18/2018    9:07:28    39.20         12.64        0.70      84.79                 4.75          33.64     1239  34.00765    -118.50015    2018-04-18T16:07:28Z    
4/18/2018    9:07:28    39.20         12.64        0.67      84.80                 4.69          33.64     1240  34.00765    -118.50015    2018-04-18T16:07:28Z    
4/18/2018    9:07:28    39.20         12.64        0.64      84.78                 4.83          33.64     1241  34.00765    -118.50015    2018-04-18T16:07:28Z    
4/18/2018    9:07:28    39.20         12.64        0.61      84.81                 4.71          33.64     1242  34.00765    -118.50015    2018-04-18T16:07:28Z    
4/18/2018    9:07:29    39.20         12.64        0.60      84.82                 4.51          33.64     1243  34.00765    -118.50015    2018-04-18T16:07:29Z    
4/18/2018    9:07:29    39.20         12.64        0.58      84.81                 4.35          33.64     1244  34.00765    -118.50015    2018-04-18T16:07:29Z    
4/18/2018    9:07:29    39.20         12.64        0.56      84.79                 4.37          33.64     1245  34.00765    -118.50015    2018-04-18T16:07:29Z    
4/18/2018    9:07:29    39.20         12.64        0.57      84.83                 4.56          33.64     1246  34.00765    -118.50015    2018-04-18T16:07:29Z    
4/18/2018    9:07:29    39.20         12.64        0.57      84.83                 4.75          33.64     1247  34.00765    -118.50015    2018-04-18T16:07:29Z    
4/18/2018    9:07:29    39.20         12.64        0.59      84.86                 4.79          33.64     1248  34.00765    -118.50015    2018-04-18T16:07:29Z    
4/18/2018    9:07:30    39.19         12.64        0.61      84.85                 4.77          33.64     1249  34.00765    -118.50015    2018-04-18T16:07:30Z    
4/18/2018    9:07:30    39.19         12.64        0.65      84.77                 4.82          33.64     1250  34.00765    -118.50015    2018-04-18T16:07:30Z    
4/18/2018    9:07:30    39.19         12.64        0.66      84.81                 5.12          33.64     1251  34.00765    -118.50015    2018-04-18T16:07:30Z    
4/18/2018    9:07:30    39.20         12.64        0.71      84.83                 5.37          33.64     1252  34.00765    -118.50015    2018-04-18T16:07:30Z    
4/18/2018    9:07:30    39.20         12.64        0.74      84.84                 5.21          33.64     1253  34.00765    -118.50015    2018-04-18T16:07:30Z    
4/18/2018    9:07:30    39.20         12.64        0.76      84.80                 5.12          33.64     1254  34.00765    -118.50015    2018-04-18T16:07:30Z    
4/18/2018    9:07:31    39.20         12.64        0.78      84.82                 5.02          33.64     1255  34.00765    -118.50015    2018-04-18T16:07:31Z    
4/18/2018    9:07:31    39.20         12.64        0.79      84.81                 4.94          33.64     1256  34.00765    -118.50015    2018-04-18T16:07:31Z    
4/18/2018    9:07:31    39.20         12.64        0.80      84.84                 4.74          33.64     1257  34.00765    -118.50015    2018-04-18T16:07:31Z    
4/18/2018    9:07:31    39.20         12.64        0.83      84.82                 4.62          33.64     1258  34.00765    -118.50015    2018-04-18T16:07:31Z    
4/18/2018    9:07:31    39.20         12.64        0.82      84.85                 4.67          33.64     1259  34.00765    -118.50015    2018-04-18T16:07:31Z    
4/18/2018    9:07:31    39.20         12.64        0.84      84.83                 4.98          33.64     1260  34.00765    -118.50015    2018-04-18T16:07:31Z    
4/18/2018    9:07:32    39.20         12.64        0.86      84.82                 5.12          33.65     1261  34.00765    -118.50015    2018-04-18T16:07:32Z    
4/18/2018    9:07:32    39.20         12.64        0.87      84.84                 5.09          33.65     1262  34.00765    -118.50015    2018-04-18T16:07:32Z    
4/18/2018    9:07:32    39.20         12.64        0.87      84.83                 5.19          33.65     1263  34.00765    -118.50015    2018-04-18T16:07:32Z    
4/18/2018    9:07:32    39.20         12.64        0.88      84.86                 5.17          33.64     1264  34.00765    -118.50015    2018-04-18T16:07:32Z    
4/18/2018    9:07:32    39.20         12.64        0.85      84.84                 5.13          33.64     1265  34.00765    -118.50015    2018-04-18T16:07:32Z    
4/18/2018    9:07:32    39.20         12.64        0.84      84.84                 4.92          33.64     1266  34.00765    -118.50015    2018-04-18T16:07:32Z    
4/18/2018    9:07:33    39.20         12.64        0.82      84.84                 4.78          33.64     1267  34.00765    -118.50015    2018-04-18T16:07:33Z    
4/18/2018    9:07:33    39.20         12.64        0.79      84.83                 4.67          33.64     1268  34.00765    -118.50015    2018-04-18T16:07:33Z    
4/18/2018    9:07:33    39.19         12.64        0.79      84.85                 4.63          33.63     1269  34.00765    -118.50015    2018-04-18T16:07:33Z    
4/18/2018    9:07:33    39.19         12.64        0.76      84.83                 4.65          33.64     1270  34.00765    -118.50015    2018-04-18T16:07:33Z    
4/18/2018    9:07:33    39.21         12.64        0.73      84.85                 4.59          33.65     1271  34.00765    -118.50015    2018-04-18T16:07:33Z    
4/18/2018    9:07:33    39.20         12.64        0.73      84.86                 4.63          33.65     1272  34.00765    -118.50015    2018-04-18T16:07:33Z    
4/18/2018    9:07:34    39.20         12.64        0.74      84.84                 4.59          33.65     1273  34.00765    -118.50015    2018-04-18T16:07:34Z    
4/18/2018    9:07:34    39.20         12.64        0.74      84.81                 4.57          33.65     1274  34.00765    -118.50015    2018-04-18T16:07:34Z    
4/18/2018    9:07:34    39.20         12.64        0.75      84.84                 4.51          33.64     1275  34.00765    -118.50015    2018-04-18T16:07:34Z    
4/18/2018    9:07:34    39.20         12.64        0.76      84.87                 4.45          33.64     1276  34.00765    -118.50015    2018-04-18T16:07:34Z    
4/18/2018    9:07:34    39.20         12.64        0.77      84.86                 4.57          33.65     1277  34.00765    -118.50015    2018-04-18T16:07:34Z    
4/18/2018    9:07:34    39.20         12.64        0.79      84.82                 4.72          33.64     1278  34.00765    -118.50015    2018-04-18T16:07:34Z    
4/18/2018    9:07:35    39.20         12.64        0.80      84.81                 4.75          33.64     1279  34.00765    -118.50015    2018-04-18T16:07:35Z    
4/18/2018    9:07:35    39.20         12.64        0.81      84.79                 4.86          33.64     1280  34.00765    -118.50015    2018-04-18T16:07:35Z    
4/18/2018    9:07:35    39.20         12.64        0.81      84.80                 4.82          33.64     1281  34.00765    -118.50015    2018-04-18T16:07:35Z    
4/18/2018    9:07:35    39.20         12.64        0.83      84.82                 4.77          33.65     1282  34.00765    -118.50015    2018-04-18T16:07:35Z    
4/18/2018    9:07:35    39.20         12.64        0.84      84.82                 4.72          33.64     1283  34.00765    -118.50015    2018-04-18T16:07:35Z    
4/18/2018    9:07:35    39.20         12.64        0.85      84.83                 4.63          33.65     1284  34.00765    -118.50015    2018-04-18T16:07:35Z    
4/18/2018    9:07:36    39.20         12.64        0.86      84.82                 4.68          33.65     1285  34.00765    -118.50015    2018-04-18T16:07:36Z    
4/18/2018    9:07:36    39.21         12.64        0.86      84.85                 4.61          33.65     1286  34.00765    -118.50015    2018-04-18T16:07:36Z    
4/18/2018    9:07:36    39.21         12.64        0.84      84.80                 4.66          33.65     1287  34.00765    -118.50015    2018-04-18T16:07:36Z    
4/18/2018    9:07:36    39.20         12.64        0.83      84.81                 4.65          33.64     1288  34.00765    -118.50015    2018-04-18T16:07:36Z    
4/18/2018    9:07:36    39.20         12.64        0.81      84.82                 4.59          33.64     1289  34.00765    -118.50015    2018-04-18T16:07:36Z    
4/18/2018    9:07:36    39.20         12.64        0.77      84.76                 4.54          33.64     1290  34.00765    -118.50015    2018-04-18T16:07:36Z    
4/18/2018    9:07:37    39.20         12.64        0.74      84.78                 4.44          33.65     1291  34.00765    -118.50015    2018-04-18T16:07:37Z    
4/18/2018    9:07:37    39.20         12.64        0.71      84.79                 4.38          33.65     1292  34.00765    -118.50015    2018-04-18T16:07:37Z    
4/18/2018    9:07:37    39.20         12.64        0.68      84.83                 4.48          33.65     1293  34.00765    -118.50015    2018-04-18T16:07:37Z    
4/18/2018    9:07:37    39.20         12.64        0.66      84.80                 4.60          33.65     1294  34.00765    -118.50015    2018-04-18T16:07:37Z    
4/18/2018    9:07:37    39.21         12.64        0.65      84.79                 4.55          33.65     1295  34.00765    -118.50015    2018-04-18T16:07:37Z    
4/18/2018    9:07:37    39.20         12.64        0.63      84.82                 4.56          33.64     1296  34.00765    -118.50015    2018-04-18T16:07:37Z    
4/18/2018    9:07:38    39.20         12.64        0.64      84.79                 4.58          33.64     1297  34.00765    -118.50015    2018-04-18T16:07:38Z    
4/18/2018    9:07:38    39.20         12.64        0.65      84.83                 4.68          33.64     1298  34.00765    -118.50015    2018-04-18T16:07:38Z    
4/18/2018    9:07:38    39.20         12.64        0.64      84.81                 4.92          33.64     1299  34.00765    -118.50015    2018-04-18T16:07:38Z    
4/18/2018    9:07:38    39.20         12.64        0.64      84.81                 5.19          33.64     1300  34.00765    -118.50015    2018-04-18T16:07:38Z    
4/18/2018    9:07:38    39.20         12.64        0.65      84.79                 5.40          33.64     1301  34.00765    -118.50015    2018-04-18T16:07:38Z    
4/18/2018    9:07:38    39.20         12.64        0.64      84.83                 5.32          33.64     1302  34.00765    -118.50015    2018-04-18T16:07:38Z    
4/18/2018    9:07:39    39.20         12.64        0.63      84.81                 5.46          33.65     1303  34.00765    -118.50015    2018-04-18T16:07:39Z    
4/18/2018    9:07:39    39.20         12.64        0.61      84.79                 5.41          33.65     1304  34.00765    -118.50015    2018-04-18T16:07:39Z    
4/18/2018    9:07:39    39.20         12.64        0.60      84.80                 5.27          33.65     1305  34.00765    -118.50015    2018-04-18T16:07:39Z    
4/18/2018    9:07:39    39.21         12.64        0.61      84.78                 5.15          33.65     1306  34.00765    -118.50015    2018-04-18T16:07:39Z    
4/18/2018    9:07:39    39.20         12.64        0.60      84.79                 5.14          33.65     1307  34.00765    -118.50015    2018-04-18T16:07:39Z    
4/18/2018    9:07:39    39.20         12.64        0.61      84.81                 5.04          33.64     1308  34.00765    -118.50015    2018-04-18T16:07:39Z    
4/18/2018    9:07:40    39.20         12.64        0.63      84.81                 4.87          33.64     1309  34.00765    -118.50015    2018-04-18T16:07:40Z    
4/18/2018    9:07:40    39.20         12.63        0.65      84.79                 4.70          33.64     1310  34.00765    -118.50015    2018-04-18T16:07:40Z    
4/18/2018    9:07:40    39.20         12.64        0.68      84.80                 4.60          33.64     1311  34.00765    -118.50015    2018-04-18T16:07:40Z    
4/18/2018    9:07:40    39.20         12.64        0.70      84.78                 4.56          33.64     1312  34.00765    -118.50015    2018-04-18T16:07:40Z    
4/18/2018    9:07:40    39.20         12.64        0.72      84.82                 4.55          33.65     1313  34.00765    -118.50015    2018-04-18T16:07:40Z    
4/18/2018    9:07:40    39.20         12.64        0.73      84.81                 4.52          33.65     1314  34.00765    -118.50015    2018-04-18T16:07:40Z    
4/18/2018    9:07:41    39.20         12.64        0.72      84.77                 4.49          33.65     1315  34.00765    -118.50015    2018-04-18T16:07:41Z    
4/18/2018    9:07:41    39.20         12.63        0.71      84.77                 4.58          33.65     1316  34.00765    -118.50015    2018-04-18T16:07:41Z    
4/18/2018    9:07:41    39.20         12.63        0.69      84.81                 5.28          33.65     1317  34.00765    -118.50015    2018-04-18T16:07:41Z    
4/18/2018    9:07:41    39.20         12.63        0.66      84.79                 5.41          33.64     1318  34.00765    -118.50015    2018-04-18T16:07:41Z    
4/18/2018    9:07:41    39.20         12.63        0.65      84.76                 5.23          33.64     1319  34.00765    -118.50015    2018-04-18T16:07:41Z    
4/18/2018    9:07:41    39.20         12.63        0.62      84.75                 5.04          33.64     1320  34.00765    -118.50015    2018-04-18T16:07:41Z    
4/18/2018    9:07:42    39.20         12.63        0.62      84.74                 4.88          33.65     1321  34.00765    -118.50015    2018-04-18T16:07:42Z    
4/18/2018    9:07:42    39.20         12.63        0.64      84.72                 4.81          33.65     1322  34.00765    -118.50015    2018-04-18T16:07:42Z    
4/18/2018    9:07:42    39.19         12.63        0.67      84.68                 4.83          33.65     1323  34.00765    -118.50015    2018-04-18T16:07:42Z    
4/18/2018    9:07:42    39.19         12.63        0.72      84.72                 4.86          33.64     1324  34.00765    -118.50015    2018-04-18T16:07:42Z    
4/18/2018    9:07:42    39.19         12.63        0.78      84.71                 4.83          33.64     1325  34.00765    -118.50015    2018-04-18T16:07:42Z    
4/18/2018    9:07:42    39.19         12.63        0.84      84.67                 4.89          33.64     1326  34.00765    -118.50015    2018-04-18T16:07:42Z    
4/18/2018    9:07:43    39.19         12.63        0.89      84.65                 4.95          33.64     1327  34.00765    -118.50015    2018-04-18T16:07:43Z    
4/18/2018    9:07:43    39.20         12.63        0.94      84.62                 5.07          33.65     1328  34.00765    -118.50015    2018-04-18T16:07:43Z    
4/18/2018    9:07:43    39.20         12.63        0.99      84.60                 5.28          33.64     1329  34.00765    -118.50015    2018-04-18T16:07:43Z    
4/18/2018    9:07:43    39.20         12.63        1.03      84.61                 5.17          33.65     1330  34.00765    -118.50015    2018-04-18T16:07:43Z    
4/18/2018    9:07:43    39.20         12.63        1.06      84.55                 4.95          33.65     1331  34.00765    -118.50015    2018-04-18T16:07:43Z    
4/18/2018    9:07:43    39.20         12.63        1.06      84.52                 4.80          33.64     1332  34.00765    -118.50015    2018-04-18T16:07:43Z    
4/18/2018    9:07:44    39.20         12.63        1.07      84.51                 4.64          33.64     1333  34.00765    -118.50015    2018-04-18T16:07:44Z    
4/18/2018    9:07:44    39.20         12.63        1.07      84.52                 4.52          33.64     1334  34.00765    -118.50015    2018-04-18T16:07:44Z    
4/18/2018    9:07:44    39.20         12.63        1.04      84.49                 5.49          33.64     1335  34.00765    -118.50015    2018-04-18T16:07:44Z    
4/18/2018    9:07:44    39.20         12.64        1.03      84.50                 5.77          33.64     1336  34.00765    -118.50015    2018-04-18T16:07:44Z    
4/18/2018    9:07:44    39.20         12.64        1.00      84.47                 5.62          33.64     1337  34.00765    -118.50015    2018-04-18T16:07:44Z    
4/18/2018    9:07:44    39.20         12.64        0.95      84.44                 5.31          33.64     1338  34.00765    -118.50015    2018-04-18T16:07:44Z    
4/18/2018    9:07:45    39.20         12.64        0.90      84.45                 5.03          33.64     1339  34.00765    -118.50015    2018-04-18T16:07:45Z    
4/18/2018    9:07:45    39.20         12.63        0.87      84.43                 4.86          33.64     1340  34.00765    -118.50015    2018-04-18T16:07:45Z    
4/18/2018    9:07:45    39.20         12.63        0.82      84.49                 4.87          33.65     1341  34.00765    -118.50015    2018-04-18T16:07:45Z    
4/18/2018    9:07:45    39.20         12.64        0.81      84.44                 4.88          33.65     1342  34.00765    -118.50015    2018-04-18T16:07:45Z    
4/18/2018    9:07:45    39.20         12.64        0.78      84.46                 5.02          33.65     1343  34.00765    -118.50015    2018-04-18T16:07:45Z    
4/18/2018    9:07:45    39.20         12.64        0.78      84.44                 5.00          33.64     1344  34.00765    -118.50015    2018-04-18T16:07:45Z    
4/18/2018    9:07:46    39.20         12.64        0.76      84.42                 4.98          33.64     1345  34.00765    -118.50015    2018-04-18T16:07:46Z    
4/18/2018    9:07:46    39.20         12.64        0.74      84.48                 4.92          33.65     1346  34.00765    -118.50015    2018-04-18T16:07:46Z    
4/18/2018    9:07:46    39.20         12.64        0.72      84.45                 4.86          33.64     1347  34.00765    -118.50015    2018-04-18T16:07:46Z    
4/18/2018    9:07:46    39.20         12.64        0.70      84.42                 4.97          33.65     1348  34.00765    -118.50015    2018-04-18T16:07:46Z    
4/18/2018    9:07:46    39.20         12.64        0.68      84.43                 4.99          33.65     1349  34.00765    -118.50015    2018-04-18T16:07:46Z    
4/18/2018    9:07:46    39.20         12.64        0.67      84.46                 5.09          33.65     1350  34.00765    -118.50015    2018-04-18T16:07:46Z    
4/18/2018    9:07:47    39.20         12.64        0.65      84.46                 5.08          33.65     1351  34.00765    -118.50015    2018-04-18T16:07:47Z    
4/18/2018    9:07:47    39.20         12.64        0.67      84.38                 4.96          33.65     1352  34.00765    -118.50015    2018-04-18T16:07:47Z    
4/18/2018    9:07:47    39.20         12.64        0.67      84.43                 4.85          33.64     1353  34.00765    -118.50015    2018-04-18T16:07:47Z    
4/18/2018    9:07:47    39.20         12.64        0.69      84.45                 4.90          33.64     1354  34.00765    -118.50015    2018-04-18T16:07:47Z    
4/18/2018    9:07:47    39.20         12.64        0.72      84.50                 5.01          33.64     1355  34.00765    -118.50015    2018-04-18T16:07:47Z    
4/18/2018    9:07:47    39.20         12.64        0.73      84.47                 4.94          33.64     1356  34.00765    -118.50015    2018-04-18T16:07:47Z    
4/18/2018    9:07:48    39.20         12.64        0.73      84.47                 4.85          33.64     1357  34.00765    -118.50015    2018-04-18T16:07:48Z    
4/18/2018    9:07:48    39.20         12.64        0.72      84.48                 4.87          33.65     1358  34.00765    -118.50015    2018-04-18T16:07:48Z    
4/18/2018    9:07:48    39.20         12.64        0.72      84.49                 4.85          33.65     1359  34.00765    -118.50015    2018-04-18T16:07:48Z    
4/18/2018    9:07:48    39.20         12.64        0.72      84.51                 4.73          33.64     1360  34.00765    -118.50015    2018-04-18T16:07:48Z    
4/18/2018    9:07:48    39.20         12.64        0.71      84.50                 4.71          33.64     1361  34.00765    -118.50015    2018-04-18T16:07:48Z    
4/18/2018    9:07:48    39.20         12.64        0.69      84.50                 4.68          33.64     1362  34.00765    -118.50015    2018-04-18T16:07:48Z    
4/18/2018    9:07:49    39.20         12.64        0.69      84.49                 4.59          33.65     1363  34.00765    -118.50015    2018-04-18T16:07:49Z    
4/18/2018    9:07:49    39.20         12.64        0.69      84.46                 4.48          33.65     1364  34.00765    -118.50015    2018-04-18T16:07:49Z    
4/18/2018    9:07:49    39.20         12.64        0.68      84.55                 4.44          33.65     1365  34.00765    -118.50015    2018-04-18T16:07:49Z    
4/18/2018    9:07:49    39.20         12.64        0.68      84.50                 4.55          33.65     1366  34.00765    -118.50015    2018-04-18T16:07:49Z    
4/18/2018    9:07:49    39.20         12.64        0.69      84.51                 4.67          33.65     1367  34.00765    -118.50015    2018-04-18T16:07:49Z    
4/18/2018    9:07:49    39.20         12.64        0.71      84.52                 4.74          33.64     1368  34.00765    -118.50015    2018-04-18T16:07:49Z    
4/18/2018    9:07:50    39.20         12.64        0.71      84.50                 4.75          33.64     1369  34.00765    -118.50015    2018-04-18T16:07:50Z    
4/18/2018    9:07:50    39.20         12.64        0.72      84.51                 4.69          33.64     1370  34.00765    -118.50015    2018-04-18T16:07:50Z    
4/18/2018    9:07:50    39.20         12.64        0.73      84.53                 4.63          33.65     1371  34.00765    -118.50015    2018-04-18T16:07:50Z    
4/18/2018    9:07:50    39.20         12.64        0.72      84.54                 4.59          33.65     1372  34.00765    -118.50015    2018-04-18T16:07:50Z    
4/18/2018    9:07:50    39.20         12.63        0.74      84.56                 4.56          33.65     1373  34.00765    -118.50015    2018-04-18T16:07:50Z    
4/18/2018    9:07:50    39.20         12.63        0.76      84.56                 4.60          33.65     1374  34.00765    -118.50015    2018-04-18T16:07:50Z    
4/18/2018    9:07:51    39.20         12.63        0.77      84.53                 4.71          33.65     1375  34.00765    -118.50015    2018-04-18T16:07:51Z    
4/18/2018    9:07:51    39.20         12.63        0.77      84.55                 5.25          33.65     1376  34.00765    -118.50015    2018-04-18T16:07:51Z    
4/18/2018    9:07:51    39.20         12.63        0.77      84.50                 5.34          33.65     1377  34.00765    -118.50015    2018-04-18T16:07:51Z    
4/18/2018    9:07:51    39.20         12.63        0.79      84.54                 5.56          33.65     1378  34.00765    -118.50015    2018-04-18T16:07:51Z    
4/18/2018    9:07:51    39.20         12.63        0.79      84.54                 5.62          33.65     1379  34.00765    -118.50015    2018-04-18T16:07:51Z    
4/18/2018    9:07:51    39.20         12.63        0.79      84.58                 5.85          33.65     1380  34.00765    -118.50015    2018-04-18T16:07:51Z    
4/18/2018    9:07:52    39.20         12.64        0.77      84.59                 6.04          33.65     1381  34.00765    -118.50015    2018-04-18T16:07:52Z    
4/18/2018    9:07:52    39.20         12.64        0.76      84.57                 5.91          33.65     1382  34.00765    -118.50015    2018-04-18T16:07:52Z    
4/18/2018    9:07:52    39.20         12.64        0.77      84.57                 5.58          33.65     1383  34.00765    -118.50015    2018-04-18T16:07:52Z    
4/18/2018    9:07:52    39.20         12.64        0.76      84.53                 5.42          33.65     1384  34.00765    -118.50015    2018-04-18T16:07:52Z    
4/18/2018    9:07:52    39.20         12.64        0.76      84.51                 5.49          33.65     1385  34.00765    -118.50015    2018-04-18T16:07:52Z    
4/18/2018    9:07:52    39.20         12.64        0.76      84.52                 5.53          33.65     1386  34.00765    -118.50015    2018-04-18T16:07:52Z    
4/18/2018    9:07:53    39.20         12.64        0.76      84.50                 5.38          33.65     1387  34.00765    -118.50015    2018-04-18T16:07:53Z    
4/18/2018    9:07:53    39.20         12.64        0.77      84.50                 5.26          33.65     1388  34.00765    -118.50015    2018-04-18T16:07:53Z    
4/18/2018    9:07:53    39.20         12.64        0.76      84.52                 5.13          33.65     1389  34.00765    -118.50015    2018-04-18T16:07:53Z    
4/18/2018    9:07:53    39.20         12.64        0.76      84.51                 5.00          33.65     1390  34.00765    -118.50015    2018-04-18T16:07:53Z    
4/18/2018    9:07:53    39.20         12.64        0.74      84.50                 4.90          33.65     1391  34.00765    -118.50015    2018-04-18T16:07:53Z    
4/18/2018    9:07:53    39.20         12.64        0.71      84.52                 5.01          33.64     1392  34.00765    -118.50015    2018-04-18T16:07:53Z    
4/18/2018    9:07:54    39.20         12.64        0.68      84.52                 5.10          33.64     1393  34.00765    -118.50015    2018-04-18T16:07:54Z    
4/18/2018    9:07:54    39.20         12.64        0.65      84.49                 5.01          33.64     1394  34.00765    -118.50015    2018-04-18T16:07:54Z    
4/18/2018    9:07:54    39.20         12.64        0.63      84.53                 4.94          33.64     1395  34.00765    -118.50015    2018-04-18T16:07:54Z    
4/18/2018    9:07:54    39.20         12.64        0.60      84.48                 4.81          33.64     1396  34.00765    -118.50015    2018-04-18T16:07:54Z    
4/18/2018    9:07:54    39.20         12.63        0.59      84.54                 4.81          33.65     1397  34.00765    -118.50015    2018-04-18T16:07:54Z    
4/18/2018    9:07:54    39.20         12.63        0.57      84.51                 4.77          33.65     1398  34.00765    -118.50015    2018-04-18T16:07:54Z    
4/18/2018    9:07:55    39.20         12.64        0.58      84.50                 4.68          33.65     1399  34.00765    -118.50015    2018-04-18T16:07:55Z    
4/18/2018    9:07:55    39.20         12.64        0.58      84.49                 4.63          33.65     1400  34.00765    -118.50015    2018-04-18T16:07:55Z    
4/18/2018    9:07:55    39.20         12.64        0.58      84.52                 4.57          33.65     1401  34.00765    -118.50015    2018-04-18T16:07:55Z    
4/18/2018    9:07:55    39.20         12.64        0.60      84.52                 4.67          33.64     1402  34.00765    -118.50015    2018-04-18T16:07:55Z    
4/18/2018    9:07:55    39.20         12.63        0.61      84.50                 4.84          33.65     1403  34.00765    -118.50015    2018-04-18T16:07:55Z    
4/18/2018    9:07:55    39.20         12.64        0.63      84.52                 4.81          33.65     1404  34.00765    -118.50015    2018-04-18T16:07:55Z    
4/18/2018    9:07:56    39.20         12.63        0.65      84.55                 4.72          33.65     1405  34.00765    -118.50015    2018-04-18T16:07:56Z    
4/18/2018    9:07:56    39.20         12.64        0.67      84.53                 4.68          33.65     1406  34.00765    -118.50015    2018-04-18T16:07:56Z    
4/18/2018    9:07:56    39.20         12.64        0.70      84.56                 4.84          33.65     1407  34.00765    -118.50015    2018-04-18T16:07:56Z    
4/18/2018    9:07:56    39.20         12.64        0.72      84.49                 4.79          33.65     1408  34.00765    -118.50015    2018-04-18T16:07:56Z    
4/18/2018    9:07:56    39.20         12.64        0.73      84.54                 4.75          33.65     1409  34.00765    -118.50015    2018-04-18T16:07:56Z    
4/18/2018    9:07:56    39.20         12.64        0.74      84.53                 4.74          33.64     1410  34.00765    -118.50015    2018-04-18T16:07:56Z    
4/18/2018    9:07:57    39.20         12.64        0.74      84.57                 4.68          33.64     1411  34.00765    -118.50015    2018-04-18T16:07:57Z    
4/18/2018    9:07:57    39.20         12.64        0.73      84.54                 4.62          33.64     1412  34.00765    -118.50015    2018-04-18T16:07:57Z    
4/18/2018    9:07:57    39.20         12.64        0.72      84.52                 4.51          33.64     1413  34.00765    -118.50015    2018-04-18T16:07:57Z    
4/18/2018    9:07:57    39.20         12.64        0.71      84.57                 4.45          33.64     1414  34.00765    -118.50015    2018-04-18T16:07:57Z    
4/18/2018    9:07:57    39.20         12.63        0.69      84.55                 4.48          33.64     1415  34.00765    -118.50015    2018-04-18T16:07:57Z    
4/18/2018    9:07:57    39.20         12.63        0.70      84.53                 4.45          33.65     1416  34.00765    -118.50015    2018-04-18T16:07:57Z    
4/18/2018    9:07:58    39.20         12.63        0.71      84.52                 4.39          33.65     1417  34.00765    -118.50015    2018-04-18T16:07:58Z    
4/18/2018    9:07:58    39.20         12.63        0.73      84.50                 4.46          33.65     1418  34.00765    -118.50015    2018-04-18T16:07:58Z    
4/18/2018    9:07:58    39.19         12.63        0.77      84.47                 4.76          33.64     1419  34.00765    -118.50015    2018-04-18T16:07:58Z    
4/18/2018    9:07:58    39.19         12.63        0.82      84.45                 5.17          33.64     1420  34.00765    -118.50015    2018-04-18T16:07:58Z    
4/18/2018    9:07:58    39.19         12.63        0.86      84.48                 5.26          33.64     1421  34.00765    -118.50015    2018-04-18T16:07:58Z    
4/18/2018    9:07:58    39.19         12.63        0.90      84.46                 5.04          33.64     1422  34.00765    -118.50015    2018-04-18T16:07:58Z    
4/18/2018    9:07:59    39.19         12.63        0.91      84.41                 5.13          33.64     1423  34.00765    -118.50015    2018-04-18T16:07:59Z    
4/18/2018    9:07:59    39.19         12.63        0.93      84.41                 5.33          33.64     1424  34.00765    -118.50015    2018-04-18T16:07:59Z    
4/18/2018    9:07:59    39.19         12.63        0.93      84.39                 5.36          33.64     1425  34.00765    -118.50015    2018-04-18T16:07:59Z    
4/18/2018    9:07:59    39.19         12.63        0.92      84.37                 5.32          33.64     1426  34.00765    -118.50015    2018-04-18T16:07:59Z    
4/18/2018    9:07:59    39.19         12.63        0.90      84.36                 5.30          33.64     1427  34.00765    -118.50015    2018-04-18T16:07:59Z    
4/18/2018    9:07:59    39.19         12.63        0.88      84.35                 5.19          33.64     1428  34.00765    -118.50015    2018-04-18T16:07:59Z    
4/18/2018    9:08:00    39.19         12.63        0.85      84.36                 5.19          33.64     1429  34.00765    -118.50015    2018-04-18T16:08:00Z    
4/18/2018    9:08:00    39.19         12.63        0.80      84.31                 5.09          33.64     1430  34.00765    -118.50015    2018-04-18T16:08:00Z    
4/18/2018    9:08:00    39.19         12.63        0.78      84.32                 5.08          33.64     1431  34.00765    -118.50015    2018-04-18T16:08:00Z    
4/18/2018    9:08:00    39.19         12.63        0.77      84.28                 5.13          33.64     1432  34.00765    -118.50015    2018-04-18T16:08:00Z    
4/18/2018    9:08:00    39.19         12.63        0.76      84.24                 5.52          33.64     1433  34.00765    -118.50015    2018-04-18T16:08:00Z    
4/18/2018    9:08:00    39.19         12.63        0.78      84.22                 5.39          33.64     1434  34.00765    -118.50015    2018-04-18T16:08:00Z    
4/18/2018    9:08:01    39.19         12.63        0.81      84.24                 5.27          33.64     1435  34.00765    -118.50015    2018-04-18T16:08:01Z    
4/18/2018    9:08:01    39.19         12.63        0.85      84.21                 5.08          33.64     1436  34.00765    -118.50015    2018-04-18T16:08:01Z    
4/18/2018    9:08:01    39.20         12.63        0.87      84.21                 4.95          33.65     1437  34.00765    -118.50015    2018-04-18T16:08:01Z    
4/18/2018    9:08:01    39.20         12.63        0.89      84.21                 4.95          33.64     1438  34.00765    -118.50015    2018-04-18T16:08:01Z    
4/18/2018    9:08:01    39.20         12.63        0.89      84.21                 4.95          33.64     1439  34.00765    -118.50015    2018-04-18T16:08:01Z    
4/18/2018    9:08:01    39.20         12.63        0.90      84.26                 4.75          33.64     1440  34.00765    -118.50015    2018-04-18T16:08:01Z    
4/18/2018    9:08:02    39.20         12.63        0.90      84.27                 4.70          33.64     1441  34.00765    -118.50015    2018-04-18T16:08:02Z    
4/18/2018    9:08:02    39.20         12.63        0.88      84.26                 4.60          33.64     1442  34.00765    -118.50015    2018-04-18T16:08:02Z    
4/18/2018    9:08:02    39.20         12.63        0.87      84.29                 4.56          33.64     1443  34.00765    -118.50015    2018-04-18T16:08:02Z    
4/18/2018    9:08:02    39.20         12.63        0.84      84.28                 4.48          33.64     1444  34.00765    -118.50015    2018-04-18T16:08:02Z    
4/18/2018    9:08:02    39.20         12.63        0.83      84.27                 4.44          33.64     1445  34.00765    -118.50015    2018-04-18T16:08:02Z    
4/18/2018    9:08:02    39.20         12.64        0.82      84.32                 4.52          33.64     1446  34.00765    -118.50015    2018-04-18T16:08:02Z    
4/18/2018    9:08:03    39.20         12.64        0.83      84.33                 4.76          33.64     1447  34.00765    -118.50015    2018-04-18T16:08:03Z    
4/18/2018    9:08:03    39.20         12.64        0.82      84.31                 4.80          33.65     1448  34.00765    -118.50015    2018-04-18T16:08:03Z    
4/18/2018    9:08:03    39.20         12.64        0.83      84.36                 4.92          33.64     1449  34.00765    -118.50015    2018-04-18T16:08:03Z    
4/18/2018    9:08:03    39.20         12.64        0.82      84.34                 5.06          33.64     1450  34.00765    -118.50015    2018-04-18T16:08:03Z    
4/18/2018    9:08:03    39.20         12.63        0.81      84.34                 5.15          33.65     1451  34.00765    -118.50015    2018-04-18T16:08:03Z    
4/18/2018    9:08:03    39.20         12.63        0.79      84.34                 5.13          33.64     1452  34.00765    -118.50015    2018-04-18T16:08:03Z    
4/18/2018    9:08:04    39.20         12.63        0.76      84.36                 5.02          33.64     1453  34.00765    -118.50015    2018-04-18T16:08:04Z    
4/18/2018    9:08:04    39.20         12.63        0.71      84.33                 4.99          33.64     1454  34.00765    -118.50015    2018-04-18T16:08:04Z    
4/18/2018    9:08:04    39.20         12.63        0.66      84.34                 4.93          33.64     1455  34.00765    -118.50015    2018-04-18T16:08:04Z    
4/18/2018    9:08:04    39.20         12.63        0.62      84.38                 5.19          33.64     1456  34.00765    -118.50015    2018-04-18T16:08:04Z    
4/18/2018    9:08:04    39.20         12.63        0.59      84.34                 5.28          33.64     1457  34.00765    -118.50015    2018-04-18T16:08:04Z    
4/18/2018    9:08:04    39.20         12.64        0.57      84.40                 5.33          33.64     1458  34.00765    -118.50015    2018-04-18T16:08:04Z    
4/18/2018    9:08:05    39.20         12.64        0.55      84.38                 5.32          33.64     1459  34.00765    -118.50015    2018-04-18T16:08:05Z    
4/18/2018    9:08:05    39.20         12.64        0.55      84.39                 5.29          33.64     1460  34.00765    -118.50015    2018-04-18T16:08:05Z    
4/18/2018    9:08:05    39.19         12.64        0.56      84.42                 5.32          33.64     1461  34.00765    -118.50015    2018-04-18T16:08:05Z    
4/18/2018    9:08:05    39.19         12.64        0.57      84.42                 5.17          33.64     1462  34.00765    -118.50015    2018-04-18T16:08:05Z    
4/18/2018    9:08:05    39.20         12.64        0.58      84.39                 5.02          33.64     1463  34.00765    -118.50015    2018-04-18T16:08:05Z    
4/18/2018    9:08:05    39.20         12.64        0.58      84.38                 4.92          33.64     1464  34.00765    -118.50015    2018-04-18T16:08:05Z    
4/18/2018    9:08:06    39.20         12.64        0.60      84.46                 4.88          33.64     1465  34.00765    -118.50015    2018-04-18T16:08:06Z    
4/18/2018    9:08:06    39.20         12.63        0.62      84.43                 4.87          33.64     1466  34.00765    -118.50015    2018-04-18T16:08:06Z    
4/18/2018    9:08:06    39.20         12.63        0.63      84.47                 4.80          33.64     1467  34.00765    -118.50015    2018-04-18T16:08:06Z    
4/18/2018    9:08:06    39.20         12.63        0.64      84.48                 4.76          33.64     1468  34.00765    -118.50015    2018-04-18T16:08:06Z    
4/18/2018    9:08:06    39.20         12.63        0.65      84.46                 4.65          33.64     1469  34.00765    -118.50015    2018-04-18T16:08:06Z    
4/18/2018    9:08:06    39.20         12.63        0.66      84.47                 4.63          33.64     1470  34.00765    -118.50015    2018-04-18T16:08:06Z    
4/18/2018    9:08:07    39.20         12.63        0.68      84.46                 4.69          33.64     1471  34.00765    -118.50015    2018-04-18T16:08:07Z    
4/18/2018    9:08:07    39.20         12.63        0.70      84.45                 4.73          33.64     1472  34.00765    -118.50015    2018-04-18T16:08:07Z    
4/18/2018    9:08:07    39.20         12.63        0.72      84.46                 4.71          33.64     1473  34.00765    -118.50015    2018-04-18T16:08:07Z    
4/18/2018    9:08:07    39.20         12.63        0.76      84.40                 4.76          33.64     1474  34.00765    -118.50015    2018-04-18T16:08:07Z    
4/18/2018    9:08:07    39.20         12.63        0.77      84.38                 4.79          33.64     1475  34.00765    -118.50015    2018-04-18T16:08:07Z    
4/18/2018    9:08:07    39.19         12.63        0.80      84.38                 4.79          33.64     1476  34.00765    -118.50015    2018-04-18T16:08:07Z    
4/18/2018    9:08:08    39.19         12.63        0.83      84.39                 4.87          33.64     1477  34.00765    -118.50015    2018-04-18T16:08:08Z    
4/18/2018    9:08:08    39.19         12.63        0.85      84.37                 5.04          33.64     1478  34.00765    -118.50015    2018-04-18T16:08:08Z    
4/18/2018    9:08:08    39.19         12.64        0.87      84.35                 5.30          33.64     1479  34.00765    -118.50015    2018-04-18T16:08:08Z    
4/18/2018    9:08:08    39.20         12.63        0.89      84.40                 5.46          33.64     1480  34.00765    -118.50015    2018-04-18T16:08:08Z    
4/18/2018    9:08:08    39.20         12.63        0.89      84.36                 5.36          33.64     1481  34.00765    -118.50015    2018-04-18T16:08:08Z    
4/18/2018    9:08:08    39.20         12.63        0.91      84.36                 5.19          33.65     1482  34.00765    -118.50015    2018-04-18T16:08:08Z    
4/18/2018    9:08:09    39.20         12.63        0.91      84.36                 5.07          33.65     1483  34.00765    -118.50015    2018-04-18T16:08:09Z    
4/18/2018    9:08:09    39.20         12.63        0.92      84.36                 5.11          33.65     1484  34.00765    -118.50015    2018-04-18T16:08:09Z    
4/18/2018    9:08:09    39.20         12.63        0.93      84.29                 5.12          33.65     1485  34.00765    -118.50015    2018-04-18T16:08:09Z    
4/18/2018    9:08:09    39.20         12.63        0.94      84.32                 5.04          33.65     1486  34.00765    -118.50015    2018-04-18T16:08:09Z    
4/18/2018    9:08:09    39.20         12.63        0.95      84.33                 5.09          33.64     1487  34.00765    -118.50015    2018-04-18T16:08:09Z    
4/18/2018    9:08:09    39.20         12.63        0.95      84.31                 5.07          33.64     1488  34.00765    -118.50015    2018-04-18T16:08:09Z    
4/18/2018    9:08:10    39.19         12.63        0.97      84.30                 4.90          33.64     1489  34.00765    -118.50015    2018-04-18T16:08:10Z    
4/18/2018    9:08:10    39.19         12.63        0.97      84.30                 4.75          33.64     1490  34.00765    -118.50015    2018-04-18T16:08:10Z    
4/18/2018    9:08:10    39.19         12.63        0.97      84.30                 4.63          33.64     1491  34.00765    -118.50015    2018-04-18T16:08:10Z    
4/18/2018    9:08:10    39.19         12.63        0.95      84.27                 4.65          33.64     1492  34.00765    -118.50015    2018-04-18T16:08:10Z    
4/18/2018    9:08:10    39.19         12.63        0.94      84.28                 4.69          33.64     1493  34.00765    -118.50015    2018-04-18T16:08:10Z    
4/18/2018    9:08:10    39.20         12.63        0.92      84.25                 4.67          33.64     1494  34.00765    -118.50015    2018-04-18T16:08:10Z    
4/18/2018    9:08:11    39.19         12.63        0.88      84.26                 4.63          33.64     1495  34.00765    -118.50015    2018-04-18T16:08:11Z    
4/18/2018    9:08:11    39.19         12.63        0.84      84.27                 4.68          33.64     1496  34.00765    -118.50015    2018-04-18T16:08:11Z    
4/18/2018    9:08:11    39.19         12.63        0.81      84.28                 4.62          33.64     1497  34.00765    -118.50015    2018-04-18T16:08:11Z    
4/18/2018    9:08:11    39.19         12.63        0.76      84.30                 4.55          33.64     1498  34.00765    -118.50015    2018-04-18T16:08:11Z    
4/18/2018    9:08:11    39.19         12.63        0.72      84.32                 4.54          33.64     1499  34.00765    -118.50015    2018-04-18T16:08:11Z    
4/18/2018    9:08:11    39.20         12.63        0.69      84.31                 4.55          33.64     1500  34.00765    -118.50015    2018-04-18T16:08:11Z    
4/18/2018    9:08:12    39.19         12.63        0.65      84.29                 4.62          33.64     1501  34.00765    -118.50015    2018-04-18T16:08:12Z    
4/18/2018    9:08:12    39.19         12.63        0.65      84.33                 4.68          33.64     1502  34.00765    -118.50015    2018-04-18T16:08:12Z    
4/18/2018    9:08:12    39.19         12.63        0.63      84.31                 4.65          33.64     1503  34.00765    -118.50015    2018-04-18T16:08:12Z    
4/18/2018    9:08:12    39.19         12.63        0.63      84.33                 4.56          33.64     1504  34.00765    -118.50015    2018-04-18T16:08:12Z    
4/18/2018    9:08:12    39.19         12.63        0.63      84.31                 4.52          33.64     1505  34.00765    -118.50015    2018-04-18T16:08:12Z    
4/18/2018    9:08:12    39.19         12.63        0.64      84.27                 4.55          33.64     1506  34.00765    -118.50015    2018-04-18T16:08:12Z    
4/18/2018    9:08:13    39.19         12.63        0.65      84.32                 4.69          33.64     1507  34.00765    -118.50015    2018-04-18T16:08:13Z    
4/18/2018    9:08:13    39.19         12.63        0.63      84.28                 5.07          33.64     1508  34.00765    -118.50015    2018-04-18T16:08:13Z    
4/18/2018    9:08:13    39.20         12.63        0.64      84.32                 5.10          33.64     1509  34.00765    -118.50015    2018-04-18T16:08:13Z    
4/18/2018    9:08:13    39.20         12.63        0.63      84.30                 4.98          33.64     1510  34.00765    -118.50015    2018-04-18T16:08:13Z    
4/18/2018    9:08:13    39.20         12.63        0.62      84.31                 4.94          33.64     1511  34.00765    -118.50015    2018-04-18T16:08:13Z    
4/18/2018    9:08:13    39.20         12.63        0.63      84.34                 4.89          33.64     1512  34.00765    -118.50015    2018-04-18T16:08:13Z    
4/18/2018    9:08:14    39.20         12.63        0.62      84.35                 4.77          33.65     1513  34.00765    -118.50015    2018-04-18T16:08:14Z    
4/18/2018    9:08:14    39.20         12.63        0.63      84.37                 4.65          33.65     1514  34.00765    -118.50015    2018-04-18T16:08:14Z    
4/18/2018    9:08:14    39.20         12.63        0.63      84.34                 4.61          33.64     1515  34.00765    -118.50015    2018-04-18T16:08:14Z    
4/18/2018    9:08:14    39.20         12.63        0.64      84.34                 4.69          33.64     1516  34.00765    -118.50015    2018-04-18T16:08:14Z    
4/18/2018    9:08:14    39.20         12.63        0.66      84.36                 4.80          33.64     1517  34.00765    -118.50015    2018-04-18T16:08:14Z    
4/18/2018    9:08:14    39.20         12.63        0.68      84.36                 4.80          33.64     1518  34.00765    -118.50015    2018-04-18T16:08:14Z    
4/18/2018    9:08:15    39.20         12.63        0.71      84.38                 4.82          33.64     1519  34.00765    -118.50015    2018-04-18T16:08:15Z    
4/18/2018    9:08:15    39.20         12.63        0.73      84.36                 4.77          33.64     1520  34.00765    -118.50015    2018-04-18T16:08:15Z    
4/18/2018    9:08:15    39.20         12.63        0.75      84.34                 4.71          33.64     1521  34.00765    -118.50015    2018-04-18T16:08:15Z    
4/18/2018    9:08:15    39.20         12.63        0.75      84.39                 4.68          33.64     1522  34.00765    -118.50015    2018-04-18T16:08:15Z    
4/18/2018    9:08:15    39.20         12.63        0.78      84.38                 4.61          33.65     1523  34.00765    -118.50015    2018-04-18T16:08:15Z    
4/18/2018    9:08:15    39.20         12.63        0.78      84.38                 4.55          33.65     1524  34.00765    -118.50015    2018-04-18T16:08:15Z    
4/18/2018    9:08:16    39.20         12.63        0.79      84.35                 4.58          33.65     1525  34.00765    -118.50015    2018-04-18T16:08:16Z    
4/18/2018    9:08:16    39.20         12.63        0.79      84.40                 4.63          33.65     1526  34.00765    -118.50015    2018-04-18T16:08:16Z    
4/18/2018    9:08:16    39.20         12.63        0.80      84.36                 4.65          33.65     1527  34.00765    -118.50015    2018-04-18T16:08:16Z    
4/18/2018    9:08:16    39.20         12.63        0.80      84.35                 4.87          33.65     1528  34.00765    -118.50015    2018-04-18T16:08:16Z    
4/18/2018    9:08:16    39.19         12.63        0.80      84.37                 4.95          33.65     1529  34.00765    -118.50015    2018-04-18T16:08:16Z    
4/18/2018    9:08:16    39.19         12.63        0.82      84.35                 4.99          33.65     1530  34.00765    -118.50015    2018-04-18T16:08:16Z    
4/18/2018    9:08:17    39.19         12.62        0.82      84.36                 4.91          33.65     1531  34.00765    -118.50015    2018-04-18T16:08:17Z    
4/18/2018    9:08:17    39.19         12.63        0.81      84.35                 5.05          33.65     1532  34.00765    -118.50015    2018-04-18T16:08:17Z    
4/18/2018    9:08:17    39.19         12.63        0.81      84.33                 5.56          33.65     1533  34.00765    -118.50015    2018-04-18T16:08:17Z    
4/18/2018    9:08:17    39.19         12.63        0.82      84.36                 5.60          33.65     1534  34.00765    -118.50015    2018-04-18T16:08:17Z    
4/18/2018    9:08:17    39.19         12.63        0.82      84.28                 5.74          33.65     1535  34.00765    -118.50015    2018-04-18T16:08:17Z    
4/18/2018    9:08:17    39.19         12.63        0.81      84.31                 5.71          33.64     1536  34.00765    -118.50015    2018-04-18T16:08:17Z    
4/18/2018    9:08:18    39.19         12.63        0.82      84.30                 5.74          33.65     1537  34.00765    -118.50015    2018-04-18T16:08:18Z    
4/18/2018    9:08:18    39.19         12.63        0.81      84.28                 5.59          33.64     1538  34.00765    -118.50015    2018-04-18T16:08:18Z    
4/18/2018    9:08:18    39.19         12.63        0.82      84.30                 5.53          33.64     1539  34.00765    -118.50015    2018-04-18T16:08:18Z    
4/18/2018    9:08:18    39.19         12.63        0.80      84.27                 5.58          33.64     1540  34.00765    -118.50015    2018-04-18T16:08:18Z    
4/18/2018    9:08:18    39.20         12.63        0.81      84.30                 5.43          33.64     1541  34.00765    -118.50015    2018-04-18T16:08:18Z    
4/18/2018    9:08:18    39.19         12.63        0.81      84.30                 5.22          33.65     1542  34.00765    -118.50015    2018-04-18T16:08:18Z    
4/18/2018    9:08:19    39.19         12.63        0.84      84.31                 5.12          33.64     1543  34.00765    -118.50015    2018-04-18T16:08:19Z    
4/18/2018    9:08:19    39.19         12.63        0.87      84.29                 5.11          33.64     1544  34.00765    -118.50015    2018-04-18T16:08:19Z    
4/18/2018    9:08:19    39.19         12.63        0.89      84.28                 4.98          33.64     1545  34.00765    -118.50015    2018-04-18T16:08:19Z    
4/18/2018    9:08:19    39.19         12.63        0.91      84.28                 4.91          33.64     1546  34.00765    -118.50015    2018-04-18T16:08:19Z    
4/18/2018    9:08:19    39.19         12.63        0.94      84.26                 4.79          33.64     1547  34.00765    -118.50015    2018-04-18T16:08:19Z    
4/18/2018    9:08:19    39.19         12.63        0.95      84.24                 4.86          33.64     1548  34.00765    -118.50015    2018-04-18T16:08:19Z    
4/18/2018    9:08:20    39.19         12.63        0.96      84.24                 4.79          33.64     1549  34.00765    -118.50015    2018-04-18T16:08:20Z    
4/18/2018    9:08:20    39.19         12.63        0.98      84.22                 4.78          33.64     1550  34.00765    -118.50015    2018-04-18T16:08:20Z    
4/18/2018    9:08:20    39.19         12.63        1.00      84.25                 4.79          33.65     1551  34.00765    -118.50015    2018-04-18T16:08:20Z    
4/18/2018    9:08:20    39.20         12.63        0.99      84.28                 4.82          33.65     1552  34.00765    -118.50015    2018-04-18T16:08:20Z    
4/18/2018    9:08:20    39.20         12.63        1.00      84.25                 4.79          33.65     1553  34.00765    -118.50015    2018-04-18T16:08:20Z    
4/18/2018    9:08:20    39.20         12.63        1.00      84.23                 4.81          33.65     1554  34.00765    -118.50015    2018-04-18T16:08:20Z    
4/18/2018    9:08:21    39.20         12.63        1.00      84.22                 4.81          33.65     1555  34.00765    -118.50015    2018-04-18T16:08:21Z    
4/18/2018    9:08:21    39.20         12.63        0.99      84.24                 4.85          33.65     1556  34.00765    -118.50015    2018-04-18T16:08:21Z    
4/18/2018    9:08:21    39.20         12.63        0.97      84.22                 4.91          33.65     1557  34.00765    -118.50015    2018-04-18T16:08:21Z    
4/18/2018    9:08:21    39.20         12.63        0.95      84.22                 4.83          33.65     1558  34.00765    -118.50015    2018-04-18T16:08:21Z    
4/18/2018    9:08:21    39.20         12.63        0.93      84.23                 5.03          33.65     1559  34.00765    -118.50015    2018-04-18T16:08:21Z    
4/18/2018    9:08:21    39.20         12.63        0.90      84.23                 5.33          33.64     1560  34.00765    -118.50015    2018-04-18T16:08:21Z    
4/18/2018    9:08:22    39.20         12.63        0.88      84.24                 5.43          33.65     1561  34.00765    -118.50015    2018-04-18T16:08:22Z    
4/18/2018    9:08:22    39.20         12.63        0.84      84.25                 5.54          33.64     1562  34.00765    -118.50015    2018-04-18T16:08:22Z    
4/18/2018    9:08:22    39.19         12.63        0.82      84.27                 5.64          33.64     1563  34.00765    -118.50015    2018-04-18T16:08:22Z    
4/18/2018    9:08:22    39.20         12.63        0.78      84.29                 5.61          33.65     1564  34.00765    -118.50015    2018-04-18T16:08:22Z    
4/18/2018    9:08:22    39.20         12.63        0.75      84.29                 5.80          33.65     1565  34.00765    -118.50015    2018-04-18T16:08:22Z    
4/18/2018    9:08:22    39.20         12.63        0.73      84.31                 5.95          33.65     1566  34.00765    -118.50015    2018-04-18T16:08:22Z    
4/18/2018    9:08:23    39.20         12.63        0.72      84.27                 6.15          33.65     1567  34.00765    -118.50015    2018-04-18T16:08:23Z    
4/18/2018    9:08:23    39.20         12.63        0.70      84.27                 6.03          33.65     1568  34.00765    -118.50015    2018-04-18T16:08:23Z    
4/18/2018    9:08:23    39.20         12.63        0.69      84.28                 5.75          33.65     1569  34.00765    -118.50015    2018-04-18T16:08:23Z    
4/18/2018    9:08:23    39.20         12.63        0.66      84.26                 5.51          33.65     1570  34.00765    -118.50015    2018-04-18T16:08:23Z    
4/18/2018    9:08:23    39.20         12.63        0.64      84.28                 5.34          33.65     1571  34.00765    -118.50015    2018-04-18T16:08:23Z    
4/18/2018    9:08:23    39.20         12.63        0.61      84.32                 5.29          33.64     1572  34.00765    -118.50015    2018-04-18T16:08:23Z    
4/18/2018    9:08:24    39.20         12.63        0.59      84.24                 5.26          33.64     1573  34.00765    -118.50015    2018-04-18T16:08:24Z    
4/18/2018    9:08:24    39.20         12.63        0.55      84.23                 5.28          33.64     1574  34.00765    -118.50015    2018-04-18T16:08:24Z    
4/18/2018    9:08:24    39.20         12.63        0.54      84.27                 5.15          33.64     1575  34.00765    -118.50015    2018-04-18T16:08:24Z    
4/18/2018    9:08:24    39.19         12.63        0.53      84.31                 4.99          33.64     1576  34.00765    -118.50015    2018-04-18T16:08:24Z    
4/18/2018    9:08:24    39.19         12.63        0.53      84.30                 4.90          33.64     1577  34.00765    -118.50015    2018-04-18T16:08:24Z    
4/18/2018    9:08:24    39.19         12.63        0.54      84.27                 4.78          33.64     1578  34.00765    -118.50015    2018-04-18T16:08:24Z    
4/18/2018    9:08:25    39.19         12.63        0.56      84.27                 4.91          33.64     1579  34.00765    -118.50015    2018-04-18T16:08:25Z    
4/18/2018    9:08:25    39.19         12.63        0.57      84.32                 4.95          33.64     1580  34.00765    -118.50015    2018-04-18T16:08:25Z    
4/18/2018    9:08:25    39.19         12.63        0.58      84.29                 4.85          33.64     1581  34.00765    -118.50015    2018-04-18T16:08:25Z    
4/18/2018    9:08:25    39.19         12.63        0.57      84.29                 4.77          33.64     1582  34.00765    -118.50015    2018-04-18T16:08:25Z    
4/18/2018    9:08:25    39.19         12.63        0.57      84.31                 4.71          33.64     1583  34.00765    -118.50015    2018-04-18T16:08:25Z    
4/18/2018    9:08:25    39.19         12.63        0.54      84.31                 4.65          33.64     1584  34.00765    -118.50015    2018-04-18T16:08:25Z    
4/18/2018    9:08:26    39.19         12.63        0.52      84.29                 4.74          33.64     1585  34.00765    -118.50015    2018-04-18T16:08:26Z    
4/18/2018    9:08:26    39.19         12.63        0.50      84.27                 4.79          33.64     1586  34.00765    -118.50015    2018-04-18T16:08:26Z    
4/18/2018    9:08:26    39.19         12.63        0.49      84.26                 4.75          33.64     1587  34.00765    -118.50015    2018-04-18T16:08:26Z    
4/18/2018    9:08:26    39.19         12.63        0.50      84.32                 4.67          33.64     1588  34.00765    -118.50015    2018-04-18T16:08:26Z    
4/18/2018    9:08:26    39.19         12.63        0.51      84.32                 4.72          33.64     1589  34.00765    -118.50015    2018-04-18T16:08:26Z    
4/18/2018    9:08:26    39.19         12.63        0.54      84.29                 4.75          33.64     1590  34.00765    -118.50015    2018-04-18T16:08:26Z    
4/18/2018    9:08:27    39.19         12.63        0.57      84.31                 4.76          33.64     1591  34.00765    -118.50015    2018-04-18T16:08:27Z    
4/18/2018    9:08:27    39.19         12.63        0.59      84.31                 4.85          33.64     1592  34.00765    -118.50015    2018-04-18T16:08:27Z    
4/18/2018    9:08:27    39.19         12.63        0.62      84.33                 4.87          33.64     1593  34.00765    -118.50015    2018-04-18T16:08:27Z    
4/18/2018    9:08:27    39.19         12.63        0.65      84.33                 4.87          33.64     1594  34.00765    -118.50015    2018-04-18T16:08:27Z    
4/18/2018    9:08:27    39.19         12.63        0.67      84.31                 4.89          33.64     1595  34.00765    -118.50015    2018-04-18T16:08:27Z    
4/18/2018    9:08:27    39.19         12.63        0.71      84.31                 5.03          33.64     1596  34.00765    -118.50015    2018-04-18T16:08:27Z    
4/18/2018    9:08:28    39.19         12.63        0.75      84.26                 5.09          33.64     1597  34.00765    -118.50015    2018-04-18T16:08:28Z    
4/18/2018    9:08:28    39.19         12.63        0.77      84.26                 5.09          33.64     1598  34.00765    -118.50015    2018-04-18T16:08:28Z    
4/18/2018    9:08:28    39.19         12.63        0.79      84.22                 5.06          33.64     1599  34.00765    -118.50015    2018-04-18T16:08:28Z    
4/18/2018    9:08:28    39.19         12.63        0.80      84.23                 4.88          33.64     1600  34.00765    -118.50015    2018-04-18T16:08:28Z    
4/18/2018    9:08:28    39.19         12.63        0.80      84.21                 4.74          33.64     1601  34.00765    -118.50015    2018-04-18T16:08:28Z    
4/18/2018    9:08:28    39.19         12.63        0.80      84.14                 4.79          33.64     1602  34.00765    -118.50015    2018-04-18T16:08:28Z    
4/18/2018    9:08:29    39.19         12.63        0.78      84.11                 4.85          33.64     1603  34.00765    -118.50015    2018-04-18T16:08:29Z    
4/18/2018    9:08:29    39.19         12.63        0.76      84.18                 4.80          33.64     1604  34.00765    -118.50015    2018-04-18T16:08:29Z    
4/18/2018    9:08:29    39.19         12.64        0.76      84.15                 4.63          33.64     1605  34.00765    -118.50015    2018-04-18T16:08:29Z    
4/18/2018    9:08:29    39.20         12.64        0.73      84.14                 4.56          33.64     1606  34.00765    -118.50015    2018-04-18T16:08:29Z    
4/18/2018    9:08:29    39.19         12.64        0.74      84.14                 4.47          33.64     1607  34.00765    -118.50015    2018-04-18T16:08:29Z    
4/18/2018    9:08:29    39.19         12.64        0.77      84.13                 4.53          33.64     1608  34.00765    -118.50015    2018-04-18T16:08:29Z    
4/18/2018    9:08:30    39.19         12.64        0.78      84.15                 4.55          33.64     1609  34.00765    -118.50015    2018-04-18T16:08:30Z    
4/18/2018    9:08:30    39.19         12.64        0.82      84.17                 4.59          33.64     1610  34.00765    -118.50015    2018-04-18T16:08:30Z    
4/18/2018    9:08:30    39.19         12.63        0.86      84.10                 4.78          33.64     1611  34.00765    -118.50015    2018-04-18T16:08:30Z    
4/18/2018    9:08:30    39.19         12.63        0.88      84.20                 4.87          33.64     1612  34.00765    -118.50015    2018-04-18T16:08:30Z    
4/18/2018    9:08:30    39.19         12.63        0.94      84.18                 4.79          33.64     1613  34.00765    -118.50015    2018-04-18T16:08:30Z    
4/18/2018    9:08:30    39.19         12.63        0.98      84.22                 4.93          33.64     1614  34.00765    -118.50015    2018-04-18T16:08:30Z    
4/18/2018    9:08:31    39.19         12.63        1.01      84.25                 5.15          33.64     1615  34.00765    -118.50015    2018-04-18T16:08:31Z    
4/18/2018    9:08:31    39.19         12.63        1.04      84.24                 5.27          33.64     1616  34.00765    -118.50015    2018-04-18T16:08:31Z    
4/18/2018    9:08:31    39.19         12.63        1.05      84.24                 5.11          33.64     1617  34.00765    -118.50015    2018-04-18T16:08:31Z    
4/18/2018    9:08:31    39.19         12.63        1.06      84.21                 5.01          33.64     1618  34.00765    -118.50015    2018-04-18T16:08:31Z    
4/18/2018    9:08:31    39.19         12.63        1.07      84.23                 4.90          33.64     1619  34.00765    -118.50015    2018-04-18T16:08:31Z    
4/18/2018    9:08:31    39.19         12.63        1.07      84.29                 4.80          33.64     1620  34.00765    -118.50015    2018-04-18T16:08:31Z    
4/18/2018    9:08:32    39.19         12.63        1.06      84.27                 4.79          33.64     1621  34.00765    -118.50015    2018-04-18T16:08:32Z    
4/18/2018    9:08:32    39.19         12.63        1.05      84.23                 4.71          33.64     1622  34.00765    -118.50015    2018-04-18T16:08:32Z    
4/18/2018    9:08:32    39.19         12.63        1.04      84.26                 4.59          33.64     1623  34.00765    -118.50015    2018-04-18T16:08:32Z    
4/18/2018    9:08:32    39.19         12.63        1.02      84.24                 4.66          33.64     1624  34.00765    -118.50015    2018-04-18T16:08:32Z    
4/18/2018    9:08:32    39.19         12.63        1.00      84.26                 4.84          33.64     1625  34.00765    -118.50015    2018-04-18T16:08:32Z    
4/18/2018    9:08:32    39.19         12.63        0.98      84.26                 4.98          33.64     1626  34.00765    -118.50015    2018-04-18T16:08:32Z    
4/18/2018    9:08:33    39.19         12.63        0.96      84.24                 4.94          33.64     1627  34.00765    -118.50015    2018-04-18T16:08:33Z    
4/18/2018    9:08:33    39.18         12.63        0.92      84.23                 4.85          33.64     1628  34.00765    -118.50015    2018-04-18T16:08:33Z    
4/18/2018    9:08:33    39.19         12.63        0.89      84.21                 4.75          33.64     1629  34.00765    -118.50015    2018-04-18T16:08:33Z    
4/18/2018    9:08:33    39.18         12.63        0.83      84.21                 4.77          33.63     1630  34.00765    -118.50015    2018-04-18T16:08:33Z    
4/18/2018    9:08:33    39.18         12.63        0.79      84.25                 4.92          33.63     1631  34.00765    -118.50015    2018-04-18T16:08:33Z    
4/18/2018    9:08:33    39.19         12.63        0.73      84.24                 5.13          33.64     1632  34.00765    -118.50015    2018-04-18T16:08:33Z    
4/18/2018    9:08:34    39.19         12.63        0.70      84.22                 5.25          33.64     1633  34.00765    -118.50015    2018-04-18T16:08:34Z    
4/18/2018    9:08:34    39.19         12.63        0.66      84.22                 5.27          33.64     1634  34.00765    -118.50015    2018-04-18T16:08:34Z    
4/18/2018    9:08:34    39.19         12.63        0.64      84.19                 5.30          33.64     1635  34.00765    -118.50015    2018-04-18T16:08:34Z    
4/18/2018    9:08:34    39.19         12.63        0.62      84.19                 5.39          33.64     1636  34.00765    -118.50015    2018-04-18T16:08:34Z    
4/18/2018    9:08:34    39.19         12.63        0.62      84.19                 5.85          33.64     1637  34.00765    -118.50015    2018-04-18T16:08:34Z    
4/18/2018    9:08:34    39.19         12.63        0.62      84.23                 5.90          33.64     1638  34.00765    -118.50015    2018-04-18T16:08:34Z    
4/18/2018    9:08:35    39.19         12.63        0.64      84.20                 5.80          33.64     1639  34.00765    -118.50015    2018-04-18T16:08:35Z    
4/18/2018    9:08:35    39.19         12.63        0.66      84.18                 5.66          33.64     1640  34.00765    -118.50015    2018-04-18T16:08:35Z    
4/18/2018    9:08:35    39.19         12.63        0.67      84.20                 5.48          33.64     1641  34.00765    -118.50015    2018-04-18T16:08:35Z    
4/18/2018    9:08:35    39.19         12.63        0.68      84.19                 5.32          33.64     1642  34.00765    -118.50015    2018-04-18T16:08:35Z    
4/18/2018    9:08:35    39.19         12.63        0.67      84.20                 5.34          33.64     1643  34.00765    -118.50015    2018-04-18T16:08:35Z    
4/18/2018    9:08:35    39.19         12.63        0.66      84.20                 5.48          33.64     1644  34.00765    -118.50015    2018-04-18T16:08:35Z    
4/18/2018    9:08:36    39.19         12.63        0.66      84.19                 5.53          33.64     1645  34.00765    -118.50015    2018-04-18T16:08:36Z    
4/18/2018    9:08:36    39.19         12.63        0.65      84.17                 5.60          33.64     1646  34.00765    -118.50015    2018-04-18T16:08:36Z    
4/18/2018    9:08:36    39.19         12.63        0.66      84.21                 5.48          33.65     1647  34.00765    -118.50015    2018-04-18T16:08:36Z    
4/18/2018    9:08:36    39.19         12.63        0.66      84.16                 5.31          33.65     1648  34.00765    -118.50015    2018-04-18T16:08:36Z    
4/18/2018    9:08:36    39.19         12.63        0.65      84.16                 5.17          33.65     1649  34.00765    -118.50015    2018-04-18T16:08:36Z    
4/18/2018    9:08:36    39.19         12.63        0.66      84.19                 5.19          33.64     1650  34.00765    -118.50015    2018-04-18T16:08:36Z    
4/18/2018    9:08:37    39.19         12.63        0.66      84.18                 5.09          33.65     1651  34.00765    -118.50015    2018-04-18T16:08:37Z    
4/18/2018    9:08:37    39.19         12.63        0.66      84.19                 5.01          33.65     1652  34.00765    -118.50015    2018-04-18T16:08:37Z    
4/18/2018    9:08:37    39.19         12.63        0.64      84.21                 4.96          33.65     1653  34.00765    -118.50015    2018-04-18T16:08:37Z    
4/18/2018    9:08:37    39.19         12.63        0.64      84.22                 5.09          33.65     1654  34.00765    -118.50015    2018-04-18T16:08:37Z    
4/18/2018    9:08:37    39.19         12.63        0.64      84.20                 5.26          33.65     1655  34.00765    -118.50015    2018-04-18T16:08:37Z    
4/18/2018    9:08:37    39.20         12.63        0.64      84.18                 5.22          33.65     1656  34.00765    -118.50015    2018-04-18T16:08:37Z    
4/18/2018    9:08:38    39.19         12.63        0.65      84.23                 5.11          33.65     1657  34.00765    -118.50015    2018-04-18T16:08:38Z    
4/18/2018    9:08:38    39.19         12.63        0.65      84.18                 5.05          33.64     1658  34.00765    -118.50015    2018-04-18T16:08:38Z    
4/18/2018    9:08:38    39.19         12.63        0.69      84.18                 4.98          33.64     1659  34.00765    -118.50015    2018-04-18T16:08:38Z    
4/18/2018    9:08:38    39.19         12.63        0.72      84.19                 4.90          33.64     1660  34.00765    -118.50015    2018-04-18T16:08:38Z    
4/18/2018    9:08:38    39.19         12.63        0.76      84.16                 4.84          33.64     1661  34.00765    -118.50015    2018-04-18T16:08:38Z    
4/18/2018    9:08:38    39.19         12.63        0.79      84.16                 4.77          33.64     1662  34.00765    -118.50015    2018-04-18T16:08:38Z    
4/18/2018    9:08:39    39.19         12.63        0.82      84.12                 4.76          33.64     1663  34.00765    -118.50015    2018-04-18T16:08:39Z    
4/18/2018    9:08:39    39.19         12.63        0.85      84.17                 4.71          33.64     1664  34.00765    -118.50015    2018-04-18T16:08:39Z    
4/18/2018    9:08:39    39.19         12.63        0.88      84.18                 4.80          33.64     1665  34.00765    -118.50015    2018-04-18T16:08:39Z    
4/18/2018    9:08:39    39.19         12.63        0.91      84.17                 4.86          33.64     1666  34.00765    -118.50015    2018-04-18T16:08:39Z    
4/18/2018    9:08:39    39.19         12.63        0.94      84.14                 5.36          33.64     1667  34.00765    -118.50015    2018-04-18T16:08:39Z    
4/18/2018    9:08:39    39.19         12.63        0.95      84.16                 5.52          33.64     1668  34.00765    -118.50015    2018-04-18T16:08:39Z    
4/18/2018    9:08:40    39.19         12.63        0.97      84.19                 5.40          33.64     1669  34.00765    -118.50015    2018-04-18T16:08:40Z    
4/18/2018    9:08:40    39.19         12.63        0.97      84.16                 5.23          33.64     1670  34.00765    -118.50015    2018-04-18T16:08:40Z    
4/18/2018    9:08:40    39.19         12.63        0.98      84.18                 5.11          33.64     1671  34.00765    -118.50015    2018-04-18T16:08:40Z    
4/18/2018    9:08:40    39.19         12.63        0.97      84.19                 5.02          33.64     1672  34.00765    -118.50015    2018-04-18T16:08:40Z    
4/18/2018    9:08:40    39.19         12.63        0.95      84.18                 4.84          33.64     1673  34.00765    -118.50015    2018-04-18T16:08:40Z    
4/18/2018    9:08:40    39.19         12.63        0.91      84.17                 4.94          33.64     1674  34.00765    -118.50015    2018-04-18T16:08:40Z    
4/18/2018    9:08:41    39.19         12.63        0.86      84.19                 4.94          33.64     1675  34.00765    -118.50015    2018-04-18T16:08:41Z    
4/18/2018    9:08:41    39.19         12.63        0.82      84.16                 4.93          33.64     1676  34.00765    -118.50015    2018-04-18T16:08:41Z    
4/18/2018    9:08:41    39.19         12.63        0.77      84.16                 4.96          33.64     1677  34.00765    -118.50015    2018-04-18T16:08:41Z    
4/18/2018    9:08:41    39.19         12.63        0.73      84.20                 4.87          33.64     1678  34.00765    -118.50015    2018-04-18T16:08:41Z    
4/18/2018    9:08:41    39.20         12.63        0.69      84.22                 4.91          33.64     1679  34.00765    -118.50015    2018-04-18T16:08:41Z    
4/18/2018    9:08:41    39.19         12.63        0.67      84.24                 4.96          33.64     1680  34.00765    -118.50015    2018-04-18T16:08:41Z    
4/18/2018    9:08:42    39.19         12.63        0.65      84.19                 4.95          33.64     1681  34.00765    -118.50015    2018-04-18T16:08:42Z    
4/18/2018    9:08:42    39.19         12.63        0.66      84.22                 4.91          33.64     1682  34.00765    -118.50015    2018-04-18T16:08:42Z    
4/18/2018    9:08:42    39.19         12.63        0.65      84.21                 4.84          33.64     1683  34.00765    -118.50015    2018-04-18T16:08:42Z    
4/18/2018    9:08:42    39.19         12.63        0.65      84.18                 4.75          33.64     1684  34.00765    -118.50015    2018-04-18T16:08:42Z    
4/18/2018    9:08:42    39.19         12.63        0.67      84.20                 4.63          33.64     1685  34.00765    -118.50015    2018-04-18T16:08:42Z    
4/18/2018    9:08:42    39.19         12.63        0.69      84.19                 4.64          33.64     1686  34.00765    -118.50015    2018-04-18T16:08:42Z    
4/18/2018    9:08:43    39.19         12.63        0.68      84.20                 4.62          33.64     1687  34.00765    -118.50015    2018-04-18T16:08:43Z    
4/18/2018    9:08:43    39.19         12.63        0.70      84.22                 4.66          33.64     1688  34.00765    -118.50015    2018-04-18T16:08:43Z    
4/18/2018    9:08:43    39.20         12.63        0.69      84.19                 4.68          33.64     1689  34.00765    -118.50015    2018-04-18T16:08:43Z    
4/18/2018    9:08:43    39.19         12.63        0.69      84.21                 4.64          33.64     1690  34.00765    -118.50015    2018-04-18T16:08:43Z    
4/18/2018    9:08:43    39.19         12.63        0.68      84.24                 4.69          33.64     1691  34.00765    -118.50015    2018-04-18T16:08:43Z    
4/18/2018    9:08:43    39.19         12.63        0.65      84.21                 4.65          33.64     1692  34.00765    -118.50015    2018-04-18T16:08:43Z    
4/18/2018    9:08:44    39.19         12.63        0.61      84.25                 4.61          33.64     1693  34.00765    -118.50015    2018-04-18T16:08:44Z    
4/18/2018    9:08:44    39.19         12.63        0.57      84.21                 4.57          33.64     1694  34.00765    -118.50015    2018-04-18T16:08:44Z    
4/18/2018    9:08:44    39.19         12.63        0.54      84.20                 4.62          33.64     1695  34.00765    -118.50015    2018-04-18T16:08:44Z    
4/18/2018    9:08:44    39.19         12.63        0.51      84.25                 4.64          33.64     1696  34.00765    -118.50015    2018-04-18T16:08:44Z    
4/18/2018    9:08:44    39.19         12.63        0.49      84.23                 4.68          33.64     1697  34.00765    -118.50015    2018-04-18T16:08:44Z    
4/18/2018    9:08:44    39.19         12.63        0.51      84.27                 4.85          33.64     1698  34.00765    -118.50015    2018-04-18T16:08:44Z    
4/18/2018    9:08:45    39.19         12.63        0.52      84.24                 5.27          33.64     1699  34.00765    -118.50015    2018-04-18T16:08:45Z    
4/18/2018    9:08:45    39.19         12.63        0.54      84.26                 5.28          33.64     1700  34.00765    -118.50015    2018-04-18T16:08:45Z    
4/18/2018    9:08:45    39.19         12.63        0.56      84.22                 5.28          33.64     1701  34.00765    -118.50015    2018-04-18T16:08:45Z    
4/18/2018    9:08:45    39.19         12.63        0.59      84.30                 5.14          33.64     1702  34.00765    -118.50015    2018-04-18T16:08:45Z    
4/18/2018    9:08:45    39.19         12.63        0.61      84.24                 5.04          33.64     1703  34.00765    -118.50015    2018-04-18T16:08:45Z    
4/18/2018    9:08:45    39.19         12.63        0.64      84.22                 4.90          33.64     1704  34.00765    -118.50015    2018-04-18T16:08:45Z    
4/18/2018    9:08:46    39.19         12.63        0.68      84.23                 5.01          33.64     1705  34.00765    -118.50015    2018-04-18T16:08:46Z    
4/18/2018    9:08:46    39.19         12.63        0.72      84.22                 5.04          33.64     1706  34.00765    -118.50015    2018-04-18T16:08:46Z    
4/18/2018    9:08:46    39.20         12.63        0.77      84.27                 4.97          33.65     1707  34.00765    -118.50015    2018-04-18T16:08:46Z    
4/18/2018    9:08:46    39.20         12.63        0.81      84.25                 4.79          33.64     1708  34.00765    -118.50015    2018-04-18T16:08:46Z    
4/18/2018    9:08:46    39.20         12.63        0.84      84.24                 4.69          33.64     1709  34.00765    -118.50015    2018-04-18T16:08:46Z    
4/18/2018    9:08:46    39.20         12.63        0.87      84.24                 4.65          33.64     1710  34.00765    -118.50015    2018-04-18T16:08:46Z    
4/18/2018    9:08:47    39.20         12.63        0.87      84.31                 4.74          33.64     1711  34.00765    -118.50015    2018-04-18T16:08:47Z    
4/18/2018    9:08:47    39.20         12.63        0.88      84.24                 4.75          33.64     1712  34.00765    -118.50015    2018-04-18T16:08:47Z    
4/18/2018    9:08:47    39.20         12.63        0.88      84.28                 4.89          33.64     1713  34.00765    -118.50015    2018-04-18T16:08:47Z    
4/18/2018    9:08:47    39.20         12.64        0.87      84.30                 4.80          33.64     1714  34.00765    -118.50015    2018-04-18T16:08:47Z    
4/18/2018    9:08:47    39.20         12.63        0.85      84.28                 4.64          33.64     1715  34.00765    -118.50015    2018-04-18T16:08:47Z    
4/18/2018    9:08:47    39.20         12.63        0.81      84.28                 4.56          33.64     1716  34.00765    -118.50015    2018-04-18T16:08:47Z    
4/18/2018    9:08:48    39.20         12.63        0.79      84.29                 4.66          33.64     1717  34.00765    -118.50015    2018-04-18T16:08:48Z    
4/18/2018    9:08:48    39.20         12.63        0.76      84.29                 4.71          33.64     1718  34.00765    -118.50015    2018-04-18T16:08:48Z    
4/18/2018    9:08:48    39.20         12.63        0.75      84.30                 4.76          33.64     1719  34.00765    -118.50015    2018-04-18T16:08:48Z    
4/18/2018    9:08:48    39.20         12.63        0.72      84.30                 4.69          33.64     1720  34.00765    -118.50015    2018-04-18T16:08:48Z    
4/18/2018    9:08:48    39.20         12.63        0.71      84.30                 4.67          33.64     1721  34.00765    -118.50015    2018-04-18T16:08:48Z    
4/18/2018    9:08:48    39.20         12.63        0.70      84.30                 4.55          33.64     1722  34.00765    -118.50015    2018-04-18T16:08:48Z    
4/18/2018    9:08:49    39.20         12.63        0.70      84.29                 4.52          33.65     1723  34.00765    -118.50015    2018-04-18T16:08:49Z    
4/18/2018    9:08:49    39.20         12.63        0.69      84.27                 4.56          33.65     1724  34.00765    -118.50015    2018-04-18T16:08:49Z    
4/18/2018    9:08:49    39.20         12.63        0.69      84.30                 4.62          33.65     1725  34.00765    -118.50015    2018-04-18T16:08:49Z    
4/18/2018    9:08:49    39.20         12.63        0.70      84.27                 4.76          33.65     1726  34.00765    -118.50015    2018-04-18T16:08:49Z    
4/18/2018    9:08:49    39.20         12.63        0.71      84.26                 4.88          33.64     1727  34.00765    -118.50015    2018-04-18T16:08:49Z    
4/18/2018    9:08:49    39.20         12.63        0.72      84.24                 4.88          33.64     1728  34.00765    -118.50015    2018-04-18T16:08:49Z    
4/18/2018    9:08:50    39.20         12.63        0.75      84.27                 4.79          33.64     1729  34.00765    -118.50015    2018-04-18T16:08:50Z    
4/18/2018    9:08:50    39.19         12.63        0.77      84.28                 4.71          33.64     1730  34.00765    -118.50015    2018-04-18T16:08:50Z    
4/18/2018    9:08:50    39.20         12.63        0.81      84.26                 4.67          33.64     1731  34.00765    -118.50015    2018-04-18T16:08:50Z    
4/18/2018    9:08:50    39.19         12.63        0.84      84.26                 4.85          33.64     1732  34.00765    -118.50015    2018-04-18T16:08:50Z    
4/18/2018    9:08:50    39.20         12.63        0.87      84.29                 4.82          33.64     1733  34.00765    -118.50015    2018-04-18T16:08:50Z    
4/18/2018    9:08:50    39.20         12.63        0.89      84.31                 4.79          33.64     1734  34.00765    -118.50015    2018-04-18T16:08:50Z    
4/18/2018    9:08:51    39.20         12.63        0.89      84.29                 4.93          33.64     1735  34.00765    -118.50015    2018-04-18T16:08:51Z    
4/18/2018    9:08:51    39.20         12.63        0.89      84.27                 5.39          33.64     1736  34.00765    -118.50015    2018-04-18T16:08:51Z    
4/18/2018    9:08:51    39.20         12.63        0.87      84.30                 5.44          33.64     1737  34.00765    -118.50015    2018-04-18T16:08:51Z    
4/18/2018    9:08:51    39.19         12.63        0.84      84.28                 5.38          33.64     1738  34.00765    -118.50015    2018-04-18T16:08:51Z    
4/18/2018    9:08:51    39.19         12.63        0.82      84.29                 5.22          33.64     1739  34.00765    -118.50015    2018-04-18T16:08:51Z    
4/18/2018    9:08:51    39.19         12.63        0.79      84.30                 5.27          33.64     1740  34.00765    -118.50015    2018-04-18T16:08:51Z    
4/18/2018    9:08:52    39.20         12.63        0.77      84.22                 5.18          33.64     1741  34.00765    -118.50015    2018-04-18T16:08:52Z    
4/18/2018    9:08:52    39.20         12.63        0.75      84.22                 5.28          33.64     1742  34.00765    -118.50015    2018-04-18T16:08:52Z    
4/18/2018    9:08:52    39.20         12.63        0.73      84.23                 5.33          33.64     1743  34.00765    -118.50015    2018-04-18T16:08:52Z    
4/18/2018    9:08:52    39.20         12.63        0.73      84.26                 5.28          33.64     1744  34.00765    -118.50015    2018-04-18T16:08:52Z    
4/18/2018    9:08:52    39.19         12.63        0.74      84.25                 5.21          33.64     1745  34.00765    -118.50015    2018-04-18T16:08:52Z    
4/18/2018    9:08:52    39.19         12.63        0.76      84.27                 5.16          33.64     1746  34.00765    -118.50015    2018-04-18T16:08:52Z    
4/18/2018    9:08:53    39.19         12.63        0.78      84.31                 5.04          33.64     1747  34.00765    -118.50015    2018-04-18T16:08:53Z    
4/18/2018    9:08:53    39.19         12.63        0.82      84.29                 4.93          33.64     1748  34.00765    -118.50015    2018-04-18T16:08:53Z    
4/18/2018    9:08:53    39.20         12.63        0.84      84.27                 4.86          33.64     1749  34.00765    -118.50015    2018-04-18T16:08:53Z    
4/18/2018    9:08:53    39.19         12.63        0.88      84.28                 4.76          33.64     1750  34.00765    -118.50015    2018-04-18T16:08:53Z    
4/18/2018    9:08:53    39.19         12.63        0.92      84.27                 4.64          33.64     1751  34.00765    -118.50015    2018-04-18T16:08:53Z    
4/18/2018    9:08:53    39.20         12.63        0.94      84.26                 4.58          33.64     1752  34.00765    -118.50015    2018-04-18T16:08:53Z    
4/18/2018    9:08:54    39.20         12.63        0.94      84.28                 4.52          33.64     1753  34.00765    -118.50015    2018-04-18T16:08:54Z    
4/18/2018    9:08:54    39.20         12.63        0.95      84.26                 4.73          33.64     1754  34.00765    -118.50015    2018-04-18T16:08:54Z    
4/18/2018    9:08:54    39.20         12.63        0.93      84.25                 4.82          33.64     1755  34.00765    -118.50015    2018-04-18T16:08:54Z    
4/18/2018    9:08:54    39.20         12.63        0.92      84.27                 4.86          33.64     1756  34.00765    -118.50015    2018-04-18T16:08:54Z    
4/18/2018    9:08:54    39.20         12.63        0.89      84.22                 4.86          33.64     1757  34.00765    -118.50015    2018-04-18T16:08:54Z    
4/18/2018    9:08:54    39.20         12.63        0.85      84.31                 4.90          33.64     1758  34.00765    -118.50015    2018-04-18T16:08:54Z    
4/18/2018    9:08:55    39.20         12.63        0.81      84.28                 4.78          33.64     1759  34.00765    -118.50015    2018-04-18T16:08:55Z    
4/18/2018    9:08:55    39.20         12.63        0.78      84.26                 4.71          33.64     1760  34.00765    -118.50015    2018-04-18T16:08:55Z    
4/18/2018    9:08:55    39.20         12.63        0.74      84.27                 4.80          33.64     1761  34.00765    -118.50015    2018-04-18T16:08:55Z    
4/18/2018    9:08:55    39.20         12.63        0.72      84.22                 4.84          33.64     1762  34.00765    -118.50015    2018-04-18T16:08:55Z    
4/18/2018    9:08:55    39.20         12.63        0.69      84.29                 5.04          33.64     1763  34.00765    -118.50015    2018-04-18T16:08:55Z    
4/18/2018    9:08:55    39.20         12.63        0.66      84.25                 5.21          33.64     1764  34.00765    -118.50015    2018-04-18T16:08:55Z    
4/18/2018    9:08:56    39.20         12.63        0.63      84.27                 5.01          33.64     1765  34.00765    -118.50015    2018-04-18T16:08:56Z    
4/18/2018    9:08:56    39.20         12.63        0.63      84.26                 4.79          33.64     1766  34.00765    -118.50015    2018-04-18T16:08:56Z    
4/18/2018    9:08:56    39.19         12.63        0.63      84.26                 4.62          33.64     1767  34.00765    -118.50015    2018-04-18T16:08:56Z    
4/18/2018    9:08:56    39.19         12.63        0.62      84.27                 4.64          33.64     1768  34.00765    -118.50015    2018-04-18T16:08:56Z    
4/18/2018    9:08:56    39.19         12.63        0.64      84.27                 4.75          33.64     1769  34.00765    -118.50015    2018-04-18T16:08:56Z    
4/18/2018    9:08:56    39.19         12.63        0.65      84.23                 4.92          33.64     1770  34.00765    -118.50015    2018-04-18T16:08:56Z    
4/18/2018    9:08:57    39.19         12.63        0.66      84.24                 4.95          33.64     1771  34.00765    -118.50015    2018-04-18T16:08:57Z    
4/18/2018    9:08:57    39.19         12.63        0.68      84.25                 5.09          33.64     1772  34.00765    -118.50015    2018-04-18T16:08:57Z    
4/18/2018    9:08:57    39.20         12.63        0.69      84.21                 5.01          33.64     1773  34.00765    -118.50015    2018-04-18T16:08:57Z    
4/18/2018    9:08:57    39.20         12.63        0.68      84.24                 5.05          33.64     1774  34.00765    -118.50015    2018-04-18T16:08:57Z    
4/18/2018    9:08:57    39.20         12.63        0.68      84.26                 5.21          33.64     1775  34.00765    -118.50015    2018-04-18T16:08:57Z    
4/18/2018    9:08:57    39.20         12.63        0.68      84.24                 5.09          33.64     1776  34.00765    -118.50015    2018-04-18T16:08:57Z    
4/18/2018    9:08:58    39.20         12.63        0.68      84.25                 4.96          33.64     1777  34.00765    -118.50015    2018-04-18T16:08:58Z    
4/18/2018    9:08:58    39.20         12.63        0.69      84.24                 5.02          33.65     1778  34.00765    -118.50015    2018-04-18T16:08:58Z    
4/18/2018    9:08:58    39.20         12.63        0.69      84.23                 5.14          33.65     1779  34.00765    -118.50015    2018-04-18T16:08:58Z    
4/18/2018    9:08:58    39.20         12.63        0.69      84.20                 5.01          33.65     1780  34.00765    -118.50015    2018-04-18T16:08:58Z    
4/18/2018    9:08:58    39.20         12.63        0.71      84.19                 4.90          33.65     1781  34.00765    -118.50015    2018-04-18T16:08:58Z    
4/18/2018    9:08:58    39.20         12.63        0.73      84.25                 4.77          33.65     1782  34.00765    -118.50015    2018-04-18T16:08:58Z    
4/18/2018    9:08:59    39.20         12.63        0.75      84.23                 4.75          33.64     1783  34.00765    -118.50015    2018-04-18T16:08:59Z    
4/18/2018    9:08:59    39.20         12.63        0.76      84.22                 4.73          33.64     1784  34.00765    -118.50015    2018-04-18T16:08:59Z    
4/18/2018    9:08:59    39.20         12.63        0.77      84.22                 4.69          33.64     1785  34.00765    -118.50015    2018-04-18T16:08:59Z    
4/18/2018    9:08:59    39.20         12.63        0.79      84.25                 4.58          33.64     1786  34.00765    -118.50015    2018-04-18T16:08:59Z    
4/18/2018    9:08:59    39.20         12.63        0.79      84.24                 4.73          33.64     1787  34.00765    -118.50015    2018-04-18T16:08:59Z    
4/18/2018    9:08:59    39.20         12.63        0.79      84.24                 4.84          33.64     1788  34.00765    -118.50015    2018-04-18T16:08:59Z    
4/18/2018    9:09:00    39.20         12.63        0.77      84.24                 4.73          33.64     1789  34.00765    -118.50015    2018-04-18T16:09:00Z    
4/18/2018    9:09:00    39.20         12.63        0.76      84.25                 4.57          33.64     1790  34.00765    -118.50015    2018-04-18T16:09:00Z    
4/18/2018    9:09:00    39.20         12.63        0.72      84.27                 4.49          33.64     1791  34.00765    -118.50015    2018-04-18T16:09:00Z    
4/18/2018    9:09:00    39.20         12.63        0.69      84.27                 4.43          33.64     1792  34.00765    -118.50015    2018-04-18T16:09:00Z    
4/18/2018    9:09:00    39.20         12.63        0.67      84.24                 4.35          33.64     1793  34.00765    -118.50015    2018-04-18T16:09:00Z    
4/18/2018    9:09:00    39.20         12.63        0.66      84.21                 4.56          33.64     1794  34.00765    -118.50015    2018-04-18T16:09:00Z    
4/18/2018    9:09:01    39.20         12.63        0.65      84.24                 4.76          33.64     1795  34.00765    -118.50015    2018-04-18T16:09:01Z    
4/18/2018    9:09:01    39.20         12.63        0.67      84.23                 4.79          33.64     1796  34.00765    -118.50015    2018-04-18T16:09:01Z    
4/18/2018    9:09:01    39.20         12.63        0.67      84.27                 4.75          33.64     1797  34.00765    -118.50015    2018-04-18T16:09:01Z    
4/18/2018    9:09:01    39.20         12.63        0.69      84.27                 4.75          33.64     1798  34.00765    -118.50015    2018-04-18T16:09:01Z    
4/18/2018    9:09:01    39.20         12.63        0.69      84.27                 4.75          33.64     1799  34.00765    -118.50015    2018-04-18T16:09:01Z    
4/18/2018    9:09:01    39.19         12.63        0.74      84.27                 4.82          33.64     1800  34.00765    -118.50015    2018-04-18T16:09:01Z    
4/18/2018    9:09:02    39.19         12.63        0.75      84.27                 4.88          33.64     1801  34.00765    -118.50015    2018-04-18T16:09:02Z    
4/18/2018    9:09:02    39.19         12.63        0.77      84.24                 4.91          33.64     1802  34.00765    -118.50015    2018-04-18T16:09:02Z    
4/18/2018    9:09:02    39.19         12.63        0.79      84.26                 4.88          33.64     1803  34.00765    -118.50015    2018-04-18T16:09:02Z    
4/18/2018    9:09:02    39.20         12.63        0.79      84.28                 4.80          33.64     1804  34.00765    -118.50015    2018-04-18T16:09:02Z    
4/18/2018    9:09:02    39.20         12.63        0.79      84.25                 4.71          33.64     1805  34.00765    -118.50015    2018-04-18T16:09:02Z    
4/18/2018    9:09:02    39.20         12.63        0.76      84.28                 4.83          33.64     1806  34.00765    -118.50015    2018-04-18T16:09:02Z    
4/18/2018    9:09:03    39.19         12.63        0.76      84.23                 4.92          33.64     1807  34.00765    -118.50015    2018-04-18T16:09:03Z    
4/18/2018    9:09:03    39.19         12.63        0.73      84.26                 5.65          33.64     1808  34.00765    -118.50015    2018-04-18T16:09:03Z    
4/18/2018    9:09:03    39.19         12.63        0.71      84.27                 5.89          33.64     1809  34.00765    -118.50015    2018-04-18T16:09:03Z    
4/18/2018    9:09:03    39.20         12.63        0.68      84.25                 6.05          33.64     1810  34.00765    -118.50015    2018-04-18T16:09:03Z    
4/18/2018    9:09:03    39.20         12.63        0.65      84.27                 5.93          33.64     1811  34.00765    -118.50015    2018-04-18T16:09:03Z    
4/18/2018    9:09:03    39.20         12.63        0.62      84.31                 5.81          33.64     1812  34.00765    -118.50015    2018-04-18T16:09:03Z    
4/18/2018    9:09:04    39.20         12.63        0.61      84.22                 5.71          33.64     1813  34.00765    -118.50015    2018-04-18T16:09:04Z    
4/18/2018    9:09:04    39.20         12.63        0.60      84.28                 5.51          33.64     1814  34.00765    -118.50015    2018-04-18T16:09:04Z    
4/18/2018    9:09:04    39.20         12.63        0.59      84.31                 5.51          33.64     1815  34.00765    -118.50015    2018-04-18T16:09:04Z    
4/18/2018    9:09:04    39.20         12.63        0.57      84.30                 5.35          33.64     1816  34.00765    -118.50015    2018-04-18T16:09:04Z    
4/18/2018    9:09:04    39.19         12.63        0.56      84.34                 5.21          33.65     1817  34.00765    -118.50015    2018-04-18T16:09:04Z    
4/18/2018    9:09:04    39.19         12.63        0.56      84.32                 5.08          33.64     1818  34.00765    -118.50015    2018-04-18T16:09:04Z    
4/18/2018    9:09:05    39.19         12.63        0.56      84.32                 4.97          33.64     1819  34.00765    -118.50015    2018-04-18T16:09:05Z    
4/18/2018    9:09:05    39.19         12.63        0.59      84.38                 4.86          33.64     1820  34.00765    -118.50015    2018-04-18T16:09:05Z    
4/18/2018    9:09:05    39.19         12.63        0.61      84.35                 4.78          33.64     1821  34.00765    -118.50015    2018-04-18T16:09:05Z    
4/18/2018    9:09:05    39.19         12.63        0.65      84.33                 4.71          33.64     1822  34.00765    -118.50015    2018-04-18T16:09:05Z    
4/18/2018    9:09:05    39.19         12.63        0.70      84.36                 4.71          33.64     1823  34.00765    -118.50015    2018-04-18T16:09:05Z    
4/18/2018    9:09:05    39.19         12.63        0.75      84.36                 4.95          33.64     1824  34.00765    -118.50015    2018-04-18T16:09:05Z    
4/18/2018    9:09:06    39.19         12.62        0.79      84.39                 5.02          33.64     1825  34.00765    -118.50015    2018-04-18T16:09:06Z    
4/18/2018    9:09:06    39.19         12.62        0.83      84.34                 4.96          33.64     1826  34.00765    -118.50015    2018-04-18T16:09:06Z    
4/18/2018    9:09:06    39.19         12.63        0.86      84.35                 5.00          33.64     1827  34.00765    -118.50015    2018-04-18T16:09:06Z    
4/18/2018    9:09:06    39.19         12.62        0.90      84.37                 4.98          33.64     1828  34.00765    -118.50015    2018-04-18T16:09:06Z    
4/18/2018    9:09:06    39.19         12.62        0.92      84.36                 4.88          33.64     1829  34.00765    -118.50015    2018-04-18T16:09:06Z    
4/18/2018    9:09:06    39.19         12.62        0.94      84.35                 4.86          33.65     1830  34.00765    -118.50015    2018-04-18T16:09:06Z    
4/18/2018    9:09:07    39.19         12.62        0.95      84.35                 4.90          33.64     1831  34.00765    -118.50015    2018-04-18T16:09:07Z    
4/18/2018    9:09:07    39.19         12.62        0.94      84.31                 4.96          33.65     1832  34.00765    -118.50015    2018-04-18T16:09:07Z    
4/18/2018    9:09:07    39.19         12.62        0.94      84.30                 4.91          33.64     1833  34.00765    -118.50015    2018-04-18T16:09:07Z    
4/18/2018    9:09:07    39.19         12.62        0.93      84.27                 4.74          33.64     1834  34.00765    -118.50015    2018-04-18T16:09:07Z    
4/18/2018    9:09:07    39.19         12.63        0.91      84.29                 4.82          33.64     1835  34.00765    -118.50015    2018-04-18T16:09:07Z    
4/18/2018    9:09:07    39.19         12.63        0.88      84.31                 4.87          33.64     1836  34.00765    -118.50015    2018-04-18T16:09:07Z    
4/18/2018    9:09:08    39.19         12.63        0.85      84.26                 4.93          33.64     1837  34.00765    -118.50015    2018-04-18T16:09:08Z    
4/18/2018    9:09:08    39.19         12.63        0.83      84.23                 4.86          33.64     1838  34.00765    -118.50015    2018-04-18T16:09:08Z    
4/18/2018    9:09:08    39.19         12.63        0.82      84.20                 4.79          33.64     1839  34.00765    -118.50015    2018-04-18T16:09:08Z    
4/18/2018    9:09:08    39.19         12.63        0.78      84.18                 4.75          33.64     1840  34.00765    -118.50015    2018-04-18T16:09:08Z    
4/18/2018    9:09:08    39.19         12.63        0.77      84.18                 4.87          33.64     1841  34.00765    -118.50015    2018-04-18T16:09:08Z    
4/18/2018    9:09:08    39.19         12.63        0.74      84.13                 4.94          33.64     1842  34.00765    -118.50015    2018-04-18T16:09:08Z    
4/18/2018    9:09:09    39.19         12.63        0.74      84.12                 4.93          33.64     1843  34.00765    -118.50015    2018-04-18T16:09:09Z    
4/18/2018    9:09:09    39.19         12.63        0.73      84.08                 4.87          33.64     1844  34.00765    -118.50015    2018-04-18T16:09:09Z    
4/18/2018    9:09:09    39.19         12.63        0.72      84.07                 5.05          33.64     1845  34.00765    -118.50015    2018-04-18T16:09:09Z    
4/18/2018    9:09:09    39.19         12.63        0.70      84.05                 5.10          33.64     1846  34.00765    -118.50015    2018-04-18T16:09:09Z    
4/18/2018    9:09:09    39.19         12.63        0.72      84.05                 5.22          33.64     1847  34.00765    -118.50015    2018-04-18T16:09:09Z    
4/18/2018    9:09:09    39.19         12.63        0.74      84.06                 5.21          33.64     1848  34.00765    -118.50015    2018-04-18T16:09:09Z    
4/18/2018    9:09:10    39.19         12.63        0.77      84.07                 5.11          33.64     1849  34.00765    -118.50015    2018-04-18T16:09:10Z    
4/18/2018    9:09:10    39.19         12.63        0.80      84.07                 5.03          33.64     1850  34.00765    -118.50015    2018-04-18T16:09:10Z    
4/18/2018    9:09:10    39.19         12.63        0.84      84.05                 4.92          33.64     1851  34.00765    -118.50015    2018-04-18T16:09:10Z    
4/18/2018    9:09:10    39.19         12.63        0.87      84.06                 4.75          33.64     1852  34.00765    -118.50015    2018-04-18T16:09:10Z    
4/18/2018    9:09:10    39.19         12.63        0.90      84.05                 4.72          33.64     1853  34.00765    -118.50015    2018-04-18T16:09:10Z    
4/18/2018    9:09:10    39.19         12.63        0.91      84.08                 4.84          33.64     1854  34.00765    -118.50015    2018-04-18T16:09:10Z    
4/18/2018    9:09:11    39.19         12.63        0.92      84.04                 5.06          33.64     1855  34.00765    -118.50015    2018-04-18T16:09:11Z    
4/18/2018    9:09:11    39.19         12.63        0.93      83.96                 5.10          33.64     1856  34.00765    -118.50015    2018-04-18T16:09:11Z    
4/18/2018    9:09:11    39.19         12.63        0.94      83.97                 5.00          33.64     1857  34.00765    -118.50015    2018-04-18T16:09:11Z    
4/18/2018    9:09:11    39.19         12.63        0.93      83.98                 4.98          33.64     1858  34.00765    -118.50015    2018-04-18T16:09:11Z    
4/18/2018    9:09:11    39.19         12.63        0.92      83.99                 5.05          33.64     1859  34.00765    -118.50015    2018-04-18T16:09:11Z    
4/18/2018    9:09:11    39.19         12.63        0.89      84.00                 5.11          33.64     1860  34.00765    -118.50015    2018-04-18T16:09:11Z    
4/18/2018    9:09:12    39.19         12.63        0.86      84.01                 5.12          33.64     1861  34.00765    -118.50015    2018-04-18T16:09:12Z    
4/18/2018    9:09:12    39.19         12.63        0.84      84.01                 5.23          33.64     1862  34.00765    -118.50015    2018-04-18T16:09:12Z    
4/18/2018    9:09:12    39.19         12.63        0.80      83.98                 5.23          33.64     1863  34.00765    -118.50015    2018-04-18T16:09:12Z    
4/18/2018    9:09:12    39.19         12.63        0.74      83.99                 5.15          33.64     1864  34.00765    -118.50015    2018-04-18T16:09:12Z    
4/18/2018    9:09:12    39.19         12.63        0.71      83.99                 5.09          33.64     1865  34.00765    -118.50015    2018-04-18T16:09:12Z    
4/18/2018    9:09:12    39.19         12.63        0.68      83.98                 5.04          33.64     1866  34.00765    -118.50015    2018-04-18T16:09:12Z    
4/18/2018    9:09:13    39.19         12.63        0.65      83.98                 5.10          33.64     1867  34.00765    -118.50015    2018-04-18T16:09:13Z    
4/18/2018    9:09:13    39.19         12.63        0.63      84.05                 4.90          33.64     1868  34.00765    -118.50015    2018-04-18T16:09:13Z    
4/18/2018    9:09:13    39.19         12.63        0.61      84.00                 4.76          33.65     1869  34.00765    -118.50015    2018-04-18T16:09:13Z    
4/18/2018    9:09:13    39.19         12.63        0.61      83.96                 4.90          33.65     1870  34.00765    -118.50015    2018-04-18T16:09:13Z    
4/18/2018    9:09:13    39.19         12.63        0.59      83.97                 5.12          33.64     1871  34.00765    -118.50015    2018-04-18T16:09:13Z    
4/18/2018    9:09:13    39.19         12.63        0.59      83.96                 5.04          33.64     1872  34.00765    -118.50015    2018-04-18T16:09:13Z    
4/18/2018    9:09:14    39.20         12.63        0.59      83.99                 4.93          33.64     1873  34.00765    -118.50015    2018-04-18T16:09:14Z    
4/18/2018    9:09:14    39.20         12.63        0.58      83.98                 4.87          33.64     1874  34.00765    -118.50015    2018-04-18T16:09:14Z    
4/18/2018    9:09:14    39.20         12.63        0.56      84.02                 4.82          33.64     1875  34.00765    -118.50015    2018-04-18T16:09:14Z    
4/18/2018    9:09:14    39.19         12.63        0.55      84.04                 4.78          33.64     1876  34.00765    -118.50015    2018-04-18T16:09:14Z    
4/18/2018    9:09:14    39.19         12.63        0.54      84.06                 4.74          33.64     1877  34.00765    -118.50015    2018-04-18T16:09:14Z    
4/18/2018    9:09:14    39.19         12.63        0.53      84.04                 4.74          33.64     1878  34.00765    -118.50015    2018-04-18T16:09:14Z    
4/18/2018    9:09:15    39.19         12.63        0.51      84.04                 4.72          33.64     1879  34.00765    -118.50015    2018-04-18T16:09:15Z    
4/18/2018    9:09:15    39.19         12.63        0.49      84.08                 4.71          33.64     1880  34.00765    -118.50015    2018-04-18T16:09:15Z    
4/18/2018    9:09:15    39.20         12.63        0.47      84.12                 4.75          33.64     1881  34.00765    -118.50015    2018-04-18T16:09:15Z    
4/18/2018    9:09:15    39.19         12.63        0.46      84.10                 4.80          33.64     1882  34.00765    -118.50015    2018-04-18T16:09:15Z    
4/18/2018    9:09:15    39.19         12.63        0.48      84.09                 4.78          33.64     1883  34.00765    -118.50015    2018-04-18T16:09:15Z    
4/18/2018    9:09:15    39.19         12.63        0.51      84.15                 4.86          33.64     1884  34.00765    -118.50015    2018-04-18T16:09:15Z    
4/18/2018    9:09:16    39.19         12.63        0.55      84.18                 4.79          33.64     1885  34.00765    -118.50015    2018-04-18T16:09:16Z    
4/18/2018    9:09:16    39.19         12.63        0.58      84.21                 4.78          33.64     1886  34.00765    -118.50015    2018-04-18T16:09:16Z    
4/18/2018    9:09:16    39.20         12.63        0.60      84.22                 4.80          33.64     1887  34.00765    -118.50015    2018-04-18T16:09:16Z    
4/18/2018    9:09:16    39.19         12.63        0.64      84.22                 4.73          33.64     1888  34.00765    -118.50015    2018-04-18T16:09:16Z    
4/18/2018    9:09:16    39.20         12.63        0.67      84.22                 4.62          33.64     1889  34.00765    -118.50015    2018-04-18T16:09:16Z    
4/18/2018    9:09:16    39.20         12.63        0.70      84.27                 4.58          33.64     1890  34.00765    -118.50015    2018-04-18T16:09:16Z    
4/18/2018    9:09:17    39.20         12.63        0.74      84.27                 4.56          33.64     1891  34.00765    -118.50015    2018-04-18T16:09:17Z    
4/18/2018    9:09:17    39.20         12.63        0.77      84.24                 4.49          33.64     1892  34.00765    -118.50015    2018-04-18T16:09:17Z    
4/18/2018    9:09:17    39.20         12.63        0.82      84.30                 4.57          33.64     1893  34.00765    -118.50015    2018-04-18T16:09:17Z    
4/18/2018    9:09:17    39.19         12.63        0.87      84.34                 4.73          33.64     1894  34.00765    -118.50015    2018-04-18T16:09:17Z    
4/18/2018    9:09:17    39.19         12.63        0.90      84.33                 4.99          33.64     1895  34.00765    -118.50015    2018-04-18T16:09:17Z    
4/18/2018    9:09:17    39.19         12.63        0.94      84.31                 5.12          33.64     1896  34.00765    -118.50015    2018-04-18T16:09:17Z    
4/18/2018    9:09:18    39.19         12.63        0.97      84.32                 5.18          33.64     1897  34.00765    -118.50015    2018-04-18T16:09:18Z    
4/18/2018    9:09:18    39.20         12.63        0.98      84.31                 5.07          33.64     1898  34.00765    -118.50015    2018-04-18T16:09:18Z    
4/18/2018    9:09:18    39.19         12.63        1.00      84.35                 5.08          33.64     1899  34.00765    -118.50015    2018-04-18T16:09:18Z    
4/18/2018    9:09:18    39.20         12.63        0.98      84.36                 4.96          33.64     1900  34.00765    -118.50015    2018-04-18T16:09:18Z    
4/18/2018    9:09:18    39.20         12.63        0.96      84.35                 4.82          33.64     1901  34.00765    -118.50015    2018-04-18T16:09:18Z    
4/18/2018    9:09:18    39.20         12.63        0.95      84.34                 4.80          33.64     1902  34.00765    -118.50015    2018-04-18T16:09:18Z    
4/18/2018    9:09:19    39.20         12.64        0.93      84.33                 4.96          33.64     1903  34.00765    -118.50015    2018-04-18T16:09:19Z    
4/18/2018    9:09:19    39.20         12.63        0.90      84.31                 5.28          33.64     1904  34.00765    -118.50015    2018-04-18T16:09:19Z    
4/18/2018    9:09:19    39.20         12.63        0.88      84.33                 5.53          33.64     1905  34.00765    -118.50015    2018-04-18T16:09:19Z    
4/18/2018    9:09:19    39.20         12.63        0.84      84.33                 5.58          33.64     1906  34.00765    -118.50015    2018-04-18T16:09:19Z    
4/18/2018    9:09:19    39.20         12.63        0.82      84.31                 5.47          33.64     1907  34.00765    -118.50015    2018-04-18T16:09:19Z    
4/18/2018    9:09:19    39.20         12.63        0.79      84.24                 5.28          33.64     1908  34.00765    -118.50015    2018-04-18T16:09:19Z    
4/18/2018    9:09:20    39.20         12.63        0.79      84.31                 5.17          33.64     1909  34.00765    -118.50015    2018-04-18T16:09:20Z    
4/18/2018    9:09:20    39.20         12.63        0.78      84.29                 5.01          33.64     1910  34.00765    -118.50015    2018-04-18T16:09:20Z    
4/18/2018    9:09:20    39.20         12.63        0.78      84.29                 4.98          33.64     1911  34.00765    -118.50015    2018-04-18T16:09:20Z    
4/18/2018    9:09:20    39.19         12.63        0.80      84.30                 4.93          33.64     1912  34.00765    -118.50015    2018-04-18T16:09:20Z    
4/18/2018    9:09:20    39.20         12.63        0.82      84.26                 4.78          33.64     1913  34.00765    -118.50015    2018-04-18T16:09:20Z    
4/18/2018    9:09:20    39.20         12.63        0.84      84.27                 4.70          33.64     1914  34.00765    -118.50015    2018-04-18T16:09:20Z    
4/18/2018    9:09:21    39.20         12.63        0.85      84.30                 4.59          33.64     1915  34.00765    -118.50015    2018-04-18T16:09:21Z    
4/18/2018    9:09:21    39.20         12.63        0.86      84.33                 4.54          33.64     1916  34.00765    -118.50015    2018-04-18T16:09:21Z    
4/18/2018    9:09:21    39.20         12.64        0.85      84.29                 4.44          33.64     1917  34.00765    -118.50015    2018-04-18T16:09:21Z    
4/18/2018    9:09:21    39.20         12.64        0.84      84.29                 4.75          33.64     1918  34.00765    -118.50015    2018-04-18T16:09:21Z    
4/18/2018    9:09:21    39.20         12.63        0.83      84.28                 5.36          33.64     1919  34.00765    -118.50015    2018-04-18T16:09:21Z    
4/18/2018    9:09:21    39.20         12.63        0.81      84.24                 5.99          33.64     1920  34.00765    -118.50015    2018-04-18T16:09:21Z    
4/18/2018    9:09:22    39.20         12.63        0.79      84.29                 6.21          33.64     1921  34.00765    -118.50015    2018-04-18T16:09:22Z    
4/18/2018    9:09:22    39.20         12.63        0.78      84.23                 6.22          33.64     1922  34.00765    -118.50015    2018-04-18T16:09:22Z    
4/18/2018    9:09:22    39.20         12.63        0.78      84.24                 5.89          33.64     1923  34.00765    -118.50015    2018-04-18T16:09:22Z    
4/18/2018    9:09:22    39.20         12.63        0.77      84.27                 5.58          33.64     1924  34.00765    -118.50015    2018-04-18T16:09:22Z    
4/18/2018    9:09:22    39.20         12.63        0.76      84.23                 5.40          33.64     1925  34.00765    -118.50015    2018-04-18T16:09:22Z    
4/18/2018    9:09:22    39.20         12.63        0.77      84.26                 5.38          33.64     1926  34.00765    -118.50015    2018-04-18T16:09:22Z    
4/18/2018    9:09:23    39.20         12.63        0.75      84.25                 5.24          33.64     1927  34.00765    -118.50015    2018-04-18T16:09:23Z    
4/18/2018    9:09:23    39.20         12.63        0.74      84.26                 5.18          33.64     1928  34.00765    -118.50015    2018-04-18T16:09:23Z    
4/18/2018    9:09:23    39.20         12.63        0.71      84.25                 5.03          33.64     1929  34.00765    -118.50015    2018-04-18T16:09:23Z    
4/18/2018    9:09:23    39.20         12.63        0.70      84.23                 4.94          33.64     1930  34.00765    -118.50015    2018-04-18T16:09:23Z    
4/18/2018    9:09:23    39.20         12.63        0.66      84.24                 4.99          33.64     1931  34.00765    -118.50015    2018-04-18T16:09:23Z    
4/18/2018    9:09:23    39.20         12.63        0.64      84.23                 4.97          33.64     1932  34.00765    -118.50015    2018-04-18T16:09:23Z    
4/18/2018    9:09:24    39.20         12.63        0.63      84.25                 4.87          33.64     1933  34.00765    -118.50015    2018-04-18T16:09:24Z    
4/18/2018    9:09:24    39.20         12.63        0.62      84.25                 4.83          33.65     1934  34.00765    -118.50015    2018-04-18T16:09:24Z    
4/18/2018    9:09:24    39.20         12.63        0.61      84.24                 4.88          33.64     1935  34.00765    -118.50015    2018-04-18T16:09:24Z    
4/18/2018    9:09:24    39.20         12.63        0.63      84.28                 5.00          33.64     1936  34.00765    -118.50015    2018-04-18T16:09:24Z    
4/18/2018    9:09:24    39.19         12.63        0.63      84.28                 5.14          33.64     1937  34.00765    -118.50015    2018-04-18T16:09:24Z    
4/18/2018    9:09:24    39.20         12.62        0.64      84.28                 5.18          33.65     1938  34.00765    -118.50015    2018-04-18T16:09:24Z    
4/18/2018    9:09:25    39.19         12.63        0.65      84.26                 5.07          33.65     1939  34.00765    -118.50015    2018-04-18T16:09:25Z    
4/18/2018    9:09:25    39.19         12.63        0.65      84.30                 4.98          33.64     1940  34.00765    -118.50015    2018-04-18T16:09:25Z    
4/18/2018    9:09:25    39.20         12.63        0.64      84.26                 4.86          33.65     1941  34.00765    -118.50015    2018-04-18T16:09:25Z    
4/18/2018    9:09:25    39.20         12.63        0.64      84.30                 4.83          33.64     1942  34.00765    -118.50015    2018-04-18T16:09:25Z    
4/18/2018    9:09:25    39.20         12.63        0.63      84.29                 4.73          33.64     1943  34.00765    -118.50015    2018-04-18T16:09:25Z    
4/18/2018    9:09:25    39.20         12.63        0.63      84.31                 4.68          33.64     1944  34.00765    -118.50015    2018-04-18T16:09:25Z    
4/18/2018    9:09:26    39.20         12.63        0.63      84.32                 4.74          33.64     1945  34.00765    -118.50015    2018-04-18T16:09:26Z    
4/18/2018    9:09:26    39.20         12.63        0.64      84.29                 4.76          33.64     1946  34.00765    -118.50015    2018-04-18T16:09:26Z    
4/18/2018    9:09:26    39.20         12.63        0.65      84.30                 4.77          33.64     1947  34.00765    -118.50015    2018-04-18T16:09:26Z    
4/18/2018    9:09:26    39.20         12.63        0.67      84.29                 4.77          33.65     1948  34.00765    -118.50015    2018-04-18T16:09:26Z    
4/18/2018    9:09:26    39.20         12.63        0.69      84.30                 4.86          33.64     1949  34.00765    -118.50015    2018-04-18T16:09:26Z    
4/18/2018    9:09:26    39.20         12.63        0.74      84.30                 4.82          33.64     1950  34.00765    -118.50015    2018-04-18T16:09:26Z    
4/18/2018    9:09:27    39.20         12.63        0.74      84.33                 4.87          33.64     1951  34.00765    -118.50015    2018-04-18T16:09:27Z    
4/18/2018    9:09:27    39.20         12.63        0.77      84.32                 4.94          33.64     1952  34.00765    -118.50015    2018-04-18T16:09:27Z    
4/18/2018    9:09:27    39.20         12.63        0.78      84.30                 4.89          33.64     1953  34.00765    -118.50015    2018-04-18T16:09:27Z    
4/18/2018    9:09:27    39.20         12.63        0.80      84.32                 4.75          33.64     1954  34.00765    -118.50015    2018-04-18T16:09:27Z    
4/18/2018    9:09:27    39.20         12.63        0.81      84.31                 4.71          33.64     1955  34.00765    -118.50015    2018-04-18T16:09:27Z    
4/18/2018    9:09:27    39.20         12.63        0.79      84.30                 4.69          33.64     1956  34.00765    -118.50015    2018-04-18T16:09:27Z    
4/18/2018    9:09:28    39.20         12.64        0.80      84.31                 4.66          33.64     1957  34.00765    -118.50015    2018-04-18T16:09:28Z    
4/18/2018    9:09:28    39.20         12.64        0.79      84.35                 4.69          33.64     1958  34.00765    -118.50015    2018-04-18T16:09:28Z    
4/18/2018    9:09:28    39.20         12.63        0.78      84.35                 4.70          33.64     1959  34.00765    -118.50015    2018-04-18T16:09:28Z    
4/18/2018    9:09:28    39.20         12.63        0.79      84.30                 4.92          33.64     1960  34.00765    -118.50015    2018-04-18T16:09:28Z    
4/18/2018    9:09:28    39.20         12.63        0.80      84.37                 5.04          33.64     1961  34.00765    -118.50015    2018-04-18T16:09:28Z    
4/18/2018    9:09:28    39.20         12.63        0.81      84.33                 4.98          33.64     1962  34.00765    -118.50015    2018-04-18T16:09:28Z    
4/18/2018    9:09:29    39.20         12.63        0.83      84.33                 5.09          33.64     1963  34.00765    -118.50015    2018-04-18T16:09:29Z    
4/18/2018    9:09:29    39.20         12.63        0.84      84.32                 5.34          33.64     1964  34.00765    -118.50015    2018-04-18T16:09:29Z    
4/18/2018    9:09:29    39.20         12.64        0.85      84.30                 5.36          33.64     1965  34.00765    -118.50015    2018-04-18T16:09:29Z    
4/18/2018    9:09:29    39.20         12.64        0.84      84.33                 5.16          33.64     1966  34.00765    -118.50015    2018-04-18T16:09:29Z    
4/18/2018    9:09:29    39.20         12.64        0.83      84.35                 4.97          33.64     1967  34.00765    -118.50015    2018-04-18T16:09:29Z    
4/18/2018    9:09:29    39.20         12.64        0.81      84.32                 4.78          33.64     1968  34.00765    -118.50015    2018-04-18T16:09:29Z    
4/18/2018    9:09:30    39.20         12.64        0.78      84.33                 4.76          33.64     1969  34.00765    -118.50015    2018-04-18T16:09:30Z    
4/18/2018    9:09:30    39.20         12.64        0.75      84.28                 4.74          33.64     1970  34.00765    -118.50015    2018-04-18T16:09:30Z    
4/18/2018    9:09:30    39.20         12.64        0.72      84.33                 4.76          33.64     1971  34.00765    -118.50015    2018-04-18T16:09:30Z    
4/18/2018    9:09:30    39.20         12.64        0.69      84.34                 4.78          33.64     1972  34.00765    -118.50015    2018-04-18T16:09:30Z    
4/18/2018    9:09:30    39.20         12.63        0.67      84.29                 4.66          33.64     1973  34.00765    -118.50015    2018-04-18T16:09:30Z    
4/18/2018    9:09:30    39.20         12.63        0.67      84.30                 4.50          33.64     1974  34.00765    -118.50015    2018-04-18T16:09:30Z    
4/18/2018    9:09:31    39.20         12.63        0.67      84.33                 4.61          33.64     1975  34.00765    -118.50015    2018-04-18T16:09:31Z    
4/18/2018    9:09:31    39.20         12.63        0.69      84.32                 4.66          33.64     1976  34.00765    -118.50015    2018-04-18T16:09:31Z    
4/18/2018    9:09:31    39.19         12.64        0.72      84.33                 4.73          33.64     1977  34.00765    -118.50015    2018-04-18T16:09:31Z    
4/18/2018    9:09:31    39.20         12.63        0.75      84.32                 4.82          33.64     1978  34.00765    -118.50015    2018-04-18T16:09:31Z    
4/18/2018    9:09:31    39.20         12.63        0.78      84.33                 5.01          33.64     1979  34.00765    -118.50015    2018-04-18T16:09:31Z    
4/18/2018    9:09:31    39.19         12.63        0.82      84.33                 5.11          33.64     1980  34.00765    -118.50015    2018-04-18T16:09:31Z    
4/18/2018    9:09:32    39.19         12.63        0.86      84.31                 5.20          33.64     1981  34.00765    -118.50015    2018-04-18T16:09:32Z    
4/18/2018    9:09:32    39.19         12.63        0.87      84.31                 5.07          33.63     1982  34.00765    -118.50015    2018-04-18T16:09:32Z    
4/18/2018    9:09:32    39.19         12.63        0.90      84.30                 5.11          33.64     1983  34.00765    -118.50015    2018-04-18T16:09:32Z    
4/18/2018    9:09:32    39.19         12.63        0.91      84.28                 5.32          33.64     1984  34.00765    -118.50015    2018-04-18T16:09:32Z    
4/18/2018    9:09:32    39.19         12.63        0.91      84.31                 5.28          33.64     1985  34.00765    -118.50015    2018-04-18T16:09:32Z    
4/18/2018    9:09:32    39.19         12.63        0.91      84.30                 5.21          33.64     1986  34.00765    -118.50015    2018-04-18T16:09:32Z    
4/18/2018    9:09:33    39.19         12.63        0.92      84.35                 5.41          33.64     1987  34.00765    -118.50015    2018-04-18T16:09:33Z    
4/18/2018    9:09:33    39.19         12.63        0.91      84.29                 5.56          33.64     1988  34.00765    -118.50015    2018-04-18T16:09:33Z    
4/18/2018    9:09:33    39.19         12.63        0.90      84.28                 5.91          33.64     1989  34.00765    -118.50015    2018-04-18T16:09:33Z    
4/18/2018    9:09:33    39.19         12.63        0.88      84.26                 5.83          33.64     1990  34.00765    -118.50015    2018-04-18T16:09:33Z    
4/18/2018    9:09:33    39.19         12.63        0.85      84.30                 5.54          33.64     1991  34.00765    -118.50015    2018-04-18T16:09:33Z    
4/18/2018    9:09:33    39.19         12.63        0.82      84.28                 5.47          33.64     1992  34.00765    -118.50015    2018-04-18T16:09:33Z    
4/18/2018    9:09:34    39.19         12.63        0.77      84.25                 5.36          33.64     1993  34.00765    -118.50015    2018-04-18T16:09:34Z    
4/18/2018    9:09:34    39.19         12.63        0.72      84.26                 5.22          33.64     1994  34.00765    -118.50015    2018-04-18T16:09:34Z    
4/18/2018    9:09:34    39.20         12.63        0.66      84.25                 5.18          33.64     1995  34.00765    -118.50015    2018-04-18T16:09:34Z    
4/18/2018    9:09:34    39.20         12.63        0.61      84.26                 5.09          33.64     1996  34.00765    -118.50015    2018-04-18T16:09:34Z    
4/18/2018    9:09:34    39.19         12.63        0.57      84.26                 4.95          33.64     1997  34.00765    -118.50015    2018-04-18T16:09:34Z    
4/18/2018    9:09:34    39.19         12.63        0.55      84.29                 4.81          33.64     1998  34.00765    -118.50015    2018-04-18T16:09:34Z    
4/18/2018    9:09:35    39.19         12.63        0.53      84.25                 4.68          33.64     1999  34.00765    -118.50015    2018-04-18T16:09:35Z    
4/18/2018    9:09:35    39.19         12.63        0.56      84.22                 4.59          33.64     2000  34.00765    -118.50015    2018-04-18T16:09:35Z    
4/18/2018    9:09:35    39.19         12.63        0.59      84.25                 4.53          33.64     2001  34.00765    -118.50015    2018-04-18T16:09:35Z    
4/18/2018    9:09:35    39.19         12.63        0.62      84.19                 4.51          33.64     2002  34.00765    -118.50015    2018-04-18T16:09:35Z    
4/18/2018    9:09:35    39.19         12.63        0.65      84.24                 4.72          33.64     2003  34.00765    -118.50015    2018-04-18T16:09:35Z    
4/18/2018    9:09:35    39.19         12.63        0.69      84.23                 4.89          33.64     2004  34.00765    -118.50015    2018-04-18T16:09:35Z    
4/18/2018    9:09:36    39.19         12.63        0.72      84.23                 4.95          33.64     2005  34.00765    -118.50015    2018-04-18T16:09:36Z    
4/18/2018    9:09:36    39.19         12.63        0.75      84.22                 4.89          33.64     2006  34.00765    -118.50015    2018-04-18T16:09:36Z    
4/18/2018    9:09:36    39.19         12.63        0.76      84.19                 4.88          33.64     2007  34.00765    -118.50015    2018-04-18T16:09:36Z    
4/18/2018    9:09:36    39.19         12.63        0.76      84.27                 4.95          33.64     2008  34.00765    -118.50015    2018-04-18T16:09:36Z    
4/18/2018    9:09:36    39.19         12.63        0.77      84.26                 4.94          33.64     2009  34.00765    -118.50015    2018-04-18T16:09:36Z    
4/18/2018    9:09:36    39.19         12.63        0.79      84.25                 4.79          33.64     2010  34.00765    -118.50015    2018-04-18T16:09:36Z    
4/18/2018    9:09:37    39.19         12.63        0.80      84.22                 4.71          33.64     2011  34.00765    -118.50015    2018-04-18T16:09:37Z    
4/18/2018    9:09:37    39.19         12.63        0.80      84.26                 4.61          33.64     2012  34.00765    -118.50015    2018-04-18T16:09:37Z    
4/18/2018    9:09:37    39.20         12.63        0.82      84.27                 4.55          33.64     2013  34.00765    -118.50015    2018-04-18T16:09:37Z    
4/18/2018    9:09:37    39.20         12.63        0.84      84.21                 4.52          33.64     2014  34.00765    -118.50015    2018-04-18T16:09:37Z    
4/18/2018    9:09:37    39.20         12.63        0.84      84.21                 4.45          33.64     2015  34.00765    -118.50015    2018-04-18T16:09:37Z    
4/18/2018    9:09:37    39.20         12.63        0.87      84.24                 4.36          33.64     2016  34.00765    -118.50015    2018-04-18T16:09:37Z    
4/18/2018    9:09:38    39.20         12.63        0.89      84.24                 4.42          33.64     2017  34.00765    -118.50015    2018-04-18T16:09:38Z    
4/18/2018    9:09:38    39.20         12.63        0.91      84.26                 4.47          33.64     2018  34.00765    -118.50015    2018-04-18T16:09:38Z    
4/18/2018    9:09:38    39.20         12.63        0.91      84.24                 4.51          33.64     2019  34.00765    -118.50015    2018-04-18T16:09:38Z    
4/18/2018    9:09:38    39.20         12.63        0.93      84.24                 4.59          33.64     2020  34.00765    -118.50015    2018-04-18T16:09:38Z    
4/18/2018    9:09:38    39.19         12.63        0.93      84.24                 4.79          33.64     2021  34.00765    -118.50015    2018-04-18T16:09:38Z    
4/18/2018    9:09:38    39.19         12.63        0.93      84.21                 4.81          33.64     2022  34.00765    -118.50015    2018-04-18T16:09:38Z    
4/18/2018    9:09:39    39.20         12.63        0.92      84.25                 4.73          33.64     2023  34.00765    -118.50015    2018-04-18T16:09:39Z    
4/18/2018    9:09:39    39.19         12.63        0.91      84.27                 4.72          33.64     2024  34.00765    -118.50015    2018-04-18T16:09:39Z    
4/18/2018    9:09:39    39.20         12.63        0.89      84.24                 4.70          33.64     2025  34.00765    -118.50015    2018-04-18T16:09:39Z    
4/18/2018    9:09:39    39.20         12.63        0.89      84.24                 4.65          33.64     2026  34.00765    -118.50015    2018-04-18T16:09:39Z    
4/18/2018    9:09:39    39.20         12.63        0.87      84.25                 4.63          33.64     2027  34.00765    -118.50015    2018-04-18T16:09:39Z    
4/18/2018    9:09:39    39.20         12.63        0.89      84.23                 4.62          33.64     2028  34.00765    -118.50015    2018-04-18T16:09:39Z    
4/18/2018    9:09:40    39.19         12.63        0.90      84.25                 4.62          33.64     2029  34.00765    -118.50015    2018-04-18T16:09:40Z    
4/18/2018    9:09:40    39.19         12.63        0.92      84.22                 4.64          33.64     2030  34.00765    -118.50015    2018-04-18T16:09:40Z    
4/18/2018    9:09:40    39.19         12.63        0.94      84.25                 4.85          33.64     2031  34.00765    -118.50015    2018-04-18T16:09:40Z    
4/18/2018    9:09:40    39.19         12.63        0.94      84.22                 4.88          33.64     2032  34.00765    -118.50015    2018-04-18T16:09:40Z    
4/18/2018    9:09:40    39.19         12.63        0.96      84.21                 4.92          33.64     2033  34.00765    -118.50015    2018-04-18T16:09:40Z    
4/18/2018    9:09:40    39.19         12.63        0.94      84.25                 4.83          33.64     2034  34.00765    -118.50015    2018-04-18T16:09:40Z    
4/18/2018    9:09:41    39.19         12.63        0.92      84.23                 4.77          33.64     2035  34.00765    -118.50015    2018-04-18T16:09:41Z    
4/18/2018    9:09:41    39.19         12.63        0.90      84.21                 4.68          33.64     2036  34.00765    -118.50015    2018-04-18T16:09:41Z    
4/18/2018    9:09:41    39.19         12.63        0.87      84.18                 4.51          33.64     2037  34.00765    -118.50015    2018-04-18T16:09:41Z    
4/18/2018    9:09:41    39.19         12.63        0.84      84.19                 4.46          33.64     2038  34.00765    -118.50015    2018-04-18T16:09:41Z    
4/18/2018    9:09:41    39.19         12.63        0.80      84.20                 4.42          33.64     2039  34.00765    -118.50015    2018-04-18T16:09:41Z    
4/18/2018    9:09:41    39.19         12.63        0.76      84.17                 4.34          33.64     2040  34.00765    -118.50015    2018-04-18T16:09:41Z    
4/18/2018    9:09:42    39.19         12.63        0.74      84.16                 4.39          33.64     2041  34.00765    -118.50015    2018-04-18T16:09:42Z    
4/18/2018    9:09:42    39.19         12.63        0.70      84.16                 4.40          33.64     2042  34.00765    -118.50015    2018-04-18T16:09:42Z    
4/18/2018    9:09:42    39.19         12.63        0.68      84.15                 4.52          33.64     2043  34.00765    -118.50015    2018-04-18T16:09:42Z    
4/18/2018    9:09:42    39.19         12.63        0.64      84.10                 4.80          33.64     2044  34.00765    -118.50015    2018-04-18T16:09:42Z    
4/18/2018    9:09:42    39.19         12.63        0.61      84.12                 4.94          33.64     2045  34.00765    -118.50015    2018-04-18T16:09:42Z    
4/18/2018    9:09:42    39.19         12.63        0.61      84.16                 5.11          33.64     2046  34.00765    -118.50015    2018-04-18T16:09:42Z    
4/18/2018    9:09:43    39.19         12.63        0.60      84.15                 5.21          33.64     2047  34.00765    -118.50015    2018-04-18T16:09:43Z    
4/18/2018    9:09:43    39.19         12.63        0.59      84.14                 5.06          33.64     2048  34.00765    -118.50015    2018-04-18T16:09:43Z    
4/18/2018    9:09:43    39.19         12.63        0.59      84.16                 4.91          33.64     2049  34.00765    -118.50015    2018-04-18T16:09:43Z    
4/18/2018    9:09:43    39.19         12.63        0.60      84.16                 5.04          33.64     2050  34.00765    -118.50015    2018-04-18T16:09:43Z    
4/18/2018    9:09:43    39.19         12.63        0.61      84.13                 5.15          33.64     2051  34.00765    -118.50015    2018-04-18T16:09:43Z    
4/18/2018    9:09:43    39.19         12.63        0.63      84.17                 5.03          33.64     2052  34.00765    -118.50015    2018-04-18T16:09:43Z    
4/18/2018    9:09:44    39.19         12.63        0.66      84.18                 4.84          33.64     2053  34.00765    -118.50015    2018-04-18T16:09:44Z    
4/18/2018    9:09:44    39.19         12.63        0.68      84.14                 4.72          33.64     2054  34.00765    -118.50015    2018-04-18T16:09:44Z    
4/18/2018    9:09:44    39.19         12.63        0.69      84.10                 4.63          33.64     2055  34.00765    -118.50015    2018-04-18T16:09:44Z    
4/18/2018    9:09:44    39.19         12.63        0.70      84.08                 4.80          33.64     2056  34.00765    -118.50015    2018-04-18T16:09:44Z    
4/18/2018    9:09:44    39.19         12.63        0.68      84.10                 4.85          33.64     2057  34.00765    -118.50015    2018-04-18T16:09:44Z    
4/18/2018    9:09:44    39.19         12.63        0.68      84.11                 4.82          33.64     2058  34.00765    -118.50015    2018-04-18T16:09:44Z    
4/18/2018    9:09:45    39.19         12.63        0.67      84.12                 4.93          33.64     2059  34.00765    -118.50015    2018-04-18T16:09:45Z    
4/18/2018    9:09:45    39.19         12.63        0.65      84.09                 4.92          33.64     2060  34.00765    -118.50015    2018-04-18T16:09:45Z    
4/18/2018    9:09:45    39.19         12.63        0.63      84.07                 5.09          33.64     2061  34.00765    -118.50015    2018-04-18T16:09:45Z    
4/18/2018    9:09:45    39.19         12.63        0.61      84.05                 5.20          33.64     2062  34.00765    -118.50015    2018-04-18T16:09:45Z    
4/18/2018    9:09:45    39.19         12.63        0.61      84.06                 5.08          33.64     2063  34.00765    -118.50015    2018-04-18T16:09:45Z    
4/18/2018    9:09:45    39.19         12.63        0.62      84.04                 4.94          33.64     2064  34.00765    -118.50015    2018-04-18T16:09:45Z    
4/18/2018    9:09:46    39.19         12.63        0.64      84.05                 4.89          33.64     2065  34.00765    -118.50015    2018-04-18T16:09:46Z    
4/18/2018    9:09:46    39.19         12.63        0.68      84.09                 4.91          33.64     2066  34.00765    -118.50015    2018-04-18T16:09:46Z    
4/18/2018    9:09:46    39.19         12.63        0.70      84.07                 4.78          33.64     2067  34.00765    -118.50015    2018-04-18T16:09:46Z    
4/18/2018    9:09:46    39.19         12.63        0.76      84.04                 4.79          33.64     2068  34.00765    -118.50015    2018-04-18T16:09:46Z    
4/18/2018    9:09:46    39.19         12.63        0.79      84.03                 4.83          33.64     2069  34.00765    -118.50015    2018-04-18T16:09:46Z    
4/18/2018    9:09:46    39.19         12.63        0.84      84.00                 4.72          33.64     2070  34.00765    -118.50015    2018-04-18T16:09:46Z    
4/18/2018    9:09:47    39.19         12.63        0.86      84.03                 4.72          33.64     2071  34.00765    -118.50015    2018-04-18T16:09:47Z    
4/18/2018    9:09:47    39.19         12.63        0.88      84.01                 5.19          33.64     2072  34.00765    -118.50015    2018-04-18T16:09:47Z    
4/18/2018    9:09:47    39.19         12.63        0.90      84.01                 5.54          33.64     2073  34.00765    -118.50015    2018-04-18T16:09:47Z    
4/18/2018    9:09:47    39.19         12.63        0.90      84.05                 5.67          33.64     2074  34.00765    -118.50015    2018-04-18T16:09:47Z    
4/18/2018    9:09:47    39.19         12.63        0.91      84.04                 5.55          33.64     2075  34.00765    -118.50015    2018-04-18T16:09:47Z    
4/18/2018    9:09:47    39.19         12.63        0.90      84.03                 5.31          33.64     2076  34.00765    -118.50015    2018-04-18T16:09:47Z    
4/18/2018    9:09:48    39.19         12.63        0.91      84.05                 5.09          33.64     2077  34.00765    -118.50015    2018-04-18T16:09:48Z    
4/18/2018    9:09:48    39.19         12.63        0.92      84.03                 4.96          33.64     2078  34.00765    -118.50015    2018-04-18T16:09:48Z    
4/18/2018    9:09:48    39.19         12.63        0.93      84.01                 4.76          33.64     2079  34.00765    -118.50015    2018-04-18T16:09:48Z    
4/18/2018    9:09:48    39.19         12.63        0.92      84.03                 4.63          33.64     2080  34.00765    -118.50015    2018-04-18T16:09:48Z    
4/18/2018    9:09:48    39.19         12.63        0.93      84.02                 4.51          33.64     2081  34.00765    -118.50015    2018-04-18T16:09:48Z    
4/18/2018    9:09:48    39.19         12.63        0.92      84.02                 4.53          33.64     2082  34.00765    -118.50015    2018-04-18T16:09:48Z    
4/18/2018    9:09:49    39.19         12.63        0.93      83.99                 4.67          33.64     2083  34.00765    -118.50015    2018-04-18T16:09:49Z    
4/18/2018    9:09:49    39.19         12.63        0.92      84.02                 4.76          33.64     2084  34.00765    -118.50015    2018-04-18T16:09:49Z    
4/18/2018    9:09:49    39.19         12.63        0.90      84.03                 4.72          33.64     2085  34.00765    -118.50015    2018-04-18T16:09:49Z    
4/18/2018    9:09:49    39.19         12.63        0.89      84.00                 4.64          33.64     2086  34.00765    -118.50015    2018-04-18T16:09:49Z    
4/18/2018    9:09:49    39.19         12.63        0.87      84.06                 4.56          33.64     2087  34.00765    -118.50015    2018-04-18T16:09:49Z    
4/18/2018    9:09:49    39.19         12.63        0.86      84.04                 4.46          33.64     2088  34.00765    -118.50015    2018-04-18T16:09:49Z    
4/18/2018    9:09:50    39.19         12.63        0.82      84.09                 4.51          33.64     2089  34.00765    -118.50015    2018-04-18T16:09:50Z    
4/18/2018    9:09:50    39.19         12.63        0.80      84.11                 4.49          33.64     2090  34.00765    -118.50015    2018-04-18T16:09:50Z    
4/18/2018    9:09:50    39.19         12.63        0.78      84.03                 4.50          33.64     2091  34.00765    -118.50015    2018-04-18T16:09:50Z    
4/18/2018    9:09:50    39.19         12.63        0.78      84.06                 4.77          33.64     2092  34.00765    -118.50015    2018-04-18T16:09:50Z    
4/18/2018    9:09:50    39.19         12.63        0.78      84.08                 4.89          33.64     2093  34.00765    -118.50015    2018-04-18T16:09:50Z    
4/18/2018    9:09:50    39.19         12.63        0.81      84.06                 4.91          33.64     2094  34.00765    -118.50015    2018-04-18T16:09:50Z    
4/18/2018    9:09:51    39.19         12.63        0.84      84.05                 4.82          33.64     2095  34.00765    -118.50015    2018-04-18T16:09:51Z    
4/18/2018    9:09:51    39.19         12.63        0.85      84.08                 4.69          33.64     2096  34.00765    -118.50015    2018-04-18T16:09:51Z    
4/18/2018    9:09:51    39.19         12.63        0.86      84.09                 4.67          33.64     2097  34.00765    -118.50015    2018-04-18T16:09:51Z    
4/18/2018    9:09:51    39.19         12.63        0.88      84.11                 4.69          33.64     2098  34.00765    -118.50015    2018-04-18T16:09:51Z    
4/18/2018    9:09:51    39.19         12.63        0.88      84.09                 4.73          33.64     2099  34.00765    -118.50015    2018-04-18T16:09:51Z    
4/18/2018    9:09:51    39.19         12.63        0.87      84.09                 4.87          33.64     2100  34.00765    -118.50015    2018-04-18T16:09:51Z    
4/18/2018    9:09:52    39.19         12.63        0.87      84.09                 4.91          33.64     2101  34.00765    -118.50015    2018-04-18T16:09:52Z    
4/18/2018    9:09:52    39.19         12.63        0.84      84.09                 4.80          33.64     2102  34.00765    -118.50015    2018-04-18T16:09:52Z    
4/18/2018    9:09:52    39.19         12.63        0.81      84.13                 5.08          33.64     2103  34.00765    -118.50015    2018-04-18T16:09:52Z    
4/18/2018    9:09:52    39.19         12.63        0.79      84.11                 5.35          33.64     2104  34.00765    -118.50015    2018-04-18T16:09:52Z    
4/18/2018    9:09:52    39.19         12.63        0.77      84.04                 5.22          33.64     2105  34.00765    -118.50015    2018-04-18T16:09:52Z    
4/18/2018    9:09:52    39.19         12.63        0.73      84.08                 5.26          33.64     2106  34.00765    -118.50015    2018-04-18T16:09:52Z    
4/18/2018    9:09:53    39.19         12.63        0.72      84.02                 5.35          33.64     2107  34.00765    -118.50015    2018-04-18T16:09:53Z    
4/18/2018    9:09:53    39.19         12.63        0.70      84.07                 5.26          33.64     2108  34.00765    -118.50015    2018-04-18T16:09:53Z    
4/18/2018    9:09:53    39.19         12.63        0.68      84.08                 5.10          33.64     2109  34.00765    -118.50015    2018-04-18T16:09:53Z    
4/18/2018    9:09:53    39.19         12.63        0.66      84.06                 4.90          33.64     2110  34.00765    -118.50015    2018-04-18T16:09:53Z    
4/18/2018    9:09:53    39.19         12.63        0.66      84.10                 4.88          33.64     2111  34.00765    -118.50015    2018-04-18T16:09:53Z    
4/18/2018    9:09:53    39.19         12.63        0.64      84.08                 4.90          33.64     2112  34.00765    -118.50015    2018-04-18T16:09:53Z    
4/18/2018    9:09:54    39.19         12.63        0.64      84.06                 4.84          33.64     2113  34.00765    -118.50015    2018-04-18T16:09:54Z    
4/18/2018    9:09:54    39.19         12.63        0.64      84.06                 4.72          33.64     2114  34.00765    -118.50015    2018-04-18T16:09:54Z    
4/18/2018    9:09:54    39.19         12.63        0.64      84.04                 4.69          33.64     2115  34.00765    -118.50015    2018-04-18T16:09:54Z    
4/18/2018    9:09:54    39.19         12.63        0.65      84.05                 4.91          33.64     2116  34.00765    -118.50015    2018-04-18T16:09:54Z    
4/18/2018    9:09:54    39.19         12.63        0.66      84.01                 5.03          33.64     2117  34.00765    -118.50015    2018-04-18T16:09:54Z    
4/18/2018    9:09:54    39.19         12.63        0.68      84.03                 4.97          33.64     2118  34.00765    -118.50015    2018-04-18T16:09:54Z    
4/18/2018    9:09:55    39.19         12.63        0.70      84.04                 4.84          33.64     2119  34.00765    -118.50015    2018-04-18T16:09:55Z    
4/18/2018    9:09:55    39.19         12.63        0.72      84.03                 4.85          33.64     2120  34.00765    -118.50015    2018-04-18T16:09:55Z    
4/18/2018    9:09:55    39.19         12.63        0.73      84.00                 4.90          33.64     2121  34.00765    -118.50015    2018-04-18T16:09:55Z    
4/18/2018    9:09:55    39.19         12.63        0.71      84.01                 4.93          33.64     2122  34.00765    -118.50015    2018-04-18T16:09:55Z    
4/18/2018    9:09:55    39.19         12.63        0.70      84.05                 4.86          33.64     2123  34.00765    -118.50015    2018-04-18T16:09:55Z    
4/18/2018    9:09:55    39.19         12.63        0.68      84.02                 4.67          33.64     2124  34.00765    -118.50015    2018-04-18T16:09:55Z    
4/18/2018    9:09:56    39.19         12.63        0.66      84.00                 4.42          33.64     2125  34.00765    -118.50015    2018-04-18T16:09:56Z    
4/18/2018    9:09:56    39.19         12.63        0.62      84.00                 4.22          33.64     2126  34.00765    -118.50015    2018-04-18T16:09:56Z    
4/18/2018    9:09:56    39.19         12.63        0.60      84.03                 4.13          33.64     2127  34.00765    -118.50015    2018-04-18T16:09:56Z    
4/18/2018    9:09:56    39.19         12.63        0.59      84.03                 4.20          33.64     2128  34.00765    -118.50015    2018-04-18T16:09:56Z    
4/18/2018    9:09:56    39.19         12.63        0.61      84.07                 4.24          33.64     2129  34.00765    -118.50015    2018-04-18T16:09:56Z    
4/18/2018    9:09:56    39.19         12.63        0.62      84.06                 4.35          33.64     2130  34.00765    -118.50015    2018-04-18T16:09:56Z    
4/18/2018    9:09:57    39.19         12.63        0.64      84.10                 4.55          33.64     2131  34.00765    -118.50015    2018-04-18T16:09:57Z    
4/18/2018    9:09:57    39.19         12.63        0.66      84.05                 4.53          33.64     2132  34.00765    -118.50015    2018-04-18T16:09:57Z    
4/18/2018    9:09:57    39.19         12.63        0.70      84.01                 4.53          33.64     2133  34.00765    -118.50015    2018-04-18T16:09:57Z    
4/18/2018    9:09:57    39.19         12.63        0.73      84.08                 4.55          33.64     2134  34.00765    -118.50015    2018-04-18T16:09:57Z    
4/18/2018    9:09:57    39.19         12.63        0.76      84.05                 4.55          33.64     2135  34.00765    -118.50015    2018-04-18T16:09:57Z    
4/18/2018    9:09:57    39.19         12.63        0.77      84.06                 4.65          33.64     2136  34.00765    -118.50015    2018-04-18T16:09:57Z    
4/18/2018    9:09:58    39.19         12.63        0.78      84.07                 4.64          33.64     2137  34.00765    -118.50015    2018-04-18T16:09:58Z    
4/18/2018    9:09:58    39.19         12.63        0.78      84.07                 4.52          33.64     2138  34.00765    -118.50015    2018-04-18T16:09:58Z    
4/18/2018    9:09:58    39.19         12.63        0.76      84.08                 4.46          33.64     2139  34.00765    -118.50015    2018-04-18T16:09:58Z    
4/18/2018    9:09:58    39.19         12.63        0.72      84.08                 4.51          33.64     2140  34.00765    -118.50015    2018-04-18T16:09:58Z    
4/18/2018    9:09:58    39.19         12.63        0.68      84.03                 4.76          33.64     2141  34.00765    -118.50015    2018-04-18T16:09:58Z    
4/18/2018    9:09:58    39.19         12.63        0.63      83.99                 5.03          33.64     2142  34.00765    -118.50015    2018-04-18T16:09:58Z    
4/18/2018    9:09:59    39.19         12.63        0.59      84.00                 5.08          33.64     2143  34.00765    -118.50015    2018-04-18T16:09:59Z    
4/18/2018    9:09:59    39.19         12.63        0.55      83.98                 5.02          33.64     2144  34.00765    -118.50015    2018-04-18T16:09:59Z    
4/18/2018    9:09:59    39.19         12.63        0.51      83.97                 4.89          33.64     2145  34.00765    -118.50015    2018-04-18T16:09:59Z    
4/18/2018    9:09:59    39.19         12.63        0.50      83.94                 4.80          33.64     2146  34.00765    -118.50015    2018-04-18T16:09:59Z    
4/18/2018    9:09:59    39.19         12.63        0.50      83.96                 4.70          33.64     2147  34.00765    -118.50015    2018-04-18T16:09:59Z    
4/18/2018    9:09:59    39.19         12.63        0.51      83.98                 4.55          33.64     2148  34.00765    -118.50015    2018-04-18T16:09:59Z    
4/18/2018    9:10:00    39.19         12.63        0.53      83.95                 4.54          33.64     2149  34.00765    -118.50015    2018-04-18T16:10:00Z    
4/18/2018    9:10:00    39.19         12.63        0.56      83.98                 4.53          33.64     2150  34.00765    -118.50015    2018-04-18T16:10:00Z    
4/18/2018    9:10:00    39.19         12.63        0.60      83.95                 4.62          33.64     2151  34.00765    -118.50015    2018-04-18T16:10:00Z    
4/18/2018    9:10:00    39.19         12.63        0.62      83.98                 4.60          33.64     2152  34.00765    -118.50015    2018-04-18T16:10:00Z    
4/18/2018    9:10:00    39.19         12.63        0.65      83.97                 4.51          33.64     2153  34.00765    -118.50015    2018-04-18T16:10:00Z    
4/18/2018    9:10:00    39.19         12.63        0.68      83.99                 4.43          33.64     2154  34.00765    -118.50015    2018-04-18T16:10:00Z    
4/18/2018    9:10:01    39.19         12.63        0.71      83.97                 4.46          33.64     2155  34.00765    -118.50015    2018-04-18T16:10:01Z    
4/18/2018    9:10:01    39.19         12.63        0.72      83.96                 4.48          33.64     2156  34.00765    -118.50015    2018-04-18T16:10:01Z    
4/18/2018    9:10:01    39.19         12.63        0.74      84.00                 4.43          33.64     2157  34.00765    -118.50015    2018-04-18T16:10:01Z    
4/18/2018    9:10:01    39.19         12.63        0.75      84.00                 4.43          33.64     2158  34.00765    -118.50015    2018-04-18T16:10:01Z    
4/18/2018    9:10:01    39.19         12.63        0.75      84.00                 4.43          33.64     2159  34.00765    -118.50015    2018-04-18T16:10:01Z    
4/18/2018    9:10:01    39.19         12.63        0.80      84.00                 4.25          33.64     2160  34.00765    -118.50015    2018-04-18T16:10:01Z    
4/18/2018    9:10:02    39.19         12.63        0.83      84.01                 4.25          33.64     2161  34.00765    -118.50015    2018-04-18T16:10:02Z    
4/18/2018    9:10:02    39.19         12.63        0.85      84.06                 4.31          33.64     2162  34.00765    -118.50015    2018-04-18T16:10:02Z    
4/18/2018    9:10:02    39.19         12.63        0.89      84.05                 4.37          33.64     2163  34.00765    -118.50015    2018-04-18T16:10:02Z    
4/18/2018    9:10:02    39.19         12.63        0.93      84.07                 4.50          33.64     2164  34.00765    -118.50015    2018-04-18T16:10:02Z    
4/18/2018    9:10:02    39.19         12.63        0.95      84.10                 4.63          33.64     2165  34.00765    -118.50015    2018-04-18T16:10:02Z    
4/18/2018    9:10:02    39.19         12.63        0.97      84.11                 4.78          33.64     2166  34.00765    -118.50015    2018-04-18T16:10:02Z    
4/18/2018    9:10:03    39.19         12.63        0.99      84.11                 4.90          33.64     2167  34.00765    -118.50015    2018-04-18T16:10:03Z    
4/18/2018    9:10:03    39.19         12.63        1.01      84.14                 4.89          33.64     2168  34.00765    -118.50015    2018-04-18T16:10:03Z    
4/18/2018    9:10:03    39.19         12.63        1.02      84.19                 4.82          33.64     2169  34.00765    -118.50015    2018-04-18T16:10:03Z    
4/18/2018    9:10:03    39.19         12.63        1.03      84.16                 4.88          33.64     2170  34.00765    -118.50015    2018-04-18T16:10:03Z    
4/18/2018    9:10:03    39.19         12.63        1.03      84.15                 4.98          33.64     2171  34.00765    -118.50015    2018-04-18T16:10:03Z    
4/18/2018    9:10:03    39.20         12.63        1.04      84.22                 5.03          33.64     2172  34.00765    -118.50015    2018-04-18T16:10:03Z    
4/18/2018    9:10:04    39.19         12.63        1.02      84.16                 4.99          33.64     2173  34.00765    -118.50015    2018-04-18T16:10:04Z    
4/18/2018    9:10:04    39.19         12.63        0.99      84.21                 4.99          33.64     2174  34.00765    -118.50015    2018-04-18T16:10:04Z    
4/18/2018    9:10:04    39.19         12.63        0.97      84.18                 4.96          33.64     2175  34.00765    -118.50015    2018-04-18T16:10:04Z    
4/18/2018    9:10:04    39.19         12.63        0.94      84.19                 5.10          33.64     2176  34.00765    -118.50015    2018-04-18T16:10:04Z    
4/18/2018    9:10:04    39.19         12.63        0.91      84.20                 5.55          33.64     2177  34.00765    -118.50015    2018-04-18T16:10:04Z    
4/18/2018    9:10:04    39.19         12.63        0.85      84.20                 5.79          33.63     2178  34.00765    -118.50015    2018-04-18T16:10:04Z    
4/18/2018    9:10:05    39.19         12.63        0.83      84.18                 5.77          33.63     2179  34.00765    -118.50015    2018-04-18T16:10:05Z    
4/18/2018    9:10:05    39.19         12.63        0.78      84.19                 5.59          33.64     2180  34.00765    -118.50015    2018-04-18T16:10:05Z    
4/18/2018    9:10:05    39.20         12.63        0.74      84.23                 5.80          33.64     2181  34.00765    -118.50015    2018-04-18T16:10:05Z    
4/18/2018    9:10:05    39.20         12.63        0.71      84.27                 5.87          33.64     2182  34.00765    -118.50015    2018-04-18T16:10:05Z    
4/18/2018    9:10:05    39.20         12.63        0.69      84.23                 5.78          33.64     2183  34.00765    -118.50015    2018-04-18T16:10:05Z    
4/18/2018    9:10:05    39.20         12.63        0.69      84.21                 5.64          33.64     2184  34.00765    -118.50015    2018-04-18T16:10:05Z    
4/18/2018    9:10:06    39.19         12.63        0.71      84.24                 5.32          33.64     2185  34.00765    -118.50015    2018-04-18T16:10:06Z    
4/18/2018    9:10:06    39.19         12.63        0.76      84.25                 5.05          33.64     2186  34.00765    -118.50015    2018-04-18T16:10:06Z    
4/18/2018    9:10:06    39.19         12.63        0.80      84.20                 4.91          33.64     2187  34.00765    -118.50015    2018-04-18T16:10:06Z    
4/18/2018    9:10:06    39.19         12.63        0.85      84.20                 4.79          33.64     2188  34.00765    -118.50015    2018-04-18T16:10:06Z    
4/18/2018    9:10:06    39.19         12.63        0.89      84.21                 4.71          33.64     2189  34.00765    -118.50015    2018-04-18T16:10:06Z    
4/18/2018    9:10:06    39.19         12.63        0.91      84.20                 4.62          33.64     2190  34.00765    -118.50015    2018-04-18T16:10:06Z    
4/18/2018    9:10:07    39.19         12.63        0.90      84.22                 4.70          33.64     2191  34.00765    -118.50015    2018-04-18T16:10:07Z    
4/18/2018    9:10:07    39.19         12.63        0.89      84.24                 4.72          33.64     2192  34.00765    -118.50015    2018-04-18T16:10:07Z    
4/18/2018    9:10:07    39.19         12.63        0.86      84.20                 4.77          33.64     2193  34.00765    -118.50015    2018-04-18T16:10:07Z    
4/18/2018    9:10:07    39.19         12.63        0.81      84.18                 4.86          33.64     2194  34.00765    -118.50015    2018-04-18T16:10:07Z    
4/18/2018    9:10:07    39.19         12.63        0.77      84.20                 4.81          33.64     2195  34.00765    -118.50015    2018-04-18T16:10:07Z    
4/18/2018    9:10:07    39.19         12.63        0.75      84.22                 4.74          33.64     2196  34.00765    -118.50015    2018-04-18T16:10:07Z    
4/18/2018    9:10:08    39.19         12.63        0.71      84.22                 4.74          33.64     2197  34.00765    -118.50015    2018-04-18T16:10:08Z    
4/18/2018    9:10:08    39.19         12.63        0.71      84.23                 4.71          33.64     2198  34.00765    -118.50015    2018-04-18T16:10:08Z    
4/18/2018    9:10:08    39.19         12.63        0.71      84.23                 4.74          33.64     2199  34.00765    -118.50015    2018-04-18T16:10:08Z    
4/18/2018    9:10:08    39.19         12.63        0.71      84.23                 4.77          33.64     2200  34.00765    -118.50015    2018-04-18T16:10:08Z    
4/18/2018    9:10:08    39.19         12.63        0.72      84.24                 4.82          33.64     2201  34.00765    -118.50015    2018-04-18T16:10:08Z    
4/18/2018    9:10:08    39.19         12.63        0.72      84.24                 4.76          33.64     2202  34.00765    -118.50015    2018-04-18T16:10:08Z    
4/18/2018    9:10:09    39.19         12.63        0.74      84.21                 4.64          33.64     2203  34.00765    -118.50015    2018-04-18T16:10:09Z    
4/18/2018    9:10:09    39.19         12.63        0.75      84.20                 4.50          33.64     2204  34.00765    -118.50015    2018-04-18T16:10:09Z    
4/18/2018    9:10:09    39.19         12.63        0.75      84.19                 4.53          33.64     2205  34.00765    -118.50015    2018-04-18T16:10:09Z    
4/18/2018    9:10:09    39.20         12.63        0.74      84.21                 4.52          33.64     2206  34.00765    -118.50015    2018-04-18T16:10:09Z    
4/18/2018    9:10:09    39.19         12.63        0.74      84.19                 4.47          33.64     2207  34.00765    -118.50015    2018-04-18T16:10:09Z    
4/18/2018    9:10:09    39.20         12.63        0.74      84.23                 4.38          33.64     2208  34.00765    -118.50015    2018-04-18T16:10:09Z    
4/18/2018    9:10:10    39.19         12.63        0.71      84.25                 4.46          33.64     2209  34.00765    -118.50015    2018-04-18T16:10:10Z    
4/18/2018    9:10:10    39.19         12.63        0.70      84.26                 4.54          33.64     2210  34.00765    -118.50015    2018-04-18T16:10:10Z    
4/18/2018    9:10:10    39.20         12.63        0.68      84.22                 4.56          33.64     2211  34.00765    -118.50015    2018-04-18T16:10:10Z    
4/18/2018    9:10:10    39.19         12.63        0.68      84.22                 4.59          33.64     2212  34.00765    -118.50015    2018-04-18T16:10:10Z    
4/18/2018    9:10:10    39.20         12.63        0.68      84.23                 4.69          33.64     2213  34.00765    -118.50015    2018-04-18T16:10:10Z    
4/18/2018    9:10:10    39.19         12.63        0.66      84.21                 4.72          33.64     2214  34.00765    -118.50015    2018-04-18T16:10:10Z    
4/18/2018    9:10:11    39.19         12.63        0.67      84.21                 4.76          33.64     2215  34.00765    -118.50015    2018-04-18T16:10:11Z    
4/18/2018    9:10:11    39.19         12.63        0.69      84.18                 4.86          33.64     2216  34.00765    -118.50015    2018-04-18T16:10:11Z    
4/18/2018    9:10:11    39.19         12.63        0.69      84.18                 4.87          33.64     2217  34.00765    -118.50015    2018-04-18T16:10:11Z    
4/18/2018    9:10:11    39.19         12.63        0.71      84.23                 4.84          33.64     2218  34.00765    -118.50015    2018-04-18T16:10:11Z    
4/18/2018    9:10:11    39.19         12.63        0.72      84.22                 4.68          33.64     2219  34.00765    -118.50015    2018-04-18T16:10:11Z    
4/18/2018    9:10:11    39.19         12.63        0.72      84.19                 4.61          33.64     2220  34.00765    -118.50015    2018-04-18T16:10:11Z    
4/18/2018    9:10:12    39.19         12.63        0.71      84.20                 4.73          33.64     2221  34.00765    -118.50015    2018-04-18T16:10:12Z    
4/18/2018    9:10:12    39.19         12.63        0.70      84.24                 4.79          33.64     2222  34.00765    -118.50015    2018-04-18T16:10:12Z    
4/18/2018    9:10:12    39.19         12.63        0.69      84.25                 4.78          33.64     2223  34.00765    -118.50015    2018-04-18T16:10:12Z    
4/18/2018    9:10:12    39.19         12.63        0.66      84.28                 4.87          33.64     2224  34.00765    -118.50015    2018-04-18T16:10:12Z    
4/18/2018    9:10:12    39.19         12.63        0.64      84.24                 4.94          33.64     2225  34.00765    -118.50015    2018-04-18T16:10:12Z    
4/18/2018    9:10:12    39.20         12.63        0.63      84.23                 4.97          33.64     2226  34.00765    -118.50015    2018-04-18T16:10:12Z    
4/18/2018    9:10:13    39.20         12.63        0.63      84.23                 4.97          33.64     2227  34.00765    -118.50015    2018-04-18T16:10:13Z    
4/18/2018    9:10:13    39.20         12.63        0.62      84.25                 4.86          33.64     2228  34.00765    -118.50015    2018-04-18T16:10:13Z    
4/18/2018    9:10:13    39.20         12.63        0.62      84.21                 4.74          33.64     2229  34.00765    -118.50015    2018-04-18T16:10:13Z    
4/18/2018    9:10:13    39.20         12.63        0.63      84.21                 4.66          33.64     2230  34.00765    -118.50015    2018-04-18T16:10:13Z    
4/18/2018    9:10:13    39.20         12.63        0.63      84.19                 4.78          33.64     2231  34.00765    -118.50015    2018-04-18T16:10:13Z    
4/18/2018    9:10:13    39.19         12.63        0.64      84.19                 4.79          33.64     2232  34.00765    -118.50015    2018-04-18T16:10:13Z    
4/18/2018    9:10:14    39.20         12.63        0.63      84.24                 4.75          33.64     2233  34.00765    -118.50015    2018-04-18T16:10:14Z    
4/18/2018    9:10:14    39.19         12.63        0.63      84.19                 4.79          33.64     2234  34.00765    -118.50015    2018-04-18T16:10:14Z    
4/18/2018    9:10:14    39.20         12.63        0.62      84.20                 4.73          33.64     2235  34.00765    -118.50015    2018-04-18T16:10:14Z    
4/18/2018    9:10:14    39.20         12.63        0.59      84.24                 4.77          33.64     2236  34.00765    -118.50015    2018-04-18T16:10:14Z    
4/18/2018    9:10:14    39.20         12.63        0.59      84.20                 4.72          33.65     2237  34.00765    -118.50015    2018-04-18T16:10:14Z    
4/18/2018    9:10:14    39.20         12.63        0.57      84.18                 4.68          33.64     2238  34.00765    -118.50015    2018-04-18T16:10:14Z    
4/18/2018    9:10:15    39.19         12.63        0.57      84.18                 4.80          33.64     2239  34.00765    -118.50015    2018-04-18T16:10:15Z    
4/18/2018    9:10:15    39.19         12.63        0.60      84.19                 4.92          33.64     2240  34.00765    -118.50015    2018-04-18T16:10:15Z    
4/18/2018    9:10:15    39.19         12.63        0.61      84.20                 5.16          33.64     2241  34.00765    -118.50015    2018-04-18T16:10:15Z    
4/18/2018    9:10:15    39.19         12.63        0.65      84.21                 5.29          33.64     2242  34.00765    -118.50015    2018-04-18T16:10:15Z    
4/18/2018    9:10:15    39.20         12.63        0.69      84.16                 5.19          33.64     2243  34.00765    -118.50015    2018-04-18T16:10:15Z    
4/18/2018    9:10:15    39.20         12.63        0.73      84.17                 5.30          33.64     2244  34.00765    -118.50015    2018-04-18T16:10:15Z    
4/18/2018    9:10:16    39.19         12.63        0.76      84.16                 5.39          33.64     2245  34.00765    -118.50015    2018-04-18T16:10:16Z    
4/18/2018    9:10:16    39.20         12.63        0.77      84.16                 5.25          33.64     2246  34.00765    -118.50015    2018-04-18T16:10:16Z    
4/18/2018    9:10:16    39.20         12.63        0.83      84.20                 5.06          33.64     2247  34.00765    -118.50015    2018-04-18T16:10:16Z    
4/18/2018    9:10:16    39.20         12.63        0.84      84.15                 4.92          33.65     2248  34.00765    -118.50015    2018-04-18T16:10:16Z    
4/18/2018    9:10:16    39.20         12.63        0.86      84.18                 4.85          33.65     2249  34.00765    -118.50015    2018-04-18T16:10:16Z    
4/18/2018    9:10:16    39.20         12.64        0.89      84.15                 4.89          33.64     2250  34.00765    -118.50015    2018-04-18T16:10:16Z    
4/18/2018    9:10:17    39.20         12.64        0.90      84.20                 4.96          33.64     2251  34.00765    -118.50015    2018-04-18T16:10:17Z    
4/18/2018    9:10:17    39.20         12.64        0.90      84.16                 4.89          33.64     2252  34.00765    -118.50015    2018-04-18T16:10:17Z    
4/18/2018    9:10:17    39.20         12.64        0.92      84.15                 4.89          33.64     2253  34.00765    -118.50015    2018-04-18T16:10:17Z    
4/18/2018    9:10:17    39.20         12.64        0.94      84.17                 4.80          33.64     2254  34.00765    -118.50015    2018-04-18T16:10:17Z    
4/18/2018    9:10:17    39.20         12.64        0.94      84.18                 4.74          33.64     2255  34.00765    -118.50015    2018-04-18T16:10:17Z    
4/18/2018    9:10:17    39.20         12.64        0.95      84.20                 4.67          33.64     2256  34.00765    -118.50015    2018-04-18T16:10:17Z    
4/18/2018    9:10:18    39.20         12.64        0.95      84.19                 4.61          33.64     2257  34.00765    -118.50015    2018-04-18T16:10:18Z    
4/18/2018    9:10:18    39.20         12.63        0.94      84.22                 4.65          33.64     2258  34.00765    -118.50015    2018-04-18T16:10:18Z    
4/18/2018    9:10:18    39.20         12.63        0.93      84.19                 4.67          33.64     2259  34.00765    -118.50015    2018-04-18T16:10:18Z    
4/18/2018    9:10:18    39.20         12.63        0.89      84.16                 4.66          33.64     2260  34.00765    -118.50015    2018-04-18T16:10:18Z    
4/18/2018    9:10:18    39.20         12.63        0.88      84.20                 4.65          33.64     2261  34.00765    -118.50015    2018-04-18T16:10:18Z    
4/18/2018    9:10:18    39.20         12.63        0.86      84.16                 4.81          33.64     2262  34.00765    -118.50015    2018-04-18T16:10:18Z    
4/18/2018    9:10:19    39.20         12.63        0.83      84.19                 4.89          33.64     2263  34.00765    -118.50015    2018-04-18T16:10:19Z    
4/18/2018    9:10:19    39.20         12.63        0.83      84.20                 5.89          33.64     2264  34.00765    -118.50015    2018-04-18T16:10:19Z    
4/18/2018    9:10:19    39.20         12.63        0.82      84.23                 6.36          33.64     2265  34.00765    -118.50015    2018-04-18T16:10:19Z    
4/18/2018    9:10:19    39.20         12.63        0.82      84.23                 6.26          33.65     2266  34.00765    -118.50015    2018-04-18T16:10:19Z    
4/18/2018    9:10:19    39.20         12.63        0.82      84.24                 5.95          33.65     2267  34.00765    -118.50015    2018-04-18T16:10:19Z    
4/18/2018    9:10:19    39.20         12.63        0.81      84.23                 5.60          33.64     2268  34.00765    -118.50015    2018-04-18T16:10:19Z    
4/18/2018    9:10:20    39.20         12.63        0.80      84.24                 5.36          33.65     2269  34.00765    -118.50015    2018-04-18T16:10:20Z    
4/18/2018    9:10:20    39.20         12.63        0.81      84.23                 5.11          33.65     2270  34.00765    -118.50015    2018-04-18T16:10:20Z    
4/18/2018    9:10:20    39.20         12.63        0.80      84.23                 4.87          33.65     2271  34.00765    -118.50015    2018-04-18T16:10:20Z    
4/18/2018    9:10:20    39.20         12.63        0.79      84.23                 4.76          33.64     2272  34.00765    -118.50015    2018-04-18T16:10:20Z    
4/18/2018    9:10:20    39.20         12.63        0.79      84.19                 4.61          33.64     2273  34.00765    -118.50015    2018-04-18T16:10:20Z    
4/18/2018    9:10:20    39.20         12.63        0.80      84.17                 4.48          33.64     2274  34.00765    -118.50015    2018-04-18T16:10:20Z    
4/18/2018    9:10:21    39.20         12.63        0.81      84.20                 4.43          33.64     2275  34.00765    -118.50015    2018-04-18T16:10:21Z    
4/18/2018    9:10:21    39.20         12.64        0.82      84.17                 4.35          33.64     2276  34.00765    -118.50015    2018-04-18T16:10:21Z    
4/18/2018    9:10:21    39.20         12.63        0.83      84.19                 4.44          33.65     2277  34.00765    -118.50015    2018-04-18T16:10:21Z    
4/18/2018    9:10:21    39.20         12.63        0.83      84.19                 4.54          33.64     2278  34.00765    -118.50015    2018-04-18T16:10:21Z    
4/18/2018    9:10:21    39.20         12.63        0.82      84.24                 4.56          33.64     2279  34.00765    -118.50015    2018-04-18T16:10:21Z    
4/18/2018    9:10:21    39.20         12.63        0.79      84.25                 4.81          33.64     2280  34.00765    -118.50015    2018-04-18T16:10:21Z    
4/18/2018    9:10:22    39.20         12.63        0.77      84.21                 4.97          33.64     2281  34.00765    -118.50015    2018-04-18T16:10:22Z    
4/18/2018    9:10:22    39.19         12.63        0.74      84.23                 5.04          33.64     2282  34.00765    -118.50015    2018-04-18T16:10:22Z    
4/18/2018    9:10:22    39.20         12.63        0.72      84.17                 4.94          33.64     2283  34.00765    -118.50015    2018-04-18T16:10:22Z    
4/18/2018    9:10:22    39.20         12.63        0.68      84.16                 4.78          33.64     2284  34.00765    -118.50015    2018-04-18T16:10:22Z    
4/18/2018    9:10:22    39.20         12.63        0.65      84.23                 4.73          33.64     2285  34.00765    -118.50015    2018-04-18T16:10:22Z    
4/18/2018    9:10:22    39.20         12.63        0.62      84.24                 4.72          33.64     2286  34.00765    -118.50015    2018-04-18T16:10:22Z    
4/18/2018    9:10:23    39.20         12.63        0.59      84.23                 4.66          33.64     2287  34.00765    -118.50015    2018-04-18T16:10:23Z    
4/18/2018    9:10:23    39.20         12.63        0.59      84.23                 4.89          33.64     2288  34.00765    -118.50015    2018-04-18T16:10:23Z    
4/18/2018    9:10:23    39.20         12.63        0.58      84.21                 4.97          33.64     2289  34.00765    -118.50015    2018-04-18T16:10:23Z    
4/18/2018    9:10:23    39.20         12.63        0.58      84.25                 4.91          33.64     2290  34.00765    -118.50015    2018-04-18T16:10:23Z    
4/18/2018    9:10:23    39.20         12.63        0.59      84.21                 4.89          33.64     2291  34.00765    -118.50015    2018-04-18T16:10:23Z    
4/18/2018    9:10:23    39.20         12.63        0.62      84.19                 4.89          33.64     2292  34.00765    -118.50015    2018-04-18T16:10:23Z    
4/18/2018    9:10:24    39.20         12.63        0.65      84.18                 4.88          33.64     2293  34.00765    -118.50015    2018-04-18T16:10:24Z    
4/18/2018    9:10:24    39.20         12.63        0.69      84.24                 4.93          33.64     2294  34.00765    -118.50015    2018-04-18T16:10:24Z    
4/18/2018    9:10:24    39.20         12.63        0.70      84.18                 4.87          33.64     2295  34.00765    -118.50015    2018-04-18T16:10:24Z    
4/18/2018    9:10:24    39.20         12.63        0.74      84.16                 4.72          33.64     2296  34.00765    -118.50015    2018-04-18T16:10:24Z    
4/18/2018    9:10:24    39.20         12.63        0.73      84.18                 4.64          33.64     2297  34.00765    -118.50015    2018-04-18T16:10:24Z    
4/18/2018    9:10:24    39.20         12.63        0.74      84.19                 4.82          33.64     2298  34.00765    -118.50015    2018-04-18T16:10:24Z    
4/18/2018    9:10:25    39.20         12.63        0.72      84.22                 5.62          33.64     2299  34.00765    -118.50015    2018-04-18T16:10:25Z    
4/18/2018    9:10:25    39.20         12.63        0.74      84.20                 5.97          33.64     2300  34.00765    -118.50015    2018-04-18T16:10:25Z    
4/18/2018    9:10:25    39.20         12.63        0.75      84.19                 5.92          33.65     2301  34.00765    -118.50015    2018-04-18T16:10:25Z    
4/18/2018    9:10:25    39.20         12.63        0.76      84.15                 5.79          33.64     2302  34.00765    -118.50015    2018-04-18T16:10:25Z    
4/18/2018    9:10:25    39.20         12.63        0.78      84.16                 5.65          33.64     2303  34.00765    -118.50015    2018-04-18T16:10:25Z    
4/18/2018    9:10:25    39.20         12.64        0.80      84.20                 5.46          33.64     2304  34.00765    -118.50015    2018-04-18T16:10:25Z    
4/18/2018    9:10:26    39.20         12.64        0.81      84.24                 5.34          33.64     2305  34.00765    -118.50015    2018-04-18T16:10:26Z    
4/18/2018    9:10:26    39.20         12.64        0.83      84.18                 5.26          33.64     2306  34.00765    -118.50015    2018-04-18T16:10:26Z    
4/18/2018    9:10:26    39.20         12.64        0.82      84.15                 5.26          33.64     2307  34.00765    -118.50015    2018-04-18T16:10:26Z    
4/18/2018    9:10:26    39.20         12.64        0.81      84.15                 5.12          33.64     2308  34.00765    -118.50015    2018-04-18T16:10:26Z    
4/18/2018    9:10:26    39.20         12.64        0.80      84.19                 5.02          33.64     2309  34.00765    -118.50015    2018-04-18T16:10:26Z    
4/18/2018    9:10:26    39.20         12.64        0.80      84.18                 5.21          33.64     2310  34.00765    -118.50015    2018-04-18T16:10:26Z    
4/18/2018    9:10:27    39.20         12.64        0.77      84.18                 5.22          33.64     2311  34.00765    -118.50015    2018-04-18T16:10:27Z    
4/18/2018    9:10:27    39.20         12.64        0.76      84.14                 5.02          33.64     2312  34.00765    -118.50015    2018-04-18T16:10:27Z    
4/18/2018    9:10:27    39.20         12.64        0.76      84.17                 4.92          33.64     2313  34.00765    -118.50015    2018-04-18T16:10:27Z    
4/18/2018    9:10:27    39.20         12.64        0.77      84.16                 5.03          33.64     2314  34.00765    -118.50015    2018-04-18T16:10:27Z    
4/18/2018    9:10:27    39.20         12.64        0.80      84.14                 5.21          33.64     2315  34.00765    -118.50015    2018-04-18T16:10:27Z    
4/18/2018    9:10:27    39.20         12.64        0.84      84.12                 5.18          33.64     2316  34.00765    -118.50015    2018-04-18T16:10:27Z    
4/18/2018    9:10:28    39.20         12.64        0.87      84.14                 5.19          33.64     2317  34.00765    -118.50015    2018-04-18T16:10:28Z    
4/18/2018    9:10:28    39.20         12.64        0.89      84.20                 5.16          33.64     2318  34.00765    -118.50015    2018-04-18T16:10:28Z    
4/18/2018    9:10:28    39.20         12.64        0.91      84.17                 5.08          33.64     2319  34.00765    -118.50015    2018-04-18T16:10:28Z    
4/18/2018    9:10:28    39.20         12.64        0.92      84.18                 5.03          33.64     2320  34.00765    -118.50015    2018-04-18T16:10:28Z    
4/18/2018    9:10:28    39.20         12.64        0.91      84.15                 5.05          33.64     2321  34.00765    -118.50015    2018-04-18T16:10:28Z    
4/18/2018    9:10:28    39.20         12.64        0.88      84.13                 5.03          33.64     2322  34.00765    -118.50015    2018-04-18T16:10:28Z    
4/18/2018    9:10:29    39.20         12.64        0.84      84.21                 4.97          33.64     2323  34.00765    -118.50015    2018-04-18T16:10:29Z    
4/18/2018    9:10:29    39.20         12.64        0.78      84.16                 4.79          33.64     2324  34.00765    -118.50015    2018-04-18T16:10:29Z    
4/18/2018    9:10:29    39.20         12.64        0.73      84.23                 4.60          33.64     2325  34.00765    -118.50015    2018-04-18T16:10:29Z    
4/18/2018    9:10:29    39.20         12.64        0.69      84.20                 4.68          33.64     2326  34.00765    -118.50015    2018-04-18T16:10:29Z    
4/18/2018    9:10:29    39.20         12.64        0.65      84.17                 4.71          33.64     2327  34.00765    -118.50015    2018-04-18T16:10:29Z    
4/18/2018    9:10:29    39.20         12.64        0.65      84.21                 4.61          33.64     2328  34.00765    -118.50015    2018-04-18T16:10:29Z    
4/18/2018    9:10:30    39.20         12.64        0.66      84.21                 4.50          33.64     2329  34.00765    -118.50015    2018-04-18T16:10:30Z    
4/18/2018    9:10:30    39.20         12.64        0.65      84.24                 4.42          33.64     2330  34.00765    -118.50015    2018-04-18T16:10:30Z    
4/18/2018    9:10:30    39.20         12.64        0.65      84.22                 4.61          33.64     2331  34.00765    -118.50015    2018-04-18T16:10:30Z    
4/18/2018    9:10:30    39.20         12.64        0.66      84.22                 4.87          33.64     2332  34.00765    -118.50015    2018-04-18T16:10:30Z    
4/18/2018    9:10:30    39.20         12.64        0.66      84.21                 4.92          33.64     2333  34.00765    -118.50015    2018-04-18T16:10:30Z    
4/18/2018    9:10:30    39.20         12.64        0.65      84.21                 5.09          33.64     2334  34.00765    -118.50015    2018-04-18T16:10:30Z    
4/18/2018    9:10:31    39.20         12.64        0.62      84.23                 5.14          33.64     2335  34.00765    -118.50015    2018-04-18T16:10:31Z    
4/18/2018    9:10:31    39.20         12.63        0.59      84.22                 5.02          33.64     2336  34.00765    -118.50015    2018-04-18T16:10:31Z    
4/18/2018    9:10:31    39.20         12.63        0.58      84.22                 4.92          33.64     2337  34.00765    -118.50015    2018-04-18T16:10:31Z    
4/18/2018    9:10:31    39.19         12.63        0.53      84.25                 4.79          33.64     2338  34.00765    -118.50015    2018-04-18T16:10:31Z    
4/18/2018    9:10:31    39.19         12.63        0.52      84.23                 4.67          33.64     2339  34.00765    -118.50015    2018-04-18T16:10:31Z    
4/18/2018    9:10:31    39.19         12.63        0.51      84.25                 4.57          33.64     2340  34.00765    -118.50015    2018-04-18T16:10:31Z    
4/18/2018    9:10:32    39.19         12.63        0.51      84.20                 4.69          33.64     2341  34.00765    -118.50015    2018-04-18T16:10:32Z    
4/18/2018    9:10:32    39.19         12.63        0.54      84.22                 4.84          33.64     2342  34.00765    -118.50015    2018-04-18T16:10:32Z    
4/18/2018    9:10:32    39.19         12.63        0.56      84.20                 4.82          33.64     2343  34.00765    -118.50015    2018-04-18T16:10:32Z    
4/18/2018    9:10:32    39.20         12.63        0.56      84.20                 4.76          33.64     2344  34.00765    -118.50015    2018-04-18T16:10:32Z    
4/18/2018    9:10:32    39.20         12.63        0.58      84.19                 4.83          33.64     2345  34.00765    -118.50015    2018-04-18T16:10:32Z    
4/18/2018    9:10:32    39.20         12.63        0.59      84.20                 4.72          33.64     2346  34.00765    -118.50015    2018-04-18T16:10:32Z    
4/18/2018    9:10:33    39.19         12.63        0.60      84.21                 4.61          33.64     2347  34.00765    -118.50015    2018-04-18T16:10:33Z    
4/18/2018    9:10:33    39.19         12.63        0.63      84.18                 4.60          33.64     2348  34.00765    -118.50015    2018-04-18T16:10:33Z    
4/18/2018    9:10:33    39.20         12.63        0.68      84.16                 4.44          33.64     2349  34.00765    -118.50015    2018-04-18T16:10:33Z    
4/18/2018    9:10:33    39.20         12.63        0.73      84.17                 4.56          33.64     2350  34.00765    -118.50015    2018-04-18T16:10:33Z    
4/18/2018    9:10:33    39.20         12.63        0.77      84.18                 4.67          33.64     2351  34.00765    -118.50015    2018-04-18T16:10:33Z    
4/18/2018    9:10:33    39.20         12.63        0.81      84.17                 4.78          33.64     2352  34.00765    -118.50015    2018-04-18T16:10:33Z    
4/18/2018    9:10:34    39.20         12.63        0.87      84.16                 4.71          33.64     2353  34.00765    -118.50015    2018-04-18T16:10:34Z    
4/18/2018    9:10:34    39.20         12.63        0.91      84.19                 4.60          33.64     2354  34.00765    -118.50015    2018-04-18T16:10:34Z    
4/18/2018    9:10:34    39.20         12.63        0.95      84.17                 4.58          33.64     2355  34.00765    -118.50015    2018-04-18T16:10:34Z    
4/18/2018    9:10:34    39.20         12.63        0.98      84.15                 4.68          33.64     2356  34.00765    -118.50015    2018-04-18T16:10:34Z    
4/18/2018    9:10:34    39.20         12.63        0.99      84.17                 4.77          33.64     2357  34.00765    -118.50015    2018-04-18T16:10:34Z    
4/18/2018    9:10:34    39.20         12.63        1.01      84.16                 4.77          33.64     2358  34.00765    -118.50015    2018-04-18T16:10:34Z    
4/18/2018    9:10:35    39.20         12.63        1.01      84.17                 4.68          33.64     2359  34.00765    -118.50015    2018-04-18T16:10:35Z    
4/18/2018    9:10:35    39.20         12.63        1.02      84.18                 4.54          33.64     2360  34.00765    -118.50015    2018-04-18T16:10:35Z    
4/18/2018    9:10:35    39.20         12.63        1.01      84.21                 4.66          33.64     2361  34.00765    -118.50015    2018-04-18T16:10:35Z    
4/18/2018    9:10:35    39.20         12.63        1.02      84.20                 4.77          33.64     2362  34.00765    -118.50015    2018-04-18T16:10:35Z    
4/18/2018    9:10:35    39.20         12.63        1.01      84.19                 4.70          33.64     2363  34.00765    -118.50015    2018-04-18T16:10:35Z    
4/18/2018    9:10:35    39.20         12.63        1.00      84.22                 4.94          33.64     2364  34.00765    -118.50015    2018-04-18T16:10:35Z    
4/18/2018    9:10:36    39.20         12.63        0.99      84.18                 4.98          33.64     2365  34.00765    -118.50015    2018-04-18T16:10:36Z    
4/18/2018    9:10:36    39.20         12.63        0.99      84.16                 4.87          33.64     2366  34.00765    -118.50015    2018-04-18T16:10:36Z    
4/18/2018    9:10:36    39.20         12.63        0.97      84.18                 5.19          33.64     2367  34.00765    -118.50015    2018-04-18T16:10:36Z    
4/18/2018    9:10:36    39.20         12.63        0.97      84.21                 5.25          33.64     2368  34.00765    -118.50015    2018-04-18T16:10:36Z    
4/18/2018    9:10:36    39.20         12.63        0.95      84.18                 5.10          33.64     2369  34.00765    -118.50015    2018-04-18T16:10:36Z    
4/18/2018    9:10:36    39.20         12.63        0.95      84.21                 5.11          33.64     2370  34.00765    -118.50015    2018-04-18T16:10:36Z    
4/18/2018    9:10:37    39.20         12.64        0.93      84.20                 4.97          33.64     2371  34.00765    -118.50015    2018-04-18T16:10:37Z    
4/18/2018    9:10:37    39.20         12.64        0.92      84.24                 5.03          33.64     2372  34.00765    -118.50015    2018-04-18T16:10:37Z    
4/18/2018    9:10:37    39.20         12.63        0.88      84.25                 4.92          33.64     2373  34.00765    -118.50015    2018-04-18T16:10:37Z    
4/18/2018    9:10:37    39.20         12.63        0.88      84.26                 4.82          33.64     2374  34.00765    -118.50015    2018-04-18T16:10:37Z    
4/18/2018    9:10:37    39.20         12.64        0.87      84.23                 4.70          33.64     2375  34.00765    -118.50015    2018-04-18T16:10:37Z    
4/18/2018    9:10:37    39.20         12.64        0.86      84.25                 4.81          33.64     2376  34.00765    -118.50015    2018-04-18T16:10:37Z    
4/18/2018    9:10:38    39.20         12.64        0.85      84.27                 4.79          33.64     2377  34.00765    -118.50015    2018-04-18T16:10:38Z    
4/18/2018    9:10:38    39.20         12.64        0.84      84.23                 4.72          33.64     2378  34.00765    -118.50015    2018-04-18T16:10:38Z    
4/18/2018    9:10:38    39.20         12.64        0.85      84.31                 4.66          33.64     2379  34.00765    -118.50015    2018-04-18T16:10:38Z    
4/18/2018    9:10:38    39.20         12.64        0.84      84.25                 4.67          33.64     2380  34.00765    -118.50015    2018-04-18T16:10:38Z    
4/18/2018    9:10:38    39.20         12.64        0.83      84.30                 4.67          33.64     2381  34.00765    -118.50015    2018-04-18T16:10:38Z    
4/18/2018    9:10:38    39.20         12.64        0.80      84.27                 4.62          33.64     2382  34.00765    -118.50015    2018-04-18T16:10:38Z    
4/18/2018    9:10:39    39.20         12.64        0.78      84.26                 4.55          33.64     2383  34.00765    -118.50015    2018-04-18T16:10:39Z    
4/18/2018    9:10:39    39.20         12.63        0.76      84.28                 4.69          33.64     2384  34.00765    -118.50015    2018-04-18T16:10:39Z    
4/18/2018    9:10:39    39.20         12.64        0.71      84.23                 4.68          33.64     2385  34.00765    -118.50015    2018-04-18T16:10:39Z    
4/18/2018    9:10:39    39.20         12.64        0.67      84.25                 4.67          33.64     2386  34.00765    -118.50015    2018-04-18T16:10:39Z    
4/18/2018    9:10:39    39.20         12.63        0.63      84.26                 5.04          33.64     2387  34.00765    -118.50015    2018-04-18T16:10:39Z    
4/18/2018    9:10:39    39.20         12.63        0.61      84.24                 5.20          33.64     2388  34.00765    -118.50015    2018-04-18T16:10:39Z    
4/18/2018    9:10:40    39.20         12.63        0.58      84.23                 5.19          33.64     2389  34.00765    -118.50015    2018-04-18T16:10:40Z    
4/18/2018    9:10:40    39.20         12.63        0.58      84.19                 5.07          33.64     2390  34.00765    -118.50015    2018-04-18T16:10:40Z    
4/18/2018    9:10:40    39.20         12.63        0.59      84.19                 4.95          33.64     2391  34.00765    -118.50015    2018-04-18T16:10:40Z    
4/18/2018    9:10:40    39.20         12.63        0.60      84.19                 4.87          33.64     2392  34.00765    -118.50015    2018-04-18T16:10:40Z    
4/18/2018    9:10:40    39.19         12.63        0.62      84.20                 4.97          33.64     2393  34.00765    -118.50015    2018-04-18T16:10:40Z    
4/18/2018    9:10:40    39.20         12.63        0.66      84.17                 5.15          33.64     2394  34.00765    -118.50015    2018-04-18T16:10:40Z    
4/18/2018    9:10:41    39.20         12.63        0.71      84.16                 5.16          33.64     2395  34.00765    -118.50015    2018-04-18T16:10:41Z    
4/18/2018    9:10:41    39.20         12.63        0.74      84.16                 5.11          33.64     2396  34.00765    -118.50015    2018-04-18T16:10:41Z    
4/18/2018    9:10:41    39.20         12.63        0.79      84.16                 5.18          33.64     2397  34.00765    -118.50015    2018-04-18T16:10:41Z    
4/18/2018    9:10:41    39.20         12.63        0.82      84.20                 5.44          33.64     2398  34.00765    -118.50015    2018-04-18T16:10:41Z    
4/18/2018    9:10:41    39.20         12.63        0.85      84.17                 5.48          33.64     2399  34.00765    -118.50015    2018-04-18T16:10:41Z    
4/18/2018    9:10:41    39.20         12.63        0.85      84.18                 5.29          33.64     2400  34.00765    -118.50015    2018-04-18T16:10:41Z    
4/18/2018    9:10:42    39.20         12.64        0.85      84.22                 5.09          33.64     2401  34.00765    -118.50015    2018-04-18T16:10:42Z    
4/18/2018    9:10:42    39.20         12.64        0.86      84.21                 4.96          33.64     2402  34.00765    -118.50015    2018-04-18T16:10:42Z    
4/18/2018    9:10:42    39.20         12.64        0.85      84.19                 4.79          33.64     2403  34.00765    -118.50015    2018-04-18T16:10:42Z    
4/18/2018    9:10:42    39.20         12.64        0.84      84.17                 4.61          33.64     2404  34.00765    -118.50015    2018-04-18T16:10:42Z    
4/18/2018    9:10:42    39.20         12.64        0.81      84.20                 5.02          33.64     2405  34.00765    -118.50015    2018-04-18T16:10:42Z    
4/18/2018    9:10:42    39.20         12.63        0.79      84.20                 5.34          33.64     2406  34.00765    -118.50015    2018-04-18T16:10:42Z    
4/18/2018    9:10:43    39.20         12.64        0.76      84.20                 5.41          33.64     2407  34.00765    -118.50015    2018-04-18T16:10:43Z    
4/18/2018    9:10:43    39.20         12.63        0.74      84.22                 5.30          33.64     2408  34.00765    -118.50015    2018-04-18T16:10:43Z    
4/18/2018    9:10:43    39.20         12.63        0.71      84.22                 5.37          33.64     2409  34.00765    -118.50015    2018-04-18T16:10:43Z    
4/18/2018    9:10:43    39.20         12.63        0.68      84.23                 5.29          33.64     2410  34.00765    -118.50015    2018-04-18T16:10:43Z    
4/18/2018    9:10:43    39.20         12.63        0.68      84.23                 5.28          33.64     2411  34.00765    -118.50015    2018-04-18T16:10:43Z    
4/18/2018    9:10:43    39.20         12.63        0.66      84.21                 5.23          33.64     2412  34.00765    -118.50015    2018-04-18T16:10:43Z    
4/18/2018    9:10:44    39.20         12.63        0.67      84.22                 5.23          33.64     2413  34.00765    -118.50015    2018-04-18T16:10:44Z    
4/18/2018    9:10:44    39.20         12.63        0.66      84.25                 5.78          33.64     2414  34.00765    -118.50015    2018-04-18T16:10:44Z    
4/18/2018    9:10:44    39.20         12.63        0.65      84.26                 5.85          33.64     2415  34.00765    -118.50015    2018-04-18T16:10:44Z    
4/18/2018    9:10:44    39.20         12.63        0.66      84.25                 5.73          33.64     2416  34.00765    -118.50015    2018-04-18T16:10:44Z    
4/18/2018    9:10:44    39.20         12.63        0.67      84.22                 5.46          33.64     2417  34.00765    -118.50015    2018-04-18T16:10:44Z    
4/18/2018    9:10:44    39.20         12.63        0.67      84.23                 5.17          33.64     2418  34.00765    -118.50015    2018-04-18T16:10:44Z    
4/18/2018    9:10:45    39.20         12.63        0.67      84.28                 4.97          33.64     2419  34.00765    -118.50015    2018-04-18T16:10:45Z    
4/18/2018    9:10:45    39.20         12.63        0.68      84.27                 4.92          33.64     2420  34.00765    -118.50015    2018-04-18T16:10:45Z    
4/18/2018    9:10:45    39.20         12.64        0.68      84.30                 4.99          33.64     2421  34.00765    -118.50015    2018-04-18T16:10:45Z    
4/18/2018    9:10:45    39.20         12.64        0.68      84.26                 4.96          33.64     2422  34.00765    -118.50015    2018-04-18T16:10:45Z    
4/18/2018    9:10:45    39.20         12.64        0.68      84.28                 5.00          33.64     2423  34.00765    -118.50015    2018-04-18T16:10:45Z    
4/18/2018    9:10:45    39.20         12.64        0.70      84.23                 5.07          33.64     2424  34.00765    -118.50015    2018-04-18T16:10:45Z    
4/18/2018    9:10:46    39.20         12.64        0.71      84.26                 5.11          33.64     2425  34.00765    -118.50015    2018-04-18T16:10:46Z    
4/18/2018    9:10:46    39.20         12.64        0.74      84.27                 5.10          33.64     2426  34.00765    -118.50015    2018-04-18T16:10:46Z    
4/18/2018    9:10:46    39.20         12.64        0.76      84.27                 5.00          33.64     2427  34.00765    -118.50015    2018-04-18T16:10:46Z    
4/18/2018    9:10:46    39.20         12.64        0.79      84.29                 4.93          33.64     2428  34.00765    -118.50015    2018-04-18T16:10:46Z    
4/18/2018    9:10:46    39.20         12.64        0.81      84.31                 4.99          33.64     2429  34.00765    -118.50015    2018-04-18T16:10:46Z    
4/18/2018    9:10:46    39.20         12.63        0.82      84.28                 5.02          33.64     2430  34.00765    -118.50015    2018-04-18T16:10:46Z    
4/18/2018    9:10:47    39.20         12.64        0.82      84.30                 5.05          33.64     2431  34.00765    -118.50015    2018-04-18T16:10:47Z    
4/18/2018    9:10:47    39.20         12.63        0.83      84.30                 4.93          33.65     2432  34.00765    -118.50015    2018-04-18T16:10:47Z    
4/18/2018    9:10:47    39.20         12.63        0.83      84.30                 4.79          33.65     2433  34.00765    -118.50015    2018-04-18T16:10:47Z    
4/18/2018    9:10:47    39.20         12.63        0.84      84.29                 4.65          33.64     2434  34.00765    -118.50015    2018-04-18T16:10:47Z    
4/18/2018    9:10:47    39.20         12.63        0.85      84.31                 4.56          33.65     2435  34.00765    -118.50015    2018-04-18T16:10:47Z    
4/18/2018    9:10:47    39.20         12.63        0.85      84.31                 4.64          33.65     2436  34.00765    -118.50015    2018-04-18T16:10:47Z    
4/18/2018    9:10:48    39.20         12.63        0.88      84.32                 4.76          33.64     2437  34.00765    -118.50015    2018-04-18T16:10:48Z    
4/18/2018    9:10:48    39.20         12.63        0.91      84.31                 4.70          33.64     2438  34.00765    -118.50015    2018-04-18T16:10:48Z    
4/18/2018    9:10:48    39.20         12.63        0.93      84.33                 4.73          33.64     2439  34.00765    -118.50015    2018-04-18T16:10:48Z    
4/18/2018    9:10:48    39.20         12.64        0.97      84.31                 4.75          33.64     2440  34.00765    -118.50015    2018-04-18T16:10:48Z    
4/18/2018    9:10:48    39.20         12.63        0.98      84.28                 4.90          33.64     2441  34.00765    -118.50015    2018-04-18T16:10:48Z    
4/18/2018    9:10:48    39.20         12.63        0.99      84.27                 4.90          33.64     2442  34.00765    -118.50015    2018-04-18T16:10:48Z    
4/18/2018    9:10:49    39.20         12.64        0.98      84.33                 4.74          33.64     2443  34.00765    -118.50015    2018-04-18T16:10:49Z    
4/18/2018    9:10:49    39.20         12.63        0.97      84.32                 4.65          33.64     2444  34.00765    -118.50015    2018-04-18T16:10:49Z    
4/18/2018    9:10:49    39.20         12.63        0.96      84.34                 4.56          33.64     2445  34.00765    -118.50015    2018-04-18T16:10:49Z    
4/18/2018    9:10:49    39.20         12.63        0.95      84.32                 4.52          33.64     2446  34.00765    -118.50015    2018-04-18T16:10:49Z    
4/18/2018    9:10:49    39.20         12.63        0.94      84.29                 4.50          33.64     2447  34.00765    -118.50015    2018-04-18T16:10:49Z    
4/18/2018    9:10:49    39.20         12.63        0.92      84.32                 4.44          33.64     2448  34.00765    -118.50015    2018-04-18T16:10:49Z    
4/18/2018    9:10:50    39.20         12.63        0.92      84.33                 4.49          33.64     2449  34.00765    -118.50015    2018-04-18T16:10:50Z    
4/18/2018    9:10:50    39.20         12.63        0.90      84.26                 4.56          33.64     2450  34.00765    -118.50015    2018-04-18T16:10:50Z    
4/18/2018    9:10:50    39.20         12.63        0.91      84.27                 4.79          33.64     2451  34.00765    -118.50015    2018-04-18T16:10:50Z    
4/18/2018    9:10:50    39.20         12.63        0.89      84.33                 4.82          33.64     2452  34.00765    -118.50015    2018-04-18T16:10:50Z    
4/18/2018    9:10:50    39.20         12.63        0.91      84.30                 4.72          33.64     2453  34.00765    -118.50015    2018-04-18T16:10:50Z    
4/18/2018    9:10:50    39.20         12.63        0.91      84.30                 4.62          33.64     2454  34.00765    -118.50015    2018-04-18T16:10:50Z    
4/18/2018    9:10:51    39.20         12.64        0.91      84.30                 4.55          33.64     2455  34.00765    -118.50015    2018-04-18T16:10:51Z    
4/18/2018    9:10:51    39.20         12.64        0.92      84.28                 4.58          33.64     2456  34.00765    -118.50015    2018-04-18T16:10:51Z    
4/18/2018    9:10:51    39.20         12.63        0.91      84.33                 4.57          33.64     2457  34.00765    -118.50015    2018-04-18T16:10:51Z    
4/18/2018    9:10:51    39.20         12.64        0.91      84.33                 4.60          33.64     2458  34.00765    -118.50015    2018-04-18T16:10:51Z    
4/18/2018    9:10:51    39.20         12.64        0.89      84.33                 4.73          33.64     2459  34.00765    -118.50015    2018-04-18T16:10:51Z    
4/18/2018    9:10:51    39.20         12.64        0.87      84.29                 4.74          33.64     2460  34.00765    -118.50015    2018-04-18T16:10:51Z    
4/18/2018    9:10:52    39.20         12.64        0.84      84.32                 4.66          33.64     2461  34.00765    -118.50015    2018-04-18T16:10:52Z    
4/18/2018    9:10:52    39.20         12.64        0.81      84.35                 4.82          33.64     2462  34.00765    -118.50015    2018-04-18T16:10:52Z    
4/18/2018    9:10:52    39.20         12.64        0.78      84.29                 4.91          33.64     2463  34.00765    -118.50015    2018-04-18T16:10:52Z    
4/18/2018    9:10:52    39.20         12.64        0.75      84.31                 4.89          33.64     2464  34.00765    -118.50015    2018-04-18T16:10:52Z    
4/18/2018    9:10:52    39.20         12.64        0.72      84.29                 4.89          33.64     2465  34.00765    -118.50015    2018-04-18T16:10:52Z    
4/18/2018    9:10:52    39.20         12.63        0.69      84.27                 5.08          33.64     2466  34.00765    -118.50015    2018-04-18T16:10:52Z    
4/18/2018    9:10:53    39.20         12.63        0.68      84.29                 5.60          33.64     2467  34.00765    -118.50015    2018-04-18T16:10:53Z    
4/18/2018    9:10:53    39.20         12.63        0.67      84.31                 5.75          33.64     2468  34.00765    -118.50015    2018-04-18T16:10:53Z    
4/18/2018    9:10:53    39.20         12.63        0.65      84.32                 5.57          33.64     2469  34.00765    -118.50015    2018-04-18T16:10:53Z    
4/18/2018    9:10:53    39.20         12.63        0.65      84.33                 5.38          33.64     2470  34.00765    -118.50015    2018-04-18T16:10:53Z    
4/18/2018    9:10:53    39.20         12.63        0.64      84.29                 5.14          33.64     2471  34.00765    -118.50015    2018-04-18T16:10:53Z    
4/18/2018    9:10:53    39.20         12.63        0.66      84.28                 5.07          33.64     2472  34.00765    -118.50015    2018-04-18T16:10:53Z    
4/18/2018    9:10:54    39.20         12.63        0.67      84.31                 5.14          33.64     2473  34.00765    -118.50015    2018-04-18T16:10:54Z    
4/18/2018    9:10:54    39.20         12.63        0.69      84.30                 5.29          33.64     2474  34.00765    -118.50015    2018-04-18T16:10:54Z    
4/18/2018    9:10:54    39.20         12.63        0.68      84.32                 5.28          33.64     2475  34.00765    -118.50015    2018-04-18T16:10:54Z    
4/18/2018    9:10:54    39.20         12.63        0.69      84.33                 5.16          33.64     2476  34.00765    -118.50015    2018-04-18T16:10:54Z    
4/18/2018    9:10:54    39.20         12.63        0.69      84.28                 4.98          33.64     2477  34.00765    -118.50015    2018-04-18T16:10:54Z    
4/18/2018    9:10:54    39.20         12.63        0.69      84.29                 4.91          33.64     2478  34.00765    -118.50015    2018-04-18T16:10:54Z    
4/18/2018    9:10:55    39.20         12.63        0.67      84.31                 4.83          33.64     2479  34.00765    -118.50015    2018-04-18T16:10:55Z    
4/18/2018    9:10:55    39.20         12.63        0.65      84.29                 4.81          33.64     2480  34.00765    -118.50015    2018-04-18T16:10:55Z    
4/18/2018    9:10:55    39.20         12.63        0.63      84.31                 4.84          33.65     2481  34.00765    -118.50015    2018-04-18T16:10:55Z    
4/18/2018    9:10:55    39.20         12.63        0.59      84.27                 4.94          33.64     2482  34.00765    -118.50015    2018-04-18T16:10:55Z    
4/18/2018    9:10:55    39.20         12.63        0.58      84.30                 5.02          33.65     2483  34.00765    -118.50015    2018-04-18T16:10:55Z    
4/18/2018    9:10:55    39.20         12.63        0.57      84.31                 4.96          33.65     2484  34.00765    -118.50015    2018-04-18T16:10:55Z    
4/18/2018    9:10:56    39.20         12.63        0.58      84.31                 4.82          33.65     2485  34.00765    -118.50015    2018-04-18T16:10:56Z    
4/18/2018    9:10:56    39.20         12.63        0.58      84.27                 4.77          33.65     2486  34.00765    -118.50015    2018-04-18T16:10:56Z    
4/18/2018    9:10:56    39.20         12.63        0.59      84.32                 4.64          33.65     2487  34.00765    -118.50015    2018-04-18T16:10:56Z    
4/18/2018    9:10:56    39.20         12.63        0.60      84.33                 4.57          33.65     2488  34.00765    -118.50015    2018-04-18T16:10:56Z    
4/18/2018    9:10:56    39.20         12.63        0.62      84.30                 4.44          33.64     2489  34.00765    -118.50015    2018-04-18T16:10:56Z    
4/18/2018    9:10:56    39.20         12.63        0.63      84.34                 4.29          33.65     2490  34.00765    -118.50015    2018-04-18T16:10:56Z    
4/18/2018    9:10:57    39.20         12.63        0.67      84.33                 4.34          33.65     2491  34.00765    -118.50015    2018-04-18T16:10:57Z    
4/18/2018    9:10:57    39.20         12.63        0.69      84.32                 4.51          33.65     2492  34.00765    -118.50015    2018-04-18T16:10:57Z    
4/18/2018    9:10:57    39.20         12.63        0.72      84.30                 4.66          33.64     2493  34.00765    -118.50015    2018-04-18T16:10:57Z    
4/18/2018    9:10:57    39.20         12.63        0.75      84.32                 4.63          33.64     2494  34.00765    -118.50015    2018-04-18T16:10:57Z    
4/18/2018    9:10:57    39.20         12.63        0.76      84.31                 4.61          33.64     2495  34.00765    -118.50015    2018-04-18T16:10:57Z    
4/18/2018    9:10:57    39.20         12.63        0.77      84.30                 4.69          33.64     2496  34.00765    -118.50015    2018-04-18T16:10:57Z    
4/18/2018    9:10:58    39.20         12.63        0.77      84.27                 4.75          33.64     2497  34.00765    -118.50015    2018-04-18T16:10:58Z    
4/18/2018    9:10:58    39.20         12.63        0.77      84.28                 4.71          33.64     2498  34.00765    -118.50015    2018-04-18T16:10:58Z    
4/18/2018    9:10:58    39.20         12.63        0.77      84.35                 4.64          33.64     2499  34.00765    -118.50015    2018-04-18T16:10:58Z    
4/18/2018    9:10:58    39.20         12.63        0.76      84.34                 4.60          33.64     2500  34.00765    -118.50015    2018-04-18T16:10:58Z    
4/18/2018    9:10:58    39.20         12.63        0.76      84.34                 4.67          33.64     2501  34.00765    -118.50015    2018-04-18T16:10:58Z    
4/18/2018    9:10:58    39.20         12.63        0.75      84.32                 4.71          33.65     2502  34.00765    -118.50015    2018-04-18T16:10:58Z    
4/18/2018    9:10:59    39.20         12.63        0.76      84.32                 4.63          33.65     2503  34.00765    -118.50015    2018-04-18T16:10:59Z    
4/18/2018    9:10:59    39.20         12.63        0.77      84.32                 4.64          33.64     2504  34.00765    -118.50015    2018-04-18T16:10:59Z    
4/18/2018    9:10:59    39.20         12.63        0.78      84.32                 5.01          33.64     2505  34.00765    -118.50015    2018-04-18T16:10:59Z    
4/18/2018    9:10:59    39.20         12.63        0.79      84.34                 5.29          33.64     2506  34.00765    -118.50015    2018-04-18T16:10:59Z    
4/18/2018    9:10:59    39.20         12.63        0.81      84.32                 5.14          33.64     2507  34.00765    -118.50015    2018-04-18T16:10:59Z    
4/18/2018    9:10:59    39.20         12.63        0.84      84.33                 5.11          33.64     2508  34.00765    -118.50015    2018-04-18T16:10:59Z    
4/18/2018    9:11:00    39.20         12.63        0.85      84.36                 5.06          33.64     2509  34.00765    -118.50015    2018-04-18T16:11:00Z    
4/18/2018    9:11:00    39.20         12.63        0.86      84.36                 4.92          33.64     2510  34.00765    -118.50015    2018-04-18T16:11:00Z    
4/18/2018    9:11:00    39.20         12.63        0.89      84.33                 4.76          33.64     2511  34.00765    -118.50015    2018-04-18T16:11:00Z    
4/18/2018    9:11:00    39.20         12.63        0.90      84.33                 4.69          33.64     2512  34.00765    -118.50015    2018-04-18T16:11:00Z    
4/18/2018    9:11:00    39.20         12.63        0.91      84.33                 4.59          33.64     2513  34.00765    -118.50015    2018-04-18T16:11:00Z    
4/18/2018    9:11:00    39.20         12.63        0.92      84.34                 4.44          33.64     2514  34.00765    -118.50015    2018-04-18T16:11:00Z    
4/18/2018    9:11:01    39.20         12.63        0.93      84.35                 4.35          33.64     2515  34.00765    -118.50015    2018-04-18T16:11:01Z    
4/18/2018    9:11:01    39.20         12.63        0.95      84.37                 4.35          33.64     2516  34.00765    -118.50015    2018-04-18T16:11:01Z    
4/18/2018    9:11:01    39.20         12.63        0.95      84.34                 4.37          33.65     2517  34.00765    -118.50015    2018-04-18T16:11:01Z    
4/18/2018    9:11:01    39.20         12.63        0.94      84.34                 4.37          33.65     2518  34.00765    -118.50015    2018-04-18T16:11:01Z    
4/18/2018    9:11:01    39.20         12.63        0.94      84.34                 4.37          33.65     2519  34.00765    -118.50015    2018-04-18T16:11:01Z    
4/18/2018    9:11:01    39.20         12.63        0.97      84.35                 4.90          33.65     2520  34.00765    -118.50015    2018-04-18T16:11:01Z    
4/18/2018    9:11:02    39.20         12.63        0.97      84.37                 4.77          33.64     2521  34.00765    -118.50015    2018-04-18T16:11:02Z    
4/18/2018    9:11:02    39.20         12.63        0.99      84.34                 4.58          33.64     2522  34.00765    -118.50015    2018-04-18T16:11:02Z    
4/18/2018    9:11:02    39.20         12.63        0.98      84.37                 4.48          33.64     2523  34.00765    -118.50015    2018-04-18T16:11:02Z    
4/18/2018    9:11:02    39.20         12.63        0.99      84.34                 4.43          33.64     2524  34.00765    -118.50015    2018-04-18T16:11:02Z    
4/18/2018    9:11:02    39.20         12.63        0.98      84.35                 4.39          33.64     2525  34.00765    -118.50015    2018-04-18T16:11:02Z    
4/18/2018    9:11:02    39.20         12.63        0.98      84.37                 4.38          33.64     2526  34.00765    -118.50015    2018-04-18T16:11:02Z    
4/18/2018    9:11:03    39.20         12.63        0.96      84.36                 4.33          33.64     2527  34.00765    -118.50015    2018-04-18T16:11:03Z    
4/18/2018    9:11:03    39.20         12.63        0.94      84.36                 4.38          33.64     2528  34.00765    -118.50015    2018-04-18T16:11:03Z    
4/18/2018    9:11:03    39.20         12.63        0.90      84.35                 4.44          33.64     2529  34.00765    -118.50015    2018-04-18T16:11:03Z    
4/18/2018    9:11:03    39.20         12.63        0.88      84.33                 4.64          33.64     2530  34.00765    -118.50015    2018-04-18T16:11:03Z    
4/18/2018    9:11:03    39.20         12.63        0.84      84.36                 4.78          33.64     2531  34.00765    -118.50015    2018-04-18T16:11:03Z    
4/18/2018    9:11:03    39.20         12.63        0.80      84.37                 4.71          33.64     2532  34.00765    -118.50015    2018-04-18T16:11:03Z    
4/18/2018    9:11:04    39.20         12.63        0.76      84.35                 4.81          33.64     2533  34.00765    -118.50015    2018-04-18T16:11:04Z    
4/18/2018    9:11:04    39.20         12.63        0.73      84.35                 4.89          33.64     2534  34.00765    -118.50015    2018-04-18T16:11:04Z    
4/18/2018    9:11:04    39.20         12.63        0.71      84.34                 5.09          33.64     2535  34.00765    -118.50015    2018-04-18T16:11:04Z    
4/18/2018    9:11:04    39.20         12.63        0.67      84.34                 5.22          33.64     2536  34.00765    -118.50015    2018-04-18T16:11:04Z    
4/18/2018    9:11:04    39.20         12.63        0.67      84.36                 5.19          33.64     2537  34.00765    -118.50015    2018-04-18T16:11:04Z    
4/18/2018    9:11:04    39.20         12.63        0.66      84.38                 5.00          33.64     2538  34.00765    -118.50015    2018-04-18T16:11:04Z    
4/18/2018    9:11:05    39.20         12.63        0.65      84.34                 4.84          33.64     2539  34.00765    -118.50015    2018-04-18T16:11:05Z    
4/18/2018    9:11:05    39.20         12.63        0.65      84.37                 5.13          33.64     2540  34.00765    -118.50015    2018-04-18T16:11:05Z    
4/18/2018    9:11:05    39.20         12.63        0.66      84.38                 5.18          33.64     2541  34.00765    -118.50015    2018-04-18T16:11:05Z    
4/18/2018    9:11:05    39.20         12.63        0.68      84.34                 5.17          33.64     2542  34.00765    -118.50015    2018-04-18T16:11:05Z    
4/18/2018    9:11:05    39.20         12.63        0.69      84.33                 5.23          33.64     2543  34.00765    -118.50015    2018-04-18T16:11:05Z    
4/18/2018    9:11:05    39.20         12.63        0.70      84.37                 5.22          33.64     2544  34.00765    -118.50015    2018-04-18T16:11:05Z    
4/18/2018    9:11:06    39.20         12.63        0.71      84.35                 5.11          33.64     2545  34.00765    -118.50015    2018-04-18T16:11:06Z    
4/18/2018    9:11:06    39.20         12.63        0.70      84.34                 5.03          33.64     2546  34.00765    -118.50015    2018-04-18T16:11:06Z    
4/18/2018    9:11:06    39.20         12.63        0.71      84.31                 4.89          33.64     2547  34.00765    -118.50015    2018-04-18T16:11:06Z    
4/18/2018    9:11:06    39.20         12.63        0.71      84.34                 4.80          33.64     2548  34.00765    -118.50015    2018-04-18T16:11:06Z    
4/18/2018    9:11:06    39.20         12.63        0.73      84.34                 4.74          33.64     2549  34.00765    -118.50015    2018-04-18T16:11:06Z    
4/18/2018    9:11:06    39.19         12.63        0.75      84.33                 4.70          33.64     2550  34.00765    -118.50015    2018-04-18T16:11:06Z    
4/18/2018    9:11:07    39.20         12.63        0.78      84.29                 4.67          33.64     2551  34.00765    -118.50015    2018-04-18T16:11:07Z    
4/18/2018    9:11:07    39.20         12.64        0.81      84.39                 4.75          33.64     2552  34.00765    -118.50015    2018-04-18T16:11:07Z    
4/18/2018    9:11:07    39.20         12.64        0.84      84.33                 4.71          33.64     2553  34.00765    -118.50015    2018-04-18T16:11:07Z    
4/18/2018    9:11:07    39.20         12.64        0.85      84.38                 4.71          33.64     2554  34.00765    -118.50015    2018-04-18T16:11:07Z    
4/18/2018    9:11:07    39.20         12.64        0.87      84.37                 4.79          33.64     2555  34.00765    -118.50015    2018-04-18T16:11:07Z    
4/18/2018    9:11:07    39.20         12.63        0.86      84.37                 4.81          33.64     2556  34.00765    -118.50015    2018-04-18T16:11:07Z    
4/18/2018    9:11:08    39.20         12.63        0.86      84.38                 4.78          33.64     2557  34.00765    -118.50015    2018-04-18T16:11:08Z    
4/18/2018    9:11:08    39.20         12.63        0.85      84.39                 4.77          33.64     2558  34.00765    -118.50015    2018-04-18T16:11:08Z    
4/18/2018    9:11:08    39.20         12.63        0.84      84.37                 4.78          33.64     2559  34.00765    -118.50015    2018-04-18T16:11:08Z    
4/18/2018    9:11:08    39.20         12.63        0.84      84.37                 4.74          33.64     2560  34.00765    -118.50015    2018-04-18T16:11:08Z    
4/18/2018    9:11:08    39.20         12.63        0.84      84.39                 4.64          33.64     2561  34.00765    -118.50015    2018-04-18T16:11:08Z    
4/18/2018    9:11:08    39.20         12.63        0.82      84.36                 4.63          33.64     2562  34.00765    -118.50015    2018-04-18T16:11:08Z    
4/18/2018    9:11:09    39.20         12.63        0.82      84.38                 4.73          33.64     2563  34.00765    -118.50015    2018-04-18T16:11:09Z    
4/18/2018    9:11:09    39.20         12.63        0.82      84.40                 4.70          33.64     2564  34.00765    -118.50015    2018-04-18T16:11:09Z    
4/18/2018    9:11:09    39.20         12.63        0.81      84.42                 4.99          33.64     2565  34.00765    -118.50015    2018-04-18T16:11:09Z    
4/18/2018    9:11:09    39.20         12.63        0.81      84.40                 5.26          33.64     2566  34.00765    -118.50015    2018-04-18T16:11:09Z    
4/18/2018    9:11:09    39.20         12.63        0.81      84.40                 5.12          33.64     2567  34.00765    -118.50015    2018-04-18T16:11:09Z    
4/18/2018    9:11:09    39.20         12.63        0.79      84.39                 4.93          33.64     2568  34.00765    -118.50015    2018-04-18T16:11:09Z    
4/18/2018    9:11:10    39.20         12.63        0.77      84.39                 4.71          33.64     2569  34.00765    -118.50015    2018-04-18T16:11:10Z    
4/18/2018    9:11:10    39.20         12.63        0.75      84.42                 4.61          33.64     2570  34.00765    -118.50015    2018-04-18T16:11:10Z    
4/18/2018    9:11:10    39.20         12.64        0.72      84.42                 4.59          33.64     2571  34.00765    -118.50015    2018-04-18T16:11:10Z    
4/18/2018    9:11:10    39.20         12.64        0.68      84.42                 4.62          33.64     2572  34.00765    -118.50015    2018-04-18T16:11:10Z    
4/18/2018    9:11:10    39.20         12.64        0.64      84.42                 4.82          33.64     2573  34.00765    -118.50015    2018-04-18T16:11:10Z    
4/18/2018    9:11:10    39.20         12.64        0.60      84.44                 5.26          33.64     2574  34.00765    -118.50015    2018-04-18T16:11:10Z    
4/18/2018    9:11:11    39.20         12.64        0.56      84.40                 5.53          33.64     2575  34.00765    -118.50015    2018-04-18T16:11:11Z    
4/18/2018    9:11:11    39.20         12.64        0.51      84.43                 5.45          33.64     2576  34.00765    -118.50015    2018-04-18T16:11:11Z    
4/18/2018    9:11:11    39.20         12.64        0.49      84.41                 5.36          33.64     2577  34.00765    -118.50015    2018-04-18T16:11:11Z    
4/18/2018    9:11:11    39.20         12.64        0.49      84.43                 5.20          33.64     2578  34.00765    -118.50015    2018-04-18T16:11:11Z    
4/18/2018    9:11:11    39.20         12.63        0.49      84.46                 5.07          33.64     2579  34.00765    -118.50015    2018-04-18T16:11:11Z    
4/18/2018    9:11:11    39.20         12.63        0.50      84.46                 4.96          33.64     2580  34.00765    -118.50015    2018-04-18T16:11:11Z    
4/18/2018    9:11:12    39.20         12.63        0.53      84.45                 4.89          33.64     2581  34.00765    -118.50015    2018-04-18T16:11:12Z    
4/18/2018    9:11:12    39.19         12.63        0.56      84.42                 4.78          33.64     2582  34.00765    -118.50015    2018-04-18T16:11:12Z    
4/18/2018    9:11:12    39.20         12.63        0.59      84.41                 4.71          33.64     2583  34.00765    -118.50015    2018-04-18T16:11:12Z    
4/18/2018    9:11:12    39.20         12.63        0.61      84.43                 4.67          33.65     2584  34.00765    -118.50015    2018-04-18T16:11:12Z    
4/18/2018    9:11:12    39.20         12.63        0.63      84.42                 4.68          33.64     2585  34.00765    -118.50015    2018-04-18T16:11:12Z    
4/18/2018    9:11:12    39.20         12.63        0.67      84.45                 4.70          33.64     2586  34.00765    -118.50015    2018-04-18T16:11:12Z    
4/18/2018    9:11:13    39.20         12.63        0.69      84.43                 4.63          33.64     2587  34.00765    -118.50015    2018-04-18T16:11:13Z    
4/18/2018    9:11:13    39.20         12.63        0.70      84.41                 4.61          33.64     2588  34.00765    -118.50015    2018-04-18T16:11:13Z    
4/18/2018    9:11:13    39.20         12.63        0.73      84.43                 4.61          33.64     2589  34.00765    -118.50015    2018-04-18T16:11:13Z    
4/18/2018    9:11:13    39.19         12.63        0.75      84.42                 4.74          33.64     2590  34.00765    -118.50015    2018-04-18T16:11:13Z    
4/18/2018    9:11:13    39.20         12.64        0.76      84.42                 4.83          33.64     2591  34.00765    -118.50015    2018-04-18T16:11:13Z    
4/18/2018    9:11:13    39.20         12.64        0.78      84.41                 4.85          33.64     2592  34.00765    -118.50015    2018-04-18T16:11:13Z    
4/18/2018    9:11:14    39.20         12.64        0.80      84.45                 4.76          33.64     2593  34.00765    -118.50015    2018-04-18T16:11:14Z    
4/18/2018    9:11:14    39.20         12.64        0.80      84.44                 4.72          33.64     2594  34.00765    -118.50015    2018-04-18T16:11:14Z    
4/18/2018    9:11:14    39.20         12.64        0.82      84.44                 4.82          33.64     2595  34.00765    -118.50015    2018-04-18T16:11:14Z    
4/18/2018    9:11:14    39.20         12.64        0.83      84.43                 4.74          33.64     2596  34.00765    -118.50015    2018-04-18T16:11:14Z    
4/18/2018    9:11:14    39.20         12.64        0.85      84.46                 4.74          33.64     2597  34.00765    -118.50015    2018-04-18T16:11:14Z    
4/18/2018    9:11:14    39.20         12.64        0.85      84.49                 4.83          33.64     2598  34.00765    -118.50015    2018-04-18T16:11:14Z    
4/18/2018    9:11:15    39.20         12.64        0.85      84.49                 4.87          33.64     2599  34.00765    -118.50015    2018-04-18T16:11:15Z    
4/18/2018    9:11:15    39.20         12.64        0.87      84.49                 4.77          33.64     2600  34.00765    -118.50015    2018-04-18T16:11:15Z    
4/18/2018    9:11:15    39.20         12.64        0.86      84.53                 4.69          33.64     2601  34.00765    -118.50015    2018-04-18T16:11:15Z    
4/18/2018    9:11:15    39.20         12.64        0.87      84.48                 4.75          33.64     2602  34.00765    -118.50015    2018-04-18T16:11:15Z    
4/18/2018    9:11:15    39.20         12.65        0.86      84.51                 4.81          33.64     2603  34.00765    -118.50015    2018-04-18T16:11:15Z    
4/18/2018    9:11:15    39.20         12.64        0.87      84.55                 4.69          33.64     2604  34.00765    -118.50015    2018-04-18T16:11:15Z    
4/18/2018    9:11:16    39.20         12.64        0.90      84.56                 4.73          33.64     2605  34.00765    -118.50015    2018-04-18T16:11:16Z    
4/18/2018    9:11:16    39.20         12.64        0.92      84.53                 4.81          33.65     2606  34.00765    -118.50015    2018-04-18T16:11:16Z    
4/18/2018    9:11:16    39.20         12.64        0.94      84.55                 5.14          33.65     2607  34.00765    -118.50015    2018-04-18T16:11:16Z    
4/18/2018    9:11:16    39.20         12.64        0.98      84.58                 5.22          33.65     2608  34.00765    -118.50015    2018-04-18T16:11:16Z    
4/18/2018    9:11:16    39.20         12.64        0.99      84.56                 5.11          33.65     2609  34.00765    -118.50015    2018-04-18T16:11:16Z    
4/18/2018    9:11:16    39.20         12.64        1.01      84.52                 4.91          33.64     2610  34.00765    -118.50015    2018-04-18T16:11:16Z    
4/18/2018    9:11:17    39.20         12.64        1.02      84.52                 4.80          33.64     2611  34.00765    -118.50015    2018-04-18T16:11:17Z    
4/18/2018    9:11:17    39.20         12.64        1.01      84.52                 4.90          33.64     2612  34.00765    -118.50015    2018-04-18T16:11:17Z    
4/18/2018    9:11:17    39.20         12.64        1.00      84.53                 4.78          33.64     2613  34.00765    -118.50015    2018-04-18T16:11:17Z    
4/18/2018    9:11:17    39.21         12.64        0.96      84.48                 4.84          33.64     2614  34.00765    -118.50015    2018-04-18T16:11:17Z    
4/18/2018    9:11:17    39.21         12.64        0.93      84.52                 4.75          33.64     2615  34.00765    -118.50015    2018-04-18T16:11:17Z    
4/18/2018    9:11:17    39.20         12.64        0.89      84.53                 4.69          33.64     2616  34.00765    -118.50015    2018-04-18T16:11:17Z    
4/18/2018    9:11:18    39.20         12.64        0.85      84.53                 4.79          33.64     2617  34.00765    -118.50015    2018-04-18T16:11:18Z    
4/18/2018    9:11:18    39.20         12.64        0.80      84.55                 4.99          33.64     2618  34.00765    -118.50015    2018-04-18T16:11:18Z    
4/18/2018    9:11:18    39.20         12.64        0.77      84.50                 5.22          33.64     2619  34.00765    -118.50015    2018-04-18T16:11:18Z    
4/18/2018    9:11:18    39.20         12.64        0.75      84.51                 5.14          33.64     2620  34.00765    -118.50015    2018-04-18T16:11:18Z    
4/18/2018    9:11:18    39.20         12.64        0.75      84.52                 5.05          33.64     2621  34.00765    -118.50015    2018-04-18T16:11:18Z    
4/18/2018    9:11:18    39.20         12.64        0.75      84.53                 5.10          33.64     2622  34.00765    -118.50015    2018-04-18T16:11:18Z    
4/18/2018    9:11:19    39.20         12.64        0.75      84.55                 4.96          33.64     2623  34.00765    -118.50015    2018-04-18T16:11:19Z    
4/18/2018    9:11:19    39.20         12.64        0.76      84.51                 4.76          33.64     2624  34.00765    -118.50015    2018-04-18T16:11:19Z    
4/18/2018    9:11:19    39.20         12.64        0.77      84.50                 4.57          33.64     2625  34.00765    -118.50015    2018-04-18T16:11:19Z    
4/18/2018    9:11:19    39.20         12.64        0.79      84.52                 4.54          33.64     2626  34.00765    -118.50015    2018-04-18T16:11:19Z    
4/18/2018    9:11:19    39.20         12.63        0.80      84.47                 4.51          33.64     2627  34.00765    -118.50015    2018-04-18T16:11:19Z    
4/18/2018    9:11:19    39.20         12.63        0.81      84.49                 4.55          33.64     2628  34.00765    -118.50015    2018-04-18T16:11:19Z    
4/18/2018    9:11:20    39.20         12.63        0.83      84.50                 4.64          33.64     2629  34.00765    -118.50015    2018-04-18T16:11:20Z    
4/18/2018    9:11:20    39.20         12.63        0.86      84.50                 4.92          33.64     2630  34.00765    -118.50015    2018-04-18T16:11:20Z    
4/18/2018    9:11:20    39.20         12.64        0.88      84.50                 4.96          33.64     2631  34.00765    -118.50015    2018-04-18T16:11:20Z    
4/18/2018    9:11:20    39.20         12.64        0.89      84.47                 4.90          33.64     2632  34.00765    -118.50015    2018-04-18T16:11:20Z    
4/18/2018    9:11:20    39.20         12.63        0.91      84.50                 4.78          33.64     2633  34.00765    -118.50015    2018-04-18T16:11:20Z    
4/18/2018    9:11:20    39.20         12.64        0.89      84.49                 4.73          33.64     2634  34.00765    -118.50015    2018-04-18T16:11:20Z    
4/18/2018    9:11:21    39.20         12.64        0.89      84.43                 4.66          33.64     2635  34.00765    -118.50015    2018-04-18T16:11:21Z    
4/18/2018    9:11:21    39.20         12.64        0.86      84.47                 4.69          33.64     2636  34.00765    -118.50015    2018-04-18T16:11:21Z    
4/18/2018    9:11:21    39.20         12.64        0.83      84.48                 5.15          33.64     2637  34.00765    -118.50015    2018-04-18T16:11:21Z    
4/18/2018    9:11:21    39.20         12.64        0.79      84.44                 5.30          33.64     2638  34.00765    -118.50015    2018-04-18T16:11:21Z    
4/18/2018    9:11:21    39.20         12.64        0.75      84.50                 5.27          33.64     2639  34.00765    -118.50015    2018-04-18T16:11:21Z    
4/18/2018    9:11:21    39.20         12.64        0.70      84.47                 5.24          33.64     2640  34.00765    -118.50015    2018-04-18T16:11:21Z    
4/18/2018    9:11:22    39.20         12.64        0.65      84.47                 5.10          33.64     2641  34.00765    -118.50015    2018-04-18T16:11:22Z    
4/18/2018    9:11:22    39.20         12.64        0.63      84.47                 5.05          33.64     2642  34.00765    -118.50015    2018-04-18T16:11:22Z    
4/18/2018    9:11:22    39.20         12.64        0.61      84.45                 5.65          33.64     2643  34.00765    -118.50015    2018-04-18T16:11:22Z    
4/18/2018    9:11:22    39.20         12.64        0.61      84.42                 5.93          33.64     2644  34.00765    -118.50015    2018-04-18T16:11:22Z    
4/18/2018    9:11:22    39.20         12.64        0.59      84.46                 5.73          33.64     2645  34.00765    -118.50015    2018-04-18T16:11:22Z    
4/18/2018    9:11:22    39.20         12.63        0.59      84.46                 5.50          33.64     2646  34.00765    -118.50015    2018-04-18T16:11:22Z    
4/18/2018    9:11:23    39.20         12.64        0.60      84.47                 5.37          33.64     2647  34.00765    -118.50015    2018-04-18T16:11:23Z    
4/18/2018    9:11:23    39.20         12.64        0.62      84.41                 5.35          33.64     2648  34.00765    -118.50015    2018-04-18T16:11:23Z    
4/18/2018    9:11:23    39.20         12.64        0.64      84.40                 5.23          33.64     2649  34.00765    -118.50015    2018-04-18T16:11:23Z    
4/18/2018    9:11:23    39.20         12.63        0.67      84.40                 5.07          33.64     2650  34.00765    -118.50015    2018-04-18T16:11:23Z    
4/18/2018    9:11:23    39.20         12.64        0.69      84.39                 5.01          33.64     2651  34.00765    -118.50015    2018-04-18T16:11:23Z    
4/18/2018    9:11:23    39.20         12.64        0.72      84.37                 5.03          33.64     2652  34.00765    -118.50015    2018-04-18T16:11:23Z    
4/18/2018    9:11:24    39.20         12.64        0.72      84.41                 5.04          33.64     2653  34.00765    -118.50015    2018-04-18T16:11:24Z    
4/18/2018    9:11:24    39.20         12.63        0.71      84.40                 5.18          33.64     2654  34.00765    -118.50015    2018-04-18T16:11:24Z    
4/18/2018    9:11:24    39.20         12.63        0.70      84.42                 5.05          33.64     2655  34.00765    -118.50015    2018-04-18T16:11:24Z    
4/18/2018    9:11:24    39.20         12.63        0.69      84.42                 4.93          33.64     2656  34.00765    -118.50015    2018-04-18T16:11:24Z    
4/18/2018    9:11:24    39.20         12.63        0.64      84.39                 4.82          33.64     2657  34.00765    -118.50015    2018-04-18T16:11:24Z    
4/18/2018    9:11:24    39.20         12.63        0.62      84.39                 4.72          33.64     2658  34.00765    -118.50015    2018-04-18T16:11:24Z    
4/18/2018    9:11:25    39.20         12.64        0.60      84.39                 4.70          33.64     2659  34.00765    -118.50015    2018-04-18T16:11:25Z    
4/18/2018    9:11:25    39.20         12.64        0.59      84.40                 4.81          33.64     2660  34.00765    -118.50015    2018-04-18T16:11:25Z    
4/18/2018    9:11:25    39.20         12.64        0.58      84.38                 4.98          33.63     2661  34.00765    -118.50015    2018-04-18T16:11:25Z    
4/18/2018    9:11:25    39.20         12.64        0.57      84.41                 5.03          33.64     2662  34.00765    -118.50015    2018-04-18T16:11:25Z    
4/18/2018    9:11:25    39.20         12.64        0.59      84.39                 5.08          33.64     2663  34.00765    -118.50015    2018-04-18T16:11:25Z    
4/18/2018    9:11:25    39.20         12.64        0.57      84.40                 4.98          33.64     2664  34.00765    -118.50015    2018-04-18T16:11:25Z    
4/18/2018    9:11:26    39.20         12.64        0.59      84.40                 4.81          33.64     2665  34.00765    -118.50015    2018-04-18T16:11:26Z    
4/18/2018    9:11:26    39.20         12.64        0.61      84.36                 4.80          33.64     2666  34.00765    -118.50015    2018-04-18T16:11:26Z    
4/18/2018    9:11:26    39.20         12.64        0.62      84.38                 4.77          33.64     2667  34.00765    -118.50015    2018-04-18T16:11:26Z    
4/18/2018    9:11:26    39.20         12.64        0.63      84.39                 4.65          33.64     2668  34.00765    -118.50015    2018-04-18T16:11:26Z    
4/18/2018    9:11:26    39.20         12.64        0.65      84.41                 4.72          33.64     2669  34.00765    -118.50015    2018-04-18T16:11:26Z    
4/18/2018    9:11:26    39.20         12.64        0.68      84.40                 4.78          33.64     2670  34.00765    -118.50015    2018-04-18T16:11:26Z    
4/18/2018    9:11:27    39.20         12.65        0.71      84.44                 4.77          33.64     2671  34.00765    -118.50015    2018-04-18T16:11:27Z    
4/18/2018    9:11:27    39.20         12.65        0.75      84.40                 4.74          33.64     2672  34.00765    -118.50015    2018-04-18T16:11:27Z    
4/18/2018    9:11:27    39.21         12.64        0.79      84.41                 4.72          33.64     2673  34.00765    -118.50015    2018-04-18T16:11:27Z    
4/18/2018    9:11:27    39.20         12.64        0.84      84.38                 4.80          33.64     2674  34.00765    -118.50015    2018-04-18T16:11:27Z    
4/18/2018    9:11:27    39.20         12.64        0.88      84.40                 4.96          33.64     2675  34.00765    -118.50015    2018-04-18T16:11:27Z    
4/18/2018    9:11:27    39.20         12.64        0.93      84.42                 5.00          33.64     2676  34.00765    -118.50015    2018-04-18T16:11:27Z    
4/18/2018    9:11:28    39.20         12.64        0.97      84.49                 5.23          33.64     2677  34.00765    -118.50015    2018-04-18T16:11:28Z    
4/18/2018    9:11:28    39.21         12.64        1.02      84.54                 5.29          33.65     2678  34.00765    -118.50015    2018-04-18T16:11:28Z    
4/18/2018    9:11:28    39.21         12.64        1.06      84.48                 5.14          33.65     2679  34.00765    -118.50015    2018-04-18T16:11:28Z    
4/18/2018    9:11:28    39.21         12.64        1.06      84.45                 5.09          33.65     2680  34.00765    -118.50015    2018-04-18T16:11:28Z    
4/18/2018    9:11:28    39.20         12.64        1.06      84.52                 4.97          33.64     2681  34.00765    -118.50015    2018-04-18T16:11:28Z    
4/18/2018    9:11:28    39.20         12.64        1.05      84.56                 4.83          33.64     2682  34.00765    -118.50015    2018-04-18T16:11:28Z    
4/18/2018    9:11:29    39.20         12.64        1.05      84.49                 4.74          33.64     2683  34.00765    -118.50015    2018-04-18T16:11:29Z    
4/18/2018    9:11:29    39.21         12.64        1.04      84.49                 4.72          33.64     2684  34.00765    -118.50015    2018-04-18T16:11:29Z    
4/18/2018    9:11:29    39.21         12.64        1.01      84.50                 4.82          33.65     2685  34.00765    -118.50015    2018-04-18T16:11:29Z    
4/18/2018    9:11:29    39.21         12.64        0.98      84.50                 4.91          33.65     2686  34.00765    -118.50015    2018-04-18T16:11:29Z    
4/18/2018    9:11:29    39.21         12.64        0.96      84.47                 5.13          33.64     2687  34.00765    -118.50015    2018-04-18T16:11:29Z    
4/18/2018    9:11:29    39.21         12.64        0.93      84.51                 5.14          33.64     2688  34.00765    -118.50015    2018-04-18T16:11:29Z    
4/18/2018    9:11:30    39.21         12.64        0.90      84.46                 5.27          33.64     2689  34.00765    -118.50015    2018-04-18T16:11:30Z    
4/18/2018    9:11:30    39.21         12.64        0.86      84.54                 5.27          33.64     2690  34.00765    -118.50015    2018-04-18T16:11:30Z    
4/18/2018    9:11:30    39.21         12.64        0.83      84.53                 5.10          33.64     2691  34.00765    -118.50015    2018-04-18T16:11:30Z    
4/18/2018    9:11:30    39.21         12.64        0.81      84.51                 4.96          33.65     2692  34.00765    -118.50015    2018-04-18T16:11:30Z    
4/18/2018    9:11:30    39.21         12.64        0.78      84.52                 4.77          33.65     2693  34.00765    -118.50015    2018-04-18T16:11:30Z    
4/18/2018    9:11:30    39.21         12.64        0.77      84.50                 4.63          33.64     2694  34.00765    -118.50015    2018-04-18T16:11:30Z    
4/18/2018    9:11:31    39.20         12.64        0.77      84.49                 4.57          33.64     2695  34.00765    -118.50015    2018-04-18T16:11:31Z    
4/18/2018    9:11:31    39.20         12.64        0.76      84.49                 4.54          33.64     2696  34.00765    -118.50015    2018-04-18T16:11:31Z    
4/18/2018    9:11:31    39.20         12.64        0.74      84.50                 4.49          33.64     2697  34.00765    -118.50015    2018-04-18T16:11:31Z    
4/18/2018    9:11:31    39.20         12.64        0.73      84.47                 4.51          33.64     2698  34.00765    -118.50015    2018-04-18T16:11:31Z    
4/18/2018    9:11:31    39.20         12.64        0.71      84.44                 4.54          33.64     2699  34.00765    -118.50015    2018-04-18T16:11:31Z    
4/18/2018    9:11:31    39.20         12.64        0.71      84.49                 4.40          33.64     2700  34.00765    -118.50015    2018-04-18T16:11:31Z    
4/18/2018    9:11:32    39.20         12.64        0.71      84.47                 4.45          33.64     2701  34.00765    -118.50015    2018-04-18T16:11:32Z    
4/18/2018    9:11:32    39.20         12.64        0.70      84.45                 4.62          33.64     2702  34.00765    -118.50015    2018-04-18T16:11:32Z    
4/18/2018    9:11:32    39.20         12.64        0.68      84.47                 4.64          33.64     2703  34.00765    -118.50015    2018-04-18T16:11:32Z    
4/18/2018    9:11:32    39.20         12.64        0.68      84.44                 4.57          33.64     2704  34.00765    -118.50015    2018-04-18T16:11:32Z    
4/18/2018    9:11:32    39.20         12.64        0.67      84.44                 4.59          33.64     2705  34.00765    -118.50015    2018-04-18T16:11:32Z    
4/18/2018    9:11:32    39.20         12.64        0.65      84.48                 4.56          33.64     2706  34.00765    -118.50015    2018-04-18T16:11:32Z    
4/18/2018    9:11:33    39.20         12.64        0.63      84.47                 4.51          33.64     2707  34.00765    -118.50015    2018-04-18T16:11:33Z    
4/18/2018    9:11:33    39.20         12.64        0.65      84.46                 4.50          33.64     2708  34.00765    -118.50015    2018-04-18T16:11:33Z    
4/18/2018    9:11:33    39.20         12.64        0.66      84.45                 4.72          33.64     2709  34.00765    -118.50015    2018-04-18T16:11:33Z    
4/18/2018    9:11:33    39.20         12.64        0.67      84.47                 4.83          33.64     2710  34.00765    -118.50015    2018-04-18T16:11:33Z    
4/18/2018    9:11:33    39.20         12.64        0.73      84.45                 4.90          33.64     2711  34.00765    -118.50015    2018-04-18T16:11:33Z    
4/18/2018    9:11:33    39.20         12.64        0.76      84.44                 4.90          33.64     2712  34.00765    -118.50015    2018-04-18T16:11:33Z    
4/18/2018    9:11:34    39.20         12.64        0.78      84.45                 4.88          33.64     2713  34.00765    -118.50015    2018-04-18T16:11:34Z    
4/18/2018    9:11:34    39.20         12.64        0.81      84.49                 4.99          33.64     2714  34.00765    -118.50015    2018-04-18T16:11:34Z    
4/18/2018    9:11:34    39.20         12.64        0.85      84.43                 5.13          33.64     2715  34.00765    -118.50015    2018-04-18T16:11:34Z    
4/18/2018    9:11:34    39.20         12.64        0.86      84.49                 5.25          33.64     2716  34.00765    -118.50015    2018-04-18T16:11:34Z    
4/18/2018    9:11:34    39.20         12.64        0.87      84.49                 5.25          33.64     2717  34.00765    -118.50015    2018-04-18T16:11:34Z    
4/18/2018    9:11:34    39.20         12.64        0.88      84.48                 5.11          33.64     2718  34.00765    -118.50015    2018-04-18T16:11:34Z    
4/18/2018    9:11:35    39.20         12.64        0.86      84.50                 5.06          33.64     2719  34.00765    -118.50015    2018-04-18T16:11:35Z    
4/18/2018    9:11:35    39.20         12.64        0.84      84.46                 5.02          33.64     2720  34.00765    -118.50015    2018-04-18T16:11:35Z    
4/18/2018    9:11:35    39.20         12.64        0.81      84.42                 4.91          33.64     2721  34.00765    -118.50015    2018-04-18T16:11:35Z    
4/18/2018    9:11:35    39.20         12.64        0.77      84.50                 4.75          33.64     2722  34.00765    -118.50015    2018-04-18T16:11:35Z    
4/18/2018    9:11:35    39.20         12.64        0.73      84.47                 4.65          33.64     2723  34.00765    -118.50015    2018-04-18T16:11:35Z    
4/18/2018    9:11:35    39.20         12.64        0.69      84.49                 4.68          33.64     2724  34.00765    -118.50015    2018-04-18T16:11:35Z    
4/18/2018    9:11:36    39.20         12.64        0.67      84.50                 4.66          33.64     2725  34.00765    -118.50015    2018-04-18T16:11:36Z    
4/18/2018    9:11:36    39.20         12.64        0.65      84.51                 4.60          33.64     2726  34.00765    -118.50015    2018-04-18T16:11:36Z    
4/18/2018    9:11:36    39.20         12.64        0.65      84.51                 4.61          33.64     2727  34.00765    -118.50015    2018-04-18T16:11:36Z    
4/18/2018    9:11:36    39.20         12.64        0.65      84.54                 4.65          33.64     2728  34.00765    -118.50015    2018-04-18T16:11:36Z    
4/18/2018    9:11:36    39.20         12.64        0.65      84.52                 4.63          33.64     2729  34.00765    -118.50015    2018-04-18T16:11:36Z    
4/18/2018    9:11:36    39.20         12.64        0.67      84.53                 4.49          33.64     2730  34.00765    -118.50015    2018-04-18T16:11:36Z    
4/18/2018    9:11:37    39.20         12.64        0.69      84.54                 4.69          33.64     2731  34.00765    -118.50015    2018-04-18T16:11:37Z    
4/18/2018    9:11:37    39.20         12.64        0.71      84.55                 4.76          33.64     2732  34.00765    -118.50015    2018-04-18T16:11:37Z    
4/18/2018    9:11:37    39.20         12.64        0.72      84.51                 4.81          33.64     2733  34.00765    -118.50015    2018-04-18T16:11:37Z    
4/18/2018    9:11:37    39.20         12.64        0.74      84.52                 4.77          33.64     2734  34.00765    -118.50015    2018-04-18T16:11:37Z    
4/18/2018    9:11:37    39.20         12.64        0.75      84.55                 4.58          33.64     2735  34.00765    -118.50015    2018-04-18T16:11:37Z    
4/18/2018    9:11:37    39.20         12.64        0.76      84.55                 4.40          33.64     2736  34.00765    -118.50015    2018-04-18T16:11:37Z    
4/18/2018    9:11:38    39.20         12.64        0.76      84.53                 4.44          33.64     2737  34.00765    -118.50015    2018-04-18T16:11:38Z    
4/18/2018    9:11:38    39.20         12.64        0.75      84.57                 4.42          33.64     2738  34.00765    -118.50015    2018-04-18T16:11:38Z    
4/18/2018    9:11:38    39.20         12.64        0.72      84.60                 4.39          33.64     2739  34.00765    -118.50015    2018-04-18T16:11:38Z    
4/18/2018    9:11:38    39.20         12.64        0.72      84.57                 4.40          33.64     2740  34.00765    -118.50015    2018-04-18T16:11:38Z    
4/18/2018    9:11:38    39.21         12.65        0.68      84.55                 4.48          33.64     2741  34.00765    -118.50015    2018-04-18T16:11:38Z    
4/18/2018    9:11:38    39.21         12.64        0.66      84.59                 4.84          33.64     2742  34.00765    -118.50015    2018-04-18T16:11:38Z    
4/18/2018    9:11:39    39.21         12.64        0.64      84.59                 5.00          33.64     2743  34.00765    -118.50015    2018-04-18T16:11:39Z    
4/18/2018    9:11:39    39.21         12.65        0.64      84.59                 4.97          33.64     2744  34.00765    -118.50015    2018-04-18T16:11:39Z    
4/18/2018    9:11:39    39.21         12.65        0.64      84.57                 5.00          33.64     2745  34.00765    -118.50015    2018-04-18T16:11:39Z    
4/18/2018    9:11:39    39.21         12.65        0.65      84.57                 5.11          33.64     2746  34.00765    -118.50015    2018-04-18T16:11:39Z    
4/18/2018    9:11:39    39.20         12.65        0.67      84.58                 5.19          33.64     2747  34.00765    -118.50015    2018-04-18T16:11:39Z    
4/18/2018    9:11:39    39.20         12.65        0.71      84.59                 5.05          33.64     2748  34.00765    -118.50015    2018-04-18T16:11:39Z    
4/18/2018    9:11:40    39.20         12.65        0.73      84.58                 4.92          33.64     2749  34.00765    -118.50015    2018-04-18T16:11:40Z    
4/18/2018    9:11:40    39.21         12.65        0.76      84.64                 4.86          33.64     2750  34.00765    -118.50015    2018-04-18T16:11:40Z    
4/18/2018    9:11:40    39.20         12.64        0.80      84.65                 4.85          33.64     2751  34.00765    -118.50015    2018-04-18T16:11:40Z    
4/18/2018    9:11:40    39.20         12.64        0.81      84.62                 4.84          33.64     2752  34.00765    -118.50015    2018-04-18T16:11:40Z    
4/18/2018    9:11:40    39.20         12.64        0.86      84.60                 5.00          33.64     2753  34.00765    -118.50015    2018-04-18T16:11:40Z    
4/18/2018    9:11:40    39.20         12.64        0.91      84.64                 5.29          33.64     2754  34.00765    -118.50015    2018-04-18T16:11:40Z    
4/18/2018    9:11:41    39.20         12.64        0.96      84.65                 5.35          33.64     2755  34.00765    -118.50015    2018-04-18T16:11:41Z    
4/18/2018    9:11:41    39.20         12.64        1.01      84.71                 5.16          33.64     2756  34.00765    -118.50015    2018-04-18T16:11:41Z    
4/18/2018    9:11:41    39.20         12.64        1.04      84.70                 4.97          33.65     2757  34.00765    -118.50015    2018-04-18T16:11:41Z    
4/18/2018    9:11:41    39.20         12.64        1.07      84.68                 4.97          33.65     2758  34.00765    -118.50015    2018-04-18T16:11:41Z    
4/18/2018    9:11:41    39.20         12.64        1.09      84.71                 4.98          33.64     2759  34.00765    -118.50015    2018-04-18T16:11:41Z    
4/18/2018    9:11:41    39.20         12.64        1.09      84.74                 4.93          33.65     2760  34.00765    -118.50015    2018-04-18T16:11:41Z    
4/18/2018    9:11:42    39.20         12.64        1.09      84.72                 5.02          33.64     2761  34.00765    -118.50015    2018-04-18T16:11:42Z    
4/18/2018    9:11:42    39.20         12.64        1.07      84.70                 5.15          33.65     2762  34.00765    -118.50015    2018-04-18T16:11:42Z    
4/18/2018    9:11:42    39.20         12.63        1.02      84.71                 5.15          33.64     2763  34.00765    -118.50015    2018-04-18T16:11:42Z    
4/18/2018    9:11:42    39.20         12.63        1.00      84.71                 4.93          33.64     2764  34.00765    -118.50015    2018-04-18T16:11:42Z    
4/18/2018    9:11:42    39.19         12.64        0.98      84.70                 4.86          33.64     2765  34.00765    -118.50015    2018-04-18T16:11:42Z    
4/18/2018    9:11:42    39.20         12.64        0.96      84.71                 4.90          33.64     2766  34.00765    -118.50015    2018-04-18T16:11:42Z    
4/18/2018    9:11:43    39.20         12.63        0.93      84.69                 5.08          33.64     2767  34.00765    -118.50015    2018-04-18T16:11:43Z    
4/18/2018    9:11:43    39.20         12.63        0.91      84.68                 5.18          33.64     2768  34.00765    -118.50015    2018-04-18T16:11:43Z    
4/18/2018    9:11:43    39.20         12.64        0.90      84.71                 4.97          33.64     2769  34.00765    -118.50015    2018-04-18T16:11:43Z    
4/18/2018    9:11:43    39.20         12.63        0.88      84.69                 4.81          33.64     2770  34.00765    -118.50015    2018-04-18T16:11:43Z    
4/18/2018    9:11:43    39.20         12.64        0.84      84.68                 4.99          33.64     2771  34.00765    -118.50015    2018-04-18T16:11:43Z    
4/18/2018    9:11:43    39.20         12.64        0.80      84.72                 5.74          33.64     2772  34.00765    -118.50015    2018-04-18T16:11:43Z    
4/18/2018    9:11:44    39.20         12.64        0.77      84.71                 5.84          33.64     2773  34.00765    -118.50015    2018-04-18T16:11:44Z    
4/18/2018    9:11:44    39.20         12.64        0.72      84.72                 5.61          33.64     2774  34.00765    -118.50015    2018-04-18T16:11:44Z    
4/18/2018    9:11:44    39.20         12.64        0.67      84.74                 5.20          33.64     2775  34.00765    -118.50015    2018-04-18T16:11:44Z    
4/18/2018    9:11:44    39.20         12.64        0.65      84.73                 4.90          33.64     2776  34.00765    -118.50015    2018-04-18T16:11:44Z    
4/18/2018    9:11:44    39.20         12.64        0.63      84.74                 4.81          33.64     2777  34.00765    -118.50015    2018-04-18T16:11:44Z    
4/18/2018    9:11:44    39.20         12.64        0.63      84.72                 5.02          33.64     2778  34.00765    -118.50015    2018-04-18T16:11:44Z    
4/18/2018    9:11:45    39.20         12.64        0.64      84.75                 4.93          33.64     2779  34.00765    -118.50015    2018-04-18T16:11:45Z    
4/18/2018    9:11:45    39.20         12.64        0.66      84.73                 4.78          33.64     2780  34.00765    -118.50015    2018-04-18T16:11:45Z    
4/18/2018    9:11:45    39.20         12.64        0.67      84.76                 5.06          33.64     2781  34.00765    -118.50015    2018-04-18T16:11:45Z    
4/18/2018    9:11:45    39.20         12.64        0.69      84.75                 5.10          33.64     2782  34.00765    -118.50015    2018-04-18T16:11:45Z    
4/18/2018    9:11:45    39.20         12.64        0.73      84.74                 5.01          33.64     2783  34.00765    -118.50015    2018-04-18T16:11:45Z    
4/18/2018    9:11:45    39.20         12.64        0.77      84.73                 4.96          33.64     2784  34.00765    -118.50015    2018-04-18T16:11:45Z    
4/18/2018    9:11:46    39.20         12.64        0.78      84.76                 4.96          33.64     2785  34.00765    -118.50015    2018-04-18T16:11:46Z    
4/18/2018    9:11:46    39.20         12.64        0.80      84.75                 5.03          33.64     2786  34.00765    -118.50015    2018-04-18T16:11:46Z    
4/18/2018    9:11:46    39.20         12.64        0.82      84.74                 5.25          33.64     2787  34.00765    -118.50015    2018-04-18T16:11:46Z    
4/18/2018    9:11:46    39.20         12.64        0.83      84.71                 5.48          33.64     2788  34.00765    -118.50015    2018-04-18T16:11:46Z    
4/18/2018    9:11:46    39.20         12.64        0.84      84.73                 5.38          33.64     2789  34.00765    -118.50015    2018-04-18T16:11:46Z    
4/18/2018    9:11:46    39.20         12.64        0.84      84.71                 5.33          33.64     2790  34.00765    -118.50015    2018-04-18T16:11:46Z    
4/18/2018    9:11:47    39.20         12.64        0.84      84.71                 5.29          33.64     2791  34.00765    -118.50015    2018-04-18T16:11:47Z    
4/18/2018    9:11:47    39.20         12.64        0.83      84.67                 5.15          33.64     2792  34.00765    -118.50015    2018-04-18T16:11:47Z    
4/18/2018    9:11:47    39.20         12.64        0.80      84.68                 5.12          33.64     2793  34.00765    -118.50015    2018-04-18T16:11:47Z    
4/18/2018    9:11:47    39.20         12.64        0.78      84.71                 5.13          33.64     2794  34.00765    -118.50015    2018-04-18T16:11:47Z    
4/18/2018    9:11:47    39.20         12.64        0.76      84.67                 5.08          33.64     2795  34.00765    -118.50015    2018-04-18T16:11:47Z    
4/18/2018    9:11:47    39.20         12.64        0.71      84.67                 5.08          33.64     2796  34.00765    -118.50015    2018-04-18T16:11:47Z    
4/18/2018    9:11:48    39.20         12.64        0.69      84.64                 5.11          33.64     2797  34.00765    -118.50015    2018-04-18T16:11:48Z    
4/18/2018    9:11:48    39.20         12.64        0.70      84.65                 5.16          33.64     2798  34.00765    -118.50015    2018-04-18T16:11:48Z    
4/18/2018    9:11:48    39.20         12.64        0.71      84.62                 5.14          33.64     2799  34.00765    -118.50015    2018-04-18T16:11:48Z    
4/18/2018    9:11:48    39.20         12.64        0.74      84.55                 5.08          33.64     2800  34.00765    -118.50015    2018-04-18T16:11:48Z    
4/18/2018    9:11:48    39.20         12.64        0.77      84.58                 4.95          33.64     2801  34.00765    -118.50015    2018-04-18T16:11:48Z    
4/18/2018    9:11:48    39.20         12.64        0.80      84.58                 5.11          33.64     2802  34.00765    -118.50015    2018-04-18T16:11:48Z    
4/18/2018    9:11:49    39.20         12.64        0.82      84.58                 5.28          33.64     2803  34.00765    -118.50015    2018-04-18T16:11:49Z    
4/18/2018    9:11:49    39.20         12.64        0.84      84.53                 5.18          33.64     2804  34.00765    -118.50015    2018-04-18T16:11:49Z    
4/18/2018    9:11:49    39.20         12.64        0.85      84.52                 4.98          33.64     2805  34.00765    -118.50015    2018-04-18T16:11:49Z    
4/18/2018    9:11:49    39.20         12.64        0.84      84.52                 4.82          33.64     2806  34.00765    -118.50015    2018-04-18T16:11:49Z    
4/18/2018    9:11:49    39.20         12.64        0.83      84.53                 4.75          33.64     2807  34.00765    -118.50015    2018-04-18T16:11:49Z    
4/18/2018    9:11:49    39.20         12.64        0.80      84.51                 4.56          33.64     2808  34.00765    -118.50015    2018-04-18T16:11:49Z    
4/18/2018    9:11:50    39.20         12.64        0.79      84.55                 4.46          33.64     2809  34.00765    -118.50015    2018-04-18T16:11:50Z    
4/18/2018    9:11:50    39.20         12.64        0.79      84.49                 4.63          33.64     2810  34.00765    -118.50015    2018-04-18T16:11:50Z    
4/18/2018    9:11:50    39.20         12.64        0.80      84.52                 4.81          33.64     2811  34.00765    -118.50015    2018-04-18T16:11:50Z    
4/18/2018    9:11:50    39.20         12.64        0.80      84.47                 4.88          33.64     2812  34.00765    -118.50015    2018-04-18T16:11:50Z    
4/18/2018    9:11:50    39.20         12.64        0.81      84.48                 4.79          33.64     2813  34.00765    -118.50015    2018-04-18T16:11:50Z    
4/18/2018    9:11:50    39.20         12.64        0.82      84.43                 4.67          33.64     2814  34.00765    -118.50015    2018-04-18T16:11:50Z    
4/18/2018    9:11:51    39.20         12.64        0.83      84.49                 4.61          33.64     2815  34.00765    -118.50015    2018-04-18T16:11:51Z    
4/18/2018    9:11:51    39.20         12.64        0.86      84.52                 4.61          33.64     2816  34.00765    -118.50015    2018-04-18T16:11:51Z    
4/18/2018    9:11:51    39.20         12.64        0.88      84.50                 4.54          33.64     2817  34.00765    -118.50015    2018-04-18T16:11:51Z    
4/18/2018    9:11:51    39.20         12.64        0.88      84.50                 4.54          33.64     2818  34.00765    -118.50015    2018-04-18T16:11:51Z    
4/18/2018    9:11:51    39.20         12.64        0.88      84.50                 4.52          33.64     2819  34.00765    -118.50015    2018-04-18T16:11:51Z    
4/18/2018    9:11:51    39.20         12.64        0.88      84.50                 4.46          33.64     2820  34.00765    -118.50015    2018-04-18T16:11:51Z    
4/18/2018    9:11:52    39.20         12.64        0.87      84.48                 4.31          33.64     2821  34.00765    -118.50015    2018-04-18T16:11:52Z    
4/18/2018    9:11:52    39.20         12.64        0.85      84.49                 4.30          33.64     2822  34.00765    -118.50015    2018-04-18T16:11:52Z    
4/18/2018    9:11:52    39.20         12.64        0.83      84.48                 4.39          33.64     2823  34.00765    -118.50015    2018-04-18T16:11:52Z    
4/18/2018    9:11:52    39.20         12.64        0.80      84.50                 4.45          33.64     2824  34.00765    -118.50015    2018-04-18T16:11:52Z    
4/18/2018    9:11:52    39.20         12.64        0.79      84.49                 4.50          33.64     2825  34.00765    -118.50015    2018-04-18T16:11:52Z    
4/18/2018    9:11:52    39.20         12.64        0.77      84.45                 4.51          33.64     2826  34.00765    -118.50015    2018-04-18T16:11:52Z    
4/18/2018    9:11:53    39.20         12.64        0.77      84.47                 4.61          33.64     2827  34.00765    -118.50015    2018-04-18T16:11:53Z    
4/18/2018    9:11:53    39.20         12.64        0.78      84.48                 4.68          33.64     2828  34.00765    -118.50015    2018-04-18T16:11:53Z    
4/18/2018    9:11:53    39.20         12.64        0.80      84.47                 4.65          33.64     2829  34.00765    -118.50015    2018-04-18T16:11:53Z    
4/18/2018    9:11:53    39.20         12.64        0.80      84.43                 4.53          33.64     2830  34.00765    -118.50015    2018-04-18T16:11:53Z    
4/18/2018    9:11:53    39.20         12.64        0.82      84.50                 4.54          33.64     2831  34.00765    -118.50015    2018-04-18T16:11:53Z    
4/18/2018    9:11:53    39.20         12.64        0.83      84.45                 4.54          33.64     2832  34.00765    -118.50015    2018-04-18T16:11:53Z    
4/18/2018    9:11:54    39.20         12.64        0.83      84.46                 4.56          33.64     2833  34.00765    -118.50015    2018-04-18T16:11:54Z    
4/18/2018    9:11:54    39.20         12.64        0.81      84.49                 4.58          33.64     2834  34.00765    -118.50015    2018-04-18T16:11:54Z    
4/18/2018    9:11:54    39.20         12.64        0.80      84.48                 4.54          33.64     2835  34.00765    -118.50015    2018-04-18T16:11:54Z    
4/18/2018    9:11:54    39.20         12.64        0.78      84.47                 4.51          33.64     2836  34.00765    -118.50015    2018-04-18T16:11:54Z    
4/18/2018    9:11:54    39.20         12.64        0.76      84.47                 4.60          33.64     2837  34.00765    -118.50015    2018-04-18T16:11:54Z    
4/18/2018    9:11:54    39.20         12.64        0.73      84.46                 5.12          33.64     2838  34.00765    -118.50015    2018-04-18T16:11:54Z    
4/18/2018    9:11:55    39.20         12.64        0.69      84.44                 5.44          33.64     2839  34.00765    -118.50015    2018-04-18T16:11:55Z    
4/18/2018    9:11:55    39.20         12.64        0.67      84.50                 5.32          33.64     2840  34.00765    -118.50015    2018-04-18T16:11:55Z    
4/18/2018    9:11:55    39.20         12.64        0.63      84.48                 5.03          33.64     2841  34.00765    -118.50015    2018-04-18T16:11:55Z    
4/18/2018    9:11:55    39.20         12.64        0.62      84.47                 4.79          33.64     2842  34.00765    -118.50015    2018-04-18T16:11:55Z    
4/18/2018    9:11:55    39.20         12.64        0.61      84.45                 4.63          33.64     2843  34.00765    -118.50015    2018-04-18T16:11:55Z    
4/18/2018    9:11:55    39.20         12.64        0.62      84.50                 4.49          33.64     2844  34.00765    -118.50015    2018-04-18T16:11:55Z    
4/18/2018    9:11:56    39.20         12.64        0.63      84.48                 4.40          33.64     2845  34.00765    -118.50015    2018-04-18T16:11:56Z    
4/18/2018    9:11:56    39.20         12.64        0.65      84.48                 4.44          33.64     2846  34.00765    -118.50015    2018-04-18T16:11:56Z    
4/18/2018    9:11:56    39.20         12.64        0.68      84.47                 4.43          33.64     2847  34.00765    -118.50015    2018-04-18T16:11:56Z    
4/18/2018    9:11:56    39.20         12.64        0.71      84.51                 4.45          33.64     2848  34.00765    -118.50015    2018-04-18T16:11:56Z    
4/18/2018    9:11:56    39.20         12.64        0.75      84.50                 4.50          33.64     2849  34.00765    -118.50015    2018-04-18T16:11:56Z    
4/18/2018    9:11:56    39.20         12.64        0.79      84.44                 4.54          33.64     2850  34.00765    -118.50015    2018-04-18T16:11:56Z    
4/18/2018    9:11:57    39.20         12.64        0.82      84.49                 4.55          33.64     2851  34.00765    -118.50015    2018-04-18T16:11:57Z    
4/18/2018    9:11:57    39.20         12.64        0.85      84.48                 4.62          33.64     2852  34.00765    -118.50015    2018-04-18T16:11:57Z    
4/18/2018    9:11:57    39.20         12.64        0.87      84.48                 4.60          33.64     2853  34.00765    -118.50015    2018-04-18T16:11:57Z    
4/18/2018    9:11:57    39.20         12.64        0.87      84.48                 4.45          33.64     2854  34.00765    -118.50015    2018-04-18T16:11:57Z    
4/18/2018    9:11:57    39.20         12.64        0.87      84.53                 4.33          33.64     2855  34.00765    -118.50015    2018-04-18T16:11:57Z    
4/18/2018    9:11:57    39.20         12.64        0.85      84.53                 4.25          33.64     2856  34.00765    -118.50015    2018-04-18T16:11:57Z    
4/18/2018    9:11:58    39.20         12.64        0.84      84.53                 4.19          33.64     2857  34.00765    -118.50015    2018-04-18T16:11:58Z    
4/18/2018    9:11:58    39.20         12.64        0.81      84.56                 4.25          33.64     2858  34.00765    -118.50015    2018-04-18T16:11:58Z    
4/18/2018    9:11:58    39.20         12.64        0.79      84.52                 4.35          33.64     2859  34.00765    -118.50015    2018-04-18T16:11:58Z    
4/18/2018    9:11:58    39.20         12.64        0.76      84.50                 4.54          33.64     2860  34.00765    -118.50015    2018-04-18T16:11:58Z    
4/18/2018    9:11:58    39.20         12.64        0.74      84.48                 4.59          33.64     2861  34.00765    -118.50015    2018-04-18T16:11:58Z    
4/18/2018    9:11:58    39.20         12.64        0.74      84.51                 4.66          33.64     2862  34.00765    -118.50015    2018-04-18T16:11:58Z    
4/18/2018    9:11:59    39.20         12.64        0.73      84.51                 4.62          33.64     2863  34.00765    -118.50015    2018-04-18T16:11:59Z    
4/18/2018    9:11:59    39.20         12.64        0.75      84.50                 4.58          33.64     2864  34.00765    -118.50015    2018-04-18T16:11:59Z    
4/18/2018    9:11:59    39.20         12.64        0.78      84.46                 4.68          33.64     2865  34.00765    -118.50015    2018-04-18T16:11:59Z    
4/18/2018    9:11:59    39.20         12.64        0.81      84.46                 4.67          33.64     2866  34.00765    -118.50015    2018-04-18T16:11:59Z    
4/18/2018    9:11:59    39.20         12.64        0.85      84.48                 4.97          33.64     2867  34.00765    -118.50015    2018-04-18T16:11:59Z    
4/18/2018    9:11:59    39.20         12.64        0.89      84.50                 5.02          33.64     2868  34.00765    -118.50015    2018-04-18T16:11:59Z    
4/18/2018    9:12:00    39.20         12.64        0.92      84.51                 4.88          33.64     2869  34.00765    -118.50015    2018-04-18T16:12:00Z    
4/18/2018    9:12:00    39.20         12.64        0.94      84.46                 4.80          33.64     2870  34.00765    -118.50015    2018-04-18T16:12:00Z    
4/18/2018    9:12:00    39.20         12.64        0.96      84.49                 4.80          33.64     2871  34.00765    -118.50015    2018-04-18T16:12:00Z    
4/18/2018    9:12:00    39.20         12.64        0.96      84.48                 4.73          33.64     2872  34.00765    -118.50015    2018-04-18T16:12:00Z    
4/18/2018    9:12:00    39.20         12.64        0.96      84.47                 4.75          33.64     2873  34.00765    -118.50015    2018-04-18T16:12:00Z    
4/18/2018    9:12:00    39.20         12.64        0.95      84.49                 4.70          33.64     2874  34.00765    -118.50015    2018-04-18T16:12:00Z    
4/18/2018    9:12:01    39.20         12.64        0.92      84.50                 4.69          33.64     2875  34.00765    -118.50015    2018-04-18T16:12:01Z    
4/18/2018    9:12:01    39.20         12.64        0.91      84.48                 4.95          33.64     2876  34.00765    -118.50015    2018-04-18T16:12:01Z    
4/18/2018    9:12:01    39.20         12.64        0.90      84.43                 5.17          33.64     2877  34.00765    -118.50015    2018-04-18T16:12:01Z    
4/18/2018    9:12:01    39.20         12.64        0.90      84.43                 5.17          33.64     2878  34.00765    -118.50015    2018-04-18T16:12:01Z    
4/18/2018    9:12:01    39.20         12.64        0.90      84.43                 5.17          33.64     2879  34.00765    -118.50015    2018-04-18T16:12:01Z    
4/18/2018    9:12:01    39.20         12.64        0.92      84.50                 4.83          33.64     2880  34.00765    -118.50015    2018-04-18T16:12:01Z    
4/18/2018    9:12:02    39.20         12.64        0.93      84.51                 4.75          33.64     2881  34.00765    -118.50015    2018-04-18T16:12:02Z    
4/18/2018    9:12:02    39.20         12.64        0.94      84.50                 4.65          33.64     2882  34.00765    -118.50015    2018-04-18T16:12:02Z    
4/18/2018    9:12:02    39.20         12.64        0.95      84.47                 4.59          33.64     2883  34.00765    -118.50015    2018-04-18T16:12:02Z    
4/18/2018    9:12:02    39.20         12.64        0.94      84.47                 4.53          33.64     2884  34.00765    -118.50015    2018-04-18T16:12:02Z    
4/18/2018    9:12:02    39.20         12.64        0.95      84.50                 4.50          33.64     2885  34.00765    -118.50015    2018-04-18T16:12:02Z    
4/18/2018    9:12:02    39.20         12.64        0.94      84.43                 4.49          33.64     2886  34.00765    -118.50015    2018-04-18T16:12:02Z    
4/18/2018    9:12:03    39.20         12.64        0.93      84.48                 4.51          33.64     2887  34.00765    -118.50015    2018-04-18T16:12:03Z    
4/18/2018    9:12:03    39.20         12.64        0.91      84.53                 4.63          33.64     2888  34.00765    -118.50015    2018-04-18T16:12:03Z    
4/18/2018    9:12:03    39.20         12.64        0.90      84.49                 4.58          33.64     2889  34.00765    -118.50015    2018-04-18T16:12:03Z    
4/18/2018    9:12:03    39.20         12.64        0.88      84.44                 4.63          33.64     2890  34.00765    -118.50015    2018-04-18T16:12:03Z    
4/18/2018    9:12:03    39.20         12.64        0.86      84.45                 4.60          33.64     2891  34.00765    -118.50015    2018-04-18T16:12:03Z    
4/18/2018    9:12:03    39.20         12.64        0.83      84.49                 4.62          33.64     2892  34.00765    -118.50015    2018-04-18T16:12:03Z    
4/18/2018    9:12:04    39.20         12.64        0.80      84.46                 4.66          33.64     2893  34.00765    -118.50015    2018-04-18T16:12:04Z    
4/18/2018    9:12:04    39.20         12.64        0.79      84.45                 4.76          33.64     2894  34.00765    -118.50015    2018-04-18T16:12:04Z    
4/18/2018    9:12:04    39.20         12.64        0.77      84.47                 4.77          33.64     2895  34.00765    -118.50015    2018-04-18T16:12:04Z    
4/18/2018    9:12:04    39.20         12.64        0.77      84.46                 4.70          33.64     2896  34.00765    -118.50015    2018-04-18T16:12:04Z    
4/18/2018    9:12:04    39.20         12.64        0.76      84.45                 4.60          33.64     2897  34.00765    -118.50015    2018-04-18T16:12:04Z    
4/18/2018    9:12:04    39.20         12.64        0.78      84.50                 4.55          33.64     2898  34.00765    -118.50015    2018-04-18T16:12:04Z    
4/18/2018    9:12:05    39.20         12.64        0.81      84.47                 4.51          33.64     2899  34.00765    -118.50015    2018-04-18T16:12:05Z    
4/18/2018    9:12:05    39.20         12.64        0.86      84.46                 4.56          33.64     2900  34.00765    -118.50015    2018-04-18T16:12:05Z    
4/18/2018    9:12:05    39.20         12.64        0.89      84.48                 4.55          33.64     2901  34.00765    -118.50015    2018-04-18T16:12:05Z    
4/18/2018    9:12:05    39.20         12.64        0.92      84.44                 4.47          33.64     2902  34.00765    -118.50015    2018-04-18T16:12:05Z    
4/18/2018    9:12:05    39.20         12.64        0.94      84.45                 4.38          33.64     2903  34.00765    -118.50015    2018-04-18T16:12:05Z    
4/18/2018    9:12:05    39.20         12.64        0.95      84.44                 4.25          33.64     2904  34.00765    -118.50015    2018-04-18T16:12:05Z    
4/18/2018    9:12:06    39.20         12.64        0.95      84.46                 4.18          33.64     2905  34.00765    -118.50015    2018-04-18T16:12:06Z    
4/18/2018    9:12:06    39.20         12.64        0.93      84.48                 4.15          33.64     2906  34.00765    -118.50015    2018-04-18T16:12:06Z    
4/18/2018    9:12:06    39.20         12.64        0.90      84.52                 4.18          33.64     2907  34.00765    -118.50015    2018-04-18T16:12:06Z    
4/18/2018    9:12:06    39.20         12.64        0.86      84.48                 4.20          33.64     2908  34.00765    -118.50015    2018-04-18T16:12:06Z    
4/18/2018    9:12:06    39.20         12.64        0.81      84.47                 4.41          33.64     2909  34.00765    -118.50015    2018-04-18T16:12:06Z    
4/18/2018    9:12:06    39.20         12.64        0.78      84.45                 4.50          33.64     2910  34.00765    -118.50015    2018-04-18T16:12:06Z    
4/18/2018    9:12:07    39.20         12.64        0.73      84.43                 4.55          33.64     2911  34.00765    -118.50015    2018-04-18T16:12:07Z    
4/18/2018    9:12:07    39.20         12.64        0.70      84.43                 4.69          33.64     2912  34.00765    -118.50015    2018-04-18T16:12:07Z    
4/18/2018    9:12:07    39.20         12.64        0.68      84.44                 4.91          33.64     2913  34.00765    -118.50015    2018-04-18T16:12:07Z    
4/18/2018    9:12:07    39.20         12.64        0.64      84.43                 4.92          33.64     2914  34.00765    -118.50015    2018-04-18T16:12:07Z    
4/18/2018    9:12:07    39.20         12.64        0.62      84.45                 4.97          33.64     2915  34.00765    -118.50015    2018-04-18T16:12:07Z    
4/18/2018    9:12:07    39.20         12.64        0.61      84.47                 4.95          33.64     2916  34.00765    -118.50015    2018-04-18T16:12:07Z    
4/18/2018    9:12:08    39.20         12.64        0.60      84.47                 4.87          33.64     2917  34.00765    -118.50015    2018-04-18T16:12:08Z    
4/18/2018    9:12:08    39.20         12.64        0.60      84.41                 4.88          33.64     2918  34.00765    -118.50015    2018-04-18T16:12:08Z    
4/18/2018    9:12:08    39.20         12.64        0.61      84.42                 4.89          33.64     2919  34.00765    -118.50015    2018-04-18T16:12:08Z    
4/18/2018    9:12:08    39.20         12.64        0.61      84.46                 4.95          33.64     2920  34.00765    -118.50015    2018-04-18T16:12:08Z    
4/18/2018    9:12:08    39.20         12.64        0.62      84.44                 4.89          33.64     2921  34.00765    -118.50015    2018-04-18T16:12:08Z    
4/18/2018    9:12:08    39.20         12.64        0.62      84.45                 4.80          33.64     2922  34.00765    -118.50015    2018-04-18T16:12:08Z    
4/18/2018    9:12:09    39.20         12.64        0.62      84.44                 4.76          33.64     2923  34.00765    -118.50015    2018-04-18T16:12:09Z    
4/18/2018    9:12:09    39.20         12.64        0.62      84.41                 4.81          33.64     2924  34.00765    -118.50015    2018-04-18T16:12:09Z    
4/18/2018    9:12:09    39.20         12.64        0.63      84.45                 4.80          33.64     2925  34.00765    -118.50015    2018-04-18T16:12:09Z    
4/18/2018    9:12:09    39.20         12.64        0.64      84.43                 4.76          33.64     2926  34.00765    -118.50015    2018-04-18T16:12:09Z    
4/18/2018    9:12:09    39.20         12.64        0.65      84.46                 4.73          33.64     2927  34.00765    -118.50015    2018-04-18T16:12:09Z    
4/18/2018    9:12:09    39.20         12.64        0.63      84.43                 4.76          33.64     2928  34.00765    -118.50015    2018-04-18T16:12:09Z    
4/18/2018    9:12:10    39.20         12.64        0.62      84.43                 4.87          33.64     2929  34.00765    -118.50015    2018-04-18T16:12:10Z    
4/18/2018    9:12:10    39.20         12.64        0.62      84.43                 5.14          33.64     2930  34.00765    -118.50015    2018-04-18T16:12:10Z    
4/18/2018    9:12:10    39.20         12.64        0.61      84.49                 5.15          33.64     2931  34.00765    -118.50015    2018-04-18T16:12:10Z    
4/18/2018    9:12:10    39.20         12.64        0.62      84.46                 5.00          33.64     2932  34.00765    -118.50015    2018-04-18T16:12:10Z    
4/18/2018    9:12:10    39.20         12.64        0.62      84.50                 4.92          33.64     2933  34.00765    -118.50015    2018-04-18T16:12:10Z    
4/18/2018    9:12:10    39.20         12.64        0.61      84.48                 4.80          33.64     2934  34.00765    -118.50015    2018-04-18T16:12:10Z    
4/18/2018    9:12:11    39.20         12.64        0.63      84.44                 4.68          33.64     2935  34.00765    -118.50015    2018-04-18T16:12:11Z    
4/18/2018    9:12:11    39.20         12.64        0.64      84.48                 4.64          33.64     2936  34.00765    -118.50015    2018-04-18T16:12:11Z    
4/18/2018    9:12:11    39.20         12.64        0.64      84.49                 4.61          33.64     2937  34.00765    -118.50015    2018-04-18T16:12:11Z    
4/18/2018    9:12:11    39.20         12.64        0.67      84.45                 4.71          33.64     2938  34.00765    -118.50015    2018-04-18T16:12:11Z    
4/18/2018    9:12:11    39.20         12.64        0.69      84.45                 4.80          33.64     2939  34.00765    -118.50015    2018-04-18T16:12:11Z    
4/18/2018    9:12:11    39.20         12.64        0.70      84.46                 5.06          33.64     2940  34.00765    -118.50015    2018-04-18T16:12:11Z    
4/18/2018    9:12:12    39.20         12.64        0.74      84.45                 5.02          33.64     2941  34.00765    -118.50015    2018-04-18T16:12:12Z    
4/18/2018    9:12:12    39.19         12.64        0.78      84.47                 4.87          33.64     2942  34.00765    -118.50015    2018-04-18T16:12:12Z    
4/18/2018    9:12:12    39.20         12.64        0.83      84.49                 4.81          33.64     2943  34.00765    -118.50015    2018-04-18T16:12:12Z    
4/18/2018    9:12:12    39.19         12.64        0.87      84.49                 4.83          33.64     2944  34.00765    -118.50015    2018-04-18T16:12:12Z    
4/18/2018    9:12:12    39.19         12.64        0.91      84.47                 4.80          33.64     2945  34.00765    -118.50015    2018-04-18T16:12:12Z    
4/18/2018    9:12:12    39.19         12.64        0.94      84.47                 4.77          33.64     2946  34.00765    -118.50015    2018-04-18T16:12:12Z    
4/18/2018    9:12:13    39.19         12.63        0.96      84.42                 4.67          33.64     2947  34.00765    -118.50015    2018-04-18T16:12:13Z    
4/18/2018    9:12:13    39.19         12.63        0.96      84.49                 4.75          33.65     2948  34.00765    -118.50015    2018-04-18T16:12:13Z    
4/18/2018    9:12:13    39.19         12.63        0.97      84.45                 4.82          33.65     2949  34.00765    -118.50015    2018-04-18T16:12:13Z    
4/18/2018    9:12:13    39.19         12.62        0.97      84.44                 4.69          33.65     2950  34.00765    -118.50015    2018-04-18T16:12:13Z    
4/18/2018    9:12:13    39.19         12.62        0.95      84.45                 4.83          33.65     2951  34.00765    -118.50015    2018-04-18T16:12:13Z    
4/18/2018    9:12:13    39.19         12.62        0.95      84.44                 5.00          33.65     2952  34.00765    -118.50015    2018-04-18T16:12:13Z    
4/18/2018    9:12:14    39.19         12.63        0.95      84.45                 5.07          33.65     2953  34.00765    -118.50015    2018-04-18T16:12:14Z    
4/18/2018    9:12:14    39.19         12.63        0.96      84.44                 5.33          33.64     2954  34.00765    -118.50015    2018-04-18T16:12:14Z    
4/18/2018    9:12:14    39.19         12.63        0.97      84.39                 5.45          33.64     2955  34.00765    -118.50015    2018-04-18T16:12:14Z    
4/18/2018    9:12:14    39.19         12.63        0.98      84.34                 5.39          33.64     2956  34.00765    -118.50015    2018-04-18T16:12:14Z    
4/18/2018    9:12:14    39.19         12.63        1.00      84.34                 5.30          33.64     2957  34.00765    -118.50015    2018-04-18T16:12:14Z    
4/18/2018    9:12:14    39.19         12.63        1.01      84.31                 5.20          33.64     2958  34.00765    -118.50015    2018-04-18T16:12:14Z    
4/18/2018    9:12:15    39.19         12.62        1.01      84.31                 5.00          33.64     2959  34.00765    -118.50015    2018-04-18T16:12:15Z    
4/18/2018    9:12:15    39.19         12.62        1.01      84.28                 5.02          33.65     2960  34.00765    -118.50015    2018-04-18T16:12:15Z    
4/18/2018    9:12:15    39.19         12.62        1.01      84.22                 5.24          33.65     2961  34.00765    -118.50015    2018-04-18T16:12:15Z    
4/18/2018    9:12:15    39.19         12.62        1.00      84.19                 5.21          33.64     2962  34.00765    -118.50015    2018-04-18T16:12:15Z    
4/18/2018    9:12:15    39.19         12.63        1.00      84.20                 5.03          33.64     2963  34.00765    -118.50015    2018-04-18T16:12:15Z    
4/18/2018    9:12:15    39.19         12.63        0.98      84.20                 4.80          33.64     2964  34.00765    -118.50015    2018-04-18T16:12:15Z    
4/18/2018    9:12:16    39.19         12.63        0.99      84.19                 4.69          33.64     2965  34.00765    -118.50015    2018-04-18T16:12:16Z    
4/18/2018    9:12:16    39.19         12.63        0.97      84.20                 4.63          33.64     2966  34.00765    -118.50015    2018-04-18T16:12:16Z    
4/18/2018    9:12:16    39.19         12.63        0.98      84.16                 4.56          33.64     2967  34.00765    -118.50015    2018-04-18T16:12:16Z    
4/18/2018    9:12:16    39.19         12.63        0.96      84.16                 4.47          33.64     2968  34.00765    -118.50015    2018-04-18T16:12:16Z    
4/18/2018    9:12:16    39.19         12.63        0.96      84.15                 4.36          33.64     2969  34.00765    -118.50015    2018-04-18T16:12:16Z    
4/18/2018    9:12:16    39.19         12.63        0.94      84.15                 4.58          33.64     2970  34.00765    -118.50015    2018-04-18T16:12:16Z    
4/18/2018    9:12:17    39.19         12.63        0.92      84.21                 4.66          33.64     2971  34.00765    -118.50015    2018-04-18T16:12:17Z    
4/18/2018    9:12:17    39.20         12.64        0.92      84.18                 4.69          33.64     2972  34.00765    -118.50015    2018-04-18T16:12:17Z    
4/18/2018    9:12:17    39.20         12.63        0.91      84.15                 4.81          33.64     2973  34.00765    -118.50015    2018-04-18T16:12:17Z    
4/18/2018    9:12:17    39.20         12.63        0.90      84.17                 5.01          33.64     2974  34.00765    -118.50015    2018-04-18T16:12:17Z    
4/18/2018    9:12:17    39.20         12.63        0.87      84.23                 5.23          33.64     2975  34.00765    -118.50015    2018-04-18T16:12:17Z    
4/18/2018    9:12:17    39.20         12.63        0.85      84.24                 5.25          33.64     2976  34.00765    -118.50015    2018-04-18T16:12:17Z    
4/18/2018    9:12:18    39.20         12.63        0.84      84.23                 5.22          33.64     2977  34.00765    -118.50015    2018-04-18T16:12:18Z    
4/18/2018    9:12:18    39.20         12.63        0.84      84.26                 5.21          33.64     2978  34.00765    -118.50015    2018-04-18T16:12:18Z    
4/18/2018    9:12:18    39.20         12.63        0.84      84.30                 5.16          33.64     2979  34.00765    -118.50015    2018-04-18T16:12:18Z    
4/18/2018    9:12:18    39.20         12.64        0.85      84.28                 4.99          33.64     2980  34.00765    -118.50015    2018-04-18T16:12:18Z    
4/18/2018    9:12:18    39.20         12.64        0.86      84.29                 4.89          33.64     2981  34.00765    -118.50015    2018-04-18T16:12:18Z    
4/18/2018    9:12:18    39.20         12.64        0.87      84.29                 5.16          33.64     2982  34.00765    -118.50015    2018-04-18T16:12:18Z    
4/18/2018    9:12:19    39.20         12.64        0.85      84.32                 5.37          33.64     2983  34.00765    -118.50015    2018-04-18T16:12:19Z    
4/18/2018    9:12:19    39.20         12.64        0.84      84.33                 5.62          33.64     2984  34.00765    -118.50015    2018-04-18T16:12:19Z    
4/18/2018    9:12:19    39.20         12.64        0.81      84.33                 5.72          33.64     2985  34.00765    -118.50015    2018-04-18T16:12:19Z    
4/18/2018    9:12:19    39.20         12.64        0.76      84.34                 5.73          33.64     2986  34.00765    -118.50015    2018-04-18T16:12:19Z    
4/18/2018    9:12:19    39.20         12.64        0.71      84.36                 5.57          33.64     2987  34.00765    -118.50015    2018-04-18T16:12:19Z    
4/18/2018    9:12:19    39.20         12.64        0.63      84.34                 5.36          33.64     2988  34.00765    -118.50015    2018-04-18T16:12:19Z    
4/18/2018    9:12:20    39.20         12.64        0.57      84.36                 5.13          33.64     2989  34.00765    -118.50015    2018-04-18T16:12:20Z    
4/18/2018    9:12:20    39.20         12.64        0.51      84.40                 5.07          33.64     2990  34.00765    -118.50015    2018-04-18T16:12:20Z    
4/18/2018    9:12:20    39.20         12.64        0.44      84.38                 4.93          33.64     2991  34.00765    -118.50015    2018-04-18T16:12:20Z    
4/18/2018    9:12:20    39.20         12.64        0.41      84.38                 4.92          33.64     2992  34.00765    -118.50015    2018-04-18T16:12:20Z    
4/18/2018    9:12:20    39.20         12.64        0.40      84.39                 4.83          33.64     2993  34.00765    -118.50015    2018-04-18T16:12:20Z    
4/18/2018    9:12:20    39.20         12.64        0.41      84.38                 4.75          33.64     2994  34.00765    -118.50015    2018-04-18T16:12:20Z    
4/18/2018    9:12:21    39.20         12.63        0.41      84.41                 4.67          33.65     2995  34.00765    -118.50015    2018-04-18T16:12:21Z    
4/18/2018    9:12:21    39.20         12.64        0.41      84.38                 4.60          33.64     2996  34.00765    -118.50015    2018-04-18T16:12:21Z    
4/18/2018    9:12:21    39.20         12.64        0.41      84.40                 4.53          33.64     2997  34.00765    -118.50015    2018-04-18T16:12:21Z    
4/18/2018    9:12:21    39.20         12.64        0.44      84.41                 4.54          33.64     2998  34.00765    -118.50015    2018-04-18T16:12:21Z    
4/18/2018    9:12:21    39.20         12.63        0.50      84.41                 4.57          33.65     2999  34.00765    -118.50015    2018-04-18T16:12:21Z    
4/21/2018    9:14:48    41.01         14.60        0.72      113.66                13.59         33.61     1000  34.00765    -118.50015    2018-04-21T16:14:48Z    
4/21/2018    9:14:48    41.01         14.60        0.78      113.58                13.57         33.61     1001  34.00765    -118.50015    2018-04-21T16:14:48Z    
4/21/2018    9:14:48    41.01         14.60        0.84      113.67                14.13         33.61     1002  34.00765    -118.50015    2018-04-21T16:14:48Z    
4/21/2018    9:14:49    41.00         14.60        0.91      113.69                14.73         33.61     1003  34.00765    -118.50015    2018-04-21T16:14:49Z    
4/21/2018    9:14:49    40.99         14.59        0.96      113.61                14.66         33.60     1004  34.00765    -118.50015    2018-04-21T16:14:49Z    
4/21/2018    9:14:49    40.99         14.59        1.01      113.71                14.52         33.60     1005  34.00765    -118.50015    2018-04-21T16:14:49Z    
4/21/2018    9:14:49    41.00         14.59        1.05      113.65                14.62         33.61     1006  34.00765    -118.50015    2018-04-21T16:14:49Z    
4/21/2018    9:14:49    41.01         14.59        1.08      113.62                15.04         33.62     1007  34.00765    -118.50015    2018-04-21T16:14:49Z    
4/21/2018    9:14:49    41.01         14.58        1.09      113.62                15.82         33.62     1008  34.00765    -118.50015    2018-04-21T16:14:49Z    
4/21/2018    9:14:50    41.01         14.58        1.10      113.55                16.34         33.62     1009  34.00765    -118.50015    2018-04-21T16:14:50Z    
4/21/2018    9:14:50    41.00         14.58        1.09      113.53                16.22         33.62     1010  34.00765    -118.50015    2018-04-21T16:14:50Z    
4/21/2018    9:14:50    41.01         14.59        1.08      113.53                15.69         33.62     1011  34.00765    -118.50015    2018-04-21T16:14:50Z    
4/21/2018    9:14:50    41.01         14.59        1.08      113.57                15.16         33.61     1012  34.00765    -118.50015    2018-04-21T16:14:50Z    
4/21/2018    9:14:50    41.01         14.59        1.08      113.55                14.89         33.61     1013  34.00765    -118.50015    2018-04-21T16:14:50Z    
4/21/2018    9:14:50    41.01         14.59        1.07      113.52                14.64         33.62     1014  34.00765    -118.50015    2018-04-21T16:14:50Z    
4/21/2018    9:14:51    41.01         14.59        1.08      113.53                14.43         33.62     1015  34.00765    -118.50015    2018-04-21T16:14:51Z    
4/21/2018    9:14:51    41.01         14.59        1.08      113.58                14.47         33.62     1016  34.00765    -118.50015    2018-04-21T16:14:51Z    
4/21/2018    9:14:51    41.01         14.59        1.08      113.58                14.47         33.62     1017  34.00765    -118.50015    2018-04-21T16:14:51Z    
4/21/2018    9:14:51    41.01         14.59        1.08      113.50                14.47         33.62     1018  34.00765    -118.50015    2018-04-21T16:14:51Z    
4/21/2018    9:14:51    41.01         14.59        1.06      113.55                14.44         33.62     1019  34.00765    -118.50015    2018-04-21T16:14:51Z    
4/21/2018    9:14:51    41.01         14.59        1.03      113.53                14.84         33.62     1020  34.00765    -118.50015    2018-04-21T16:14:51Z    
4/21/2018    9:14:52    41.01         14.59        1.01      113.42                15.97         33.62     1021  34.00765    -118.50015    2018-04-21T16:14:52Z    
4/21/2018    9:14:52    41.02         14.59        1.00      113.53                16.14         33.62     1022  34.00765    -118.50015    2018-04-21T16:14:52Z    
4/21/2018    9:14:52    41.02         14.59        0.99      113.50                15.95         33.62     1023  34.00765    -118.50015    2018-04-21T16:14:52Z    
4/21/2018    9:14:52    41.02         14.59        0.97      113.53                15.67         33.62     1024  34.00765    -118.50015    2018-04-21T16:14:52Z    
4/21/2018    9:14:52    41.02         14.59        0.95      113.49                15.34         33.62     1025  34.00765    -118.50015    2018-04-21T16:14:52Z    
4/21/2018    9:14:52    41.02         14.59        0.93      113.52                15.04         33.62     1026  34.00765    -118.50015    2018-04-21T16:14:52Z    
4/21/2018    9:14:53    41.01         14.59        0.90      113.52                14.73         33.62     1027  34.00765    -118.50015    2018-04-21T16:14:53Z    
4/21/2018    9:14:53    41.01         14.59        0.87      113.50                14.60         33.62     1028  34.00765    -118.50015    2018-04-21T16:14:53Z    
4/21/2018    9:14:53    41.01         14.59        0.84      113.54                14.55         33.62     1029  34.00765    -118.50015    2018-04-21T16:14:53Z    
4/21/2018    9:14:53    41.01         14.60        0.82      113.43                14.65         33.62     1030  34.00765    -118.50015    2018-04-21T16:14:53Z    
4/21/2018    9:14:53    41.01         14.60        0.83      113.51                14.66         33.61     1031  34.00765    -118.50015    2018-04-21T16:14:53Z    
4/21/2018    9:14:53    41.01         14.60        0.84      113.51                14.50         33.61     1032  34.00765    -118.50015    2018-04-21T16:14:53Z    
4/21/2018    9:14:54    41.02         14.60        0.86      113.49                14.25         33.62     1033  34.00765    -118.50015    2018-04-21T16:14:54Z    
4/21/2018    9:14:54    41.02         14.60        0.88      113.45                13.89         33.62     1034  34.00765    -118.50015    2018-04-21T16:14:54Z    
4/21/2018    9:14:54    41.02         14.60        0.89      113.49                13.73         33.62     1035  34.00765    -118.50015    2018-04-21T16:14:54Z    
4/21/2018    9:14:54    41.02         14.60        0.88      113.56                13.58         33.62     1036  34.00765    -118.50015    2018-04-21T16:14:54Z    
4/21/2018    9:14:54    41.02         14.60        0.87      113.59                13.48         33.62     1037  34.00765    -118.50015    2018-04-21T16:14:54Z    
4/21/2018    9:14:54    41.02         14.60        0.86      113.57                13.71         33.62     1038  34.00765    -118.50015    2018-04-21T16:14:54Z    
4/21/2018    9:14:55    41.02         14.60        0.83      113.55                14.20         33.62     1039  34.00765    -118.50015    2018-04-21T16:14:55Z    
4/21/2018    9:14:55    41.02         14.60        0.80      113.53                14.43         33.62     1040  34.00765    -118.50015    2018-04-21T16:14:55Z    
4/21/2018    9:14:55    41.02         14.60        0.79      113.51                14.29         33.62     1041  34.00765    -118.50015    2018-04-21T16:14:55Z    
4/21/2018    9:14:55    41.02         14.60        0.78      113.60                14.21         33.62     1042  34.00765    -118.50015    2018-04-21T16:14:55Z    
4/21/2018    9:14:55    41.02         14.60        0.78      113.54                14.06         33.62     1043  34.00765    -118.50015    2018-04-21T16:14:55Z    
4/21/2018    9:14:55    41.02         14.60        0.79      113.64                13.96         33.62     1044  34.00765    -118.50015    2018-04-21T16:14:55Z    
4/21/2018    9:14:56    41.02         14.60        0.79      113.63                14.10         33.62     1045  34.00765    -118.50015    2018-04-21T16:14:56Z    
4/21/2018    9:14:56    41.02         14.60        0.81      113.64                14.13         33.62     1046  34.00765    -118.50015    2018-04-21T16:14:56Z    
4/21/2018    9:14:56    41.02         14.60        0.83      113.63                14.11         33.62     1047  34.00765    -118.50015    2018-04-21T16:14:56Z    
4/21/2018    9:14:56    41.02         14.60        0.82      113.62                14.09         33.62     1048  34.00765    -118.50015    2018-04-21T16:14:56Z    
4/21/2018    9:14:56    41.02         14.60        0.82      113.66                14.13         33.62     1049  34.00765    -118.50015    2018-04-21T16:14:56Z    
4/21/2018    9:14:56    41.02         14.60        0.80      113.71                14.13         33.62     1050  34.00765    -118.50015    2018-04-21T16:14:56Z    
4/21/2018    9:14:57    41.02         14.60        0.78      113.66                14.11         33.62     1051  34.00765    -118.50015    2018-04-21T16:14:57Z    
4/21/2018    9:14:57    41.02         14.60        0.77      113.64                14.36         33.62     1052  34.00765    -118.50015    2018-04-21T16:14:57Z    
4/21/2018    9:14:57    41.02         14.60        0.77      113.64                14.37         33.62     1053  34.00765    -118.50015    2018-04-21T16:14:57Z    
4/21/2018    9:14:57    41.03         14.60        0.78      113.66                14.31         33.62     1054  34.00765    -118.50015    2018-04-21T16:14:57Z    
4/21/2018    9:14:57    41.03         14.60        0.79      113.67                14.07         33.62     1055  34.00765    -118.50015    2018-04-21T16:14:57Z    
4/21/2018    9:14:57    41.03         14.60        0.79      113.62                13.81         33.62     1056  34.00765    -118.50015    2018-04-21T16:14:57Z    
4/21/2018    9:14:58    41.03         14.61        0.81      113.71                14.13         33.62     1057  34.00765    -118.50015    2018-04-21T16:14:58Z    
4/21/2018    9:14:58    41.03         14.60        0.82      113.71                14.54         33.62     1058  34.00765    -118.50015    2018-04-21T16:14:58Z    
4/21/2018    9:14:58    41.03         14.60        0.82      113.71                14.35         33.62     1059  34.00765    -118.50015    2018-04-21T16:14:58Z    
4/21/2018    9:14:58    41.02         14.60        0.81      113.66                14.36         33.62     1060  34.00765    -118.50015    2018-04-21T16:14:58Z    
4/21/2018    9:14:58    41.02         14.60        0.81      113.65                14.89         33.62     1061  34.00765    -118.50015    2018-04-21T16:14:58Z    
4/21/2018    9:14:58    41.02         14.60        0.80      113.70                15.03         33.62     1062  34.00765    -118.50015    2018-04-21T16:14:58Z    
4/21/2018    9:14:59    41.02         14.60        0.80      113.70                14.76         33.62     1063  34.00765    -118.50015    2018-04-21T16:14:59Z    
4/21/2018    9:14:59    41.02         14.60        0.81      113.60                14.53         33.62     1064  34.00765    -118.50015    2018-04-21T16:14:59Z    
4/21/2018    9:14:59    41.02         14.60        0.82      113.59                14.41         33.62     1065  34.00765    -118.50015    2018-04-21T16:14:59Z    
4/21/2018    9:14:59    41.02         14.60        0.84      113.59                14.15         33.62     1066  34.00765    -118.50015    2018-04-21T16:14:59Z    
4/21/2018    9:14:59    41.02         14.60        0.86      113.48                13.81         33.62     1067  34.00765    -118.50015    2018-04-21T16:14:59Z    
4/21/2018    9:14:59    41.02         14.60        0.87      113.53                13.88         33.62     1068  34.00765    -118.50015    2018-04-21T16:14:59Z    
4/21/2018    9:15:00    41.01         14.59        0.92      113.55                13.96         33.61     1069  34.00765    -118.50015    2018-04-21T16:15:00Z    
4/21/2018    9:15:00    41.01         14.60        0.96      113.57                13.92         33.61     1070  34.00765    -118.50015    2018-04-21T16:15:00Z    
4/21/2018    9:15:00    41.00         14.59        0.99      113.46                13.86         33.61     1071  34.00765    -118.50015    2018-04-21T16:15:00Z    
4/21/2018    9:15:00    41.00         14.59        1.00      113.51                13.87         33.61     1072  34.00765    -118.50015    2018-04-21T16:15:00Z    
4/21/2018    9:15:00    41.01         14.59        1.02      113.53                13.88         33.62     1073  34.00765    -118.50015    2018-04-21T16:15:00Z    
4/21/2018    9:15:00    41.01         14.59        0.99      113.47                13.99         33.62     1074  34.00765    -118.50015    2018-04-21T16:15:00Z    
4/21/2018    9:15:01    41.01         14.59        0.96      113.52                14.05         33.62     1075  34.00765    -118.50015    2018-04-21T16:15:01Z    
4/21/2018    9:15:01    41.01         14.59        0.92      113.54                14.31         33.62     1076  34.00765    -118.50015    2018-04-21T16:15:01Z    
4/21/2018    9:15:01    41.01         14.59        0.85      113.51                14.59         33.62     1077  34.00765    -118.50015    2018-04-21T16:15:01Z    
4/21/2018    9:15:01    41.01         14.60        0.79      113.51                14.59         33.62     1078  34.00765    -118.50015    2018-04-21T16:15:01Z    
4/21/2018    9:15:01    41.01         14.60        0.79      113.51                14.59         33.62     1079  34.00765    -118.50015    2018-04-21T16:15:01Z    
4/21/2018    9:15:01    41.02         14.60        0.65      113.52                14.24         33.62     1080  34.00765    -118.50015    2018-04-21T16:15:01Z    
4/21/2018    9:15:02    41.02         14.60        0.62      113.47                14.22         33.62     1081  34.00765    -118.50015    2018-04-21T16:15:02Z    
4/21/2018    9:15:02    41.03         14.61        0.60      113.58                13.93         33.62     1082  34.00765    -118.50015    2018-04-21T16:15:02Z    
4/21/2018    9:15:02    41.02         14.61        0.59      113.55                13.69         33.61     1083  34.00765    -118.50015    2018-04-21T16:15:02Z    
4/21/2018    9:15:02    41.02         14.61        0.59      113.63                13.48         33.61     1084  34.00765    -118.50015    2018-04-21T16:15:02Z    
4/21/2018    9:15:02    41.03         14.61        0.64      113.58                13.42         33.61     1085  34.00765    -118.50015    2018-04-21T16:15:02Z    
4/21/2018    9:15:02    41.03         14.62        0.68      113.69                13.50         33.61     1086  34.00765    -118.50015    2018-04-21T16:15:02Z    
4/21/2018    9:15:03    41.03         14.62        0.69      113.67                13.55         33.61     1087  34.00765    -118.50015    2018-04-21T16:15:03Z    
4/21/2018    9:15:03    41.03         14.62        0.72      113.75                13.68         33.61     1088  34.00765    -118.50015    2018-04-21T16:15:03Z    
4/21/2018    9:15:03    41.03         14.62        0.74      113.75                13.78         33.62     1089  34.00765    -118.50015    2018-04-21T16:15:03Z    
4/21/2018    9:15:03    41.03         14.62        0.75      113.75                13.67         33.62     1090  34.00765    -118.50015    2018-04-21T16:15:03Z    
4/21/2018    9:15:03    41.04         14.62        0.77      113.80                13.39         33.62     1091  34.00765    -118.50015    2018-04-21T16:15:03Z    
4/21/2018    9:15:03    41.04         14.63        0.77      113.83                13.14         33.61     1092  34.00765    -118.50015    2018-04-21T16:15:03Z    
4/21/2018    9:15:04    41.04         14.64        0.79      113.80                12.87         33.61     1093  34.00765    -118.50015    2018-04-21T16:15:04Z    
4/21/2018    9:15:04    41.05         14.63        0.81      113.85                13.02         33.62     1094  34.00765    -118.50015    2018-04-21T16:15:04Z    
4/21/2018    9:15:04    41.05         14.65        0.84      113.77                13.38         33.60     1095  34.00765    -118.50015    2018-04-21T16:15:04Z    
4/21/2018    9:15:04    41.04         14.66        0.84      113.80                13.35         33.58     1096  34.00765    -118.50015    2018-04-21T16:15:04Z    
4/21/2018    9:15:04    41.03         14.65        0.87      113.85                13.39         33.59     1097  34.00765    -118.50015    2018-04-21T16:15:04Z    
4/21/2018    9:15:04    41.03         14.64        0.89      113.85                13.73         33.59     1098  34.00765    -118.50015    2018-04-21T16:15:04Z    
4/21/2018    9:15:05    41.03         14.63        0.91      113.90                13.87         33.60     1099  34.00765    -118.50015    2018-04-21T16:15:05Z    
4/21/2018    9:15:05    41.03         14.62        0.90      113.92                13.87         33.61     1100  34.00765    -118.50015    2018-04-21T16:15:05Z    
4/21/2018    9:15:05    41.04         14.63        0.92      113.89                13.83         33.61     1101  34.00765    -118.50015    2018-04-21T16:15:05Z    
4/21/2018    9:15:05    41.04         14.62        0.91      113.99                13.64         33.62     1102  34.00765    -118.50015    2018-04-21T16:15:05Z    
4/21/2018    9:15:05    41.04         14.62        0.90      113.92                13.39         33.62     1103  34.00765    -118.50015    2018-04-21T16:15:05Z    
4/21/2018    9:15:05    41.04         14.62        0.89      113.95                13.20         33.62     1104  34.00765    -118.50015    2018-04-21T16:15:05Z    
4/21/2018    9:15:06    41.04         14.62        0.85      113.91                13.34         33.61     1105  34.00765    -118.50015    2018-04-21T16:15:06Z    
4/21/2018    9:15:06    41.03         14.62        0.83      113.92                13.75         33.61     1106  34.00765    -118.50015    2018-04-21T16:15:06Z    
4/21/2018    9:15:06    41.03         14.62        0.82      113.91                14.41         33.61     1107  34.00765    -118.50015    2018-04-21T16:15:06Z    
4/21/2018    9:15:06    41.04         14.62        0.80      113.84                14.80         33.61     1108  34.00765    -118.50015    2018-04-21T16:15:06Z    
4/21/2018    9:15:06    41.04         14.62        0.79      113.88                14.94         33.62     1109  34.00765    -118.50015    2018-04-21T16:15:06Z    
4/21/2018    9:15:06    41.03         14.62        0.78      113.84                14.87         33.61     1110  34.00765    -118.50015    2018-04-21T16:15:06Z    
4/21/2018    9:15:07    41.03         14.62        0.80      113.75                14.68         33.61     1111  34.00765    -118.50015    2018-04-21T16:15:07Z    
4/21/2018    9:15:07    41.03         14.62        0.83      113.75                14.13         33.61     1112  34.00765    -118.50015    2018-04-21T16:15:07Z    
4/21/2018    9:15:07    41.02         14.64        0.85      113.74                13.73         33.59     1113  34.00765    -118.50015    2018-04-21T16:15:07Z    
4/21/2018    9:15:07    41.02         14.62        0.88      113.78                13.51         33.59     1114  34.00765    -118.50015    2018-04-21T16:15:07Z    
4/21/2018    9:15:07    41.01         14.62        0.90      113.84                13.34         33.60     1115  34.00765    -118.50015    2018-04-21T16:15:07Z    
4/21/2018    9:15:07    41.02         14.62        0.89      113.84                13.52         33.60     1116  34.00765    -118.50015    2018-04-21T16:15:07Z    
4/21/2018    9:15:08    41.03         14.63        0.89      113.87                13.24         33.61     1117  34.00765    -118.50015    2018-04-21T16:15:08Z    
4/21/2018    9:15:08    41.04         14.62        0.88      113.95                12.93         33.61     1118  34.00765    -118.50015    2018-04-21T16:15:08Z    
4/21/2018    9:15:08    41.04         14.63        0.84      113.85                12.94         33.61     1119  34.00765    -118.50015    2018-04-21T16:15:08Z    
4/21/2018    9:15:08    41.04         14.63        0.83      113.99                13.13         33.61     1120  34.00765    -118.50015    2018-04-21T16:15:08Z    
4/21/2018    9:15:08    41.04         14.63        0.84      113.91                13.21         33.61     1121  34.00765    -118.50015    2018-04-21T16:15:08Z    
4/21/2018    9:15:08    41.03         14.63        0.89      113.97                13.15         33.60     1122  34.00765    -118.50015    2018-04-21T16:15:08Z    
4/21/2018    9:15:09    41.02         14.63        0.92      114.03                13.18         33.59     1123  34.00765    -118.50015    2018-04-21T16:15:09Z    
4/21/2018    9:15:09    41.02         14.63        0.98      114.11                13.21         33.59     1124  34.00765    -118.50015    2018-04-21T16:15:09Z    
4/21/2018    9:15:09    41.02         14.62        1.00      114.11                13.21         33.60     1125  34.00765    -118.50015    2018-04-21T16:15:09Z    
4/21/2018    9:15:09    41.02         14.62        1.02      114.13                13.42         33.61     1126  34.00765    -118.50015    2018-04-21T16:15:09Z    
4/21/2018    9:15:09    41.03         14.62        1.05      114.13                13.55         33.61     1127  34.00765    -118.50015    2018-04-21T16:15:09Z    
4/21/2018    9:15:09    41.03         14.62        1.05      114.26                13.67         33.61     1128  34.00765    -118.50015    2018-04-21T16:15:09Z    
4/21/2018    9:15:10    41.03         14.62        1.04      114.27                13.86         33.61     1129  34.00765    -118.50015    2018-04-21T16:15:10Z    
4/21/2018    9:15:10    41.03         14.62        1.03      114.24                14.07         33.61     1130  34.00765    -118.50015    2018-04-21T16:15:10Z    
4/21/2018    9:15:10    41.03         14.61        1.02      114.21                14.17         33.61     1131  34.00765    -118.50015    2018-04-21T16:15:10Z    
4/21/2018    9:15:10    41.03         14.61        1.01      114.20                14.28         33.61     1132  34.00765    -118.50015    2018-04-21T16:15:10Z    
4/21/2018    9:15:10    41.03         14.62        1.00      114.20                14.33         33.62     1133  34.00765    -118.50015    2018-04-21T16:15:10Z    
4/21/2018    9:15:10    41.03         14.62        1.00      114.19                14.32         33.62     1134  34.00765    -118.50015    2018-04-21T16:15:10Z    
4/21/2018    9:15:11    41.03         14.62        1.01      114.13                14.12         33.61     1135  34.00765    -118.50015    2018-04-21T16:15:11Z    
4/21/2018    9:15:11    41.03         14.61        1.02      114.23                13.91         33.62     1136  34.00765    -118.50015    2018-04-21T16:15:11Z    
4/21/2018    9:15:11    41.03         14.61        1.02      114.23                13.66         33.61     1137  34.00765    -118.50015    2018-04-21T16:15:11Z    
4/21/2018    9:15:11    41.03         14.61        1.04      114.21                13.43         33.61     1138  34.00765    -118.50015    2018-04-21T16:15:11Z    
4/21/2018    9:15:11    41.02         14.62        1.03      114.29                13.28         33.61     1139  34.00765    -118.50015    2018-04-21T16:15:11Z    
4/21/2018    9:15:11    41.03         14.62        1.04      114.25                13.33         33.61     1140  34.00765    -118.50015    2018-04-21T16:15:11Z    
4/21/2018    9:15:12    41.03         14.62        1.04      114.20                13.24         33.61     1141  34.00765    -118.50015    2018-04-21T16:15:12Z    
4/21/2018    9:15:12    41.03         14.62        1.05      114.33                13.20         33.61     1142  34.00765    -118.50015    2018-04-21T16:15:12Z    
4/21/2018    9:15:12    41.03         14.62        1.05      114.23                13.26         33.61     1143  34.00765    -118.50015    2018-04-21T16:15:12Z    
4/21/2018    9:15:12    41.03         14.62        1.04      114.30                13.60         33.61     1144  34.00765    -118.50015    2018-04-21T16:15:12Z    
4/21/2018    9:15:12    41.03         14.62        1.01      114.37                13.83         33.61     1145  34.00765    -118.50015    2018-04-21T16:15:12Z    
4/21/2018    9:15:12    41.03         14.62        0.99      114.35                13.66         33.62     1146  34.00765    -118.50015    2018-04-21T16:15:12Z    
4/21/2018    9:15:13    41.03         14.62        0.97      114.41                13.61         33.62     1147  34.00765    -118.50015    2018-04-21T16:15:13Z    
4/21/2018    9:15:13    41.04         14.62        0.95      114.40                13.83         33.62     1148  34.00765    -118.50015    2018-04-21T16:15:13Z    
4/21/2018    9:15:13    41.04         14.62        0.93      114.31                13.88         33.62     1149  34.00765    -118.50015    2018-04-21T16:15:13Z    
4/21/2018    9:15:13    41.04         14.62        0.90      114.32                13.76         33.62     1150  34.00765    -118.50015    2018-04-21T16:15:13Z    
4/21/2018    9:15:13    41.04         14.62        0.89      114.40                13.55         33.61     1151  34.00765    -118.50015    2018-04-21T16:15:13Z    
4/21/2018    9:15:13    41.03         14.62        0.89      114.36                13.20         33.61     1152  34.00765    -118.50015    2018-04-21T16:15:13Z    
4/21/2018    9:15:14    41.03         14.62        0.90      114.32                13.13         33.61     1153  34.00765    -118.50015    2018-04-21T16:15:14Z    
4/21/2018    9:15:14    41.03         14.63        0.91      114.36                13.30         33.60     1154  34.00765    -118.50015    2018-04-21T16:15:14Z    
4/21/2018    9:15:14    41.03         14.62        0.92      114.40                13.43         33.61     1155  34.00765    -118.50015    2018-04-21T16:15:14Z    
4/21/2018    9:15:14    41.02         14.62        0.92      114.38                13.42         33.60     1156  34.00765    -118.50015    2018-04-21T16:15:14Z    
4/21/2018    9:15:14    41.03         14.62        0.92      114.34                13.49         33.61     1157  34.00765    -118.50015    2018-04-21T16:15:14Z    
4/21/2018    9:15:14    41.03         14.62        0.91      114.38                13.46         33.61     1158  34.00765    -118.50015    2018-04-21T16:15:14Z    
4/21/2018    9:15:15    41.03         14.62        0.90      114.34                13.54         33.61     1159  34.00765    -118.50015    2018-04-21T16:15:15Z    
4/21/2018    9:15:15    41.03         14.61        0.89      114.40                14.00         33.62     1160  34.00765    -118.50015    2018-04-21T16:15:15Z    
4/21/2018    9:15:15    41.03         14.61        0.87      114.27                14.51         33.62     1161  34.00765    -118.50015    2018-04-21T16:15:15Z    
4/21/2018    9:15:15    41.03         14.61        0.87      114.29                14.41         33.62     1162  34.00765    -118.50015    2018-04-21T16:15:15Z    
4/21/2018    9:15:15    41.03         14.62        0.86      114.28                14.28         33.62     1163  34.00765    -118.50015    2018-04-21T16:15:15Z    
4/21/2018    9:15:15    41.03         14.62        0.86      114.30                13.90         33.61     1164  34.00765    -118.50015    2018-04-21T16:15:15Z    
4/21/2018    9:15:16    41.03         14.62        0.87      114.27                13.51         33.61     1165  34.00765    -118.50015    2018-04-21T16:15:16Z    
4/21/2018    9:15:16    41.03         14.62        0.88      114.20                13.19         33.61     1166  34.00765    -118.50015    2018-04-21T16:15:16Z    
4/21/2018    9:15:16    41.03         14.62        0.88      114.20                12.95         33.61     1167  34.00765    -118.50015    2018-04-21T16:15:16Z    
4/21/2018    9:15:16    41.03         14.62        0.89      114.26                12.89         33.61     1168  34.00765    -118.50015    2018-04-21T16:15:16Z    
4/21/2018    9:15:16    41.03         14.62        0.88      114.29                12.99         33.61     1169  34.00765    -118.50015    2018-04-21T16:15:16Z    
4/21/2018    9:15:16    41.03         14.62        0.87      114.21                13.18         33.61     1170  34.00765    -118.50015    2018-04-21T16:15:16Z    
4/21/2018    9:15:17    41.03         14.62        0.84      114.22                13.62         33.61     1171  34.00765    -118.50015    2018-04-21T16:15:17Z    
4/21/2018    9:15:17    41.03         14.61        0.80      114.23                14.04         33.61     1172  34.00765    -118.50015    2018-04-21T16:15:17Z    
4/21/2018    9:15:17    41.04         14.61        0.77      114.17                14.14         33.62     1173  34.00765    -118.50015    2018-04-21T16:15:17Z    
4/21/2018    9:15:17    41.04         14.62        0.73      114.16                13.98         33.62     1174  34.00765    -118.50015    2018-04-21T16:15:17Z    
4/21/2018    9:15:17    41.04         14.62        0.70      114.27                13.71         33.62     1175  34.00765    -118.50015    2018-04-21T16:15:17Z    
4/21/2018    9:15:17    41.03         14.62        0.70      114.20                13.38         33.62     1176  34.00765    -118.50015    2018-04-21T16:15:17Z    
4/21/2018    9:15:18    41.03         14.62        0.72      114.11                13.16         33.61     1177  34.00765    -118.50015    2018-04-21T16:15:18Z    
4/21/2018    9:15:18    41.03         14.62        0.72      114.12                13.00         33.61     1178  34.00765    -118.50015    2018-04-21T16:15:18Z    
4/21/2018    9:15:18    41.03         14.62        0.73      114.09                13.21         33.61     1179  34.00765    -118.50015    2018-04-21T16:15:18Z    
4/21/2018    9:15:18    41.03         14.62        0.73      114.07                13.39         33.61     1180  34.00765    -118.50015    2018-04-21T16:15:18Z    
4/21/2018    9:15:18    41.03         14.62        0.73      114.08                13.50         33.61     1181  34.00765    -118.50015    2018-04-21T16:15:18Z    
4/21/2018    9:15:18    41.04         14.62        0.71      114.14                13.40         33.61     1182  34.00765    -118.50015    2018-04-21T16:15:18Z    
4/21/2018    9:15:19    41.04         14.63        0.69      114.11                13.17         33.61     1183  34.00765    -118.50015    2018-04-21T16:15:19Z    
4/21/2018    9:15:19    41.04         14.63        0.66      114.02                13.36         33.61     1184  34.00765    -118.50015    2018-04-21T16:15:19Z    
4/21/2018    9:15:19    41.05         14.63        0.65      114.01                13.35         33.62     1185  34.00765    -118.50015    2018-04-21T16:15:19Z    
4/21/2018    9:15:19    41.05         14.63        0.65      114.01                13.33         33.62     1186  34.00765    -118.50015    2018-04-21T16:15:19Z    
4/21/2018    9:15:19    41.04         14.64        0.67      113.98                13.21         33.60     1187  34.00765    -118.50015    2018-04-21T16:15:19Z    
4/21/2018    9:15:19    41.04         14.65        0.70      113.96                13.17         33.59     1188  34.00765    -118.50015    2018-04-21T16:15:19Z    
4/21/2018    9:15:20    41.05         14.64        0.75      113.98                13.14         33.61     1189  34.00765    -118.50015    2018-04-21T16:15:20Z    
4/21/2018    9:15:20    41.06         14.64        0.79      114.02                13.10         33.63     1190  34.00765    -118.50015    2018-04-21T16:15:20Z    
4/21/2018    9:15:20    41.07         14.64        0.82      113.99                12.93         33.63     1191  34.00765    -118.50015    2018-04-21T16:15:20Z    
4/21/2018    9:15:20    41.08         14.66        0.86      113.95                12.71         33.62     1192  34.00765    -118.50015    2018-04-21T16:15:20Z    
4/21/2018    9:15:20    41.08         14.66        0.87      113.98                12.50         33.62     1193  34.00765    -118.50015    2018-04-21T16:15:20Z    
4/21/2018    9:15:20    41.06         14.64        0.86      114.03                12.43         33.62     1194  34.00765    -118.50015    2018-04-21T16:15:20Z    
4/21/2018    9:15:21    41.04         14.62        0.85      114.05                12.38         33.62     1195  34.00765    -118.50015    2018-04-21T16:15:21Z    
4/21/2018    9:15:21    41.03         14.62        0.82      114.01                12.28         33.61     1196  34.00765    -118.50015    2018-04-21T16:15:21Z    
4/21/2018    9:15:21    41.03         14.62        0.78      114.06                12.36         33.61     1197  34.00765    -118.50015    2018-04-21T16:15:21Z    
4/21/2018    9:15:21    41.02         14.62        0.75      114.01                12.52         33.60     1198  34.00765    -118.50015    2018-04-21T16:15:21Z    
4/21/2018    9:15:21    41.02         14.63        0.70      113.99                12.56         33.60     1199  34.00765    -118.50015    2018-04-21T16:15:21Z    
4/21/2018    9:15:21    41.03         14.62        0.67      114.01                12.67         33.60     1200  34.00765    -118.50015    2018-04-21T16:15:21Z    
4/21/2018    9:15:22    41.02         14.62        0.66      113.96                12.75         33.61     1201  34.00765    -118.50015    2018-04-21T16:15:22Z    
4/21/2018    9:15:22    41.02         14.63        0.65      113.92                12.79         33.59     1202  34.00765    -118.50015    2018-04-21T16:15:22Z    
4/21/2018    9:15:22    41.02         14.66        0.68      113.91                12.78         33.57     1203  34.00765    -118.50015    2018-04-21T16:15:22Z    
4/21/2018    9:15:22    41.03         14.67        0.71      113.90                12.58         33.56     1204  34.00765    -118.50015    2018-04-21T16:15:22Z    
4/21/2018    9:15:22    41.04         14.66        0.74      113.92                12.47         33.58     1205  34.00765    -118.50015    2018-04-21T16:15:22Z    
4/21/2018    9:15:22    41.07         14.65        0.78      113.98                12.76         33.63     1206  34.00765    -118.50015    2018-04-21T16:15:22Z    
4/21/2018    9:15:23    41.06         14.66        0.83      113.97                12.88         33.61     1207  34.00765    -118.50015    2018-04-21T16:15:23Z    
4/21/2018    9:15:23    41.07         14.66        0.86      113.94                12.93         33.61     1208  34.00765    -118.50015    2018-04-21T16:15:23Z    
4/21/2018    9:15:23    41.07         14.65        0.88      113.94                12.89         33.61     1209  34.00765    -118.50015    2018-04-21T16:15:23Z    
4/21/2018    9:15:23    41.07         14.65        0.90      114.03                12.95         33.62     1210  34.00765    -118.50015    2018-04-21T16:15:23Z    
4/21/2018    9:15:23    41.07         14.65        0.92      114.08                13.13         33.62     1211  34.00765    -118.50015    2018-04-21T16:15:23Z    
4/21/2018    9:15:23    41.06         14.65        0.93      114.13                13.19         33.62     1212  34.00765    -118.50015    2018-04-21T16:15:23Z    
4/21/2018    9:15:24    41.07         14.64        0.93      114.09                13.08         33.62     1213  34.00765    -118.50015    2018-04-21T16:15:24Z    
4/21/2018    9:15:24    41.07         14.64        0.96      114.23                13.16         33.63     1214  34.00765    -118.50015    2018-04-21T16:15:24Z    
4/21/2018    9:15:24    41.07         14.64        0.96      114.25                13.22         33.63     1215  34.00765    -118.50015    2018-04-21T16:15:24Z    
4/21/2018    9:15:24    41.07         14.65        0.98      114.34                13.08         33.62     1216  34.00765    -118.50015    2018-04-21T16:15:24Z    
4/21/2018    9:15:24    41.08         14.68        0.99      114.28                13.11         33.60     1217  34.00765    -118.50015    2018-04-21T16:15:24Z    
4/21/2018    9:15:24    41.08         14.67        0.99      114.33                13.06         33.61     1218  34.00765    -118.50015    2018-04-21T16:15:24Z    
4/21/2018    9:15:25    41.08         14.68        0.99      114.36                13.18         33.60     1219  34.00765    -118.50015    2018-04-21T16:15:25Z    
4/21/2018    9:15:25    41.08         14.69        0.98      114.38                13.59         33.60     1220  34.00765    -118.50015    2018-04-21T16:15:25Z    
4/21/2018    9:15:25    41.09         14.69        0.97      114.41                13.66         33.60     1221  34.00765    -118.50015    2018-04-21T16:15:25Z    
4/21/2018    9:15:25    41.09         14.69        0.97      114.45                13.49         33.60     1222  34.00765    -118.50015    2018-04-21T16:15:25Z    
4/21/2018    9:15:25    41.09         14.69        0.97      114.51                13.62         33.60     1223  34.00765    -118.50015    2018-04-21T16:15:25Z    
4/21/2018    9:15:25    41.08         14.69        0.99      114.54                13.28         33.60     1224  34.00765    -118.50015    2018-04-21T16:15:25Z    
4/21/2018    9:15:26    41.07         14.68        1.01      114.59                13.23         33.60     1225  34.00765    -118.50015    2018-04-21T16:15:26Z    
4/21/2018    9:15:26    41.07         14.67        1.05      114.68                13.09         33.61     1226  34.00765    -118.50015    2018-04-21T16:15:26Z    
4/21/2018    9:15:26    41.07         14.67        1.08      114.75                12.99         33.60     1227  34.00765    -118.50015    2018-04-21T16:15:26Z    
4/21/2018    9:15:26    41.07         14.67        1.12      114.81                13.09         33.61     1228  34.00765    -118.50015    2018-04-21T16:15:26Z    
4/21/2018    9:15:26    41.08         14.66        1.14      114.96                13.30         33.61     1229  34.00765    -118.50015    2018-04-21T16:15:26Z    
4/21/2018    9:15:26    41.08         14.66        1.15      114.94                13.51         33.62     1230  34.00765    -118.50015    2018-04-21T16:15:26Z    
4/21/2018    9:15:27    41.08         14.66        1.17      115.04                13.40         33.62     1231  34.00765    -118.50015    2018-04-21T16:15:27Z    
4/21/2018    9:15:27    41.08         14.66        1.17      115.11                13.24         33.63     1232  34.00765    -118.50015    2018-04-21T16:15:27Z    
4/21/2018    9:15:27    41.08         14.66        1.17      115.19                13.20         33.62     1233  34.00765    -118.50015    2018-04-21T16:15:27Z    
4/21/2018    9:15:27    41.07         14.66        1.16      115.28                13.28         33.62     1234  34.00765    -118.50015    2018-04-21T16:15:27Z    
4/21/2018    9:15:27    41.06         14.65        1.13      115.28                13.21         33.61     1235  34.00765    -118.50015    2018-04-21T16:15:27Z    
4/21/2018    9:15:27    41.06         14.65        1.08      115.31                13.27         33.61     1236  34.00765    -118.50015    2018-04-21T16:15:27Z    
4/21/2018    9:15:28    41.05         14.65        1.05      115.21                13.04         33.61     1237  34.00765    -118.50015    2018-04-21T16:15:28Z    
4/21/2018    9:15:28    41.06         14.65        1.01      115.31                12.62         33.61     1238  34.00765    -118.50015    2018-04-21T16:15:28Z    
4/21/2018    9:15:28    41.06         14.65        0.96      115.21                14.19         33.61     1239  34.00765    -118.50015    2018-04-21T16:15:28Z    
4/21/2018    9:15:28    41.06         14.65        0.92      115.20                15.16         33.61     1240  34.00765    -118.50015    2018-04-21T16:15:28Z    
4/21/2018    9:15:28    41.05         14.65        0.93      115.18                15.21         33.61     1241  34.00765    -118.50015    2018-04-21T16:15:28Z    
4/21/2018    9:15:28    41.05         14.64        0.93      115.19                14.77         33.61     1242  34.00765    -118.50015    2018-04-21T16:15:28Z    
4/21/2018    9:15:29    41.04         14.64        0.95      115.10                14.16         33.61     1243  34.00765    -118.50015    2018-04-21T16:15:29Z    
4/21/2018    9:15:29    41.04         14.64        1.00      115.10                13.70         33.60     1244  34.00765    -118.50015    2018-04-21T16:15:29Z    
4/21/2018    9:15:29    41.05         14.64        1.02      115.02                13.30         33.61     1245  34.00765    -118.50015    2018-04-21T16:15:29Z    
4/21/2018    9:15:29    41.05         14.64        1.04      114.99                13.25         33.61     1246  34.00765    -118.50015    2018-04-21T16:15:29Z    
4/21/2018    9:15:29    41.06         14.64        1.05      114.98                13.13         33.62     1247  34.00765    -118.50015    2018-04-21T16:15:29Z    
4/21/2018    9:15:29    41.06         14.66        1.05      114.94                12.89         33.61     1248  34.00765    -118.50015    2018-04-21T16:15:29Z    
4/21/2018    9:15:30    41.07         14.66        1.04      114.95                12.68         33.61     1249  34.00765    -118.50015    2018-04-21T16:15:30Z    
4/21/2018    9:15:30    41.07         14.67        1.01      114.84                12.54         33.60     1250  34.00765    -118.50015    2018-04-21T16:15:30Z    
4/21/2018    9:15:30    41.07         14.67        0.98      114.91                12.75         33.60     1251  34.00765    -118.50015    2018-04-21T16:15:30Z    
4/21/2018    9:15:30    41.07         14.67        0.97      114.94                12.60         33.60     1252  34.00765    -118.50015    2018-04-21T16:15:30Z    
4/21/2018    9:15:30    41.07         14.67        0.94      114.87                12.41         33.61     1253  34.00765    -118.50015    2018-04-21T16:15:30Z    
4/21/2018    9:15:30    41.07         14.66        0.89      114.93                12.51         33.61     1254  34.00765    -118.50015    2018-04-21T16:15:30Z    
4/21/2018    9:15:31    41.07         14.65        0.84      114.97                12.68         33.62     1255  34.00765    -118.50015    2018-04-21T16:15:31Z    
4/21/2018    9:15:31    41.06         14.65        0.78      114.84                12.73         33.61     1256  34.00765    -118.50015    2018-04-21T16:15:31Z    
4/21/2018    9:15:31    41.06         14.65        0.72      114.82                12.77         33.61     1257  34.00765    -118.50015    2018-04-21T16:15:31Z    
4/21/2018    9:15:31    41.06         14.65        0.67      114.83                12.73         33.62     1258  34.00765    -118.50015    2018-04-21T16:15:31Z    
4/21/2018    9:15:31    41.06         14.64        0.65      114.85                12.61         33.62     1259  34.00765    -118.50015    2018-04-21T16:15:31Z    
4/21/2018    9:15:31    41.06         14.64        0.67      114.80                12.49         33.62     1260  34.00765    -118.50015    2018-04-21T16:15:31Z    
4/21/2018    9:15:32    41.06         14.64        0.72      114.76                12.45         33.62     1261  34.00765    -118.50015    2018-04-21T16:15:32Z    
4/21/2018    9:15:32    41.06         14.65        0.75      114.77                12.57         33.61     1262  34.00765    -118.50015    2018-04-21T16:15:32Z    
4/21/2018    9:15:32    41.06         14.65        0.80      114.64                12.78         33.61     1263  34.00765    -118.50015    2018-04-21T16:15:32Z    
4/21/2018    9:15:32    41.07         14.65        0.83      114.62                13.10         33.62     1264  34.00765    -118.50015    2018-04-21T16:15:32Z    
4/21/2018    9:15:32    41.07         14.65        0.85      114.61                13.84         33.62     1265  34.00765    -118.50015    2018-04-21T16:15:32Z    
4/21/2018    9:15:32    41.07         14.65        0.86      114.60                14.91         33.62     1266  34.00765    -118.50015    2018-04-21T16:15:32Z    
4/21/2018    9:15:33    41.07         14.65        0.87      114.56                15.64         33.62     1267  34.00765    -118.50015    2018-04-21T16:15:33Z    
4/21/2018    9:15:33    41.07         14.66        0.86      114.49                15.66         33.61     1268  34.00765    -118.50015    2018-04-21T16:15:33Z    
4/21/2018    9:15:33    41.07         14.66        0.86      114.39                15.28         33.62     1269  34.00765    -118.50015    2018-04-21T16:15:33Z    
4/21/2018    9:15:33    41.07         14.65        0.86      114.36                14.89         33.62     1270  34.00765    -118.50015    2018-04-21T16:15:33Z    
4/21/2018    9:15:33    41.07         14.65        0.85      114.46                14.46         33.62     1271  34.00765    -118.50015    2018-04-21T16:15:33Z    
4/21/2018    9:15:33    41.08         14.65        0.83      114.40                13.99         33.62     1272  34.00765    -118.50015    2018-04-21T16:15:33Z    
4/21/2018    9:15:34    41.07         14.65        0.81      114.42                13.69         33.63     1273  34.00765    -118.50015    2018-04-21T16:15:34Z    
4/21/2018    9:15:34    41.07         14.64        0.78      114.44                13.32         33.63     1274  34.00765    -118.50015    2018-04-21T16:15:34Z    
4/21/2018    9:15:34    41.06         14.64        0.75      114.26                12.97         33.62     1275  34.00765    -118.50015    2018-04-21T16:15:34Z    
4/21/2018    9:15:34    41.05         14.63        0.70      114.28                13.40         33.62     1276  34.00765    -118.50015    2018-04-21T16:15:34Z    
4/21/2018    9:15:34    41.04         14.64        0.64      114.19                13.62         33.61     1277  34.00765    -118.50015    2018-04-21T16:15:34Z    
4/21/2018    9:15:34    41.04         14.64        0.58      114.13                13.61         33.60     1278  34.00765    -118.50015    2018-04-21T16:15:34Z    
4/21/2018    9:15:35    41.04         14.63        0.55      114.14                13.42         33.61     1279  34.00765    -118.50015    2018-04-21T16:15:35Z    
4/21/2018    9:15:35    41.04         14.62        0.51      114.10                13.33         33.61     1280  34.00765    -118.50015    2018-04-21T16:15:35Z    
4/21/2018    9:15:35    41.03         14.60        0.51      113.99                13.13         33.62     1281  34.00765    -118.50015    2018-04-21T16:15:35Z    
4/21/2018    9:15:35    41.02         14.59        0.52      114.02                13.08         33.63     1282  34.00765    -118.50015    2018-04-21T16:15:35Z    
4/21/2018    9:15:35    41.02         14.58        0.55      114.00                13.18         33.63     1283  34.00765    -118.50015    2018-04-21T16:15:35Z    
4/21/2018    9:15:35    41.02         14.59        0.60      114.04                13.20         33.63     1284  34.00765    -118.50015    2018-04-21T16:15:35Z    
4/21/2018    9:15:36    41.02         14.59        0.64      113.94                13.17         33.62     1285  34.00765    -118.50015    2018-04-21T16:15:36Z    
4/21/2018    9:15:36    41.02         14.60        0.68      113.87                13.47         33.62     1286  34.00765    -118.50015    2018-04-21T16:15:36Z    
4/21/2018    9:15:36    41.02         14.61        0.72      113.79                13.56         33.62     1287  34.00765    -118.50015    2018-04-21T16:15:36Z    
4/21/2018    9:15:36    41.03         14.60        0.74      113.75                13.45         33.63     1288  34.00765    -118.50015    2018-04-21T16:15:36Z    
4/21/2018    9:15:36    41.03         14.61        0.75      113.75                13.37         33.63     1289  34.00765    -118.50015    2018-04-21T16:15:36Z    
4/21/2018    9:15:36    41.03         14.61        0.75      113.69                13.44         33.62     1290  34.00765    -118.50015    2018-04-21T16:15:36Z    
4/21/2018    9:15:37    41.03         14.61        0.74      113.62                13.67         33.62     1291  34.00765    -118.50015    2018-04-21T16:15:37Z    
4/21/2018    9:15:37    41.03         14.62        0.72      113.57                13.55         33.61     1292  34.00765    -118.50015    2018-04-21T16:15:37Z    
4/21/2018    9:15:37    41.04         14.63        0.68      113.53                13.25         33.61     1293  34.00765    -118.50015    2018-04-21T16:15:37Z    
4/21/2018    9:15:37    41.05         14.64        0.66      113.47                13.14         33.61     1294  34.00765    -118.50015    2018-04-21T16:15:37Z    
4/21/2018    9:15:37    41.05         14.64        0.65      113.49                13.16         33.62     1295  34.00765    -118.50015    2018-04-21T16:15:37Z    
4/21/2018    9:15:37    41.05         14.65        0.66      113.42                13.20         33.61     1296  34.00765    -118.50015    2018-04-21T16:15:37Z    
4/21/2018    9:15:38    41.06         14.67        0.65      113.36                13.24         33.59     1297  34.00765    -118.50015    2018-04-21T16:15:38Z    
4/21/2018    9:15:38    41.06         14.66        0.67      113.37                13.05         33.60     1298  34.00765    -118.50015    2018-04-21T16:15:38Z    
4/21/2018    9:15:38    41.07         14.66        0.71      113.41                12.99         33.61     1299  34.00765    -118.50015    2018-04-21T16:15:38Z    
4/21/2018    9:15:38    41.07         14.67        0.74      113.50                12.80         33.60     1300  34.00765    -118.50015    2018-04-21T16:15:38Z    
4/21/2018    9:15:38    41.05         14.67        0.79      113.55                12.75         33.59     1301  34.00765    -118.50015    2018-04-21T16:15:38Z    
4/21/2018    9:15:38    41.07         14.65        0.85      113.57                12.77         33.62     1302  34.00765    -118.50015    2018-04-21T16:15:38Z    
4/21/2018    9:15:39    41.08         14.65        0.91      113.72                12.77         33.63     1303  34.00765    -118.50015    2018-04-21T16:15:39Z    
4/21/2018    9:15:39    41.07         14.66        0.96      113.74                12.74         33.61     1304  34.00765    -118.50015    2018-04-21T16:15:39Z    
4/21/2018    9:15:39    41.07         14.67        1.00      113.77                12.68         33.61     1305  34.00765    -118.50015    2018-04-21T16:15:39Z    
4/21/2018    9:15:39    41.08         14.67        1.02      113.82                13.03         33.61     1306  34.00765    -118.50015    2018-04-21T16:15:39Z    
4/21/2018    9:15:39    41.08         14.67        1.01      113.88                13.19         33.61     1307  34.00765    -118.50015    2018-04-21T16:15:39Z    
4/21/2018    9:15:39    41.08         14.68        1.00      113.90                13.27         33.61     1308  34.00765    -118.50015    2018-04-21T16:15:39Z    
4/21/2018    9:15:40    41.09         14.67        0.99      114.07                13.26         33.61     1309  34.00765    -118.50015    2018-04-21T16:15:40Z    
4/21/2018    9:15:40    41.09         14.67        0.95      114.13                13.38         33.61     1310  34.00765    -118.50015    2018-04-21T16:15:40Z    
4/21/2018    9:15:40    41.08         14.68        0.91      114.15                13.58         33.61     1311  34.00765    -118.50015    2018-04-21T16:15:40Z    
4/21/2018    9:15:40    41.08         14.68        0.89      114.22                13.46         33.61     1312  34.00765    -118.50015    2018-04-21T16:15:40Z    
4/21/2018    9:15:40    41.08         14.68        0.88      114.32                13.34         33.61     1313  34.00765    -118.50015    2018-04-21T16:15:40Z    
4/21/2018    9:15:40    41.08         14.68        0.85      114.43                13.21         33.61     1314  34.00765    -118.50015    2018-04-21T16:15:40Z    
4/21/2018    9:15:41    41.08         14.67        0.85      114.53                13.38         33.61     1315  34.00765    -118.50015    2018-04-21T16:15:41Z    
4/21/2018    9:15:41    41.08         14.67        0.87      114.58                13.30         33.61     1316  34.00765    -118.50015    2018-04-21T16:15:41Z    
4/21/2018    9:15:41    41.08         14.67        0.88      114.55                13.35         33.61     1317  34.00765    -118.50015    2018-04-21T16:15:41Z    
4/21/2018    9:15:41    41.08         14.67        0.92      114.54                13.64         33.62     1318  34.00765    -118.50015    2018-04-21T16:15:41Z    
4/21/2018    9:15:41    41.09         14.67        0.94      114.67                13.91         33.62     1319  34.00765    -118.50015    2018-04-21T16:15:41Z    
4/21/2018    9:15:41    41.09         14.67        0.98      114.67                13.86         33.62     1320  34.00765    -118.50015    2018-04-21T16:15:41Z    
4/21/2018    9:15:42    41.09         14.67        0.98      114.60                13.68         33.62     1321  34.00765    -118.50015    2018-04-21T16:15:42Z    
4/21/2018    9:15:42    41.09         14.67        1.00      114.68                13.58         33.62     1322  34.00765    -118.50015    2018-04-21T16:15:42Z    
4/21/2018    9:15:42    41.08         14.67        0.99      114.69                13.46         33.62     1323  34.00765    -118.50015    2018-04-21T16:15:42Z    
4/21/2018    9:15:42    41.08         14.67        0.96      114.75                13.18         33.61     1324  34.00765    -118.50015    2018-04-21T16:15:42Z    
4/21/2018    9:15:42    41.08         14.67        0.94      114.76                12.82         33.61     1325  34.00765    -118.50015    2018-04-21T16:15:42Z    
4/21/2018    9:15:42    41.07         14.67        0.91      114.83                12.86         33.61     1326  34.00765    -118.50015    2018-04-21T16:15:42Z    
4/21/2018    9:15:43    41.07         14.66        0.87      114.74                12.82         33.61     1327  34.00765    -118.50015    2018-04-21T16:15:43Z    
4/21/2018    9:15:43    41.07         14.66        0.85      114.81                12.95         33.61     1328  34.00765    -118.50015    2018-04-21T16:15:43Z    
4/21/2018    9:15:43    41.07         14.66        0.82      114.91                13.13         33.62     1329  34.00765    -118.50015    2018-04-21T16:15:43Z    
4/21/2018    9:15:43    41.07         14.65        0.83      114.89                13.38         33.62     1330  34.00765    -118.50015    2018-04-21T16:15:43Z    
4/21/2018    9:15:43    41.07         14.65        0.84      114.92                13.39         33.62     1331  34.00765    -118.50015    2018-04-21T16:15:43Z    
4/21/2018    9:15:43    41.07         14.63        0.87      114.94                13.31         33.64     1332  34.00765    -118.50015    2018-04-21T16:15:43Z    
4/21/2018    9:15:44    41.06         14.62        0.89      115.06                13.18         33.64     1333  34.00765    -118.50015    2018-04-21T16:15:44Z    
4/21/2018    9:15:44    41.06         14.62        0.92      114.99                13.13         33.64     1334  34.00765    -118.50015    2018-04-21T16:15:44Z    
4/21/2018    9:15:44    41.06         14.63        0.94      114.84                13.22         33.63     1335  34.00765    -118.50015    2018-04-21T16:15:44Z    
4/21/2018    9:15:44    41.06         14.63        0.96      114.82                13.38         33.63     1336  34.00765    -118.50015    2018-04-21T16:15:44Z    
4/21/2018    9:15:44    41.05         14.61        0.97      114.80                13.40         33.64     1337  34.00765    -118.50015    2018-04-21T16:15:44Z    
4/21/2018    9:15:44    41.05         14.61        0.96      114.69                13.31         33.64     1338  34.00765    -118.50015    2018-04-21T16:15:44Z    
4/21/2018    9:15:45    41.05         14.61        0.94      114.65                13.38         33.63     1339  34.00765    -118.50015    2018-04-21T16:15:45Z    
4/21/2018    9:15:45    41.05         14.62        0.93      114.55                13.68         33.63     1340  34.00765    -118.50015    2018-04-21T16:15:45Z    
4/21/2018    9:15:45    41.04         14.62        0.94      114.40                13.64         33.62     1341  34.00765    -118.50015    2018-04-21T16:15:45Z    
4/21/2018    9:15:45    41.05         14.61        0.93      114.38                13.41         33.63     1342  34.00765    -118.50015    2018-04-21T16:15:45Z    
4/21/2018    9:15:45    41.05         14.62        0.94      114.27                13.23         33.63     1343  34.00765    -118.50015    2018-04-21T16:15:45Z    
4/21/2018    9:15:45    41.05         14.62        0.95      114.21                13.38         33.63     1344  34.00765    -118.50015    2018-04-21T16:15:45Z    
4/21/2018    9:15:46    41.04         14.61        0.93      114.21                13.35         33.63     1345  34.00765    -118.50015    2018-04-21T16:15:46Z    
4/21/2018    9:15:46    41.03         14.61        0.93      114.15                13.75         33.62     1346  34.00765    -118.50015    2018-04-21T16:15:46Z    
4/21/2018    9:15:46    41.03         14.61        0.92      114.14                14.27         33.62     1347  34.00765    -118.50015    2018-04-21T16:15:46Z    
4/21/2018    9:15:46    41.03         14.61        0.89      114.07                14.62         33.62     1348  34.00765    -118.50015    2018-04-21T16:15:46Z    
4/21/2018    9:15:46    41.03         14.61        0.86      114.02                15.02         33.61     1349  34.00765    -118.50015    2018-04-21T16:15:46Z    
4/21/2018    9:15:46    41.03         14.61        0.84      114.02                15.32         33.62     1350  34.00765    -118.50015    2018-04-21T16:15:46Z    
4/21/2018    9:15:47    41.03         14.61        0.83      113.94                15.68         33.62     1351  34.00765    -118.50015    2018-04-21T16:15:47Z    
4/21/2018    9:15:47    41.03         14.61        0.85      113.89                15.63         33.62     1352  34.00765    -118.50015    2018-04-21T16:15:47Z    
4/21/2018    9:15:47    41.02         14.61        0.88      113.85                15.59         33.61     1353  34.00765    -118.50015    2018-04-21T16:15:47Z    
4/21/2018    9:15:47    41.02         14.61        0.93      113.78                15.59         33.61     1354  34.00765    -118.50015    2018-04-21T16:15:47Z    
4/21/2018    9:15:47    41.01         14.61        1.00      113.70                15.20         33.60     1355  34.00765    -118.50015    2018-04-21T16:15:47Z    
4/21/2018    9:15:47    41.01         14.61        1.02      113.70                14.74         33.60     1356  34.00765    -118.50015    2018-04-21T16:15:47Z    
4/21/2018    9:15:48    41.01         14.61        1.05      113.66                14.60         33.61     1357  34.00765    -118.50015    2018-04-21T16:15:48Z    
4/21/2018    9:15:48    41.02         14.61        1.05      113.64                14.37         33.61     1358  34.00765    -118.50015    2018-04-21T16:15:48Z    
4/21/2018    9:15:48    41.02         14.61        1.03      113.64                14.54         33.61     1359  34.00765    -118.50015    2018-04-21T16:15:48Z    
4/21/2018    9:15:48    41.02         14.60        1.01      113.55                14.60         33.61     1360  34.00765    -118.50015    2018-04-21T16:15:48Z    
4/21/2018    9:15:48    41.01         14.60        0.98      113.52                14.53         33.61     1361  34.00765    -118.50015    2018-04-21T16:15:48Z    
4/21/2018    9:15:48    41.02         14.60        0.93      113.48                14.47         33.62     1362  34.00765    -118.50015    2018-04-21T16:15:48Z    
4/21/2018    9:15:49    41.02         14.60        0.89      113.47                14.52         33.62     1363  34.00765    -118.50015    2018-04-21T16:15:49Z    
4/21/2018    9:15:49    41.02         14.60        0.87      113.50                14.99         33.62     1364  34.00765    -118.50015    2018-04-21T16:15:49Z    
4/21/2018    9:15:49    41.01         14.60        0.83      113.42                15.50         33.61     1365  34.00765    -118.50015    2018-04-21T16:15:49Z    
4/21/2018    9:15:49    41.01         14.60        0.84      113.36                16.08         33.61     1366  34.00765    -118.50015    2018-04-21T16:15:49Z    
4/21/2018    9:15:49    41.01         14.60        0.83      113.29                16.19         33.61     1367  34.00765    -118.50015    2018-04-21T16:15:49Z    
4/21/2018    9:15:49    41.01         14.60        0.83      113.33                15.82         33.61     1368  34.00765    -118.50015    2018-04-21T16:15:49Z    
4/21/2018    9:15:50    41.01         14.60        0.83      113.34                15.63         33.62     1369  34.00765    -118.50015    2018-04-21T16:15:50Z    
4/21/2018    9:15:50    41.01         14.59        0.83      113.30                15.38         33.62     1370  34.00765    -118.50015    2018-04-21T16:15:50Z    
4/21/2018    9:15:50    41.01         14.59        0.81      113.30                15.11         33.62     1371  34.00765    -118.50015    2018-04-21T16:15:50Z    
4/21/2018    9:15:50    41.01         14.59        0.78      113.25                14.90         33.62     1372  34.00765    -118.50015    2018-04-21T16:15:50Z    
4/21/2018    9:15:50    41.01         14.59        0.76      113.28                15.08         33.62     1373  34.00765    -118.50015    2018-04-21T16:15:50Z    
4/21/2018    9:15:50    41.01         14.60        0.73      113.20                15.16         33.61     1374  34.00765    -118.50015    2018-04-21T16:15:50Z    
4/21/2018    9:15:51    41.01         14.59        0.68      113.20                15.27         33.61     1375  34.00765    -118.50015    2018-04-21T16:15:51Z    
4/21/2018    9:15:51    41.01         14.59        0.67      113.26                15.41         33.61     1376  34.00765    -118.50015    2018-04-21T16:15:51Z    
4/21/2018    9:15:51    41.01         14.59        0.65      113.19                15.23         33.62     1377  34.00765    -118.50015    2018-04-21T16:15:51Z    
4/21/2018    9:15:51    41.01         14.59        0.64      113.15                15.05         33.62     1378  34.00765    -118.50015    2018-04-21T16:15:51Z    
4/21/2018    9:15:51    41.01         14.59        0.66      113.10                14.93         33.62     1379  34.00765    -118.50015    2018-04-21T16:15:51Z    
4/21/2018    9:15:51    41.01         14.59        0.70      113.07                14.90         33.61     1380  34.00765    -118.50015    2018-04-21T16:15:51Z    
4/21/2018    9:15:52    41.01         14.59        0.73      113.01                14.89         33.61     1381  34.00765    -118.50015    2018-04-21T16:15:52Z    
4/21/2018    9:15:52    41.01         14.59        0.76      113.00                14.72         33.61     1382  34.00765    -118.50015    2018-04-21T16:15:52Z    
4/21/2018    9:15:52    41.01         14.59        0.78      113.01                14.71         33.61     1383  34.00765    -118.50015    2018-04-21T16:15:52Z    
4/21/2018    9:15:52    41.01         14.60        0.82      112.98                14.64         33.61     1384  34.00765    -118.50015